<?xml version='1.0' encoding='UTF-8'?><gpx version="1.1" creator="JPX - https://github.com/jenetics/jpx" xmlns="http://www.topografix.com/GPX/1/1"><trk><trkseg><trkpt lat="44.7512089" lon="7.7979969"><ele>271.0</ele><time>2026-04-06T10:04:52.229Z</time></trkpt><trkpt lat="44.75116" lon="7.7980615"><ele>271.0</ele><time>2026-04-06T10:04:53.229Z</time></trkpt><trkpt lat="44.751106" lon="7.7981388"><ele>271.0</ele><time>2026-04-06T10:04:54.229Z</time></trkpt><trkpt lat="44.7510475" lon="7.7982283"><ele>271.0</ele><time>2026-04-06T10:04:55.229Z</time></trkpt><trkpt lat="44.7509799" lon="7.7983115"><ele>271.0</ele><time>2026-04-06T10:04:56.229Z</time></trkpt><trkpt lat="44.7509245" lon="7.7983869"><ele>271.0</ele><time>2026-04-06T10:04:57.229Z</time></trkpt><trkpt lat="44.7508657" lon="7.7984514"><ele>270.8333333333333</ele><time>2026-04-06T10:04:58.229Z</time></trkpt><trkpt lat="44.7508147" lon="7.7985099"><ele>270.66666666666663</ele><time>2026-04-06T10:04:59.229Z</time></trkpt><trkpt lat="44.7507282" lon="7.7986066"><ele>270.5</ele><time>2026-04-06T10:05:01.229Z</time></trkpt><trkpt lat="44.75065" lon="7.7986909"><ele>270.3333333333333</ele><time>2026-04-06T10:05:03.229Z</time></trkpt><trkpt lat="44.7505932" lon="7.798734"><ele>270.1666666666667</ele><time>2026-04-06T10:05:05.229Z</time></trkpt><trkpt lat="44.7505309" lon="7.7987743"><ele>270.0</ele><time>2026-04-06T10:05:11.229Z</time></trkpt><trkpt lat="44.7504655" lon="7.7986551"><ele>270.0</ele><time>2026-04-06T10:05:13.229Z</time></trkpt><trkpt lat="44.7504109" lon="7.7985724"><ele>270.0</ele><time>2026-04-06T10:05:14.229Z</time></trkpt><trkpt lat="44.7503683" lon="7.7984824"><ele>270.0</ele><time>2026-04-06T10:05:15.229Z</time></trkpt><trkpt lat="44.7503319" lon="7.7983914"><ele>270.0</ele><time>2026-04-06T10:05:16.229Z</time></trkpt><trkpt lat="44.7502524" lon="7.7983225"><ele>270.0</ele><time>2026-04-06T10:05:18.23Z</time></trkpt><trkpt lat="44.750189" lon="7.7983656"><ele>270.0</ele><time>2026-04-06T10:05:19.23Z</time></trkpt><trkpt lat="44.7501222" lon="7.7984487"><ele>270.1666666666667</ele><time>2026-04-06T10:05:20.229Z</time></trkpt><trkpt lat="44.7500623" lon="7.798547"><ele>270.3333333333333</ele><time>2026-04-06T10:05:21.229Z</time></trkpt><trkpt lat="44.7499953" lon="7.798626"><ele>270.5</ele><time>2026-04-06T10:05:22.229Z</time></trkpt><trkpt lat="44.7499371" lon="7.7987005"><ele>270.66666666666663</ele><time>2026-04-06T10:05:23.229Z</time></trkpt><trkpt lat="44.7498818" lon="7.7987838"><ele>270.8333333333333</ele><time>2026-04-06T10:05:24.229Z</time></trkpt><trkpt lat="44.7498322" lon="7.798858"><ele>271.0</ele><time>2026-04-06T10:05:25.229Z</time></trkpt><trkpt lat="44.7497773" lon="7.798931"><ele>271.0</ele><time>2026-04-06T10:05:26.229Z</time></trkpt><trkpt lat="44.7497294" lon="7.7990026"><ele>271.0</ele><time>2026-04-06T10:05:27.229Z</time></trkpt><trkpt lat="44.7496712" lon="7.7990713"><ele>271.0</ele><time>2026-04-06T10:05:28.229Z</time></trkpt><trkpt lat="44.7496094" lon="7.7991539"><ele>271.0</ele><time>2026-04-06T10:05:29.229Z</time></trkpt><trkpt lat="44.7495479" lon="7.7992277"><ele>271.0</ele><time>2026-04-06T10:05:30.229Z</time></trkpt><trkpt lat="44.7494853" lon="7.7993023"><ele>271.0</ele><time>2026-04-06T10:05:31.229Z</time></trkpt><trkpt lat="44.7494126" lon="7.799393"><ele>270.75</ele><time>2026-04-06T10:05:32.229Z</time></trkpt><trkpt lat="44.7493321" lon="7.7995087"><ele>270.5</ele><time>2026-04-06T10:05:33.229Z</time></trkpt><trkpt lat="44.749241" lon="7.799629"><ele>270.25</ele><time>2026-04-06T10:05:34.229Z</time></trkpt><trkpt lat="44.7491499" lon="7.7997482"><ele>270.0</ele><time>2026-04-06T10:05:35.229Z</time></trkpt><trkpt lat="44.7490585" lon="7.7998584"><ele>270.0</ele><time>2026-04-06T10:05:36.229Z</time></trkpt><trkpt lat="44.7489684" lon="7.7999643"><ele>270.0</ele><time>2026-04-06T10:05:37.23Z</time></trkpt><trkpt lat="44.7488792" lon="7.8000724"><ele>270.0</ele><time>2026-04-06T10:05:38.229Z</time></trkpt><trkpt lat="44.7487873" lon="7.800187"><ele>270.0</ele><time>2026-04-06T10:05:39.229Z</time></trkpt><trkpt lat="44.7486961" lon="7.8003061"><ele>270.2</ele><time>2026-04-06T10:05:40.229Z</time></trkpt><trkpt lat="44.7486101" lon="7.8004222"><ele>270.4</ele><time>2026-04-06T10:05:41.229Z</time></trkpt><trkpt lat="44.7485302" lon="7.8005319"><ele>270.6</ele><time>2026-04-06T10:05:42.229Z</time></trkpt><trkpt lat="44.7484505" lon="7.8006356"><ele>270.8</ele><time>2026-04-06T10:05:43.229Z</time></trkpt><trkpt lat="44.7483771" lon="7.8007491"><ele>271.0</ele><time>2026-04-06T10:05:44.229Z</time></trkpt><trkpt lat="44.7483054" lon="7.8008592"><ele>271.0</ele><time>2026-04-06T10:05:45.23Z</time></trkpt><trkpt lat="44.7482317" lon="7.8009637"><ele>271.0</ele><time>2026-04-06T10:05:46.229Z</time></trkpt><trkpt lat="44.748161" lon="7.8010798"><ele>271.0</ele><time>2026-04-06T10:05:47.229Z</time></trkpt><trkpt lat="44.7480837" lon="7.8012145"><ele>271.0</ele><time>2026-04-06T10:05:48.229Z</time></trkpt><trkpt lat="44.7480066" lon="7.8013438"><ele>271.0</ele><time>2026-04-06T10:05:49.229Z</time></trkpt><trkpt lat="44.7479306" lon="7.8014734"><ele>271.0</ele><time>2026-04-06T10:05:50.23Z</time></trkpt><trkpt lat="44.7478529" lon="7.8015985"><ele>271.0</ele><time>2026-04-06T10:05:51.229Z</time></trkpt><trkpt lat="44.7477819" lon="7.8017105"><ele>271.0</ele><time>2026-04-06T10:05:52.229Z</time></trkpt><trkpt lat="44.7477295" lon="7.8018152"><ele>271.0</ele><time>2026-04-06T10:05:53.229Z</time></trkpt><trkpt lat="44.7477005" lon="7.8019147"><ele>271.16666666666663</ele><time>2026-04-06T10:05:54.229Z</time></trkpt><trkpt lat="44.7476898" lon="7.8020072"><ele>271.3333333333333</ele><time>2026-04-06T10:05:55.229Z</time></trkpt><trkpt lat="44.7477172" lon="7.8021034"><ele>271.5</ele><time>2026-04-06T10:05:56.229Z</time></trkpt><trkpt lat="44.747762" lon="7.8021894"><ele>271.6666666666667</ele><time>2026-04-06T10:05:57.229Z</time></trkpt><trkpt lat="44.7478109" lon="7.8022827"><ele>271.83333333333337</ele><time>2026-04-06T10:05:58.229Z</time></trkpt><trkpt lat="44.7478657" lon="7.8023781"><ele>272.0</ele><time>2026-04-06T10:05:59.229Z</time></trkpt><trkpt lat="44.7479213" lon="7.8024626"><ele>272.1666666666667</ele><time>2026-04-06T10:06:00.229Z</time></trkpt><trkpt lat="44.7479669" lon="7.8025479"><ele>272.33333333333337</ele><time>2026-04-06T10:06:01.229Z</time></trkpt><trkpt lat="44.7480193" lon="7.8026355"><ele>272.5</ele><time>2026-04-06T10:06:02.229Z</time></trkpt><trkpt lat="44.7480722" lon="7.802729"><ele>272.6666666666667</ele><time>2026-04-06T10:06:03.229Z</time></trkpt><trkpt lat="44.748125" lon="7.8028235"><ele>272.8333333333333</ele><time>2026-04-06T10:06:04.229Z</time></trkpt><trkpt lat="44.7481871" lon="7.8029126"><ele>273.0</ele><time>2026-04-06T10:06:05.229Z</time></trkpt><trkpt lat="44.7482469" lon="7.8030141"><ele>273.0</ele><time>2026-04-06T10:06:06.229Z</time></trkpt><trkpt lat="44.7483061" lon="7.8031217"><ele>273.0</ele><time>2026-04-06T10:06:07.229Z</time></trkpt><trkpt lat="44.7483718" lon="7.8032224"><ele>273.0</ele><time>2026-04-06T10:06:08.229Z</time></trkpt><trkpt lat="44.7484298" lon="7.8033233"><ele>273.0</ele><time>2026-04-06T10:06:09.229Z</time></trkpt><trkpt lat="44.7484854" lon="7.803414"><ele>273.0</ele><time>2026-04-06T10:06:10.229Z</time></trkpt><trkpt lat="44.7485242" lon="7.8034889"><ele>273.0</ele><time>2026-04-06T10:06:11.229Z</time></trkpt><trkpt lat="44.7485954" lon="7.8035885"><ele>273.4</ele><time>2026-04-06T10:06:13.229Z</time></trkpt><trkpt lat="44.7486479" lon="7.8036626"><ele>273.8</ele><time>2026-04-06T10:06:16.229Z</time></trkpt><trkpt lat="44.7486893" lon="7.8037642"><ele>274.2</ele><time>2026-04-06T10:06:37.229Z</time></trkpt><trkpt lat="44.7487762" lon="7.8038823"><ele>274.6</ele><time>2026-04-06T10:06:39.229Z</time></trkpt><trkpt lat="44.7488349" lon="7.8039755"><ele>275.0</ele><time>2026-04-06T10:06:40.229Z</time></trkpt><trkpt lat="44.7489035" lon="7.8040738"><ele>275.0</ele><time>2026-04-06T10:06:41.229Z</time></trkpt><trkpt lat="44.7489665" lon="7.8041995"><ele>275.0</ele><time>2026-04-06T10:06:42.229Z</time></trkpt><trkpt lat="44.7490383" lon="7.8043328"><ele>275.0</ele><time>2026-04-06T10:06:43.229Z</time></trkpt><trkpt lat="44.7491204" lon="7.8044733"><ele>275.0</ele><time>2026-04-06T10:06:44.229Z</time></trkpt><trkpt lat="44.7492095" lon="7.8046233"><ele>275.0</ele><time>2026-04-06T10:06:45.229Z</time></trkpt><trkpt lat="44.7492968" lon="7.8047635"><ele>275.0</ele><time>2026-04-06T10:06:46.229Z</time></trkpt><trkpt lat="44.7493849" lon="7.8048948"><ele>275.0</ele><time>2026-04-06T10:06:47.229Z</time></trkpt><trkpt lat="44.7494675" lon="7.8050268"><ele>275.0</ele><time>2026-04-06T10:06:48.229Z</time></trkpt><trkpt lat="44.7495433" lon="7.8051513"><ele>275.4</ele><time>2026-04-06T10:06:49.229Z</time></trkpt><trkpt lat="44.7496121" lon="7.8052731"><ele>275.8</ele><time>2026-04-06T10:06:50.229Z</time></trkpt><trkpt lat="44.7496745" lon="7.8053846"><ele>276.2</ele><time>2026-04-06T10:06:51.229Z</time></trkpt><trkpt lat="44.74973" lon="7.8054845"><ele>276.6</ele><time>2026-04-06T10:06:52.229Z</time></trkpt><trkpt lat="44.749772" lon="7.8055602"><ele>277.0</ele><time>2026-04-06T10:06:53.229Z</time></trkpt><trkpt lat="44.7498206" lon="7.8056831"><ele>277.0</ele><time>2026-04-06T10:06:55.229Z</time></trkpt><trkpt lat="44.7498569" lon="7.8057631"><ele>277.0</ele><time>2026-04-06T10:06:59.229Z</time></trkpt><trkpt lat="44.7499312" lon="7.8058105"><ele>277.0</ele><time>2026-04-06T10:07:02.229Z</time></trkpt><trkpt lat="44.7500086" lon="7.8058363"><ele>277.0</ele><time>2026-04-06T10:07:04.229Z</time></trkpt><trkpt lat="44.7500553" lon="7.80594"><ele>277.0</ele><time>2026-04-06T10:07:06.229Z</time></trkpt><trkpt lat="44.7500422" lon="7.8060544"><ele>277.0</ele><time>2026-04-06T10:07:07.229Z</time></trkpt><trkpt lat="44.750003" lon="7.8062285"><ele>277.5</ele><time>2026-04-06T10:07:08.229Z</time></trkpt><trkpt lat="44.7499933" lon="7.8064207"><ele>278.0</ele><time>2026-04-06T10:07:09.229Z</time></trkpt><trkpt lat="44.749974" lon="7.8066045"><ele>278.5</ele><time>2026-04-06T10:07:10.229Z</time></trkpt><trkpt lat="44.7499502" lon="7.8067941"><ele>279.0</ele><time>2026-04-06T10:07:11.229Z</time></trkpt><trkpt lat="44.7499234" lon="7.8069682"><ele>279.3333333333333</ele><time>2026-04-06T10:07:12.229Z</time></trkpt><trkpt lat="44.7498939" lon="7.8071164"><ele>279.6666666666667</ele><time>2026-04-06T10:07:13.229Z</time></trkpt><trkpt lat="44.7498431" lon="7.8072327"><ele>280.0</ele><time>2026-04-06T10:07:14.229Z</time></trkpt><trkpt lat="44.7497916" lon="7.8073263"><ele>280.33333333333337</ele><time>2026-04-06T10:07:15.229Z</time></trkpt><trkpt lat="44.7497401" lon="7.8074087"><ele>280.6666666666667</ele><time>2026-04-06T10:07:16.229Z</time></trkpt><trkpt lat="44.7497009" lon="7.8074838"><ele>281.0</ele><time>2026-04-06T10:07:17.229Z</time></trkpt><trkpt lat="44.7496362" lon="7.8076068"><ele>281.6</ele><time>2026-04-06T10:07:19.229Z</time></trkpt><trkpt lat="44.7495716" lon="7.8077313"><ele>282.20000000000005</ele><time>2026-04-06T10:07:21.229Z</time></trkpt><trkpt lat="44.7495269" lon="7.8078168"><ele>282.79999999999995</ele><time>2026-04-06T10:07:22.229Z</time></trkpt><trkpt lat="44.7494788" lon="7.8079137"><ele>283.4</ele><time>2026-04-06T10:07:23.229Z</time></trkpt><trkpt lat="44.7494342" lon="7.8080263"><ele>284.0</ele><time>2026-04-06T10:07:24.229Z</time></trkpt><trkpt lat="44.7493965" lon="7.8081526"><ele>283.25</ele><time>2026-04-06T10:07:25.229Z</time></trkpt><trkpt lat="44.7493646" lon="7.8083067"><ele>282.5</ele><time>2026-04-06T10:07:26.229Z</time></trkpt><trkpt lat="44.7493326" lon="7.8084656"><ele>281.75</ele><time>2026-04-06T10:07:27.229Z</time></trkpt><trkpt lat="44.7492888" lon="7.8086259"><ele>281.0</ele><time>2026-04-06T10:07:28.229Z</time></trkpt><trkpt lat="44.7492395" lon="7.8087866"><ele>281.0</ele><time>2026-04-06T10:07:29.229Z</time></trkpt><trkpt lat="44.7491907" lon="7.8089319"><ele>281.0</ele><time>2026-04-06T10:07:30.229Z</time></trkpt><trkpt lat="44.7491502" lon="7.8090744"><ele>281.0</ele><time>2026-04-06T10:07:31.229Z</time></trkpt><trkpt lat="44.7491134" lon="7.809209"><ele>281.0</ele><time>2026-04-06T10:07:32.229Z</time></trkpt><trkpt lat="44.7490805" lon="7.8093477"><ele>281.0</ele><time>2026-04-06T10:07:33.229Z</time></trkpt><trkpt lat="44.7490465" lon="7.809503"><ele>281.0</ele><time>2026-04-06T10:07:34.229Z</time></trkpt><trkpt lat="44.7490195" lon="7.8096646"><ele>281.0</ele><time>2026-04-06T10:07:35.229Z</time></trkpt><trkpt lat="44.7489981" lon="7.8098249"><ele>281.0</ele><time>2026-04-06T10:07:36.229Z</time></trkpt><trkpt lat="44.7489788" lon="7.8099808"><ele>281.0</ele><time>2026-04-06T10:07:37.229Z</time></trkpt><trkpt lat="44.7489619" lon="7.8101358"><ele>281.6</ele><time>2026-04-06T10:07:38.229Z</time></trkpt><trkpt lat="44.7489484" lon="7.8102805"><ele>282.20000000000005</ele><time>2026-04-06T10:07:39.229Z</time></trkpt><trkpt lat="44.7489265" lon="7.8104217"><ele>282.79999999999995</ele><time>2026-04-06T10:07:40.229Z</time></trkpt><trkpt lat="44.7489042" lon="7.8105618"><ele>283.4</ele><time>2026-04-06T10:07:41.229Z</time></trkpt><trkpt lat="44.7488702" lon="7.8107235"><ele>284.0</ele><time>2026-04-06T10:07:42.229Z</time></trkpt><trkpt lat="44.7488265" lon="7.8108972"><ele>285.75</ele><time>2026-04-06T10:07:43.229Z</time></trkpt><trkpt lat="44.7487687" lon="7.8110822"><ele>287.5</ele><time>2026-04-06T10:07:44.229Z</time></trkpt><trkpt lat="44.7487179" lon="7.8112469"><ele>289.25</ele><time>2026-04-06T10:07:45.23Z</time></trkpt><trkpt lat="44.7486731" lon="7.811405"><ele>291.0</ele><time>2026-04-06T10:07:46.229Z</time></trkpt><trkpt lat="44.7486269" lon="7.8115628"><ele>291.0</ele><time>2026-04-06T10:07:47.229Z</time></trkpt><trkpt lat="44.7485868" lon="7.8117396"><ele>291.0</ele><time>2026-04-06T10:07:48.229Z</time></trkpt><trkpt lat="44.7485458" lon="7.8119222"><ele>291.0</ele><time>2026-04-06T10:07:49.229Z</time></trkpt><trkpt lat="44.7484972" lon="7.8121226"><ele>291.0</ele><time>2026-04-06T10:07:50.229Z</time></trkpt><trkpt lat="44.7484486" lon="7.8123353"><ele>290.3333333333333</ele><time>2026-04-06T10:07:51.229Z</time></trkpt><trkpt lat="44.7483919" lon="7.8125555"><ele>289.66666666666663</ele><time>2026-04-06T10:07:52.229Z</time></trkpt><trkpt lat="44.748319" lon="7.8127745"><ele>289.0</ele><time>2026-04-06T10:07:53.229Z</time></trkpt><trkpt lat="44.7482503" lon="7.8129972"><ele>289.0</ele><time>2026-04-06T10:07:54.229Z</time></trkpt><trkpt lat="44.7481852" lon="7.8132073"><ele>289.0</ele><time>2026-04-06T10:07:55.229Z</time></trkpt><trkpt lat="44.7481285" lon="7.813395"><ele>289.0</ele><time>2026-04-06T10:07:56.229Z</time></trkpt><trkpt lat="44.7480904" lon="7.8135789"><ele>289.0</ele><time>2026-04-06T10:07:57.229Z</time></trkpt><trkpt lat="44.7480653" lon="7.8137583"><ele>288.75</ele><time>2026-04-06T10:07:58.229Z</time></trkpt><trkpt lat="44.7480389" lon="7.8139353"><ele>288.5</ele><time>2026-04-06T10:07:59.229Z</time></trkpt><trkpt lat="44.7480116" lon="7.814107"><ele>288.25</ele><time>2026-04-06T10:08:00.229Z</time></trkpt><trkpt lat="44.7479804" lon="7.8142599"><ele>288.0</ele><time>2026-04-06T10:08:01.229Z</time></trkpt><trkpt lat="44.7479413" lon="7.8144151"><ele>288.75</ele><time>2026-04-06T10:08:02.229Z</time></trkpt><trkpt lat="44.7479219" lon="7.8145915"><ele>289.5</ele><time>2026-04-06T10:08:03.229Z</time></trkpt><trkpt lat="44.7479302" lon="7.8148001"><ele>290.25</ele><time>2026-04-06T10:08:04.229Z</time></trkpt><trkpt lat="44.7479523" lon="7.8150176"><ele>291.0</ele><time>2026-04-06T10:08:05.229Z</time></trkpt><trkpt lat="44.7479793" lon="7.8152454"><ele>292.0</ele><time>2026-04-06T10:08:06.229Z</time></trkpt><trkpt lat="44.748006" lon="7.8154826"><ele>293.0</ele><time>2026-04-06T10:08:07.23Z</time></trkpt><trkpt lat="44.7480134" lon="7.8157181"><ele>294.0</ele><time>2026-04-06T10:08:08.229Z</time></trkpt><trkpt lat="44.7479881" lon="7.8159705"><ele>293.3333333333333</ele><time>2026-04-06T10:08:09.229Z</time></trkpt><trkpt lat="44.7479443" lon="7.8162279"><ele>292.66666666666663</ele><time>2026-04-06T10:08:10.229Z</time></trkpt><trkpt lat="44.7478996" lon="7.8164621"><ele>292.0</ele><time>2026-04-06T10:08:11.229Z</time></trkpt><trkpt lat="44.7478614" lon="7.8166661"><ele>292.5</ele><time>2026-04-06T10:08:12.229Z</time></trkpt><trkpt lat="44.7478301" lon="7.8168507"><ele>293.0</ele><time>2026-04-06T10:08:13.229Z</time></trkpt><trkpt lat="44.7477985" lon="7.8170131"><ele>293.5</ele><time>2026-04-06T10:08:14.229Z</time></trkpt><trkpt lat="44.7477701" lon="7.8171574"><ele>294.0</ele><time>2026-04-06T10:08:15.229Z</time></trkpt><trkpt lat="44.7477451" lon="7.8172939"><ele>294.0</ele><time>2026-04-06T10:08:16.229Z</time></trkpt><trkpt lat="44.7477126" lon="7.8174221"><ele>294.0</ele><time>2026-04-06T10:08:17.229Z</time></trkpt><trkpt lat="44.7476725" lon="7.8175485"><ele>294.0</ele><time>2026-04-06T10:08:18.229Z</time></trkpt><trkpt lat="44.7476118" lon="7.8176713"><ele>294.0</ele><time>2026-04-06T10:08:19.229Z</time></trkpt><trkpt lat="44.7475538" lon="7.8177929"><ele>294.0</ele><time>2026-04-06T10:08:20.229Z</time></trkpt><trkpt lat="44.7474937" lon="7.8179049"><ele>293.2</ele><time>2026-04-06T10:08:21.229Z</time></trkpt><trkpt lat="44.7474196" lon="7.8180191"><ele>292.4</ele><time>2026-04-06T10:08:22.229Z</time></trkpt><trkpt lat="44.7473489" lon="7.8181452"><ele>291.6</ele><time>2026-04-06T10:08:23.229Z</time></trkpt><trkpt lat="44.7472865" lon="7.8182708"><ele>290.8</ele><time>2026-04-06T10:08:24.229Z</time></trkpt><trkpt lat="44.7472339" lon="7.818396"><ele>290.0</ele><time>2026-04-06T10:08:25.229Z</time></trkpt><trkpt lat="44.7471844" lon="7.8185284"><ele>290.0</ele><time>2026-04-06T10:08:26.229Z</time></trkpt><trkpt lat="44.7471405" lon="7.8186629"><ele>290.0</ele><time>2026-04-06T10:08:27.229Z</time></trkpt><trkpt lat="44.7471005" lon="7.8187814"><ele>290.0</ele><time>2026-04-06T10:08:28.229Z</time></trkpt><trkpt lat="44.7470704" lon="7.818901"><ele>290.0</ele><time>2026-04-06T10:08:29.229Z</time></trkpt><trkpt lat="44.7470415" lon="7.8190353"><ele>290.0</ele><time>2026-04-06T10:08:30.229Z</time></trkpt><trkpt lat="44.7469976" lon="7.8191439"><ele>290.0</ele><time>2026-04-06T10:08:31.229Z</time></trkpt><trkpt lat="44.7469558" lon="7.8192315"><ele>290.0</ele><time>2026-04-06T10:08:32.229Z</time></trkpt><trkpt lat="44.7469514" lon="7.8193313"><ele>290.0</ele><time>2026-04-06T10:08:33.229Z</time></trkpt><trkpt lat="44.7469658" lon="7.8194403"><ele>290.0</ele><time>2026-04-06T10:08:34.229Z</time></trkpt><trkpt lat="44.7469928" lon="7.8195693"><ele>290.0</ele><time>2026-04-06T10:08:35.229Z</time></trkpt><trkpt lat="44.7470064" lon="7.8197045"><ele>290.0</ele><time>2026-04-06T10:08:36.229Z</time></trkpt><trkpt lat="44.7470141" lon="7.8198535"><ele>290.8</ele><time>2026-04-06T10:08:37.229Z</time></trkpt><trkpt lat="44.7470174" lon="7.8199974"><ele>291.6</ele><time>2026-04-06T10:08:38.229Z</time></trkpt><trkpt lat="44.7470183" lon="7.8201515"><ele>292.4</ele><time>2026-04-06T10:08:39.229Z</time></trkpt><trkpt lat="44.7470273" lon="7.8203053"><ele>293.2</ele><time>2026-04-06T10:08:40.229Z</time></trkpt><trkpt lat="44.7470519" lon="7.8204399"><ele>294.0</ele><time>2026-04-06T10:08:41.229Z</time></trkpt><trkpt lat="44.7470741" lon="7.8205655"><ele>294.2</ele><time>2026-04-06T10:08:42.229Z</time></trkpt><trkpt lat="44.7470836" lon="7.8206916"><ele>294.4</ele><time>2026-04-06T10:08:43.229Z</time></trkpt><trkpt lat="44.7470678" lon="7.8208308"><ele>294.6</ele><time>2026-04-06T10:08:44.229Z</time></trkpt><trkpt lat="44.7470306" lon="7.8209753"><ele>294.8</ele><time>2026-04-06T10:08:45.229Z</time></trkpt><trkpt lat="44.7469915" lon="7.8211398"><ele>295.0</ele><time>2026-04-06T10:08:46.229Z</time></trkpt><trkpt lat="44.7469778" lon="7.8213096"><ele>295.0</ele><time>2026-04-06T10:08:47.229Z</time></trkpt><trkpt lat="44.7469686" lon="7.821488"><ele>295.0</ele><time>2026-04-06T10:08:48.229Z</time></trkpt><trkpt lat="44.7469467" lon="7.8216907"><ele>295.0</ele><time>2026-04-06T10:08:49.229Z</time></trkpt><trkpt lat="44.7469211" lon="7.8219013"><ele>295.0</ele><time>2026-04-06T10:08:50.229Z</time></trkpt><trkpt lat="44.7468918" lon="7.8220948"><ele>294.0</ele><time>2026-04-06T10:08:51.229Z</time></trkpt><trkpt lat="44.7468647" lon="7.8222727"><ele>293.0</ele><time>2026-04-06T10:08:52.229Z</time></trkpt><trkpt lat="44.7468287" lon="7.8224498"><ele>292.0</ele><time>2026-04-06T10:08:53.229Z</time></trkpt><trkpt lat="44.7467929" lon="7.8226155"><ele>291.0</ele><time>2026-04-06T10:08:54.229Z</time></trkpt><trkpt lat="44.7467574" lon="7.8227588"><ele>291.0</ele><time>2026-04-06T10:08:55.229Z</time></trkpt><trkpt lat="44.7467243" lon="7.8228949"><ele>291.0</ele><time>2026-04-06T10:08:56.229Z</time></trkpt><trkpt lat="44.7466903" lon="7.8230424"><ele>291.0</ele><time>2026-04-06T10:08:57.229Z</time></trkpt><trkpt lat="44.7466632" lon="7.823201"><ele>291.0</ele><time>2026-04-06T10:08:58.229Z</time></trkpt><trkpt lat="44.7466427" lon="7.8233585"><ele>291.0</ele><time>2026-04-06T10:08:59.229Z</time></trkpt><trkpt lat="44.7466315" lon="7.8235196"><ele>291.5</ele><time>2026-04-06T10:09:00.229Z</time></trkpt><trkpt lat="44.7466134" lon="7.8236719"><ele>292.0</ele><time>2026-04-06T10:09:01.229Z</time></trkpt><trkpt lat="44.7465892" lon="7.823819"><ele>292.5</ele><time>2026-04-06T10:09:02.229Z</time></trkpt><trkpt lat="44.7465511" lon="7.8239799"><ele>293.0</ele><time>2026-04-06T10:09:03.229Z</time></trkpt><trkpt lat="44.7465022" lon="7.8241547"><ele>293.75</ele><time>2026-04-06T10:09:04.229Z</time></trkpt><trkpt lat="44.7464521" lon="7.8243335"><ele>294.5</ele><time>2026-04-06T10:09:05.229Z</time></trkpt><trkpt lat="44.7464061" lon="7.8245188"><ele>295.25</ele><time>2026-04-06T10:09:06.229Z</time></trkpt><trkpt lat="44.7463474" lon="7.8247047"><ele>296.0</ele><time>2026-04-06T10:09:07.229Z</time></trkpt><trkpt lat="44.7462813" lon="7.8249001"><ele>296.0</ele><time>2026-04-06T10:09:08.229Z</time></trkpt><trkpt lat="44.7462189" lon="7.8251029"><ele>296.0</ele><time>2026-04-06T10:09:09.229Z</time></trkpt><trkpt lat="44.7461624" lon="7.8252886"><ele>296.0</ele><time>2026-04-06T10:09:10.229Z</time></trkpt><trkpt lat="44.7461168" lon="7.8254441"><ele>296.0</ele><time>2026-04-06T10:09:11.229Z</time></trkpt><trkpt lat="44.7460748" lon="7.8255766"><ele>296.0</ele><time>2026-04-06T10:09:12.229Z</time></trkpt><trkpt lat="44.74602" lon="7.8257072"><ele>296.0</ele><time>2026-04-06T10:09:13.229Z</time></trkpt><trkpt lat="44.7459579" lon="7.8258522"><ele>296.0</ele><time>2026-04-06T10:09:14.229Z</time></trkpt><trkpt lat="44.7458987" lon="7.8259843"><ele>296.0</ele><time>2026-04-06T10:09:15.23Z</time></trkpt><trkpt lat="44.7458488" lon="7.8260903"><ele>296.0</ele><time>2026-04-06T10:09:16.229Z</time></trkpt><trkpt lat="44.745806" lon="7.8261747"><ele>297.0</ele><time>2026-04-06T10:09:17.229Z</time></trkpt><trkpt lat="44.745725" lon="7.8262987"><ele>298.0</ele><time>2026-04-06T10:09:19.229Z</time></trkpt><trkpt lat="44.7456533" lon="7.8264608"><ele>299.0</ele><time>2026-04-06T10:09:21.229Z</time></trkpt><trkpt lat="44.7456188" lon="7.8265405"><ele>300.0</ele><time>2026-04-06T10:09:22.229Z</time></trkpt><trkpt lat="44.7455864" lon="7.8266198"><ele>301.0</ele><time>2026-04-06T10:09:23.229Z</time></trkpt><trkpt lat="44.7455314" lon="7.826676"><ele>301.0</ele><time>2026-04-06T10:09:24.229Z</time></trkpt><trkpt lat="44.7454489" lon="7.8267186"><ele>301.0</ele><time>2026-04-06T10:09:25.229Z</time></trkpt><trkpt lat="44.7453601" lon="7.8267631"><ele>301.0</ele><time>2026-04-06T10:09:26.229Z</time></trkpt><trkpt lat="44.7452596" lon="7.8268552"><ele>301.0</ele><time>2026-04-06T10:09:27.229Z</time></trkpt><trkpt lat="44.7451535" lon="7.8269742"><ele>301.0</ele><time>2026-04-06T10:09:28.229Z</time></trkpt><trkpt lat="44.7450444" lon="7.8271027"><ele>302.66666666666663</ele><time>2026-04-06T10:09:29.229Z</time></trkpt><trkpt lat="44.7449233" lon="7.8272346"><ele>304.3333333333333</ele><time>2026-04-06T10:09:30.229Z</time></trkpt><trkpt lat="44.7447837" lon="7.8273728"><ele>306.0</ele><time>2026-04-06T10:09:31.229Z</time></trkpt><trkpt lat="44.7446279" lon="7.8275217"><ele>305.0</ele><time>2026-04-06T10:09:32.229Z</time></trkpt><trkpt lat="44.7444723" lon="7.8276619"><ele>304.0</ele><time>2026-04-06T10:09:33.229Z</time></trkpt><trkpt lat="44.7443206" lon="7.8277982"><ele>303.0</ele><time>2026-04-06T10:09:34.229Z</time></trkpt><trkpt lat="44.7441717" lon="7.8279258"><ele>303.0</ele><time>2026-04-06T10:09:35.229Z</time></trkpt><trkpt lat="44.7440249" lon="7.8280511"><ele>303.0</ele><time>2026-04-06T10:09:36.229Z</time></trkpt><trkpt lat="44.7438888" lon="7.8281662"><ele>303.0</ele><time>2026-04-06T10:09:37.229Z</time></trkpt><trkpt lat="44.7437661" lon="7.8282806"><ele>303.0</ele><time>2026-04-06T10:09:38.229Z</time></trkpt><trkpt lat="44.7436481" lon="7.8283797"><ele>303.0</ele><time>2026-04-06T10:09:39.229Z</time></trkpt><trkpt lat="44.7435259" lon="7.8284784"><ele>303.0</ele><time>2026-04-06T10:09:40.229Z</time></trkpt><trkpt lat="44.7434022" lon="7.8285574"><ele>303.0</ele><time>2026-04-06T10:09:41.229Z</time></trkpt><trkpt lat="44.74329" lon="7.8286276"><ele>303.0</ele><time>2026-04-06T10:09:42.229Z</time></trkpt><trkpt lat="44.7431906" lon="7.8287077"><ele>303.0</ele><time>2026-04-06T10:09:43.229Z</time></trkpt><trkpt lat="44.7431029" lon="7.8287878"><ele>303.0</ele><time>2026-04-06T10:09:44.229Z</time></trkpt><trkpt lat="44.743012" lon="7.8288681"><ele>303.0</ele><time>2026-04-06T10:09:45.229Z</time></trkpt><trkpt lat="44.7429203" lon="7.8289746"><ele>303.0</ele><time>2026-04-06T10:09:46.229Z</time></trkpt><trkpt lat="44.7428303" lon="7.8290965"><ele>303.0</ele><time>2026-04-06T10:09:47.229Z</time></trkpt><trkpt lat="44.7427419" lon="7.8292093"><ele>303.0</ele><time>2026-04-06T10:09:48.23Z</time></trkpt><trkpt lat="44.7426676" lon="7.829319"><ele>303.0</ele><time>2026-04-06T10:09:49.229Z</time></trkpt><trkpt lat="44.7426095" lon="7.8294353"><ele>303.0</ele><time>2026-04-06T10:09:50.23Z</time></trkpt><trkpt lat="44.7425597" lon="7.8295668"><ele>303.0</ele><time>2026-04-06T10:09:51.229Z</time></trkpt><trkpt lat="44.742516" lon="7.8297234"><ele>302.75</ele><time>2026-04-06T10:09:52.229Z</time></trkpt><trkpt lat="44.7424645" lon="7.8298918"><ele>302.5</ele><time>2026-04-06T10:09:53.229Z</time></trkpt><trkpt lat="44.742411" lon="7.8300495"><ele>302.25</ele><time>2026-04-06T10:09:54.229Z</time></trkpt><trkpt lat="44.742354" lon="7.8302024"><ele>302.0</ele><time>2026-04-06T10:09:55.229Z</time></trkpt><trkpt lat="44.7422883" lon="7.8303429"><ele>302.6</ele><time>2026-04-06T10:09:56.229Z</time></trkpt><trkpt lat="44.7422217" lon="7.8304696"><ele>303.2</ele><time>2026-04-06T10:09:57.229Z</time></trkpt><trkpt lat="44.7421509" lon="7.8305758"><ele>303.8</ele><time>2026-04-06T10:09:58.229Z</time></trkpt><trkpt lat="44.7420701" lon="7.8306602"><ele>304.4</ele><time>2026-04-06T10:09:59.229Z</time></trkpt><trkpt lat="44.7419694" lon="7.8307272"><ele>305.0</ele><time>2026-04-06T10:10:00.229Z</time></trkpt><trkpt lat="44.741858" lon="7.8307862"><ele>305.0</ele><time>2026-04-06T10:10:01.229Z</time></trkpt><trkpt lat="44.7417522" lon="7.8308655"><ele>305.0</ele><time>2026-04-06T10:10:02.229Z</time></trkpt><trkpt lat="44.7416451" lon="7.8309625"><ele>305.0</ele><time>2026-04-06T10:10:03.229Z</time></trkpt><trkpt lat="44.7415386" lon="7.8310843"><ele>305.0</ele><time>2026-04-06T10:10:04.229Z</time></trkpt><trkpt lat="44.7414335" lon="7.8312073"><ele>305.25</ele><time>2026-04-06T10:10:05.229Z</time></trkpt><trkpt lat="44.7413243" lon="7.8313326"><ele>305.5</ele><time>2026-04-06T10:10:06.229Z</time></trkpt><trkpt lat="44.7412066" lon="7.8314575"><ele>305.75</ele><time>2026-04-06T10:10:07.229Z</time></trkpt><trkpt lat="44.7410916" lon="7.8315699"><ele>306.0</ele><time>2026-04-06T10:10:08.229Z</time></trkpt><trkpt lat="44.7409934" lon="7.8316668"><ele>306.0</ele><time>2026-04-06T10:10:09.229Z</time></trkpt><trkpt lat="44.7409112" lon="7.8317698"><ele>306.0</ele><time>2026-04-06T10:10:10.229Z</time></trkpt><trkpt lat="44.7408275" lon="7.8318912"><ele>306.0</ele><time>2026-04-06T10:10:11.229Z</time></trkpt><trkpt lat="44.740753" lon="7.8320289"><ele>306.0</ele><time>2026-04-06T10:10:12.229Z</time></trkpt><trkpt lat="44.7406846" lon="7.8321424"><ele>307.75</ele><time>2026-04-06T10:10:13.229Z</time></trkpt><trkpt lat="44.7406465" lon="7.8322927"><ele>309.5</ele><time>2026-04-06T10:10:14.229Z</time></trkpt><trkpt lat="44.7406134" lon="7.8324584"><ele>311.25</ele><time>2026-04-06T10:10:15.229Z</time></trkpt><trkpt lat="44.740595" lon="7.8326224"><ele>313.0</ele><time>2026-04-06T10:10:16.229Z</time></trkpt><trkpt lat="44.7405638" lon="7.8327701"><ele>314.2</ele><time>2026-04-06T10:10:17.229Z</time></trkpt><trkpt lat="44.7405213" lon="7.8329194"><ele>315.4</ele><time>2026-04-06T10:10:18.229Z</time></trkpt><trkpt lat="44.7404996" lon="7.833051"><ele>316.59999999999997</ele><time>2026-04-06T10:10:19.229Z</time></trkpt><trkpt lat="44.7404752" lon="7.8331477"><ele>317.8</ele><time>2026-04-06T10:10:20.229Z</time></trkpt><trkpt lat="44.7404055" lon="7.8332694"><ele>319.0</ele><time>2026-04-06T10:10:22.229Z</time></trkpt><trkpt lat="44.7403316" lon="7.8333901"><ele>319.0</ele><time>2026-04-06T10:10:24.229Z</time></trkpt><trkpt lat="44.7402962" lon="7.8334669"><ele>319.0</ele><time>2026-04-06T10:10:25.229Z</time></trkpt><trkpt lat="44.7402573" lon="7.83354"><ele>319.0</ele><time>2026-04-06T10:10:26.229Z</time></trkpt><trkpt lat="44.740207" lon="7.8336241"><ele>319.0</ele><time>2026-04-06T10:10:27.229Z</time></trkpt><trkpt lat="44.7401458" lon="7.8337069"><ele>319.0</ele><time>2026-04-06T10:10:28.229Z</time></trkpt><trkpt lat="44.7400849" lon="7.8337903"><ele>319.0</ele><time>2026-04-06T10:10:29.229Z</time></trkpt><trkpt lat="44.7400308" lon="7.8338577"><ele>317.8</ele><time>2026-04-06T10:10:30.229Z</time></trkpt><trkpt lat="44.7399591" lon="7.8339538"><ele>316.59999999999997</ele><time>2026-04-06T10:10:32.229Z</time></trkpt><trkpt lat="44.7398701" lon="7.834001"><ele>315.4</ele><time>2026-04-06T10:10:37.229Z</time></trkpt><trkpt lat="44.7397541" lon="7.8340692"><ele>314.2</ele><time>2026-04-06T10:10:39.229Z</time></trkpt><trkpt lat="44.7396685" lon="7.8341305"><ele>313.0</ele><time>2026-04-06T10:10:40.229Z</time></trkpt><trkpt lat="44.7395902" lon="7.8341815"><ele>313.0</ele><time>2026-04-06T10:10:41.229Z</time></trkpt><trkpt lat="44.7395217" lon="7.8342263"><ele>313.0</ele><time>2026-04-06T10:10:42.229Z</time></trkpt><trkpt lat="44.7394524" lon="7.8342628"><ele>313.0</ele><time>2026-04-06T10:10:43.229Z</time></trkpt><trkpt lat="44.7393857" lon="7.8343064"><ele>313.0</ele><time>2026-04-06T10:10:44.229Z</time></trkpt><trkpt lat="44.7393153" lon="7.8343197"><ele>313.0</ele><time>2026-04-06T10:10:45.229Z</time></trkpt><trkpt lat="44.7391899" lon="7.834349"><ele>313.0</ele><time>2026-04-06T10:10:47.229Z</time></trkpt><trkpt lat="44.739128" lon="7.8343683"><ele>312.25</ele><time>2026-04-06T10:10:48.229Z</time></trkpt><trkpt lat="44.7390115" lon="7.8343937"><ele>311.5</ele><time>2026-04-06T10:10:50.229Z</time></trkpt><trkpt lat="44.738883" lon="7.8344761"><ele>310.75</ele><time>2026-04-06T10:10:52.229Z</time></trkpt><trkpt lat="44.738811" lon="7.8345543"><ele>310.0</ele><time>2026-04-06T10:10:53.229Z</time></trkpt><trkpt lat="44.7387184" lon="7.8346891"><ele>310.0</ele><time>2026-04-06T10:10:54.229Z</time></trkpt><trkpt lat="44.7386137" lon="7.8348383"><ele>310.0</ele><time>2026-04-06T10:10:55.229Z</time></trkpt><trkpt lat="44.7385014" lon="7.8349882"><ele>310.0</ele><time>2026-04-06T10:10:56.229Z</time></trkpt><trkpt lat="44.7383982" lon="7.835152"><ele>308.3333333333333</ele><time>2026-04-06T10:10:57.229Z</time></trkpt><trkpt lat="44.7383024" lon="7.8353123"><ele>306.6666666666667</ele><time>2026-04-06T10:10:58.229Z</time></trkpt><trkpt lat="44.738196" lon="7.8355023"><ele>305.0</ele><time>2026-04-06T10:10:59.229Z</time></trkpt><trkpt lat="44.7380846" lon="7.8357069"><ele>305.0</ele><time>2026-04-06T10:11:00.229Z</time></trkpt><trkpt lat="44.7379797" lon="7.8358969"><ele>305.0</ele><time>2026-04-06T10:11:01.229Z</time></trkpt><trkpt lat="44.7378814" lon="7.8360665"><ele>305.0</ele><time>2026-04-06T10:11:02.229Z</time></trkpt><trkpt lat="44.737788" lon="7.8362264"><ele>305.25</ele><time>2026-04-06T10:11:03.229Z</time></trkpt><trkpt lat="44.7377041" lon="7.8363911"><ele>305.5</ele><time>2026-04-06T10:11:04.229Z</time></trkpt><trkpt lat="44.7376286" lon="7.8365583"><ele>305.75</ele><time>2026-04-06T10:11:05.229Z</time></trkpt><trkpt lat="44.7375614" lon="7.836735"><ele>306.0</ele><time>2026-04-06T10:11:06.229Z</time></trkpt><trkpt lat="44.7374946" lon="7.8369286"><ele>306.5</ele><time>2026-04-06T10:11:07.229Z</time></trkpt><trkpt lat="44.7374276" lon="7.8371206"><ele>307.0</ele><time>2026-04-06T10:11:08.229Z</time></trkpt><trkpt lat="44.7373618" lon="7.8373032"><ele>307.5</ele><time>2026-04-06T10:11:09.23Z</time></trkpt><trkpt lat="44.7373011" lon="7.8374732"><ele>308.0</ele><time>2026-04-06T10:11:10.229Z</time></trkpt><trkpt lat="44.737254" lon="7.8375986"><ele>309.1666666666667</ele><time>2026-04-06T10:11:11.229Z</time></trkpt><trkpt lat="44.7372128" lon="7.8377033"><ele>310.33333333333337</ele><time>2026-04-06T10:11:12.229Z</time></trkpt><trkpt lat="44.7371704" lon="7.8378018"><ele>311.5</ele><time>2026-04-06T10:11:13.229Z</time></trkpt><trkpt lat="44.7371216" lon="7.837901"><ele>312.6666666666667</ele><time>2026-04-06T10:11:14.229Z</time></trkpt><trkpt lat="44.7370863" lon="7.8379882"><ele>313.8333333333333</ele><time>2026-04-06T10:11:15.229Z</time></trkpt><trkpt lat="44.7370527" lon="7.8380665"><ele>315.0</ele><time>2026-04-06T10:11:16.229Z</time></trkpt><trkpt lat="44.7370185" lon="7.8381433"><ele>315.0</ele><time>2026-04-06T10:11:17.229Z</time></trkpt><trkpt lat="44.7369687" lon="7.838217"><ele>315.0</ele><time>2026-04-06T10:11:18.229Z</time></trkpt><trkpt lat="44.7369014" lon="7.8382881"><ele>315.0</ele><time>2026-04-06T10:11:19.229Z</time></trkpt><trkpt lat="44.7368278" lon="7.8383585"><ele>315.0</ele><time>2026-04-06T10:11:20.229Z</time></trkpt><trkpt lat="44.736763" lon="7.8384326"><ele>315.0</ele><time>2026-04-06T10:11:21.229Z</time></trkpt><trkpt lat="44.7367056" lon="7.8385028"><ele>315.0</ele><time>2026-04-06T10:11:22.229Z</time></trkpt><trkpt lat="44.7366554" lon="7.8385623"><ele>314.25</ele><time>2026-04-06T10:11:23.229Z</time></trkpt><trkpt lat="44.7365646" lon="7.8386734"><ele>313.5</ele><time>2026-04-06T10:11:25.229Z</time></trkpt><trkpt lat="44.7364586" lon="7.8387708"><ele>312.75</ele><time>2026-04-06T10:11:27.229Z</time></trkpt><trkpt lat="44.7363681" lon="7.8388032"><ele>312.0</ele><time>2026-04-06T10:11:28.229Z</time></trkpt><trkpt lat="44.7362587" lon="7.838835"><ele>312.0</ele><time>2026-04-06T10:11:29.229Z</time></trkpt><trkpt lat="44.736135" lon="7.8388774"><ele>312.0</ele><time>2026-04-06T10:11:30.229Z</time></trkpt><trkpt lat="44.7360025" lon="7.8389257"><ele>312.0</ele><time>2026-04-06T10:11:31.229Z</time></trkpt><trkpt lat="44.735875" lon="7.8389832"><ele>312.0</ele><time>2026-04-06T10:11:32.229Z</time></trkpt><trkpt lat="44.7357666" lon="7.8390498"><ele>312.0</ele><time>2026-04-06T10:11:33.229Z</time></trkpt><trkpt lat="44.7356703" lon="7.8391221"><ele>312.0</ele><time>2026-04-06T10:11:34.229Z</time></trkpt><trkpt lat="44.7355722" lon="7.8392058"><ele>312.0</ele><time>2026-04-06T10:11:35.229Z</time></trkpt><trkpt lat="44.7354956" lon="7.8393215"><ele>312.0</ele><time>2026-04-06T10:11:36.229Z</time></trkpt><trkpt lat="44.7354375" lon="7.839472"><ele>312.0</ele><time>2026-04-06T10:11:37.229Z</time></trkpt><trkpt lat="44.7353725" lon="7.8396002"><ele>312.0</ele><time>2026-04-06T10:11:38.229Z</time></trkpt><trkpt lat="44.7353474" lon="7.83977"><ele>312.0</ele><time>2026-04-06T10:11:39.229Z</time></trkpt><trkpt lat="44.7353402" lon="7.8399649"><ele>312.0</ele><time>2026-04-06T10:11:40.229Z</time></trkpt><trkpt lat="44.7353192" lon="7.8401397"><ele>312.6</ele><time>2026-04-06T10:11:41.229Z</time></trkpt><trkpt lat="44.7352953" lon="7.8402999"><ele>313.2</ele><time>2026-04-06T10:11:42.229Z</time></trkpt><trkpt lat="44.7352885" lon="7.840425"><ele>313.8</ele><time>2026-04-06T10:11:43.229Z</time></trkpt><trkpt lat="44.7353179" lon="7.8405415"><ele>314.4</ele><time>2026-04-06T10:11:44.229Z</time></trkpt><trkpt lat="44.7353575" lon="7.8406561"><ele>315.0</ele><time>2026-04-06T10:11:45.229Z</time></trkpt><trkpt lat="44.735409" lon="7.8407547"><ele>315.0</ele><time>2026-04-06T10:11:46.229Z</time></trkpt><trkpt lat="44.7354216" lon="7.8408546"><ele>315.0</ele><time>2026-04-06T10:11:47.229Z</time></trkpt><trkpt lat="44.7354198" lon="7.8409568"><ele>315.0</ele><time>2026-04-06T10:11:48.229Z</time></trkpt><trkpt lat="44.7353965" lon="7.8410562"><ele>315.0</ele><time>2026-04-06T10:11:49.229Z</time></trkpt><trkpt lat="44.7353931" lon="7.8411584"><ele>315.0</ele><time>2026-04-06T10:11:50.23Z</time></trkpt><trkpt lat="44.7354046" lon="7.8412459"><ele>315.0</ele><time>2026-04-06T10:11:51.229Z</time></trkpt><trkpt lat="44.7354348" lon="7.8413269"><ele>315.0</ele><time>2026-04-06T10:12:44.229Z</time></trkpt><trkpt lat="44.7354715" lon="7.8414136"><ele>315.0</ele><time>2026-04-06T10:12:49.229Z</time></trkpt><trkpt lat="44.735479" lon="7.8415504"><ele>315.0</ele><time>2026-04-06T10:12:52.229Z</time></trkpt><trkpt lat="44.7354888" lon="7.8417065"><ele>315.0</ele><time>2026-04-06T10:12:54.229Z</time></trkpt><trkpt lat="44.7355" lon="7.8418681"><ele>315.0</ele><time>2026-04-06T10:12:56.229Z</time></trkpt><trkpt lat="44.7355164" lon="7.8420411"><ele>315.0</ele><time>2026-04-06T10:12:58.229Z</time></trkpt><trkpt lat="44.7355228" lon="7.8421478"><ele>315.0</ele><time>2026-04-06T10:12:59.229Z</time></trkpt><trkpt lat="44.7355336" lon="7.84225"><ele>315.0</ele><time>2026-04-06T10:13:00.229Z</time></trkpt><trkpt lat="44.7355405" lon="7.8423615"><ele>315.0</ele><time>2026-04-06T10:13:01.229Z</time></trkpt><trkpt lat="44.7355421" lon="7.8424685"><ele>315.0</ele><time>2026-04-06T10:13:02.229Z</time></trkpt><trkpt lat="44.7355424" lon="7.8425676"><ele>315.0</ele><time>2026-04-06T10:13:03.229Z</time></trkpt><trkpt lat="44.735547" lon="7.8426583"><ele>315.0</ele><time>2026-04-06T10:13:04.229Z</time></trkpt><trkpt lat="44.7355482" lon="7.8428191"><ele>315.1666666666667</ele><time>2026-04-06T10:13:06.229Z</time></trkpt><trkpt lat="44.7355531" lon="7.8429703"><ele>315.3333333333333</ele><time>2026-04-06T10:13:08.229Z</time></trkpt><trkpt lat="44.7355647" lon="7.8430815"><ele>315.5</ele><time>2026-04-06T10:13:10.229Z</time></trkpt><trkpt lat="44.7355585" lon="7.8431872"><ele>315.66666666666663</ele><time>2026-04-06T10:13:14.229Z</time></trkpt><trkpt lat="44.7355756" lon="7.8433427"><ele>315.8333333333333</ele><time>2026-04-06T10:13:28.229Z</time></trkpt><trkpt lat="44.735567" lon="7.8434391"><ele>316.0</ele><time>2026-04-06T10:13:29.229Z</time></trkpt><trkpt lat="44.7355677" lon="7.8435702"><ele>316.3333333333333</ele><time>2026-04-06T10:13:30.229Z</time></trkpt><trkpt lat="44.7355639" lon="7.8437204"><ele>316.66666666666663</ele><time>2026-04-06T10:13:31.229Z</time></trkpt><trkpt lat="44.7355577" lon="7.8438504"><ele>317.0</ele><time>2026-04-06T10:13:32.229Z</time></trkpt><trkpt lat="44.7355456" lon="7.8439478"><ele>317.3333333333333</ele><time>2026-04-06T10:13:33.229Z</time></trkpt><trkpt lat="44.7355417" lon="7.8440377"><ele>317.6666666666667</ele><time>2026-04-06T10:13:34.229Z</time></trkpt><trkpt lat="44.7355527" lon="7.8441382"><ele>318.0</ele><time>2026-04-06T10:13:35.229Z</time></trkpt><trkpt lat="44.7355769" lon="7.8442514"><ele>317.6666666666667</ele><time>2026-04-06T10:13:36.229Z</time></trkpt><trkpt lat="44.7356005" lon="7.844375"><ele>317.3333333333333</ele><time>2026-04-06T10:13:37.229Z</time></trkpt><trkpt lat="44.735608" lon="7.8445125"><ele>317.0</ele><time>2026-04-06T10:13:38.229Z</time></trkpt><trkpt lat="44.7356255" lon="7.8446504"><ele>316.66666666666663</ele><time>2026-04-06T10:13:39.229Z</time></trkpt><trkpt lat="44.7356391" lon="7.8447632"><ele>316.3333333333333</ele><time>2026-04-06T10:13:40.229Z</time></trkpt><trkpt lat="44.7356542" lon="7.8448678"><ele>316.0</ele><time>2026-04-06T10:13:41.229Z</time></trkpt><trkpt lat="44.7356334" lon="7.84504"><ele>315.8</ele><time>2026-04-06T10:13:43.229Z</time></trkpt><trkpt lat="44.7355919" lon="7.8451799"><ele>315.6</ele><time>2026-04-06T10:13:45.229Z</time></trkpt><trkpt lat="44.7355637" lon="7.8453009"><ele>315.4</ele><time>2026-04-06T10:13:47.229Z</time></trkpt><trkpt lat="44.7355415" lon="7.8454055"><ele>315.2</ele><time>2026-04-06T10:13:51.229Z</time></trkpt><trkpt lat="44.7355432" lon="7.8455173"><ele>315.0</ele><time>2026-04-06T10:14:32.229Z</time></trkpt><trkpt lat="44.7355194" lon="7.8457094"><ele>315.0</ele><time>2026-04-06T10:14:34.229Z</time></trkpt><trkpt lat="44.7354958" lon="7.8458358"><ele>315.0</ele><time>2026-04-06T10:14:35.229Z</time></trkpt><trkpt lat="44.7354722" lon="7.845979"><ele>315.0</ele><time>2026-04-06T10:14:36.229Z</time></trkpt><trkpt lat="44.7354513" lon="7.8461307"><ele>315.0</ele><time>2026-04-06T10:14:37.229Z</time></trkpt><trkpt lat="44.7354308" lon="7.8462825"><ele>315.0</ele><time>2026-04-06T10:14:38.229Z</time></trkpt><trkpt lat="44.7354141" lon="7.8464149"><ele>315.1666666666667</ele><time>2026-04-06T10:14:39.229Z</time></trkpt><trkpt lat="44.7353993" lon="7.846542"><ele>315.3333333333333</ele><time>2026-04-06T10:14:40.229Z</time></trkpt><trkpt lat="44.7353867" lon="7.8466456"><ele>315.5</ele><time>2026-04-06T10:14:41.229Z</time></trkpt><trkpt lat="44.7353764" lon="7.846745"><ele>315.66666666666663</ele><time>2026-04-06T10:14:42.229Z</time></trkpt><trkpt lat="44.7353714" lon="7.8468393"><ele>315.8333333333333</ele><time>2026-04-06T10:14:43.229Z</time></trkpt><trkpt lat="44.7353707" lon="7.8469439"><ele>316.0</ele><time>2026-04-06T10:14:44.229Z</time></trkpt><trkpt lat="44.7353722" lon="7.8470513"><ele>316.0</ele><time>2026-04-06T10:14:45.229Z</time></trkpt><trkpt lat="44.7353582" lon="7.8471633"><ele>316.0</ele><time>2026-04-06T10:14:46.229Z</time></trkpt><trkpt lat="44.7353445" lon="7.8472667"><ele>316.0</ele><time>2026-04-06T10:14:47.229Z</time></trkpt><trkpt lat="44.7353405" lon="7.8473666"><ele>316.0</ele><time>2026-04-06T10:14:48.229Z</time></trkpt><trkpt lat="44.735336" lon="7.8474822"><ele>316.0</ele><time>2026-04-06T10:14:49.229Z</time></trkpt><trkpt lat="44.7353236" lon="7.8476013"><ele>316.0</ele><time>2026-04-06T10:14:50.229Z</time></trkpt><trkpt lat="44.7353053" lon="7.8477538"><ele>316.0</ele><time>2026-04-06T10:14:51.229Z</time></trkpt><trkpt lat="44.7352843" lon="7.8479375"><ele>316.0</ele><time>2026-04-06T10:14:52.229Z</time></trkpt><trkpt lat="44.7352571" lon="7.8481411"><ele>316.0</ele><time>2026-04-06T10:14:53.229Z</time></trkpt><trkpt lat="44.7352361" lon="7.8483807"><ele>314.3333333333333</ele><time>2026-04-06T10:14:54.229Z</time></trkpt><trkpt lat="44.7352127" lon="7.8486241"><ele>312.6666666666667</ele><time>2026-04-06T10:14:55.229Z</time></trkpt><trkpt lat="44.7351871" lon="7.848871"><ele>311.0</ele><time>2026-04-06T10:14:56.229Z</time></trkpt><trkpt lat="44.7351542" lon="7.8491307"><ele>312.0</ele><time>2026-04-06T10:14:57.229Z</time></trkpt><trkpt lat="44.7351197" lon="7.8493743"><ele>313.0</ele><time>2026-04-06T10:14:58.229Z</time></trkpt><trkpt lat="44.7350829" lon="7.8496087"><ele>314.0</ele><time>2026-04-06T10:14:59.229Z</time></trkpt><trkpt lat="44.7350542" lon="7.8498286"><ele>314.0</ele><time>2026-04-06T10:15:00.229Z</time></trkpt><trkpt lat="44.7350298" lon="7.8500476"><ele>314.0</ele><time>2026-04-06T10:15:01.229Z</time></trkpt><trkpt lat="44.7350117" lon="7.8502686"><ele>314.0</ele><time>2026-04-06T10:15:02.229Z</time></trkpt><trkpt lat="44.7349693" lon="7.8505012"><ele>314.33333333333337</ele><time>2026-04-06T10:15:03.229Z</time></trkpt><trkpt lat="44.7349221" lon="7.8507426"><ele>314.6666666666667</ele><time>2026-04-06T10:15:04.229Z</time></trkpt><trkpt lat="44.7348666" lon="7.8509678"><ele>315.0</ele><time>2026-04-06T10:15:05.229Z</time></trkpt><trkpt lat="44.7348151" lon="7.8511616"><ele>315.75</ele><time>2026-04-06T10:15:06.229Z</time></trkpt><trkpt lat="44.7347714" lon="7.8513319"><ele>316.5</ele><time>2026-04-06T10:15:07.229Z</time></trkpt><trkpt lat="44.7347178" lon="7.851495"><ele>317.25</ele><time>2026-04-06T10:15:08.229Z</time></trkpt><trkpt lat="44.7346686" lon="7.8516321"><ele>318.0</ele><time>2026-04-06T10:15:09.229Z</time></trkpt><trkpt lat="44.7346263" lon="7.8517613"><ele>320.4</ele><time>2026-04-06T10:15:10.23Z</time></trkpt><trkpt lat="44.7345849" lon="7.8518852"><ele>322.8</ele><time>2026-04-06T10:15:11.229Z</time></trkpt><trkpt lat="44.7345601" lon="7.8520019"><ele>325.2</ele><time>2026-04-06T10:15:12.229Z</time></trkpt><trkpt lat="44.7345279" lon="7.8521102"><ele>327.6</ele><time>2026-04-06T10:15:13.229Z</time></trkpt><trkpt lat="44.7344847" lon="7.852224"><ele>330.0</ele><time>2026-04-06T10:15:14.229Z</time></trkpt><trkpt lat="44.7343989" lon="7.8523218"><ele>329.0</ele><time>2026-04-06T10:15:15.229Z</time></trkpt><trkpt lat="44.7343115" lon="7.8523999"><ele>328.0</ele><time>2026-04-06T10:15:16.229Z</time></trkpt><trkpt lat="44.7342275" lon="7.8524797"><ele>327.0</ele><time>2026-04-06T10:15:17.229Z</time></trkpt><trkpt lat="44.7341575" lon="7.8525422"><ele>326.0</ele><time>2026-04-06T10:15:18.229Z</time></trkpt><trkpt lat="44.734086" lon="7.8526002"><ele>325.0</ele><time>2026-04-06T10:15:19.229Z</time></trkpt><trkpt lat="44.7340101" lon="7.8526492"><ele>325.0</ele><time>2026-04-06T10:15:20.229Z</time></trkpt><trkpt lat="44.7339383" lon="7.8527058"><ele>325.0</ele><time>2026-04-06T10:15:21.229Z</time></trkpt><trkpt lat="44.7338746" lon="7.8527905"><ele>325.0</ele><time>2026-04-06T10:15:22.229Z</time></trkpt><trkpt lat="44.7337993" lon="7.8528957"><ele>325.0</ele><time>2026-04-06T10:15:23.229Z</time></trkpt><trkpt lat="44.7337107" lon="7.8530102"><ele>325.0</ele><time>2026-04-06T10:15:24.229Z</time></trkpt><trkpt lat="44.7336034" lon="7.8531296"><ele>325.0</ele><time>2026-04-06T10:15:25.229Z</time></trkpt><trkpt lat="44.7334893" lon="7.8532714"><ele>325.0</ele><time>2026-04-06T10:15:26.229Z</time></trkpt><trkpt lat="44.7333562" lon="7.8534268"><ele>325.0</ele><time>2026-04-06T10:15:27.229Z</time></trkpt><trkpt lat="44.7332229" lon="7.8535905"><ele>325.0</ele><time>2026-04-06T10:15:28.229Z</time></trkpt><trkpt lat="44.7330914" lon="7.8537509"><ele>325.0</ele><time>2026-04-06T10:15:29.229Z</time></trkpt><trkpt lat="44.7329558" lon="7.8539028"><ele>325.0</ele><time>2026-04-06T10:15:30.229Z</time></trkpt><trkpt lat="44.7328226" lon="7.8540463"><ele>324.0</ele><time>2026-04-06T10:15:31.229Z</time></trkpt><trkpt lat="44.7326934" lon="7.8541754"><ele>323.0</ele><time>2026-04-06T10:15:32.229Z</time></trkpt><trkpt lat="44.7325644" lon="7.854306"><ele>322.0</ele><time>2026-04-06T10:15:33.229Z</time></trkpt><trkpt lat="44.7324328" lon="7.854445"><ele>322.0</ele><time>2026-04-06T10:15:34.229Z</time></trkpt><trkpt lat="44.7323018" lon="7.854578"><ele>322.0</ele><time>2026-04-06T10:15:35.229Z</time></trkpt><trkpt lat="44.7321776" lon="7.8547008"><ele>322.0</ele><time>2026-04-06T10:15:36.229Z</time></trkpt><trkpt lat="44.7320581" lon="7.8548146"><ele>322.0</ele><time>2026-04-06T10:15:37.229Z</time></trkpt><trkpt lat="44.7319389" lon="7.8549161"><ele>322.0</ele><time>2026-04-06T10:15:38.229Z</time></trkpt><trkpt lat="44.7318084" lon="7.854998"><ele>322.0</ele><time>2026-04-06T10:15:39.229Z</time></trkpt><trkpt lat="44.7316675" lon="7.8550711"><ele>322.0</ele><time>2026-04-06T10:15:40.229Z</time></trkpt><trkpt lat="44.7315255" lon="7.8551509"><ele>321.0</ele><time>2026-04-06T10:15:41.229Z</time></trkpt><trkpt lat="44.7313844" lon="7.8552352"><ele>320.0</ele><time>2026-04-06T10:15:42.229Z</time></trkpt><trkpt lat="44.7312474" lon="7.855309"><ele>319.0</ele><time>2026-04-06T10:15:43.229Z</time></trkpt><trkpt lat="44.7311301" lon="7.855365"><ele>318.0</ele><time>2026-04-06T10:15:44.229Z</time></trkpt><trkpt lat="44.7310224" lon="7.8554307"><ele>318.0</ele><time>2026-04-06T10:15:45.229Z</time></trkpt><trkpt lat="44.7309123" lon="7.85553"><ele>318.0</ele><time>2026-04-06T10:15:46.229Z</time></trkpt><trkpt lat="44.7307979" lon="7.8556568"><ele>318.0</ele><time>2026-04-06T10:15:47.229Z</time></trkpt><trkpt lat="44.7306727" lon="7.8557952"><ele>318.0</ele><time>2026-04-06T10:15:48.229Z</time></trkpt><trkpt lat="44.7305486" lon="7.855966"><ele>319.6666666666667</ele><time>2026-04-06T10:15:49.229Z</time></trkpt><trkpt lat="44.7304262" lon="7.8561347"><ele>321.33333333333337</ele><time>2026-04-06T10:15:50.229Z</time></trkpt><trkpt lat="44.7303239" lon="7.8562845"><ele>323.0</ele><time>2026-04-06T10:15:51.229Z</time></trkpt><trkpt lat="44.7302326" lon="7.8564176"><ele>323.25</ele><time>2026-04-06T10:15:52.229Z</time></trkpt><trkpt lat="44.7301629" lon="7.8565249"><ele>323.5</ele><time>2026-04-06T10:15:53.229Z</time></trkpt><trkpt lat="44.7301037" lon="7.8566602"><ele>323.75</ele><time>2026-04-06T10:15:54.229Z</time></trkpt><trkpt lat="44.7300356" lon="7.8568218"><ele>324.0</ele><time>2026-04-06T10:15:55.229Z</time></trkpt><trkpt lat="44.7299651" lon="7.8569852"><ele>324.0</ele><time>2026-04-06T10:15:56.229Z</time></trkpt><trkpt lat="44.729902" lon="7.8571581"><ele>324.0</ele><time>2026-04-06T10:15:57.229Z</time></trkpt><trkpt lat="44.7298325" lon="7.8573287"><ele>324.0</ele><time>2026-04-06T10:15:58.229Z</time></trkpt><trkpt lat="44.7297597" lon="7.8575073"><ele>324.0</ele><time>2026-04-06T10:15:59.229Z</time></trkpt><trkpt lat="44.7296773" lon="7.8576921"><ele>323.5</ele><time>2026-04-06T10:16:00.229Z</time></trkpt><trkpt lat="44.7295757" lon="7.8578656"><ele>323.0</ele><time>2026-04-06T10:16:01.229Z</time></trkpt><trkpt lat="44.7294696" lon="7.8580085"><ele>322.5</ele><time>2026-04-06T10:16:02.229Z</time></trkpt><trkpt lat="44.7293759" lon="7.8581271"><ele>322.0</ele><time>2026-04-06T10:16:03.229Z</time></trkpt><trkpt lat="44.7292829" lon="7.8582186"><ele>322.0</ele><time>2026-04-06T10:16:04.229Z</time></trkpt><trkpt lat="44.7292161" lon="7.8582952"><ele>322.0</ele><time>2026-04-06T10:16:05.229Z</time></trkpt><trkpt lat="44.7291523" lon="7.8583442"><ele>322.0</ele><time>2026-04-06T10:16:06.229Z</time></trkpt><trkpt lat="44.7290841" lon="7.8583491"><ele>322.0</ele><time>2026-04-06T10:16:07.229Z</time></trkpt><trkpt lat="44.729015" lon="7.8583478"><ele>322.0</ele><time>2026-04-06T10:16:08.229Z</time></trkpt><trkpt lat="44.7289272" lon="7.8583985"><ele>322.0</ele><time>2026-04-06T10:16:09.229Z</time></trkpt><trkpt lat="44.728841" lon="7.858515"><ele>321.75</ele><time>2026-04-06T10:16:10.229Z</time></trkpt><trkpt lat="44.7287282" lon="7.8586179"><ele>321.5</ele><time>2026-04-06T10:16:11.229Z</time></trkpt><trkpt lat="44.7286082" lon="7.8587344"><ele>321.25</ele><time>2026-04-06T10:16:12.229Z</time></trkpt><trkpt lat="44.7284764" lon="7.8588621"><ele>321.0</ele><time>2026-04-06T10:16:13.229Z</time></trkpt><trkpt lat="44.728338" lon="7.8590017"><ele>321.0</ele><time>2026-04-06T10:16:14.229Z</time></trkpt><trkpt lat="44.7281792" lon="7.8591483"><ele>321.0</ele><time>2026-04-06T10:16:15.229Z</time></trkpt><trkpt lat="44.7280196" lon="7.8593004"><ele>321.0</ele><time>2026-04-06T10:16:16.229Z</time></trkpt><trkpt lat="44.7278679" lon="7.8594514"><ele>321.6666666666667</ele><time>2026-04-06T10:16:17.229Z</time></trkpt><trkpt lat="44.727732" lon="7.85959"><ele>322.33333333333337</ele><time>2026-04-06T10:16:18.229Z</time></trkpt><trkpt lat="44.7276128" lon="7.8597163"><ele>323.0</ele><time>2026-04-06T10:16:19.229Z</time></trkpt><trkpt lat="44.7275023" lon="7.8598422"><ele>323.0</ele><time>2026-04-06T10:16:20.229Z</time></trkpt><trkpt lat="44.7273996" lon="7.8599595"><ele>323.0</ele><time>2026-04-06T10:16:21.229Z</time></trkpt><trkpt lat="44.7273128" lon="7.8600834"><ele>323.0</ele><time>2026-04-06T10:16:22.229Z</time></trkpt><trkpt lat="44.7272228" lon="7.8602056"><ele>323.0</ele><time>2026-04-06T10:16:23.229Z</time></trkpt><trkpt lat="44.727135" lon="7.8603325"><ele>323.0</ele><time>2026-04-06T10:16:24.229Z</time></trkpt><trkpt lat="44.7270455" lon="7.8604257"><ele>323.0</ele><time>2026-04-06T10:16:25.229Z</time></trkpt><trkpt lat="44.7269457" lon="7.8605013"><ele>323.0</ele><time>2026-04-06T10:16:26.229Z</time></trkpt><trkpt lat="44.7268421" lon="7.8605563"><ele>323.0</ele><time>2026-04-06T10:16:27.229Z</time></trkpt><trkpt lat="44.7267401" lon="7.8606121"><ele>323.0</ele><time>2026-04-06T10:16:28.229Z</time></trkpt><trkpt lat="44.7266446" lon="7.8606634"><ele>323.0</ele><time>2026-04-06T10:16:29.229Z</time></trkpt><trkpt lat="44.7265441" lon="7.8607081"><ele>323.0</ele><time>2026-04-06T10:16:30.229Z</time></trkpt><trkpt lat="44.72644" lon="7.8607677"><ele>323.0</ele><time>2026-04-06T10:16:31.229Z</time></trkpt><trkpt lat="44.7263311" lon="7.8608438"><ele>323.0</ele><time>2026-04-06T10:16:32.229Z</time></trkpt><trkpt lat="44.7262131" lon="7.8609624"><ele>322.6666666666667</ele><time>2026-04-06T10:16:33.229Z</time></trkpt><trkpt lat="44.7260718" lon="7.8610959"><ele>322.3333333333333</ele><time>2026-04-06T10:16:34.229Z</time></trkpt><trkpt lat="44.7259149" lon="7.8612559"><ele>322.0</ele><time>2026-04-06T10:16:35.229Z</time></trkpt><trkpt lat="44.7257446" lon="7.8614355"><ele>322.66666666666663</ele><time>2026-04-06T10:16:36.229Z</time></trkpt><trkpt lat="44.7255703" lon="7.8616095"><ele>323.3333333333333</ele><time>2026-04-06T10:16:37.229Z</time></trkpt><trkpt lat="44.7254066" lon="7.861762"><ele>324.0</ele><time>2026-04-06T10:16:38.229Z</time></trkpt><trkpt lat="44.7252524" lon="7.8618958"><ele>325.3333333333333</ele><time>2026-04-06T10:16:39.229Z</time></trkpt><trkpt lat="44.7251071" lon="7.8620158"><ele>326.66666666666663</ele><time>2026-04-06T10:16:40.229Z</time></trkpt><trkpt lat="44.7249674" lon="7.8621388"><ele>328.0</ele><time>2026-04-06T10:16:41.229Z</time></trkpt><trkpt lat="44.7248378" lon="7.8622868"><ele>328.0</ele><time>2026-04-06T10:16:42.229Z</time></trkpt><trkpt lat="44.7247203" lon="7.8624688"><ele>328.0</ele><time>2026-04-06T10:16:43.229Z</time></trkpt><trkpt lat="44.7246101" lon="7.862662"><ele>328.0</ele><time>2026-04-06T10:16:44.229Z</time></trkpt><trkpt lat="44.7244865" lon="7.8628428"><ele>328.66666666666663</ele><time>2026-04-06T10:16:45.229Z</time></trkpt><trkpt lat="44.7243537" lon="7.863023"><ele>329.3333333333333</ele><time>2026-04-06T10:16:46.229Z</time></trkpt><trkpt lat="44.724202" lon="7.8631824"><ele>330.0</ele><time>2026-04-06T10:16:47.229Z</time></trkpt><trkpt lat="44.7240574" lon="7.8633231"><ele>330.75</ele><time>2026-04-06T10:16:48.229Z</time></trkpt><trkpt lat="44.723925" lon="7.8634542"><ele>331.5</ele><time>2026-04-06T10:16:49.229Z</time></trkpt><trkpt lat="44.7237974" lon="7.8635761"><ele>332.25</ele><time>2026-04-06T10:16:50.229Z</time></trkpt><trkpt lat="44.7236936" lon="7.8636797"><ele>333.0</ele><time>2026-04-06T10:16:51.229Z</time></trkpt><trkpt lat="44.7236013" lon="7.8637692"><ele>332.79999999999995</ele><time>2026-04-06T10:16:52.229Z</time></trkpt><trkpt lat="44.7235174" lon="7.863851"><ele>332.6</ele><time>2026-04-06T10:16:53.229Z</time></trkpt><trkpt lat="44.7234386" lon="7.8639283"><ele>332.4</ele><time>2026-04-06T10:16:54.229Z</time></trkpt><trkpt lat="44.72337" lon="7.8639967"><ele>332.20000000000005</ele><time>2026-04-06T10:16:55.229Z</time></trkpt><trkpt lat="44.7233139" lon="7.8640536"><ele>332.0</ele><time>2026-04-06T10:16:56.229Z</time></trkpt><trkpt lat="44.7232258" lon="7.8641263"><ele>332.0</ele><time>2026-04-06T10:16:58.229Z</time></trkpt><trkpt lat="44.7231629" lon="7.8641558"><ele>332.0</ele><time>2026-04-06T10:18:44.228Z</time></trkpt><trkpt lat="44.7231574" lon="7.8643139"><ele>332.0</ele><time>2026-04-06T10:18:51.228Z</time></trkpt><trkpt lat="44.7231919" lon="7.8644254"><ele>332.0</ele><time>2026-04-06T10:18:52.229Z</time></trkpt><trkpt lat="44.7232308" lon="7.8645575"><ele>332.0</ele><time>2026-04-06T10:18:53.228Z</time></trkpt><trkpt lat="44.7232816" lon="7.8647157"><ele>332.6666666666667</ele><time>2026-04-06T10:18:54.228Z</time></trkpt><trkpt lat="44.7233363" lon="7.8649004"><ele>333.3333333333333</ele><time>2026-04-06T10:18:55.228Z</time></trkpt><trkpt lat="44.7233906" lon="7.865102"><ele>334.0</ele><time>2026-04-06T10:18:56.228Z</time></trkpt><trkpt lat="44.7234508" lon="7.8653209"><ele>334.0</ele><time>2026-04-06T10:18:57.228Z</time></trkpt><trkpt lat="44.7235208" lon="7.8655421"><ele>334.0</ele><time>2026-04-06T10:18:58.228Z</time></trkpt><trkpt lat="44.7235844" lon="7.8657652"><ele>334.0</ele><time>2026-04-06T10:18:59.228Z</time></trkpt><trkpt lat="44.723646" lon="7.8659679"><ele>335.0</ele><time>2026-04-06T10:19:00.228Z</time></trkpt><trkpt lat="44.7237092" lon="7.8661694"><ele>336.0</ele><time>2026-04-06T10:19:01.228Z</time></trkpt><trkpt lat="44.7237746" lon="7.8663614"><ele>337.0</ele><time>2026-04-06T10:19:02.228Z</time></trkpt><trkpt lat="44.7238486" lon="7.8665383"><ele>337.0</ele><time>2026-04-06T10:19:03.228Z</time></trkpt><trkpt lat="44.7239181" lon="7.8667168"><ele>337.0</ele><time>2026-04-06T10:19:04.228Z</time></trkpt><trkpt lat="44.7240039" lon="7.8668813"><ele>337.0</ele><time>2026-04-06T10:19:05.228Z</time></trkpt><trkpt lat="44.7241254" lon="7.8670184"><ele>337.0</ele><time>2026-04-06T10:19:06.228Z</time></trkpt><trkpt lat="44.7242594" lon="7.867153"><ele>339.0</ele><time>2026-04-06T10:19:07.228Z</time></trkpt><trkpt lat="44.724408" lon="7.8672929"><ele>341.0</ele><time>2026-04-06T10:19:08.228Z</time></trkpt><trkpt lat="44.7245648" lon="7.8674352"><ele>343.0</ele><time>2026-04-06T10:19:09.228Z</time></trkpt><trkpt lat="44.7247243" lon="7.8675908"><ele>344.0</ele><time>2026-04-06T10:19:10.228Z</time></trkpt><trkpt lat="44.7249002" lon="7.8677517"><ele>345.0</ele><time>2026-04-06T10:19:11.228Z</time></trkpt><trkpt lat="44.7250776" lon="7.8679136"><ele>346.0</ele><time>2026-04-06T10:19:12.228Z</time></trkpt><trkpt lat="44.7252581" lon="7.8680851"><ele>346.0</ele><time>2026-04-06T10:19:13.228Z</time></trkpt><trkpt lat="44.725438" lon="7.8682543"><ele>346.0</ele><time>2026-04-06T10:19:14.228Z</time></trkpt><trkpt lat="44.7256229" lon="7.868431"><ele>346.0</ele><time>2026-04-06T10:19:15.228Z</time></trkpt><trkpt lat="44.7258019" lon="7.8686193"><ele>348.66666666666663</ele><time>2026-04-06T10:19:16.228Z</time></trkpt><trkpt lat="44.7259748" lon="7.8688197"><ele>351.3333333333333</ele><time>2026-04-06T10:19:17.228Z</time></trkpt><trkpt lat="44.7261407" lon="7.8690291"><ele>354.0</ele><time>2026-04-06T10:19:18.228Z</time></trkpt><trkpt lat="44.7263061" lon="7.8692285"><ele>357.3333333333333</ele><time>2026-04-06T10:19:19.228Z</time></trkpt><trkpt lat="44.726463" lon="7.8694266"><ele>360.66666666666663</ele><time>2026-04-06T10:19:20.228Z</time></trkpt><trkpt lat="44.7266218" lon="7.8696159"><ele>364.0</ele><time>2026-04-06T10:19:21.228Z</time></trkpt><trkpt lat="44.7267724" lon="7.8697993"><ele>362.66666666666663</ele><time>2026-04-06T10:19:22.228Z</time></trkpt><trkpt lat="44.7269064" lon="7.8699799"><ele>361.3333333333333</ele><time>2026-04-06T10:19:23.228Z</time></trkpt><trkpt lat="44.7270263" lon="7.8701663"><ele>360.0</ele><time>2026-04-06T10:19:24.228Z</time></trkpt><trkpt lat="44.7271432" lon="7.8703484"><ele>363.0</ele><time>2026-04-06T10:19:25.228Z</time></trkpt><trkpt lat="44.7272589" lon="7.8705277"><ele>366.0</ele><time>2026-04-06T10:19:26.228Z</time></trkpt><trkpt lat="44.7273892" lon="7.8706867"><ele>369.0</ele><time>2026-04-06T10:19:27.228Z</time></trkpt><trkpt lat="44.7275279" lon="7.8708284"><ele>371.0</ele><time>2026-04-06T10:19:28.228Z</time></trkpt><trkpt lat="44.7276768" lon="7.8709595"><ele>373.0</ele><time>2026-04-06T10:19:29.228Z</time></trkpt><trkpt lat="44.7278216" lon="7.8710741"><ele>375.0</ele><time>2026-04-06T10:19:30.228Z</time></trkpt><trkpt lat="44.7279477" lon="7.8711827"><ele>375.0</ele><time>2026-04-06T10:19:31.228Z</time></trkpt><trkpt lat="44.7280615" lon="7.8712974"><ele>375.0</ele><time>2026-04-06T10:19:32.228Z</time></trkpt><trkpt lat="44.7281587" lon="7.871418"><ele>375.0</ele><time>2026-04-06T10:19:33.228Z</time></trkpt><trkpt lat="44.7282276" lon="7.8715638"><ele>375.0</ele><time>2026-04-06T10:19:34.228Z</time></trkpt><trkpt lat="44.7282802" lon="7.871722"><ele>378.0</ele><time>2026-04-06T10:19:35.228Z</time></trkpt><trkpt lat="44.7283371" lon="7.8718693"><ele>381.0</ele><time>2026-04-06T10:19:36.228Z</time></trkpt><trkpt lat="44.7283915" lon="7.872009"><ele>384.0</ele><time>2026-04-06T10:19:37.228Z</time></trkpt><trkpt lat="44.7284691" lon="7.872139"><ele>387.0</ele><time>2026-04-06T10:19:38.228Z</time></trkpt><trkpt lat="44.7285717" lon="7.8722324"><ele>387.0</ele><time>2026-04-06T10:19:39.228Z</time></trkpt><trkpt lat="44.7286964" lon="7.8722929"><ele>387.0</ele><time>2026-04-06T10:19:40.228Z</time></trkpt><trkpt lat="44.7288403" lon="7.8723348"><ele>387.0</ele><time>2026-04-06T10:19:41.228Z</time></trkpt><trkpt lat="44.7289904" lon="7.8723551"><ele>387.0</ele><time>2026-04-06T10:19:42.228Z</time></trkpt><trkpt lat="44.7291351" lon="7.8723878"><ele>387.0</ele><time>2026-04-06T10:19:43.228Z</time></trkpt><trkpt lat="44.7292674" lon="7.8724457"><ele>387.0</ele><time>2026-04-06T10:19:44.228Z</time></trkpt><trkpt lat="44.7293895" lon="7.8725354"><ele>387.0</ele><time>2026-04-06T10:19:45.228Z</time></trkpt><trkpt lat="44.7294995" lon="7.8726492"><ele>387.0</ele><time>2026-04-06T10:19:46.228Z</time></trkpt><trkpt lat="44.7295978" lon="7.8728132"><ele>392.33333333333337</ele><time>2026-04-06T10:19:47.228Z</time></trkpt><trkpt lat="44.7296686" lon="7.8730072"><ele>397.6666666666667</ele><time>2026-04-06T10:19:48.228Z</time></trkpt><trkpt lat="44.7297219" lon="7.8732123"><ele>403.0</ele><time>2026-04-06T10:19:49.228Z</time></trkpt><trkpt lat="44.7297638" lon="7.8734356"><ele>401.33333333333337</ele><time>2026-04-06T10:19:50.228Z</time></trkpt><trkpt lat="44.7298054" lon="7.8736704"><ele>399.66666666666663</ele><time>2026-04-06T10:19:51.228Z</time></trkpt><trkpt lat="44.7298551" lon="7.8739015"><ele>398.0</ele><time>2026-04-06T10:19:52.228Z</time></trkpt><trkpt lat="44.7299127" lon="7.8741173"><ele>397.5</ele><time>2026-04-06T10:19:53.228Z</time></trkpt><trkpt lat="44.7299764" lon="7.8743173"><ele>397.0</ele><time>2026-04-06T10:19:54.228Z</time></trkpt><trkpt lat="44.7300368" lon="7.8745029"><ele>396.5</ele><time>2026-04-06T10:19:55.228Z</time></trkpt><trkpt lat="44.7300919" lon="7.8746855"><ele>396.0</ele><time>2026-04-06T10:19:56.228Z</time></trkpt><trkpt lat="44.7301553" lon="7.8748575"><ele>394.25</ele><time>2026-04-06T10:19:57.228Z</time></trkpt><trkpt lat="44.7302321" lon="7.8750207"><ele>392.5</ele><time>2026-04-06T10:19:58.228Z</time></trkpt><trkpt lat="44.7303175" lon="7.8751827"><ele>390.75</ele><time>2026-04-06T10:19:59.228Z</time></trkpt><trkpt lat="44.7304243" lon="7.8753633"><ele>389.0</ele><time>2026-04-06T10:20:00.228Z</time></trkpt><trkpt lat="44.7305333" lon="7.8755392"><ele>386.3333333333333</ele><time>2026-04-06T10:20:01.228Z</time></trkpt><trkpt lat="44.7306431" lon="7.8757031"><ele>383.66666666666663</ele><time>2026-04-06T10:20:02.228Z</time></trkpt><trkpt lat="44.7307522" lon="7.8758485"><ele>381.0</ele><time>2026-04-06T10:20:03.228Z</time></trkpt><trkpt lat="44.7308589" lon="7.8759924"><ele>380.25</ele><time>2026-04-06T10:20:04.228Z</time></trkpt><trkpt lat="44.7309574" lon="7.8761281"><ele>379.5</ele><time>2026-04-06T10:20:05.228Z</time></trkpt><trkpt lat="44.7310503" lon="7.8762502"><ele>378.75</ele><time>2026-04-06T10:20:06.228Z</time></trkpt><trkpt lat="44.7311381" lon="7.8763608"><ele>378.0</ele><time>2026-04-06T10:20:07.228Z</time></trkpt><trkpt lat="44.7312215" lon="7.8764651"><ele>377.59999999999997</ele><time>2026-04-06T10:20:08.228Z</time></trkpt><trkpt lat="44.7312932" lon="7.8765594"><ele>377.2</ele><time>2026-04-06T10:20:09.228Z</time></trkpt><trkpt lat="44.7313545" lon="7.8766431"><ele>376.8</ele><time>2026-04-06T10:20:10.228Z</time></trkpt><trkpt lat="44.7314091" lon="7.8767141"><ele>376.4</ele><time>2026-04-06T10:20:11.228Z</time></trkpt><trkpt lat="44.7314986" lon="7.8768257"><ele>376.0</ele><time>2026-04-06T10:20:13.228Z</time></trkpt><trkpt lat="44.7315467" lon="7.8769459"><ele>375.75</ele><time>2026-04-06T10:20:15.228Z</time></trkpt><trkpt lat="44.7314633" lon="7.8770717"><ele>375.5</ele><time>2026-04-06T10:20:17.228Z</time></trkpt><trkpt lat="44.7313657" lon="7.8771167"><ele>375.25</ele><time>2026-04-06T10:20:18.228Z</time></trkpt><trkpt lat="44.7312498" lon="7.8771485"><ele>375.0</ele><time>2026-04-06T10:20:19.228Z</time></trkpt><trkpt lat="44.7311209" lon="7.8771832"><ele>375.0</ele><time>2026-04-06T10:20:20.228Z</time></trkpt><trkpt lat="44.730981" lon="7.8772301"><ele>375.0</ele><time>2026-04-06T10:20:21.228Z</time></trkpt><trkpt lat="44.7308268" lon="7.8772895"><ele>375.0</ele><time>2026-04-06T10:20:22.228Z</time></trkpt><trkpt lat="44.7306589" lon="7.8773502"><ele>375.0</ele><time>2026-04-06T10:20:23.228Z</time></trkpt><trkpt lat="44.7304862" lon="7.8774099"><ele>375.0</ele><time>2026-04-06T10:20:24.228Z</time></trkpt><trkpt lat="44.7303107" lon="7.8774729"><ele>375.0</ele><time>2026-04-06T10:20:25.228Z</time></trkpt><trkpt lat="44.7301263" lon="7.8775346"><ele>378.0</ele><time>2026-04-06T10:20:26.228Z</time></trkpt><trkpt lat="44.7299409" lon="7.8776089"><ele>381.0</ele><time>2026-04-06T10:20:27.228Z</time></trkpt><trkpt lat="44.7297507" lon="7.8776817"><ele>384.0</ele><time>2026-04-06T10:20:28.228Z</time></trkpt><trkpt lat="44.7295667" lon="7.8777473"><ele>383.0</ele><time>2026-04-06T10:20:29.228Z</time></trkpt><trkpt lat="44.7293768" lon="7.8777869"><ele>382.0</ele><time>2026-04-06T10:20:30.228Z</time></trkpt><trkpt lat="44.7291859" lon="7.8777912"><ele>381.0</ele><time>2026-04-06T10:20:31.228Z</time></trkpt><trkpt lat="44.7290002" lon="7.877779"><ele>381.0</ele><time>2026-04-06T10:20:32.228Z</time></trkpt><trkpt lat="44.728817" lon="7.8777677"><ele>381.0</ele><time>2026-04-06T10:20:33.228Z</time></trkpt><trkpt lat="44.7286424" lon="7.8777694"><ele>381.0</ele><time>2026-04-06T10:20:34.228Z</time></trkpt><trkpt lat="44.72846" lon="7.8778189"><ele>380.6666666666667</ele><time>2026-04-06T10:20:35.228Z</time></trkpt><trkpt lat="44.7282817" lon="7.8778886"><ele>380.33333333333337</ele><time>2026-04-06T10:20:36.228Z</time></trkpt><trkpt lat="44.7280981" lon="7.8779733"><ele>380.0</ele><time>2026-04-06T10:20:37.228Z</time></trkpt><trkpt lat="44.7279096" lon="7.8780627"><ele>381.0</ele><time>2026-04-06T10:20:38.228Z</time></trkpt><trkpt lat="44.727713" lon="7.8781443"><ele>382.0</ele><time>2026-04-06T10:20:39.228Z</time></trkpt><trkpt lat="44.7275149" lon="7.8782145"><ele>383.0</ele><time>2026-04-06T10:20:40.228Z</time></trkpt><trkpt lat="44.7273155" lon="7.8782962"><ele>383.0</ele><time>2026-04-06T10:20:41.228Z</time></trkpt><trkpt lat="44.7271079" lon="7.878375"><ele>383.0</ele><time>2026-04-06T10:20:42.229Z</time></trkpt><trkpt lat="44.7268977" lon="7.8784521"><ele>383.0</ele><time>2026-04-06T10:20:43.228Z</time></trkpt><trkpt lat="44.7266947" lon="7.8785408"><ele>383.0</ele><time>2026-04-06T10:20:44.228Z</time></trkpt><trkpt lat="44.7265034" lon="7.8786439"><ele>383.0</ele><time>2026-04-06T10:20:45.228Z</time></trkpt><trkpt lat="44.7263174" lon="7.8787683"><ele>383.0</ele><time>2026-04-06T10:20:46.228Z</time></trkpt><trkpt lat="44.7261225" lon="7.8789052"><ele>384.0</ele><time>2026-04-06T10:20:47.228Z</time></trkpt><trkpt lat="44.7259255" lon="7.8790283"><ele>385.0</ele><time>2026-04-06T10:20:48.228Z</time></trkpt><trkpt lat="44.7257204" lon="7.8791596"><ele>386.0</ele><time>2026-04-06T10:20:49.228Z</time></trkpt><trkpt lat="44.7255083" lon="7.8792888"><ele>385.66666666666663</ele><time>2026-04-06T10:20:50.228Z</time></trkpt><trkpt lat="44.725307" lon="7.879413"><ele>385.33333333333337</ele><time>2026-04-06T10:20:51.228Z</time></trkpt><trkpt lat="44.7251095" lon="7.8795318"><ele>385.0</ele><time>2026-04-06T10:20:52.228Z</time></trkpt><trkpt lat="44.7249266" lon="7.8796159"><ele>385.0</ele><time>2026-04-06T10:20:53.228Z</time></trkpt><trkpt lat="44.724758" lon="7.8796891"><ele>385.0</ele><time>2026-04-06T10:20:54.228Z</time></trkpt><trkpt lat="44.7245954" lon="7.8797523"><ele>385.0</ele><time>2026-04-06T10:20:55.228Z</time></trkpt><trkpt lat="44.7244239" lon="7.8798291"><ele>385.6666666666667</ele><time>2026-04-06T10:20:56.228Z</time></trkpt><trkpt lat="44.7242521" lon="7.8799216"><ele>386.33333333333337</ele><time>2026-04-06T10:20:57.228Z</time></trkpt><trkpt lat="44.7240794" lon="7.8800219"><ele>387.0</ele><time>2026-04-06T10:20:58.228Z</time></trkpt><trkpt lat="44.7239105" lon="7.8801235"><ele>387.66666666666663</ele><time>2026-04-06T10:20:59.228Z</time></trkpt><trkpt lat="44.7237351" lon="7.880246"><ele>388.3333333333333</ele><time>2026-04-06T10:21:00.228Z</time></trkpt><trkpt lat="44.7235557" lon="7.8803679"><ele>389.0</ele><time>2026-04-06T10:21:01.228Z</time></trkpt><trkpt lat="44.7233831" lon="7.8804818"><ele>389.0</ele><time>2026-04-06T10:21:02.228Z</time></trkpt><trkpt lat="44.7232233" lon="7.8805945"><ele>389.0</ele><time>2026-04-06T10:21:03.228Z</time></trkpt><trkpt lat="44.7230716" lon="7.880692"><ele>389.0</ele><time>2026-04-06T10:21:04.228Z</time></trkpt><trkpt lat="44.7229377" lon="7.8807773"><ele>389.0</ele><time>2026-04-06T10:21:05.228Z</time></trkpt><trkpt lat="44.7228011" lon="7.8808642"><ele>389.0</ele><time>2026-04-06T10:21:06.228Z</time></trkpt><trkpt lat="44.72268" lon="7.8809383"><ele>389.0</ele><time>2026-04-06T10:21:07.228Z</time></trkpt><trkpt lat="44.7225644" lon="7.8810032"><ele>389.0</ele><time>2026-04-06T10:21:08.228Z</time></trkpt><trkpt lat="44.7224523" lon="7.881061"><ele>388.0</ele><time>2026-04-06T10:21:09.228Z</time></trkpt><trkpt lat="44.7223378" lon="7.8810826"><ele>387.0</ele><time>2026-04-06T10:21:10.229Z</time></trkpt><trkpt lat="44.722224" lon="7.8810718"><ele>386.0</ele><time>2026-04-06T10:21:11.228Z</time></trkpt><trkpt lat="44.7221106" lon="7.8810094"><ele>385.0</ele><time>2026-04-06T10:21:12.228Z</time></trkpt><trkpt lat="44.7220029" lon="7.8809137"><ele>383.5</ele><time>2026-04-06T10:21:13.228Z</time></trkpt><trkpt lat="44.7218791" lon="7.8808346"><ele>382.0</ele><time>2026-04-06T10:21:14.228Z</time></trkpt><trkpt lat="44.7217479" lon="7.880804"><ele>380.5</ele><time>2026-04-06T10:21:15.228Z</time></trkpt><trkpt lat="44.7216039" lon="7.8807987"><ele>379.0</ele><time>2026-04-06T10:21:16.228Z</time></trkpt><trkpt lat="44.7214412" lon="7.8808225"><ele>379.0</ele><time>2026-04-06T10:21:17.228Z</time></trkpt><trkpt lat="44.7212614" lon="7.880846"><ele>379.0</ele><time>2026-04-06T10:21:18.228Z</time></trkpt><trkpt lat="44.7210945" lon="7.8808617"><ele>379.0</ele><time>2026-04-06T10:21:19.228Z</time></trkpt><trkpt lat="44.7209421" lon="7.8808845"><ele>378.75</ele><time>2026-04-06T10:21:20.228Z</time></trkpt><trkpt lat="44.7207987" lon="7.8809177"><ele>378.5</ele><time>2026-04-06T10:21:21.228Z</time></trkpt><trkpt lat="44.720665" lon="7.8809875"><ele>378.25</ele><time>2026-04-06T10:21:22.228Z</time></trkpt><trkpt lat="44.7205428" lon="7.8810803"><ele>378.0</ele><time>2026-04-06T10:21:23.228Z</time></trkpt><trkpt lat="44.7204191" lon="7.8812"><ele>376.0</ele><time>2026-04-06T10:21:24.228Z</time></trkpt><trkpt lat="44.7203119" lon="7.8813483"><ele>374.0</ele><time>2026-04-06T10:21:25.228Z</time></trkpt><trkpt lat="44.7202034" lon="7.8815126"><ele>372.0</ele><time>2026-04-06T10:21:26.228Z</time></trkpt><trkpt lat="44.7200998" lon="7.881673"><ele>370.0</ele><time>2026-04-06T10:21:27.229Z</time></trkpt><trkpt lat="44.7199899" lon="7.8818261"><ele>368.0</ele><time>2026-04-06T10:21:28.228Z</time></trkpt><trkpt lat="44.7198981" lon="7.8819613"><ele>366.0</ele><time>2026-04-06T10:21:29.228Z</time></trkpt><trkpt lat="44.7198221" lon="7.8821036"><ele>364.0</ele><time>2026-04-06T10:21:30.229Z</time></trkpt><trkpt lat="44.7197605" lon="7.8822609"><ele>364.0</ele><time>2026-04-06T10:21:31.228Z</time></trkpt><trkpt lat="44.719725" lon="7.8824425"><ele>364.0</ele><time>2026-04-06T10:21:32.228Z</time></trkpt><trkpt lat="44.7196986" lon="7.8826213"><ele>364.0</ele><time>2026-04-06T10:21:33.228Z</time></trkpt><trkpt lat="44.71968" lon="7.882782"><ele>364.0</ele><time>2026-04-06T10:21:34.228Z</time></trkpt><trkpt lat="44.7196677" lon="7.8829303"><ele>361.4</ele><time>2026-04-06T10:21:35.228Z</time></trkpt><trkpt lat="44.7196613" lon="7.8830745"><ele>358.79999999999995</ele><time>2026-04-06T10:21:36.228Z</time></trkpt><trkpt lat="44.719645" lon="7.8832105"><ele>356.20000000000005</ele><time>2026-04-06T10:21:37.228Z</time></trkpt><trkpt lat="44.7196266" lon="7.8833351"><ele>353.6</ele><time>2026-04-06T10:21:38.228Z</time></trkpt><trkpt lat="44.7196" lon="7.8834472"><ele>351.0</ele><time>2026-04-06T10:21:39.228Z</time></trkpt><trkpt lat="44.7195675" lon="7.8835528"><ele>350.6666666666667</ele><time>2026-04-06T10:21:40.228Z</time></trkpt><trkpt lat="44.7195206" lon="7.8836438"><ele>350.3333333333333</ele><time>2026-04-06T10:21:41.228Z</time></trkpt><trkpt lat="44.7194574" lon="7.8837191"><ele>350.0</ele><time>2026-04-06T10:21:42.228Z</time></trkpt><trkpt lat="44.7193925" lon="7.883799"><ele>349.66666666666663</ele><time>2026-04-06T10:21:43.228Z</time></trkpt><trkpt lat="44.7193254" lon="7.8838742"><ele>349.3333333333333</ele><time>2026-04-06T10:21:44.228Z</time></trkpt><trkpt lat="44.7192645" lon="7.8839511"><ele>349.0</ele><time>2026-04-06T10:21:45.228Z</time></trkpt><trkpt lat="44.7191988" lon="7.8840232"><ele>350.6</ele><time>2026-04-06T10:21:46.228Z</time></trkpt><trkpt lat="44.7191334" lon="7.8840933"><ele>352.2</ele><time>2026-04-06T10:21:47.228Z</time></trkpt><trkpt lat="44.719056" lon="7.8841382"><ele>353.8</ele><time>2026-04-06T10:21:48.228Z</time></trkpt><trkpt lat="44.7189641" lon="7.8841667"><ele>355.40000000000003</ele><time>2026-04-06T10:21:49.228Z</time></trkpt><trkpt lat="44.7188762" lon="7.8842131"><ele>357.0</ele><time>2026-04-06T10:21:50.228Z</time></trkpt><trkpt lat="44.71878" lon="7.8842682"><ele>354.6</ele><time>2026-04-06T10:21:51.228Z</time></trkpt><trkpt lat="44.7186818" lon="7.8843207"><ele>352.20000000000005</ele><time>2026-04-06T10:21:52.228Z</time></trkpt><trkpt lat="44.7185898" lon="7.8843773"><ele>349.8</ele><time>2026-04-06T10:21:53.228Z</time></trkpt><trkpt lat="44.7184938" lon="7.8844184"><ele>347.4</ele><time>2026-04-06T10:21:54.228Z</time></trkpt><trkpt lat="44.7184055" lon="7.8844573"><ele>345.0</ele><time>2026-04-06T10:21:55.228Z</time></trkpt><trkpt lat="44.7183131" lon="7.8844902"><ele>345.0</ele><time>2026-04-06T10:21:56.228Z</time></trkpt><trkpt lat="44.7182352" lon="7.8845298"><ele>345.0</ele><time>2026-04-06T10:21:57.228Z</time></trkpt><trkpt lat="44.7181474" lon="7.8845702"><ele>345.0</ele><time>2026-04-06T10:21:58.228Z</time></trkpt><trkpt lat="44.7180619" lon="7.8846319"><ele>345.0</ele><time>2026-04-06T10:21:59.228Z</time></trkpt><trkpt lat="44.7179817" lon="7.8847116"><ele>345.0</ele><time>2026-04-06T10:22:00.228Z</time></trkpt><trkpt lat="44.7178994" lon="7.8848036"><ele>345.0</ele><time>2026-04-06T10:22:01.228Z</time></trkpt><trkpt lat="44.717801" lon="7.8849004"><ele>345.0</ele><time>2026-04-06T10:22:02.228Z</time></trkpt><trkpt lat="44.7177048" lon="7.8849878"><ele>345.0</ele><time>2026-04-06T10:22:03.228Z</time></trkpt><trkpt lat="44.717616" lon="7.8850934"><ele>345.0</ele><time>2026-04-06T10:22:04.228Z</time></trkpt><trkpt lat="44.7175292" lon="7.8851861"><ele>344.4</ele><time>2026-04-06T10:22:05.228Z</time></trkpt><trkpt lat="44.7174543" lon="7.8852791"><ele>343.8</ele><time>2026-04-06T10:22:06.228Z</time></trkpt><trkpt lat="44.7173777" lon="7.885356"><ele>343.20000000000005</ele><time>2026-04-06T10:22:07.228Z</time></trkpt><trkpt lat="44.7173026" lon="7.8854061"><ele>342.6</ele><time>2026-04-06T10:22:08.228Z</time></trkpt><trkpt lat="44.7172157" lon="7.8854419"><ele>342.0</ele><time>2026-04-06T10:22:09.228Z</time></trkpt><trkpt lat="44.7171164" lon="7.8854669"><ele>342.0</ele><time>2026-04-06T10:22:10.228Z</time></trkpt><trkpt lat="44.7170163" lon="7.8855"><ele>342.0</ele><time>2026-04-06T10:22:11.228Z</time></trkpt><trkpt lat="44.7169093" lon="7.8855413"><ele>342.0</ele><time>2026-04-06T10:22:12.228Z</time></trkpt><trkpt lat="44.716816" lon="7.8855851"><ele>342.0</ele><time>2026-04-06T10:22:13.228Z</time></trkpt><trkpt lat="44.7167316" lon="7.8856286"><ele>342.0</ele><time>2026-04-06T10:22:14.228Z</time></trkpt><trkpt lat="44.7166524" lon="7.8856564"><ele>340.1666666666667</ele><time>2026-04-06T10:22:15.228Z</time></trkpt><trkpt lat="44.7165719" lon="7.8856491"><ele>338.3333333333333</ele><time>2026-04-06T10:22:16.228Z</time></trkpt><trkpt lat="44.7165009" lon="7.8856056"><ele>336.5</ele><time>2026-04-06T10:22:17.228Z</time></trkpt><trkpt lat="44.7164747" lon="7.8855169"><ele>334.66666666666663</ele><time>2026-04-06T10:22:18.228Z</time></trkpt><trkpt lat="44.7164662" lon="7.8854207"><ele>332.8333333333333</ele><time>2026-04-06T10:22:19.228Z</time></trkpt><trkpt lat="44.7164817" lon="7.8853122"><ele>331.0</ele><time>2026-04-06T10:22:20.228Z</time></trkpt><trkpt lat="44.7164784" lon="7.885163"><ele>331.0</ele><time>2026-04-06T10:22:22.228Z</time></trkpt><trkpt lat="44.7163651" lon="7.8851418"><ele>331.0</ele><time>2026-04-06T10:22:24.228Z</time></trkpt><trkpt lat="44.7163097" lon="7.8852065"><ele>331.0</ele><time>2026-04-06T10:22:25.229Z</time></trkpt><trkpt lat="44.7162788" lon="7.8853162"><ele>331.0</ele><time>2026-04-06T10:22:26.228Z</time></trkpt><trkpt lat="44.7162764" lon="7.88541"><ele>331.0</ele><time>2026-04-06T10:22:27.228Z</time></trkpt><trkpt lat="44.7162602" lon="7.8855073"><ele>331.0</ele><time>2026-04-06T10:22:28.228Z</time></trkpt><trkpt lat="44.7162254" lon="7.8856033"><ele>331.0</ele><time>2026-04-06T10:22:29.228Z</time></trkpt><trkpt lat="44.7161387" lon="7.8856563"><ele>331.0</ele><time>2026-04-06T10:22:30.228Z</time></trkpt><trkpt lat="44.7160515" lon="7.8857349"><ele>331.0</ele><time>2026-04-06T10:22:31.228Z</time></trkpt><trkpt lat="44.7159712" lon="7.8858193"><ele>331.0</ele><time>2026-04-06T10:22:32.228Z</time></trkpt><trkpt lat="44.7159067" lon="7.8859248"><ele>331.0</ele><time>2026-04-06T10:22:33.228Z</time></trkpt><trkpt lat="44.7158547" lon="7.8860444"><ele>329.25</ele><time>2026-04-06T10:22:34.228Z</time></trkpt><trkpt lat="44.7158151" lon="7.8861561"><ele>327.5</ele><time>2026-04-06T10:22:35.229Z</time></trkpt><trkpt lat="44.7157464" lon="7.8862501"><ele>325.75</ele><time>2026-04-06T10:22:36.229Z</time></trkpt><trkpt lat="44.7156345" lon="7.8863469"><ele>324.0</ele><time>2026-04-06T10:22:37.229Z</time></trkpt><trkpt lat="44.7155131" lon="7.8864287"><ele>324.0</ele><time>2026-04-06T10:22:38.228Z</time></trkpt><trkpt lat="44.7153755" lon="7.8865215"><ele>324.0</ele><time>2026-04-06T10:22:39.228Z</time></trkpt><trkpt lat="44.715222" lon="7.8865759"><ele>324.0</ele><time>2026-04-06T10:22:40.228Z</time></trkpt><trkpt lat="44.7150336" lon="7.8866158"><ele>319.3333333333333</ele><time>2026-04-06T10:22:41.228Z</time></trkpt><trkpt lat="44.7148662" lon="7.8866511"><ele>314.66666666666663</ele><time>2026-04-06T10:22:42.228Z</time></trkpt><trkpt lat="44.7147079" lon="7.886679"><ele>310.0</ele><time>2026-04-06T10:22:43.228Z</time></trkpt><trkpt lat="44.7145686" lon="7.8867094"><ele>310.0</ele><time>2026-04-06T10:22:44.228Z</time></trkpt><trkpt lat="44.7144512" lon="7.8867427"><ele>310.0</ele><time>2026-04-06T10:22:45.228Z</time></trkpt><trkpt lat="44.7143404" lon="7.8867888"><ele>310.0</ele><time>2026-04-06T10:22:46.228Z</time></trkpt><trkpt lat="44.7142423" lon="7.8868745"><ele>310.0</ele><time>2026-04-06T10:22:47.228Z</time></trkpt><trkpt lat="44.7141638" lon="7.8869884"><ele>309.16666666666663</ele><time>2026-04-06T10:22:48.228Z</time></trkpt><trkpt lat="44.7140994" lon="7.8871121"><ele>308.3333333333333</ele><time>2026-04-06T10:22:49.228Z</time></trkpt><trkpt lat="44.7140517" lon="7.887214"><ele>307.5</ele><time>2026-04-06T10:22:50.228Z</time></trkpt><trkpt lat="44.7140026" lon="7.8872886"><ele>306.6666666666667</ele><time>2026-04-06T10:22:51.228Z</time></trkpt><trkpt lat="44.7139644" lon="7.8873628"><ele>305.83333333333337</ele><time>2026-04-06T10:22:52.228Z</time></trkpt><trkpt lat="44.7138996" lon="7.8874607"><ele>305.0</ele><time>2026-04-06T10:22:54.228Z</time></trkpt><trkpt lat="44.713829" lon="7.8874845"><ele>305.0</ele><time>2026-04-06T10:22:56.228Z</time></trkpt><trkpt lat="44.7137929" lon="7.8873885"><ele>305.0</ele><time>2026-04-06T10:22:59.228Z</time></trkpt><trkpt lat="44.7138544" lon="7.8872681"><ele>305.0</ele><time>2026-04-06T10:23:01.228Z</time></trkpt><trkpt lat="44.713904" lon="7.8871831"><ele>305.0</ele><time>2026-04-06T10:23:02.228Z</time></trkpt><trkpt lat="44.7139565" lon="7.887083"><ele>305.0</ele><time>2026-04-06T10:23:03.228Z</time></trkpt><trkpt lat="44.7140077" lon="7.8869486"><ele>305.0</ele><time>2026-04-06T10:23:04.228Z</time></trkpt><trkpt lat="44.7140704" lon="7.8868149"><ele>305.0</ele><time>2026-04-06T10:23:05.228Z</time></trkpt><trkpt lat="44.7141446" lon="7.88667"><ele>305.0</ele><time>2026-04-06T10:23:06.228Z</time></trkpt><trkpt lat="44.7142367" lon="7.8865261"><ele>305.0</ele><time>2026-04-06T10:23:07.228Z</time></trkpt><trkpt lat="44.7143479" lon="7.8863963"><ele>306.6666666666667</ele><time>2026-04-06T10:23:08.228Z</time></trkpt><trkpt lat="44.7144766" lon="7.8862883"><ele>308.3333333333333</ele><time>2026-04-06T10:23:09.228Z</time></trkpt><trkpt lat="44.7146207" lon="7.886175"><ele>310.0</ele><time>2026-04-06T10:23:10.228Z</time></trkpt><trkpt lat="44.7147664" lon="7.8860574"><ele>310.0</ele><time>2026-04-06T10:23:11.228Z</time></trkpt><trkpt lat="44.7149059" lon="7.8859449"><ele>310.0</ele><time>2026-04-06T10:23:12.228Z</time></trkpt><trkpt lat="44.7150386" lon="7.8858233"><ele>310.0</ele><time>2026-04-06T10:23:13.228Z</time></trkpt><trkpt lat="44.7151712" lon="7.8856929"><ele>310.66666666666663</ele><time>2026-04-06T10:23:14.228Z</time></trkpt><trkpt lat="44.7152887" lon="7.8855435"><ele>311.3333333333333</ele><time>2026-04-06T10:23:15.228Z</time></trkpt><trkpt lat="44.7153961" lon="7.885368"><ele>312.0</ele><time>2026-04-06T10:23:16.228Z</time></trkpt><trkpt lat="44.7154936" lon="7.8851888"><ele>308.75</ele><time>2026-04-06T10:23:17.228Z</time></trkpt><trkpt lat="44.7155882" lon="7.8850113"><ele>305.5</ele><time>2026-04-06T10:23:18.228Z</time></trkpt><trkpt lat="44.715677" lon="7.8848457"><ele>302.25</ele><time>2026-04-06T10:23:19.228Z</time></trkpt><trkpt lat="44.7157552" lon="7.8846891"><ele>299.0</ele><time>2026-04-06T10:23:20.228Z</time></trkpt><trkpt lat="44.7158127" lon="7.8845374"><ele>299.0</ele><time>2026-04-06T10:23:21.228Z</time></trkpt><trkpt lat="44.7158434" lon="7.8843716"><ele>299.0</ele><time>2026-04-06T10:23:22.228Z</time></trkpt><trkpt lat="44.7158446" lon="7.8841991"><ele>299.0</ele><time>2026-04-06T10:23:23.228Z</time></trkpt><trkpt lat="44.7158123" lon="7.8840194"><ele>299.0</ele><time>2026-04-06T10:23:24.228Z</time></trkpt><trkpt lat="44.7157438" lon="7.883843"><ele>295.33333333333337</ele><time>2026-04-06T10:23:25.228Z</time></trkpt><trkpt lat="44.7156448" lon="7.8836714"><ele>291.6666666666667</ele><time>2026-04-06T10:23:26.228Z</time></trkpt><trkpt lat="44.7155237" lon="7.8834904"><ele>288.0</ele><time>2026-04-06T10:23:27.228Z</time></trkpt><trkpt lat="44.7153932" lon="7.8832948"><ele>288.0</ele><time>2026-04-06T10:23:28.228Z</time></trkpt><trkpt lat="44.7152527" lon="7.8830877"><ele>288.0</ele><time>2026-04-06T10:23:29.228Z</time></trkpt><trkpt lat="44.7151081" lon="7.8828693"><ele>288.0</ele><time>2026-04-06T10:23:30.228Z</time></trkpt><trkpt lat="44.7149728" lon="7.8826621"><ele>285.0</ele><time>2026-04-06T10:23:31.228Z</time></trkpt><trkpt lat="44.714846" lon="7.8824728"><ele>282.0</ele><time>2026-04-06T10:23:32.228Z</time></trkpt><trkpt lat="44.7147291" lon="7.8823045"><ele>279.0</ele><time>2026-04-06T10:23:33.228Z</time></trkpt><trkpt lat="44.7146266" lon="7.8821479"><ele>279.0</ele><time>2026-04-06T10:23:34.228Z</time></trkpt><trkpt lat="44.7145359" lon="7.8819938"><ele>279.0</ele><time>2026-04-06T10:23:35.228Z</time></trkpt><trkpt lat="44.714465" lon="7.8818273"><ele>279.0</ele><time>2026-04-06T10:23:36.228Z</time></trkpt><trkpt lat="44.714413" lon="7.8816437"><ele>279.0</ele><time>2026-04-06T10:23:37.229Z</time></trkpt><trkpt lat="44.7143897" lon="7.8814342"><ele>277.25</ele><time>2026-04-06T10:23:38.228Z</time></trkpt><trkpt lat="44.7143842" lon="7.8812153"><ele>275.5</ele><time>2026-04-06T10:23:39.228Z</time></trkpt><trkpt lat="44.7143843" lon="7.8810183"><ele>273.75</ele><time>2026-04-06T10:23:40.228Z</time></trkpt><trkpt lat="44.7143654" lon="7.8808211"><ele>272.0</ele><time>2026-04-06T10:23:41.228Z</time></trkpt><trkpt lat="44.7143174" lon="7.8806345"><ele>272.0</ele><time>2026-04-06T10:23:42.228Z</time></trkpt><trkpt lat="44.7142605" lon="7.8804682"><ele>272.0</ele><time>2026-04-06T10:23:43.228Z</time></trkpt><trkpt lat="44.714203" lon="7.8803142"><ele>272.0</ele><time>2026-04-06T10:23:44.228Z</time></trkpt><trkpt lat="44.7141446" lon="7.8801622"><ele>272.0</ele><time>2026-04-06T10:23:45.228Z</time></trkpt><trkpt lat="44.7140848" lon="7.8800153"><ele>273.75</ele><time>2026-04-06T10:23:46.228Z</time></trkpt><trkpt lat="44.714032" lon="7.8798719"><ele>275.5</ele><time>2026-04-06T10:23:47.228Z</time></trkpt><trkpt lat="44.7139774" lon="7.8797336"><ele>277.25</ele><time>2026-04-06T10:23:48.228Z</time></trkpt><trkpt lat="44.7139072" lon="7.8796133"><ele>279.0</ele><time>2026-04-06T10:23:49.228Z</time></trkpt><trkpt lat="44.7138141" lon="7.8795243"><ele>279.0</ele><time>2026-04-06T10:23:50.229Z</time></trkpt><trkpt lat="44.7137045" lon="7.8794548"><ele>279.0</ele><time>2026-04-06T10:23:51.228Z</time></trkpt><trkpt lat="44.7136024" lon="7.8794176"><ele>279.0</ele><time>2026-04-06T10:23:52.228Z</time></trkpt><trkpt lat="44.7134973" lon="7.879398"><ele>279.0</ele><time>2026-04-06T10:23:53.228Z</time></trkpt><trkpt lat="44.7133979" lon="7.8793726"><ele>279.0</ele><time>2026-04-06T10:23:54.228Z</time></trkpt><trkpt lat="44.7133074" lon="7.8793328"><ele>277.8</ele><time>2026-04-06T10:23:55.228Z</time></trkpt><trkpt lat="44.7132242" lon="7.8792668"><ele>276.59999999999997</ele><time>2026-04-06T10:23:56.228Z</time></trkpt><trkpt lat="44.7131509" lon="7.8791801"><ele>275.4</ele><time>2026-04-06T10:23:57.228Z</time></trkpt><trkpt lat="44.7130903" lon="7.879069"><ele>274.2</ele><time>2026-04-06T10:23:58.228Z</time></trkpt><trkpt lat="44.7130456" lon="7.8789337"><ele>273.0</ele><time>2026-04-06T10:23:59.228Z</time></trkpt><trkpt lat="44.7130077" lon="7.8787793"><ele>273.0</ele><time>2026-04-06T10:24:00.228Z</time></trkpt><trkpt lat="44.7129711" lon="7.8786274"><ele>273.0</ele><time>2026-04-06T10:24:01.228Z</time></trkpt><trkpt lat="44.7129281" lon="7.8784902"><ele>273.0</ele><time>2026-04-06T10:24:02.228Z</time></trkpt><trkpt lat="44.7128641" lon="7.8783736"><ele>273.0</ele><time>2026-04-06T10:24:03.228Z</time></trkpt><trkpt lat="44.7127813" lon="7.8782847"><ele>273.0</ele><time>2026-04-06T10:24:04.228Z</time></trkpt><trkpt lat="44.7126883" lon="7.8782306"><ele>272.0</ele><time>2026-04-06T10:24:05.228Z</time></trkpt><trkpt lat="44.7125787" lon="7.8782034"><ele>271.0</ele><time>2026-04-06T10:24:06.228Z</time></trkpt><trkpt lat="44.712465" lon="7.8782044"><ele>270.0</ele><time>2026-04-06T10:24:07.228Z</time></trkpt><trkpt lat="44.7123483" lon="7.878227"><ele>269.0</ele><time>2026-04-06T10:24:08.228Z</time></trkpt><trkpt lat="44.7122377" lon="7.8782516"><ele>269.0</ele><time>2026-04-06T10:24:09.228Z</time></trkpt><trkpt lat="44.7121325" lon="7.8782698"><ele>269.0</ele><time>2026-04-06T10:24:10.228Z</time></trkpt><trkpt lat="44.7120318" lon="7.878267"><ele>269.0</ele><time>2026-04-06T10:24:11.228Z</time></trkpt><trkpt lat="44.7119325" lon="7.8782297"><ele>269.0</ele><time>2026-04-06T10:24:12.228Z</time></trkpt><trkpt lat="44.7118399" lon="7.8781574"><ele>269.0</ele><time>2026-04-06T10:24:13.228Z</time></trkpt><trkpt lat="44.7117446" lon="7.8780461"><ele>267.4</ele><time>2026-04-06T10:24:14.229Z</time></trkpt><trkpt lat="44.7116565" lon="7.8779286"><ele>265.79999999999995</ele><time>2026-04-06T10:24:15.228Z</time></trkpt><trkpt lat="44.7115694" lon="7.877827"><ele>264.20000000000005</ele><time>2026-04-06T10:24:16.228Z</time></trkpt><trkpt lat="44.7114816" lon="7.8777558"><ele>262.6</ele><time>2026-04-06T10:24:17.228Z</time></trkpt><trkpt lat="44.711388" lon="7.8777255"><ele>261.0</ele><time>2026-04-06T10:24:18.228Z</time></trkpt><trkpt lat="44.711293" lon="7.8777182"><ele>261.0</ele><time>2026-04-06T10:24:19.228Z</time></trkpt><trkpt lat="44.7111955" lon="7.8777328"><ele>261.0</ele><time>2026-04-06T10:24:20.228Z</time></trkpt><trkpt lat="44.7110891" lon="7.8777876"><ele>261.0</ele><time>2026-04-06T10:24:21.228Z</time></trkpt><trkpt lat="44.7109832" lon="7.8778617"><ele>261.0</ele><time>2026-04-06T10:24:22.228Z</time></trkpt><trkpt lat="44.7108766" lon="7.8779481"><ele>260.0</ele><time>2026-04-06T10:24:23.228Z</time></trkpt><trkpt lat="44.7107761" lon="7.8780298"><ele>259.0</ele><time>2026-04-06T10:24:24.228Z</time></trkpt><trkpt lat="44.7106767" lon="7.8780962"><ele>258.0</ele><time>2026-04-06T10:24:25.228Z</time></trkpt><trkpt lat="44.7105715" lon="7.8781447"><ele>257.0</ele><time>2026-04-06T10:24:26.228Z</time></trkpt><trkpt lat="44.7104643" lon="7.8781627"><ele>256.0</ele><time>2026-04-06T10:24:27.228Z</time></trkpt><trkpt lat="44.7103494" lon="7.8781416"><ele>255.0</ele><time>2026-04-06T10:24:28.229Z</time></trkpt><trkpt lat="44.7102336" lon="7.8780834"><ele>254.0</ele><time>2026-04-06T10:24:29.228Z</time></trkpt><trkpt lat="44.7101157" lon="7.8780203"><ele>253.0</ele><time>2026-04-06T10:24:30.228Z</time></trkpt><trkpt lat="44.7099868" lon="7.8779676"><ele>252.0</ele><time>2026-04-06T10:24:31.228Z</time></trkpt><trkpt lat="44.7098584" lon="7.8779386"><ele>252.0</ele><time>2026-04-06T10:24:32.228Z</time></trkpt><trkpt lat="44.7097343" lon="7.8779352"><ele>252.0</ele><time>2026-04-06T10:24:33.228Z</time></trkpt><trkpt lat="44.7096213" lon="7.8779419"><ele>252.0</ele><time>2026-04-06T10:24:34.228Z</time></trkpt><trkpt lat="44.7095207" lon="7.8779738"><ele>252.0</ele><time>2026-04-06T10:24:35.228Z</time></trkpt><trkpt lat="44.7094198" lon="7.878047"><ele>252.75</ele><time>2026-04-06T10:24:36.228Z</time></trkpt><trkpt lat="44.7093116" lon="7.8781556"><ele>253.5</ele><time>2026-04-06T10:24:37.228Z</time></trkpt><trkpt lat="44.7091924" lon="7.8782764"><ele>254.25</ele><time>2026-04-06T10:24:38.228Z</time></trkpt><trkpt lat="44.7090752" lon="7.8783968"><ele>255.0</ele><time>2026-04-06T10:24:39.228Z</time></trkpt><trkpt lat="44.7089647" lon="7.8785146"><ele>252.75</ele><time>2026-04-06T10:24:40.228Z</time></trkpt><trkpt lat="44.7088573" lon="7.8786374"><ele>250.5</ele><time>2026-04-06T10:24:41.228Z</time></trkpt><trkpt lat="44.7087502" lon="7.8787523"><ele>248.25</ele><time>2026-04-06T10:24:42.228Z</time></trkpt><trkpt lat="44.7086351" lon="7.8788466"><ele>246.0</ele><time>2026-04-06T10:24:43.228Z</time></trkpt><trkpt lat="44.7085145" lon="7.8789121"><ele>246.0</ele><time>2026-04-06T10:24:44.228Z</time></trkpt><trkpt lat="44.7083801" lon="7.8789719"><ele>246.0</ele><time>2026-04-06T10:24:45.228Z</time></trkpt><trkpt lat="44.7082341" lon="7.8790393"><ele>246.0</ele><time>2026-04-06T10:24:46.228Z</time></trkpt><trkpt lat="44.7080898" lon="7.8791081"><ele>246.0</ele><time>2026-04-06T10:24:47.228Z</time></trkpt><trkpt lat="44.7079524" lon="7.8791796"><ele>246.0</ele><time>2026-04-06T10:24:48.228Z</time></trkpt><trkpt lat="44.7078103" lon="7.8792524"><ele>246.0</ele><time>2026-04-06T10:24:49.228Z</time></trkpt><trkpt lat="44.7076631" lon="7.8793159"><ele>246.0</ele><time>2026-04-06T10:24:50.228Z</time></trkpt><trkpt lat="44.7075121" lon="7.879353"><ele>242.66666666666669</ele><time>2026-04-06T10:24:51.228Z</time></trkpt><trkpt lat="44.7073538" lon="7.8793519"><ele>239.33333333333334</ele><time>2026-04-06T10:24:52.228Z</time></trkpt><trkpt lat="44.7071902" lon="7.8793261"><ele>236.0</ele><time>2026-04-06T10:24:53.228Z</time></trkpt><trkpt lat="44.7070332" lon="7.8792817"><ele>235.75</ele><time>2026-04-06T10:24:54.228Z</time></trkpt><trkpt lat="44.70689" lon="7.8792305"><ele>235.5</ele><time>2026-04-06T10:24:55.228Z</time></trkpt><trkpt lat="44.7067571" lon="7.8791874"><ele>235.25</ele><time>2026-04-06T10:24:56.228Z</time></trkpt><trkpt lat="44.7066264" lon="7.8791611"><ele>235.0</ele><time>2026-04-06T10:24:57.228Z</time></trkpt><trkpt lat="44.7065022" lon="7.8791726"><ele>235.0</ele><time>2026-04-06T10:24:58.228Z</time></trkpt><trkpt lat="44.706378" lon="7.8792331"><ele>235.0</ele><time>2026-04-06T10:24:59.228Z</time></trkpt><trkpt lat="44.706247" lon="7.8793468"><ele>235.0</ele><time>2026-04-06T10:25:00.228Z</time></trkpt><trkpt lat="44.706109" lon="7.8794885"><ele>233.33333333333331</ele><time>2026-04-06T10:25:01.228Z</time></trkpt><trkpt lat="44.7059599" lon="7.8796442"><ele>231.66666666666669</ele><time>2026-04-06T10:25:02.228Z</time></trkpt><trkpt lat="44.7057846" lon="7.8798057"><ele>230.0</ele><time>2026-04-06T10:25:03.228Z</time></trkpt><trkpt lat="44.7055937" lon="7.8799628"><ele>230.5</ele><time>2026-04-06T10:25:04.228Z</time></trkpt><trkpt lat="44.7054004" lon="7.8801441"><ele>231.0</ele><time>2026-04-06T10:25:05.228Z</time></trkpt><trkpt lat="44.7052045" lon="7.880335"><ele>231.5</ele><time>2026-04-06T10:25:06.229Z</time></trkpt><trkpt lat="44.7050096" lon="7.8805301"><ele>232.0</ele><time>2026-04-06T10:25:07.228Z</time></trkpt><trkpt lat="44.7048228" lon="7.8807194"><ele>232.0</ele><time>2026-04-06T10:25:08.228Z</time></trkpt><trkpt lat="44.7046415" lon="7.8808879"><ele>232.0</ele><time>2026-04-06T10:25:09.228Z</time></trkpt><trkpt lat="44.7044633" lon="7.8810348"><ele>232.0</ele><time>2026-04-06T10:25:10.228Z</time></trkpt><trkpt lat="44.7042957" lon="7.8811612"><ele>231.0</ele><time>2026-04-06T10:25:11.228Z</time></trkpt><trkpt lat="44.7041365" lon="7.8812797"><ele>230.0</ele><time>2026-04-06T10:25:12.228Z</time></trkpt><trkpt lat="44.7039868" lon="7.8813937"><ele>229.0</ele><time>2026-04-06T10:25:13.228Z</time></trkpt><trkpt lat="44.7038383" lon="7.8814987"><ele>229.0</ele><time>2026-04-06T10:25:14.228Z</time></trkpt><trkpt lat="44.7036899" lon="7.8816141"><ele>229.0</ele><time>2026-04-06T10:25:15.228Z</time></trkpt><trkpt lat="44.7035468" lon="7.8817391"><ele>229.0</ele><time>2026-04-06T10:25:16.228Z</time></trkpt><trkpt lat="44.7034073" lon="7.881885"><ele>228.33333333333331</ele><time>2026-04-06T10:25:17.228Z</time></trkpt><trkpt lat="44.7032764" lon="7.8820432"><ele>227.66666666666669</ele><time>2026-04-06T10:25:18.228Z</time></trkpt><trkpt lat="44.7031451" lon="7.8822132"><ele>227.0</ele><time>2026-04-06T10:25:19.228Z</time></trkpt><trkpt lat="44.7030082" lon="7.882393"><ele>227.0</ele><time>2026-04-06T10:25:20.228Z</time></trkpt><trkpt lat="44.7028644" lon="7.8825733"><ele>227.0</ele><time>2026-04-06T10:25:21.228Z</time></trkpt><trkpt lat="44.7027088" lon="7.8827546"><ele>227.0</ele><time>2026-04-06T10:25:22.228Z</time></trkpt><trkpt lat="44.7025497" lon="7.8829519"><ele>226.66666666666669</ele><time>2026-04-06T10:25:23.228Z</time></trkpt><trkpt lat="44.702389" lon="7.8831614"><ele>226.33333333333331</ele><time>2026-04-06T10:25:24.228Z</time></trkpt><trkpt lat="44.7022286" lon="7.8833685"><ele>226.0</ele><time>2026-04-06T10:25:25.228Z</time></trkpt><trkpt lat="44.7020792" lon="7.8835558"><ele>225.33333333333331</ele><time>2026-04-06T10:25:26.228Z</time></trkpt><trkpt lat="44.7019499" lon="7.8837343"><ele>224.66666666666669</ele><time>2026-04-06T10:25:27.228Z</time></trkpt><trkpt lat="44.7018262" lon="7.8839036"><ele>224.0</ele><time>2026-04-06T10:25:28.228Z</time></trkpt><trkpt lat="44.7017058" lon="7.8840592"><ele>224.0</ele><time>2026-04-06T10:25:29.228Z</time></trkpt><trkpt lat="44.7015926" lon="7.884205"><ele>224.0</ele><time>2026-04-06T10:25:30.228Z</time></trkpt><trkpt lat="44.7014824" lon="7.8843337"><ele>224.0</ele><time>2026-04-06T10:25:31.229Z</time></trkpt><trkpt lat="44.7013781" lon="7.8844546"><ele>224.0</ele><time>2026-04-06T10:25:32.228Z</time></trkpt><trkpt lat="44.7012837" lon="7.8845683"><ele>224.0</ele><time>2026-04-06T10:25:33.228Z</time></trkpt><trkpt lat="44.7011931" lon="7.8846739"><ele>224.0</ele><time>2026-04-06T10:25:34.228Z</time></trkpt><trkpt lat="44.7011071" lon="7.884782"><ele>224.0</ele><time>2026-04-06T10:25:35.228Z</time></trkpt><trkpt lat="44.7010253" lon="7.8848858"><ele>224.0</ele><time>2026-04-06T10:25:36.228Z</time></trkpt><trkpt lat="44.7009428" lon="7.8849879"><ele>224.0</ele><time>2026-04-06T10:25:37.228Z</time></trkpt><trkpt lat="44.7008521" lon="7.8850931"><ele>223.99999999999997</ele><time>2026-04-06T10:25:38.228Z</time></trkpt><trkpt lat="44.7007563" lon="7.8851948"><ele>223.99999999999997</ele><time>2026-04-06T10:25:39.228Z</time></trkpt><trkpt lat="44.7006737" lon="7.8852881"><ele>224.0</ele><time>2026-04-06T10:25:40.228Z</time></trkpt><trkpt lat="44.7006001" lon="7.8853747"><ele>224.0</ele><time>2026-04-06T10:25:41.228Z</time></trkpt><trkpt lat="44.7005295" lon="7.8854521"><ele>223.79999999999998</ele><time>2026-04-06T10:25:42.228Z</time></trkpt><trkpt lat="44.7004628" lon="7.8855259"><ele>223.59999999999997</ele><time>2026-04-06T10:25:43.228Z</time></trkpt><trkpt lat="44.7003958" lon="7.8855955"><ele>223.4</ele><time>2026-04-06T10:25:44.228Z</time></trkpt><trkpt lat="44.7003279" lon="7.8856701"><ele>223.2</ele><time>2026-04-06T10:25:45.228Z</time></trkpt><trkpt lat="44.7002351" lon="7.8857222"><ele>223.0</ele><time>2026-04-06T10:25:46.228Z</time></trkpt><trkpt lat="44.7001212" lon="7.8857359"><ele>222.66666666666666</ele><time>2026-04-06T10:25:47.228Z</time></trkpt><trkpt lat="44.6999796" lon="7.8857599"><ele>222.33333333333331</ele><time>2026-04-06T10:25:48.228Z</time></trkpt><trkpt lat="44.699829" lon="7.8858131"><ele>222.0</ele><time>2026-04-06T10:25:49.228Z</time></trkpt><trkpt lat="44.6996666" lon="7.885888"><ele>221.66666666666669</ele><time>2026-04-06T10:25:50.228Z</time></trkpt><trkpt lat="44.6995019" lon="7.8859784"><ele>221.33333333333334</ele><time>2026-04-06T10:25:51.228Z</time></trkpt><trkpt lat="44.699321" lon="7.8860796"><ele>221.0</ele><time>2026-04-06T10:25:52.228Z</time></trkpt><trkpt lat="44.6991478" lon="7.8861872"><ele>220.66666666666669</ele><time>2026-04-06T10:25:53.228Z</time></trkpt><trkpt lat="44.6989842" lon="7.886283"><ele>220.33333333333331</ele><time>2026-04-06T10:25:54.228Z</time></trkpt><trkpt lat="44.69883" lon="7.8863732"><ele>220.0</ele><time>2026-04-06T10:25:55.228Z</time></trkpt><trkpt lat="44.6986811" lon="7.8864635"><ele>219.66666666666666</ele><time>2026-04-06T10:25:56.228Z</time></trkpt><trkpt lat="44.6985384" lon="7.8865489"><ele>219.33333333333331</ele><time>2026-04-06T10:25:57.228Z</time></trkpt><trkpt lat="44.6983981" lon="7.8866388"><ele>219.0</ele><time>2026-04-06T10:25:58.228Z</time></trkpt><trkpt lat="44.6982525" lon="7.8867207"><ele>219.0</ele><time>2026-04-06T10:25:59.228Z</time></trkpt><trkpt lat="44.6981087" lon="7.8867809"><ele>219.0</ele><time>2026-04-06T10:26:00.228Z</time></trkpt><trkpt lat="44.697968" lon="7.8868147"><ele>219.0</ele><time>2026-04-06T10:26:01.228Z</time></trkpt><trkpt lat="44.6978362" lon="7.8868553"><ele>219.0</ele><time>2026-04-06T10:26:02.228Z</time></trkpt><trkpt lat="44.6977217" lon="7.88689"><ele>219.0</ele><time>2026-04-06T10:26:03.228Z</time></trkpt><trkpt lat="44.6976295" lon="7.8869192"><ele>219.0</ele><time>2026-04-06T10:26:04.228Z</time></trkpt><trkpt lat="44.6975495" lon="7.8869458"><ele>219.0</ele><time>2026-04-06T10:26:05.228Z</time></trkpt><trkpt lat="44.6974848" lon="7.8869687"><ele>219.0</ele><time>2026-04-06T10:26:06.228Z</time></trkpt><trkpt lat="44.6974152" lon="7.8870003"><ele>219.0</ele><time>2026-04-06T10:26:07.228Z</time></trkpt><trkpt lat="44.6973102" lon="7.8870033"><ele>219.0</ele><time>2026-04-06T10:26:09.228Z</time></trkpt><trkpt lat="44.6972325" lon="7.886987"><ele>219.0</ele><time>2026-04-06T10:26:11.228Z</time></trkpt><trkpt lat="44.6973059" lon="7.8870563"><ele>218.99999999999997</ele><time>2026-04-06T10:26:21.228Z</time></trkpt><trkpt lat="44.6972576" lon="7.8871172"><ele>218.99999999999997</ele><time>2026-04-06T10:27:08.228Z</time></trkpt><trkpt lat="44.6971795" lon="7.8871205"><ele>219.0</ele><time>2026-04-06T10:27:09.228Z</time></trkpt><trkpt lat="44.6970757" lon="7.8871572"><ele>219.0</ele><time>2026-04-06T10:27:10.228Z</time></trkpt><trkpt lat="44.6969626" lon="7.8872256"><ele>218.33333333333331</ele><time>2026-04-06T10:27:11.228Z</time></trkpt><trkpt lat="44.6968267" lon="7.8873275"><ele>217.66666666666666</ele><time>2026-04-06T10:27:12.228Z</time></trkpt><trkpt lat="44.6966723" lon="7.8874423"><ele>217.0</ele><time>2026-04-06T10:27:13.229Z</time></trkpt><trkpt lat="44.696528" lon="7.8875655"><ele>217.0</ele><time>2026-04-06T10:27:14.228Z</time></trkpt><trkpt lat="44.6964015" lon="7.8876794"><ele>217.0</ele><time>2026-04-06T10:27:15.228Z</time></trkpt><trkpt lat="44.6962756" lon="7.8877925"><ele>217.0</ele><time>2026-04-06T10:27:16.228Z</time></trkpt><trkpt lat="44.6961505" lon="7.8879019"><ele>217.0</ele><time>2026-04-06T10:27:17.228Z</time></trkpt><trkpt lat="44.6960133" lon="7.8880171"><ele>216.66666666666666</ele><time>2026-04-06T10:27:18.228Z</time></trkpt><trkpt lat="44.6958625" lon="7.8881406"><ele>216.33333333333331</ele><time>2026-04-06T10:27:19.228Z</time></trkpt><trkpt lat="44.6957209" lon="7.8882658"><ele>216.0</ele><time>2026-04-06T10:27:20.228Z</time></trkpt><trkpt lat="44.6955817" lon="7.8883843"><ele>216.0</ele><time>2026-04-06T10:27:21.228Z</time></trkpt><trkpt lat="44.6954433" lon="7.8885002"><ele>216.0</ele><time>2026-04-06T10:27:22.228Z</time></trkpt><trkpt lat="44.6953061" lon="7.8886189"><ele>216.0</ele><time>2026-04-06T10:27:23.228Z</time></trkpt><trkpt lat="44.6951708" lon="7.8887317"><ele>214.66666666666669</ele><time>2026-04-06T10:27:24.228Z</time></trkpt><trkpt lat="44.6950372" lon="7.8888426"><ele>213.33333333333334</ele><time>2026-04-06T10:27:25.228Z</time></trkpt><trkpt lat="44.6948955" lon="7.888954"><ele>212.0</ele><time>2026-04-06T10:27:26.228Z</time></trkpt><trkpt lat="44.6947572" lon="7.8890741"><ele>212.0</ele><time>2026-04-06T10:27:27.228Z</time></trkpt><trkpt lat="44.6946116" lon="7.8891998"><ele>212.0</ele><time>2026-04-06T10:27:28.228Z</time></trkpt><trkpt lat="44.694451" lon="7.8893366"><ele>212.0</ele><time>2026-04-06T10:27:29.228Z</time></trkpt><trkpt lat="44.694286" lon="7.8894718"><ele>212.33333333333334</ele><time>2026-04-06T10:27:30.228Z</time></trkpt><trkpt lat="44.6941313" lon="7.8896047"><ele>212.66666666666669</ele><time>2026-04-06T10:27:31.228Z</time></trkpt><trkpt lat="44.693981" lon="7.8897324"><ele>213.0</ele><time>2026-04-06T10:27:32.228Z</time></trkpt><trkpt lat="44.6938339" lon="7.8898571"><ele>213.0</ele><time>2026-04-06T10:27:33.228Z</time></trkpt><trkpt lat="44.6936887" lon="7.8899749"><ele>213.0</ele><time>2026-04-06T10:27:34.228Z</time></trkpt><trkpt lat="44.6935498" lon="7.8900897"><ele>213.0</ele><time>2026-04-06T10:27:35.228Z</time></trkpt><trkpt lat="44.6934186" lon="7.8901972"><ele>211.66666666666669</ele><time>2026-04-06T10:27:36.228Z</time></trkpt><trkpt lat="44.6932926" lon="7.8903045"><ele>210.33333333333334</ele><time>2026-04-06T10:27:37.228Z</time></trkpt><trkpt lat="44.6931647" lon="7.8904094"><ele>209.0</ele><time>2026-04-06T10:27:38.228Z</time></trkpt><trkpt lat="44.6930279" lon="7.8905228"><ele>209.0</ele><time>2026-04-06T10:27:39.228Z</time></trkpt><trkpt lat="44.6928876" lon="7.8906366"><ele>209.0</ele><time>2026-04-06T10:27:40.228Z</time></trkpt><trkpt lat="44.6927452" lon="7.8907545"><ele>209.0</ele><time>2026-04-06T10:27:41.228Z</time></trkpt><trkpt lat="44.6926056" lon="7.8908703"><ele>208.5</ele><time>2026-04-06T10:27:42.228Z</time></trkpt><trkpt lat="44.6924763" lon="7.8909804"><ele>208.0</ele><time>2026-04-06T10:27:43.228Z</time></trkpt><trkpt lat="44.6923507" lon="7.8910886"><ele>207.5</ele><time>2026-04-06T10:27:44.228Z</time></trkpt><trkpt lat="44.6922251" lon="7.8911953"><ele>207.0</ele><time>2026-04-06T10:27:45.228Z</time></trkpt><trkpt lat="44.692099" lon="7.8913033"><ele>207.0</ele><time>2026-04-06T10:27:46.228Z</time></trkpt><trkpt lat="44.6919687" lon="7.8914145"><ele>207.0</ele><time>2026-04-06T10:27:47.228Z</time></trkpt><trkpt lat="44.6918392" lon="7.8915197"><ele>207.0</ele><time>2026-04-06T10:27:48.228Z</time></trkpt><trkpt lat="44.6917147" lon="7.89163"><ele>207.0</ele><time>2026-04-06T10:27:49.228Z</time></trkpt><trkpt lat="44.6915909" lon="7.8917376"><ele>206.75</ele><time>2026-04-06T10:27:50.228Z</time></trkpt><trkpt lat="44.6914689" lon="7.8918432"><ele>206.5</ele><time>2026-04-06T10:27:51.228Z</time></trkpt><trkpt lat="44.6913482" lon="7.8919452"><ele>206.25</ele><time>2026-04-06T10:27:52.229Z</time></trkpt><trkpt lat="44.6912327" lon="7.8920436"><ele>206.0</ele><time>2026-04-06T10:27:53.228Z</time></trkpt><trkpt lat="44.6911223" lon="7.8921385"><ele>206.25</ele><time>2026-04-06T10:27:54.228Z</time></trkpt><trkpt lat="44.6910189" lon="7.8922328"><ele>206.5</ele><time>2026-04-06T10:27:55.228Z</time></trkpt><trkpt lat="44.6909164" lon="7.8923216"><ele>206.75</ele><time>2026-04-06T10:27:56.228Z</time></trkpt><trkpt lat="44.6908113" lon="7.8924128"><ele>207.0</ele><time>2026-04-06T10:27:57.228Z</time></trkpt><trkpt lat="44.6907022" lon="7.8925042"><ele>207.0</ele><time>2026-04-06T10:27:58.228Z</time></trkpt><trkpt lat="44.6905875" lon="7.8925983"><ele>207.0</ele><time>2026-04-06T10:27:59.228Z</time></trkpt><trkpt lat="44.6904704" lon="7.8926959"><ele>207.0</ele><time>2026-04-06T10:28:00.228Z</time></trkpt><trkpt lat="44.6903519" lon="7.8927967"><ele>207.0</ele><time>2026-04-06T10:28:01.228Z</time></trkpt><trkpt lat="44.6902346" lon="7.8928979"><ele>206.5</ele><time>2026-04-06T10:28:02.228Z</time></trkpt><trkpt lat="44.6901193" lon="7.8929968"><ele>206.0</ele><time>2026-04-06T10:28:03.228Z</time></trkpt><trkpt lat="44.6900061" lon="7.8930942"><ele>205.5</ele><time>2026-04-06T10:28:04.228Z</time></trkpt><trkpt lat="44.6898967" lon="7.8931899"><ele>205.0</ele><time>2026-04-06T10:28:05.228Z</time></trkpt><trkpt lat="44.6897882" lon="7.8932841"><ele>205.0</ele><time>2026-04-06T10:28:06.228Z</time></trkpt><trkpt lat="44.6896855" lon="7.8933759"><ele>205.0</ele><time>2026-04-06T10:28:07.228Z</time></trkpt><trkpt lat="44.6895864" lon="7.8934618"><ele>205.0</ele><time>2026-04-06T10:28:08.228Z</time></trkpt><trkpt lat="44.6894955" lon="7.8935413"><ele>205.0</ele><time>2026-04-06T10:28:09.228Z</time></trkpt><trkpt lat="44.6894008" lon="7.8936274"><ele>205.0</ele><time>2026-04-06T10:28:10.228Z</time></trkpt><trkpt lat="44.6892967" lon="7.8937119"><ele>205.0</ele><time>2026-04-06T10:28:11.228Z</time></trkpt><trkpt lat="44.6891978" lon="7.8937963"><ele>205.0</ele><time>2026-04-06T10:28:12.228Z</time></trkpt><trkpt lat="44.6890989" lon="7.8938788"><ele>205.0</ele><time>2026-04-06T10:28:13.228Z</time></trkpt><trkpt lat="44.6890001" lon="7.8939628"><ele>205.0</ele><time>2026-04-06T10:28:14.228Z</time></trkpt><trkpt lat="44.6888988" lon="7.8940495"><ele>205.0</ele><time>2026-04-06T10:28:15.228Z</time></trkpt><trkpt lat="44.6887984" lon="7.8941409"><ele>205.0</ele><time>2026-04-06T10:28:16.228Z</time></trkpt><trkpt lat="44.6886932" lon="7.894234"><ele>205.0</ele><time>2026-04-06T10:28:17.228Z</time></trkpt><trkpt lat="44.6885842" lon="7.8943253"><ele>204.5</ele><time>2026-04-06T10:28:18.228Z</time></trkpt><trkpt lat="44.6884788" lon="7.89442"><ele>204.0</ele><time>2026-04-06T10:28:19.228Z</time></trkpt><trkpt lat="44.6883726" lon="7.8945062"><ele>203.5</ele><time>2026-04-06T10:28:20.228Z</time></trkpt><trkpt lat="44.6882702" lon="7.894587"><ele>203.0</ele><time>2026-04-06T10:28:21.228Z</time></trkpt><trkpt lat="44.688171" lon="7.894675"><ele>203.0</ele><time>2026-04-06T10:28:22.228Z</time></trkpt><trkpt lat="44.687877" lon="7.8949349"><ele>203.0</ele><time>2026-04-06T10:28:25.228Z</time></trkpt><trkpt lat="44.6877801" lon="7.8950191"><ele>202.60000000000002</ele><time>2026-04-06T10:28:26.228Z</time></trkpt><trkpt lat="44.6876857" lon="7.8951055"><ele>202.20000000000002</ele><time>2026-04-06T10:28:27.228Z</time></trkpt><trkpt lat="44.6875932" lon="7.8951863"><ele>201.8</ele><time>2026-04-06T10:28:28.228Z</time></trkpt><trkpt lat="44.6875062" lon="7.8952644"><ele>201.4</ele><time>2026-04-06T10:28:29.228Z</time></trkpt><trkpt lat="44.6874245" lon="7.8953328"><ele>201.0</ele><time>2026-04-06T10:28:30.228Z</time></trkpt><trkpt lat="44.6873548" lon="7.895394"><ele>201.0</ele><time>2026-04-06T10:28:31.228Z</time></trkpt><trkpt lat="44.6872911" lon="7.8954543"><ele>201.0</ele><time>2026-04-06T10:28:32.228Z</time></trkpt><trkpt lat="44.6872348" lon="7.8955069"><ele>201.0</ele><time>2026-04-06T10:28:33.228Z</time></trkpt><trkpt lat="44.6871333" lon="7.8955936"><ele>201.0</ele><time>2026-04-06T10:28:35.228Z</time></trkpt><trkpt lat="44.6870414" lon="7.8956717"><ele>201.0</ele><time>2026-04-06T10:28:37.228Z</time></trkpt><trkpt lat="44.6869791" lon="7.8957276"><ele>201.0</ele><time>2026-04-06T10:28:39.228Z</time></trkpt><trkpt lat="44.6868768" lon="7.8957547"><ele>201.0</ele><time>2026-04-06T10:28:42.228Z</time></trkpt><trkpt lat="44.6867688" lon="7.8956457"><ele>201.0</ele><time>2026-04-06T10:28:44.228Z</time></trkpt><trkpt lat="44.6867148" lon="7.8955514"><ele>201.0</ele><time>2026-04-06T10:28:45.228Z</time></trkpt><trkpt lat="44.686664" lon="7.8954463"><ele>201.0</ele><time>2026-04-06T10:28:46.228Z</time></trkpt><trkpt lat="44.6866141" lon="7.895346"><ele>201.0</ele><time>2026-04-06T10:28:47.228Z</time></trkpt><trkpt lat="44.6865627" lon="7.8952264"><ele>201.0</ele><time>2026-04-06T10:28:48.228Z</time></trkpt><trkpt lat="44.6865062" lon="7.8951004"><ele>201.0</ele><time>2026-04-06T10:28:49.228Z</time></trkpt><trkpt lat="44.6864462" lon="7.8949625"><ele>201.0</ele><time>2026-04-06T10:28:50.228Z</time></trkpt><trkpt lat="44.6863868" lon="7.8948247"><ele>201.0</ele><time>2026-04-06T10:28:51.228Z</time></trkpt><trkpt lat="44.6863285" lon="7.8946846"><ele>201.0</ele><time>2026-04-06T10:28:52.228Z</time></trkpt><trkpt lat="44.6862756" lon="7.8945532"><ele>201.0</ele><time>2026-04-06T10:28:53.228Z</time></trkpt><trkpt lat="44.6862274" lon="7.8944283"><ele>201.0</ele><time>2026-04-06T10:28:54.228Z</time></trkpt><trkpt lat="44.6861919" lon="7.8943057"><ele>201.0</ele><time>2026-04-06T10:28:55.228Z</time></trkpt><trkpt lat="44.6861647" lon="7.8941744"><ele>201.0</ele><time>2026-04-06T10:28:56.228Z</time></trkpt><trkpt lat="44.6861422" lon="7.8940814"><ele>202.0</ele><time>2026-04-06T10:28:57.228Z</time></trkpt><trkpt lat="44.6860846" lon="7.8939579"><ele>201.0</ele><time>2026-04-06T10:28:59.228Z</time></trkpt><trkpt lat="44.6860416" lon="7.8938562"><ele>201.0</ele><time>2026-04-06T10:29:01.228Z</time></trkpt></trkseg><trkseg><trkpt lat="44.6912042" lon="7.9048687"><ele>201.0</ele><time>2026-04-06T10:42:39.227Z</time></trkpt><trkpt lat="44.6912957" lon="7.9050276"><ele>201.0</ele><time>2026-04-06T10:42:40.227Z</time></trkpt><trkpt lat="44.6914892" lon="7.9053737"><ele>200.66666666666669</ele><time>2026-04-06T10:42:42.227Z</time></trkpt><trkpt lat="44.6915953" lon="7.9055602"><ele>200.33333333333334</ele><time>2026-04-06T10:42:43.227Z</time></trkpt><trkpt lat="44.6917075" lon="7.9057583"><ele>200.0</ele><time>2026-04-06T10:42:44.227Z</time></trkpt><trkpt lat="44.6918243" lon="7.9059633"><ele>199.33333333333334</ele><time>2026-04-06T10:42:45.227Z</time></trkpt><trkpt lat="44.691944" lon="7.9061763"><ele>198.66666666666669</ele><time>2026-04-06T10:42:46.227Z</time></trkpt><trkpt lat="44.6920684" lon="7.9063964"><ele>198.0</ele><time>2026-04-06T10:42:47.227Z</time></trkpt><trkpt lat="44.6921933" lon="7.9066214"><ele>197.0</ele><time>2026-04-06T10:42:48.227Z</time></trkpt><trkpt lat="44.6923191" lon="7.9068449"><ele>196.0</ele><time>2026-04-06T10:42:49.227Z</time></trkpt><trkpt lat="44.6924499" lon="7.9070742"><ele>195.0</ele><time>2026-04-06T10:42:50.227Z</time></trkpt><trkpt lat="44.6925812" lon="7.9073022"><ele>195.0</ele><time>2026-04-06T10:42:51.227Z</time></trkpt><trkpt lat="44.6927177" lon="7.9075332"><ele>195.0</ele><time>2026-04-06T10:42:52.227Z</time></trkpt><trkpt lat="44.6928549" lon="7.9077664"><ele>195.0</ele><time>2026-04-06T10:42:53.227Z</time></trkpt><trkpt lat="44.6929887" lon="7.9079983"><ele>196.66666666666669</ele><time>2026-04-06T10:42:54.227Z</time></trkpt><trkpt lat="44.6931194" lon="7.9082262"><ele>198.33333333333334</ele><time>2026-04-06T10:42:55.227Z</time></trkpt><trkpt lat="44.6932474" lon="7.9084502"><ele>200.0</ele><time>2026-04-06T10:42:56.227Z</time></trkpt><trkpt lat="44.6933703" lon="7.90866"><ele>200.0</ele><time>2026-04-06T10:42:57.227Z</time></trkpt><trkpt lat="44.6934883" lon="7.908862"><ele>200.0</ele><time>2026-04-06T10:42:58.227Z</time></trkpt><trkpt lat="44.6935983" lon="7.9090622"><ele>200.0</ele><time>2026-04-06T10:42:59.228Z</time></trkpt><trkpt lat="44.6937047" lon="7.9092603"><ele>200.66666666666669</ele><time>2026-04-06T10:43:00.227Z</time></trkpt><trkpt lat="44.6938106" lon="7.9094486"><ele>201.33333333333331</ele><time>2026-04-06T10:43:01.227Z</time></trkpt><trkpt lat="44.6939091" lon="7.9096198"><ele>202.0</ele><time>2026-04-06T10:43:02.227Z</time></trkpt><trkpt lat="44.6940011" lon="7.9097782"><ele>202.0</ele><time>2026-04-06T10:43:03.227Z</time></trkpt><trkpt lat="44.6940857" lon="7.9099335"><ele>202.0</ele><time>2026-04-06T10:43:04.227Z</time></trkpt><trkpt lat="44.6941646" lon="7.9100727"><ele>202.0</ele><time>2026-04-06T10:43:05.227Z</time></trkpt><trkpt lat="44.694236" lon="7.9101943"><ele>202.0</ele><time>2026-04-06T10:43:06.227Z</time></trkpt><trkpt lat="44.6942987" lon="7.910292"><ele>201.83333333333331</ele><time>2026-04-06T10:43:07.227Z</time></trkpt><trkpt lat="44.694347" lon="7.9103749"><ele>201.66666666666666</ele><time>2026-04-06T10:43:08.227Z</time></trkpt><trkpt lat="44.69439" lon="7.9104512"><ele>201.5</ele><time>2026-04-06T10:43:09.227Z</time></trkpt><trkpt lat="44.6944343" lon="7.9105429"><ele>201.33333333333331</ele><time>2026-04-06T10:43:10.227Z</time></trkpt><trkpt lat="44.6944752" lon="7.9106518"><ele>201.16666666666666</ele><time>2026-04-06T10:43:11.227Z</time></trkpt><trkpt lat="44.6945063" lon="7.9107722"><ele>201.0</ele><time>2026-04-06T10:43:12.227Z</time></trkpt><trkpt lat="44.6945226" lon="7.910908"><ele>201.0</ele><time>2026-04-06T10:43:13.227Z</time></trkpt><trkpt lat="44.6945102" lon="7.9110662"><ele>201.0</ele><time>2026-04-06T10:43:14.227Z</time></trkpt><trkpt lat="44.6944922" lon="7.9112337"><ele>201.0</ele><time>2026-04-06T10:43:15.227Z</time></trkpt><trkpt lat="44.6944782" lon="7.9113954"><ele>201.0</ele><time>2026-04-06T10:43:16.227Z</time></trkpt><trkpt lat="44.6944709" lon="7.9115478"><ele>201.0</ele><time>2026-04-06T10:43:17.227Z</time></trkpt><trkpt lat="44.6944583" lon="7.9116931"><ele>201.0</ele><time>2026-04-06T10:43:18.227Z</time></trkpt><trkpt lat="44.6944451" lon="7.9118444"><ele>201.0</ele><time>2026-04-06T10:43:19.227Z</time></trkpt><trkpt lat="44.6944295" lon="7.9120084"><ele>201.0</ele><time>2026-04-06T10:43:20.227Z</time></trkpt><trkpt lat="44.6944091" lon="7.9121711"><ele>201.0</ele><time>2026-04-06T10:43:21.227Z</time></trkpt><trkpt lat="44.6943884" lon="7.9123342"><ele>200.75</ele><time>2026-04-06T10:43:22.228Z</time></trkpt><trkpt lat="44.6943692" lon="7.912499"><ele>200.5</ele><time>2026-04-06T10:43:23.227Z</time></trkpt><trkpt lat="44.6943444" lon="7.9126681"><ele>200.25</ele><time>2026-04-06T10:43:24.227Z</time></trkpt><trkpt lat="44.6943224" lon="7.9128371"><ele>200.0</ele><time>2026-04-06T10:43:25.227Z</time></trkpt><trkpt lat="44.6942998" lon="7.9130056"><ele>200.0</ele><time>2026-04-06T10:43:26.227Z</time></trkpt><trkpt lat="44.6942796" lon="7.91317"><ele>200.0</ele><time>2026-04-06T10:43:27.227Z</time></trkpt><trkpt lat="44.6942602" lon="7.9133254"><ele>200.0</ele><time>2026-04-06T10:43:28.227Z</time></trkpt><trkpt lat="44.6942419" lon="7.9134676"><ele>200.0</ele><time>2026-04-06T10:43:29.227Z</time></trkpt><trkpt lat="44.6942235" lon="7.9135966"><ele>200.0</ele><time>2026-04-06T10:43:30.227Z</time></trkpt><trkpt lat="44.6942112" lon="7.9137164"><ele>199.8</ele><time>2026-04-06T10:43:31.227Z</time></trkpt><trkpt lat="44.6941974" lon="7.9138379"><ele>199.6</ele><time>2026-04-06T10:43:32.227Z</time></trkpt><trkpt lat="44.6941835" lon="7.9139681"><ele>199.39999999999998</ele><time>2026-04-06T10:43:33.227Z</time></trkpt><trkpt lat="44.6941642" lon="7.9141064"><ele>199.2</ele><time>2026-04-06T10:43:34.227Z</time></trkpt><trkpt lat="44.6941422" lon="7.9142536"><ele>199.0</ele><time>2026-04-06T10:43:35.227Z</time></trkpt><trkpt lat="44.6941257" lon="7.9143911"><ele>198.99999999999997</ele><time>2026-04-06T10:43:36.227Z</time></trkpt><trkpt lat="44.6941153" lon="7.9145124"><ele>199.0</ele><time>2026-04-06T10:43:37.227Z</time></trkpt><trkpt lat="44.6940989" lon="7.9146307"><ele>199.0</ele><time>2026-04-06T10:43:38.227Z</time></trkpt><trkpt lat="44.6940866" lon="7.9147408"><ele>199.0</ele><time>2026-04-06T10:43:39.227Z</time></trkpt><trkpt lat="44.694078" lon="7.9148487"><ele>198.99999999999997</ele><time>2026-04-06T10:43:40.227Z</time></trkpt><trkpt lat="44.6940645" lon="7.9149492"><ele>199.0</ele><time>2026-04-06T10:43:41.227Z</time></trkpt><trkpt lat="44.6940477" lon="7.9150524"><ele>198.99999999999997</ele><time>2026-04-06T10:43:42.227Z</time></trkpt><trkpt lat="44.694034" lon="7.9151704"><ele>199.0</ele><time>2026-04-06T10:43:43.227Z</time></trkpt><trkpt lat="44.694026" lon="7.9152883"><ele>199.0</ele><time>2026-04-06T10:43:44.227Z</time></trkpt><trkpt lat="44.6940136" lon="7.9154073"><ele>199.0</ele><time>2026-04-06T10:43:45.227Z</time></trkpt><trkpt lat="44.69399" lon="7.9155209"><ele>198.99999999999997</ele><time>2026-04-06T10:43:46.227Z</time></trkpt><trkpt lat="44.6939747" lon="7.9156276"><ele>199.0</ele><time>2026-04-06T10:43:47.227Z</time></trkpt><trkpt lat="44.6939602" lon="7.9157356"><ele>198.99999999999997</ele><time>2026-04-06T10:43:48.227Z</time></trkpt><trkpt lat="44.6939462" lon="7.9158409"><ele>199.0</ele><time>2026-04-06T10:43:49.227Z</time></trkpt><trkpt lat="44.6939347" lon="7.9159515"><ele>199.0</ele><time>2026-04-06T10:43:50.227Z</time></trkpt><trkpt lat="44.6939232" lon="7.91606"><ele>199.0</ele><time>2026-04-06T10:43:51.227Z</time></trkpt><trkpt lat="44.6939093" lon="7.9161639"><ele>199.0</ele><time>2026-04-06T10:43:52.227Z</time></trkpt><trkpt lat="44.6938965" lon="7.916257"><ele>198.99999999999997</ele><time>2026-04-06T10:43:53.227Z</time></trkpt><trkpt lat="44.6938859" lon="7.9163521"><ele>199.0</ele><time>2026-04-06T10:43:54.227Z</time></trkpt><trkpt lat="44.6938721" lon="7.916461"><ele>199.16666666666666</ele><time>2026-04-06T10:43:55.228Z</time></trkpt><trkpt lat="44.6938564" lon="7.9165795"><ele>199.33333333333331</ele><time>2026-04-06T10:43:56.227Z</time></trkpt><trkpt lat="44.6938419" lon="7.9167"><ele>199.5</ele><time>2026-04-06T10:43:57.227Z</time></trkpt><trkpt lat="44.6938261" lon="7.9168117"><ele>199.66666666666669</ele><time>2026-04-06T10:43:58.227Z</time></trkpt><trkpt lat="44.6938057" lon="7.9169162"><ele>199.83333333333334</ele><time>2026-04-06T10:43:59.227Z</time></trkpt><trkpt lat="44.6937929" lon="7.9170095"><ele>200.0</ele><time>2026-04-06T10:44:00.227Z</time></trkpt><trkpt lat="44.6937636" lon="7.9171041"><ele>200.2</ele><time>2026-04-06T10:44:02.227Z</time></trkpt><trkpt lat="44.6936918" lon="7.9170956"><ele>200.4</ele><time>2026-04-06T10:44:04.227Z</time></trkpt><trkpt lat="44.6936036" lon="7.9171012"><ele>200.60000000000002</ele><time>2026-04-06T10:44:06.227Z</time></trkpt><trkpt lat="44.6934906" lon="7.9171399"><ele>200.8</ele><time>2026-04-06T10:44:08.227Z</time></trkpt><trkpt lat="44.6934298" lon="7.9171694"><ele>201.0</ele><time>2026-04-06T10:44:09.227Z</time></trkpt><trkpt lat="44.6933091" lon="7.9171931"><ele>200.33333333333334</ele><time>2026-04-06T10:44:11.227Z</time></trkpt><trkpt lat="44.6932373" lon="7.9172086"><ele>199.66666666666669</ele><time>2026-04-06T10:44:12.227Z</time></trkpt><trkpt lat="44.6931352" lon="7.9172404"><ele>199.0</ele><time>2026-04-06T10:44:14.226Z</time></trkpt><trkpt lat="44.693047" lon="7.9172617"><ele>198.33333333333334</ele><time>2026-04-06T10:44:16.226Z</time></trkpt><trkpt lat="44.6929724" lon="7.9172873"><ele>197.66666666666669</ele><time>2026-04-06T10:44:18.226Z</time></trkpt><trkpt lat="44.6929016" lon="7.9173001"><ele>197.0</ele><time>2026-04-06T10:44:21.226Z</time></trkpt><trkpt lat="44.692848" lon="7.9173916"><ele>197.0</ele><time>2026-04-06T10:45:19.226Z</time></trkpt><trkpt lat="44.6928266" lon="7.9175831"><ele>197.0</ele><time>2026-04-06T10:45:21.226Z</time></trkpt><trkpt lat="44.6928167" lon="7.9177045"><ele>197.0</ele><time>2026-04-06T10:45:22.226Z</time></trkpt><trkpt lat="44.6928079" lon="7.9178339"><ele>197.0</ele><time>2026-04-06T10:45:23.226Z</time></trkpt><trkpt lat="44.6927994" lon="7.917952"><ele>197.0</ele><time>2026-04-06T10:45:24.226Z</time></trkpt><trkpt lat="44.6927895" lon="7.9180676"><ele>197.0</ele><time>2026-04-06T10:45:25.226Z</time></trkpt><trkpt lat="44.6927819" lon="7.9181869"><ele>197.0</ele><time>2026-04-06T10:45:26.226Z</time></trkpt><trkpt lat="44.6927686" lon="7.918317"><ele>197.0</ele><time>2026-04-06T10:45:27.226Z</time></trkpt><trkpt lat="44.692763" lon="7.9184739"><ele>197.0</ele><time>2026-04-06T10:45:28.226Z</time></trkpt><trkpt lat="44.6927494" lon="7.9186531"><ele>197.0</ele><time>2026-04-06T10:45:29.226Z</time></trkpt><trkpt lat="44.6927305" lon="7.9188572"><ele>196.25</ele><time>2026-04-06T10:45:30.226Z</time></trkpt><trkpt lat="44.6927012" lon="7.9190625"><ele>195.5</ele><time>2026-04-06T10:45:31.226Z</time></trkpt><trkpt lat="44.6926781" lon="7.9192396"><ele>194.75</ele><time>2026-04-06T10:45:32.226Z</time></trkpt><trkpt lat="44.6926521" lon="7.9194017"><ele>194.0</ele><time>2026-04-06T10:45:33.226Z</time></trkpt><trkpt lat="44.6926244" lon="7.9195483"><ele>194.0</ele><time>2026-04-06T10:45:34.226Z</time></trkpt><trkpt lat="44.6926061" lon="7.9196628"><ele>194.0</ele><time>2026-04-06T10:45:35.226Z</time></trkpt><trkpt lat="44.6925602" lon="7.9197928"><ele>194.0</ele><time>2026-04-06T10:45:37.226Z</time></trkpt><trkpt lat="44.6924763" lon="7.9198359"><ele>194.0</ele><time>2026-04-06T10:45:39.226Z</time></trkpt><trkpt lat="44.6923882" lon="7.919856"><ele>194.0</ele><time>2026-04-06T10:45:40.226Z</time></trkpt><trkpt lat="44.6923028" lon="7.9198624"><ele>194.0</ele><time>2026-04-06T10:45:41.226Z</time></trkpt><trkpt lat="44.6919589" lon="7.9198818"><ele>194.0</ele><time>2026-04-06T10:45:44.226Z</time></trkpt><trkpt lat="44.6918479" lon="7.9198906"><ele>193.2</ele><time>2026-04-06T10:45:45.226Z</time></trkpt><trkpt lat="44.6917426" lon="7.9198985"><ele>192.39999999999998</ele><time>2026-04-06T10:45:46.226Z</time></trkpt><trkpt lat="44.6916418" lon="7.9199132"><ele>191.6</ele><time>2026-04-06T10:45:47.226Z</time></trkpt><trkpt lat="44.6915504" lon="7.9199261"><ele>190.8</ele><time>2026-04-06T10:45:48.226Z</time></trkpt><trkpt lat="44.6914695" lon="7.9199316"><ele>190.0</ele><time>2026-04-06T10:45:49.226Z</time></trkpt><trkpt lat="44.6913981" lon="7.9199361"><ele>190.0</ele><time>2026-04-06T10:45:50.226Z</time></trkpt><trkpt lat="44.6913345" lon="7.9199332"><ele>190.0</ele><time>2026-04-06T10:45:51.226Z</time></trkpt><trkpt lat="44.6912085" lon="7.9199575"><ele>190.0</ele><time>2026-04-06T10:45:53.226Z</time></trkpt><trkpt lat="44.6911114" lon="7.9200103"><ele>190.0</ele><time>2026-04-06T10:45:55.226Z</time></trkpt><trkpt lat="44.6910197" lon="7.9199813"><ele>190.0</ele><time>2026-04-06T10:45:57.226Z</time></trkpt><trkpt lat="44.6909535" lon="7.9200133"><ele>190.0</ele><time>2026-04-06T10:46:00.226Z</time></trkpt><trkpt lat="44.6910572" lon="7.9200226"><ele>190.0</ele><time>2026-04-06T10:46:03.226Z</time></trkpt><trkpt lat="44.6911564" lon="7.9200274"><ele>190.0</ele><time>2026-04-06T10:46:05.226Z</time></trkpt><trkpt lat="44.6912414" lon="7.9200568"><ele>190.0</ele><time>2026-04-06T10:46:07.226Z</time></trkpt><trkpt lat="44.6913557" lon="7.9200186"><ele>190.0</ele><time>2026-04-06T10:46:09.226Z</time></trkpt><trkpt lat="44.6916712" lon="7.9199555"><ele>190.0</ele><time>2026-04-06T10:46:12.226Z</time></trkpt><trkpt lat="44.6918008" lon="7.9199385"><ele>190.0</ele><time>2026-04-06T10:46:13.226Z</time></trkpt><trkpt lat="44.6919204" lon="7.919916"><ele>190.0</ele><time>2026-04-06T10:46:14.226Z</time></trkpt><trkpt lat="44.692033" lon="7.9199082"><ele>190.0</ele><time>2026-04-06T10:46:15.226Z</time></trkpt><trkpt lat="44.6921281" lon="7.919905"><ele>190.66666666666669</ele><time>2026-04-06T10:46:16.226Z</time></trkpt><trkpt lat="44.6922223" lon="7.9199062"><ele>191.33333333333334</ele><time>2026-04-06T10:46:17.226Z</time></trkpt><trkpt lat="44.6923108" lon="7.9198918"><ele>192.0</ele><time>2026-04-06T10:46:18.226Z</time></trkpt><trkpt lat="44.692391" lon="7.9198814"><ele>192.66666666666669</ele><time>2026-04-06T10:46:19.227Z</time></trkpt><trkpt lat="44.6924675" lon="7.919868"><ele>193.33333333333334</ele><time>2026-04-06T10:46:20.226Z</time></trkpt><trkpt lat="44.6925401" lon="7.9198457"><ele>194.0</ele><time>2026-04-06T10:46:21.226Z</time></trkpt><trkpt lat="44.6925989" lon="7.9197943"><ele>194.0</ele><time>2026-04-06T10:46:22.226Z</time></trkpt><trkpt lat="44.6926284" lon="7.919689"><ele>194.0</ele><time>2026-04-06T10:46:23.226Z</time></trkpt><trkpt lat="44.6926469" lon="7.9195419"><ele>194.0</ele><time>2026-04-06T10:46:24.226Z</time></trkpt><trkpt lat="44.692679" lon="7.9193769"><ele>194.0</ele><time>2026-04-06T10:46:25.226Z</time></trkpt><trkpt lat="44.6927121" lon="7.91919"><ele>194.0</ele><time>2026-04-06T10:46:26.226Z</time></trkpt><trkpt lat="44.6927356" lon="7.9189688"><ele>195.0</ele><time>2026-04-06T10:46:27.226Z</time></trkpt><trkpt lat="44.6927575" lon="7.9187252"><ele>196.0</ele><time>2026-04-06T10:46:28.226Z</time></trkpt><trkpt lat="44.6927791" lon="7.9184566"><ele>197.0</ele><time>2026-04-06T10:46:29.226Z</time></trkpt><trkpt lat="44.6927997" lon="7.9181753"><ele>197.0</ele><time>2026-04-06T10:46:30.226Z</time></trkpt><trkpt lat="44.6928208" lon="7.9178902"><ele>197.0</ele><time>2026-04-06T10:46:31.226Z</time></trkpt><trkpt lat="44.6928444" lon="7.9176111"><ele>197.0</ele><time>2026-04-06T10:46:32.226Z</time></trkpt><trkpt lat="44.6928751" lon="7.9173371"><ele>197.0</ele><time>2026-04-06T10:46:33.226Z</time></trkpt><trkpt lat="44.6929049" lon="7.9170762"><ele>197.0</ele><time>2026-04-06T10:46:34.226Z</time></trkpt><trkpt lat="44.6929373" lon="7.9168327"><ele>197.0</ele><time>2026-04-06T10:46:35.226Z</time></trkpt><trkpt lat="44.6929712" lon="7.9165898"><ele>197.0</ele><time>2026-04-06T10:46:36.226Z</time></trkpt><trkpt lat="44.692995" lon="7.9163657"><ele>197.0</ele><time>2026-04-06T10:46:37.226Z</time></trkpt><trkpt lat="44.6930213" lon="7.9161476"><ele>197.0</ele><time>2026-04-06T10:46:38.226Z</time></trkpt><trkpt lat="44.6930532" lon="7.9159361"><ele>197.25</ele><time>2026-04-06T10:46:39.226Z</time></trkpt><trkpt lat="44.6930806" lon="7.9157352"><ele>197.5</ele><time>2026-04-06T10:46:40.226Z</time></trkpt><trkpt lat="44.6930976" lon="7.9155407"><ele>197.75</ele><time>2026-04-06T10:46:41.226Z</time></trkpt><trkpt lat="44.6931047" lon="7.9153524"><ele>198.0</ele><time>2026-04-06T10:46:42.226Z</time></trkpt><trkpt lat="44.6930911" lon="7.9151617"><ele>198.25</ele><time>2026-04-06T10:46:43.226Z</time></trkpt><trkpt lat="44.6930657" lon="7.9149793"><ele>198.5</ele><time>2026-04-06T10:46:44.226Z</time></trkpt><trkpt lat="44.6930483" lon="7.9148013"><ele>198.75</ele><time>2026-04-06T10:46:45.226Z</time></trkpt><trkpt lat="44.6930234" lon="7.9146137"><ele>199.0</ele><time>2026-04-06T10:46:46.226Z</time></trkpt><trkpt lat="44.6929926" lon="7.9144197"><ele>199.0</ele><time>2026-04-06T10:46:47.226Z</time></trkpt><trkpt lat="44.6929548" lon="7.914212"><ele>199.0</ele><time>2026-04-06T10:46:48.226Z</time></trkpt><trkpt lat="44.6929138" lon="7.9139865"><ele>199.0</ele><time>2026-04-06T10:46:49.226Z</time></trkpt><trkpt lat="44.6928705" lon="7.9137543"><ele>199.0</ele><time>2026-04-06T10:46:50.226Z</time></trkpt><trkpt lat="44.6928413" lon="7.91353"><ele>199.0</ele><time>2026-04-06T10:46:51.226Z</time></trkpt><trkpt lat="44.6928082" lon="7.9133016"><ele>199.0</ele><time>2026-04-06T10:46:52.226Z</time></trkpt><trkpt lat="44.69277" lon="7.9130903"><ele>198.5</ele><time>2026-04-06T10:46:53.226Z</time></trkpt><trkpt lat="44.6927421" lon="7.9128964"><ele>198.0</ele><time>2026-04-06T10:46:54.226Z</time></trkpt><trkpt lat="44.6927167" lon="7.9127191"><ele>197.5</ele><time>2026-04-06T10:46:55.226Z</time></trkpt><trkpt lat="44.6926939" lon="7.9125572"><ele>197.0</ele><time>2026-04-06T10:46:56.226Z</time></trkpt><trkpt lat="44.6926785" lon="7.9124145"><ele>197.00000000000003</ele><time>2026-04-06T10:46:57.226Z</time></trkpt><trkpt lat="44.6926683" lon="7.9122949"><ele>197.0</ele><time>2026-04-06T10:46:58.226Z</time></trkpt><trkpt lat="44.6926641" lon="7.9121965"><ele>197.0</ele><time>2026-04-06T10:46:59.226Z</time></trkpt><trkpt lat="44.6926289" lon="7.9120631"><ele>197.0</ele><time>2026-04-06T10:47:01.226Z</time></trkpt><trkpt lat="44.6925178" lon="7.9120874"><ele>197.00000000000003</ele><time>2026-04-06T10:47:03.226Z</time></trkpt><trkpt lat="44.6924442" lon="7.912126"><ele>197.0</ele><time>2026-04-06T10:47:04.226Z</time></trkpt><trkpt lat="44.692357" lon="7.9121729"><ele>197.0</ele><time>2026-04-06T10:47:05.226Z</time></trkpt><trkpt lat="44.6922597" lon="7.9122279"><ele>197.0</ele><time>2026-04-06T10:47:06.226Z</time></trkpt><trkpt lat="44.6921577" lon="7.9122866"><ele>197.0</ele><time>2026-04-06T10:47:07.226Z</time></trkpt><trkpt lat="44.6920563" lon="7.9123376"><ele>197.0</ele><time>2026-04-06T10:47:08.226Z</time></trkpt><trkpt lat="44.6919614" lon="7.9123818"><ele>197.0</ele><time>2026-04-06T10:47:09.226Z</time></trkpt><trkpt lat="44.6918674" lon="7.9124063"><ele>196.39999999999998</ele><time>2026-04-06T10:47:10.226Z</time></trkpt><trkpt lat="44.6917636" lon="7.9124178"><ele>195.79999999999998</ele><time>2026-04-06T10:47:11.226Z</time></trkpt><trkpt lat="44.6916488" lon="7.9124316"><ele>195.2</ele><time>2026-04-06T10:47:12.226Z</time></trkpt><trkpt lat="44.6915403" lon="7.9124324"><ele>194.6</ele><time>2026-04-06T10:47:13.226Z</time></trkpt><trkpt lat="44.6914303" lon="7.9124307"><ele>194.0</ele><time>2026-04-06T10:47:14.226Z</time></trkpt><trkpt lat="44.6913226" lon="7.9124376"><ele>194.0</ele><time>2026-04-06T10:47:15.227Z</time></trkpt><trkpt lat="44.6912239" lon="7.9124447"><ele>194.0</ele><time>2026-04-06T10:47:16.226Z</time></trkpt><trkpt lat="44.6911291" lon="7.9124531"><ele>194.0</ele><time>2026-04-06T10:47:17.226Z</time></trkpt><trkpt lat="44.691035" lon="7.912445"><ele>194.0</ele><time>2026-04-06T10:47:18.226Z</time></trkpt><trkpt lat="44.6909408" lon="7.9124317"><ele>194.0</ele><time>2026-04-06T10:47:19.227Z</time></trkpt><trkpt lat="44.6908445" lon="7.9124192"><ele>194.2</ele><time>2026-04-06T10:47:20.226Z</time></trkpt><trkpt lat="44.6907473" lon="7.9124077"><ele>194.39999999999998</ele><time>2026-04-06T10:47:21.226Z</time></trkpt><trkpt lat="44.6906448" lon="7.9124121"><ele>194.6</ele><time>2026-04-06T10:47:22.226Z</time></trkpt><trkpt lat="44.6905414" lon="7.9124403"><ele>194.8</ele><time>2026-04-06T10:47:23.226Z</time></trkpt><trkpt lat="44.6904329" lon="7.9124824"><ele>195.0</ele><time>2026-04-06T10:47:24.226Z</time></trkpt><trkpt lat="44.690322" lon="7.9125316"><ele>194.6</ele><time>2026-04-06T10:47:25.226Z</time></trkpt><trkpt lat="44.6902156" lon="7.9125804"><ele>194.2</ele><time>2026-04-06T10:47:26.226Z</time></trkpt><trkpt lat="44.6901204" lon="7.9126287"><ele>193.8</ele><time>2026-04-06T10:47:27.226Z</time></trkpt><trkpt lat="44.690035" lon="7.9126623"><ele>193.4</ele><time>2026-04-06T10:47:28.226Z</time></trkpt><trkpt lat="44.6899493" lon="7.9126874"><ele>193.0</ele><time>2026-04-06T10:47:29.226Z</time></trkpt><trkpt lat="44.6898444" lon="7.9127007"><ele>193.0</ele><time>2026-04-06T10:47:30.226Z</time></trkpt><trkpt lat="44.6897351" lon="7.9127173"><ele>193.0</ele><time>2026-04-06T10:47:31.226Z</time></trkpt><trkpt lat="44.6896112" lon="7.9127729"><ele>193.0</ele><time>2026-04-06T10:47:32.226Z</time></trkpt><trkpt lat="44.689467" lon="7.9128328"><ele>193.0</ele><time>2026-04-06T10:47:33.226Z</time></trkpt><trkpt lat="44.6893235" lon="7.9128867"><ele>192.75</ele><time>2026-04-06T10:47:34.226Z</time></trkpt><trkpt lat="44.6891874" lon="7.9129385"><ele>192.5</ele><time>2026-04-06T10:47:35.226Z</time></trkpt><trkpt lat="44.6890639" lon="7.9129872"><ele>192.25</ele><time>2026-04-06T10:47:36.226Z</time></trkpt><trkpt lat="44.6889471" lon="7.9130232"><ele>192.0</ele><time>2026-04-06T10:47:37.226Z</time></trkpt><trkpt lat="44.6888359" lon="7.913055"><ele>192.0</ele><time>2026-04-06T10:47:38.226Z</time></trkpt><trkpt lat="44.6887263" lon="7.9130777"><ele>192.0</ele><time>2026-04-06T10:47:39.227Z</time></trkpt><trkpt lat="44.6886167" lon="7.913096"><ele>192.0</ele><time>2026-04-06T10:47:40.226Z</time></trkpt><trkpt lat="44.6885011" lon="7.9131118"><ele>192.0</ele><time>2026-04-06T10:47:41.226Z</time></trkpt><trkpt lat="44.6883805" lon="7.9131206"><ele>191.75</ele><time>2026-04-06T10:47:42.226Z</time></trkpt><trkpt lat="44.6882595" lon="7.9131337"><ele>191.5</ele><time>2026-04-06T10:47:43.226Z</time></trkpt><trkpt lat="44.6881334" lon="7.9131471"><ele>191.25</ele><time>2026-04-06T10:47:44.226Z</time></trkpt><trkpt lat="44.6880068" lon="7.9131648"><ele>191.0</ele><time>2026-04-06T10:47:45.226Z</time></trkpt><trkpt lat="44.687887" lon="7.9131863"><ele>191.0</ele><time>2026-04-06T10:47:46.226Z</time></trkpt><trkpt lat="44.687776" lon="7.9132002"><ele>191.0</ele><time>2026-04-06T10:47:47.226Z</time></trkpt><trkpt lat="44.6876723" lon="7.9132105"><ele>191.0</ele><time>2026-04-06T10:47:48.226Z</time></trkpt><trkpt lat="44.6875763" lon="7.9132426"><ele>191.0</ele><time>2026-04-06T10:47:49.226Z</time></trkpt><trkpt lat="44.6874905" lon="7.9132849"><ele>191.0</ele><time>2026-04-06T10:47:50.226Z</time></trkpt><trkpt lat="44.687408" lon="7.913319"><ele>190.5</ele><time>2026-04-06T10:47:51.226Z</time></trkpt><trkpt lat="44.6873337" lon="7.9133372"><ele>190.0</ele><time>2026-04-06T10:47:52.226Z</time></trkpt><trkpt lat="44.6872661" lon="7.9133477"><ele>189.5</ele><time>2026-04-06T10:47:53.226Z</time></trkpt><trkpt lat="44.6871999" lon="7.9133468"><ele>189.0</ele><time>2026-04-06T10:47:54.226Z</time></trkpt><trkpt lat="44.6871378" lon="7.9133064"><ele>188.5</ele><time>2026-04-06T10:47:55.226Z</time></trkpt><trkpt lat="44.6870692" lon="7.9132301"><ele>188.0</ele><time>2026-04-06T10:47:56.226Z</time></trkpt><trkpt lat="44.6869877" lon="7.9131478"><ele>188.25</ele><time>2026-04-06T10:47:57.226Z</time></trkpt><trkpt lat="44.6869062" lon="7.9130478"><ele>188.5</ele><time>2026-04-06T10:47:58.226Z</time></trkpt><trkpt lat="44.68682" lon="7.9129339"><ele>188.75</ele><time>2026-04-06T10:47:59.226Z</time></trkpt><trkpt lat="44.6867205" lon="7.9128159"><ele>189.0</ele><time>2026-04-06T10:48:00.226Z</time></trkpt><trkpt lat="44.6866165" lon="7.9126892"><ele>189.25</ele><time>2026-04-06T10:48:01.226Z</time></trkpt><trkpt lat="44.6865151" lon="7.912555"><ele>189.5</ele><time>2026-04-06T10:48:02.226Z</time></trkpt><trkpt lat="44.6864144" lon="7.9124314"><ele>189.75</ele><time>2026-04-06T10:48:03.226Z</time></trkpt><trkpt lat="44.6863084" lon="7.912308"><ele>190.0</ele><time>2026-04-06T10:48:04.226Z</time></trkpt><trkpt lat="44.6862078" lon="7.9121926"><ele>190.0</ele><time>2026-04-06T10:48:05.226Z</time></trkpt><trkpt lat="44.6861013" lon="7.9120742"><ele>190.0</ele><time>2026-04-06T10:48:06.226Z</time></trkpt><trkpt lat="44.6860084" lon="7.911965"><ele>190.0</ele><time>2026-04-06T10:48:07.226Z</time></trkpt><trkpt lat="44.6859228" lon="7.9118621"><ele>190.0</ele><time>2026-04-06T10:48:08.226Z</time></trkpt><trkpt lat="44.6858503" lon="7.9117619"><ele>190.33333333333334</ele><time>2026-04-06T10:48:09.226Z</time></trkpt><trkpt lat="44.6857791" lon="7.9116788"><ele>190.66666666666669</ele><time>2026-04-06T10:48:10.226Z</time></trkpt><trkpt lat="44.6857093" lon="7.9116036"><ele>191.0</ele><time>2026-04-06T10:48:11.226Z</time></trkpt><trkpt lat="44.6856545" lon="7.9115427"><ele>191.33333333333334</ele><time>2026-04-06T10:48:12.226Z</time></trkpt><trkpt lat="44.6855817" lon="7.9114506"><ele>191.66666666666666</ele><time>2026-04-06T10:48:14.226Z</time></trkpt><trkpt lat="44.6854996" lon="7.9114658"><ele>192.0</ele><time>2026-04-06T10:48:30.226Z</time></trkpt><trkpt lat="44.6855271" lon="7.9116103"><ele>192.0</ele><time>2026-04-06T10:48:32.226Z</time></trkpt><trkpt lat="44.68557" lon="7.9117375"><ele>192.0</ele><time>2026-04-06T10:48:33.226Z</time></trkpt><trkpt lat="44.6856039" lon="7.9118708"><ele>192.0</ele><time>2026-04-06T10:48:34.227Z</time></trkpt><trkpt lat="44.6856156" lon="7.912034"><ele>192.0</ele><time>2026-04-06T10:48:35.226Z</time></trkpt><trkpt lat="44.6855916" lon="7.9121959"><ele>192.0</ele><time>2026-04-06T10:48:36.226Z</time></trkpt><trkpt lat="44.6855425" lon="7.9123544"><ele>191.5</ele><time>2026-04-06T10:48:37.226Z</time></trkpt><trkpt lat="44.6854632" lon="7.9124827"><ele>191.0</ele><time>2026-04-06T10:48:38.226Z</time></trkpt><trkpt lat="44.6853516" lon="7.9125946"><ele>190.5</ele><time>2026-04-06T10:48:39.226Z</time></trkpt><trkpt lat="44.6852162" lon="7.9127018"><ele>190.0</ele><time>2026-04-06T10:48:40.226Z</time></trkpt><trkpt lat="44.685074" lon="7.9128035"><ele>188.66666666666669</ele><time>2026-04-06T10:48:41.227Z</time></trkpt><trkpt lat="44.6849216" lon="7.9129183"><ele>187.33333333333334</ele><time>2026-04-06T10:48:42.227Z</time></trkpt><trkpt lat="44.6847671" lon="7.9130336"><ele>186.0</ele><time>2026-04-06T10:48:43.226Z</time></trkpt><trkpt lat="44.6846129" lon="7.9131556"><ele>186.0</ele><time>2026-04-06T10:48:44.226Z</time></trkpt><trkpt lat="44.6844553" lon="7.9132737"><ele>186.0</ele><time>2026-04-06T10:48:45.226Z</time></trkpt><trkpt lat="44.6843012" lon="7.9133887"><ele>186.0</ele><time>2026-04-06T10:48:46.226Z</time></trkpt><trkpt lat="44.6841488" lon="7.9135104"><ele>185.66666666666666</ele><time>2026-04-06T10:48:47.226Z</time></trkpt><trkpt lat="44.6839983" lon="7.9136298"><ele>185.33333333333331</ele><time>2026-04-06T10:48:48.227Z</time></trkpt><trkpt lat="44.6838642" lon="7.9137415"><ele>185.0</ele><time>2026-04-06T10:48:49.226Z</time></trkpt><trkpt lat="44.6837329" lon="7.9138383"><ele>185.0</ele><time>2026-04-06T10:48:50.226Z</time></trkpt><trkpt lat="44.6835949" lon="7.9139468"><ele>185.0</ele><time>2026-04-06T10:48:51.226Z</time></trkpt><trkpt lat="44.683455" lon="7.9140492"><ele>185.0</ele><time>2026-04-06T10:48:52.226Z</time></trkpt><trkpt lat="44.6833143" lon="7.9141578"><ele>184.66666666666666</ele><time>2026-04-06T10:48:53.226Z</time></trkpt><trkpt lat="44.683172" lon="7.914276"><ele>184.33333333333334</ele><time>2026-04-06T10:48:54.226Z</time></trkpt><trkpt lat="44.6830287" lon="7.9144051"><ele>184.0</ele><time>2026-04-06T10:48:55.226Z</time></trkpt><trkpt lat="44.6828893" lon="7.9145521"><ele>184.33333333333334</ele><time>2026-04-06T10:48:56.226Z</time></trkpt><trkpt lat="44.6827458" lon="7.9147137"><ele>184.66666666666666</ele><time>2026-04-06T10:48:57.226Z</time></trkpt><trkpt lat="44.6826034" lon="7.9148771"><ele>185.0</ele><time>2026-04-06T10:48:58.226Z</time></trkpt><trkpt lat="44.6824706" lon="7.9150376"><ele>184.66666666666666</ele><time>2026-04-06T10:48:59.226Z</time></trkpt><trkpt lat="44.6823369" lon="7.9151926"><ele>184.33333333333334</ele><time>2026-04-06T10:49:00.226Z</time></trkpt><trkpt lat="44.6822031" lon="7.9153495"><ele>184.0</ele><time>2026-04-06T10:49:01.226Z</time></trkpt><trkpt lat="44.6820742" lon="7.9155088"><ele>184.0</ele><time>2026-04-06T10:49:02.226Z</time></trkpt><trkpt lat="44.6819507" lon="7.9156559"><ele>184.0</ele><time>2026-04-06T10:49:03.226Z</time></trkpt><trkpt lat="44.6818318" lon="7.9158028"><ele>184.0</ele><time>2026-04-06T10:49:04.226Z</time></trkpt><trkpt lat="44.6817129" lon="7.9159475"><ele>184.0</ele><time>2026-04-06T10:49:05.226Z</time></trkpt><trkpt lat="44.6815943" lon="7.9160894"><ele>184.0</ele><time>2026-04-06T10:49:06.226Z</time></trkpt><trkpt lat="44.6814788" lon="7.9162348"><ele>184.0</ele><time>2026-04-06T10:49:07.226Z</time></trkpt><trkpt lat="44.6813609" lon="7.9163739"><ele>184.0</ele><time>2026-04-06T10:49:08.226Z</time></trkpt><trkpt lat="44.6812427" lon="7.9165174"><ele>184.0</ele><time>2026-04-06T10:49:09.226Z</time></trkpt><trkpt lat="44.6811228" lon="7.9166578"><ele>184.0</ele><time>2026-04-06T10:49:10.226Z</time></trkpt><trkpt lat="44.6810077" lon="7.9167966"><ele>184.0</ele><time>2026-04-06T10:49:11.226Z</time></trkpt><trkpt lat="44.6808981" lon="7.9169298"><ele>184.0</ele><time>2026-04-06T10:49:12.226Z</time></trkpt><trkpt lat="44.680787" lon="7.9170681"><ele>184.0</ele><time>2026-04-06T10:49:13.226Z</time></trkpt><trkpt lat="44.680674" lon="7.9172053"><ele>184.0</ele><time>2026-04-06T10:49:14.226Z</time></trkpt><trkpt lat="44.680556" lon="7.9173485"><ele>184.0</ele><time>2026-04-06T10:49:15.226Z</time></trkpt><trkpt lat="44.6804355" lon="7.9174931"><ele>184.0</ele><time>2026-04-06T10:49:16.226Z</time></trkpt><trkpt lat="44.6803195" lon="7.9176297"><ele>184.0</ele><time>2026-04-06T10:49:17.226Z</time></trkpt><trkpt lat="44.6802136" lon="7.9177608"><ele>184.75</ele><time>2026-04-06T10:49:18.226Z</time></trkpt><trkpt lat="44.6801115" lon="7.9178805"><ele>185.5</ele><time>2026-04-06T10:49:19.226Z</time></trkpt><trkpt lat="44.6800094" lon="7.9179931"><ele>186.25</ele><time>2026-04-06T10:49:20.226Z</time></trkpt><trkpt lat="44.6799108" lon="7.9180937"><ele>187.0</ele><time>2026-04-06T10:49:21.226Z</time></trkpt><trkpt lat="44.679806" lon="7.9181827"><ele>187.0</ele><time>2026-04-06T10:49:22.226Z</time></trkpt><trkpt lat="44.6797113" lon="7.9182677"><ele>187.0</ele><time>2026-04-06T10:49:23.226Z</time></trkpt><trkpt lat="44.6795961" lon="7.9183498"><ele>187.0</ele><time>2026-04-06T10:49:24.226Z</time></trkpt><trkpt lat="44.6794632" lon="7.9184156"><ele>187.0</ele><time>2026-04-06T10:49:25.226Z</time></trkpt><trkpt lat="44.6793369" lon="7.9184604"><ele>187.33333333333334</ele><time>2026-04-06T10:49:26.226Z</time></trkpt><trkpt lat="44.6792303" lon="7.9184859"><ele>187.66666666666669</ele><time>2026-04-06T10:49:27.226Z</time></trkpt><trkpt lat="44.6791379" lon="7.9184985"><ele>188.0</ele><time>2026-04-06T10:49:28.226Z</time></trkpt><trkpt lat="44.6790536" lon="7.9185062"><ele>188.33333333333334</ele><time>2026-04-06T10:49:29.226Z</time></trkpt><trkpt lat="44.6789806" lon="7.9185048"><ele>188.66666666666666</ele><time>2026-04-06T10:49:30.226Z</time></trkpt><trkpt lat="44.6789136" lon="7.918501"><ele>189.0</ele><time>2026-04-06T10:49:31.226Z</time></trkpt><trkpt lat="44.678822" lon="7.9184656"><ele>189.0</ele><time>2026-04-06T10:49:33.226Z</time></trkpt><trkpt lat="44.6788745" lon="7.9185432"><ele>189.0</ele><time>2026-04-06T10:49:40.226Z</time></trkpt><trkpt lat="44.6789659" lon="7.9185518"><ele>189.0</ele><time>2026-04-06T10:49:41.226Z</time></trkpt><trkpt lat="44.679073" lon="7.9185411"><ele>189.0</ele><time>2026-04-06T10:49:42.226Z</time></trkpt><trkpt lat="44.6791819" lon="7.9185298"><ele>189.0</ele><time>2026-04-06T10:49:43.226Z</time></trkpt><trkpt lat="44.6792929" lon="7.9185025"><ele>189.0</ele><time>2026-04-06T10:49:44.226Z</time></trkpt><trkpt lat="44.6794047" lon="7.9184729"><ele>189.0</ele><time>2026-04-06T10:49:45.226Z</time></trkpt><trkpt lat="44.6795098" lon="7.9184324"><ele>189.0</ele><time>2026-04-06T10:49:46.226Z</time></trkpt><trkpt lat="44.6796209" lon="7.9184034"><ele>189.0</ele><time>2026-04-06T10:49:47.226Z</time></trkpt><trkpt lat="44.6797248" lon="7.9183565"><ele>189.0</ele><time>2026-04-06T10:49:48.226Z</time></trkpt><trkpt lat="44.6798294" lon="7.9182865"><ele>188.6</ele><time>2026-04-06T10:49:49.226Z</time></trkpt><trkpt lat="44.679912" lon="7.9181948"><ele>188.2</ele><time>2026-04-06T10:49:50.226Z</time></trkpt><trkpt lat="44.6799928" lon="7.918123"><ele>187.79999999999998</ele><time>2026-04-06T10:49:51.226Z</time></trkpt><trkpt lat="44.6800615" lon="7.9180702"><ele>187.39999999999998</ele><time>2026-04-06T10:49:52.226Z</time></trkpt><trkpt lat="44.6801691" lon="7.9180435"><ele>187.0</ele><time>2026-04-06T10:49:54.226Z</time></trkpt><trkpt lat="44.6802526" lon="7.9181453"><ele>186.6</ele><time>2026-04-06T10:49:56.226Z</time></trkpt><trkpt lat="44.6802829" lon="7.9182668"><ele>186.2</ele><time>2026-04-06T10:49:57.227Z</time></trkpt><trkpt lat="44.6803107" lon="7.9184015"><ele>185.8</ele><time>2026-04-06T10:49:58.226Z</time></trkpt><trkpt lat="44.6803544" lon="7.9185672"><ele>185.4</ele><time>2026-04-06T10:49:59.226Z</time></trkpt><trkpt lat="44.6804001" lon="7.9187379"><ele>185.0</ele><time>2026-04-06T10:50:00.226Z</time></trkpt><trkpt lat="44.6804566" lon="7.9189281"><ele>185.0</ele><time>2026-04-06T10:50:01.226Z</time></trkpt><trkpt lat="44.6805184" lon="7.9191349"><ele>185.0</ele><time>2026-04-06T10:50:02.226Z</time></trkpt><trkpt lat="44.6805798" lon="7.919352"><ele>185.0</ele><time>2026-04-06T10:50:03.226Z</time></trkpt><trkpt lat="44.6806427" lon="7.9195959"><ele>185.0</ele><time>2026-04-06T10:50:04.226Z</time></trkpt><trkpt lat="44.680708" lon="7.9198456"><ele>185.0</ele><time>2026-04-06T10:50:05.226Z</time></trkpt><trkpt lat="44.6807717" lon="7.9201085"><ele>185.0</ele><time>2026-04-06T10:50:06.226Z</time></trkpt><trkpt lat="44.6808423" lon="7.9203796"><ele>185.33333333333331</ele><time>2026-04-06T10:50:07.226Z</time></trkpt><trkpt lat="44.6809135" lon="7.9206689"><ele>185.66666666666666</ele><time>2026-04-06T10:50:08.226Z</time></trkpt><trkpt lat="44.6809879" lon="7.9209443"><ele>186.0</ele><time>2026-04-06T10:50:09.226Z</time></trkpt><trkpt lat="44.6810537" lon="7.9212022"><ele>185.33333333333334</ele><time>2026-04-06T10:50:10.226Z</time></trkpt><trkpt lat="44.6811187" lon="7.9214634"><ele>184.66666666666669</ele><time>2026-04-06T10:50:11.226Z</time></trkpt><trkpt lat="44.6811713" lon="7.9216864"><ele>184.0</ele><time>2026-04-06T10:50:12.226Z</time></trkpt><trkpt lat="44.6812086" lon="7.9218789"><ele>184.0</ele><time>2026-04-06T10:50:13.226Z</time></trkpt><trkpt lat="44.6812234" lon="7.9220772"><ele>184.0</ele><time>2026-04-06T10:50:14.226Z</time></trkpt><trkpt lat="44.6812205" lon="7.9222735"><ele>184.0</ele><time>2026-04-06T10:50:15.226Z</time></trkpt><trkpt lat="44.6812092" lon="7.9224818"><ele>184.0</ele><time>2026-04-06T10:50:16.226Z</time></trkpt><trkpt lat="44.6811969" lon="7.9226908"><ele>184.5</ele><time>2026-04-06T10:50:17.226Z</time></trkpt><trkpt lat="44.6811795" lon="7.9228848"><ele>185.0</ele><time>2026-04-06T10:50:18.226Z</time></trkpt><trkpt lat="44.6811625" lon="7.9230573"><ele>185.5</ele><time>2026-04-06T10:50:19.226Z</time></trkpt><trkpt lat="44.6811522" lon="7.923224"><ele>186.0</ele><time>2026-04-06T10:50:20.226Z</time></trkpt><trkpt lat="44.6811426" lon="7.9233745"><ele>186.0</ele><time>2026-04-06T10:50:21.226Z</time></trkpt><trkpt lat="44.6811395" lon="7.9235041"><ele>186.0</ele><time>2026-04-06T10:50:22.226Z</time></trkpt><trkpt lat="44.6811429" lon="7.9236134"><ele>186.0</ele><time>2026-04-06T10:50:23.226Z</time></trkpt><trkpt lat="44.6811494" lon="7.9237794"><ele>186.0</ele><time>2026-04-06T10:50:25.226Z</time></trkpt><trkpt lat="44.681176" lon="7.9239012"><ele>186.0</ele><time>2026-04-06T10:50:27.226Z</time></trkpt><trkpt lat="44.6812435" lon="7.9240598"><ele>186.0</ele><time>2026-04-06T10:50:29.226Z</time></trkpt><trkpt lat="44.6812946" lon="7.9241745"><ele>186.0</ele><time>2026-04-06T10:50:30.226Z</time></trkpt><trkpt lat="44.6813588" lon="7.9243158"><ele>186.0</ele><time>2026-04-06T10:50:31.226Z</time></trkpt><trkpt lat="44.6814272" lon="7.9244768"><ele>186.0</ele><time>2026-04-06T10:50:32.226Z</time></trkpt><trkpt lat="44.68149" lon="7.9246481"><ele>185.66666666666666</ele><time>2026-04-06T10:50:33.226Z</time></trkpt><trkpt lat="44.6815557" lon="7.924836"><ele>185.33333333333331</ele><time>2026-04-06T10:50:34.226Z</time></trkpt><trkpt lat="44.6816292" lon="7.9250262"><ele>185.0</ele><time>2026-04-06T10:50:35.226Z</time></trkpt><trkpt lat="44.6817063" lon="7.9252202"><ele>185.0</ele><time>2026-04-06T10:50:36.226Z</time></trkpt><trkpt lat="44.6817895" lon="7.9254133"><ele>185.0</ele><time>2026-04-06T10:50:37.226Z</time></trkpt><trkpt lat="44.6818657" lon="7.9256064"><ele>185.0</ele><time>2026-04-06T10:50:38.226Z</time></trkpt><trkpt lat="44.6819331" lon="7.9257924"><ele>184.75</ele><time>2026-04-06T10:50:39.226Z</time></trkpt><trkpt lat="44.6819937" lon="7.925977"><ele>184.5</ele><time>2026-04-06T10:50:40.226Z</time></trkpt><trkpt lat="44.6820587" lon="7.9261619"><ele>184.25</ele><time>2026-04-06T10:50:41.226Z</time></trkpt><trkpt lat="44.6821333" lon="7.9263435"><ele>184.0</ele><time>2026-04-06T10:50:42.226Z</time></trkpt><trkpt lat="44.6822128" lon="7.9265388"><ele>184.0</ele><time>2026-04-06T10:50:43.226Z</time></trkpt><trkpt lat="44.6822954" lon="7.9267287"><ele>184.0</ele><time>2026-04-06T10:50:44.226Z</time></trkpt><trkpt lat="44.6823829" lon="7.9269272"><ele>184.0</ele><time>2026-04-06T10:50:45.226Z</time></trkpt><trkpt lat="44.6824712" lon="7.9271363"><ele>184.0</ele><time>2026-04-06T10:50:46.226Z</time></trkpt><trkpt lat="44.6825601" lon="7.9273521"><ele>184.0</ele><time>2026-04-06T10:50:47.226Z</time></trkpt><trkpt lat="44.6826531" lon="7.9275588"><ele>184.0</ele><time>2026-04-06T10:50:48.226Z</time></trkpt><trkpt lat="44.6827443" lon="7.9277722"><ele>183.33333333333334</ele><time>2026-04-06T10:50:49.226Z</time></trkpt><trkpt lat="44.6828344" lon="7.927983"><ele>182.66666666666666</ele><time>2026-04-06T10:50:50.226Z</time></trkpt><trkpt lat="44.6829245" lon="7.9281999"><ele>182.0</ele><time>2026-04-06T10:50:51.226Z</time></trkpt><trkpt lat="44.6830212" lon="7.9284285"><ele>182.0</ele><time>2026-04-06T10:50:52.226Z</time></trkpt><trkpt lat="44.6831234" lon="7.9286642"><ele>182.0</ele><time>2026-04-06T10:50:53.226Z</time></trkpt><trkpt lat="44.6832239" lon="7.9289101"><ele>182.0</ele><time>2026-04-06T10:50:54.227Z</time></trkpt><trkpt lat="44.6833225" lon="7.9291526"><ele>183.33333333333331</ele><time>2026-04-06T10:50:55.226Z</time></trkpt><trkpt lat="44.6834157" lon="7.9293796"><ele>184.66666666666666</ele><time>2026-04-06T10:50:56.226Z</time></trkpt><trkpt lat="44.6835033" lon="7.9295896"><ele>186.0</ele><time>2026-04-06T10:50:57.226Z</time></trkpt><trkpt lat="44.6835792" lon="7.9297976"><ele>185.33333333333334</ele><time>2026-04-06T10:50:58.226Z</time></trkpt><trkpt lat="44.6836571" lon="7.9299961"><ele>184.66666666666669</ele><time>2026-04-06T10:50:59.226Z</time></trkpt><trkpt lat="44.6837391" lon="7.9301906"><ele>184.0</ele><time>2026-04-06T10:51:00.226Z</time></trkpt><trkpt lat="44.6838245" lon="7.930392"><ele>184.0</ele><time>2026-04-06T10:51:01.226Z</time></trkpt><trkpt lat="44.6839087" lon="7.9305959"><ele>184.0</ele><time>2026-04-06T10:51:02.226Z</time></trkpt><trkpt lat="44.6839908" lon="7.9307985"><ele>184.0</ele><time>2026-04-06T10:51:03.226Z</time></trkpt><trkpt lat="44.6840685" lon="7.9309952"><ele>184.66666666666669</ele><time>2026-04-06T10:51:04.226Z</time></trkpt><trkpt lat="44.6841474" lon="7.9311868"><ele>185.33333333333334</ele><time>2026-04-06T10:51:05.226Z</time></trkpt><trkpt lat="44.6842247" lon="7.931375"><ele>186.0</ele><time>2026-04-06T10:51:06.226Z</time></trkpt><trkpt lat="44.6843068" lon="7.9315754"><ele>185.66666666666666</ele><time>2026-04-06T10:51:07.226Z</time></trkpt><trkpt lat="44.6843909" lon="7.9317844"><ele>185.33333333333331</ele><time>2026-04-06T10:51:08.226Z</time></trkpt><trkpt lat="44.6844693" lon="7.9319772"><ele>185.0</ele><time>2026-04-06T10:51:09.226Z</time></trkpt><trkpt lat="44.6845361" lon="7.9321588"><ele>184.4</ele><time>2026-04-06T10:51:10.226Z</time></trkpt><trkpt lat="44.6846046" lon="7.9323017"><ele>183.8</ele><time>2026-04-06T10:51:11.226Z</time></trkpt><trkpt lat="44.684659" lon="7.9324306"><ele>183.2</ele><time>2026-04-06T10:51:12.226Z</time></trkpt><trkpt lat="44.684708" lon="7.9325452"><ele>182.6</ele><time>2026-04-06T10:51:13.226Z</time></trkpt><trkpt lat="44.6847493" lon="7.9326521"><ele>182.0</ele><time>2026-04-06T10:51:14.226Z</time></trkpt><trkpt lat="44.6847787" lon="7.9327493"><ele>181.83333333333331</ele><time>2026-04-06T10:51:15.226Z</time></trkpt><trkpt lat="44.6848128" lon="7.9328357"><ele>181.66666666666666</ele><time>2026-04-06T10:51:16.226Z</time></trkpt><trkpt lat="44.6848484" lon="7.9329209"><ele>181.5</ele><time>2026-04-06T10:51:17.226Z</time></trkpt><trkpt lat="44.6848855" lon="7.9330014"><ele>181.33333333333334</ele><time>2026-04-06T10:51:18.226Z</time></trkpt><trkpt lat="44.6849177" lon="7.9330786"><ele>181.16666666666669</ele><time>2026-04-06T10:51:19.226Z</time></trkpt><trkpt lat="44.6849561" lon="7.933208"><ele>181.0</ele><time>2026-04-06T10:51:21.226Z</time></trkpt><trkpt lat="44.6848886" lon="7.93332"><ele>181.0</ele><time>2026-04-06T10:51:23.226Z</time></trkpt><trkpt lat="44.6848179" lon="7.9333717"><ele>181.0</ele><time>2026-04-06T10:51:24.226Z</time></trkpt><trkpt lat="44.6847358" lon="7.9334302"><ele>181.0</ele><time>2026-04-06T10:51:25.226Z</time></trkpt><trkpt lat="44.6846443" lon="7.9335049"><ele>181.0</ele><time>2026-04-06T10:51:26.226Z</time></trkpt><trkpt lat="44.6845453" lon="7.9335856"><ele>181.0</ele><time>2026-04-06T10:51:27.226Z</time></trkpt><trkpt lat="44.6844397" lon="7.9336699"><ele>181.5</ele><time>2026-04-06T10:51:28.226Z</time></trkpt><trkpt lat="44.6843382" lon="7.933753"><ele>182.0</ele><time>2026-04-06T10:51:29.226Z</time></trkpt><trkpt lat="44.6842514" lon="7.933828"><ele>182.5</ele><time>2026-04-06T10:51:30.226Z</time></trkpt><trkpt lat="44.6841774" lon="7.9338817"><ele>183.0</ele><time>2026-04-06T10:51:31.226Z</time></trkpt><trkpt lat="44.6841202" lon="7.9339274"><ele>183.5</ele><time>2026-04-06T10:51:32.226Z</time></trkpt><trkpt lat="44.6840548" lon="7.9339899"><ele>184.0</ele><time>2026-04-06T10:51:34.226Z</time></trkpt><trkpt lat="44.6840522" lon="7.9340878"><ele>184.0</ele><time>2026-04-06T10:51:37.226Z</time></trkpt><trkpt lat="44.6840945" lon="7.9342101"><ele>184.0</ele><time>2026-04-06T10:51:40.226Z</time></trkpt><trkpt lat="44.6841298" lon="7.9343249"><ele>184.0</ele><time>2026-04-06T10:51:42.226Z</time></trkpt><trkpt lat="44.684178" lon="7.9344277"><ele>184.0</ele><time>2026-04-06T10:51:44.226Z</time></trkpt><trkpt lat="44.6842203" lon="7.9345718"><ele>184.0</ele><time>2026-04-06T10:51:46.226Z</time></trkpt><trkpt lat="44.6842414" lon="7.9346603"><ele>183.79999999999998</ele><time>2026-04-06T10:51:47.226Z</time></trkpt><trkpt lat="44.6842523" lon="7.9347647"><ele>183.6</ele><time>2026-04-06T10:51:48.226Z</time></trkpt><trkpt lat="44.6842571" lon="7.9348881"><ele>183.4</ele><time>2026-04-06T10:51:49.226Z</time></trkpt><trkpt lat="44.6842621" lon="7.9350333"><ele>183.2</ele><time>2026-04-06T10:51:50.226Z</time></trkpt><trkpt lat="44.6842733" lon="7.9351741"><ele>183.0</ele><time>2026-04-06T10:51:51.226Z</time></trkpt><trkpt lat="44.6842985" lon="7.9352919"><ele>183.0</ele><time>2026-04-06T10:51:52.226Z</time></trkpt><trkpt lat="44.6843261" lon="7.9353879"><ele>183.0</ele><time>2026-04-06T10:51:53.226Z</time></trkpt><trkpt lat="44.6843549" lon="7.9354804"><ele>183.0</ele><time>2026-04-06T10:51:54.226Z</time></trkpt><trkpt lat="44.6843962" lon="7.9355763"><ele>183.0</ele><time>2026-04-06T10:51:55.226Z</time></trkpt><trkpt lat="44.6844321" lon="7.9356716"><ele>183.0</ele><time>2026-04-06T10:51:56.226Z</time></trkpt><trkpt lat="44.6844817" lon="7.9357745"><ele>183.0</ele><time>2026-04-06T10:51:57.226Z</time></trkpt><trkpt lat="44.6845244" lon="7.9358891"><ele>182.5</ele><time>2026-04-06T10:51:58.226Z</time></trkpt><trkpt lat="44.6845707" lon="7.9360168"><ele>182.0</ele><time>2026-04-06T10:51:59.226Z</time></trkpt><trkpt lat="44.6846228" lon="7.9361538"><ele>181.5</ele><time>2026-04-06T10:52:00.226Z</time></trkpt><trkpt lat="44.6846843" lon="7.9363008"><ele>181.0</ele><time>2026-04-06T10:52:01.226Z</time></trkpt><trkpt lat="44.6847407" lon="7.9364533"><ele>181.0</ele><time>2026-04-06T10:52:02.226Z</time></trkpt><trkpt lat="44.6847912" lon="7.9365882"><ele>181.0</ele><time>2026-04-06T10:52:03.226Z</time></trkpt><trkpt lat="44.6848476" lon="7.9367227"><ele>181.0</ele><time>2026-04-06T10:52:04.226Z</time></trkpt><trkpt lat="44.6848928" lon="7.936854"><ele>181.0</ele><time>2026-04-06T10:52:05.226Z</time></trkpt><trkpt lat="44.684932" lon="7.9370058"><ele>181.0</ele><time>2026-04-06T10:52:06.226Z</time></trkpt><trkpt lat="44.684967" lon="7.9371632"><ele>181.25</ele><time>2026-04-06T10:52:07.226Z</time></trkpt><trkpt lat="44.6850084" lon="7.9373273"><ele>181.5</ele><time>2026-04-06T10:52:08.226Z</time></trkpt><trkpt lat="44.6850525" lon="7.937495"><ele>181.75</ele><time>2026-04-06T10:52:09.226Z</time></trkpt><trkpt lat="44.6850935" lon="7.9376639"><ele>182.0</ele><time>2026-04-06T10:52:10.226Z</time></trkpt><trkpt lat="44.6851398" lon="7.9378294"><ele>181.75</ele><time>2026-04-06T10:52:11.226Z</time></trkpt><trkpt lat="44.6851908" lon="7.9379823"><ele>181.5</ele><time>2026-04-06T10:52:12.226Z</time></trkpt><trkpt lat="44.6852366" lon="7.9381341"><ele>181.25</ele><time>2026-04-06T10:52:13.227Z</time></trkpt><trkpt lat="44.6852836" lon="7.9382948"><ele>181.0</ele><time>2026-04-06T10:52:14.227Z</time></trkpt><trkpt lat="44.6853312" lon="7.9384573"><ele>180.5</ele><time>2026-04-06T10:52:15.226Z</time></trkpt><trkpt lat="44.6853644" lon="7.9386279"><ele>180.0</ele><time>2026-04-06T10:52:16.226Z</time></trkpt><trkpt lat="44.6853985" lon="7.9387981"><ele>179.5</ele><time>2026-04-06T10:52:17.226Z</time></trkpt><trkpt lat="44.6854317" lon="7.938956"><ele>179.0</ele><time>2026-04-06T10:52:18.226Z</time></trkpt><trkpt lat="44.6854614" lon="7.9391128"><ele>179.2</ele><time>2026-04-06T10:52:19.226Z</time></trkpt><trkpt lat="44.685487" lon="7.9392661"><ele>179.39999999999998</ele><time>2026-04-06T10:52:20.226Z</time></trkpt><trkpt lat="44.6855206" lon="7.9394101"><ele>179.6</ele><time>2026-04-06T10:52:21.226Z</time></trkpt><trkpt lat="44.6855479" lon="7.9395393"><ele>179.8</ele><time>2026-04-06T10:52:22.226Z</time></trkpt><trkpt lat="44.6855739" lon="7.9396517"><ele>180.0</ele><time>2026-04-06T10:52:23.226Z</time></trkpt><trkpt lat="44.6855953" lon="7.9397604"><ele>180.0</ele><time>2026-04-06T10:52:24.226Z</time></trkpt><trkpt lat="44.6856188" lon="7.939857"><ele>180.0</ele><time>2026-04-06T10:52:25.226Z</time></trkpt><trkpt lat="44.6856372" lon="7.9399532"><ele>180.0</ele><time>2026-04-06T10:52:26.226Z</time></trkpt><trkpt lat="44.685655" lon="7.9400516"><ele>180.0</ele><time>2026-04-06T10:52:27.226Z</time></trkpt><trkpt lat="44.6856759" lon="7.9401426"><ele>180.0</ele><time>2026-04-06T10:52:28.226Z</time></trkpt><trkpt lat="44.6856968" lon="7.9402348"><ele>180.0</ele><time>2026-04-06T10:52:29.226Z</time></trkpt><trkpt lat="44.6857135" lon="7.9403256"><ele>180.0</ele><time>2026-04-06T10:52:30.226Z</time></trkpt><trkpt lat="44.6857526" lon="7.9404832"><ele>180.33333333333334</ele><time>2026-04-06T10:52:32.226Z</time></trkpt><trkpt lat="44.6857816" lon="7.9406308"><ele>180.66666666666666</ele><time>2026-04-06T10:52:34.226Z</time></trkpt><trkpt lat="44.6858071" lon="7.9407524"><ele>181.0</ele><time>2026-04-06T10:52:36.226Z</time></trkpt><trkpt lat="44.6858363" lon="7.9408544"><ele>181.33333333333331</ele><time>2026-04-06T10:52:38.226Z</time></trkpt><trkpt lat="44.68586" lon="7.9409711"><ele>181.66666666666666</ele><time>2026-04-06T10:52:41.226Z</time></trkpt><trkpt lat="44.6858642" lon="7.9410649"><ele>182.0</ele><time>2026-04-06T10:52:44.226Z</time></trkpt><trkpt lat="44.6858516" lon="7.9409152"><ele>182.0</ele><time>2026-04-06T10:53:45.226Z</time></trkpt><trkpt lat="44.6858231" lon="7.940764"><ele>182.0</ele><time>2026-04-06T10:53:47.227Z</time></trkpt><trkpt lat="44.6857902" lon="7.9405805"><ele>182.0</ele><time>2026-04-06T10:53:49.226Z</time></trkpt><trkpt lat="44.6857676" lon="7.9404525"><ele>182.0</ele><time>2026-04-06T10:53:50.226Z</time></trkpt><trkpt lat="44.6857331" lon="7.9402922"><ele>182.0</ele><time>2026-04-06T10:53:51.226Z</time></trkpt><trkpt lat="44.6856927" lon="7.9401142"><ele>182.0</ele><time>2026-04-06T10:53:52.226Z</time></trkpt><trkpt lat="44.6856502" lon="7.9399234"><ele>182.0</ele><time>2026-04-06T10:53:53.226Z</time></trkpt><trkpt lat="44.6856081" lon="7.9397334"><ele>182.0</ele><time>2026-04-06T10:53:54.226Z</time></trkpt><trkpt lat="44.6855663" lon="7.9395547"><ele>181.5</ele><time>2026-04-06T10:53:55.226Z</time></trkpt><trkpt lat="44.6855247" lon="7.93939"><ele>181.0</ele><time>2026-04-06T10:53:56.226Z</time></trkpt><trkpt lat="44.6854873" lon="7.9392378"><ele>180.5</ele><time>2026-04-06T10:53:57.226Z</time></trkpt><trkpt lat="44.6854576" lon="7.9390906"><ele>180.0</ele><time>2026-04-06T10:53:58.226Z</time></trkpt><trkpt lat="44.6854309" lon="7.9389383"><ele>179.75</ele><time>2026-04-06T10:53:59.226Z</time></trkpt><trkpt lat="44.6854049" lon="7.9387729"><ele>179.5</ele><time>2026-04-06T10:54:00.226Z</time></trkpt><trkpt lat="44.6853762" lon="7.9386068"><ele>179.25</ele><time>2026-04-06T10:54:01.226Z</time></trkpt><trkpt lat="44.6853408" lon="7.9384476"><ele>179.0</ele><time>2026-04-06T10:54:02.226Z</time></trkpt><trkpt lat="44.6852997" lon="7.9382947"><ele>180.5</ele><time>2026-04-06T10:54:03.226Z</time></trkpt><trkpt lat="44.6852534" lon="7.9381462"><ele>182.0</ele><time>2026-04-06T10:54:04.226Z</time></trkpt><trkpt lat="44.6852027" lon="7.937996"><ele>183.5</ele><time>2026-04-06T10:54:05.226Z</time></trkpt><trkpt lat="44.6851528" lon="7.9378412"><ele>185.0</ele><time>2026-04-06T10:54:06.226Z</time></trkpt><trkpt lat="44.6851085" lon="7.9376825"><ele>184.25</ele><time>2026-04-06T10:54:07.226Z</time></trkpt><trkpt lat="44.6850588" lon="7.9375081"><ele>183.5</ele><time>2026-04-06T10:54:08.226Z</time></trkpt><trkpt lat="44.6850169" lon="7.9373176"><ele>182.75</ele><time>2026-04-06T10:54:09.226Z</time></trkpt><trkpt lat="44.6849766" lon="7.9371272"><ele>182.0</ele><time>2026-04-06T10:54:10.226Z</time></trkpt><trkpt lat="44.6849336" lon="7.9369519"><ele>182.0</ele><time>2026-04-06T10:54:11.226Z</time></trkpt><trkpt lat="44.6848841" lon="7.9367883"><ele>182.0</ele><time>2026-04-06T10:54:12.226Z</time></trkpt><trkpt lat="44.6848174" lon="7.9366084"><ele>182.0</ele><time>2026-04-06T10:54:13.226Z</time></trkpt><trkpt lat="44.6847469" lon="7.9364339"><ele>182.0</ele><time>2026-04-06T10:54:14.226Z</time></trkpt><trkpt lat="44.6846757" lon="7.936242"><ele>181.75</ele><time>2026-04-06T10:54:15.226Z</time></trkpt><trkpt lat="44.6846004" lon="7.9360614"><ele>181.5</ele><time>2026-04-06T10:54:16.226Z</time></trkpt><trkpt lat="44.6845264" lon="7.9358862"><ele>181.25</ele><time>2026-04-06T10:54:17.226Z</time></trkpt><trkpt lat="44.6844642" lon="7.9357233"><ele>181.0</ele><time>2026-04-06T10:54:18.226Z</time></trkpt><trkpt lat="44.6844039" lon="7.9355683"><ele>181.0</ele><time>2026-04-06T10:54:19.226Z</time></trkpt><trkpt lat="44.6843597" lon="7.9354257"><ele>181.0</ele><time>2026-04-06T10:54:20.226Z</time></trkpt><trkpt lat="44.6843196" lon="7.9352877"><ele>181.0</ele><time>2026-04-06T10:54:21.226Z</time></trkpt><trkpt lat="44.6842962" lon="7.9351404"><ele>181.0</ele><time>2026-04-06T10:54:22.226Z</time></trkpt><trkpt lat="44.6842791" lon="7.9349759"><ele>181.0</ele><time>2026-04-06T10:54:23.226Z</time></trkpt><trkpt lat="44.6842694" lon="7.9348058"><ele>181.0</ele><time>2026-04-06T10:54:24.226Z</time></trkpt><trkpt lat="44.6842572" lon="7.9346396"><ele>181.0</ele><time>2026-04-06T10:54:25.226Z</time></trkpt><trkpt lat="44.684231" lon="7.9344936"><ele>181.0</ele><time>2026-04-06T10:54:26.226Z</time></trkpt><trkpt lat="44.6841886" lon="7.9343654"><ele>181.0</ele><time>2026-04-06T10:54:27.226Z</time></trkpt><trkpt lat="44.6841392" lon="7.9342585"><ele>181.0</ele><time>2026-04-06T10:54:28.226Z</time></trkpt><trkpt lat="44.6841019" lon="7.9341736"><ele>181.60000000000002</ele><time>2026-04-06T10:54:29.226Z</time></trkpt><trkpt lat="44.6840741" lon="7.9340715"><ele>182.2</ele><time>2026-04-06T10:54:31.226Z</time></trkpt><trkpt lat="44.6841267" lon="7.9339382"><ele>182.8</ele><time>2026-04-06T10:54:34.226Z</time></trkpt><trkpt lat="44.6842307" lon="7.9338501"><ele>183.39999999999998</ele><time>2026-04-06T10:54:36.226Z</time></trkpt><trkpt lat="44.6843073" lon="7.9337868"><ele>184.0</ele><time>2026-04-06T10:54:37.226Z</time></trkpt><trkpt lat="44.6843863" lon="7.9337209"><ele>183.79999999999998</ele><time>2026-04-06T10:54:38.226Z</time></trkpt><trkpt lat="44.6844803" lon="7.9336387"><ele>183.6</ele><time>2026-04-06T10:54:39.226Z</time></trkpt><trkpt lat="44.6845794" lon="7.9335579"><ele>183.4</ele><time>2026-04-06T10:54:40.226Z</time></trkpt><trkpt lat="44.6846798" lon="7.9334822"><ele>183.2</ele><time>2026-04-06T10:54:41.226Z</time></trkpt><trkpt lat="44.6847709" lon="7.933415"><ele>183.0</ele><time>2026-04-06T10:54:42.226Z</time></trkpt><trkpt lat="44.6848408" lon="7.9333701"><ele>182.60000000000002</ele><time>2026-04-06T10:54:43.226Z</time></trkpt><trkpt lat="44.6849258" lon="7.9333163"><ele>182.20000000000002</ele><time>2026-04-06T10:54:45.226Z</time></trkpt><trkpt lat="44.6849424" lon="7.9332065"><ele>181.8</ele><time>2026-04-06T10:54:47.226Z</time></trkpt><trkpt lat="44.6848943" lon="7.9330383"><ele>181.4</ele><time>2026-04-06T10:54:49.227Z</time></trkpt><trkpt lat="44.6848532" lon="7.9329337"><ele>181.0</ele><time>2026-04-06T10:54:50.226Z</time></trkpt><trkpt lat="44.6848063" lon="7.9327964"><ele>181.0</ele><time>2026-04-06T10:54:51.226Z</time></trkpt><trkpt lat="44.6847558" lon="7.9326535"><ele>181.0</ele><time>2026-04-06T10:54:52.226Z</time></trkpt><trkpt lat="44.6846925" lon="7.9325052"><ele>181.0</ele><time>2026-04-06T10:54:53.226Z</time></trkpt><trkpt lat="44.6846191" lon="7.9323215"><ele>181.0</ele><time>2026-04-06T10:54:54.226Z</time></trkpt><trkpt lat="44.6845265" lon="7.9320973"><ele>181.33333333333334</ele><time>2026-04-06T10:54:55.226Z</time></trkpt><trkpt lat="44.6844315" lon="7.9318686"><ele>181.66666666666666</ele><time>2026-04-06T10:54:56.226Z</time></trkpt><trkpt lat="44.6843416" lon="7.9316334"><ele>182.0</ele><time>2026-04-06T10:54:57.226Z</time></trkpt><trkpt lat="44.6842462" lon="7.93138"><ele>182.66666666666666</ele><time>2026-04-06T10:54:58.226Z</time></trkpt><trkpt lat="44.6841429" lon="7.9311209"><ele>183.33333333333334</ele><time>2026-04-06T10:54:59.226Z</time></trkpt><trkpt lat="44.6840323" lon="7.9308456"><ele>184.0</ele><time>2026-04-06T10:55:00.226Z</time></trkpt><trkpt lat="44.6839173" lon="7.9305715"><ele>184.0</ele><time>2026-04-06T10:55:01.226Z</time></trkpt><trkpt lat="44.6838057" lon="7.9302947"><ele>184.0</ele><time>2026-04-06T10:55:02.226Z</time></trkpt><trkpt lat="44.6836912" lon="7.9300093"><ele>185.0</ele><time>2026-04-06T10:55:03.226Z</time></trkpt><trkpt lat="44.6835742" lon="7.9297214"><ele>186.0</ele><time>2026-04-06T10:55:04.226Z</time></trkpt><trkpt lat="44.6834543" lon="7.9294355"><ele>184.0</ele><time>2026-04-06T10:55:05.226Z</time></trkpt><trkpt lat="44.6833369" lon="7.9291527"><ele>182.0</ele><time>2026-04-06T10:55:06.226Z</time></trkpt><trkpt lat="44.6832206" lon="7.9288797"><ele>182.0</ele><time>2026-04-06T10:55:07.226Z</time></trkpt><trkpt lat="44.6831164" lon="7.9286171"><ele>182.0</ele><time>2026-04-06T10:55:08.226Z</time></trkpt><trkpt lat="44.6830188" lon="7.9283777"><ele>182.0</ele><time>2026-04-06T10:55:09.226Z</time></trkpt><trkpt lat="44.6829252" lon="7.9281498"><ele>181.66666666666666</ele><time>2026-04-06T10:55:10.226Z</time></trkpt><trkpt lat="44.682837" lon="7.9279501"><ele>181.33333333333334</ele><time>2026-04-06T10:55:11.226Z</time></trkpt><trkpt lat="44.6827572" lon="7.9277553"><ele>181.0</ele><time>2026-04-06T10:55:12.226Z</time></trkpt><trkpt lat="44.6826731" lon="7.9275682"><ele>182.0</ele><time>2026-04-06T10:55:13.226Z</time></trkpt><trkpt lat="44.6825964" lon="7.927377"><ele>183.0</ele><time>2026-04-06T10:55:14.226Z</time></trkpt><trkpt lat="44.6825129" lon="7.927191"><ele>184.0</ele><time>2026-04-06T10:55:15.226Z</time></trkpt><trkpt lat="44.682432" lon="7.9270069"><ele>184.0</ele><time>2026-04-06T10:55:16.226Z</time></trkpt><trkpt lat="44.6823515" lon="7.9268172"><ele>184.0</ele><time>2026-04-06T10:55:17.226Z</time></trkpt><trkpt lat="44.682276" lon="7.9266077"><ele>184.0</ele><time>2026-04-06T10:55:18.226Z</time></trkpt><trkpt lat="44.6821907" lon="7.9263928"><ele>184.0</ele><time>2026-04-06T10:55:19.226Z</time></trkpt><trkpt lat="44.6820993" lon="7.9261689"><ele>184.0</ele><time>2026-04-06T10:55:20.226Z</time></trkpt><trkpt lat="44.6820085" lon="7.9259359"><ele>184.0</ele><time>2026-04-06T10:55:21.226Z</time></trkpt><trkpt lat="44.6819279" lon="7.9257053"><ele>184.0</ele><time>2026-04-06T10:55:22.226Z</time></trkpt><trkpt lat="44.6818522" lon="7.9254894"><ele>184.0</ele><time>2026-04-06T10:55:23.226Z</time></trkpt><trkpt lat="44.6817771" lon="7.9252884"><ele>184.0</ele><time>2026-04-06T10:55:24.226Z</time></trkpt><trkpt lat="44.6816933" lon="7.9250748"><ele>184.33333333333334</ele><time>2026-04-06T10:55:25.226Z</time></trkpt><trkpt lat="44.6816061" lon="7.924845"><ele>184.66666666666666</ele><time>2026-04-06T10:55:26.226Z</time></trkpt><trkpt lat="44.6815137" lon="7.9246102"><ele>185.0</ele><time>2026-04-06T10:55:27.226Z</time></trkpt><trkpt lat="44.6814236" lon="7.9243923"><ele>185.2</ele><time>2026-04-06T10:55:28.226Z</time></trkpt><trkpt lat="44.6813458" lon="7.924203"><ele>185.4</ele><time>2026-04-06T10:55:29.226Z</time></trkpt><trkpt lat="44.6812844" lon="7.9240505"><ele>185.60000000000002</ele><time>2026-04-06T10:55:30.226Z</time></trkpt><trkpt lat="44.6812377" lon="7.9239313"><ele>185.8</ele><time>2026-04-06T10:55:31.226Z</time></trkpt><trkpt lat="44.6812051" lon="7.923848"><ele>186.0</ele><time>2026-04-06T10:55:32.226Z</time></trkpt><trkpt lat="44.68118" lon="7.9236668"><ele>186.0</ele><time>2026-04-06T10:55:34.226Z</time></trkpt><trkpt lat="44.6811822" lon="7.9235359"><ele>186.0</ele><time>2026-04-06T10:55:35.226Z</time></trkpt><trkpt lat="44.6811807" lon="7.9233787"><ele>186.0</ele><time>2026-04-06T10:55:36.226Z</time></trkpt><trkpt lat="44.6811796" lon="7.9232148"><ele>186.0</ele><time>2026-04-06T10:55:37.226Z</time></trkpt><trkpt lat="44.6811787" lon="7.9230526"><ele>186.0</ele><time>2026-04-06T10:55:38.226Z</time></trkpt><trkpt lat="44.681183" lon="7.9229012"><ele>186.0</ele><time>2026-04-06T10:55:39.226Z</time></trkpt><trkpt lat="44.6811889" lon="7.9227485"><ele>186.0</ele><time>2026-04-06T10:55:40.226Z</time></trkpt><trkpt lat="44.6811983" lon="7.9225837"><ele>186.0</ele><time>2026-04-06T10:55:41.226Z</time></trkpt><trkpt lat="44.6812138" lon="7.9224088"><ele>186.0</ele><time>2026-04-06T10:55:42.226Z</time></trkpt><trkpt lat="44.681227" lon="7.92224"><ele>185.5</ele><time>2026-04-06T10:55:43.226Z</time></trkpt><trkpt lat="44.6812325" lon="7.9220821"><ele>185.0</ele><time>2026-04-06T10:55:44.226Z</time></trkpt><trkpt lat="44.6812319" lon="7.9219306"><ele>184.5</ele><time>2026-04-06T10:55:45.226Z</time></trkpt><trkpt lat="44.6812101" lon="7.9217756"><ele>184.0</ele><time>2026-04-06T10:55:46.226Z</time></trkpt><trkpt lat="44.6811739" lon="7.9216082"><ele>184.0</ele><time>2026-04-06T10:55:47.226Z</time></trkpt><trkpt lat="44.6811369" lon="7.9214317"><ele>184.0</ele><time>2026-04-06T10:55:48.226Z</time></trkpt><trkpt lat="44.6810897" lon="7.9212276"><ele>184.0</ele><time>2026-04-06T10:55:49.226Z</time></trkpt><trkpt lat="44.681037" lon="7.921013"><ele>184.0</ele><time>2026-04-06T10:55:50.227Z</time></trkpt><trkpt lat="44.6809821" lon="7.9207825"><ele>185.0</ele><time>2026-04-06T10:55:51.226Z</time></trkpt><trkpt lat="44.6809163" lon="7.9205453"><ele>186.0</ele><time>2026-04-06T10:55:52.226Z</time></trkpt><trkpt lat="44.680849" lon="7.9203118"><ele>187.0</ele><time>2026-04-06T10:55:53.226Z</time></trkpt><trkpt lat="44.6807883" lon="7.9201017"><ele>186.5</ele><time>2026-04-06T10:55:54.226Z</time></trkpt><trkpt lat="44.680738" lon="7.9199054"><ele>186.0</ele><time>2026-04-06T10:55:55.226Z</time></trkpt><trkpt lat="44.6806905" lon="7.9197183"><ele>185.5</ele><time>2026-04-06T10:55:56.226Z</time></trkpt><trkpt lat="44.6806461" lon="7.9195408"><ele>185.0</ele><time>2026-04-06T10:55:57.226Z</time></trkpt><trkpt lat="44.6806012" lon="7.9193767"><ele>185.0</ele><time>2026-04-06T10:55:58.226Z</time></trkpt><trkpt lat="44.6805597" lon="7.9192262"><ele>185.0</ele><time>2026-04-06T10:55:59.226Z</time></trkpt><trkpt lat="44.680517" lon="7.9190861"><ele>185.0</ele><time>2026-04-06T10:56:00.226Z</time></trkpt><trkpt lat="44.6804782" lon="7.9189509"><ele>185.0</ele><time>2026-04-06T10:56:01.226Z</time></trkpt><trkpt lat="44.6804427" lon="7.918821"><ele>185.0</ele><time>2026-04-06T10:56:02.226Z</time></trkpt><trkpt lat="44.6804055" lon="7.9186994"><ele>185.0</ele><time>2026-04-06T10:56:03.226Z</time></trkpt><trkpt lat="44.6803735" lon="7.9185832"><ele>185.0</ele><time>2026-04-06T10:56:04.226Z</time></trkpt><trkpt lat="44.6803455" lon="7.9184758"><ele>185.0</ele><time>2026-04-06T10:56:05.226Z</time></trkpt><trkpt lat="44.680324" lon="7.9183743"><ele>185.0</ele><time>2026-04-06T10:56:06.226Z</time></trkpt><trkpt lat="44.680304" lon="7.9182751"><ele>185.0</ele><time>2026-04-06T10:56:07.226Z</time></trkpt><trkpt lat="44.6802879" lon="7.9181871"><ele>185.0</ele><time>2026-04-06T10:56:08.226Z</time></trkpt><trkpt lat="44.6802394" lon="7.9180308"><ele>185.4</ele><time>2026-04-06T10:56:10.226Z</time></trkpt><trkpt lat="44.6802086" lon="7.9179497"><ele>185.8</ele><time>2026-04-06T10:56:12.226Z</time></trkpt><trkpt lat="44.6801558" lon="7.9178841"><ele>186.2</ele><time>2026-04-06T10:56:16.226Z</time></trkpt><trkpt lat="44.6800327" lon="7.9179365"><ele>186.6</ele><time>2026-04-06T10:56:18.226Z</time></trkpt><trkpt lat="44.6799678" lon="7.9180162"><ele>187.0</ele><time>2026-04-06T10:56:19.226Z</time></trkpt><trkpt lat="44.6798926" lon="7.918107"><ele>187.0</ele><time>2026-04-06T10:56:20.226Z</time></trkpt><trkpt lat="44.6798014" lon="7.9181976"><ele>187.0</ele><time>2026-04-06T10:56:21.226Z</time></trkpt><trkpt lat="44.6797002" lon="7.9182886"><ele>187.0</ele><time>2026-04-06T10:56:22.226Z</time></trkpt><trkpt lat="44.6795755" lon="7.9183717"><ele>187.0</ele><time>2026-04-06T10:56:23.226Z</time></trkpt><trkpt lat="44.679448" lon="7.9184368"><ele>187.5</ele><time>2026-04-06T10:56:24.226Z</time></trkpt><trkpt lat="44.6793104" lon="7.9184636"><ele>188.0</ele><time>2026-04-06T10:56:25.226Z</time></trkpt><trkpt lat="44.6791799" lon="7.9184906"><ele>188.5</ele><time>2026-04-06T10:56:26.226Z</time></trkpt><trkpt lat="44.6790575" lon="7.9185064"><ele>189.0</ele><time>2026-04-06T10:56:27.226Z</time></trkpt><trkpt lat="44.6789497" lon="7.9185087"><ele>189.0</ele><time>2026-04-06T10:56:28.226Z</time></trkpt><trkpt lat="44.6788609" lon="7.9185177"><ele>189.0</ele><time>2026-04-06T10:56:29.226Z</time></trkpt><trkpt lat="44.6787794" lon="7.9185566"><ele>189.0</ele><time>2026-04-06T10:56:30.226Z</time></trkpt><trkpt lat="44.6787152" lon="7.9186412"><ele>189.0</ele><time>2026-04-06T10:56:31.226Z</time></trkpt><trkpt lat="44.6786852" lon="7.9187438"><ele>189.0</ele><time>2026-04-06T10:56:32.226Z</time></trkpt><trkpt lat="44.6786853" lon="7.918861"><ele>189.0</ele><time>2026-04-06T10:56:33.226Z</time></trkpt><trkpt lat="44.6787072" lon="7.9189908"><ele>189.0</ele><time>2026-04-06T10:56:34.227Z</time></trkpt><trkpt lat="44.6787311" lon="7.9191261"><ele>189.0</ele><time>2026-04-06T10:56:35.226Z</time></trkpt><trkpt lat="44.6787544" lon="7.9192802"><ele>189.0</ele><time>2026-04-06T10:56:36.226Z</time></trkpt><trkpt lat="44.6787803" lon="7.9194567"><ele>189.0</ele><time>2026-04-06T10:56:37.226Z</time></trkpt><trkpt lat="44.678805" lon="7.9196491"><ele>190.0</ele><time>2026-04-06T10:56:38.226Z</time></trkpt><trkpt lat="44.6788358" lon="7.9198559"><ele>191.0</ele><time>2026-04-06T10:56:39.226Z</time></trkpt><trkpt lat="44.6788702" lon="7.9200833"><ele>192.0</ele><time>2026-04-06T10:56:40.226Z</time></trkpt><trkpt lat="44.6789119" lon="7.9203243"><ele>192.66666666666669</ele><time>2026-04-06T10:56:41.226Z</time></trkpt><trkpt lat="44.6789573" lon="7.9205759"><ele>193.33333333333334</ele><time>2026-04-06T10:56:42.226Z</time></trkpt><trkpt lat="44.6790131" lon="7.9208059"><ele>194.0</ele><time>2026-04-06T10:56:43.226Z</time></trkpt><trkpt lat="44.6790897" lon="7.9210032"><ele>194.33333333333334</ele><time>2026-04-06T10:56:44.226Z</time></trkpt><trkpt lat="44.6791823" lon="7.9211841"><ele>194.66666666666669</ele><time>2026-04-06T10:56:45.226Z</time></trkpt><trkpt lat="44.6792736" lon="7.9213597"><ele>195.0</ele><time>2026-04-06T10:56:46.226Z</time></trkpt><trkpt lat="44.6793566" lon="7.9215277"><ele>195.0</ele><time>2026-04-06T10:56:47.226Z</time></trkpt><trkpt lat="44.6794234" lon="7.9216996"><ele>195.0</ele><time>2026-04-06T10:56:48.226Z</time></trkpt><trkpt lat="44.6794754" lon="7.9219019"><ele>195.0</ele><time>2026-04-06T10:56:49.226Z</time></trkpt><trkpt lat="44.6794932" lon="7.9221311"><ele>193.0</ele><time>2026-04-06T10:56:50.226Z</time></trkpt><trkpt lat="44.6794809" lon="7.9223817"><ele>191.0</ele><time>2026-04-06T10:56:51.226Z</time></trkpt><trkpt lat="44.6794657" lon="7.9226392"><ele>189.0</ele><time>2026-04-06T10:56:52.226Z</time></trkpt><trkpt lat="44.6794528" lon="7.9229118"><ele>188.66666666666666</ele><time>2026-04-06T10:56:53.226Z</time></trkpt><trkpt lat="44.6794425" lon="7.9231976"><ele>188.33333333333331</ele><time>2026-04-06T10:56:54.226Z</time></trkpt><trkpt lat="44.6794281" lon="7.9235055"><ele>188.0</ele><time>2026-04-06T10:56:55.226Z</time></trkpt><trkpt lat="44.6794174" lon="7.9238219"><ele>194.0</ele><time>2026-04-06T10:56:56.226Z</time></trkpt><trkpt lat="44.6794078" lon="7.9241405"><ele>200.0</ele><time>2026-04-06T10:56:57.226Z</time></trkpt><trkpt lat="44.679402" lon="7.9244683"><ele>200.0</ele><time>2026-04-06T10:56:58.226Z</time></trkpt><trkpt lat="44.6793912" lon="7.9247915"><ele>200.0</ele><time>2026-04-06T10:56:59.226Z</time></trkpt><trkpt lat="44.6793804" lon="7.9250893"><ele>200.0</ele><time>2026-04-06T10:57:00.226Z</time></trkpt><trkpt lat="44.6793692" lon="7.9253591"><ele>199.66666666666669</ele><time>2026-04-06T10:57:01.226Z</time></trkpt><trkpt lat="44.6793614" lon="7.9256244"><ele>199.33333333333331</ele><time>2026-04-06T10:57:02.226Z</time></trkpt><trkpt lat="44.6793639" lon="7.9258861"><ele>199.0</ele><time>2026-04-06T10:57:03.226Z</time></trkpt><trkpt lat="44.679385" lon="7.9261538"><ele>200.33333333333331</ele><time>2026-04-06T10:57:04.226Z</time></trkpt><trkpt lat="44.6794239" lon="7.9264294"><ele>201.66666666666669</ele><time>2026-04-06T10:57:05.226Z</time></trkpt><trkpt lat="44.6794654" lon="7.9266951"><ele>203.0</ele><time>2026-04-06T10:57:06.226Z</time></trkpt><trkpt lat="44.679506" lon="7.9269461"><ele>200.66666666666669</ele><time>2026-04-06T10:57:07.226Z</time></trkpt><trkpt lat="44.6795436" lon="7.9271866"><ele>198.33333333333331</ele><time>2026-04-06T10:57:08.226Z</time></trkpt><trkpt lat="44.6795808" lon="7.9274174"><ele>196.0</ele><time>2026-04-06T10:57:09.226Z</time></trkpt><trkpt lat="44.6796293" lon="7.9276411"><ele>196.0</ele><time>2026-04-06T10:57:10.226Z</time></trkpt><trkpt lat="44.6797046" lon="7.9278627"><ele>196.0</ele><time>2026-04-06T10:57:11.226Z</time></trkpt><trkpt lat="44.679781" lon="7.9280533"><ele>196.0</ele><time>2026-04-06T10:57:12.226Z</time></trkpt><trkpt lat="44.6798671" lon="7.9282353"><ele>196.5</ele><time>2026-04-06T10:57:13.226Z</time></trkpt><trkpt lat="44.6799531" lon="7.9283967"><ele>197.0</ele><time>2026-04-06T10:57:14.226Z</time></trkpt><trkpt lat="44.6800368" lon="7.9285431"><ele>197.5</ele><time>2026-04-06T10:57:15.226Z</time></trkpt><trkpt lat="44.6801133" lon="7.9286801"><ele>198.0</ele><time>2026-04-06T10:57:16.226Z</time></trkpt><trkpt lat="44.6801894" lon="7.9288255"><ele>198.0</ele><time>2026-04-06T10:57:17.226Z</time></trkpt><trkpt lat="44.6802464" lon="7.9289999"><ele>198.0</ele><time>2026-04-06T10:57:18.226Z</time></trkpt><trkpt lat="44.6802927" lon="7.9291967"><ele>198.0</ele><time>2026-04-06T10:57:19.226Z</time></trkpt><trkpt lat="44.6803428" lon="7.929413"><ele>198.0</ele><time>2026-04-06T10:57:20.226Z</time></trkpt><trkpt lat="44.6803977" lon="7.9296508"><ele>196.33333333333331</ele><time>2026-04-06T10:57:21.226Z</time></trkpt><trkpt lat="44.6804371" lon="7.9299045"><ele>194.66666666666666</ele><time>2026-04-06T10:57:22.226Z</time></trkpt><trkpt lat="44.6804797" lon="7.9301861"><ele>193.0</ele><time>2026-04-06T10:57:23.226Z</time></trkpt><trkpt lat="44.680528" lon="7.9304663"><ele>192.0</ele><time>2026-04-06T10:57:24.226Z</time></trkpt><trkpt lat="44.680573" lon="7.9307531"><ele>191.0</ele><time>2026-04-06T10:57:25.226Z</time></trkpt><trkpt lat="44.6806155" lon="7.9310471"><ele>190.0</ele><time>2026-04-06T10:57:26.226Z</time></trkpt><trkpt lat="44.6806578" lon="7.9313256"><ele>190.0</ele><time>2026-04-06T10:57:27.226Z</time></trkpt><trkpt lat="44.6806979" lon="7.931585"><ele>190.0</ele><time>2026-04-06T10:57:28.226Z</time></trkpt><trkpt lat="44.6807341" lon="7.9318409"><ele>190.0</ele><time>2026-04-06T10:57:29.226Z</time></trkpt><trkpt lat="44.6807916" lon="7.93208"><ele>190.0</ele><time>2026-04-06T10:57:30.226Z</time></trkpt><trkpt lat="44.6808678" lon="7.9323268"><ele>190.0</ele><time>2026-04-06T10:57:31.226Z</time></trkpt><trkpt lat="44.6809596" lon="7.9325754"><ele>190.0</ele><time>2026-04-06T10:57:32.226Z</time></trkpt><trkpt lat="44.6810662" lon="7.9328172"><ele>189.66666666666669</ele><time>2026-04-06T10:57:33.226Z</time></trkpt><trkpt lat="44.6811832" lon="7.9330604"><ele>189.33333333333334</ele><time>2026-04-06T10:57:34.226Z</time></trkpt><trkpt lat="44.6813105" lon="7.9333135"><ele>189.0</ele><time>2026-04-06T10:57:35.226Z</time></trkpt><trkpt lat="44.681436" lon="7.9335812"><ele>189.0</ele><time>2026-04-06T10:57:36.225Z</time></trkpt><trkpt lat="44.6815531" lon="7.9338637"><ele>189.0</ele><time>2026-04-06T10:57:37.225Z</time></trkpt><trkpt lat="44.6816552" lon="7.9341554"><ele>189.0</ele><time>2026-04-06T10:57:38.225Z</time></trkpt><trkpt lat="44.6817618" lon="7.9344603"><ele>189.0</ele><time>2026-04-06T10:57:39.225Z</time></trkpt><trkpt lat="44.6818676" lon="7.9347613"><ele>188.33333333333334</ele><time>2026-04-06T10:57:40.225Z</time></trkpt><trkpt lat="44.681968" lon="7.9350503"><ele>187.66666666666669</ele><time>2026-04-06T10:57:41.225Z</time></trkpt><trkpt lat="44.6820597" lon="7.9353148"><ele>187.0</ele><time>2026-04-06T10:57:42.225Z</time></trkpt><trkpt lat="44.6821503" lon="7.935579"><ele>186.66666666666669</ele><time>2026-04-06T10:57:43.225Z</time></trkpt><trkpt lat="44.6822351" lon="7.9358286"><ele>186.33333333333334</ele><time>2026-04-06T10:57:44.225Z</time></trkpt><trkpt lat="44.6823121" lon="7.9360685"><ele>186.0</ele><time>2026-04-06T10:57:45.225Z</time></trkpt><trkpt lat="44.6823806" lon="7.9363106"><ele>185.66666666666666</ele><time>2026-04-06T10:57:46.225Z</time></trkpt><trkpt lat="44.6824597" lon="7.9365475"><ele>185.33333333333331</ele><time>2026-04-06T10:57:47.225Z</time></trkpt><trkpt lat="44.6825442" lon="7.9367816"><ele>185.0</ele><time>2026-04-06T10:57:48.225Z</time></trkpt><trkpt lat="44.6826299" lon="7.9370123"><ele>185.66666666666666</ele><time>2026-04-06T10:57:49.225Z</time></trkpt><trkpt lat="44.6827157" lon="7.9372538"><ele>186.33333333333334</ele><time>2026-04-06T10:57:50.225Z</time></trkpt><trkpt lat="44.6828073" lon="7.9374965"><ele>187.0</ele><time>2026-04-06T10:57:51.225Z</time></trkpt><trkpt lat="44.6828987" lon="7.9377403"><ele>187.0</ele><time>2026-04-06T10:57:52.225Z</time></trkpt><trkpt lat="44.6829914" lon="7.937988"><ele>187.0</ele><time>2026-04-06T10:57:53.225Z</time></trkpt><trkpt lat="44.683071" lon="7.9382318"><ele>187.0</ele><time>2026-04-06T10:57:54.225Z</time></trkpt><trkpt lat="44.6831458" lon="7.9384742"><ele>186.33333333333334</ele><time>2026-04-06T10:57:55.225Z</time></trkpt><trkpt lat="44.6832189" lon="7.9387187"><ele>185.66666666666666</ele><time>2026-04-06T10:57:56.225Z</time></trkpt><trkpt lat="44.6832841" lon="7.9389659"><ele>185.0</ele><time>2026-04-06T10:57:57.225Z</time></trkpt><trkpt lat="44.6833447" lon="7.9392133"><ele>185.66666666666666</ele><time>2026-04-06T10:57:58.225Z</time></trkpt><trkpt lat="44.6834006" lon="7.9394621"><ele>186.33333333333334</ele><time>2026-04-06T10:57:59.225Z</time></trkpt><trkpt lat="44.6834445" lon="7.9397166"><ele>187.0</ele><time>2026-04-06T10:58:00.225Z</time></trkpt><trkpt lat="44.6834746" lon="7.9399828"><ele>187.33333333333334</ele><time>2026-04-06T10:58:01.225Z</time></trkpt><trkpt lat="44.6834928" lon="7.9402521"><ele>187.66666666666666</ele><time>2026-04-06T10:58:02.225Z</time></trkpt><trkpt lat="44.6834978" lon="7.9405142"><ele>188.0</ele><time>2026-04-06T10:58:03.225Z</time></trkpt><trkpt lat="44.6835001" lon="7.9407665"><ele>187.66666666666666</ele><time>2026-04-06T10:58:04.225Z</time></trkpt><trkpt lat="44.6835016" lon="7.9409966"><ele>187.33333333333334</ele><time>2026-04-06T10:58:05.225Z</time></trkpt><trkpt lat="44.6835019" lon="7.9412202"><ele>187.0</ele><time>2026-04-06T10:58:06.225Z</time></trkpt><trkpt lat="44.6835001" lon="7.941434"><ele>187.0</ele><time>2026-04-06T10:58:07.225Z</time></trkpt><trkpt lat="44.6835013" lon="7.9416356"><ele>187.0</ele><time>2026-04-06T10:58:08.225Z</time></trkpt><trkpt lat="44.6835033" lon="7.9418481"><ele>187.0</ele><time>2026-04-06T10:58:09.225Z</time></trkpt><trkpt lat="44.6835069" lon="7.9420801"><ele>187.0</ele><time>2026-04-06T10:58:10.225Z</time></trkpt><trkpt lat="44.6835108" lon="7.94233"><ele>187.0</ele><time>2026-04-06T10:58:11.225Z</time></trkpt><trkpt lat="44.6835118" lon="7.9425952"><ele>187.0</ele><time>2026-04-06T10:58:12.225Z</time></trkpt><trkpt lat="44.6835105" lon="7.9428754"><ele>187.0</ele><time>2026-04-06T10:58:13.225Z</time></trkpt><trkpt lat="44.6835106" lon="7.9431493"><ele>187.0</ele><time>2026-04-06T10:58:14.226Z</time></trkpt><trkpt lat="44.6835115" lon="7.9434057"><ele>187.0</ele><time>2026-04-06T10:58:15.225Z</time></trkpt><trkpt lat="44.6835151" lon="7.943655"><ele>186.66666666666669</ele><time>2026-04-06T10:58:16.225Z</time></trkpt><trkpt lat="44.6835194" lon="7.9438994"><ele>186.33333333333334</ele><time>2026-04-06T10:58:17.225Z</time></trkpt><trkpt lat="44.6835195" lon="7.9441571"><ele>186.0</ele><time>2026-04-06T10:58:18.225Z</time></trkpt><trkpt lat="44.6835189" lon="7.9444265"><ele>186.0</ele><time>2026-04-06T10:58:19.225Z</time></trkpt><trkpt lat="44.6835184" lon="7.9447008"><ele>186.0</ele><time>2026-04-06T10:58:20.225Z</time></trkpt><trkpt lat="44.6835245" lon="7.944956"><ele>186.0</ele><time>2026-04-06T10:58:21.225Z</time></trkpt><trkpt lat="44.6835317" lon="7.9451862"><ele>186.0</ele><time>2026-04-06T10:58:22.225Z</time></trkpt><trkpt lat="44.6835359" lon="7.9453985"><ele>186.0</ele><time>2026-04-06T10:58:23.225Z</time></trkpt><trkpt lat="44.683539" lon="7.9455943"><ele>186.0</ele><time>2026-04-06T10:58:24.226Z</time></trkpt><trkpt lat="44.6835397" lon="7.9457749"><ele>186.0</ele><time>2026-04-06T10:58:25.225Z</time></trkpt><trkpt lat="44.6835446" lon="7.945951"><ele>186.0</ele><time>2026-04-06T10:58:26.225Z</time></trkpt><trkpt lat="44.683549" lon="7.9461081"><ele>186.0</ele><time>2026-04-06T10:58:27.225Z</time></trkpt><trkpt lat="44.683549" lon="7.9462493"><ele>186.0</ele><time>2026-04-06T10:58:28.225Z</time></trkpt><trkpt lat="44.6835412" lon="7.9463625"><ele>186.0</ele><time>2026-04-06T10:58:29.225Z</time></trkpt><trkpt lat="44.6834926" lon="7.9464898"><ele>186.0</ele><time>2026-04-06T10:58:31.225Z</time></trkpt><trkpt lat="44.6833939" lon="7.9464738"><ele>186.0</ele><time>2026-04-06T10:58:33.225Z</time></trkpt><trkpt lat="44.6833261" lon="7.9464362"><ele>186.0</ele><time>2026-04-06T10:58:34.225Z</time></trkpt><trkpt lat="44.6832336" lon="7.9464019"><ele>186.0</ele><time>2026-04-06T10:58:35.225Z</time></trkpt><trkpt lat="44.6831285" lon="7.9463751"><ele>186.0</ele><time>2026-04-06T10:58:36.225Z</time></trkpt><trkpt lat="44.6830116" lon="7.9463541"><ele>186.0</ele><time>2026-04-06T10:58:37.225Z</time></trkpt><trkpt lat="44.6828836" lon="7.9463219"><ele>186.25</ele><time>2026-04-06T10:58:38.226Z</time></trkpt><trkpt lat="44.6827517" lon="7.9462954"><ele>186.5</ele><time>2026-04-06T10:58:39.225Z</time></trkpt><trkpt lat="44.6826137" lon="7.9462823"><ele>186.75</ele><time>2026-04-06T10:58:40.225Z</time></trkpt><trkpt lat="44.682473" lon="7.9462756"><ele>187.0</ele><time>2026-04-06T10:58:41.225Z</time></trkpt><trkpt lat="44.6823394" lon="7.9462837"><ele>187.0</ele><time>2026-04-06T10:58:42.225Z</time></trkpt><trkpt lat="44.6822093" lon="7.9462988"><ele>187.0</ele><time>2026-04-06T10:58:43.225Z</time></trkpt><trkpt lat="44.6820854" lon="7.9463187"><ele>187.0</ele><time>2026-04-06T10:58:44.225Z</time></trkpt><trkpt lat="44.6819637" lon="7.9463512"><ele>187.0</ele><time>2026-04-06T10:58:45.225Z</time></trkpt><trkpt lat="44.6818381" lon="7.9464091"><ele>187.0</ele><time>2026-04-06T10:58:46.225Z</time></trkpt><trkpt lat="44.6817057" lon="7.9464983"><ele>187.0</ele><time>2026-04-06T10:58:47.225Z</time></trkpt><trkpt lat="44.6815732" lon="7.9466062"><ele>187.0</ele><time>2026-04-06T10:58:48.226Z</time></trkpt><trkpt lat="44.6814434" lon="7.9467166"><ele>187.66666666666669</ele><time>2026-04-06T10:58:49.225Z</time></trkpt><trkpt lat="44.6813011" lon="7.9468078"><ele>188.33333333333334</ele><time>2026-04-06T10:58:50.225Z</time></trkpt><trkpt lat="44.681154" lon="7.9468686"><ele>189.0</ele><time>2026-04-06T10:58:51.225Z</time></trkpt><trkpt lat="44.6810171" lon="7.9469185"><ele>190.0</ele><time>2026-04-06T10:58:52.225Z</time></trkpt><trkpt lat="44.6808967" lon="7.9469693"><ele>191.0</ele><time>2026-04-06T10:58:53.225Z</time></trkpt><trkpt lat="44.6808006" lon="7.9470202"><ele>192.0</ele><time>2026-04-06T10:58:54.225Z</time></trkpt><trkpt lat="44.6807272" lon="7.9470651"><ele>193.0</ele><time>2026-04-06T10:58:55.225Z</time></trkpt><trkpt lat="44.6806286" lon="7.9471096"><ele>194.0</ele><time>2026-04-06T10:58:57.226Z</time></trkpt><trkpt lat="44.68055" lon="7.9471629"><ele>194.00000000000003</ele><time>2026-04-06T10:59:08.225Z</time></trkpt><trkpt lat="44.6804667" lon="7.9472051"><ele>194.0</ele><time>2026-04-06T10:59:11.225Z</time></trkpt><trkpt lat="44.6803742" lon="7.9472504"><ele>194.0</ele><time>2026-04-06T10:59:14.225Z</time></trkpt><trkpt lat="44.6803065" lon="7.9472897"><ele>194.0</ele><time>2026-04-06T10:59:16.225Z</time></trkpt><trkpt lat="44.6802503" lon="7.9473317"><ele>194.00000000000003</ele><time>2026-04-06T10:59:18.225Z</time></trkpt><trkpt lat="44.6801648" lon="7.9473822"><ele>194.0</ele><time>2026-04-06T10:59:21.225Z</time></trkpt><trkpt lat="44.6800591" lon="7.9474295"><ele>195.2</ele><time>2026-04-06T10:59:23.225Z</time></trkpt><trkpt lat="44.6799345" lon="7.9474861"><ele>196.39999999999998</ele><time>2026-04-06T10:59:25.225Z</time></trkpt><trkpt lat="44.6798535" lon="7.9475233"><ele>197.6</ele><time>2026-04-06T10:59:26.225Z</time></trkpt><trkpt lat="44.679771" lon="7.9475615"><ele>198.8</ele><time>2026-04-06T10:59:27.225Z</time></trkpt><trkpt lat="44.679697" lon="7.9476024"><ele>200.0</ele><time>2026-04-06T10:59:28.225Z</time></trkpt><trkpt lat="44.6796295" lon="7.9476364"><ele>200.4</ele><time>2026-04-06T10:59:29.225Z</time></trkpt><trkpt lat="44.6795177" lon="7.9476736"><ele>200.8</ele><time>2026-04-06T10:59:31.225Z</time></trkpt><trkpt lat="44.679464" lon="7.9477673"><ele>201.2</ele><time>2026-04-06T10:59:33.225Z</time></trkpt><trkpt lat="44.6794982" lon="7.9479482"><ele>201.6</ele><time>2026-04-06T10:59:35.226Z</time></trkpt><trkpt lat="44.6795308" lon="7.9480695"><ele>202.0</ele><time>2026-04-06T10:59:36.225Z</time></trkpt><trkpt lat="44.6795619" lon="7.9482129"><ele>202.0</ele><time>2026-04-06T10:59:37.225Z</time></trkpt><trkpt lat="44.6795981" lon="7.9483684"><ele>202.0</ele><time>2026-04-06T10:59:38.225Z</time></trkpt><trkpt lat="44.6796423" lon="7.9485471"><ele>202.0</ele><time>2026-04-06T10:59:39.225Z</time></trkpt><trkpt lat="44.6796829" lon="7.948745"><ele>202.0</ele><time>2026-04-06T10:59:40.225Z</time></trkpt><trkpt lat="44.6797273" lon="7.9489766"><ele>205.0</ele><time>2026-04-06T10:59:41.225Z</time></trkpt><trkpt lat="44.679775" lon="7.9492106"><ele>208.0</ele><time>2026-04-06T10:59:42.225Z</time></trkpt><trkpt lat="44.6798402" lon="7.9494458"><ele>211.0</ele><time>2026-04-06T10:59:43.225Z</time></trkpt><trkpt lat="44.6799046" lon="7.9496933"><ele>211.0</ele><time>2026-04-06T10:59:44.225Z</time></trkpt><trkpt lat="44.6799645" lon="7.9499451"><ele>211.0</ele><time>2026-04-06T10:59:45.225Z</time></trkpt><trkpt lat="44.6800117" lon="7.9501907"><ele>211.0</ele><time>2026-04-06T10:59:46.225Z</time></trkpt><trkpt lat="44.6800491" lon="7.9504403"><ele>212.0</ele><time>2026-04-06T10:59:47.225Z</time></trkpt><trkpt lat="44.6800905" lon="7.9506608"><ele>213.0</ele><time>2026-04-06T10:59:48.225Z</time></trkpt><trkpt lat="44.6801258" lon="7.9508511"><ele>214.0</ele><time>2026-04-06T10:59:49.225Z</time></trkpt><trkpt lat="44.6801647" lon="7.9510356"><ele>215.0</ele><time>2026-04-06T10:59:50.225Z</time></trkpt><trkpt lat="44.6802117" lon="7.9512"><ele>214.8</ele><time>2026-04-06T10:59:51.225Z</time></trkpt><trkpt lat="44.6802614" lon="7.9513575"><ele>214.6</ele><time>2026-04-06T10:59:52.225Z</time></trkpt><trkpt lat="44.6803129" lon="7.9515032"><ele>214.39999999999998</ele><time>2026-04-06T10:59:53.225Z</time></trkpt><trkpt lat="44.6803517" lon="7.9516442"><ele>214.2</ele><time>2026-04-06T10:59:54.226Z</time></trkpt><trkpt lat="44.6803808" lon="7.9517707"><ele>214.0</ele><time>2026-04-06T10:59:55.225Z</time></trkpt><trkpt lat="44.6803839" lon="7.9518844"><ele>214.0</ele><time>2026-04-06T10:59:56.225Z</time></trkpt><trkpt lat="44.6803587" lon="7.9519968"><ele>213.99999999999997</ele><time>2026-04-06T10:59:57.225Z</time></trkpt><trkpt lat="44.6803035" lon="7.9521151"><ele>213.99999999999997</ele><time>2026-04-06T10:59:58.225Z</time></trkpt><trkpt lat="44.6802594" lon="7.952228"><ele>214.0</ele><time>2026-04-06T10:59:59.225Z</time></trkpt><trkpt lat="44.6802436" lon="7.9523554"><ele>214.0</ele><time>2026-04-06T11:00:00.225Z</time></trkpt><trkpt lat="44.6802743" lon="7.952494"><ele>214.75</ele><time>2026-04-06T11:00:01.225Z</time></trkpt><trkpt lat="44.6803213" lon="7.9526351"><ele>215.5</ele><time>2026-04-06T11:00:02.225Z</time></trkpt><trkpt lat="44.6803769" lon="7.9528031"><ele>216.25</ele><time>2026-04-06T11:00:03.225Z</time></trkpt><trkpt lat="44.6804365" lon="7.9529607"><ele>217.0</ele><time>2026-04-06T11:00:04.225Z</time></trkpt><trkpt lat="44.680485" lon="7.9531076"><ele>217.0</ele><time>2026-04-06T11:00:05.225Z</time></trkpt><trkpt lat="44.6805315" lon="7.9532438"><ele>217.0</ele><time>2026-04-06T11:00:06.225Z</time></trkpt><trkpt lat="44.6805781" lon="7.9533754"><ele>217.0</ele><time>2026-04-06T11:00:07.225Z</time></trkpt><trkpt lat="44.6806255" lon="7.9535268"><ele>217.0</ele><time>2026-04-06T11:00:08.225Z</time></trkpt><trkpt lat="44.680669" lon="7.9536868"><ele>217.5</ele><time>2026-04-06T11:00:09.225Z</time></trkpt><trkpt lat="44.6807134" lon="7.9538483"><ele>218.0</ele><time>2026-04-06T11:00:10.225Z</time></trkpt><trkpt lat="44.6807408" lon="7.9540015"><ele>218.5</ele><time>2026-04-06T11:00:11.225Z</time></trkpt><trkpt lat="44.6807444" lon="7.95416"><ele>219.0</ele><time>2026-04-06T11:00:12.225Z</time></trkpt><trkpt lat="44.6807291" lon="7.9543418"><ele>220.0</ele><time>2026-04-06T11:00:13.225Z</time></trkpt><trkpt lat="44.6807006" lon="7.9545438"><ele>221.0</ele><time>2026-04-06T11:00:14.225Z</time></trkpt><trkpt lat="44.6806889" lon="7.9547581"><ele>222.0</ele><time>2026-04-06T11:00:15.225Z</time></trkpt><trkpt lat="44.6806813" lon="7.9549905"><ele>222.0</ele><time>2026-04-06T11:00:16.225Z</time></trkpt><trkpt lat="44.6806766" lon="7.9552407"><ele>222.0</ele><time>2026-04-06T11:00:17.225Z</time></trkpt><trkpt lat="44.6806725" lon="7.9554988"><ele>222.0</ele><time>2026-04-06T11:00:18.225Z</time></trkpt><trkpt lat="44.6806677" lon="7.9557437"><ele>222.33333333333331</ele><time>2026-04-06T11:00:19.225Z</time></trkpt><trkpt lat="44.6806652" lon="7.9559661"><ele>222.66666666666666</ele><time>2026-04-06T11:00:20.225Z</time></trkpt><trkpt lat="44.6806677" lon="7.9561826"><ele>223.0</ele><time>2026-04-06T11:00:21.225Z</time></trkpt><trkpt lat="44.6806815" lon="7.9563852"><ele>223.0</ele><time>2026-04-06T11:00:22.225Z</time></trkpt><trkpt lat="44.6806891" lon="7.9565783"><ele>223.0</ele><time>2026-04-06T11:00:23.225Z</time></trkpt><trkpt lat="44.6806858" lon="7.9567755"><ele>223.0</ele><time>2026-04-06T11:00:24.225Z</time></trkpt><trkpt lat="44.680672" lon="7.9569736"><ele>223.0</ele><time>2026-04-06T11:00:25.225Z</time></trkpt><trkpt lat="44.680663" lon="7.9571701"><ele>223.0</ele><time>2026-04-06T11:00:26.225Z</time></trkpt><trkpt lat="44.6806513" lon="7.9573679"><ele>223.0</ele><time>2026-04-06T11:00:27.225Z</time></trkpt><trkpt lat="44.6806393" lon="7.957563"><ele>223.0</ele><time>2026-04-06T11:00:28.225Z</time></trkpt><trkpt lat="44.680617" lon="7.9577568"><ele>223.0</ele><time>2026-04-06T11:00:29.225Z</time></trkpt><trkpt lat="44.6805894" lon="7.9579666"><ele>222.75</ele><time>2026-04-06T11:00:30.225Z</time></trkpt><trkpt lat="44.6805627" lon="7.958169"><ele>222.5</ele><time>2026-04-06T11:00:31.225Z</time></trkpt><trkpt lat="44.6805378" lon="7.9583726"><ele>222.25</ele><time>2026-04-06T11:00:32.225Z</time></trkpt><trkpt lat="44.6805093" lon="7.9585648"><ele>222.0</ele><time>2026-04-06T11:00:33.225Z</time></trkpt><trkpt lat="44.6804803" lon="7.9587399"><ele>221.75</ele><time>2026-04-06T11:00:34.225Z</time></trkpt><trkpt lat="44.6804506" lon="7.9589214"><ele>221.5</ele><time>2026-04-06T11:00:35.225Z</time></trkpt><trkpt lat="44.6804212" lon="7.9591023"><ele>221.25</ele><time>2026-04-06T11:00:36.225Z</time></trkpt><trkpt lat="44.6803885" lon="7.9592817"><ele>221.0</ele><time>2026-04-06T11:00:37.225Z</time></trkpt><trkpt lat="44.6803521" lon="7.9594515"><ele>221.0</ele><time>2026-04-06T11:00:38.225Z</time></trkpt><trkpt lat="44.6803209" lon="7.9596093"><ele>221.0</ele><time>2026-04-06T11:00:39.225Z</time></trkpt><trkpt lat="44.680278" lon="7.9597666"><ele>221.0</ele><time>2026-04-06T11:00:40.225Z</time></trkpt><trkpt lat="44.680228" lon="7.9599343"><ele>221.0</ele><time>2026-04-06T11:00:41.225Z</time></trkpt><trkpt lat="44.6801558" lon="7.9601063"><ele>226.0</ele><time>2026-04-06T11:00:42.225Z</time></trkpt><trkpt lat="44.6800668" lon="7.9602864"><ele>231.0</ele><time>2026-04-06T11:00:43.225Z</time></trkpt><trkpt lat="44.6799728" lon="7.9604808"><ele>236.0</ele><time>2026-04-06T11:00:44.225Z</time></trkpt><trkpt lat="44.679884" lon="7.9606684"><ele>236.0</ele><time>2026-04-06T11:00:45.225Z</time></trkpt><trkpt lat="44.6798097" lon="7.9608497"><ele>236.0</ele><time>2026-04-06T11:00:46.225Z</time></trkpt><trkpt lat="44.6797505" lon="7.9610416"><ele>236.0</ele><time>2026-04-06T11:00:47.225Z</time></trkpt><trkpt lat="44.6797188" lon="7.9612367"><ele>236.0</ele><time>2026-04-06T11:00:48.226Z</time></trkpt><trkpt lat="44.6797061" lon="7.9614473"><ele>235.5</ele><time>2026-04-06T11:00:49.225Z</time></trkpt><trkpt lat="44.6796981" lon="7.9616499"><ele>235.0</ele><time>2026-04-06T11:00:50.225Z</time></trkpt><trkpt lat="44.6796894" lon="7.9618262"><ele>234.5</ele><time>2026-04-06T11:00:51.225Z</time></trkpt><trkpt lat="44.6796779" lon="7.9619792"><ele>234.0</ele><time>2026-04-06T11:00:52.225Z</time></trkpt><trkpt lat="44.6796551" lon="7.9621137"><ele>233.6</ele><time>2026-04-06T11:00:53.225Z</time></trkpt><trkpt lat="44.6796238" lon="7.9622274"><ele>233.2</ele><time>2026-04-06T11:00:54.225Z</time></trkpt><trkpt lat="44.6795577" lon="7.962333"><ele>232.79999999999998</ele><time>2026-04-06T11:00:55.225Z</time></trkpt><trkpt lat="44.6794583" lon="7.9624194"><ele>232.39999999999998</ele><time>2026-04-06T11:00:56.225Z</time></trkpt><trkpt lat="44.6793465" lon="7.962458"><ele>232.0</ele><time>2026-04-06T11:00:57.225Z</time></trkpt><trkpt lat="44.6792464" lon="7.9625017"><ele>233.39999999999998</ele><time>2026-04-06T11:00:58.225Z</time></trkpt><trkpt lat="44.6791673" lon="7.9625792"><ele>234.79999999999998</ele><time>2026-04-06T11:00:59.225Z</time></trkpt><trkpt lat="44.6791169" lon="7.9626832"><ele>236.2</ele><time>2026-04-06T11:01:00.225Z</time></trkpt><trkpt lat="44.6790847" lon="7.9628252"><ele>237.6</ele><time>2026-04-06T11:01:01.225Z</time></trkpt><trkpt lat="44.6790661" lon="7.9629407"><ele>239.0</ele><time>2026-04-06T11:01:02.225Z</time></trkpt><trkpt lat="44.6790512" lon="7.963043"><ele>239.0</ele><time>2026-04-06T11:01:03.225Z</time></trkpt><trkpt lat="44.679026" lon="7.9631574"><ele>238.99999999999997</ele><time>2026-04-06T11:01:04.225Z</time></trkpt><trkpt lat="44.6789945" lon="7.9632934"><ele>238.99999999999997</ele><time>2026-04-06T11:01:05.225Z</time></trkpt><trkpt lat="44.6789642" lon="7.9634455"><ele>239.0</ele><time>2026-04-06T11:01:06.225Z</time></trkpt><trkpt lat="44.6789312" lon="7.963588"><ele>239.0</ele><time>2026-04-06T11:01:07.225Z</time></trkpt><trkpt lat="44.6788954" lon="7.9637376"><ele>237.75</ele><time>2026-04-06T11:01:08.225Z</time></trkpt><trkpt lat="44.6788609" lon="7.9638929"><ele>236.5</ele><time>2026-04-06T11:01:09.225Z</time></trkpt><trkpt lat="44.6788278" lon="7.9640577"><ele>235.25</ele><time>2026-04-06T11:01:10.225Z</time></trkpt><trkpt lat="44.6788029" lon="7.9642426"><ele>234.0</ele><time>2026-04-06T11:01:11.225Z</time></trkpt><trkpt lat="44.6787831" lon="7.9644349"><ele>233.79999999999998</ele><time>2026-04-06T11:01:12.225Z</time></trkpt><trkpt lat="44.6787804" lon="7.9646198"><ele>233.59999999999997</ele><time>2026-04-06T11:01:13.225Z</time></trkpt><trkpt lat="44.6787811" lon="7.964782"><ele>233.4</ele><time>2026-04-06T11:01:14.225Z</time></trkpt><trkpt lat="44.678782" lon="7.9649126"><ele>233.2</ele><time>2026-04-06T11:01:15.225Z</time></trkpt><trkpt lat="44.6787851" lon="7.96502"><ele>233.0</ele><time>2026-04-06T11:01:16.225Z</time></trkpt><trkpt lat="44.6787856" lon="7.9651146"><ele>233.00000000000003</ele><time>2026-04-06T11:01:17.225Z</time></trkpt><trkpt lat="44.6787733" lon="7.9652036"><ele>233.0</ele><time>2026-04-06T11:01:18.225Z</time></trkpt><trkpt lat="44.6787719" lon="7.9653554"><ele>233.0</ele><time>2026-04-06T11:01:20.225Z</time></trkpt><trkpt lat="44.678757" lon="7.9655143"><ele>233.0</ele><time>2026-04-06T11:01:22.225Z</time></trkpt><trkpt lat="44.6787377" lon="7.9656107"><ele>233.00000000000003</ele><time>2026-04-06T11:01:23.225Z</time></trkpt><trkpt lat="44.6787103" lon="7.9657325"><ele>233.0</ele><time>2026-04-06T11:01:24.225Z</time></trkpt><trkpt lat="44.6786863" lon="7.9658676"><ele>233.0</ele><time>2026-04-06T11:01:25.225Z</time></trkpt><trkpt lat="44.6786642" lon="7.9660249"><ele>233.0</ele><time>2026-04-06T11:01:26.225Z</time></trkpt><trkpt lat="44.6786437" lon="7.9661994"><ele>233.0</ele><time>2026-04-06T11:01:27.225Z</time></trkpt><trkpt lat="44.6786307" lon="7.9663873"><ele>233.0</ele><time>2026-04-06T11:01:28.225Z</time></trkpt><trkpt lat="44.6786246" lon="7.9665988"><ele>235.5</ele><time>2026-04-06T11:01:29.225Z</time></trkpt><trkpt lat="44.6786203" lon="7.9667975"><ele>238.0</ele><time>2026-04-06T11:01:30.226Z</time></trkpt><trkpt lat="44.6786321" lon="7.9669783"><ele>240.5</ele><time>2026-04-06T11:01:31.225Z</time></trkpt><trkpt lat="44.6786458" lon="7.9671465"><ele>243.0</ele><time>2026-04-06T11:01:32.225Z</time></trkpt><trkpt lat="44.6786727" lon="7.9673172"><ele>243.0</ele><time>2026-04-06T11:01:33.225Z</time></trkpt><trkpt lat="44.6787063" lon="7.9674932"><ele>243.0</ele><time>2026-04-06T11:01:34.225Z</time></trkpt><trkpt lat="44.6787434" lon="7.9676788"><ele>243.0</ele><time>2026-04-06T11:01:35.225Z</time></trkpt><trkpt lat="44.6787932" lon="7.9678756"><ele>243.0</ele><time>2026-04-06T11:01:36.225Z</time></trkpt><trkpt lat="44.678842" lon="7.9680643"><ele>244.25</ele><time>2026-04-06T11:01:37.225Z</time></trkpt><trkpt lat="44.6788974" lon="7.9682474"><ele>245.5</ele><time>2026-04-06T11:01:38.225Z</time></trkpt><trkpt lat="44.6789455" lon="7.9684242"><ele>246.75</ele><time>2026-04-06T11:01:39.225Z</time></trkpt><trkpt lat="44.6789815" lon="7.9686055"><ele>248.0</ele><time>2026-04-06T11:01:40.225Z</time></trkpt><trkpt lat="44.6789994" lon="7.9687815"><ele>248.0</ele><time>2026-04-06T11:01:41.225Z</time></trkpt><trkpt lat="44.6789966" lon="7.9689536"><ele>248.0</ele><time>2026-04-06T11:01:42.225Z</time></trkpt><trkpt lat="44.6789943" lon="7.9691224"><ele>248.0</ele><time>2026-04-06T11:01:43.225Z</time></trkpt><trkpt lat="44.6789863" lon="7.9692874"><ele>248.0</ele><time>2026-04-06T11:01:44.225Z</time></trkpt><trkpt lat="44.6789836" lon="7.9694388"><ele>248.0</ele><time>2026-04-06T11:01:45.225Z</time></trkpt><trkpt lat="44.6789867" lon="7.9695871"><ele>248.0</ele><time>2026-04-06T11:01:46.225Z</time></trkpt><trkpt lat="44.6789839" lon="7.9697301"><ele>248.0</ele><time>2026-04-06T11:01:47.225Z</time></trkpt><trkpt lat="44.6789787" lon="7.9698765"><ele>248.0</ele><time>2026-04-06T11:01:48.225Z</time></trkpt><trkpt lat="44.6789673" lon="7.9700253"><ele>248.0</ele><time>2026-04-06T11:01:49.225Z</time></trkpt><trkpt lat="44.6789536" lon="7.9701756"><ele>246.8</ele><time>2026-04-06T11:01:50.225Z</time></trkpt><trkpt lat="44.6789379" lon="7.9703178"><ele>245.60000000000002</ele><time>2026-04-06T11:01:51.225Z</time></trkpt><trkpt lat="44.6789215" lon="7.9704517"><ele>244.39999999999998</ele><time>2026-04-06T11:01:52.225Z</time></trkpt><trkpt lat="44.6788975" lon="7.9705857"><ele>243.2</ele><time>2026-04-06T11:01:53.225Z</time></trkpt><trkpt lat="44.6788662" lon="7.9707305"><ele>242.0</ele><time>2026-04-06T11:01:54.225Z</time></trkpt><trkpt lat="44.6788294" lon="7.9708924"><ele>241.75</ele><time>2026-04-06T11:01:55.225Z</time></trkpt><trkpt lat="44.6787996" lon="7.9710647"><ele>241.5</ele><time>2026-04-06T11:01:56.225Z</time></trkpt><trkpt lat="44.6787897" lon="7.9712377"><ele>241.25</ele><time>2026-04-06T11:01:57.225Z</time></trkpt><trkpt lat="44.6787863" lon="7.9713932"><ele>241.0</ele><time>2026-04-06T11:01:58.225Z</time></trkpt><trkpt lat="44.6787869" lon="7.9715417"><ele>241.0</ele><time>2026-04-06T11:01:59.225Z</time></trkpt><trkpt lat="44.6787965" lon="7.9716814"><ele>241.0</ele><time>2026-04-06T11:02:00.225Z</time></trkpt><trkpt lat="44.6788173" lon="7.9718262"><ele>241.0</ele><time>2026-04-06T11:02:01.225Z</time></trkpt><trkpt lat="44.6788435" lon="7.9719969"><ele>241.0</ele><time>2026-04-06T11:02:02.225Z</time></trkpt><trkpt lat="44.6788701" lon="7.9721697"><ele>241.0</ele><time>2026-04-06T11:02:03.225Z</time></trkpt><trkpt lat="44.6788991" lon="7.9723289"><ele>241.00000000000003</ele><time>2026-04-06T11:02:04.225Z</time></trkpt><trkpt lat="44.6789216" lon="7.9724857"><ele>241.00000000000003</ele><time>2026-04-06T11:02:05.225Z</time></trkpt><trkpt lat="44.6789433" lon="7.9726298"><ele>241.0</ele><time>2026-04-06T11:02:06.225Z</time></trkpt><trkpt lat="44.6789658" lon="7.9727601"><ele>241.0</ele><time>2026-04-06T11:02:07.225Z</time></trkpt><trkpt lat="44.6789851" lon="7.9728785"><ele>241.66666666666666</ele><time>2026-04-06T11:02:08.225Z</time></trkpt><trkpt lat="44.6789917" lon="7.9729821"><ele>242.33333333333331</ele><time>2026-04-06T11:02:09.225Z</time></trkpt><trkpt lat="44.6789936" lon="7.9730706"><ele>243.0</ele><time>2026-04-06T11:02:10.225Z</time></trkpt><trkpt lat="44.678992" lon="7.97316"><ele>243.66666666666669</ele><time>2026-04-06T11:02:11.225Z</time></trkpt><trkpt lat="44.6789845" lon="7.9733196"><ele>244.33333333333334</ele><time>2026-04-06T11:02:13.225Z</time></trkpt><trkpt lat="44.678954" lon="7.9734767"><ele>245.0</ele><time>2026-04-06T11:02:15.225Z</time></trkpt><trkpt lat="44.6789356" lon="7.9735906"><ele>245.66666666666669</ele><time>2026-04-06T11:02:17.225Z</time></trkpt><trkpt lat="44.6789151" lon="7.9736926"><ele>246.33333333333334</ele><time>2026-04-06T11:02:19.225Z</time></trkpt><trkpt lat="44.6788693" lon="7.9737743"><ele>247.0</ele><time>2026-04-06T11:02:21.225Z</time></trkpt><trkpt lat="44.6787989" lon="7.9738205"><ele>247.66666666666669</ele><time>2026-04-06T11:02:23.225Z</time></trkpt><trkpt lat="44.6787182" lon="7.9738393"><ele>248.33333333333334</ele><time>2026-04-06T11:02:25.225Z</time></trkpt><trkpt lat="44.6786278" lon="7.9738006"><ele>249.0</ele><time>2026-04-06T11:02:27.225Z</time></trkpt><trkpt lat="44.6785418" lon="7.9737185"><ele>249.0</ele><time>2026-04-06T11:02:29.225Z</time></trkpt><trkpt lat="44.6784839" lon="7.9736302"><ele>248.99999999999997</ele><time>2026-04-06T11:02:31.225Z</time></trkpt><trkpt lat="44.6784208" lon="7.9735309"><ele>248.99999999999997</ele><time>2026-04-06T11:02:33.225Z</time></trkpt><trkpt lat="44.6783483" lon="7.9734255"><ele>249.0</ele><time>2026-04-06T11:02:35.225Z</time></trkpt><trkpt lat="44.6782907" lon="7.9733208"><ele>249.0</ele><time>2026-04-06T11:02:37.225Z</time></trkpt><trkpt lat="44.6782286" lon="7.9732108"><ele>247.0</ele><time>2026-04-06T11:02:39.225Z</time></trkpt><trkpt lat="44.6781648" lon="7.9731208"><ele>244.99999999999997</ele><time>2026-04-06T11:02:41.225Z</time></trkpt><trkpt lat="44.67812" lon="7.973019"><ele>242.99999999999997</ele><time>2026-04-06T11:02:43.225Z</time></trkpt><trkpt lat="44.6780658" lon="7.972907"><ele>241.0</ele><time>2026-04-06T11:02:45.225Z</time></trkpt><trkpt lat="44.6780143" lon="7.9727869"><ele>239.0</ele><time>2026-04-06T11:02:47.225Z</time></trkpt><trkpt lat="44.6779674" lon="7.9726608"><ele>239.0</ele><time>2026-04-06T11:02:49.225Z</time></trkpt><trkpt lat="44.6779206" lon="7.9725362"><ele>238.99999999999997</ele><time>2026-04-06T11:02:51.225Z</time></trkpt><trkpt lat="44.6778666" lon="7.9724298"><ele>238.99999999999997</ele><time>2026-04-06T11:02:53.225Z</time></trkpt><trkpt lat="44.6777765" lon="7.9723344"><ele>239.0</ele><time>2026-04-06T11:02:55.225Z</time></trkpt><trkpt lat="44.6776997" lon="7.9722737"><ele>239.0</ele><time>2026-04-06T11:02:56.225Z</time></trkpt><trkpt lat="44.6776143" lon="7.9722074"><ele>236.66666666666669</ele><time>2026-04-06T11:02:57.225Z</time></trkpt><trkpt lat="44.677535" lon="7.9721508"><ele>234.33333333333334</ele><time>2026-04-06T11:02:58.225Z</time></trkpt><trkpt lat="44.6774633" lon="7.9721001"><ele>232.0</ele><time>2026-04-06T11:02:59.225Z</time></trkpt><trkpt lat="44.6774022" lon="7.972045"><ele>229.66666666666669</ele><time>2026-04-06T11:03:00.225Z</time></trkpt><trkpt lat="44.6773604" lon="7.9719711"><ele>227.33333333333334</ele><time>2026-04-06T11:03:01.225Z</time></trkpt><trkpt lat="44.6773349" lon="7.9718681"><ele>225.0</ele><time>2026-04-06T11:03:02.225Z</time></trkpt><trkpt lat="44.6773166" lon="7.9717465"><ele>225.66666666666666</ele><time>2026-04-06T11:03:03.225Z</time></trkpt><trkpt lat="44.6773121" lon="7.9716443"><ele>226.33333333333331</ele><time>2026-04-06T11:03:04.225Z</time></trkpt><trkpt lat="44.6773085" lon="7.9715554"><ele>227.0</ele><time>2026-04-06T11:03:05.225Z</time></trkpt><trkpt lat="44.677324" lon="7.9714645"><ele>227.66666666666666</ele><time>2026-04-06T11:03:06.225Z</time></trkpt><trkpt lat="44.6773614" lon="7.97137"><ele>228.33333333333331</ele><time>2026-04-06T11:03:07.225Z</time></trkpt><trkpt lat="44.6774023" lon="7.9712624"><ele>229.0</ele><time>2026-04-06T11:03:08.225Z</time></trkpt><trkpt lat="44.677445" lon="7.9711363"><ele>229.0</ele><time>2026-04-06T11:03:09.225Z</time></trkpt><trkpt lat="44.6774735" lon="7.9709896"><ele>229.0</ele><time>2026-04-06T11:03:10.225Z</time></trkpt><trkpt lat="44.677497" lon="7.9708318"><ele>229.0</ele><time>2026-04-06T11:03:11.225Z</time></trkpt><trkpt lat="44.6775256" lon="7.9706734"><ele>229.0</ele><time>2026-04-06T11:03:12.225Z</time></trkpt><trkpt lat="44.6775564" lon="7.9705234"><ele>228.16666666666666</ele><time>2026-04-06T11:03:13.225Z</time></trkpt><trkpt lat="44.677585" lon="7.9703988"><ele>227.33333333333331</ele><time>2026-04-06T11:03:14.226Z</time></trkpt><trkpt lat="44.6776104" lon="7.9702975"><ele>226.5</ele><time>2026-04-06T11:03:15.225Z</time></trkpt><trkpt lat="44.6776241" lon="7.9702085"><ele>225.66666666666669</ele><time>2026-04-06T11:03:16.225Z</time></trkpt><trkpt lat="44.6776453" lon="7.9700626"><ele>224.83333333333334</ele><time>2026-04-06T11:03:18.225Z</time></trkpt><trkpt lat="44.6776181" lon="7.9699493"><ele>224.0</ele><time>2026-04-06T11:03:20.225Z</time></trkpt><trkpt lat="44.6775098" lon="7.9699868"><ele>223.33333333333334</ele><time>2026-04-06T11:03:22.225Z</time></trkpt><trkpt lat="44.6774457" lon="7.9700213"><ele>222.66666666666669</ele><time>2026-04-06T11:03:23.225Z</time></trkpt><trkpt lat="44.6773785" lon="7.9700244"><ele>222.0</ele><time>2026-04-06T11:03:24.225Z</time></trkpt><trkpt lat="44.6773066" lon="7.9700115"><ele>221.33333333333331</ele><time>2026-04-06T11:03:25.225Z</time></trkpt><trkpt lat="44.6772402" lon="7.970006"><ele>220.66666666666666</ele><time>2026-04-06T11:03:26.225Z</time></trkpt><trkpt lat="44.677124" lon="7.9700158"><ele>220.0</ele><time>2026-04-06T11:03:28.225Z</time></trkpt><trkpt lat="44.6770213" lon="7.9700146"><ele>218.2</ele><time>2026-04-06T11:03:30.225Z</time></trkpt><trkpt lat="44.6769312" lon="7.9700053"><ele>216.4</ele><time>2026-04-06T11:03:32.225Z</time></trkpt><trkpt lat="44.6768549" lon="7.9699999"><ele>214.60000000000002</ele><time>2026-04-06T11:03:34.225Z</time></trkpt><trkpt lat="44.67678" lon="7.9700053"><ele>212.8</ele><time>2026-04-06T11:03:37.225Z</time></trkpt><trkpt lat="44.6766587" lon="7.9701273"><ele>211.0</ele><time>2026-04-06T11:03:49.225Z</time></trkpt><trkpt lat="44.6766444" lon="7.9702372"><ele>210.99999999999997</ele><time>2026-04-06T11:03:50.226Z</time></trkpt><trkpt lat="44.6766266" lon="7.9703548"><ele>211.0</ele><time>2026-04-06T11:03:51.225Z</time></trkpt><trkpt lat="44.6766017" lon="7.9704787"><ele>211.0</ele><time>2026-04-06T11:03:52.225Z</time></trkpt><trkpt lat="44.676584" lon="7.9705977"><ele>211.0</ele><time>2026-04-06T11:03:53.225Z</time></trkpt><trkpt lat="44.6765737" lon="7.9707194"><ele>210.99999999999997</ele><time>2026-04-06T11:03:54.225Z</time></trkpt><trkpt lat="44.6765657" lon="7.9708277"><ele>211.0</ele><time>2026-04-06T11:03:55.225Z</time></trkpt><trkpt lat="44.6765537" lon="7.970925"><ele>211.4</ele><time>2026-04-06T11:03:56.225Z</time></trkpt><trkpt lat="44.6765268" lon="7.9710627"><ele>211.8</ele><time>2026-04-06T11:03:58.225Z</time></trkpt><trkpt lat="44.6764286" lon="7.9711265"><ele>212.20000000000002</ele><time>2026-04-06T11:04:00.225Z</time></trkpt><trkpt lat="44.6763575" lon="7.9711057"><ele>212.60000000000002</ele><time>2026-04-06T11:04:01.225Z</time></trkpt><trkpt lat="44.6762588" lon="7.9710561"><ele>213.0</ele><time>2026-04-06T11:04:02.225Z</time></trkpt><trkpt lat="44.6761623" lon="7.9709835"><ele>212.5</ele><time>2026-04-06T11:04:03.225Z</time></trkpt><trkpt lat="44.6760689" lon="7.9708407"><ele>212.0</ele><time>2026-04-06T11:04:04.225Z</time></trkpt><trkpt lat="44.6759883" lon="7.9706627"><ele>211.5</ele><time>2026-04-06T11:04:05.225Z</time></trkpt><trkpt lat="44.6759401" lon="7.9704695"><ele>211.0</ele><time>2026-04-06T11:04:06.226Z</time></trkpt><trkpt lat="44.6758855" lon="7.970279"><ele>211.0</ele><time>2026-04-06T11:04:07.225Z</time></trkpt><trkpt lat="44.6758198" lon="7.9701027"><ele>211.0</ele><time>2026-04-06T11:04:08.225Z</time></trkpt><trkpt lat="44.6757344" lon="7.9699506"><ele>211.0</ele><time>2026-04-06T11:04:09.225Z</time></trkpt><trkpt lat="44.6756378" lon="7.9698254"><ele>211.0</ele><time>2026-04-06T11:04:10.225Z</time></trkpt><trkpt lat="44.6755347" lon="7.9696974"><ele>211.49999999999997</ele><time>2026-04-06T11:04:11.225Z</time></trkpt><trkpt lat="44.6754458" lon="7.9695853"><ele>212.0</ele><time>2026-04-06T11:04:12.225Z</time></trkpt><trkpt lat="44.6753811" lon="7.9694777"><ele>212.5</ele><time>2026-04-06T11:04:13.225Z</time></trkpt><trkpt lat="44.6753359" lon="7.9694091"><ele>213.0</ele><time>2026-04-06T11:04:14.225Z</time></trkpt><trkpt lat="44.6753102" lon="7.9693051"><ele>213.49999999999997</ele><time>2026-04-06T11:04:16.225Z</time></trkpt><trkpt lat="44.6753124" lon="7.9694045"><ele>214.0</ele><time>2026-04-06T11:04:21.225Z</time></trkpt><trkpt lat="44.6753753" lon="7.969493"><ele>214.0</ele><time>2026-04-06T11:04:23.225Z</time></trkpt><trkpt lat="44.6754364" lon="7.9695946"><ele>213.99999999999997</ele><time>2026-04-06T11:04:25.225Z</time></trkpt><trkpt lat="44.6755054" lon="7.9696975"><ele>213.99999999999997</ele><time>2026-04-06T11:04:27.225Z</time></trkpt><trkpt lat="44.6755697" lon="7.9698149"><ele>214.0</ele><time>2026-04-06T11:04:29.225Z</time></trkpt><trkpt lat="44.6755434" lon="7.9699823"><ele>214.0</ele><time>2026-04-06T11:04:31.225Z</time></trkpt><trkpt lat="44.6754972" lon="7.9700815"><ele>213.39999999999998</ele><time>2026-04-06T11:04:32.225Z</time></trkpt><trkpt lat="44.675444" lon="7.9701931"><ele>212.79999999999998</ele><time>2026-04-06T11:04:33.225Z</time></trkpt><trkpt lat="44.6753904" lon="7.9703014"><ele>212.2</ele><time>2026-04-06T11:04:34.225Z</time></trkpt><trkpt lat="44.6753308" lon="7.9703997"><ele>211.60000000000002</ele><time>2026-04-06T11:04:35.225Z</time></trkpt><trkpt lat="44.6752614" lon="7.9705082"><ele>211.0</ele><time>2026-04-06T11:04:36.225Z</time></trkpt><trkpt lat="44.6751867" lon="7.9706217"><ele>212.60000000000002</ele><time>2026-04-06T11:04:37.225Z</time></trkpt><trkpt lat="44.6751125" lon="7.9707365"><ele>214.2</ele><time>2026-04-06T11:04:38.225Z</time></trkpt><trkpt lat="44.6750397" lon="7.9708561"><ele>215.79999999999998</ele><time>2026-04-06T11:04:39.225Z</time></trkpt><trkpt lat="44.674964" lon="7.9709708"><ele>217.39999999999998</ele><time>2026-04-06T11:04:40.225Z</time></trkpt><trkpt lat="44.6748929" lon="7.9710838"><ele>219.0</ele><time>2026-04-06T11:04:41.225Z</time></trkpt><trkpt lat="44.674826" lon="7.9711835"><ele>219.0</ele><time>2026-04-06T11:04:42.225Z</time></trkpt><trkpt lat="44.6747935" lon="7.9713201"><ele>219.0</ele><time>2026-04-06T11:04:43.225Z</time></trkpt><trkpt lat="44.6747658" lon="7.9714886"><ele>219.0</ele><time>2026-04-06T11:04:44.225Z</time></trkpt><trkpt lat="44.6747317" lon="7.9716476"><ele>219.0</ele><time>2026-04-06T11:04:45.225Z</time></trkpt><trkpt lat="44.6746905" lon="7.9718169"><ele>218.75</ele><time>2026-04-06T11:04:46.225Z</time></trkpt><trkpt lat="44.6746448" lon="7.9719776"><ele>218.5</ele><time>2026-04-06T11:04:47.225Z</time></trkpt><trkpt lat="44.6745976" lon="7.9721232"><ele>218.25</ele><time>2026-04-06T11:04:48.225Z</time></trkpt><trkpt lat="44.6745493" lon="7.9722724"><ele>218.0</ele><time>2026-04-06T11:04:49.225Z</time></trkpt><trkpt lat="44.6745051" lon="7.9724033"><ele>217.50000000000003</ele><time>2026-04-06T11:04:50.225Z</time></trkpt><trkpt lat="44.6744679" lon="7.9725237"><ele>217.0</ele><time>2026-04-06T11:04:51.226Z</time></trkpt><trkpt lat="44.6744303" lon="7.9726298"><ele>216.5</ele><time>2026-04-06T11:04:52.225Z</time></trkpt><trkpt lat="44.6743881" lon="7.972712"><ele>216.0</ele><time>2026-04-06T11:04:53.225Z</time></trkpt><trkpt lat="44.6743441" lon="7.9727987"><ele>215.50000000000003</ele><time>2026-04-06T11:04:54.225Z</time></trkpt><trkpt lat="44.6743114" lon="7.9728964"><ele>215.0</ele><time>2026-04-06T11:04:55.225Z</time></trkpt><trkpt lat="44.674296" lon="7.9730244"><ele>216.6</ele><time>2026-04-06T11:04:56.225Z</time></trkpt><trkpt lat="44.6742887" lon="7.9731544"><ele>218.2</ele><time>2026-04-06T11:04:57.225Z</time></trkpt><trkpt lat="44.6742872" lon="7.9732841"><ele>219.8</ele><time>2026-04-06T11:04:58.226Z</time></trkpt><trkpt lat="44.6742831" lon="7.9734154"><ele>221.4</ele><time>2026-04-06T11:04:59.225Z</time></trkpt><trkpt lat="44.674265" lon="7.9735469"><ele>223.0</ele><time>2026-04-06T11:05:00.225Z</time></trkpt><trkpt lat="44.6742541" lon="7.9736788"><ele>223.0</ele><time>2026-04-06T11:05:01.225Z</time></trkpt><trkpt lat="44.6742374" lon="7.9738128"><ele>223.0</ele><time>2026-04-06T11:05:02.225Z</time></trkpt><trkpt lat="44.6742222" lon="7.9739613"><ele>223.0</ele><time>2026-04-06T11:05:03.225Z</time></trkpt><trkpt lat="44.6742142" lon="7.9741124"><ele>223.0</ele><time>2026-04-06T11:05:04.225Z</time></trkpt><trkpt lat="44.6742195" lon="7.9742503"><ele>223.0</ele><time>2026-04-06T11:05:05.225Z</time></trkpt><trkpt lat="44.6742187" lon="7.9743786"><ele>221.83333333333331</ele><time>2026-04-06T11:05:06.225Z</time></trkpt><trkpt lat="44.6742236" lon="7.9745002"><ele>220.66666666666666</ele><time>2026-04-06T11:05:07.225Z</time></trkpt><trkpt lat="44.6742343" lon="7.9746196"><ele>219.5</ele><time>2026-04-06T11:05:08.225Z</time></trkpt><trkpt lat="44.6742424" lon="7.9747381"><ele>218.33333333333331</ele><time>2026-04-06T11:05:09.225Z</time></trkpt><trkpt lat="44.6742496" lon="7.9748469"><ele>217.16666666666666</ele><time>2026-04-06T11:05:10.225Z</time></trkpt><trkpt lat="44.6742523" lon="7.9749513"><ele>216.0</ele><time>2026-04-06T11:05:11.225Z</time></trkpt><trkpt lat="44.6742356" lon="7.9750449"><ele>215.66666666666666</ele><time>2026-04-06T11:05:12.225Z</time></trkpt><trkpt lat="44.6742021" lon="7.9751464"><ele>215.33333333333331</ele><time>2026-04-06T11:05:13.225Z</time></trkpt><trkpt lat="44.6741766" lon="7.9752409"><ele>215.0</ele><time>2026-04-06T11:05:14.225Z</time></trkpt><trkpt lat="44.6741509" lon="7.9753588"><ele>214.66666666666666</ele><time>2026-04-06T11:05:15.225Z</time></trkpt><trkpt lat="44.6741305" lon="7.9754759"><ele>214.33333333333331</ele><time>2026-04-06T11:05:16.225Z</time></trkpt><trkpt lat="44.6741172" lon="7.9755939"><ele>214.0</ele><time>2026-04-06T11:05:17.225Z</time></trkpt><trkpt lat="44.6741167" lon="7.975702"><ele>213.99999999999997</ele><time>2026-04-06T11:05:18.225Z</time></trkpt><trkpt lat="44.6741279" lon="7.9758165"><ele>214.0</ele><time>2026-04-06T11:05:19.225Z</time></trkpt><trkpt lat="44.6741429" lon="7.9759193"><ele>214.0</ele><time>2026-04-06T11:05:20.225Z</time></trkpt><trkpt lat="44.6741596" lon="7.9760205"><ele>214.0</ele><time>2026-04-06T11:05:21.225Z</time></trkpt><trkpt lat="44.6741815" lon="7.976123"><ele>213.99999999999997</ele><time>2026-04-06T11:05:22.225Z</time></trkpt><trkpt lat="44.6742136" lon="7.9762315"><ele>214.0</ele><time>2026-04-06T11:05:23.225Z</time></trkpt><trkpt lat="44.6742479" lon="7.9763446"><ele>213.0</ele><time>2026-04-06T11:05:24.226Z</time></trkpt><trkpt lat="44.6742889" lon="7.9764677"><ele>211.99999999999997</ele><time>2026-04-06T11:05:25.225Z</time></trkpt><trkpt lat="44.6743343" lon="7.9765875"><ele>211.0</ele><time>2026-04-06T11:05:26.225Z</time></trkpt><trkpt lat="44.6743881" lon="7.9767024"><ele>210.0</ele><time>2026-04-06T11:05:27.225Z</time></trkpt><trkpt lat="44.674447" lon="7.9768106"><ele>209.0</ele><time>2026-04-06T11:05:28.225Z</time></trkpt><trkpt lat="44.6745062" lon="7.9769191"><ele>207.0</ele><time>2026-04-06T11:05:29.226Z</time></trkpt><trkpt lat="44.6745624" lon="7.9770355"><ele>205.0</ele><time>2026-04-06T11:05:30.225Z</time></trkpt><trkpt lat="44.6746083" lon="7.9771613"><ele>203.0</ele><time>2026-04-06T11:05:31.225Z</time></trkpt><trkpt lat="44.6746461" lon="7.9772963"><ele>201.0</ele><time>2026-04-06T11:05:32.225Z</time></trkpt><trkpt lat="44.6746752" lon="7.9774457"><ele>199.0</ele><time>2026-04-06T11:05:33.225Z</time></trkpt><trkpt lat="44.6746898" lon="7.9776025"><ele>199.0</ele><time>2026-04-06T11:05:34.225Z</time></trkpt><trkpt lat="44.674694" lon="7.977782"><ele>199.0</ele><time>2026-04-06T11:05:35.226Z</time></trkpt><trkpt lat="44.6746957" lon="7.9779683"><ele>199.0</ele><time>2026-04-06T11:05:36.225Z</time></trkpt><trkpt lat="44.6747053" lon="7.9781338"><ele>199.0</ele><time>2026-04-06T11:05:37.225Z</time></trkpt><trkpt lat="44.674718" lon="7.9782777"><ele>199.0</ele><time>2026-04-06T11:05:38.225Z</time></trkpt><trkpt lat="44.6747376" lon="7.9784002"><ele>199.0</ele><time>2026-04-06T11:05:39.225Z</time></trkpt><trkpt lat="44.6747576" lon="7.9784962"><ele>199.0</ele><time>2026-04-06T11:05:40.225Z</time></trkpt><trkpt lat="44.6747843" lon="7.9786415"><ele>199.0</ele><time>2026-04-06T11:05:42.225Z</time></trkpt><trkpt lat="44.6747696" lon="7.9787677"><ele>199.0</ele><time>2026-04-06T11:05:44.225Z</time></trkpt><trkpt lat="44.6746743" lon="7.9787847"><ele>197.0</ele><time>2026-04-06T11:05:46.225Z</time></trkpt><trkpt lat="44.6743912" lon="7.978717"><ele>195.0</ele><time>2026-04-06T11:05:50.226Z</time></trkpt><trkpt lat="44.6743074" lon="7.9786935"><ele>193.0</ele><time>2026-04-06T11:05:51.225Z</time></trkpt><trkpt lat="44.6742273" lon="7.9786696"><ele>193.0</ele><time>2026-04-06T11:05:52.225Z</time></trkpt><trkpt lat="44.6741472" lon="7.9786429"><ele>193.0</ele><time>2026-04-06T11:05:53.225Z</time></trkpt><trkpt lat="44.6740686" lon="7.9786232"><ele>193.0</ele><time>2026-04-06T11:05:54.225Z</time></trkpt><trkpt lat="44.6739863" lon="7.9786108"><ele>193.0</ele><time>2026-04-06T11:05:55.225Z</time></trkpt><trkpt lat="44.6738916" lon="7.9785903"><ele>193.0</ele><time>2026-04-06T11:05:56.225Z</time></trkpt><trkpt lat="44.6737703" lon="7.9785578"><ele>193.0</ele><time>2026-04-06T11:05:57.225Z</time></trkpt><trkpt lat="44.6736409" lon="7.9785289"><ele>193.0</ele><time>2026-04-06T11:05:58.225Z</time></trkpt><trkpt lat="44.6735091" lon="7.9785021"><ele>193.0</ele><time>2026-04-06T11:05:59.225Z</time></trkpt><trkpt lat="44.6733786" lon="7.9784777"><ele>193.0</ele><time>2026-04-06T11:06:00.225Z</time></trkpt><trkpt lat="44.6732571" lon="7.9784595"><ele>192.0</ele><time>2026-04-06T11:06:01.225Z</time></trkpt><trkpt lat="44.6731341" lon="7.9784458"><ele>191.0</ele><time>2026-04-06T11:06:02.225Z</time></trkpt><trkpt lat="44.6730293" lon="7.978438"><ele>190.0</ele><time>2026-04-06T11:06:03.225Z</time></trkpt><trkpt lat="44.6729318" lon="7.9784144"><ele>189.0</ele><time>2026-04-06T11:06:04.226Z</time></trkpt><trkpt lat="44.6728349" lon="7.9784105"><ele>188.0</ele><time>2026-04-06T11:06:05.225Z</time></trkpt><trkpt lat="44.6727376" lon="7.9784248"><ele>188.0</ele><time>2026-04-06T11:06:06.225Z</time></trkpt><trkpt lat="44.6726438" lon="7.9784706"><ele>188.0</ele><time>2026-04-06T11:06:07.225Z</time></trkpt><trkpt lat="44.6725493" lon="7.9785258"><ele>188.0</ele><time>2026-04-06T11:06:08.225Z</time></trkpt><trkpt lat="44.6724467" lon="7.9785849"><ele>188.0</ele><time>2026-04-06T11:06:09.225Z</time></trkpt><trkpt lat="44.6723433" lon="7.9786401"><ele>188.0</ele><time>2026-04-06T11:06:10.225Z</time></trkpt><trkpt lat="44.6722421" lon="7.9787006"><ele>188.0</ele><time>2026-04-06T11:06:11.225Z</time></trkpt><trkpt lat="44.67213" lon="7.9787563"><ele>188.0</ele><time>2026-04-06T11:06:12.225Z</time></trkpt><trkpt lat="44.6720115" lon="7.9788185"><ele>188.0</ele><time>2026-04-06T11:06:13.225Z</time></trkpt><trkpt lat="44.6719005" lon="7.9788905"><ele>188.0</ele><time>2026-04-06T11:06:14.225Z</time></trkpt><trkpt lat="44.6718157" lon="7.9789527"><ele>190.0</ele><time>2026-04-06T11:06:15.225Z</time></trkpt><trkpt lat="44.6717524" lon="7.9790205"><ele>192.0</ele><time>2026-04-06T11:06:16.225Z</time></trkpt><trkpt lat="44.6716811" lon="7.9791755"><ele>194.0</ele><time>2026-04-06T11:06:18.225Z</time></trkpt><trkpt lat="44.6716578" lon="7.9792746"><ele>196.0</ele><time>2026-04-06T11:06:19.225Z</time></trkpt><trkpt lat="44.6716346" lon="7.9793721"><ele>198.00000000000003</ele><time>2026-04-06T11:06:20.225Z</time></trkpt><trkpt lat="44.6716066" lon="7.9794762"><ele>200.0</ele><time>2026-04-06T11:06:21.225Z</time></trkpt><trkpt lat="44.6715742" lon="7.9795972"><ele>200.00000000000003</ele><time>2026-04-06T11:06:22.225Z</time></trkpt><trkpt lat="44.6715482" lon="7.9797297"><ele>200.0</ele><time>2026-04-06T11:06:23.225Z</time></trkpt><trkpt lat="44.67152" lon="7.9798242"><ele>200.0</ele><time>2026-04-06T11:06:24.225Z</time></trkpt><trkpt lat="44.6714887" lon="7.9799102"><ele>200.0</ele><time>2026-04-06T11:06:25.225Z</time></trkpt><trkpt lat="44.6714608" lon="7.9799983"><ele>200.00000000000003</ele><time>2026-04-06T11:06:26.225Z</time></trkpt><trkpt lat="44.6713934" lon="7.9801035"><ele>200.0</ele><time>2026-04-06T11:06:28.225Z</time></trkpt><trkpt lat="44.6713218" lon="7.9801272"><ele>198.83333333333334</ele><time>2026-04-06T11:06:29.225Z</time></trkpt><trkpt lat="44.6712454" lon="7.9801272"><ele>197.66666666666669</ele><time>2026-04-06T11:06:30.225Z</time></trkpt><trkpt lat="44.6711593" lon="7.9801258"><ele>196.5</ele><time>2026-04-06T11:06:31.226Z</time></trkpt><trkpt lat="44.6710732" lon="7.9801449"><ele>195.33333333333331</ele><time>2026-04-06T11:06:32.225Z</time></trkpt><trkpt lat="44.6710007" lon="7.9801554"><ele>194.16666666666666</ele><time>2026-04-06T11:06:33.225Z</time></trkpt><trkpt lat="44.6709081" lon="7.9801884"><ele>193.0</ele><time>2026-04-06T11:06:35.225Z</time></trkpt><trkpt lat="44.6708779" lon="7.9801041"><ele>195.49999999999997</ele><time>2026-04-06T11:06:50.225Z</time></trkpt><trkpt lat="44.6709327" lon="7.9800321"><ele>198.0</ele><time>2026-04-06T11:06:52.225Z</time></trkpt><trkpt lat="44.6709655" lon="7.9799521"><ele>200.5</ele><time>2026-04-06T11:06:54.225Z</time></trkpt><trkpt lat="44.6709174" lon="7.979847"><ele>203.0</ele><time>2026-04-06T11:06:57.225Z</time></trkpt><trkpt lat="44.6708576" lon="7.9797798"><ele>205.49999999999997</ele><time>2026-04-06T11:06:59.225Z</time></trkpt><trkpt lat="44.670836" lon="7.979686"><ele>208.0</ele><time>2026-04-06T11:07:01.225Z</time></trkpt><trkpt lat="44.6708643" lon="7.9795885"><ele>207.49999999999997</ele><time>2026-04-06T11:07:03.225Z</time></trkpt><trkpt lat="44.670916" lon="7.9794609"><ele>207.0</ele><time>2026-04-06T11:07:05.225Z</time></trkpt><trkpt lat="44.6709697" lon="7.9793468"><ele>206.5</ele><time>2026-04-06T11:07:07.225Z</time></trkpt><trkpt lat="44.6710354" lon="7.9792315"><ele>206.0</ele><time>2026-04-06T11:07:11.225Z</time></trkpt><trkpt lat="44.6710802" lon="7.9791548"><ele>205.49999999999997</ele><time>2026-04-06T11:07:14.225Z</time></trkpt><trkpt lat="44.6711387" lon="7.9791158"><ele>205.0</ele><time>2026-04-06T11:07:18.225Z</time></trkpt><trkpt lat="44.6712006" lon="7.9791831"><ele>204.0</ele><time>2026-04-06T11:07:23.225Z</time></trkpt><trkpt lat="44.6711701" lon="7.9792985"><ele>203.0</ele><time>2026-04-06T11:07:27.225Z</time></trkpt><trkpt lat="44.6711325" lon="7.9793818"><ele>202.0</ele><time>2026-04-06T11:07:29.225Z</time></trkpt><trkpt lat="44.6710877" lon="7.9795051"><ele>201.0</ele><time>2026-04-06T11:07:31.225Z</time></trkpt><trkpt lat="44.6710421" lon="7.9796328"><ele>200.0</ele><time>2026-04-06T11:07:33.225Z</time></trkpt><trkpt lat="44.6709975" lon="7.9797639"><ele>201.33333333333334</ele><time>2026-04-06T11:07:35.225Z</time></trkpt><trkpt lat="44.6709586" lon="7.979887"><ele>202.66666666666669</ele><time>2026-04-06T11:07:37.225Z</time></trkpt><trkpt lat="44.6709158" lon="7.9800114"><ele>204.0</ele><time>2026-04-06T11:07:39.225Z</time></trkpt><trkpt lat="44.6708765" lon="7.9800981"><ele>205.33333333333331</ele><time>2026-04-06T11:07:41.225Z</time></trkpt><trkpt lat="44.6708611" lon="7.9801956"><ele>206.66666666666666</ele><time>2026-04-06T11:07:46.225Z</time></trkpt><trkpt lat="44.670959" lon="7.9801707"><ele>208.0</ele><time>2026-04-06T11:07:49.225Z</time></trkpt><trkpt lat="44.671045" lon="7.9801658"><ele>205.0</ele><time>2026-04-06T11:07:51.225Z</time></trkpt><trkpt lat="44.6711317" lon="7.9801668"><ele>202.0</ele><time>2026-04-06T11:07:53.225Z</time></trkpt><trkpt lat="44.6712286" lon="7.9801526"><ele>199.0</ele><time>2026-04-06T11:07:55.225Z</time></trkpt><trkpt lat="44.6713043" lon="7.980149"><ele>196.0</ele><time>2026-04-06T11:07:57.226Z</time></trkpt><trkpt lat="44.6713851" lon="7.9801533"><ele>193.0</ele><time>2026-04-06T11:08:00.225Z</time></trkpt><trkpt lat="44.6714801" lon="7.9800676"><ele>192.99999999999997</ele><time>2026-04-06T11:08:05.225Z</time></trkpt><trkpt lat="44.6714086" lon="7.9800942"><ele>193.0</ele><time>2026-04-06T11:09:20.225Z</time></trkpt><trkpt lat="44.6713104" lon="7.9801317"><ele>193.0</ele><time>2026-04-06T11:09:23.225Z</time></trkpt><trkpt lat="44.6711925" lon="7.9801332"><ele>193.0</ele><time>2026-04-06T11:09:25.225Z</time></trkpt><trkpt lat="44.6711242" lon="7.9801388"><ele>192.99999999999997</ele><time>2026-04-06T11:09:26.225Z</time></trkpt><trkpt lat="44.6710571" lon="7.980157"><ele>193.0</ele><time>2026-04-06T11:09:27.225Z</time></trkpt><trkpt lat="44.6709511" lon="7.9801922"><ele>196.75</ele><time>2026-04-06T11:09:29.225Z</time></trkpt><trkpt lat="44.6708726" lon="7.9802254"><ele>200.5</ele><time>2026-04-06T11:09:31.225Z</time></trkpt><trkpt lat="44.6708041" lon="7.9802399"><ele>204.25</ele><time>2026-04-06T11:09:33.225Z</time></trkpt><trkpt lat="44.6707513" lon="7.9801844"><ele>208.0</ele><time>2026-04-06T11:09:35.225Z</time></trkpt><trkpt lat="44.6705612" lon="7.9799844"><ele>208.49999999999997</ele><time>2026-04-06T11:09:39.225Z</time></trkpt><trkpt lat="44.6705073" lon="7.9799218"><ele>209.0</ele><time>2026-04-06T11:09:40.225Z</time></trkpt><trkpt lat="44.6704562" lon="7.9798584"><ele>209.5</ele><time>2026-04-06T11:09:41.225Z</time></trkpt><trkpt lat="44.6703737" lon="7.9797566"><ele>210.0</ele><time>2026-04-06T11:09:43.225Z</time></trkpt><trkpt lat="44.6703264" lon="7.979685"><ele>210.49999999999997</ele><time>2026-04-06T11:09:45.225Z</time></trkpt><trkpt lat="44.6702574" lon="7.9796931"><ele>211.0</ele><time>2026-04-06T11:09:47.225Z</time></trkpt><trkpt lat="44.6701963" lon="7.9798148"><ele>211.0</ele><time>2026-04-06T11:09:49.225Z</time></trkpt><trkpt lat="44.6701418" lon="7.9798986"><ele>211.0</ele><time>2026-04-06T11:09:51.225Z</time></trkpt><trkpt lat="44.6700748" lon="7.979923"><ele>211.0</ele><time>2026-04-06T11:09:53.225Z</time></trkpt><trkpt lat="44.6700043" lon="7.9798245"><ele>211.0</ele><time>2026-04-06T11:09:55.225Z</time></trkpt><trkpt lat="44.6699074" lon="7.9796835"><ele>211.0</ele><time>2026-04-06T11:09:57.225Z</time></trkpt><trkpt lat="44.669843" lon="7.9795885"><ele>211.0</ele><time>2026-04-06T11:09:58.225Z</time></trkpt><trkpt lat="44.669775" lon="7.9794639"><ele>211.0</ele><time>2026-04-06T11:09:59.225Z</time></trkpt><trkpt lat="44.6697081" lon="7.9793322"><ele>211.0</ele><time>2026-04-06T11:10:00.225Z</time></trkpt><trkpt lat="44.6696213" lon="7.9791909"><ele>211.0</ele><time>2026-04-06T11:10:01.225Z</time></trkpt><trkpt lat="44.6695289" lon="7.9790689"><ele>209.4</ele><time>2026-04-06T11:10:02.225Z</time></trkpt><trkpt lat="44.6694284" lon="7.9789623"><ele>207.8</ele><time>2026-04-06T11:10:03.225Z</time></trkpt><trkpt lat="44.6693283" lon="7.9788747"><ele>206.20000000000002</ele><time>2026-04-06T11:10:04.225Z</time></trkpt><trkpt lat="44.6692457" lon="7.9787832"><ele>204.60000000000002</ele><time>2026-04-06T11:10:05.225Z</time></trkpt><trkpt lat="44.669174" lon="7.9786995"><ele>203.0</ele><time>2026-04-06T11:10:06.225Z</time></trkpt><trkpt lat="44.6691033" lon="7.9785876"><ele>203.0</ele><time>2026-04-06T11:10:07.225Z</time></trkpt><trkpt lat="44.6690426" lon="7.9784622"><ele>203.0</ele><time>2026-04-06T11:10:08.225Z</time></trkpt><trkpt lat="44.6689859" lon="7.9783456"><ele>203.0</ele><time>2026-04-06T11:10:09.225Z</time></trkpt><trkpt lat="44.6689116" lon="7.9782389"><ele>203.0</ele><time>2026-04-06T11:10:10.225Z</time></trkpt><trkpt lat="44.6688339" lon="7.9781529"><ele>203.0</ele><time>2026-04-06T11:10:11.225Z</time></trkpt><trkpt lat="44.6687331" lon="7.9780793"><ele>201.5</ele><time>2026-04-06T11:10:12.225Z</time></trkpt><trkpt lat="44.6686413" lon="7.9779996"><ele>200.0</ele><time>2026-04-06T11:10:13.225Z</time></trkpt><trkpt lat="44.6685424" lon="7.9779085"><ele>198.5</ele><time>2026-04-06T11:10:14.225Z</time></trkpt><trkpt lat="44.668442" lon="7.977812"><ele>197.0</ele><time>2026-04-06T11:10:15.225Z</time></trkpt><trkpt lat="44.6683392" lon="7.9777404"><ele>197.0</ele><time>2026-04-06T11:10:16.225Z</time></trkpt><trkpt lat="44.6682288" lon="7.9776845"><ele>197.0</ele><time>2026-04-06T11:10:17.225Z</time></trkpt><trkpt lat="44.668114" lon="7.9776538"><ele>197.0</ele><time>2026-04-06T11:10:18.225Z</time></trkpt><trkpt lat="44.668013" lon="7.9776504"><ele>197.0</ele><time>2026-04-06T11:10:19.225Z</time></trkpt><trkpt lat="44.6679222" lon="7.9776478"><ele>197.0</ele><time>2026-04-06T11:10:20.225Z</time></trkpt><trkpt lat="44.6678432" lon="7.977682"><ele>195.0</ele><time>2026-04-06T11:10:21.225Z</time></trkpt><trkpt lat="44.6677639" lon="7.9777575"><ele>193.0</ele><time>2026-04-06T11:10:22.225Z</time></trkpt><trkpt lat="44.6676959" lon="7.9778573"><ele>191.0</ele><time>2026-04-06T11:10:23.224Z</time></trkpt><trkpt lat="44.6676329" lon="7.9779777"><ele>189.0</ele><time>2026-04-06T11:10:24.224Z</time></trkpt><trkpt lat="44.6675702" lon="7.978085"><ele>187.0</ele><time>2026-04-06T11:10:25.224Z</time></trkpt><trkpt lat="44.667514" lon="7.9781837"><ele>187.0</ele><time>2026-04-06T11:10:26.224Z</time></trkpt><trkpt lat="44.6674622" lon="7.9782663"><ele>187.0</ele><time>2026-04-06T11:10:27.224Z</time></trkpt><trkpt lat="44.6674204" lon="7.9783408"><ele>187.0</ele><time>2026-04-06T11:10:28.224Z</time></trkpt><trkpt lat="44.6673739" lon="7.9784093"><ele>187.0</ele><time>2026-04-06T11:10:29.224Z</time></trkpt><trkpt lat="44.6672544" lon="7.9784822"><ele>187.0</ele><time>2026-04-06T11:10:31.224Z</time></trkpt><trkpt lat="44.6671826" lon="7.9784801"><ele>187.0</ele><time>2026-04-06T11:10:32.224Z</time></trkpt><trkpt lat="44.6670999" lon="7.9784222"><ele>187.0</ele><time>2026-04-06T11:10:33.224Z</time></trkpt><trkpt lat="44.667017" lon="7.9783294"><ele>187.0</ele><time>2026-04-06T11:10:34.225Z</time></trkpt><trkpt lat="44.6669132" lon="7.978232"><ele>187.0</ele><time>2026-04-06T11:10:35.224Z</time></trkpt><trkpt lat="44.6668057" lon="7.9781423"><ele>187.0</ele><time>2026-04-06T11:10:36.224Z</time></trkpt><trkpt lat="44.6666986" lon="7.9780589"><ele>186.16666666666669</ele><time>2026-04-06T11:10:37.224Z</time></trkpt><trkpt lat="44.6665953" lon="7.9779736"><ele>185.33333333333334</ele><time>2026-04-06T11:10:38.224Z</time></trkpt><trkpt lat="44.6665102" lon="7.9779004"><ele>184.5</ele><time>2026-04-06T11:10:39.224Z</time></trkpt><trkpt lat="44.6664413" lon="7.9778333"><ele>183.66666666666666</ele><time>2026-04-06T11:10:40.224Z</time></trkpt><trkpt lat="44.6663796" lon="7.9777894"><ele>182.83333333333331</ele><time>2026-04-06T11:10:41.224Z</time></trkpt><trkpt lat="44.6663184" lon="7.9777435"><ele>182.0</ele><time>2026-04-06T11:10:42.224Z</time></trkpt><trkpt lat="44.6662302" lon="7.9776726"><ele>182.0</ele><time>2026-04-06T11:10:44.224Z</time></trkpt><trkpt lat="44.6662366" lon="7.9775621"><ele>182.0</ele><time>2026-04-06T11:10:46.224Z</time></trkpt><trkpt lat="44.6662768" lon="7.9774782"><ele>182.0</ele><time>2026-04-06T11:10:47.224Z</time></trkpt><trkpt lat="44.6663083" lon="7.9773543"><ele>182.0</ele><time>2026-04-06T11:10:48.224Z</time></trkpt><trkpt lat="44.6663515" lon="7.9772276"><ele>182.0</ele><time>2026-04-06T11:10:49.224Z</time></trkpt><trkpt lat="44.6663956" lon="7.9770752"><ele>182.39999999999998</ele><time>2026-04-06T11:10:50.224Z</time></trkpt><trkpt lat="44.6664459" lon="7.9769098"><ele>182.79999999999998</ele><time>2026-04-06T11:10:51.224Z</time></trkpt><trkpt lat="44.6664919" lon="7.9767651"><ele>183.2</ele><time>2026-04-06T11:10:52.224Z</time></trkpt><trkpt lat="44.6665232" lon="7.9766273"><ele>183.6</ele><time>2026-04-06T11:10:53.224Z</time></trkpt><trkpt lat="44.6665443" lon="7.976491"><ele>184.0</ele><time>2026-04-06T11:10:54.224Z</time></trkpt><trkpt lat="44.6665564" lon="7.9763703"><ele>185.16666666666669</ele><time>2026-04-06T11:10:55.224Z</time></trkpt><trkpt lat="44.6665575" lon="7.9762517"><ele>186.33333333333334</ele><time>2026-04-06T11:10:56.224Z</time></trkpt><trkpt lat="44.6665598" lon="7.9761354"><ele>187.5</ele><time>2026-04-06T11:10:57.224Z</time></trkpt><trkpt lat="44.6665572" lon="7.9760221"><ele>188.66666666666666</ele><time>2026-04-06T11:10:58.224Z</time></trkpt><trkpt lat="44.666552" lon="7.9759031"><ele>189.83333333333331</ele><time>2026-04-06T11:10:59.224Z</time></trkpt><trkpt lat="44.6665505" lon="7.9757743"><ele>191.0</ele><time>2026-04-06T11:11:00.224Z</time></trkpt><trkpt lat="44.6665596" lon="7.9756239"><ele>191.0</ele><time>2026-04-06T11:11:01.224Z</time></trkpt><trkpt lat="44.6665833" lon="7.9754764"><ele>191.0</ele><time>2026-04-06T11:11:02.224Z</time></trkpt><trkpt lat="44.6666241" lon="7.9753374"><ele>191.0</ele><time>2026-04-06T11:11:03.224Z</time></trkpt><trkpt lat="44.6666789" lon="7.9752256"><ele>191.0</ele><time>2026-04-06T11:11:04.224Z</time></trkpt><trkpt lat="44.6667271" lon="7.9751442"><ele>191.0</ele><time>2026-04-06T11:11:05.224Z</time></trkpt><trkpt lat="44.6667736" lon="7.9750814"><ele>191.0</ele><time>2026-04-06T11:11:06.224Z</time></trkpt><trkpt lat="44.6668361" lon="7.9750139"><ele>191.0</ele><time>2026-04-06T11:11:08.224Z</time></trkpt><trkpt lat="44.666852" lon="7.9749219"><ele>191.0</ele><time>2026-04-06T11:11:10.225Z</time></trkpt><trkpt lat="44.6667731" lon="7.97494"><ele>191.0</ele><time>2026-04-06T11:11:13.224Z</time></trkpt><trkpt lat="44.6667298" lon="7.9750598"><ele>191.0</ele><time>2026-04-06T11:11:15.224Z</time></trkpt><trkpt lat="44.6666935" lon="7.9751405"><ele>191.0</ele><time>2026-04-06T11:11:16.224Z</time></trkpt><trkpt lat="44.6666322" lon="7.9752563"><ele>191.0</ele><time>2026-04-06T11:11:17.224Z</time></trkpt><trkpt lat="44.6665712" lon="7.9753845"><ele>191.0</ele><time>2026-04-06T11:11:18.224Z</time></trkpt><trkpt lat="44.6665377" lon="7.9755409"><ele>191.0</ele><time>2026-04-06T11:11:19.224Z</time></trkpt><trkpt lat="44.6665193" lon="7.9757218"><ele>191.0</ele><time>2026-04-06T11:11:20.224Z</time></trkpt><trkpt lat="44.6665178" lon="7.9759211"><ele>191.25</ele><time>2026-04-06T11:11:21.224Z</time></trkpt><trkpt lat="44.6665168" lon="7.9761236"><ele>191.5</ele><time>2026-04-06T11:11:22.224Z</time></trkpt><trkpt lat="44.6665124" lon="7.9763247"><ele>191.75</ele><time>2026-04-06T11:11:23.224Z</time></trkpt><trkpt lat="44.6664967" lon="7.9765027"><ele>192.0</ele><time>2026-04-06T11:11:24.224Z</time></trkpt><trkpt lat="44.6664796" lon="7.9766558"><ele>190.39999999999998</ele><time>2026-04-06T11:11:25.224Z</time></trkpt><trkpt lat="44.6664539" lon="7.9767784"><ele>188.79999999999998</ele><time>2026-04-06T11:11:26.224Z</time></trkpt><trkpt lat="44.6664228" lon="7.9768559"><ele>187.2</ele><time>2026-04-06T11:11:27.224Z</time></trkpt><trkpt lat="44.666385" lon="7.9769594"><ele>185.6</ele><time>2026-04-06T11:11:29.224Z</time></trkpt><trkpt lat="44.666284" lon="7.976959"><ele>184.0</ele><time>2026-04-06T11:11:32.224Z</time></trkpt><trkpt lat="44.6661565" lon="7.9768733"><ele>183.79999999999998</ele><time>2026-04-06T11:11:34.224Z</time></trkpt><trkpt lat="44.6660755" lon="7.9767981"><ele>183.6</ele><time>2026-04-06T11:11:35.224Z</time></trkpt><trkpt lat="44.6659812" lon="7.976729"><ele>183.4</ele><time>2026-04-06T11:11:36.224Z</time></trkpt><trkpt lat="44.6658778" lon="7.9766703"><ele>183.2</ele><time>2026-04-06T11:11:37.224Z</time></trkpt><trkpt lat="44.6657544" lon="7.9766059"><ele>183.0</ele><time>2026-04-06T11:11:38.224Z</time></trkpt><trkpt lat="44.6656217" lon="7.9765392"><ele>184.0</ele><time>2026-04-06T11:11:39.224Z</time></trkpt><trkpt lat="44.6654853" lon="7.9764645"><ele>185.0</ele><time>2026-04-06T11:11:40.224Z</time></trkpt><trkpt lat="44.6653607" lon="7.9763895"><ele>186.0</ele><time>2026-04-06T11:11:41.224Z</time></trkpt><trkpt lat="44.6652467" lon="7.976334"><ele>187.0</ele><time>2026-04-06T11:11:42.224Z</time></trkpt><trkpt lat="44.6651374" lon="7.9763058"><ele>187.0</ele><time>2026-04-06T11:11:43.224Z</time></trkpt><trkpt lat="44.6650374" lon="7.9762796"><ele>187.0</ele><time>2026-04-06T11:11:44.225Z</time></trkpt><trkpt lat="44.6649537" lon="7.9762304"><ele>187.0</ele><time>2026-04-06T11:11:45.224Z</time></trkpt><trkpt lat="44.66487" lon="7.976187"><ele>187.0</ele><time>2026-04-06T11:11:46.224Z</time></trkpt><trkpt lat="44.6647974" lon="7.9761422"><ele>187.0</ele><time>2026-04-06T11:11:47.224Z</time></trkpt><trkpt lat="44.6647261" lon="7.9760876"><ele>187.0</ele><time>2026-04-06T11:11:48.224Z</time></trkpt><trkpt lat="44.6646472" lon="7.9760509"><ele>187.0</ele><time>2026-04-06T11:11:49.224Z</time></trkpt><trkpt lat="44.6645582" lon="7.9760417"><ele>187.0</ele><time>2026-04-06T11:11:50.224Z</time></trkpt><trkpt lat="44.6644466" lon="7.9760606"><ele>187.0</ele><time>2026-04-06T11:11:51.224Z</time></trkpt><trkpt lat="44.6643438" lon="7.9760605"><ele>187.0</ele><time>2026-04-06T11:11:52.225Z</time></trkpt><trkpt lat="44.66423" lon="7.9760549"><ele>187.0</ele><time>2026-04-06T11:11:53.224Z</time></trkpt><trkpt lat="44.6641152" lon="7.9760311"><ele>187.2</ele><time>2026-04-06T11:11:54.224Z</time></trkpt><trkpt lat="44.6639893" lon="7.9760114"><ele>187.39999999999998</ele><time>2026-04-06T11:11:55.224Z</time></trkpt><trkpt lat="44.6638755" lon="7.9759885"><ele>187.60000000000002</ele><time>2026-04-06T11:11:56.224Z</time></trkpt><trkpt lat="44.6637784" lon="7.9759562"><ele>187.8</ele><time>2026-04-06T11:11:57.224Z</time></trkpt><trkpt lat="44.6637025" lon="7.975917"><ele>188.0</ele><time>2026-04-06T11:11:58.224Z</time></trkpt><trkpt lat="44.6636466" lon="7.9758557"><ele>187.83333333333331</ele><time>2026-04-06T11:11:59.224Z</time></trkpt><trkpt lat="44.6636001" lon="7.9757804"><ele>187.66666666666666</ele><time>2026-04-06T11:12:00.224Z</time></trkpt><trkpt lat="44.6635577" lon="7.9756841"><ele>187.5</ele><time>2026-04-06T11:12:01.224Z</time></trkpt><trkpt lat="44.663526" lon="7.9755696"><ele>187.33333333333334</ele><time>2026-04-06T11:12:02.224Z</time></trkpt><trkpt lat="44.6635043" lon="7.9754338"><ele>187.16666666666669</ele><time>2026-04-06T11:12:03.224Z</time></trkpt><trkpt lat="44.6634843" lon="7.9752998"><ele>187.0</ele><time>2026-04-06T11:12:04.224Z</time></trkpt><trkpt lat="44.6634636" lon="7.9751769"><ele>187.0</ele><time>2026-04-06T11:12:05.224Z</time></trkpt><trkpt lat="44.6634504" lon="7.9750628"><ele>187.0</ele><time>2026-04-06T11:12:06.224Z</time></trkpt><trkpt lat="44.6634324" lon="7.9749546"><ele>187.0</ele><time>2026-04-06T11:12:07.224Z</time></trkpt><trkpt lat="44.6634021" lon="7.9748536"><ele>187.0</ele><time>2026-04-06T11:12:08.224Z</time></trkpt><trkpt lat="44.6633505" lon="7.9747579"><ele>187.0</ele><time>2026-04-06T11:12:09.224Z</time></trkpt><trkpt lat="44.6632742" lon="7.9746646"><ele>187.0</ele><time>2026-04-06T11:12:10.224Z</time></trkpt><trkpt lat="44.6631834" lon="7.9745928"><ele>187.0</ele><time>2026-04-06T11:12:11.224Z</time></trkpt><trkpt lat="44.6630974" lon="7.9745164"><ele>187.0</ele><time>2026-04-06T11:12:12.224Z</time></trkpt><trkpt lat="44.6630093" lon="7.9744356"><ele>187.0</ele><time>2026-04-06T11:12:13.224Z</time></trkpt><trkpt lat="44.6629334" lon="7.9743492"><ele>187.0</ele><time>2026-04-06T11:12:14.224Z</time></trkpt><trkpt lat="44.6628724" lon="7.9742471"><ele>187.0</ele><time>2026-04-06T11:12:15.224Z</time></trkpt><trkpt lat="44.6628284" lon="7.9741268"><ele>186.75</ele><time>2026-04-06T11:12:16.224Z</time></trkpt><trkpt lat="44.6627849" lon="7.9739839"><ele>186.5</ele><time>2026-04-06T11:12:17.224Z</time></trkpt><trkpt lat="44.6627378" lon="7.9738283"><ele>186.25</ele><time>2026-04-06T11:12:18.224Z</time></trkpt><trkpt lat="44.6626932" lon="7.9736679"><ele>186.0</ele><time>2026-04-06T11:12:19.224Z</time></trkpt><trkpt lat="44.6626517" lon="7.9735229"><ele>185.8</ele><time>2026-04-06T11:12:20.224Z</time></trkpt><trkpt lat="44.6626003" lon="7.9733819"><ele>185.60000000000002</ele><time>2026-04-06T11:12:21.224Z</time></trkpt><trkpt lat="44.6625583" lon="7.9732482"><ele>185.4</ele><time>2026-04-06T11:12:22.224Z</time></trkpt><trkpt lat="44.6625206" lon="7.9731225"><ele>185.2</ele><time>2026-04-06T11:12:23.224Z</time></trkpt><trkpt lat="44.662477" lon="7.9730149"><ele>185.0</ele><time>2026-04-06T11:12:24.224Z</time></trkpt><trkpt lat="44.6624261" lon="7.9729179"><ele>185.0</ele><time>2026-04-06T11:12:25.224Z</time></trkpt><trkpt lat="44.6623817" lon="7.9728334"><ele>185.0</ele><time>2026-04-06T11:12:26.225Z</time></trkpt><trkpt lat="44.6623446" lon="7.9727541"><ele>185.0</ele><time>2026-04-06T11:12:27.224Z</time></trkpt><trkpt lat="44.6623049" lon="7.9726768"><ele>185.0</ele><time>2026-04-06T11:12:28.224Z</time></trkpt><trkpt lat="44.6622531" lon="7.9725986"><ele>185.0</ele><time>2026-04-06T11:12:29.224Z</time></trkpt><trkpt lat="44.6621925" lon="7.9725275"><ele>185.0</ele><time>2026-04-06T11:12:30.224Z</time></trkpt><trkpt lat="44.6621164" lon="7.9724538"><ele>185.0</ele><time>2026-04-06T11:12:31.224Z</time></trkpt><trkpt lat="44.662019" lon="7.9723821"><ele>185.0</ele><time>2026-04-06T11:12:32.224Z</time></trkpt><trkpt lat="44.6619172" lon="7.9723054"><ele>185.0</ele><time>2026-04-06T11:12:33.224Z</time></trkpt><trkpt lat="44.6618154" lon="7.9722307"><ele>185.0</ele><time>2026-04-06T11:12:34.224Z</time></trkpt><trkpt lat="44.6617123" lon="7.9721722"><ele>185.6</ele><time>2026-04-06T11:12:35.224Z</time></trkpt><trkpt lat="44.6616196" lon="7.9721162"><ele>186.2</ele><time>2026-04-06T11:12:36.224Z</time></trkpt><trkpt lat="44.6615261" lon="7.9720648"><ele>186.8</ele><time>2026-04-06T11:12:37.224Z</time></trkpt><trkpt lat="44.661438" lon="7.9720163"><ele>187.4</ele><time>2026-04-06T11:12:38.224Z</time></trkpt><trkpt lat="44.6613598" lon="7.9719726"><ele>188.0</ele><time>2026-04-06T11:12:39.224Z</time></trkpt><trkpt lat="44.6612852" lon="7.9719416"><ele>188.0</ele><time>2026-04-06T11:12:40.224Z</time></trkpt><trkpt lat="44.6612176" lon="7.9719304"><ele>188.0</ele><time>2026-04-06T11:12:41.224Z</time></trkpt><trkpt lat="44.6611548" lon="7.9719376"><ele>188.0</ele><time>2026-04-06T11:12:42.224Z</time></trkpt><trkpt lat="44.6610395" lon="7.972021"><ele>188.0</ele><time>2026-04-06T11:12:44.224Z</time></trkpt><trkpt lat="44.6609986" lon="7.9720924"><ele>188.0</ele><time>2026-04-06T11:12:45.224Z</time></trkpt><trkpt lat="44.6609677" lon="7.9721755"><ele>188.0</ele><time>2026-04-06T11:12:46.224Z</time></trkpt><trkpt lat="44.6609431" lon="7.9722787"><ele>188.0</ele><time>2026-04-06T11:12:47.224Z</time></trkpt><trkpt lat="44.6609213" lon="7.9724122"><ele>188.0</ele><time>2026-04-06T11:12:48.224Z</time></trkpt><trkpt lat="44.6608846" lon="7.9725584"><ele>188.0</ele><time>2026-04-06T11:12:49.224Z</time></trkpt><trkpt lat="44.6608478" lon="7.9727083"><ele>188.0</ele><time>2026-04-06T11:12:50.224Z</time></trkpt><trkpt lat="44.6608008" lon="7.9728715"><ele>188.0</ele><time>2026-04-06T11:12:51.224Z</time></trkpt><trkpt lat="44.6607647" lon="7.9730502"><ele>188.0</ele><time>2026-04-06T11:12:52.224Z</time></trkpt><trkpt lat="44.6607322" lon="7.9732472"><ele>188.0</ele><time>2026-04-06T11:12:53.224Z</time></trkpt><trkpt lat="44.6607042" lon="7.9734753"><ele>188.0</ele><time>2026-04-06T11:12:54.224Z</time></trkpt><trkpt lat="44.6606682" lon="7.9737163"><ele>188.0</ele><time>2026-04-06T11:12:55.224Z</time></trkpt><trkpt lat="44.6606294" lon="7.9739696"><ele>188.0</ele><time>2026-04-06T11:12:56.224Z</time></trkpt><trkpt lat="44.6605923" lon="7.974216"><ele>188.0</ele><time>2026-04-06T11:12:57.224Z</time></trkpt><trkpt lat="44.6605512" lon="7.974449"><ele>188.0</ele><time>2026-04-06T11:12:58.224Z</time></trkpt><trkpt lat="44.6605199" lon="7.9746668"><ele>188.0</ele><time>2026-04-06T11:12:59.224Z</time></trkpt><trkpt lat="44.6604876" lon="7.9748654"><ele>188.0</ele><time>2026-04-06T11:13:00.224Z</time></trkpt><trkpt lat="44.6604578" lon="7.9750446"><ele>188.0</ele><time>2026-04-06T11:13:01.224Z</time></trkpt><trkpt lat="44.6604297" lon="7.975214"><ele>188.16666666666666</ele><time>2026-04-06T11:13:02.224Z</time></trkpt><trkpt lat="44.6604052" lon="7.9753667"><ele>188.33333333333331</ele><time>2026-04-06T11:13:03.224Z</time></trkpt><trkpt lat="44.6603844" lon="7.9755069"><ele>188.5</ele><time>2026-04-06T11:13:04.224Z</time></trkpt><trkpt lat="44.6603658" lon="7.9756285"><ele>188.66666666666666</ele><time>2026-04-06T11:13:05.224Z</time></trkpt><trkpt lat="44.6603509" lon="7.9757351"><ele>188.83333333333334</ele><time>2026-04-06T11:13:06.224Z</time></trkpt><trkpt lat="44.6603327" lon="7.9758227"><ele>189.0</ele><time>2026-04-06T11:13:07.224Z</time></trkpt><trkpt lat="44.6602602" lon="7.9759277"><ele>189.0</ele><time>2026-04-06T11:13:09.224Z</time></trkpt><trkpt lat="44.6601314" lon="7.9759265"><ele>189.0</ele><time>2026-04-06T11:13:11.224Z</time></trkpt><trkpt lat="44.6600464" lon="7.9758734"><ele>189.0</ele><time>2026-04-06T11:13:12.224Z</time></trkpt><trkpt lat="44.6599403" lon="7.9758057"><ele>189.0</ele><time>2026-04-06T11:13:13.224Z</time></trkpt><trkpt lat="44.6598158" lon="7.9757408"><ele>188.66666666666666</ele><time>2026-04-06T11:13:14.224Z</time></trkpt><trkpt lat="44.6596755" lon="7.9756721"><ele>188.33333333333331</ele><time>2026-04-06T11:13:15.224Z</time></trkpt><trkpt lat="44.6595385" lon="7.9755965"><ele>188.0</ele><time>2026-04-06T11:13:16.224Z</time></trkpt><trkpt lat="44.6593919" lon="7.9755126"><ele>188.66666666666666</ele><time>2026-04-06T11:13:17.224Z</time></trkpt><trkpt lat="44.6592472" lon="7.9754303"><ele>189.33333333333334</ele><time>2026-04-06T11:13:18.224Z</time></trkpt><trkpt lat="44.6591026" lon="7.9753556"><ele>190.0</ele><time>2026-04-06T11:13:19.224Z</time></trkpt><trkpt lat="44.6589537" lon="7.9752855"><ele>190.0</ele><time>2026-04-06T11:13:20.224Z</time></trkpt><trkpt lat="44.6588072" lon="7.9752117"><ele>190.0</ele><time>2026-04-06T11:13:21.224Z</time></trkpt><trkpt lat="44.6586583" lon="7.9751433"><ele>190.0</ele><time>2026-04-06T11:13:22.224Z</time></trkpt><trkpt lat="44.6585232" lon="7.9750737"><ele>189.8</ele><time>2026-04-06T11:13:23.224Z</time></trkpt><trkpt lat="44.658399" lon="7.9750124"><ele>189.6</ele><time>2026-04-06T11:13:24.224Z</time></trkpt><trkpt lat="44.6582877" lon="7.9749551"><ele>189.39999999999998</ele><time>2026-04-06T11:13:25.224Z</time></trkpt><trkpt lat="44.6582005" lon="7.9749043"><ele>189.2</ele><time>2026-04-06T11:13:26.224Z</time></trkpt><trkpt lat="44.6581234" lon="7.9748614"><ele>189.0</ele><time>2026-04-06T11:13:27.224Z</time></trkpt><trkpt lat="44.6580564" lon="7.9748174"><ele>189.0</ele><time>2026-04-06T11:13:28.224Z</time></trkpt><trkpt lat="44.6579968" lon="7.9747801"><ele>189.0</ele><time>2026-04-06T11:13:29.224Z</time></trkpt><trkpt lat="44.6579368" lon="7.9747498"><ele>189.0</ele><time>2026-04-06T11:13:30.224Z</time></trkpt><trkpt lat="44.6578218" lon="7.9747707"><ele>189.0</ele><time>2026-04-06T11:13:32.224Z</time></trkpt><trkpt lat="44.6577464" lon="7.974914"><ele>189.0</ele><time>2026-04-06T11:13:34.224Z</time></trkpt><trkpt lat="44.6577195" lon="7.9750168"><ele>189.0</ele><time>2026-04-06T11:13:35.224Z</time></trkpt><trkpt lat="44.6576954" lon="7.975158"><ele>189.0</ele><time>2026-04-06T11:13:36.224Z</time></trkpt><trkpt lat="44.6576755" lon="7.9753058"><ele>189.0</ele><time>2026-04-06T11:13:37.224Z</time></trkpt><trkpt lat="44.6576552" lon="7.9754556"><ele>189.0</ele><time>2026-04-06T11:13:38.224Z</time></trkpt><trkpt lat="44.6576268" lon="7.9756048"><ele>189.0</ele><time>2026-04-06T11:13:39.224Z</time></trkpt><trkpt lat="44.6575991" lon="7.9757491"><ele>189.16666666666666</ele><time>2026-04-06T11:13:40.224Z</time></trkpt><trkpt lat="44.6575768" lon="7.97589"><ele>189.33333333333334</ele><time>2026-04-06T11:13:41.224Z</time></trkpt><trkpt lat="44.6575496" lon="7.976014"><ele>189.5</ele><time>2026-04-06T11:13:42.224Z</time></trkpt><trkpt lat="44.6575334" lon="7.9761405"><ele>189.66666666666669</ele><time>2026-04-06T11:13:43.224Z</time></trkpt><trkpt lat="44.6575103" lon="7.9762521"><ele>189.83333333333334</ele><time>2026-04-06T11:13:44.224Z</time></trkpt><trkpt lat="44.6574793" lon="7.976345"><ele>190.0</ele><time>2026-04-06T11:13:45.224Z</time></trkpt><trkpt lat="44.6574384" lon="7.9764156"><ele>190.0</ele><time>2026-04-06T11:13:46.224Z</time></trkpt><trkpt lat="44.6573211" lon="7.9764742"><ele>190.0</ele><time>2026-04-06T11:13:48.224Z</time></trkpt><trkpt lat="44.6572384" lon="7.9764569"><ele>190.0</ele><time>2026-04-06T11:13:49.224Z</time></trkpt><trkpt lat="44.6571461" lon="7.9764213"><ele>190.0</ele><time>2026-04-06T11:13:50.224Z</time></trkpt><trkpt lat="44.6570442" lon="7.9763524"><ele>190.0</ele><time>2026-04-06T11:13:51.224Z</time></trkpt><trkpt lat="44.6569337" lon="7.9762833"><ele>189.75</ele><time>2026-04-06T11:13:52.224Z</time></trkpt><trkpt lat="44.6568223" lon="7.9762209"><ele>189.5</ele><time>2026-04-06T11:13:53.224Z</time></trkpt><trkpt lat="44.6566944" lon="7.9761541"><ele>189.25</ele><time>2026-04-06T11:13:54.224Z</time></trkpt><trkpt lat="44.6565563" lon="7.9760848"><ele>189.0</ele><time>2026-04-06T11:13:55.224Z</time></trkpt><trkpt lat="44.6564094" lon="7.9759926"><ele>189.0</ele><time>2026-04-06T11:13:56.224Z</time></trkpt><trkpt lat="44.6562536" lon="7.9759161"><ele>189.0</ele><time>2026-04-06T11:13:57.224Z</time></trkpt><trkpt lat="44.6561039" lon="7.9758374"><ele>189.0</ele><time>2026-04-06T11:13:58.224Z</time></trkpt><trkpt lat="44.6559638" lon="7.9757609"><ele>189.25</ele><time>2026-04-06T11:13:59.224Z</time></trkpt><trkpt lat="44.6558357" lon="7.9756919"><ele>189.5</ele><time>2026-04-06T11:14:00.224Z</time></trkpt><trkpt lat="44.6557082" lon="7.9756293"><ele>189.75</ele><time>2026-04-06T11:14:01.224Z</time></trkpt><trkpt lat="44.6555901" lon="7.9755582"><ele>190.0</ele><time>2026-04-06T11:14:02.225Z</time></trkpt><trkpt lat="44.655467" lon="7.975496"><ele>190.0</ele><time>2026-04-06T11:14:03.224Z</time></trkpt><trkpt lat="44.6553437" lon="7.9754364"><ele>190.0</ele><time>2026-04-06T11:14:04.224Z</time></trkpt><trkpt lat="44.6552303" lon="7.9753758"><ele>190.0</ele><time>2026-04-06T11:14:05.224Z</time></trkpt><trkpt lat="44.6551229" lon="7.9753177"><ele>190.0</ele><time>2026-04-06T11:14:06.224Z</time></trkpt><trkpt lat="44.6550191" lon="7.975262"><ele>190.0</ele><time>2026-04-06T11:14:07.224Z</time></trkpt><trkpt lat="44.6549141" lon="7.9752036"><ele>190.0</ele><time>2026-04-06T11:14:08.224Z</time></trkpt><trkpt lat="44.6548178" lon="7.9751442"><ele>190.0</ele><time>2026-04-06T11:14:09.224Z</time></trkpt><trkpt lat="44.6547231" lon="7.9750876"><ele>190.0</ele><time>2026-04-06T11:14:10.224Z</time></trkpt><trkpt lat="44.6546363" lon="7.9750323"><ele>190.0</ele><time>2026-04-06T11:14:11.224Z</time></trkpt><trkpt lat="44.6545567" lon="7.9749864"><ele>189.83333333333334</ele><time>2026-04-06T11:14:12.224Z</time></trkpt><trkpt lat="44.6544889" lon="7.9749459"><ele>189.66666666666669</ele><time>2026-04-06T11:14:13.224Z</time></trkpt><trkpt lat="44.6543837" lon="7.9748916"><ele>189.5</ele><time>2026-04-06T11:14:15.224Z</time></trkpt><trkpt lat="44.65431" lon="7.9748417"><ele>189.33333333333334</ele><time>2026-04-06T11:14:17.224Z</time></trkpt><trkpt lat="44.6542295" lon="7.9747754"><ele>189.16666666666666</ele><time>2026-04-06T11:14:19.224Z</time></trkpt><trkpt lat="44.6541554" lon="7.9747512"><ele>189.0</ele><time>2026-04-06T11:14:21.224Z</time></trkpt><trkpt lat="44.6541015" lon="7.9748872"><ele>189.6</ele><time>2026-04-06T11:14:24.225Z</time></trkpt><trkpt lat="44.6541148" lon="7.9749936"><ele>190.2</ele><time>2026-04-06T11:14:25.224Z</time></trkpt><trkpt lat="44.65413" lon="7.975126"><ele>190.79999999999998</ele><time>2026-04-06T11:14:26.224Z</time></trkpt><trkpt lat="44.6541484" lon="7.9752825"><ele>191.39999999999998</ele><time>2026-04-06T11:14:27.224Z</time></trkpt><trkpt lat="44.6541658" lon="7.9754493"><ele>192.0</ele><time>2026-04-06T11:14:28.224Z</time></trkpt><trkpt lat="44.6541891" lon="7.975629"><ele>192.0</ele><time>2026-04-06T11:14:29.224Z</time></trkpt><trkpt lat="44.6542185" lon="7.9758276"><ele>192.0</ele><time>2026-04-06T11:14:30.224Z</time></trkpt><trkpt lat="44.654245" lon="7.9760134"><ele>192.0</ele><time>2026-04-06T11:14:31.225Z</time></trkpt><trkpt lat="44.6542693" lon="7.9762042"><ele>192.0</ele><time>2026-04-06T11:14:32.224Z</time></trkpt><trkpt lat="44.6542894" lon="7.976384"><ele>192.0</ele><time>2026-04-06T11:14:33.224Z</time></trkpt><trkpt lat="44.6543092" lon="7.9765507"><ele>192.0</ele><time>2026-04-06T11:14:34.224Z</time></trkpt><trkpt lat="44.6543321" lon="7.9767133"><ele>192.0</ele><time>2026-04-06T11:14:35.224Z</time></trkpt><trkpt lat="44.6543524" lon="7.9768867"><ele>192.0</ele><time>2026-04-06T11:14:36.224Z</time></trkpt><trkpt lat="44.6543787" lon="7.9770632"><ele>192.25</ele><time>2026-04-06T11:14:37.225Z</time></trkpt><trkpt lat="44.6543961" lon="7.9772383"><ele>192.5</ele><time>2026-04-06T11:14:38.224Z</time></trkpt><trkpt lat="44.6544195" lon="7.9774098"><ele>192.75</ele><time>2026-04-06T11:14:39.224Z</time></trkpt><trkpt lat="44.6544389" lon="7.9775825"><ele>193.0</ele><time>2026-04-06T11:14:40.224Z</time></trkpt><trkpt lat="44.654464" lon="7.9777614"><ele>193.0</ele><time>2026-04-06T11:14:41.224Z</time></trkpt><trkpt lat="44.6544836" lon="7.9779386"><ele>193.0</ele><time>2026-04-06T11:14:42.224Z</time></trkpt><trkpt lat="44.6545055" lon="7.9781193"><ele>193.0</ele><time>2026-04-06T11:14:43.224Z</time></trkpt><trkpt lat="44.6545255" lon="7.9783043"><ele>193.0</ele><time>2026-04-06T11:14:44.224Z</time></trkpt><trkpt lat="44.6545492" lon="7.9784929"><ele>192.5</ele><time>2026-04-06T11:14:45.224Z</time></trkpt><trkpt lat="44.6545696" lon="7.9786751"><ele>192.0</ele><time>2026-04-06T11:14:46.225Z</time></trkpt><trkpt lat="44.6545934" lon="7.9788504"><ele>191.5</ele><time>2026-04-06T11:14:47.224Z</time></trkpt><trkpt lat="44.6546172" lon="7.9790093"><ele>191.0</ele><time>2026-04-06T11:14:48.224Z</time></trkpt><trkpt lat="44.6546359" lon="7.9791495"><ele>191.16666666666666</ele><time>2026-04-06T11:14:49.224Z</time></trkpt><trkpt lat="44.6546514" lon="7.9792794"><ele>191.33333333333331</ele><time>2026-04-06T11:14:50.224Z</time></trkpt><trkpt lat="44.6546696" lon="7.9794003"><ele>191.5</ele><time>2026-04-06T11:14:51.224Z</time></trkpt><trkpt lat="44.654692" lon="7.979551"><ele>191.66666666666666</ele><time>2026-04-06T11:14:53.224Z</time></trkpt><trkpt lat="44.6547041" lon="7.9796442"><ele>191.83333333333334</ele><time>2026-04-06T11:14:55.224Z</time></trkpt><trkpt lat="44.6547107" lon="7.979751"><ele>192.0</ele><time>2026-04-06T11:14:59.224Z</time></trkpt><trkpt lat="44.6547231" lon="7.9798607"><ele>192.0</ele><time>2026-04-06T11:15:03.224Z</time></trkpt><trkpt lat="44.654658" lon="7.9799058"><ele>192.0</ele><time>2026-04-06T11:15:07.224Z</time></trkpt><trkpt lat="44.6545503" lon="7.979881"><ele>192.0</ele><time>2026-04-06T11:15:09.224Z</time></trkpt><trkpt lat="44.6544668" lon="7.9798493"><ele>192.0</ele><time>2026-04-06T11:15:10.224Z</time></trkpt><trkpt lat="44.6543635" lon="7.9797897"><ele>192.0</ele><time>2026-04-06T11:15:11.224Z</time></trkpt><trkpt lat="44.6542501" lon="7.9797346"><ele>192.66666666666669</ele><time>2026-04-06T11:15:12.224Z</time></trkpt><trkpt lat="44.654122" lon="7.9796572"><ele>193.33333333333334</ele><time>2026-04-06T11:15:13.224Z</time></trkpt><trkpt lat="44.6539722" lon="7.9795851"><ele>194.0</ele><time>2026-04-06T11:15:14.224Z</time></trkpt><trkpt lat="44.6538087" lon="7.9795169"><ele>194.0</ele><time>2026-04-06T11:15:15.224Z</time></trkpt><trkpt lat="44.6536401" lon="7.9794494"><ele>194.0</ele><time>2026-04-06T11:15:16.224Z</time></trkpt><trkpt lat="44.6534648" lon="7.9793714"><ele>194.0</ele><time>2026-04-06T11:15:17.224Z</time></trkpt><trkpt lat="44.6532815" lon="7.9792883"><ele>194.0</ele><time>2026-04-06T11:15:18.224Z</time></trkpt><trkpt lat="44.653089" lon="7.9792047"><ele>194.0</ele><time>2026-04-06T11:15:19.224Z</time></trkpt><trkpt lat="44.6529063" lon="7.9791244"><ele>194.0</ele><time>2026-04-06T11:15:20.224Z</time></trkpt><trkpt lat="44.6527369" lon="7.9790438"><ele>194.66666666666669</ele><time>2026-04-06T11:15:21.224Z</time></trkpt><trkpt lat="44.6525864" lon="7.9789849"><ele>195.33333333333331</ele><time>2026-04-06T11:15:22.224Z</time></trkpt><trkpt lat="44.6524316" lon="7.9789334"><ele>196.0</ele><time>2026-04-06T11:15:23.224Z</time></trkpt><trkpt lat="44.6522811" lon="7.9788933"><ele>196.0</ele><time>2026-04-06T11:15:24.224Z</time></trkpt><trkpt lat="44.6521311" lon="7.9788946"><ele>196.0</ele><time>2026-04-06T11:15:25.224Z</time></trkpt><trkpt lat="44.6519673" lon="7.9789299"><ele>196.0</ele><time>2026-04-06T11:15:26.224Z</time></trkpt><trkpt lat="44.651808" lon="7.9789993"><ele>195.75</ele><time>2026-04-06T11:15:27.224Z</time></trkpt><trkpt lat="44.651675" lon="7.9790724"><ele>195.5</ele><time>2026-04-06T11:15:28.224Z</time></trkpt><trkpt lat="44.6515825" lon="7.9791434"><ele>195.25</ele><time>2026-04-06T11:15:29.224Z</time></trkpt><trkpt lat="44.6514888" lon="7.9791865"><ele>195.0</ele><time>2026-04-06T11:15:30.224Z</time></trkpt><trkpt lat="44.651396" lon="7.9792503"><ele>195.0</ele><time>2026-04-06T11:15:31.224Z</time></trkpt><trkpt lat="44.6512863" lon="7.9793173"><ele>195.0</ele><time>2026-04-06T11:15:32.224Z</time></trkpt><trkpt lat="44.6511721" lon="7.9793695"><ele>195.0</ele><time>2026-04-06T11:15:33.224Z</time></trkpt><trkpt lat="44.6510394" lon="7.979401"><ele>195.0</ele><time>2026-04-06T11:15:34.224Z</time></trkpt><trkpt lat="44.6508946" lon="7.9794153"><ele>195.66666666666669</ele><time>2026-04-06T11:15:35.224Z</time></trkpt><trkpt lat="44.6507323" lon="7.9794209"><ele>196.33333333333334</ele><time>2026-04-06T11:15:36.224Z</time></trkpt><trkpt lat="44.6505558" lon="7.979406"><ele>197.0</ele><time>2026-04-06T11:15:37.224Z</time></trkpt><trkpt lat="44.6503687" lon="7.9793804"><ele>197.0</ele><time>2026-04-06T11:15:38.224Z</time></trkpt><trkpt lat="44.6501816" lon="7.9793639"><ele>197.0</ele><time>2026-04-06T11:15:39.224Z</time></trkpt><trkpt lat="44.649997" lon="7.979361"><ele>197.0</ele><time>2026-04-06T11:15:40.224Z</time></trkpt><trkpt lat="44.6498203" lon="7.9793624"><ele>197.0</ele><time>2026-04-06T11:15:41.224Z</time></trkpt><trkpt lat="44.6496434" lon="7.979359"><ele>197.0</ele><time>2026-04-06T11:15:42.224Z</time></trkpt><trkpt lat="44.6494753" lon="7.9793524"><ele>197.0</ele><time>2026-04-06T11:15:43.224Z</time></trkpt><trkpt lat="44.6493085" lon="7.9793464"><ele>197.0</ele><time>2026-04-06T11:15:44.225Z</time></trkpt><trkpt lat="44.6491397" lon="7.9793147"><ele>197.0</ele><time>2026-04-06T11:15:45.224Z</time></trkpt><trkpt lat="44.6489683" lon="7.9792628"><ele>197.0</ele><time>2026-04-06T11:15:46.224Z</time></trkpt><trkpt lat="44.6487876" lon="7.9791862"><ele>197.33333333333334</ele><time>2026-04-06T11:15:47.224Z</time></trkpt><trkpt lat="44.6486108" lon="7.979113"><ele>197.66666666666669</ele><time>2026-04-06T11:15:48.224Z</time></trkpt><trkpt lat="44.6484352" lon="7.9790303"><ele>198.0</ele><time>2026-04-06T11:15:49.224Z</time></trkpt><trkpt lat="44.6482641" lon="7.978956"><ele>198.0</ele><time>2026-04-06T11:15:50.224Z</time></trkpt><trkpt lat="44.6480988" lon="7.9788865"><ele>198.0</ele><time>2026-04-06T11:15:51.224Z</time></trkpt><trkpt lat="44.6479416" lon="7.9788206"><ele>198.0</ele><time>2026-04-06T11:15:52.224Z</time></trkpt><trkpt lat="44.6477987" lon="7.9787567"><ele>199.25</ele><time>2026-04-06T11:15:53.224Z</time></trkpt><trkpt lat="44.6476653" lon="7.978701"><ele>200.5</ele><time>2026-04-06T11:15:54.224Z</time></trkpt><trkpt lat="44.647539" lon="7.9786506"><ele>201.75</ele><time>2026-04-06T11:15:55.224Z</time></trkpt><trkpt lat="44.6474204" lon="7.9786044"><ele>203.0</ele><time>2026-04-06T11:15:56.224Z</time></trkpt><trkpt lat="44.6473081" lon="7.9785556"><ele>203.00000000000003</ele><time>2026-04-06T11:15:57.224Z</time></trkpt><trkpt lat="44.647211" lon="7.9785018"><ele>203.0</ele><time>2026-04-06T11:15:58.224Z</time></trkpt><trkpt lat="44.6471312" lon="7.9784422"><ele>203.0</ele><time>2026-04-06T11:15:59.224Z</time></trkpt><trkpt lat="44.647061" lon="7.9783772"><ele>203.0</ele><time>2026-04-06T11:16:00.224Z</time></trkpt><trkpt lat="44.6470033" lon="7.9782983"><ele>203.00000000000003</ele><time>2026-04-06T11:16:01.224Z</time></trkpt><trkpt lat="44.6469577" lon="7.9781995"><ele>203.0</ele><time>2026-04-06T11:16:02.224Z</time></trkpt><trkpt lat="44.6469256" lon="7.9780962"><ele>202.50000000000003</ele><time>2026-04-06T11:16:03.224Z</time></trkpt><trkpt lat="44.6469014" lon="7.9780021"><ele>202.0</ele><time>2026-04-06T11:16:04.224Z</time></trkpt><trkpt lat="44.6468129" lon="7.977884"><ele>201.5</ele><time>2026-04-06T11:16:06.224Z</time></trkpt><trkpt lat="44.6467472" lon="7.9778874"><ele>201.0</ele><time>2026-04-06T11:16:07.224Z</time></trkpt><trkpt lat="44.6466761" lon="7.9779213"><ele>200.50000000000003</ele><time>2026-04-06T11:16:08.224Z</time></trkpt><trkpt lat="44.6466395" lon="7.9780004"><ele>200.0</ele><time>2026-04-06T11:16:09.224Z</time></trkpt><trkpt lat="44.6466396" lon="7.9780944"><ele>200.00000000000003</ele><time>2026-04-06T11:16:10.224Z</time></trkpt><trkpt lat="44.6466638" lon="7.9781834"><ele>200.0</ele><time>2026-04-06T11:16:11.224Z</time></trkpt><trkpt lat="44.6467132" lon="7.9782563"><ele>200.0</ele><time>2026-04-06T11:16:12.224Z</time></trkpt><trkpt lat="44.6467859" lon="7.9783207"><ele>200.0</ele><time>2026-04-06T11:16:13.224Z</time></trkpt><trkpt lat="44.6468762" lon="7.9783877"><ele>200.00000000000003</ele><time>2026-04-06T11:16:14.224Z</time></trkpt><trkpt lat="44.6469801" lon="7.9784462"><ele>200.0</ele><time>2026-04-06T11:16:15.224Z</time></trkpt><trkpt lat="44.6470809" lon="7.9785046"><ele>200.50000000000003</ele><time>2026-04-06T11:16:16.224Z</time></trkpt><trkpt lat="44.6471782" lon="7.9785556"><ele>201.0</ele><time>2026-04-06T11:16:17.224Z</time></trkpt><trkpt lat="44.647271" lon="7.9786093"><ele>201.5</ele><time>2026-04-06T11:16:18.224Z</time></trkpt><trkpt lat="44.6473563" lon="7.9786555"><ele>202.0</ele><time>2026-04-06T11:16:19.224Z</time></trkpt><trkpt lat="44.6474333" lon="7.9786898"><ele>202.50000000000003</ele><time>2026-04-06T11:16:20.224Z</time></trkpt><trkpt lat="44.6475002" lon="7.9787156"><ele>203.0</ele><time>2026-04-06T11:16:21.224Z</time></trkpt><trkpt lat="44.6475668" lon="7.9787342"><ele>203.0</ele><time>2026-04-06T11:16:22.224Z</time></trkpt><trkpt lat="44.6476859" lon="7.9787717"><ele>203.0</ele><time>2026-04-06T11:16:24.224Z</time></trkpt><trkpt lat="44.6477995" lon="7.9788159"><ele>203.0</ele><time>2026-04-06T11:16:26.224Z</time></trkpt><trkpt lat="44.6478959" lon="7.9788487"><ele>203.0</ele><time>2026-04-06T11:16:28.224Z</time></trkpt><trkpt lat="44.6478793" lon="7.9790461"><ele>202.0</ele><time>2026-04-06T11:16:34.224Z</time></trkpt><trkpt lat="44.6478978" lon="7.9792035"><ele>201.0</ele><time>2026-04-06T11:16:36.224Z</time></trkpt><trkpt lat="44.6478939" lon="7.9793723"><ele>200.0</ele><time>2026-04-06T11:16:38.224Z</time></trkpt><trkpt lat="44.647887" lon="7.9794831"><ele>199.0</ele><time>2026-04-06T11:16:39.224Z</time></trkpt><trkpt lat="44.6478797" lon="7.9795955"><ele>198.0</ele><time>2026-04-06T11:16:40.224Z</time></trkpt><trkpt lat="44.6478681" lon="7.9796894"><ele>198.0</ele><time>2026-04-06T11:16:41.224Z</time></trkpt><trkpt lat="44.647812" lon="7.9798259"><ele>198.0</ele><time>2026-04-06T11:16:43.224Z</time></trkpt><trkpt lat="44.6477574" lon="7.9798734"><ele>198.0</ele><time>2026-04-06T11:16:44.224Z</time></trkpt><trkpt lat="44.6476821" lon="7.9798979"><ele>198.0</ele><time>2026-04-06T11:16:45.224Z</time></trkpt><trkpt lat="44.6476089" lon="7.9799322"><ele>198.0</ele><time>2026-04-06T11:16:46.224Z</time></trkpt><trkpt lat="44.6475356" lon="7.9799638"><ele>198.0</ele><time>2026-04-06T11:16:47.224Z</time></trkpt><trkpt lat="44.6474561" lon="7.9799944"><ele>199.57142857142858</ele><time>2026-04-06T11:16:48.224Z</time></trkpt><trkpt lat="44.6473753" lon="7.9800207"><ele>201.14285714285714</ele><time>2026-04-06T11:16:49.224Z</time></trkpt><trkpt lat="44.6473004" lon="7.9800301"><ele>202.71428571428572</ele><time>2026-04-06T11:16:50.224Z</time></trkpt><trkpt lat="44.6472254" lon="7.9800273"><ele>204.28571428571428</ele><time>2026-04-06T11:16:51.224Z</time></trkpt><trkpt lat="44.647153" lon="7.9800158"><ele>205.85714285714283</ele><time>2026-04-06T11:16:52.224Z</time></trkpt><trkpt lat="44.6470836" lon="7.9800052"><ele>207.42857142857142</ele><time>2026-04-06T11:16:53.224Z</time></trkpt><trkpt lat="44.6470115" lon="7.98"><ele>209.0</ele><time>2026-04-06T11:16:54.224Z</time></trkpt><trkpt lat="44.6469337" lon="7.979999"><ele>211.66666666666669</ele><time>2026-04-06T11:16:55.224Z</time></trkpt><trkpt lat="44.6468497" lon="7.9800094"><ele>214.33333333333334</ele><time>2026-04-06T11:16:56.224Z</time></trkpt><trkpt lat="44.6467752" lon="7.9800252"><ele>217.0</ele><time>2026-04-06T11:16:57.224Z</time></trkpt><trkpt lat="44.6467006" lon="7.9800392"><ele>219.66666666666669</ele><time>2026-04-06T11:16:58.224Z</time></trkpt><trkpt lat="44.6466293" lon="7.9800867"><ele>222.33333333333334</ele><time>2026-04-06T11:16:59.224Z</time></trkpt><trkpt lat="44.6465665" lon="7.980144"><ele>225.0</ele><time>2026-04-06T11:17:00.224Z</time></trkpt><trkpt lat="44.6464952" lon="7.9802103"><ele>225.66666666666666</ele><time>2026-04-06T11:17:01.224Z</time></trkpt><trkpt lat="44.6464164" lon="7.9802812"><ele>226.33333333333331</ele><time>2026-04-06T11:17:02.224Z</time></trkpt><trkpt lat="44.6463474" lon="7.980345"><ele>227.0</ele><time>2026-04-06T11:17:03.224Z</time></trkpt><trkpt lat="44.6462852" lon="7.9804059"><ele>227.66666666666666</ele><time>2026-04-06T11:17:04.224Z</time></trkpt><trkpt lat="44.6462272" lon="7.9804765"><ele>228.33333333333331</ele><time>2026-04-06T11:17:05.224Z</time></trkpt><trkpt lat="44.6461625" lon="7.9805538"><ele>229.0</ele><time>2026-04-06T11:17:06.224Z</time></trkpt><trkpt lat="44.6460943" lon="7.9806322"><ele>229.71428571428572</ele><time>2026-04-06T11:17:07.224Z</time></trkpt><trkpt lat="44.6460339" lon="7.9807063"><ele>230.42857142857144</ele><time>2026-04-06T11:17:08.224Z</time></trkpt><trkpt lat="44.6459779" lon="7.980774"><ele>231.14285714285717</ele><time>2026-04-06T11:17:09.224Z</time></trkpt><trkpt lat="44.6459251" lon="7.9808403"><ele>231.85714285714286</ele><time>2026-04-06T11:17:10.224Z</time></trkpt><trkpt lat="44.6458776" lon="7.9809143"><ele>232.5714285714286</ele><time>2026-04-06T11:17:11.224Z</time></trkpt><trkpt lat="44.6458212" lon="7.9809762"><ele>233.2857142857143</ele><time>2026-04-06T11:17:12.224Z</time></trkpt><trkpt lat="44.645766" lon="7.9810358"><ele>234.0</ele><time>2026-04-06T11:17:13.224Z</time></trkpt><trkpt lat="44.6457018" lon="7.9810822"><ele>234.0</ele><time>2026-04-06T11:17:14.224Z</time></trkpt><trkpt lat="44.6456294" lon="7.9811153"><ele>234.0</ele><time>2026-04-06T11:17:15.224Z</time></trkpt><trkpt lat="44.6455476" lon="7.9811419"><ele>234.0</ele><time>2026-04-06T11:17:16.225Z</time></trkpt><trkpt lat="44.6454709" lon="7.9811613"><ele>234.0</ele><time>2026-04-06T11:17:17.224Z</time></trkpt><trkpt lat="44.6453977" lon="7.9811802"><ele>234.0</ele><time>2026-04-06T11:17:18.224Z</time></trkpt><trkpt lat="44.6453258" lon="7.9811995"><ele>234.0</ele><time>2026-04-06T11:17:19.224Z</time></trkpt><trkpt lat="44.6452551" lon="7.9812184"><ele>246.0</ele><time>2026-04-06T11:17:20.224Z</time></trkpt><trkpt lat="44.6451432" lon="7.981244"><ele>246.0</ele><time>2026-04-06T11:17:22.224Z</time></trkpt><trkpt lat="44.6450578" lon="7.9812759"><ele>246.0</ele><time>2026-04-06T11:17:24.224Z</time></trkpt><trkpt lat="44.6449224" lon="7.9814234"><ele>246.0</ele><time>2026-04-06T11:17:28.224Z</time></trkpt></trkseg><trkseg><trkpt lat="44.6447653" lon="7.9816429"><ele>244.60000000000002</ele><time>2026-04-06T11:30:43.223Z</time></trkpt><trkpt lat="44.6447326" lon="7.9817217"><ele>243.20000000000002</ele><time>2026-04-06T11:30:45.223Z</time></trkpt><trkpt lat="44.64467" lon="7.9819048"><ele>241.79999999999998</ele><time>2026-04-06T11:30:48.223Z</time></trkpt><trkpt lat="44.6446104" lon="7.9820627"><ele>240.39999999999998</ele><time>2026-04-06T11:30:50.223Z</time></trkpt><trkpt lat="44.6445733" lon="7.9821552"><ele>239.0</ele><time>2026-04-06T11:30:51.223Z</time></trkpt><trkpt lat="44.6445346" lon="7.9822609"><ele>239.00000000000003</ele><time>2026-04-06T11:30:52.223Z</time></trkpt><trkpt lat="44.644492" lon="7.9823631"><ele>239.0</ele><time>2026-04-06T11:30:53.223Z</time></trkpt><trkpt lat="44.6444503" lon="7.9824592"><ele>239.0</ele><time>2026-04-06T11:30:54.223Z</time></trkpt><trkpt lat="44.644412" lon="7.9825473"><ele>239.0</ele><time>2026-04-06T11:30:55.223Z</time></trkpt><trkpt lat="44.6443785" lon="7.9826429"><ele>239.00000000000003</ele><time>2026-04-06T11:30:56.223Z</time></trkpt><trkpt lat="44.6443439" lon="7.9827394"><ele>239.0</ele><time>2026-04-06T11:30:57.224Z</time></trkpt><trkpt lat="44.6443074" lon="7.9828359"><ele>240.66666666666669</ele><time>2026-04-06T11:30:58.223Z</time></trkpt><trkpt lat="44.6442751" lon="7.982933"><ele>242.33333333333334</ele><time>2026-04-06T11:30:59.223Z</time></trkpt><trkpt lat="44.6442379" lon="7.9830299"><ele>244.0</ele><time>2026-04-06T11:31:00.223Z</time></trkpt><trkpt lat="44.6442103" lon="7.983144"><ele>245.66666666666669</ele><time>2026-04-06T11:31:01.223Z</time></trkpt><trkpt lat="44.6441766" lon="7.9832674"><ele>247.33333333333334</ele><time>2026-04-06T11:31:02.223Z</time></trkpt><trkpt lat="44.6441438" lon="7.9833823"><ele>249.0</ele><time>2026-04-06T11:31:03.223Z</time></trkpt><trkpt lat="44.6441139" lon="7.983498"><ele>249.83333333333334</ele><time>2026-04-06T11:31:04.223Z</time></trkpt><trkpt lat="44.6440751" lon="7.9836052"><ele>250.66666666666669</ele><time>2026-04-06T11:31:05.223Z</time></trkpt><trkpt lat="44.6440419" lon="7.9837204"><ele>251.5</ele><time>2026-04-06T11:31:06.223Z</time></trkpt><trkpt lat="44.6440099" lon="7.9838349"><ele>252.33333333333334</ele><time>2026-04-06T11:31:07.223Z</time></trkpt><trkpt lat="44.6439759" lon="7.9839435"><ele>253.16666666666669</ele><time>2026-04-06T11:31:08.223Z</time></trkpt><trkpt lat="44.6439429" lon="7.9840511"><ele>254.0</ele><time>2026-04-06T11:31:09.223Z</time></trkpt><trkpt lat="44.6439119" lon="7.9841539"><ele>253.85714285714286</ele><time>2026-04-06T11:31:10.223Z</time></trkpt><trkpt lat="44.6438832" lon="7.9842533"><ele>253.71428571428572</ele><time>2026-04-06T11:31:11.223Z</time></trkpt><trkpt lat="44.6438567" lon="7.9843467"><ele>253.57142857142858</ele><time>2026-04-06T11:31:12.223Z</time></trkpt><trkpt lat="44.6438288" lon="7.984431"><ele>253.42857142857144</ele><time>2026-04-06T11:31:13.223Z</time></trkpt><trkpt lat="44.643802" lon="7.9845176"><ele>253.28571428571428</ele><time>2026-04-06T11:31:14.223Z</time></trkpt><trkpt lat="44.6437759" lon="7.9846088"><ele>253.14285714285717</ele><time>2026-04-06T11:31:15.223Z</time></trkpt><trkpt lat="44.6437488" lon="7.9847108"><ele>253.00000000000003</ele><time>2026-04-06T11:31:16.223Z</time></trkpt><trkpt lat="44.6437192" lon="7.9848167"><ele>253.00000000000003</ele><time>2026-04-06T11:31:17.223Z</time></trkpt><trkpt lat="44.64369" lon="7.9849166"><ele>253.0</ele><time>2026-04-06T11:31:18.223Z</time></trkpt><trkpt lat="44.643664" lon="7.9850066"><ele>253.00000000000003</ele><time>2026-04-06T11:31:19.223Z</time></trkpt><trkpt lat="44.6436376" lon="7.9851048"><ele>253.00000000000003</ele><time>2026-04-06T11:31:20.223Z</time></trkpt><trkpt lat="44.6436056" lon="7.9851987"><ele>253.0</ele><time>2026-04-06T11:31:21.223Z</time></trkpt><trkpt lat="44.643581" lon="7.9852913"><ele>253.00000000000003</ele><time>2026-04-06T11:31:22.223Z</time></trkpt><trkpt lat="44.6435601" lon="7.9853748"><ele>253.00000000000003</ele><time>2026-04-06T11:31:23.223Z</time></trkpt><trkpt lat="44.6435163" lon="7.9855285"><ele>254.4</ele><time>2026-04-06T11:31:25.223Z</time></trkpt><trkpt lat="44.6434374" lon="7.9856501"><ele>255.8</ele><time>2026-04-06T11:31:27.223Z</time></trkpt><trkpt lat="44.6433773" lon="7.9857231"><ele>257.2</ele><time>2026-04-06T11:31:28.224Z</time></trkpt><trkpt lat="44.6433065" lon="7.9858001"><ele>258.6</ele><time>2026-04-06T11:31:29.223Z</time></trkpt><trkpt lat="44.6432278" lon="7.9859045"><ele>260.0</ele><time>2026-04-06T11:31:30.223Z</time></trkpt><trkpt lat="44.6431539" lon="7.9860002"><ele>259.4</ele><time>2026-04-06T11:31:31.223Z</time></trkpt><trkpt lat="44.6430937" lon="7.9860708"><ele>258.8</ele><time>2026-04-06T11:31:32.223Z</time></trkpt><trkpt lat="44.6430092" lon="7.9861366"><ele>258.2</ele><time>2026-04-06T11:31:34.223Z</time></trkpt><trkpt lat="44.6429508" lon="7.9860935"><ele>257.6</ele><time>2026-04-06T11:31:36.223Z</time></trkpt><trkpt lat="44.6428775" lon="7.9860397"><ele>257.0</ele><time>2026-04-06T11:31:38.223Z</time></trkpt><trkpt lat="44.6427211" lon="7.9861074"><ele>257.0</ele><time>2026-04-06T11:31:41.223Z</time></trkpt><trkpt lat="44.642644" lon="7.9861799"><ele>257.0</ele><time>2026-04-06T11:31:42.223Z</time></trkpt><trkpt lat="44.6425555" lon="7.9862588"><ele>257.0</ele><time>2026-04-06T11:31:43.223Z</time></trkpt><trkpt lat="44.6424533" lon="7.9863498"><ele>257.0</ele><time>2026-04-06T11:31:44.223Z</time></trkpt><trkpt lat="44.6423568" lon="7.9864307"><ele>257.0</ele><time>2026-04-06T11:31:45.223Z</time></trkpt><trkpt lat="44.6422666" lon="7.9865109"><ele>257.0</ele><time>2026-04-06T11:31:46.223Z</time></trkpt><trkpt lat="44.6421815" lon="7.9865867"><ele>257.0</ele><time>2026-04-06T11:31:47.223Z</time></trkpt><trkpt lat="44.6421058" lon="7.9866554"><ele>257.0</ele><time>2026-04-06T11:31:48.223Z</time></trkpt><trkpt lat="44.6420316" lon="7.9867243"><ele>257.0</ele><time>2026-04-06T11:31:49.223Z</time></trkpt><trkpt lat="44.6419642" lon="7.9867938"><ele>257.0</ele><time>2026-04-06T11:31:50.223Z</time></trkpt><trkpt lat="44.6419088" lon="7.9868668"><ele>257.0</ele><time>2026-04-06T11:31:51.223Z</time></trkpt><trkpt lat="44.6418801" lon="7.98696"><ele>259.0</ele><time>2026-04-06T11:31:52.223Z</time></trkpt><trkpt lat="44.6418592" lon="7.987044"><ele>261.0</ele><time>2026-04-06T11:31:53.223Z</time></trkpt><trkpt lat="44.6418325" lon="7.9871594"><ele>263.0</ele><time>2026-04-06T11:31:54.223Z</time></trkpt><trkpt lat="44.6418018" lon="7.9872926"><ele>265.0</ele><time>2026-04-06T11:31:55.223Z</time></trkpt><trkpt lat="44.6417647" lon="7.987439"><ele>267.0</ele><time>2026-04-06T11:31:56.223Z</time></trkpt><trkpt lat="44.641732" lon="7.9875778"><ele>267.0</ele><time>2026-04-06T11:31:57.223Z</time></trkpt><trkpt lat="44.6417009" lon="7.9877098"><ele>267.0</ele><time>2026-04-06T11:31:58.223Z</time></trkpt><trkpt lat="44.6416708" lon="7.9878454"><ele>267.0</ele><time>2026-04-06T11:31:59.223Z</time></trkpt><trkpt lat="44.6416386" lon="7.9879838"><ele>267.0</ele><time>2026-04-06T11:32:00.223Z</time></trkpt><trkpt lat="44.6416034" lon="7.9881213"><ele>267.0</ele><time>2026-04-06T11:32:01.223Z</time></trkpt><trkpt lat="44.641571" lon="7.9882557"><ele>266.4</ele><time>2026-04-06T11:32:02.223Z</time></trkpt><trkpt lat="44.6415365" lon="7.9883963"><ele>265.79999999999995</ele><time>2026-04-06T11:32:03.223Z</time></trkpt><trkpt lat="44.6415038" lon="7.9885335"><ele>265.2</ele><time>2026-04-06T11:32:04.223Z</time></trkpt><trkpt lat="44.6414655" lon="7.988665"><ele>264.59999999999997</ele><time>2026-04-06T11:32:05.223Z</time></trkpt><trkpt lat="44.6414308" lon="7.9887985"><ele>264.0</ele><time>2026-04-06T11:32:06.223Z</time></trkpt><trkpt lat="44.6413898" lon="7.9889343"><ele>264.0</ele><time>2026-04-06T11:32:07.223Z</time></trkpt><trkpt lat="44.6413534" lon="7.9890659"><ele>264.0</ele><time>2026-04-06T11:32:08.223Z</time></trkpt><trkpt lat="44.6413231" lon="7.989187"><ele>264.0</ele><time>2026-04-06T11:32:09.223Z</time></trkpt><trkpt lat="44.6412953" lon="7.9892864"><ele>264.0</ele><time>2026-04-06T11:32:10.223Z</time></trkpt><trkpt lat="44.6412714" lon="7.9893808"><ele>264.0</ele><time>2026-04-06T11:32:11.223Z</time></trkpt><trkpt lat="44.6412404" lon="7.9895291"><ele>264.0</ele><time>2026-04-06T11:32:13.223Z</time></trkpt><trkpt lat="44.6411693" lon="7.9896339"><ele>266.8</ele><time>2026-04-06T11:32:15.223Z</time></trkpt><trkpt lat="44.6411085" lon="7.9896901"><ele>269.59999999999997</ele><time>2026-04-06T11:32:16.223Z</time></trkpt><trkpt lat="44.6410351" lon="7.9897485"><ele>272.4</ele><time>2026-04-06T11:32:17.223Z</time></trkpt><trkpt lat="44.6409485" lon="7.9898143"><ele>275.2</ele><time>2026-04-06T11:32:18.223Z</time></trkpt><trkpt lat="44.6408506" lon="7.9898824"><ele>278.0</ele><time>2026-04-06T11:32:19.223Z</time></trkpt><trkpt lat="44.6407535" lon="7.989944"><ele>278.0</ele><time>2026-04-06T11:32:20.224Z</time></trkpt><trkpt lat="44.6406607" lon="7.9900073"><ele>278.0</ele><time>2026-04-06T11:32:21.223Z</time></trkpt><trkpt lat="44.6405729" lon="7.9900679"><ele>278.0</ele><time>2026-04-06T11:32:22.223Z</time></trkpt><trkpt lat="44.640484" lon="7.9901324"><ele>278.0</ele><time>2026-04-06T11:32:23.223Z</time></trkpt><trkpt lat="44.6403909" lon="7.9902004"><ele>278.0</ele><time>2026-04-06T11:32:24.223Z</time></trkpt><trkpt lat="44.6402981" lon="7.9902632"><ele>278.4</ele><time>2026-04-06T11:32:25.223Z</time></trkpt><trkpt lat="44.6402128" lon="7.9903267"><ele>278.8</ele><time>2026-04-06T11:32:26.223Z</time></trkpt><trkpt lat="44.6401254" lon="7.9903922"><ele>279.2</ele><time>2026-04-06T11:32:27.223Z</time></trkpt><trkpt lat="44.6400401" lon="7.9904624"><ele>279.6</ele><time>2026-04-06T11:32:28.223Z</time></trkpt><trkpt lat="44.6399627" lon="7.9905323"><ele>280.0</ele><time>2026-04-06T11:32:29.223Z</time></trkpt><trkpt lat="44.639894" lon="7.9905989"><ele>280.0</ele><time>2026-04-06T11:32:30.223Z</time></trkpt><trkpt lat="44.6398307" lon="7.9906558"><ele>280.0</ele><time>2026-04-06T11:32:31.223Z</time></trkpt><trkpt lat="44.6397743" lon="7.9907016"><ele>280.0</ele><time>2026-04-06T11:32:32.223Z</time></trkpt><trkpt lat="44.6396843" lon="7.990765"><ele>280.0</ele><time>2026-04-06T11:32:34.223Z</time></trkpt><trkpt lat="44.639605" lon="7.9907942"><ele>280.0</ele><time>2026-04-06T11:32:37.223Z</time></trkpt><trkpt lat="44.6395732" lon="7.9906707"><ele>280.0</ele><time>2026-04-06T11:32:41.223Z</time></trkpt><trkpt lat="44.639524" lon="7.9905982"><ele>281.0</ele><time>2026-04-06T11:32:43.223Z</time></trkpt><trkpt lat="44.6394572" lon="7.99064"><ele>282.0</ele><time>2026-04-06T11:32:45.224Z</time></trkpt><trkpt lat="44.6393535" lon="7.9907532"><ele>283.0</ele><time>2026-04-06T11:32:47.223Z</time></trkpt><trkpt lat="44.6392772" lon="7.9908328"><ele>284.0</ele><time>2026-04-06T11:32:48.223Z</time></trkpt><trkpt lat="44.6392206" lon="7.9909317"><ele>285.0</ele><time>2026-04-06T11:32:49.223Z</time></trkpt><trkpt lat="44.6391716" lon="7.9910312"><ele>286.8</ele><time>2026-04-06T11:32:50.223Z</time></trkpt><trkpt lat="44.6391141" lon="7.9911632"><ele>288.6</ele><time>2026-04-06T11:32:51.223Z</time></trkpt><trkpt lat="44.6390566" lon="7.9912887"><ele>290.4</ele><time>2026-04-06T11:32:52.223Z</time></trkpt><trkpt lat="44.6390012" lon="7.9914205"><ele>292.2</ele><time>2026-04-06T11:32:53.223Z</time></trkpt><trkpt lat="44.6389483" lon="7.9915448"><ele>294.0</ele><time>2026-04-06T11:32:54.224Z</time></trkpt><trkpt lat="44.6388879" lon="7.9916677"><ele>293.8</ele><time>2026-04-06T11:32:55.223Z</time></trkpt><trkpt lat="44.6388275" lon="7.9917884"><ele>293.59999999999997</ele><time>2026-04-06T11:32:56.223Z</time></trkpt><trkpt lat="44.6387681" lon="7.9919081"><ele>293.4</ele><time>2026-04-06T11:32:57.223Z</time></trkpt><trkpt lat="44.6387132" lon="7.9920143"><ele>293.2</ele><time>2026-04-06T11:32:58.223Z</time></trkpt><trkpt lat="44.6386632" lon="7.9921236"><ele>293.0</ele><time>2026-04-06T11:32:59.223Z</time></trkpt><trkpt lat="44.6386217" lon="7.9922153"><ele>293.0</ele><time>2026-04-06T11:33:00.223Z</time></trkpt><trkpt lat="44.6385902" lon="7.992304"><ele>293.0</ele><time>2026-04-06T11:33:01.223Z</time></trkpt><trkpt lat="44.6385544" lon="7.9923914"><ele>293.0</ele><time>2026-04-06T11:33:02.223Z</time></trkpt><trkpt lat="44.6385087" lon="7.9924822"><ele>293.0</ele><time>2026-04-06T11:33:03.223Z</time></trkpt><trkpt lat="44.6384386" lon="7.9925847"><ele>293.0</ele><time>2026-04-06T11:33:04.224Z</time></trkpt><trkpt lat="44.6383535" lon="7.9926945"><ele>293.0</ele><time>2026-04-06T11:33:05.223Z</time></trkpt><trkpt lat="44.6382597" lon="7.9928037"><ele>292.0</ele><time>2026-04-06T11:33:06.223Z</time></trkpt><trkpt lat="44.638162" lon="7.9929258"><ele>291.0</ele><time>2026-04-06T11:33:07.223Z</time></trkpt><trkpt lat="44.6380722" lon="7.9930602"><ele>290.0</ele><time>2026-04-06T11:33:08.223Z</time></trkpt><trkpt lat="44.6379922" lon="7.9932035"><ele>289.0</ele><time>2026-04-06T11:33:09.223Z</time></trkpt><trkpt lat="44.6379157" lon="7.9933419"><ele>287.75</ele><time>2026-04-06T11:33:10.223Z</time></trkpt><trkpt lat="44.6378429" lon="7.9934702"><ele>286.5</ele><time>2026-04-06T11:33:11.223Z</time></trkpt><trkpt lat="44.6377695" lon="7.9936005"><ele>285.25</ele><time>2026-04-06T11:33:12.223Z</time></trkpt><trkpt lat="44.6376994" lon="7.9937271"><ele>284.0</ele><time>2026-04-06T11:33:13.223Z</time></trkpt><trkpt lat="44.637633" lon="7.9938511"><ele>286.6666666666667</ele><time>2026-04-06T11:33:14.223Z</time></trkpt><trkpt lat="44.6375773" lon="7.9939667"><ele>289.33333333333337</ele><time>2026-04-06T11:33:15.223Z</time></trkpt><trkpt lat="44.6375268" lon="7.9940693"><ele>292.0</ele><time>2026-04-06T11:33:16.223Z</time></trkpt><trkpt lat="44.6374669" lon="7.9941557"><ele>294.6666666666667</ele><time>2026-04-06T11:33:17.223Z</time></trkpt><trkpt lat="44.6374056" lon="7.994224"><ele>297.3333333333333</ele><time>2026-04-06T11:33:18.223Z</time></trkpt><trkpt lat="44.6373444" lon="7.994262"><ele>300.0</ele><time>2026-04-06T11:33:19.223Z</time></trkpt><trkpt lat="44.6372751" lon="7.994271"><ele>300.3333333333333</ele><time>2026-04-06T11:33:20.223Z</time></trkpt><trkpt lat="44.6371912" lon="7.9942765"><ele>300.6666666666667</ele><time>2026-04-06T11:33:21.223Z</time></trkpt><trkpt lat="44.6371057" lon="7.9942824"><ele>301.0</ele><time>2026-04-06T11:33:22.223Z</time></trkpt><trkpt lat="44.637021" lon="7.9942997"><ele>301.33333333333337</ele><time>2026-04-06T11:33:23.223Z</time></trkpt><trkpt lat="44.6369399" lon="7.9943146"><ele>301.6666666666667</ele><time>2026-04-06T11:33:24.223Z</time></trkpt><trkpt lat="44.6368619" lon="7.99432"><ele>302.0</ele><time>2026-04-06T11:33:25.223Z</time></trkpt><trkpt lat="44.6367808" lon="7.9943239"><ele>302.8</ele><time>2026-04-06T11:33:26.223Z</time></trkpt><trkpt lat="44.6366931" lon="7.9943268"><ele>303.6</ele><time>2026-04-06T11:33:27.223Z</time></trkpt><trkpt lat="44.6366002" lon="7.9943284"><ele>304.40000000000003</ele><time>2026-04-06T11:33:28.223Z</time></trkpt><trkpt lat="44.6365058" lon="7.9943329"><ele>305.2</ele><time>2026-04-06T11:33:29.223Z</time></trkpt><trkpt lat="44.6364104" lon="7.9943343"><ele>306.0</ele><time>2026-04-06T11:33:30.223Z</time></trkpt><trkpt lat="44.6363153" lon="7.9943281"><ele>306.0</ele><time>2026-04-06T11:33:31.223Z</time></trkpt><trkpt lat="44.6362229" lon="7.9943145"><ele>306.0</ele><time>2026-04-06T11:33:32.223Z</time></trkpt><trkpt lat="44.6361405" lon="7.9943006"><ele>306.0</ele><time>2026-04-06T11:33:33.223Z</time></trkpt><trkpt lat="44.6360639" lon="7.9942988"><ele>306.0</ele><time>2026-04-06T11:33:34.223Z</time></trkpt><trkpt lat="44.6359917" lon="7.9942953"><ele>306.0</ele><time>2026-04-06T11:33:35.223Z</time></trkpt><trkpt lat="44.6359263" lon="7.9942788"><ele>306.0</ele><time>2026-04-06T11:33:36.223Z</time></trkpt><trkpt lat="44.6358638" lon="7.9942303"><ele>305.1428571428571</ele><time>2026-04-06T11:33:37.223Z</time></trkpt><trkpt lat="44.6358045" lon="7.9941535"><ele>304.2857142857143</ele><time>2026-04-06T11:33:38.223Z</time></trkpt><trkpt lat="44.6357596" lon="7.9940735"><ele>303.42857142857144</ele><time>2026-04-06T11:33:39.223Z</time></trkpt><trkpt lat="44.6357082" lon="7.994003"><ele>302.57142857142856</ele><time>2026-04-06T11:33:40.223Z</time></trkpt><trkpt lat="44.6356561" lon="7.993932"><ele>301.7142857142857</ele><time>2026-04-06T11:33:41.223Z</time></trkpt><trkpt lat="44.6356031" lon="7.9938607"><ele>300.85714285714283</ele><time>2026-04-06T11:33:42.223Z</time></trkpt><trkpt lat="44.6355483" lon="7.9937927"><ele>300.0</ele><time>2026-04-06T11:33:43.223Z</time></trkpt><trkpt lat="44.635498" lon="7.99372"><ele>300.0</ele><time>2026-04-06T11:33:44.223Z</time></trkpt><trkpt lat="44.6354508" lon="7.9936473"><ele>300.0</ele><time>2026-04-06T11:33:45.223Z</time></trkpt><trkpt lat="44.6354026" lon="7.9935792"><ele>300.0</ele><time>2026-04-06T11:33:46.223Z</time></trkpt><trkpt lat="44.6353559" lon="7.9935146"><ele>300.0</ele><time>2026-04-06T11:33:47.223Z</time></trkpt><trkpt lat="44.6352554" lon="7.9934172"><ele>300.0</ele><time>2026-04-06T11:33:49.223Z</time></trkpt><trkpt lat="44.6352015" lon="7.9933696"><ele>300.0</ele><time>2026-04-06T11:33:50.223Z</time></trkpt><trkpt lat="44.6351445" lon="7.9933157"><ele>299.6</ele><time>2026-04-06T11:33:51.223Z</time></trkpt><trkpt lat="44.6350802" lon="7.9932575"><ele>299.2</ele><time>2026-04-06T11:33:52.223Z</time></trkpt><trkpt lat="44.6350234" lon="7.9932113"><ele>298.8</ele><time>2026-04-06T11:33:53.223Z</time></trkpt><trkpt lat="44.6349648" lon="7.9931651"><ele>298.4</ele><time>2026-04-06T11:33:54.223Z</time></trkpt><trkpt lat="44.6348589" lon="7.9930741"><ele>298.0</ele><time>2026-04-06T11:33:56.223Z</time></trkpt><trkpt lat="44.6347519" lon="7.9929765"><ele>298.0</ele><time>2026-04-06T11:33:58.224Z</time></trkpt><trkpt lat="44.6346933" lon="7.9929119"><ele>298.0</ele><time>2026-04-06T11:33:59.223Z</time></trkpt><trkpt lat="44.6346336" lon="7.9928395"><ele>298.0</ele><time>2026-04-06T11:34:00.223Z</time></trkpt><trkpt lat="44.6345752" lon="7.9927645"><ele>298.0</ele><time>2026-04-06T11:34:01.224Z</time></trkpt><trkpt lat="44.6345117" lon="7.9926805"><ele>298.0</ele><time>2026-04-06T11:34:02.223Z</time></trkpt><trkpt lat="44.6344505" lon="7.9925803"><ele>298.0</ele><time>2026-04-06T11:34:03.223Z</time></trkpt><trkpt lat="44.6343894" lon="7.9924784"><ele>298.0</ele><time>2026-04-06T11:34:04.223Z</time></trkpt><trkpt lat="44.6343336" lon="7.9923595"><ele>298.0</ele><time>2026-04-06T11:34:05.223Z</time></trkpt><trkpt lat="44.6342815" lon="7.992234"><ele>298.0</ele><time>2026-04-06T11:34:06.223Z</time></trkpt><trkpt lat="44.6342373" lon="7.9921158"><ele>298.0</ele><time>2026-04-06T11:34:07.223Z</time></trkpt><trkpt lat="44.6341948" lon="7.9920132"><ele>298.0</ele><time>2026-04-06T11:34:08.223Z</time></trkpt><trkpt lat="44.6341544" lon="7.9919278"><ele>298.0</ele><time>2026-04-06T11:34:09.223Z</time></trkpt><trkpt lat="44.634085" lon="7.9918026"><ele>298.0</ele><time>2026-04-06T11:34:11.223Z</time></trkpt><trkpt lat="44.6339938" lon="7.9917902"><ele>298.0</ele><time>2026-04-06T11:34:13.224Z</time></trkpt><trkpt lat="44.6339062" lon="7.9918936"><ele>298.0</ele><time>2026-04-06T11:34:15.223Z</time></trkpt><trkpt lat="44.6338156" lon="7.9920118"><ele>298.0</ele><time>2026-04-06T11:34:17.223Z</time></trkpt><trkpt lat="44.6337638" lon="7.9920779"><ele>298.0</ele><time>2026-04-06T11:34:18.223Z</time></trkpt><trkpt lat="44.6337066" lon="7.9921412"><ele>298.0</ele><time>2026-04-06T11:34:19.223Z</time></trkpt><trkpt lat="44.6336455" lon="7.9922043"><ele>298.0</ele><time>2026-04-06T11:34:20.223Z</time></trkpt><trkpt lat="44.6335821" lon="7.9922642"><ele>298.0</ele><time>2026-04-06T11:34:21.223Z</time></trkpt><trkpt lat="44.6335174" lon="7.9923306"><ele>298.0</ele><time>2026-04-06T11:34:22.223Z</time></trkpt><trkpt lat="44.6334498" lon="7.9923978"><ele>298.0</ele><time>2026-04-06T11:34:23.223Z</time></trkpt><trkpt lat="44.6333828" lon="7.9924615"><ele>299.66666666666663</ele><time>2026-04-06T11:34:24.223Z</time></trkpt><trkpt lat="44.6333163" lon="7.9925229"><ele>301.3333333333333</ele><time>2026-04-06T11:34:25.223Z</time></trkpt><trkpt lat="44.6332477" lon="7.9925833"><ele>303.0</ele><time>2026-04-06T11:34:26.223Z</time></trkpt><trkpt lat="44.6331932" lon="7.9926371"><ele>304.6666666666667</ele><time>2026-04-06T11:34:27.223Z</time></trkpt><trkpt lat="44.6331088" lon="7.9927334"><ele>306.33333333333337</ele><time>2026-04-06T11:34:29.223Z</time></trkpt><trkpt lat="44.6330176" lon="7.9927884"><ele>308.0</ele><time>2026-04-06T11:34:31.223Z</time></trkpt><trkpt lat="44.6328977" lon="7.9928079"><ele>306.8</ele><time>2026-04-06T11:34:33.223Z</time></trkpt><trkpt lat="44.6327884" lon="7.9928018"><ele>305.6</ele><time>2026-04-06T11:34:35.223Z</time></trkpt><trkpt lat="44.6326627" lon="7.9927644"><ele>304.4</ele><time>2026-04-06T11:34:37.223Z</time></trkpt><trkpt lat="44.6325891" lon="7.9927386"><ele>303.2</ele><time>2026-04-06T11:34:38.223Z</time></trkpt><trkpt lat="44.6325145" lon="7.9927244"><ele>302.0</ele><time>2026-04-06T11:34:39.223Z</time></trkpt><trkpt lat="44.632442" lon="7.9927225"><ele>302.0</ele><time>2026-04-06T11:34:40.223Z</time></trkpt><trkpt lat="44.6323696" lon="7.9926975"><ele>302.0</ele><time>2026-04-06T11:34:41.223Z</time></trkpt><trkpt lat="44.632295" lon="7.9926768"><ele>302.0</ele><time>2026-04-06T11:34:42.223Z</time></trkpt><trkpt lat="44.6322278" lon="7.9926506"><ele>302.0</ele><time>2026-04-06T11:34:43.223Z</time></trkpt><trkpt lat="44.6321279" lon="7.9926079"><ele>302.0</ele><time>2026-04-06T11:34:45.223Z</time></trkpt><trkpt lat="44.6320352" lon="7.9925708"><ele>302.0</ele><time>2026-04-06T11:34:47.223Z</time></trkpt><trkpt lat="44.6319777" lon="7.992511"><ele>301.6</ele><time>2026-04-06T11:34:49.223Z</time></trkpt><trkpt lat="44.6318868" lon="7.9924377"><ele>301.2</ele><time>2026-04-06T11:34:52.223Z</time></trkpt><trkpt lat="44.6318234" lon="7.9924085"><ele>300.8</ele><time>2026-04-06T11:34:53.223Z</time></trkpt><trkpt lat="44.6317464" lon="7.9923785"><ele>300.4</ele><time>2026-04-06T11:34:54.223Z</time></trkpt><trkpt lat="44.6316576" lon="7.9923289"><ele>300.0</ele><time>2026-04-06T11:34:55.223Z</time></trkpt><trkpt lat="44.6315617" lon="7.9922463"><ele>300.0</ele><time>2026-04-06T11:34:56.223Z</time></trkpt><trkpt lat="44.6314566" lon="7.9921618"><ele>300.0</ele><time>2026-04-06T11:34:57.223Z</time></trkpt><trkpt lat="44.6313465" lon="7.99208"><ele>300.0</ele><time>2026-04-06T11:34:58.223Z</time></trkpt><trkpt lat="44.6312296" lon="7.9919919"><ele>300.0</ele><time>2026-04-06T11:34:59.22Z</time></trkpt><trkpt lat="44.6311238" lon="7.9919124"><ele>299.6</ele><time>2026-04-06T11:35:00.223Z</time></trkpt><trkpt lat="44.6310276" lon="7.9918519"><ele>299.2</ele><time>2026-04-06T11:35:01.223Z</time></trkpt><trkpt lat="44.6309315" lon="7.9918136"><ele>298.8</ele><time>2026-04-06T11:35:02.223Z</time></trkpt><trkpt lat="44.6308426" lon="7.991789"><ele>298.4</ele><time>2026-04-06T11:35:03.223Z</time></trkpt><trkpt lat="44.6307361" lon="7.9917871"><ele>298.0</ele><time>2026-04-06T11:35:04.223Z</time></trkpt><trkpt lat="44.6306198" lon="7.9918149"><ele>298.0</ele><time>2026-04-06T11:35:05.223Z</time></trkpt><trkpt lat="44.6304906" lon="7.9918453"><ele>298.0</ele><time>2026-04-06T11:35:06.223Z</time></trkpt><trkpt lat="44.6303492" lon="7.9918845"><ele>298.0</ele><time>2026-04-06T11:35:07.223Z</time></trkpt><trkpt lat="44.6301974" lon="7.9919223"><ele>298.0</ele><time>2026-04-06T11:35:08.223Z</time></trkpt><trkpt lat="44.6300492" lon="7.9919619"><ele>300.66666666666663</ele><time>2026-04-06T11:35:09.223Z</time></trkpt><trkpt lat="44.6298926" lon="7.9919915"><ele>303.3333333333333</ele><time>2026-04-06T11:35:10.223Z</time></trkpt><trkpt lat="44.6297404" lon="7.9920318"><ele>306.0</ele><time>2026-04-06T11:35:11.223Z</time></trkpt><trkpt lat="44.6295997" lon="7.9920544"><ele>307.25</ele><time>2026-04-06T11:35:12.223Z</time></trkpt><trkpt lat="44.6294734" lon="7.9920707"><ele>308.5</ele><time>2026-04-06T11:35:13.223Z</time></trkpt><trkpt lat="44.6293548" lon="7.9920798"><ele>309.75</ele><time>2026-04-06T11:35:14.223Z</time></trkpt><trkpt lat="44.6292413" lon="7.9920871"><ele>311.0</ele><time>2026-04-06T11:35:15.223Z</time></trkpt><trkpt lat="44.629129" lon="7.9921059"><ele>311.0</ele><time>2026-04-06T11:35:16.223Z</time></trkpt><trkpt lat="44.6290101" lon="7.9921246"><ele>311.0</ele><time>2026-04-06T11:35:17.223Z</time></trkpt><trkpt lat="44.6288873" lon="7.9921516"><ele>311.0</ele><time>2026-04-06T11:35:18.223Z</time></trkpt><trkpt lat="44.6287694" lon="7.9921895"><ele>311.0</ele><time>2026-04-06T11:35:19.223Z</time></trkpt><trkpt lat="44.62865" lon="7.9922352"><ele>312.5</ele><time>2026-04-06T11:35:20.223Z</time></trkpt><trkpt lat="44.6285257" lon="7.9922879"><ele>314.0</ele><time>2026-04-06T11:35:21.223Z</time></trkpt><trkpt lat="44.628405" lon="7.9923615"><ele>315.5</ele><time>2026-04-06T11:35:22.223Z</time></trkpt><trkpt lat="44.6282848" lon="7.9924404"><ele>317.0</ele><time>2026-04-06T11:35:23.223Z</time></trkpt><trkpt lat="44.6281706" lon="7.9925135"><ele>317.0</ele><time>2026-04-06T11:35:24.223Z</time></trkpt><trkpt lat="44.6280591" lon="7.9925899"><ele>317.0</ele><time>2026-04-06T11:35:25.223Z</time></trkpt><trkpt lat="44.6279533" lon="7.9926654"><ele>317.0</ele><time>2026-04-06T11:35:26.223Z</time></trkpt><trkpt lat="44.6278629" lon="7.9927237"><ele>317.0</ele><time>2026-04-06T11:35:27.223Z</time></trkpt><trkpt lat="44.6277807" lon="7.9927814"><ele>317.0</ele><time>2026-04-06T11:35:28.223Z</time></trkpt><trkpt lat="44.6277027" lon="7.9928339"><ele>319.33333333333337</ele><time>2026-04-06T11:35:29.223Z</time></trkpt><trkpt lat="44.6276341" lon="7.9928846"><ele>321.6666666666667</ele><time>2026-04-06T11:35:30.223Z</time></trkpt><trkpt lat="44.627572" lon="7.9929306"><ele>324.0</ele><time>2026-04-06T11:35:31.223Z</time></trkpt><trkpt lat="44.6274705" lon="7.9930156"><ele>326.3333333333333</ele><time>2026-04-06T11:35:33.223Z</time></trkpt><trkpt lat="44.6273959" lon="7.9930882"><ele>328.66666666666663</ele><time>2026-04-06T11:35:35.223Z</time></trkpt><trkpt lat="44.627369" lon="7.9931709"><ele>331.0</ele><time>2026-04-06T11:35:37.223Z</time></trkpt><trkpt lat="44.6274025" lon="7.9932516"><ele>331.0</ele><time>2026-04-06T11:35:41.223Z</time></trkpt><trkpt lat="44.6274634" lon="7.9933175"><ele>331.0</ele><time>2026-04-06T11:35:44.223Z</time></trkpt><trkpt lat="44.6275196" lon="7.9933933"><ele>331.0</ele><time>2026-04-06T11:35:48.223Z</time></trkpt><trkpt lat="44.6275735" lon="7.9934612"><ele>331.0</ele><time>2026-04-06T11:35:51.223Z</time></trkpt><trkpt lat="44.6276393" lon="7.9935243"><ele>331.0</ele><time>2026-04-06T11:35:57.223Z</time></trkpt><trkpt lat="44.6277233" lon="7.9935209"><ele>331.0</ele><time>2026-04-06T11:36:01.223Z</time></trkpt><trkpt lat="44.627643" lon="7.9934869"><ele>331.0</ele><time>2026-04-06T11:36:08.223Z</time></trkpt><trkpt lat="44.6275554" lon="7.9934626"><ele>331.0</ele><time>2026-04-06T11:36:10.223Z</time></trkpt><trkpt lat="44.6274837" lon="7.9934071"><ele>331.0</ele><time>2026-04-06T11:36:12.223Z</time></trkpt><trkpt lat="44.6274218" lon="7.9932985"><ele>331.0</ele><time>2026-04-06T11:36:14.223Z</time></trkpt><trkpt lat="44.6273906" lon="7.9932161"><ele>331.0</ele><time>2026-04-06T11:36:17.223Z</time></trkpt><trkpt lat="44.6274489" lon="7.993113"><ele>331.0</ele><time>2026-04-06T11:36:21.223Z</time></trkpt><trkpt lat="44.6275325" lon="7.9930363"><ele>331.0</ele><time>2026-04-06T11:36:24.223Z</time></trkpt><trkpt lat="44.6276023" lon="7.9929856"><ele>331.0</ele><time>2026-04-06T11:36:27.223Z</time></trkpt><trkpt lat="44.6275312" lon="7.992942"><ele>331.0</ele><time>2026-04-06T11:36:45.223Z</time></trkpt><trkpt lat="44.6274676" lon="7.9929824"><ele>331.0</ele><time>2026-04-06T11:36:47.223Z</time></trkpt></trkseg><trkseg><trkpt lat="44.6292279" lon="7.9921519"><ele>306.0</ele><time>2026-04-06T13:53:23.217Z</time></trkpt><trkpt lat="44.6296827" lon="7.9921076"><ele>306.0</ele><time>2026-04-06T13:53:27.217Z</time></trkpt><trkpt lat="44.6297912" lon="7.9920923"><ele>306.0</ele><time>2026-04-06T13:53:28.217Z</time></trkpt><trkpt lat="44.6298942" lon="7.9920687"><ele>306.0</ele><time>2026-04-06T13:53:29.217Z</time></trkpt><trkpt lat="44.6299984" lon="7.9920421"><ele>306.0</ele><time>2026-04-06T13:53:30.217Z</time></trkpt><trkpt lat="44.6301076" lon="7.9920187"><ele>306.0</ele><time>2026-04-06T13:53:31.217Z</time></trkpt><trkpt lat="44.6302213" lon="7.9919848"><ele>304.40000000000003</ele><time>2026-04-06T13:53:32.217Z</time></trkpt><trkpt lat="44.6303331" lon="7.9919638"><ele>302.8</ele><time>2026-04-06T13:53:33.217Z</time></trkpt><trkpt lat="44.6304446" lon="7.991932"><ele>301.20000000000005</ele><time>2026-04-06T13:53:34.217Z</time></trkpt><trkpt lat="44.6305365" lon="7.9919093"><ele>299.6</ele><time>2026-04-06T13:53:35.217Z</time></trkpt><trkpt lat="44.6306076" lon="7.9918884"><ele>298.0</ele><time>2026-04-06T13:53:36.217Z</time></trkpt><trkpt lat="44.6307011" lon="7.9918608"><ele>298.0</ele><time>2026-04-06T13:53:38.217Z</time></trkpt><trkpt lat="44.6307609" lon="7.9918188"><ele>298.0</ele><time>2026-04-06T13:53:40.217Z</time></trkpt><trkpt lat="44.6306821" lon="7.9916391"><ele>298.0</ele><time>2026-04-06T13:53:44.217Z</time></trkpt><trkpt lat="44.6305965" lon="7.9915703"><ele>298.0</ele><time>2026-04-06T13:53:46.217Z</time></trkpt><trkpt lat="44.6305024" lon="7.9914924"><ele>298.0</ele><time>2026-04-06T13:53:48.217Z</time></trkpt><trkpt lat="44.6304436" lon="7.9914245"><ele>298.0</ele><time>2026-04-06T13:53:50.217Z</time></trkpt><trkpt lat="44.630509" lon="7.9915204"><ele>298.0</ele><time>2026-04-06T13:55:09.218Z</time></trkpt><trkpt lat="44.6306056" lon="7.9916045"><ele>298.0</ele><time>2026-04-06T13:55:11.217Z</time></trkpt><trkpt lat="44.6306864" lon="7.9916684"><ele>298.0</ele><time>2026-04-06T13:55:13.218Z</time></trkpt><trkpt lat="44.6307521" lon="7.9917151"><ele>298.0</ele><time>2026-04-06T13:55:15.217Z</time></trkpt><trkpt lat="44.6307553" lon="7.9918096"><ele>298.0</ele><time>2026-04-06T13:55:19.217Z</time></trkpt><trkpt lat="44.6306002" lon="7.9918109"><ele>298.0</ele><time>2026-04-06T13:55:22.217Z</time></trkpt><trkpt lat="44.6305337" lon="7.9918289"><ele>298.0</ele><time>2026-04-06T13:55:23.217Z</time></trkpt><trkpt lat="44.6304579" lon="7.9918575"><ele>298.0</ele><time>2026-04-06T13:55:24.218Z</time></trkpt><trkpt lat="44.6303865" lon="7.991878"><ele>298.0</ele><time>2026-04-06T13:55:25.217Z</time></trkpt><trkpt lat="44.6303187" lon="7.9918962"><ele>298.0</ele><time>2026-04-06T13:55:26.217Z</time></trkpt><trkpt lat="44.6302287" lon="7.9918994"><ele>298.0</ele><time>2026-04-06T13:55:28.217Z</time></trkpt><trkpt lat="44.6301632" lon="7.991901"><ele>298.0</ele><time>2026-04-06T13:55:31.217Z</time></trkpt><trkpt lat="44.6300744" lon="7.9919615"><ele>299.6</ele><time>2026-04-06T13:56:06.217Z</time></trkpt><trkpt lat="44.6299368" lon="7.9919877"><ele>301.20000000000005</ele><time>2026-04-06T13:56:08.217Z</time></trkpt><trkpt lat="44.6298461" lon="7.9920149"><ele>302.8</ele><time>2026-04-06T13:56:09.217Z</time></trkpt><trkpt lat="44.6297456" lon="7.9920364"><ele>304.40000000000003</ele><time>2026-04-06T13:56:10.217Z</time></trkpt><trkpt lat="44.6296346" lon="7.9920504"><ele>306.0</ele><time>2026-04-06T13:56:11.217Z</time></trkpt><trkpt lat="44.629519" lon="7.9920601"><ele>307.25</ele><time>2026-04-06T13:56:12.217Z</time></trkpt><trkpt lat="44.6294005" lon="7.992078"><ele>308.5</ele><time>2026-04-06T13:56:13.217Z</time></trkpt><trkpt lat="44.6292751" lon="7.9920901"><ele>309.75</ele><time>2026-04-06T13:56:14.217Z</time></trkpt><trkpt lat="44.6291505" lon="7.9921059"><ele>311.0</ele><time>2026-04-06T13:56:15.217Z</time></trkpt><trkpt lat="44.6290322" lon="7.9921366"><ele>311.0</ele><time>2026-04-06T13:56:16.217Z</time></trkpt><trkpt lat="44.6289117" lon="7.9921662"><ele>311.0</ele><time>2026-04-06T13:56:17.217Z</time></trkpt><trkpt lat="44.6287876" lon="7.9921964"><ele>311.0</ele><time>2026-04-06T13:56:18.217Z</time></trkpt><trkpt lat="44.6286664" lon="7.9922337"><ele>311.0</ele><time>2026-04-06T13:56:19.217Z</time></trkpt><trkpt lat="44.6285521" lon="7.9922773"><ele>312.2</ele><time>2026-04-06T13:56:20.217Z</time></trkpt><trkpt lat="44.6284552" lon="7.9923334"><ele>313.40000000000003</ele><time>2026-04-06T13:56:21.217Z</time></trkpt><trkpt lat="44.6283659" lon="7.9923926"><ele>314.6</ele><time>2026-04-06T13:56:22.217Z</time></trkpt><trkpt lat="44.6282879" lon="7.9924456"><ele>315.8</ele><time>2026-04-06T13:56:23.217Z</time></trkpt><trkpt lat="44.628226" lon="7.9924892"><ele>317.0</ele><time>2026-04-06T13:56:24.217Z</time></trkpt><trkpt lat="44.6281166" lon="7.9925302"><ele>317.0</ele><time>2026-04-06T13:56:26.218Z</time></trkpt><trkpt lat="44.6280232" lon="7.9924928"><ele>317.0</ele><time>2026-04-06T13:56:28.217Z</time></trkpt><trkpt lat="44.627926" lon="7.9924541"><ele>317.0</ele><time>2026-04-06T13:56:30.217Z</time></trkpt><trkpt lat="44.627866" lon="7.9924062"><ele>317.0</ele><time>2026-04-06T13:56:32.217Z</time></trkpt><trkpt lat="44.6279259" lon="7.9924686"><ele>317.0</ele><time>2026-04-06T13:56:38.217Z</time></trkpt><trkpt lat="44.6279967" lon="7.9924831"><ele>317.0</ele><time>2026-04-06T13:56:40.217Z</time></trkpt><trkpt lat="44.6280652" lon="7.9925292"><ele>317.0</ele><time>2026-04-06T13:56:43.217Z</time></trkpt><trkpt lat="44.6280556" lon="7.9926219"><ele>317.0</ele><time>2026-04-06T13:56:49.217Z</time></trkpt><trkpt lat="44.6279063" lon="7.9927347"><ele>317.0</ele><time>2026-04-06T13:56:52.217Z</time></trkpt><trkpt lat="44.6278346" lon="7.9927773"><ele>317.0</ele><time>2026-04-06T13:56:53.217Z</time></trkpt><trkpt lat="44.6277482" lon="7.9928361"><ele>317.0</ele><time>2026-04-06T13:56:54.217Z</time></trkpt><trkpt lat="44.6276636" lon="7.9928844"><ele>319.8</ele><time>2026-04-06T13:56:55.217Z</time></trkpt><trkpt lat="44.6275766" lon="7.9929535"><ele>322.6</ele><time>2026-04-06T13:56:56.217Z</time></trkpt><trkpt lat="44.6274894" lon="7.9930146"><ele>325.40000000000003</ele><time>2026-04-06T13:56:57.217Z</time></trkpt><trkpt lat="44.6273983" lon="7.9930876"><ele>328.2</ele><time>2026-04-06T13:56:58.217Z</time></trkpt><trkpt lat="44.6273129" lon="7.9931768"><ele>331.0</ele><time>2026-04-06T13:56:59.217Z</time></trkpt><trkpt lat="44.6272195" lon="7.9932922"><ele>332.25</ele><time>2026-04-06T13:57:00.217Z</time></trkpt><trkpt lat="44.6271465" lon="7.9934383"><ele>333.5</ele><time>2026-04-06T13:57:01.217Z</time></trkpt><trkpt lat="44.6270691" lon="7.993589"><ele>334.75</ele><time>2026-04-06T13:57:02.217Z</time></trkpt><trkpt lat="44.6269932" lon="7.99376"><ele>336.0</ele><time>2026-04-06T13:57:03.217Z</time></trkpt><trkpt lat="44.6269144" lon="7.9939257"><ele>336.5</ele><time>2026-04-06T13:57:04.217Z</time></trkpt><trkpt lat="44.6268412" lon="7.9940824"><ele>337.0</ele><time>2026-04-06T13:57:05.217Z</time></trkpt><trkpt lat="44.6267809" lon="7.9942235"><ele>337.5</ele><time>2026-04-06T13:57:06.217Z</time></trkpt><trkpt lat="44.6267174" lon="7.9943489"><ele>338.0</ele><time>2026-04-06T13:57:07.217Z</time></trkpt><trkpt lat="44.6266578" lon="7.9944774"><ele>339.0</ele><time>2026-04-06T13:57:08.217Z</time></trkpt><trkpt lat="44.6265969" lon="7.9946094"><ele>340.0</ele><time>2026-04-06T13:57:09.217Z</time></trkpt><trkpt lat="44.626542" lon="7.994756"><ele>341.0</ele><time>2026-04-06T13:57:10.217Z</time></trkpt><trkpt lat="44.6264982" lon="7.9949187"><ele>342.0</ele><time>2026-04-06T13:57:11.217Z</time></trkpt><trkpt lat="44.6264564" lon="7.9950927"><ele>344.5</ele><time>2026-04-06T13:57:12.217Z</time></trkpt><trkpt lat="44.6264127" lon="7.9952792"><ele>347.0</ele><time>2026-04-06T13:57:13.217Z</time></trkpt><trkpt lat="44.626362" lon="7.9954753"><ele>349.5</ele><time>2026-04-06T13:57:14.217Z</time></trkpt><trkpt lat="44.626318" lon="7.9956676"><ele>352.0</ele><time>2026-04-06T13:57:15.218Z</time></trkpt><trkpt lat="44.6262666" lon="7.9958485"><ele>353.25</ele><time>2026-04-06T13:57:16.217Z</time></trkpt><trkpt lat="44.626217" lon="7.9960149"><ele>354.5</ele><time>2026-04-06T13:57:17.217Z</time></trkpt><trkpt lat="44.6261613" lon="7.9961454"><ele>355.75</ele><time>2026-04-06T13:57:18.217Z</time></trkpt><trkpt lat="44.6260757" lon="7.9962254"><ele>357.0</ele><time>2026-04-06T13:57:19.217Z</time></trkpt><trkpt lat="44.6259642" lon="7.9962646"><ele>357.0</ele><time>2026-04-06T13:57:20.217Z</time></trkpt><trkpt lat="44.6258289" lon="7.9962442"><ele>357.0</ele><time>2026-04-06T13:57:21.217Z</time></trkpt><trkpt lat="44.6256878" lon="7.9961997"><ele>357.0</ele><time>2026-04-06T13:57:22.217Z</time></trkpt><trkpt lat="44.6255505" lon="7.9961413"><ele>357.0</ele><time>2026-04-06T13:57:23.217Z</time></trkpt><trkpt lat="44.6253907" lon="7.9960919"><ele>359.3333333333333</ele><time>2026-04-06T13:57:24.217Z</time></trkpt><trkpt lat="44.6252318" lon="7.9960444"><ele>361.66666666666663</ele><time>2026-04-06T13:57:25.217Z</time></trkpt><trkpt lat="44.625073" lon="7.9960067"><ele>364.0</ele><time>2026-04-06T13:57:26.217Z</time></trkpt><trkpt lat="44.6249052" lon="7.9959652"><ele>364.0</ele><time>2026-04-06T13:57:27.217Z</time></trkpt><trkpt lat="44.6247308" lon="7.9959049"><ele>364.0</ele><time>2026-04-06T13:57:28.217Z</time></trkpt><trkpt lat="44.6245593" lon="7.9958269"><ele>364.0</ele><time>2026-04-06T13:57:29.217Z</time></trkpt><trkpt lat="44.624405" lon="7.995725"><ele>361.66666666666663</ele><time>2026-04-06T13:57:30.217Z</time></trkpt><trkpt lat="44.6242645" lon="7.9956081"><ele>359.3333333333333</ele><time>2026-04-06T13:57:31.217Z</time></trkpt><trkpt lat="44.6241221" lon="7.995483"><ele>357.0</ele><time>2026-04-06T13:57:32.218Z</time></trkpt><trkpt lat="44.6239755" lon="7.9953591"><ele>357.0</ele><time>2026-04-06T13:57:33.217Z</time></trkpt><trkpt lat="44.6238272" lon="7.9952307"><ele>357.0</ele><time>2026-04-06T13:57:34.217Z</time></trkpt><trkpt lat="44.6236776" lon="7.9951059"><ele>357.0</ele><time>2026-04-06T13:57:35.217Z</time></trkpt><trkpt lat="44.6235304" lon="7.9949853"><ele>355.6666666666667</ele><time>2026-04-06T13:57:36.217Z</time></trkpt><trkpt lat="44.6233853" lon="7.994868"><ele>354.33333333333337</ele><time>2026-04-06T13:57:37.217Z</time></trkpt><trkpt lat="44.6232541" lon="7.9947681"><ele>353.0</ele><time>2026-04-06T13:57:38.218Z</time></trkpt><trkpt lat="44.6231278" lon="7.9946841"><ele>353.0</ele><time>2026-04-06T13:57:39.217Z</time></trkpt><trkpt lat="44.6230019" lon="7.9946195"><ele>353.0</ele><time>2026-04-06T13:57:40.218Z</time></trkpt><trkpt lat="44.6228709" lon="7.9945748"><ele>353.0</ele><time>2026-04-06T13:57:41.217Z</time></trkpt><trkpt lat="44.6227401" lon="7.9945624"><ele>353.0</ele><time>2026-04-06T13:57:42.217Z</time></trkpt><trkpt lat="44.6226051" lon="7.9945619"><ele>355.0</ele><time>2026-04-06T13:57:43.217Z</time></trkpt><trkpt lat="44.6224749" lon="7.9945796"><ele>357.0</ele><time>2026-04-06T13:57:44.217Z</time></trkpt><trkpt lat="44.6223493" lon="7.9946356"><ele>359.0</ele><time>2026-04-06T13:57:45.217Z</time></trkpt><trkpt lat="44.6222225" lon="7.9947084"><ele>361.0</ele><time>2026-04-06T13:57:46.217Z</time></trkpt><trkpt lat="44.6220881" lon="7.9947988"><ele>358.0</ele><time>2026-04-06T13:57:47.217Z</time></trkpt><trkpt lat="44.621946" lon="7.9949029"><ele>355.0</ele><time>2026-04-06T13:57:48.217Z</time></trkpt><trkpt lat="44.6217938" lon="7.9950046"><ele>352.0</ele><time>2026-04-06T13:57:49.217Z</time></trkpt><trkpt lat="44.6216357" lon="7.995113"><ele>351.66666666666663</ele><time>2026-04-06T13:57:50.217Z</time></trkpt><trkpt lat="44.6214752" lon="7.9952249"><ele>351.3333333333333</ele><time>2026-04-06T13:57:51.217Z</time></trkpt><trkpt lat="44.6213186" lon="7.9953133"><ele>351.0</ele><time>2026-04-06T13:57:52.217Z</time></trkpt><trkpt lat="44.6211675" lon="7.9953781"><ele>353.0</ele><time>2026-04-06T13:57:53.217Z</time></trkpt><trkpt lat="44.6210148" lon="7.9954205"><ele>355.0</ele><time>2026-04-06T13:57:54.217Z</time></trkpt><trkpt lat="44.6208551" lon="7.9954328"><ele>357.0</ele><time>2026-04-06T13:57:55.217Z</time></trkpt><trkpt lat="44.6206869" lon="7.9954221"><ele>357.0</ele><time>2026-04-06T13:57:56.217Z</time></trkpt><trkpt lat="44.6205134" lon="7.9954096"><ele>357.0</ele><time>2026-04-06T13:57:57.217Z</time></trkpt><trkpt lat="44.6203387" lon="7.9954098"><ele>357.0</ele><time>2026-04-06T13:57:58.217Z</time></trkpt><trkpt lat="44.6201638" lon="7.9954332"><ele>359.6666666666667</ele><time>2026-04-06T13:57:59.217Z</time></trkpt><trkpt lat="44.6200011" lon="7.995465"><ele>362.33333333333337</ele><time>2026-04-06T13:58:00.217Z</time></trkpt><trkpt lat="44.6198484" lon="7.9954955"><ele>365.0</ele><time>2026-04-06T13:58:01.217Z</time></trkpt><trkpt lat="44.619707" lon="7.9955271"><ele>365.0</ele><time>2026-04-06T13:58:02.217Z</time></trkpt><trkpt lat="44.6195726" lon="7.9955608"><ele>365.0</ele><time>2026-04-06T13:58:03.217Z</time></trkpt><trkpt lat="44.6194647" lon="7.9956101"><ele>365.0</ele><time>2026-04-06T13:58:04.217Z</time></trkpt><trkpt lat="44.6193679" lon="7.9956824"><ele>365.0</ele><time>2026-04-06T13:58:05.217Z</time></trkpt><trkpt lat="44.6192939" lon="7.995772"><ele>365.25</ele><time>2026-04-06T13:58:06.217Z</time></trkpt><trkpt lat="44.619239" lon="7.9959009"><ele>365.5</ele><time>2026-04-06T13:58:07.217Z</time></trkpt><trkpt lat="44.6192024" lon="7.9960485"><ele>365.75</ele><time>2026-04-06T13:58:08.217Z</time></trkpt><trkpt lat="44.6191917" lon="7.9962178"><ele>366.0</ele><time>2026-04-06T13:58:09.217Z</time></trkpt><trkpt lat="44.6191962" lon="7.996394"><ele>366.0</ele><time>2026-04-06T13:58:10.217Z</time></trkpt><trkpt lat="44.6191967" lon="7.9965817"><ele>366.0</ele><time>2026-04-06T13:58:11.217Z</time></trkpt><trkpt lat="44.6191792" lon="7.9967782"><ele>366.0</ele><time>2026-04-06T13:58:12.217Z</time></trkpt><trkpt lat="44.6191479" lon="7.9969789"><ele>366.0</ele><time>2026-04-06T13:58:13.217Z</time></trkpt><trkpt lat="44.6191049" lon="7.9971913"><ele>367.6666666666667</ele><time>2026-04-06T13:58:14.217Z</time></trkpt><trkpt lat="44.619046" lon="7.9974091"><ele>369.33333333333337</ele><time>2026-04-06T13:58:15.217Z</time></trkpt><trkpt lat="44.6189737" lon="7.9976243"><ele>371.0</ele><time>2026-04-06T13:58:16.217Z</time></trkpt><trkpt lat="44.6188728" lon="7.9978168"><ele>371.0</ele><time>2026-04-06T13:58:17.217Z</time></trkpt><trkpt lat="44.6187565" lon="7.9979774"><ele>371.0</ele><time>2026-04-06T13:58:18.217Z</time></trkpt><trkpt lat="44.6186351" lon="7.9981217"><ele>371.0</ele><time>2026-04-06T13:58:19.217Z</time></trkpt><trkpt lat="44.6185082" lon="7.9982539"><ele>368.0</ele><time>2026-04-06T13:58:20.217Z</time></trkpt><trkpt lat="44.6183815" lon="7.9983761"><ele>365.0</ele><time>2026-04-06T13:58:21.217Z</time></trkpt><trkpt lat="44.6182436" lon="7.9984801"><ele>362.0</ele><time>2026-04-06T13:58:22.217Z</time></trkpt><trkpt lat="44.6181038" lon="7.998563"><ele>362.0</ele><time>2026-04-06T13:58:23.217Z</time></trkpt><trkpt lat="44.6179457" lon="7.9986295"><ele>362.0</ele><time>2026-04-06T13:58:24.217Z</time></trkpt><trkpt lat="44.6177847" lon="7.9986868"><ele>362.0</ele><time>2026-04-06T13:58:25.217Z</time></trkpt><trkpt lat="44.6176301" lon="7.9987427"><ele>365.6666666666667</ele><time>2026-04-06T13:58:26.217Z</time></trkpt><trkpt lat="44.6174815" lon="7.9988326"><ele>369.3333333333333</ele><time>2026-04-06T13:58:27.217Z</time></trkpt><trkpt lat="44.617348" lon="7.9989534"><ele>373.0</ele><time>2026-04-06T13:58:28.217Z</time></trkpt><trkpt lat="44.6172334" lon="7.9991045"><ele>375.3333333333333</ele><time>2026-04-06T13:58:29.217Z</time></trkpt><trkpt lat="44.6171284" lon="7.9992903"><ele>377.6666666666667</ele><time>2026-04-06T13:58:30.217Z</time></trkpt><trkpt lat="44.6170275" lon="7.9994906"><ele>380.0</ele><time>2026-04-06T13:58:31.217Z</time></trkpt><trkpt lat="44.6169233" lon="7.99969"><ele>380.0</ele><time>2026-04-06T13:58:32.217Z</time></trkpt><trkpt lat="44.6168314" lon="7.9998671"><ele>380.0</ele><time>2026-04-06T13:58:33.217Z</time></trkpt><trkpt lat="44.6167396" lon="8.0000411"><ele>380.0</ele><time>2026-04-06T13:58:34.217Z</time></trkpt><trkpt lat="44.6166333" lon="8.0001885"><ele>380.0</ele><time>2026-04-06T13:58:35.217Z</time></trkpt><trkpt lat="44.6165013" lon="8.0003234"><ele>380.0</ele><time>2026-04-06T13:58:36.217Z</time></trkpt><trkpt lat="44.6163641" lon="8.0004449"><ele>380.0</ele><time>2026-04-06T13:58:37.217Z</time></trkpt><trkpt lat="44.616213" lon="8.0005431"><ele>375.6666666666667</ele><time>2026-04-06T13:58:38.217Z</time></trkpt><trkpt lat="44.6160517" lon="8.0006221"><ele>371.3333333333333</ele><time>2026-04-06T13:58:39.217Z</time></trkpt><trkpt lat="44.6158821" lon="8.0006992"><ele>367.0</ele><time>2026-04-06T13:58:40.217Z</time></trkpt><trkpt lat="44.6157081" lon="8.0007751"><ele>372.0</ele><time>2026-04-06T13:58:41.217Z</time></trkpt><trkpt lat="44.6155386" lon="8.0008547"><ele>377.0</ele><time>2026-04-06T13:58:42.217Z</time></trkpt><trkpt lat="44.6153827" lon="8.0009266"><ele>382.0</ele><time>2026-04-06T13:58:43.217Z</time></trkpt><trkpt lat="44.615242" lon="8.0009919"><ele>382.0</ele><time>2026-04-06T13:58:44.217Z</time></trkpt><trkpt lat="44.6151116" lon="8.0010576"><ele>382.0</ele><time>2026-04-06T13:58:45.217Z</time></trkpt><trkpt lat="44.6149904" lon="8.0011179"><ele>382.0</ele><time>2026-04-06T13:58:46.217Z</time></trkpt><trkpt lat="44.6148733" lon="8.0011687"><ele>382.0</ele><time>2026-04-06T13:58:47.217Z</time></trkpt><trkpt lat="44.6147569" lon="8.0012157"><ele>382.0</ele><time>2026-04-06T13:58:48.217Z</time></trkpt><trkpt lat="44.6146325" lon="8.0012582"><ele>382.0</ele><time>2026-04-06T13:58:49.217Z</time></trkpt><trkpt lat="44.6145099" lon="8.0012922"><ele>382.0</ele><time>2026-04-06T13:58:50.217Z</time></trkpt><trkpt lat="44.6143873" lon="8.0013265"><ele>382.0</ele><time>2026-04-06T13:58:51.217Z</time></trkpt><trkpt lat="44.6142639" lon="8.0013615"><ele>381.5</ele><time>2026-04-06T13:58:52.217Z</time></trkpt><trkpt lat="44.6141456" lon="8.0013853"><ele>381.0</ele><time>2026-04-06T13:58:53.217Z</time></trkpt><trkpt lat="44.6140269" lon="8.0013976"><ele>380.5</ele><time>2026-04-06T13:58:54.217Z</time></trkpt><trkpt lat="44.6139196" lon="8.0014059"><ele>380.0</ele><time>2026-04-06T13:58:55.217Z</time></trkpt><trkpt lat="44.6138064" lon="8.0014148"><ele>380.0</ele><time>2026-04-06T13:58:56.217Z</time></trkpt><trkpt lat="44.6137005" lon="8.0014239"><ele>380.0</ele><time>2026-04-06T13:58:57.217Z</time></trkpt><trkpt lat="44.6135925" lon="8.0014329"><ele>380.0</ele><time>2026-04-06T13:58:58.217Z</time></trkpt><trkpt lat="44.613477" lon="8.001442"><ele>380.0</ele><time>2026-04-06T13:58:59.217Z</time></trkpt><trkpt lat="44.6133498" lon="8.0014421"><ele>379.75</ele><time>2026-04-06T13:59:00.217Z</time></trkpt><trkpt lat="44.6132123" lon="8.0014369"><ele>379.5</ele><time>2026-04-06T13:59:01.217Z</time></trkpt><trkpt lat="44.613075" lon="8.0014169"><ele>379.25</ele><time>2026-04-06T13:59:02.217Z</time></trkpt><trkpt lat="44.6129305" lon="8.0013641"><ele>379.0</ele><time>2026-04-06T13:59:03.217Z</time></trkpt><trkpt lat="44.6127766" lon="8.0012929"><ele>379.0</ele><time>2026-04-06T13:59:04.217Z</time></trkpt><trkpt lat="44.6126206" lon="8.0012074"><ele>379.0</ele><time>2026-04-06T13:59:05.217Z</time></trkpt><trkpt lat="44.6124637" lon="8.0011152"><ele>379.0</ele><time>2026-04-06T13:59:06.217Z</time></trkpt><trkpt lat="44.6123182" lon="8.0010187"><ele>379.0</ele><time>2026-04-06T13:59:07.217Z</time></trkpt><trkpt lat="44.6121733" lon="8.0009208"><ele>379.0</ele><time>2026-04-06T13:59:08.217Z</time></trkpt><trkpt lat="44.612041" lon="8.0008439"><ele>379.0</ele><time>2026-04-06T13:59:09.217Z</time></trkpt><trkpt lat="44.6119232" lon="8.0007558"><ele>379.0</ele><time>2026-04-06T13:59:10.217Z</time></trkpt><trkpt lat="44.6118207" lon="8.0006518"><ele>379.25</ele><time>2026-04-06T13:59:11.217Z</time></trkpt><trkpt lat="44.6117262" lon="8.0005254"><ele>379.5</ele><time>2026-04-06T13:59:12.217Z</time></trkpt><trkpt lat="44.6116458" lon="8.0004045"><ele>379.75</ele><time>2026-04-06T13:59:13.217Z</time></trkpt><trkpt lat="44.6115731" lon="8.0002797"><ele>380.0</ele><time>2026-04-06T13:59:14.217Z</time></trkpt><trkpt lat="44.611501" lon="8.0001375"><ele>380.0</ele><time>2026-04-06T13:59:15.217Z</time></trkpt><trkpt lat="44.6114322" lon="7.99996"><ele>380.0</ele><time>2026-04-06T13:59:16.217Z</time></trkpt><trkpt lat="44.611374" lon="7.9997686"><ele>380.0</ele><time>2026-04-06T13:59:17.217Z</time></trkpt><trkpt lat="44.6113192" lon="7.9995806"><ele>380.0</ele><time>2026-04-06T13:59:18.217Z</time></trkpt><trkpt lat="44.611267" lon="7.9994194"><ele>380.0</ele><time>2026-04-06T13:59:19.217Z</time></trkpt><trkpt lat="44.6112184" lon="7.9992901"><ele>380.0</ele><time>2026-04-06T13:59:20.217Z</time></trkpt><trkpt lat="44.6111672" lon="7.9991824"><ele>380.0</ele><time>2026-04-06T13:59:21.217Z</time></trkpt><trkpt lat="44.6111206" lon="7.9990996"><ele>380.0</ele><time>2026-04-06T13:59:22.217Z</time></trkpt><trkpt lat="44.6110137" lon="7.9990288"><ele>380.0</ele><time>2026-04-06T13:59:24.217Z</time></trkpt><trkpt lat="44.6109452" lon="7.9990333"><ele>382.0</ele><time>2026-04-06T13:59:25.217Z</time></trkpt><trkpt lat="44.6108611" lon="7.9990424"><ele>384.0</ele><time>2026-04-06T13:59:26.217Z</time></trkpt><trkpt lat="44.6107796" lon="7.9990569"><ele>386.0</ele><time>2026-04-06T13:59:27.217Z</time></trkpt><trkpt lat="44.610676" lon="7.9991132"><ele>388.0</ele><time>2026-04-06T13:59:28.217Z</time></trkpt><trkpt lat="44.6105786" lon="7.9992094"><ele>390.0</ele><time>2026-04-06T13:59:29.217Z</time></trkpt><trkpt lat="44.6104902" lon="7.9993078"><ele>390.5</ele><time>2026-04-06T13:59:30.217Z</time></trkpt><trkpt lat="44.6103984" lon="7.9993952"><ele>391.0</ele><time>2026-04-06T13:59:31.217Z</time></trkpt><trkpt lat="44.6103186" lon="7.9994596"><ele>391.5</ele><time>2026-04-06T13:59:32.217Z</time></trkpt><trkpt lat="44.6102459" lon="7.9995135"><ele>392.0</ele><time>2026-04-06T13:59:33.217Z</time></trkpt><trkpt lat="44.6101811" lon="7.9995782"><ele>392.5</ele><time>2026-04-06T13:59:34.217Z</time></trkpt><trkpt lat="44.6101224" lon="7.9996438"><ele>393.0</ele><time>2026-04-06T13:59:35.217Z</time></trkpt><trkpt lat="44.6100729" lon="7.9997216"><ele>393.0</ele><time>2026-04-06T13:59:36.217Z</time></trkpt><trkpt lat="44.6100194" lon="7.9997984"><ele>393.0</ele><time>2026-04-06T13:59:37.217Z</time></trkpt><trkpt lat="44.6099661" lon="7.9998507"><ele>393.0</ele><time>2026-04-06T13:59:38.217Z</time></trkpt><trkpt lat="44.6099107" lon="7.9999113"><ele>393.0</ele><time>2026-04-06T13:59:39.217Z</time></trkpt><trkpt lat="44.6098168" lon="8.0000048"><ele>393.0</ele><time>2026-04-06T13:59:41.217Z</time></trkpt><trkpt lat="44.6097534" lon="8.0000572"><ele>393.0</ele><time>2026-04-06T13:59:43.217Z</time></trkpt><trkpt lat="44.6096963" lon="8.000114"><ele>393.0</ele><time>2026-04-06T13:59:45.217Z</time></trkpt><trkpt lat="44.6096381" lon="8.0001591"><ele>393.0</ele><time>2026-04-06T13:59:47.217Z</time></trkpt><trkpt lat="44.6095855" lon="8.0002215"><ele>393.0</ele><time>2026-04-06T14:00:28.217Z</time></trkpt><trkpt lat="44.6096854" lon="8.0001903"><ele>393.0</ele><time>2026-04-06T14:00:31.217Z</time></trkpt><trkpt lat="44.6097962" lon="8.0000617"><ele>393.0</ele><time>2026-04-06T14:00:33.217Z</time></trkpt><trkpt lat="44.6098711" lon="7.9999783"><ele>393.0</ele><time>2026-04-06T14:00:34.217Z</time></trkpt><trkpt lat="44.609953" lon="7.9998985"><ele>393.0</ele><time>2026-04-06T14:00:35.217Z</time></trkpt><trkpt lat="44.6100272" lon="7.9998227"><ele>393.0</ele><time>2026-04-06T14:00:36.217Z</time></trkpt><trkpt lat="44.6100933" lon="7.9997513"><ele>393.0</ele><time>2026-04-06T14:00:37.217Z</time></trkpt><trkpt lat="44.6101439" lon="7.9996807"><ele>393.0</ele><time>2026-04-06T14:00:38.217Z</time></trkpt><trkpt lat="44.6102348" lon="7.9995683"><ele>393.79999999999995</ele><time>2026-04-06T14:00:40.217Z</time></trkpt><trkpt lat="44.6103284" lon="7.9994851"><ele>394.6</ele><time>2026-04-06T14:00:42.217Z</time></trkpt><trkpt lat="44.6104352" lon="7.9993871"><ele>395.4</ele><time>2026-04-06T14:00:44.217Z</time></trkpt><trkpt lat="44.6105005" lon="7.9993365"><ele>396.20000000000005</ele><time>2026-04-06T14:00:45.217Z</time></trkpt><trkpt lat="44.6105665" lon="7.9992845"><ele>397.0</ele><time>2026-04-06T14:00:46.217Z</time></trkpt><trkpt lat="44.6106325" lon="7.999232"><ele>397.00000000000006</ele><time>2026-04-06T14:00:47.217Z</time></trkpt><trkpt lat="44.6106928" lon="7.9991865"><ele>397.0</ele><time>2026-04-06T14:00:48.217Z</time></trkpt><trkpt lat="44.6107537" lon="7.9991404"><ele>397.0</ele><time>2026-04-06T14:00:49.217Z</time></trkpt><trkpt lat="44.6108183" lon="7.9991025"><ele>397.0</ele><time>2026-04-06T14:00:50.217Z</time></trkpt><trkpt lat="44.6109129" lon="7.9990515"><ele>397.00000000000006</ele><time>2026-04-06T14:00:52.217Z</time></trkpt><trkpt lat="44.6109924" lon="7.9990409"><ele>397.0</ele><time>2026-04-06T14:00:54.217Z</time></trkpt><trkpt lat="44.6110537" lon="7.9989231"><ele>395.6</ele><time>2026-04-06T14:00:56.217Z</time></trkpt><trkpt lat="44.6110574" lon="7.9986667"><ele>394.20000000000005</ele><time>2026-04-06T14:00:59.217Z</time></trkpt><trkpt lat="44.6110945" lon="7.9984991"><ele>392.8</ele><time>2026-04-06T14:01:01.217Z</time></trkpt><trkpt lat="44.6111212" lon="7.9984117"><ele>391.4</ele><time>2026-04-06T14:01:02.217Z</time></trkpt><trkpt lat="44.6111425" lon="7.9983256"><ele>390.0</ele><time>2026-04-06T14:01:03.217Z</time></trkpt><trkpt lat="44.6111645" lon="7.9982381"><ele>386.57142857142856</ele><time>2026-04-06T14:01:04.217Z</time></trkpt><trkpt lat="44.6111932" lon="7.9981506"><ele>383.1428571428571</ele><time>2026-04-06T14:01:05.217Z</time></trkpt><trkpt lat="44.611215" lon="7.9980595"><ele>379.7142857142857</ele><time>2026-04-06T14:01:06.217Z</time></trkpt><trkpt lat="44.6112384" lon="7.9979732"><ele>376.2857142857143</ele><time>2026-04-06T14:01:07.218Z</time></trkpt><trkpt lat="44.6112581" lon="7.9978744"><ele>372.8571428571429</ele><time>2026-04-06T14:01:08.217Z</time></trkpt><trkpt lat="44.6112822" lon="7.9977724"><ele>369.42857142857144</ele><time>2026-04-06T14:01:09.217Z</time></trkpt><trkpt lat="44.6113073" lon="7.9976781"><ele>366.0</ele><time>2026-04-06T14:01:10.217Z</time></trkpt><trkpt lat="44.6113507" lon="7.9975469"><ele>366.0</ele><time>2026-04-06T14:01:12.217Z</time></trkpt><trkpt lat="44.611357" lon="7.9974469"><ele>366.0</ele><time>2026-04-06T14:01:15.217Z</time></trkpt><trkpt lat="44.6113119" lon="7.9975262"><ele>366.0</ele><time>2026-04-06T14:01:18.217Z</time></trkpt><trkpt lat="44.6112873" lon="7.9976951"><ele>366.0</ele><time>2026-04-06T14:01:21.217Z</time></trkpt><trkpt lat="44.6112469" lon="7.9977973"><ele>366.0</ele><time>2026-04-06T14:01:23.217Z</time></trkpt><trkpt lat="44.6112215" lon="7.9979001"><ele>366.0</ele><time>2026-04-06T14:01:25.217Z</time></trkpt><trkpt lat="44.6111914" lon="7.9980197"><ele>366.0</ele><time>2026-04-06T14:01:27.217Z</time></trkpt><trkpt lat="44.6111679" lon="7.9981367"><ele>366.0</ele><time>2026-04-06T14:01:29.217Z</time></trkpt><trkpt lat="44.6111227" lon="7.9982565"><ele>366.0</ele><time>2026-04-06T14:01:32.217Z</time></trkpt><trkpt lat="44.6110559" lon="7.998214"><ele>366.0</ele><time>2026-04-06T14:01:34.217Z</time></trkpt><trkpt lat="44.6109837" lon="7.9981539"><ele>366.0</ele><time>2026-04-06T14:01:36.217Z</time></trkpt><trkpt lat="44.6109291" lon="7.9981015"><ele>366.0</ele><time>2026-04-06T14:01:38.217Z</time></trkpt><trkpt lat="44.6108697" lon="7.9980682"><ele>367.8333333333333</ele><time>2026-04-06T14:01:40.217Z</time></trkpt><trkpt lat="44.610794" lon="7.9980258"><ele>369.6666666666667</ele><time>2026-04-06T14:01:43.217Z</time></trkpt><trkpt lat="44.6107186" lon="7.9979693"><ele>371.5</ele><time>2026-04-06T14:01:46.217Z</time></trkpt><trkpt lat="44.6106444" lon="7.997907"><ele>373.33333333333337</ele><time>2026-04-06T14:01:49.217Z</time></trkpt><trkpt lat="44.6105869" lon="7.9978682"><ele>375.1666666666667</ele><time>2026-04-06T14:01:51.217Z</time></trkpt><trkpt lat="44.6105005" lon="7.9978187"><ele>377.0</ele><time>2026-04-06T14:01:54.217Z</time></trkpt><trkpt lat="44.610439" lon="7.9977699"><ele>377.0</ele><time>2026-04-06T14:01:57.218Z</time></trkpt><trkpt lat="44.6104622" lon="7.9976593"><ele>377.0</ele><time>2026-04-06T14:02:00.217Z</time></trkpt><trkpt lat="44.6105682" lon="7.9974153"><ele>377.0</ele><time>2026-04-06T14:02:03.217Z</time></trkpt><trkpt lat="44.6106219" lon="7.9973067"><ele>377.0</ele><time>2026-04-06T14:02:04.218Z</time></trkpt><trkpt lat="44.6106679" lon="7.9971893"><ele>374.83333333333337</ele><time>2026-04-06T14:02:05.217Z</time></trkpt><trkpt lat="44.6107127" lon="7.9970731"><ele>372.6666666666667</ele><time>2026-04-06T14:02:06.217Z</time></trkpt><trkpt lat="44.6107567" lon="7.9969643"><ele>370.5</ele><time>2026-04-06T14:02:07.217Z</time></trkpt><trkpt lat="44.6108035" lon="7.9968614"><ele>368.3333333333333</ele><time>2026-04-06T14:02:08.217Z</time></trkpt><trkpt lat="44.6108503" lon="7.99676"><ele>366.16666666666663</ele><time>2026-04-06T14:02:09.217Z</time></trkpt><trkpt lat="44.6108908" lon="7.9966736"><ele>364.0</ele><time>2026-04-06T14:02:10.217Z</time></trkpt><trkpt lat="44.6109289" lon="7.9965886"><ele>362.79999999999995</ele><time>2026-04-06T14:02:11.218Z</time></trkpt><trkpt lat="44.6109828" lon="7.9964554"><ele>361.59999999999997</ele><time>2026-04-06T14:02:13.217Z</time></trkpt><trkpt lat="44.611012" lon="7.9963388"><ele>360.4</ele><time>2026-04-06T14:02:15.217Z</time></trkpt><trkpt lat="44.6110632" lon="7.9962215"><ele>359.2</ele><time>2026-04-06T14:02:17.217Z</time></trkpt><trkpt lat="44.6111177" lon="7.9960762"><ele>358.0</ele><time>2026-04-06T14:02:19.217Z</time></trkpt><trkpt lat="44.6111471" lon="7.9959608"><ele>358.0</ele><time>2026-04-06T14:02:21.217Z</time></trkpt><trkpt lat="44.611097" lon="7.9958741"><ele>358.0</ele><time>2026-04-06T14:02:24.217Z</time></trkpt><trkpt lat="44.6110325" lon="7.9958994"><ele>358.0</ele><time>2026-04-06T14:02:26.217Z</time></trkpt><trkpt lat="44.6109743" lon="7.9959897"><ele>358.0</ele><time>2026-04-06T14:02:28.217Z</time></trkpt><trkpt lat="44.6109187" lon="7.9960833"><ele>358.0</ele><time>2026-04-06T14:02:31.217Z</time></trkpt><trkpt lat="44.6108465" lon="7.9961029"><ele>358.0</ele><time>2026-04-06T14:02:34.216Z</time></trkpt><trkpt lat="44.6107782" lon="7.9961183"><ele>358.0</ele><time>2026-04-06T14:02:37.216Z</time></trkpt><trkpt lat="44.6107041" lon="7.996126"><ele>358.0</ele><time>2026-04-06T14:02:40.216Z</time></trkpt><trkpt lat="44.6106306" lon="7.9961049"><ele>358.0</ele><time>2026-04-06T14:02:43.216Z</time></trkpt><trkpt lat="44.6105321" lon="7.9960977"><ele>358.0</ele><time>2026-04-06T14:02:46.216Z</time></trkpt><trkpt lat="44.6104631" lon="7.9961131"><ele>358.0</ele><time>2026-04-06T14:02:48.216Z</time></trkpt><trkpt lat="44.6103891" lon="7.9961204"><ele>358.0</ele><time>2026-04-06T14:02:50.216Z</time></trkpt><trkpt lat="44.6103255" lon="7.9961287"><ele>354.66666666666663</ele><time>2026-04-06T14:02:52.216Z</time></trkpt><trkpt lat="44.6102342" lon="7.9961527"><ele>351.3333333333333</ele><time>2026-04-06T14:02:55.216Z</time></trkpt><trkpt lat="44.610161" lon="7.9961863"><ele>348.0</ele><time>2026-04-06T14:02:57.216Z</time></trkpt><trkpt lat="44.6100886" lon="7.9962076"><ele>344.6666666666667</ele><time>2026-04-06T14:02:59.216Z</time></trkpt><trkpt lat="44.6100186" lon="7.996234"><ele>341.33333333333337</ele><time>2026-04-06T14:03:01.216Z</time></trkpt><trkpt lat="44.6099434" lon="7.9962376"><ele>338.0</ele><time>2026-04-06T14:03:03.216Z</time></trkpt><trkpt lat="44.6098629" lon="7.9962429"><ele>338.0</ele><time>2026-04-06T14:03:05.216Z</time></trkpt><trkpt lat="44.6097892" lon="7.9962469"><ele>338.0</ele><time>2026-04-06T14:03:07.216Z</time></trkpt><trkpt lat="44.6096956" lon="7.9962407"><ele>338.0</ele><time>2026-04-06T14:03:09.216Z</time></trkpt><trkpt lat="44.6095851" lon="7.9962215"><ele>338.0</ele><time>2026-04-06T14:03:11.216Z</time></trkpt><trkpt lat="44.609476" lon="7.9961747"><ele>338.0</ele><time>2026-04-06T14:03:13.216Z</time></trkpt><trkpt lat="44.60938" lon="7.9961381"><ele>335.6666666666667</ele><time>2026-04-06T14:03:15.216Z</time></trkpt><trkpt lat="44.6092988" lon="7.9960948"><ele>333.33333333333337</ele><time>2026-04-06T14:03:17.216Z</time></trkpt><trkpt lat="44.6092245" lon="7.9960496"><ele>331.0</ele><time>2026-04-06T14:03:19.216Z</time></trkpt><trkpt lat="44.6091722" lon="7.9959723"><ele>328.6666666666667</ele><time>2026-04-06T14:03:21.216Z</time></trkpt><trkpt lat="44.6091449" lon="7.9958448"><ele>326.3333333333333</ele><time>2026-04-06T14:03:23.216Z</time></trkpt><trkpt lat="44.609171" lon="7.9957039"><ele>324.0</ele><time>2026-04-06T14:03:25.216Z</time></trkpt><trkpt lat="44.6092284" lon="7.9955582"><ele>322.5</ele><time>2026-04-06T14:03:27.216Z</time></trkpt><trkpt lat="44.6092635" lon="7.9954779"><ele>321.0</ele><time>2026-04-06T14:03:28.216Z</time></trkpt><trkpt lat="44.6092976" lon="7.9953787"><ele>319.5</ele><time>2026-04-06T14:03:29.216Z</time></trkpt><trkpt lat="44.6093412" lon="7.9952751"><ele>318.0</ele><time>2026-04-06T14:03:30.216Z</time></trkpt><trkpt lat="44.6093814" lon="7.995166"><ele>316.5</ele><time>2026-04-06T14:03:31.216Z</time></trkpt><trkpt lat="44.6094121" lon="7.9950502"><ele>315.0</ele><time>2026-04-06T14:03:32.216Z</time></trkpt><trkpt lat="44.609453" lon="7.9949255"><ele>316.0</ele><time>2026-04-06T14:03:33.216Z</time></trkpt><trkpt lat="44.6094859" lon="7.9948084"><ele>317.0</ele><time>2026-04-06T14:03:34.216Z</time></trkpt><trkpt lat="44.6095212" lon="7.9946867"><ele>318.0</ele><time>2026-04-06T14:03:35.216Z</time></trkpt><trkpt lat="44.6095575" lon="7.9945753"><ele>319.0</ele><time>2026-04-06T14:03:36.216Z</time></trkpt><trkpt lat="44.6095828" lon="7.9944769"><ele>320.0</ele><time>2026-04-06T14:03:37.216Z</time></trkpt><trkpt lat="44.6096111" lon="7.9943873"><ele>321.0</ele><time>2026-04-06T14:03:38.216Z</time></trkpt><trkpt lat="44.6096454" lon="7.9943052"><ele>321.0</ele><time>2026-04-06T14:03:39.216Z</time></trkpt><trkpt lat="44.6097232" lon="7.9941717"><ele>321.0</ele><time>2026-04-06T14:03:41.216Z</time></trkpt><trkpt lat="44.6098219" lon="7.9940335"><ele>321.0</ele><time>2026-04-06T14:03:43.216Z</time></trkpt><trkpt lat="44.6098773" lon="7.9939405"><ele>321.0</ele><time>2026-04-06T14:03:44.216Z</time></trkpt><trkpt lat="44.609928" lon="7.9938448"><ele>321.0</ele><time>2026-04-06T14:03:45.216Z</time></trkpt><trkpt lat="44.6099757" lon="7.9937445"><ele>318.0</ele><time>2026-04-06T14:03:46.217Z</time></trkpt><trkpt lat="44.6100151" lon="7.9936504"><ele>315.0</ele><time>2026-04-06T14:03:47.216Z</time></trkpt><trkpt lat="44.6100451" lon="7.9935595"><ele>312.0</ele><time>2026-04-06T14:03:48.216Z</time></trkpt><trkpt lat="44.6100559" lon="7.9934561"><ele>309.0</ele><time>2026-04-06T14:03:49.216Z</time></trkpt><trkpt lat="44.6100505" lon="7.9933533"><ele>306.0</ele><time>2026-04-06T14:03:50.216Z</time></trkpt><trkpt lat="44.6100231" lon="7.993258"><ele>303.0</ele><time>2026-04-06T14:03:51.216Z</time></trkpt><trkpt lat="44.6099617" lon="7.9931068"><ele>301.2857142857143</ele><time>2026-04-06T14:03:53.216Z</time></trkpt><trkpt lat="44.6099364" lon="7.9930244"><ele>299.57142857142856</ele><time>2026-04-06T14:03:54.216Z</time></trkpt><trkpt lat="44.6099121" lon="7.9929377"><ele>297.85714285714283</ele><time>2026-04-06T14:03:55.216Z</time></trkpt><trkpt lat="44.6098825" lon="7.9928544"><ele>296.1428571428571</ele><time>2026-04-06T14:03:56.216Z</time></trkpt><trkpt lat="44.6098555" lon="7.992769"><ele>294.4285714285714</ele><time>2026-04-06T14:03:57.216Z</time></trkpt><trkpt lat="44.6098275" lon="7.9926806"><ele>292.7142857142857</ele><time>2026-04-06T14:03:58.216Z</time></trkpt><trkpt lat="44.6097997" lon="7.9925969"><ele>291.0</ele><time>2026-04-06T14:03:59.216Z</time></trkpt><trkpt lat="44.609764" lon="7.9925189"><ele>291.2857142857143</ele><time>2026-04-06T14:04:00.216Z</time></trkpt><trkpt lat="44.6097278" lon="7.9924348"><ele>291.57142857142856</ele><time>2026-04-06T14:04:01.216Z</time></trkpt><trkpt lat="44.6096879" lon="7.9923473"><ele>291.85714285714283</ele><time>2026-04-06T14:04:02.216Z</time></trkpt><trkpt lat="44.6096525" lon="7.9922448"><ele>292.1428571428571</ele><time>2026-04-06T14:04:03.216Z</time></trkpt><trkpt lat="44.6096259" lon="7.9921479"><ele>292.42857142857144</ele><time>2026-04-06T14:04:04.216Z</time></trkpt><trkpt lat="44.6096012" lon="7.992051"><ele>292.71428571428567</ele><time>2026-04-06T14:04:05.216Z</time></trkpt><trkpt lat="44.6095838" lon="7.9919645"><ele>293.0</ele><time>2026-04-06T14:04:06.216Z</time></trkpt><trkpt lat="44.6095517" lon="7.9918054"><ele>292.99999999999994</ele><time>2026-04-06T14:04:08.216Z</time></trkpt><trkpt lat="44.6095381" lon="7.9917178"><ele>293.0</ele><time>2026-04-06T14:04:09.216Z</time></trkpt><trkpt lat="44.6095252" lon="7.991625"><ele>293.0</ele><time>2026-04-06T14:04:10.216Z</time></trkpt><trkpt lat="44.6095167" lon="7.9915325"><ele>293.0</ele><time>2026-04-06T14:04:11.216Z</time></trkpt><trkpt lat="44.6095013" lon="7.9914428"><ele>293.0</ele><time>2026-04-06T14:04:12.216Z</time></trkpt><trkpt lat="44.6094894" lon="7.9913531"><ele>292.99999999999994</ele><time>2026-04-06T14:04:13.216Z</time></trkpt><trkpt lat="44.6094692" lon="7.9911887"><ele>293.0</ele><time>2026-04-06T14:04:15.216Z</time></trkpt><trkpt lat="44.6094551" lon="7.9910343"><ele>289.1666666666667</ele><time>2026-04-06T14:04:17.217Z</time></trkpt><trkpt lat="44.6094518" lon="7.9908512"><ele>285.33333333333337</ele><time>2026-04-06T14:04:19.216Z</time></trkpt><trkpt lat="44.6094581" lon="7.9907433"><ele>281.5</ele><time>2026-04-06T14:04:20.216Z</time></trkpt><trkpt lat="44.6094684" lon="7.9906346"><ele>277.6666666666667</ele><time>2026-04-06T14:04:21.216Z</time></trkpt><trkpt lat="44.6094707" lon="7.9905276"><ele>273.8333333333333</ele><time>2026-04-06T14:04:22.216Z</time></trkpt><trkpt lat="44.6094724" lon="7.9904302"><ele>270.0</ele><time>2026-04-06T14:04:23.216Z</time></trkpt><trkpt lat="44.6094624" lon="7.990268"><ele>270.4</ele><time>2026-04-06T14:04:25.216Z</time></trkpt><trkpt lat="44.609438" lon="7.9901296"><ele>270.8</ele><time>2026-04-06T14:04:27.216Z</time></trkpt><trkpt lat="44.6094242" lon="7.9899935"><ele>271.2</ele><time>2026-04-06T14:04:29.216Z</time></trkpt><trkpt lat="44.6094749" lon="7.9898453"><ele>271.6</ele><time>2026-04-06T14:04:31.216Z</time></trkpt><trkpt lat="44.6095108" lon="7.9897677"><ele>272.0</ele><time>2026-04-06T14:04:32.216Z</time></trkpt><trkpt lat="44.6095513" lon="7.9896882"><ele>272.0</ele><time>2026-04-06T14:04:33.216Z</time></trkpt><trkpt lat="44.6095861" lon="7.9895965"><ele>272.0</ele><time>2026-04-06T14:04:34.216Z</time></trkpt><trkpt lat="44.6096221" lon="7.989504"><ele>272.0</ele><time>2026-04-06T14:04:35.216Z</time></trkpt><trkpt lat="44.6096847" lon="7.9893564"><ele>272.0</ele><time>2026-04-06T14:04:37.216Z</time></trkpt><trkpt lat="44.6097229" lon="7.9892813"><ele>272.0</ele><time>2026-04-06T14:04:39.216Z</time></trkpt><trkpt lat="44.6097165" lon="7.9891904"><ele>272.0</ele><time>2026-04-06T14:04:53.216Z</time></trkpt><trkpt lat="44.6096683" lon="7.9890673"><ele>268.8</ele><time>2026-04-06T14:08:05.216Z</time></trkpt><trkpt lat="44.6096121" lon="7.98893"><ele>265.6</ele><time>2026-04-06T14:08:07.216Z</time></trkpt><trkpt lat="44.6095663" lon="7.9887802"><ele>262.40000000000003</ele><time>2026-04-06T14:08:09.216Z</time></trkpt><trkpt lat="44.6095453" lon="7.9886729"><ele>259.2</ele><time>2026-04-06T14:08:11.217Z</time></trkpt><trkpt lat="44.6095912" lon="7.9885558"><ele>256.0</ele><time>2026-04-06T14:08:14.216Z</time></trkpt><trkpt lat="44.6096676" lon="7.9884779"><ele>256.0</ele><time>2026-04-06T14:08:16.216Z</time></trkpt><trkpt lat="44.6097433" lon="7.9883603"><ele>256.0</ele><time>2026-04-06T14:08:18.216Z</time></trkpt><trkpt lat="44.6098129" lon="7.9882163"><ele>256.0</ele><time>2026-04-06T14:08:20.216Z</time></trkpt><trkpt lat="44.6098932" lon="7.9881283"><ele>256.0</ele><time>2026-04-06T14:08:22.216Z</time></trkpt><trkpt lat="44.6100148" lon="7.9881185"><ele>253.99999999999997</ele><time>2026-04-06T14:08:24.216Z</time></trkpt><trkpt lat="44.6100934" lon="7.9881344"><ele>252.0</ele><time>2026-04-06T14:08:25.216Z</time></trkpt><trkpt lat="44.6101737" lon="7.9881553"><ele>250.0</ele><time>2026-04-06T14:08:26.216Z</time></trkpt><trkpt lat="44.6102637" lon="7.9881761"><ele>248.0</ele><time>2026-04-06T14:08:27.216Z</time></trkpt><trkpt lat="44.6103475" lon="7.9881888"><ele>245.99999999999997</ele><time>2026-04-06T14:08:28.216Z</time></trkpt><trkpt lat="44.6104168" lon="7.9881838"><ele>244.0</ele><time>2026-04-06T14:08:29.216Z</time></trkpt><trkpt lat="44.6104843" lon="7.988145"><ele>243.83333333333331</ele><time>2026-04-06T14:08:30.216Z</time></trkpt><trkpt lat="44.6105454" lon="7.9880841"><ele>243.66666666666666</ele><time>2026-04-06T14:08:31.216Z</time></trkpt><trkpt lat="44.6105983" lon="7.9880218"><ele>243.5</ele><time>2026-04-06T14:08:32.216Z</time></trkpt><trkpt lat="44.610659" lon="7.9879606"><ele>243.33333333333331</ele><time>2026-04-06T14:08:33.216Z</time></trkpt><trkpt lat="44.6107311" lon="7.9879277"><ele>243.16666666666666</ele><time>2026-04-06T14:08:34.216Z</time></trkpt><trkpt lat="44.6108269" lon="7.9879011"><ele>243.0</ele><time>2026-04-06T14:08:35.216Z</time></trkpt><trkpt lat="44.6109251" lon="7.9878831"><ele>243.0</ele><time>2026-04-06T14:08:36.216Z</time></trkpt><trkpt lat="44.6110358" lon="7.9878749"><ele>243.0</ele><time>2026-04-06T14:08:37.216Z</time></trkpt><trkpt lat="44.6111581" lon="7.9878704"><ele>243.0</ele><time>2026-04-06T14:08:38.216Z</time></trkpt><trkpt lat="44.6112882" lon="7.9878728"><ele>243.0</ele><time>2026-04-06T14:08:39.216Z</time></trkpt><trkpt lat="44.6114296" lon="7.9878606"><ele>243.25</ele><time>2026-04-06T14:08:40.216Z</time></trkpt><trkpt lat="44.6115772" lon="7.9878383"><ele>243.5</ele><time>2026-04-06T14:08:41.216Z</time></trkpt><trkpt lat="44.6117158" lon="7.9878147"><ele>243.75</ele><time>2026-04-06T14:08:42.216Z</time></trkpt><trkpt lat="44.6118418" lon="7.9877884"><ele>244.0</ele><time>2026-04-06T14:08:43.216Z</time></trkpt><trkpt lat="44.6119574" lon="7.9877721"><ele>244.33333333333331</ele><time>2026-04-06T14:08:44.217Z</time></trkpt><trkpt lat="44.6120686" lon="7.9877605"><ele>244.66666666666666</ele><time>2026-04-06T14:08:45.216Z</time></trkpt><trkpt lat="44.6121643" lon="7.987744"><ele>245.0</ele><time>2026-04-06T14:08:46.216Z</time></trkpt><trkpt lat="44.6122506" lon="7.9877189"><ele>245.33333333333331</ele><time>2026-04-06T14:08:47.216Z</time></trkpt><trkpt lat="44.6123262" lon="7.9876965"><ele>245.66666666666666</ele><time>2026-04-06T14:08:48.216Z</time></trkpt><trkpt lat="44.6123929" lon="7.9876588"><ele>246.0</ele><time>2026-04-06T14:08:49.216Z</time></trkpt><trkpt lat="44.6124592" lon="7.9876228"><ele>246.0</ele><time>2026-04-06T14:08:50.216Z</time></trkpt><trkpt lat="44.6125354" lon="7.9875852"><ele>246.00000000000003</ele><time>2026-04-06T14:08:51.216Z</time></trkpt><trkpt lat="44.6126216" lon="7.9875501"><ele>246.00000000000003</ele><time>2026-04-06T14:08:52.216Z</time></trkpt><trkpt lat="44.6127164" lon="7.9875085"><ele>246.0</ele><time>2026-04-06T14:08:53.216Z</time></trkpt><trkpt lat="44.612808" lon="7.9874765"><ele>246.0</ele><time>2026-04-06T14:08:54.216Z</time></trkpt><trkpt lat="44.6128979" lon="7.9874467"><ele>243.75</ele><time>2026-04-06T14:08:55.216Z</time></trkpt><trkpt lat="44.6129916" lon="7.9874345"><ele>241.5</ele><time>2026-04-06T14:08:56.216Z</time></trkpt><trkpt lat="44.6131008" lon="7.9874294"><ele>239.25</ele><time>2026-04-06T14:08:57.216Z</time></trkpt><trkpt lat="44.6132218" lon="7.9874204"><ele>237.0</ele><time>2026-04-06T14:08:58.216Z</time></trkpt><trkpt lat="44.613351" lon="7.9874078"><ele>237.0</ele><time>2026-04-06T14:08:59.216Z</time></trkpt><trkpt lat="44.6134755" lon="7.9873972"><ele>237.0</ele><time>2026-04-06T14:09:00.216Z</time></trkpt><trkpt lat="44.6135975" lon="7.9873759"><ele>237.0</ele><time>2026-04-06T14:09:01.216Z</time></trkpt><trkpt lat="44.6137116" lon="7.9873488"><ele>237.0</ele><time>2026-04-06T14:09:02.216Z</time></trkpt><trkpt lat="44.613817" lon="7.9873334"><ele>237.2</ele><time>2026-04-06T14:09:03.217Z</time></trkpt><trkpt lat="44.6139218" lon="7.9873253"><ele>237.39999999999998</ele><time>2026-04-06T14:09:04.216Z</time></trkpt><trkpt lat="44.6140355" lon="7.987322"><ele>237.60000000000002</ele><time>2026-04-06T14:09:05.216Z</time></trkpt><trkpt lat="44.6141511" lon="7.98732"><ele>237.8</ele><time>2026-04-06T14:09:06.216Z</time></trkpt><trkpt lat="44.6142611" lon="7.9873242"><ele>238.0</ele><time>2026-04-06T14:09:07.216Z</time></trkpt><trkpt lat="44.6143587" lon="7.9873223"><ele>237.99999999999997</ele><time>2026-04-06T14:09:08.216Z</time></trkpt><trkpt lat="44.6144461" lon="7.9873269"><ele>238.0</ele><time>2026-04-06T14:09:09.216Z</time></trkpt><trkpt lat="44.6145154" lon="7.9873271"><ele>238.0</ele><time>2026-04-06T14:09:10.216Z</time></trkpt><trkpt lat="44.6146204" lon="7.9872952"><ele>238.0</ele><time>2026-04-06T14:09:12.216Z</time></trkpt><trkpt lat="44.6146972" lon="7.9872538"><ele>237.99999999999997</ele><time>2026-04-06T14:09:14.216Z</time></trkpt><trkpt lat="44.6147938" lon="7.9872084"><ele>238.0</ele><time>2026-04-06T14:09:16.216Z</time></trkpt><trkpt lat="44.6148582" lon="7.9871996"><ele>237.60000000000002</ele><time>2026-04-06T14:09:17.217Z</time></trkpt><trkpt lat="44.6149771" lon="7.9871762"><ele>237.20000000000002</ele><time>2026-04-06T14:09:19.216Z</time></trkpt><trkpt lat="44.6150748" lon="7.9871263"><ele>236.8</ele><time>2026-04-06T14:09:21.216Z</time></trkpt><trkpt lat="44.6151124" lon="7.986989"><ele>236.4</ele><time>2026-04-06T14:09:23.216Z</time></trkpt><trkpt lat="44.6151206" lon="7.9868998"><ele>236.0</ele><time>2026-04-06T14:09:24.216Z</time></trkpt><trkpt lat="44.6151314" lon="7.9867802"><ele>235.0</ele><time>2026-04-06T14:09:25.216Z</time></trkpt><trkpt lat="44.6151468" lon="7.9866375"><ele>234.00000000000003</ele><time>2026-04-06T14:09:26.216Z</time></trkpt><trkpt lat="44.6151424" lon="7.9864917"><ele>233.00000000000003</ele><time>2026-04-06T14:09:27.216Z</time></trkpt><trkpt lat="44.6151375" lon="7.986368"><ele>232.0</ele><time>2026-04-06T14:09:28.216Z</time></trkpt><trkpt lat="44.6151342" lon="7.9862488"><ele>231.0</ele><time>2026-04-06T14:09:29.216Z</time></trkpt><trkpt lat="44.6151288" lon="7.9861095"><ele>231.0</ele><time>2026-04-06T14:09:30.216Z</time></trkpt><trkpt lat="44.6151196" lon="7.9859581"><ele>231.00000000000003</ele><time>2026-04-06T14:09:31.216Z</time></trkpt><trkpt lat="44.6151084" lon="7.9857854"><ele>231.00000000000003</ele><time>2026-04-06T14:09:32.216Z</time></trkpt><trkpt lat="44.6151013" lon="7.9856199"><ele>231.0</ele><time>2026-04-06T14:09:33.216Z</time></trkpt><trkpt lat="44.6150937" lon="7.9854909"><ele>231.0</ele><time>2026-04-06T14:09:34.216Z</time></trkpt><trkpt lat="44.6150876" lon="7.9853999"><ele>230.83333333333334</ele><time>2026-04-06T14:09:35.216Z</time></trkpt><trkpt lat="44.6151121" lon="7.9853058"><ele>230.66666666666669</ele><time>2026-04-06T14:09:37.216Z</time></trkpt><trkpt lat="44.6151481" lon="7.9852247"><ele>230.5</ele><time>2026-04-06T14:09:42.216Z</time></trkpt><trkpt lat="44.615113" lon="7.9851443"><ele>230.33333333333334</ele><time>2026-04-06T14:09:47.216Z</time></trkpt><trkpt lat="44.6150138" lon="7.9851329"><ele>230.16666666666669</ele><time>2026-04-06T14:09:49.216Z</time></trkpt><trkpt lat="44.6149413" lon="7.9851335"><ele>230.0</ele><time>2026-04-06T14:09:50.216Z</time></trkpt><trkpt lat="44.6148511" lon="7.9851271"><ele>230.0</ele><time>2026-04-06T14:09:51.216Z</time></trkpt><trkpt lat="44.614748" lon="7.9851168"><ele>230.0</ele><time>2026-04-06T14:09:52.216Z</time></trkpt><trkpt lat="44.6146377" lon="7.9851006"><ele>230.0</ele><time>2026-04-06T14:09:53.216Z</time></trkpt><trkpt lat="44.6145222" lon="7.9850734"><ele>230.0</ele><time>2026-04-06T14:09:54.217Z</time></trkpt><trkpt lat="44.614403" lon="7.9850605"><ele>231.0</ele><time>2026-04-06T14:09:55.216Z</time></trkpt><trkpt lat="44.6142824" lon="7.9850807"><ele>232.0</ele><time>2026-04-06T14:09:56.216Z</time></trkpt><trkpt lat="44.6141591" lon="7.9851254"><ele>233.0</ele><time>2026-04-06T14:09:57.216Z</time></trkpt><trkpt lat="44.6140404" lon="7.9851839"><ele>234.0</ele><time>2026-04-06T14:09:58.216Z</time></trkpt><trkpt lat="44.6139262" lon="7.985229"><ele>234.0</ele><time>2026-04-06T14:09:59.216Z</time></trkpt><trkpt lat="44.613819" lon="7.9852622"><ele>234.0</ele><time>2026-04-06T14:10:00.216Z</time></trkpt><trkpt lat="44.6137079" lon="7.9852669"><ele>234.0</ele><time>2026-04-06T14:10:01.217Z</time></trkpt><trkpt lat="44.6135936" lon="7.9852579"><ele>234.0</ele><time>2026-04-06T14:10:02.216Z</time></trkpt><trkpt lat="44.613478" lon="7.9852297"><ele>235.25</ele><time>2026-04-06T14:10:03.216Z</time></trkpt><trkpt lat="44.6133613" lon="7.9852025"><ele>236.5</ele><time>2026-04-06T14:10:04.216Z</time></trkpt><trkpt lat="44.6132475" lon="7.9851993"><ele>237.75</ele><time>2026-04-06T14:10:05.216Z</time></trkpt><trkpt lat="44.6131253" lon="7.9852303"><ele>239.0</ele><time>2026-04-06T14:10:06.216Z</time></trkpt><trkpt lat="44.613003" lon="7.9853036"><ele>239.0</ele><time>2026-04-06T14:10:07.216Z</time></trkpt><trkpt lat="44.6128798" lon="7.9853759"><ele>239.0</ele><time>2026-04-06T14:10:08.216Z</time></trkpt><trkpt lat="44.6127481" lon="7.9854459"><ele>239.0</ele><time>2026-04-06T14:10:09.216Z</time></trkpt><trkpt lat="44.6126088" lon="7.9855122"><ele>239.0</ele><time>2026-04-06T14:10:10.216Z</time></trkpt><trkpt lat="44.6124661" lon="7.9855448"><ele>239.75</ele><time>2026-04-06T14:10:11.216Z</time></trkpt><trkpt lat="44.6123172" lon="7.9855533"><ele>240.5</ele><time>2026-04-06T14:10:12.216Z</time></trkpt><trkpt lat="44.6121802" lon="7.9855553"><ele>241.25</ele><time>2026-04-06T14:10:13.216Z</time></trkpt><trkpt lat="44.6120467" lon="7.9855214"><ele>242.0</ele><time>2026-04-06T14:10:14.216Z</time></trkpt><trkpt lat="44.6119179" lon="7.9854475"><ele>242.25</ele><time>2026-04-06T14:10:15.216Z</time></trkpt><trkpt lat="44.611787" lon="7.985368"><ele>242.5</ele><time>2026-04-06T14:10:16.216Z</time></trkpt><trkpt lat="44.6116378" lon="7.9853292"><ele>242.75</ele><time>2026-04-06T14:10:17.216Z</time></trkpt><trkpt lat="44.6114912" lon="7.9853363"><ele>243.0</ele><time>2026-04-06T14:10:18.216Z</time></trkpt><trkpt lat="44.6113509" lon="7.9853934"><ele>243.0</ele><time>2026-04-06T14:10:19.216Z</time></trkpt><trkpt lat="44.6112056" lon="7.9854228"><ele>243.0</ele><time>2026-04-06T14:10:20.216Z</time></trkpt><trkpt lat="44.6110547" lon="7.9854288"><ele>243.0</ele><time>2026-04-06T14:10:21.216Z</time></trkpt><trkpt lat="44.6108932" lon="7.9854168"><ele>245.0</ele><time>2026-04-06T14:10:22.216Z</time></trkpt><trkpt lat="44.6107206" lon="7.9854003"><ele>247.0</ele><time>2026-04-06T14:10:23.216Z</time></trkpt><trkpt lat="44.6105495" lon="7.985374"><ele>249.0</ele><time>2026-04-06T14:10:24.216Z</time></trkpt><trkpt lat="44.6103932" lon="7.9853498"><ele>249.5</ele><time>2026-04-06T14:10:25.217Z</time></trkpt><trkpt lat="44.6102565" lon="7.9853281"><ele>250.0</ele><time>2026-04-06T14:10:26.216Z</time></trkpt><trkpt lat="44.610134" lon="7.9853091"><ele>250.5</ele><time>2026-04-06T14:10:27.216Z</time></trkpt><trkpt lat="44.6100245" lon="7.9852972"><ele>251.0</ele><time>2026-04-06T14:10:28.216Z</time></trkpt><trkpt lat="44.6099328" lon="7.9852771"><ele>251.00000000000003</ele><time>2026-04-06T14:10:29.216Z</time></trkpt><trkpt lat="44.6098586" lon="7.9852586"><ele>251.0</ele><time>2026-04-06T14:10:30.216Z</time></trkpt><trkpt lat="44.6097616" lon="7.9852289"><ele>251.0</ele><time>2026-04-06T14:10:32.216Z</time></trkpt><trkpt lat="44.6098271" lon="7.9852919"><ele>251.0</ele><time>2026-04-06T14:10:38.216Z</time></trkpt><trkpt lat="44.6099053" lon="7.9852991"><ele>251.00000000000003</ele><time>2026-04-06T14:10:39.216Z</time></trkpt><trkpt lat="44.6100091" lon="7.9853002"><ele>251.0</ele><time>2026-04-06T14:10:40.216Z</time></trkpt><trkpt lat="44.6101102" lon="7.9853234"><ele>251.0</ele><time>2026-04-06T14:10:41.216Z</time></trkpt><trkpt lat="44.6102227" lon="7.9853406"><ele>251.0</ele><time>2026-04-06T14:10:42.216Z</time></trkpt><trkpt lat="44.6103447" lon="7.9853601"><ele>251.0</ele><time>2026-04-06T14:10:43.216Z</time></trkpt><trkpt lat="44.6104657" lon="7.9853758"><ele>251.0</ele><time>2026-04-06T14:10:44.216Z</time></trkpt><trkpt lat="44.6105893" lon="7.9853988"><ele>250.5</ele><time>2026-04-06T14:10:45.216Z</time></trkpt><trkpt lat="44.6107031" lon="7.9854198"><ele>250.0</ele><time>2026-04-06T14:10:46.216Z</time></trkpt><trkpt lat="44.6108156" lon="7.9854339"><ele>249.5</ele><time>2026-04-06T14:10:47.216Z</time></trkpt><trkpt lat="44.6109301" lon="7.9854513"><ele>249.0</ele><time>2026-04-06T14:10:48.216Z</time></trkpt><trkpt lat="44.6110378" lon="7.9854553"><ele>249.0</ele><time>2026-04-06T14:10:49.216Z</time></trkpt><trkpt lat="44.6111561" lon="7.9854506"><ele>249.0</ele><time>2026-04-06T14:10:50.216Z</time></trkpt><trkpt lat="44.6112703" lon="7.9854436"><ele>249.0</ele><time>2026-04-06T14:10:51.216Z</time></trkpt><trkpt lat="44.6113827" lon="7.9854106"><ele>249.0</ele><time>2026-04-06T14:10:52.216Z</time></trkpt><trkpt lat="44.6114928" lon="7.9853772"><ele>247.5</ele><time>2026-04-06T14:10:53.216Z</time></trkpt><trkpt lat="44.6116009" lon="7.9853463"><ele>246.0</ele><time>2026-04-06T14:10:54.216Z</time></trkpt><trkpt lat="44.6117103" lon="7.9853676"><ele>244.5</ele><time>2026-04-06T14:10:55.216Z</time></trkpt><trkpt lat="44.6118183" lon="7.9854289"><ele>243.0</ele><time>2026-04-06T14:10:56.216Z</time></trkpt><trkpt lat="44.6119206" lon="7.985499"><ele>242.75</ele><time>2026-04-06T14:10:57.216Z</time></trkpt><trkpt lat="44.6120255" lon="7.9855461"><ele>242.5</ele><time>2026-04-06T14:10:58.216Z</time></trkpt><trkpt lat="44.6121456" lon="7.9855702"><ele>242.25</ele><time>2026-04-06T14:10:59.216Z</time></trkpt><trkpt lat="44.6122687" lon="7.9855678"><ele>242.0</ele><time>2026-04-06T14:11:00.216Z</time></trkpt><trkpt lat="44.6123893" lon="7.9855619"><ele>242.0</ele><time>2026-04-06T14:11:01.216Z</time></trkpt><trkpt lat="44.612498" lon="7.985548"><ele>242.0</ele><time>2026-04-06T14:11:02.216Z</time></trkpt><trkpt lat="44.6125963" lon="7.9855226"><ele>242.0</ele><time>2026-04-06T14:11:03.216Z</time></trkpt><trkpt lat="44.612671" lon="7.9854917"><ele>242.0</ele><time>2026-04-06T14:11:04.216Z</time></trkpt><trkpt lat="44.6127783" lon="7.9854433"><ele>242.0</ele><time>2026-04-06T14:11:06.216Z</time></trkpt><trkpt lat="44.6128155" lon="7.9855189"><ele>242.0</ele><time>2026-04-06T14:11:09.216Z</time></trkpt><trkpt lat="44.6127171" lon="7.9855576"><ele>242.0</ele><time>2026-04-06T14:11:11.216Z</time></trkpt><trkpt lat="44.6126407" lon="7.9855763"><ele>242.0</ele><time>2026-04-06T14:11:12.216Z</time></trkpt><trkpt lat="44.6125496" lon="7.9856313"><ele>242.0</ele><time>2026-04-06T14:11:13.216Z</time></trkpt><trkpt lat="44.612447" lon="7.9856868"><ele>242.0</ele><time>2026-04-06T14:11:14.216Z</time></trkpt><trkpt lat="44.6123232" lon="7.9857489"><ele>242.0</ele><time>2026-04-06T14:11:15.216Z</time></trkpt><trkpt lat="44.6121981" lon="7.9858121"><ele>242.0</ele><time>2026-04-06T14:11:16.216Z</time></trkpt><trkpt lat="44.6120708" lon="7.9858792"><ele>242.0</ele><time>2026-04-06T14:11:17.217Z</time></trkpt><trkpt lat="44.6119375" lon="7.9859546"><ele>242.0</ele><time>2026-04-06T14:11:18.216Z</time></trkpt><trkpt lat="44.6118093" lon="7.9860241"><ele>241.75</ele><time>2026-04-06T14:11:19.216Z</time></trkpt><trkpt lat="44.6116882" lon="7.9860871"><ele>241.5</ele><time>2026-04-06T14:11:20.216Z</time></trkpt><trkpt lat="44.6115585" lon="7.9861535"><ele>241.25</ele><time>2026-04-06T14:11:21.216Z</time></trkpt><trkpt lat="44.6114346" lon="7.9861965"><ele>241.0</ele><time>2026-04-06T14:11:22.216Z</time></trkpt><trkpt lat="44.611318" lon="7.9862232"><ele>241.0</ele><time>2026-04-06T14:11:23.217Z</time></trkpt><trkpt lat="44.6112119" lon="7.9862566"><ele>241.00000000000003</ele><time>2026-04-06T14:11:24.216Z</time></trkpt><trkpt lat="44.6111128" lon="7.9862975"><ele>241.00000000000003</ele><time>2026-04-06T14:11:25.216Z</time></trkpt><trkpt lat="44.6110128" lon="7.9863491"><ele>241.0</ele><time>2026-04-06T14:11:26.216Z</time></trkpt><trkpt lat="44.6109141" lon="7.9864253"><ele>241.0</ele><time>2026-04-06T14:11:27.216Z</time></trkpt><trkpt lat="44.61081" lon="7.9865049"><ele>241.0</ele><time>2026-04-06T14:11:28.216Z</time></trkpt><trkpt lat="44.6107151" lon="7.9865857"><ele>241.0</ele><time>2026-04-06T14:11:29.216Z</time></trkpt><trkpt lat="44.6106223" lon="7.9866575"><ele>241.0</ele><time>2026-04-06T14:11:30.216Z</time></trkpt><trkpt lat="44.6105094" lon="7.986719"><ele>241.0</ele><time>2026-04-06T14:11:31.216Z</time></trkpt><trkpt lat="44.6103722" lon="7.9867501"><ele>241.66666666666666</ele><time>2026-04-06T14:11:32.216Z</time></trkpt><trkpt lat="44.6102222" lon="7.9867803"><ele>242.33333333333331</ele><time>2026-04-06T14:11:33.216Z</time></trkpt><trkpt lat="44.61006" lon="7.9867993"><ele>243.0</ele><time>2026-04-06T14:11:34.216Z</time></trkpt><trkpt lat="44.6098998" lon="7.9868174"><ele>243.0</ele><time>2026-04-06T14:11:35.216Z</time></trkpt><trkpt lat="44.6097411" lon="7.9868442"><ele>243.0</ele><time>2026-04-06T14:11:36.216Z</time></trkpt><trkpt lat="44.6095948" lon="7.98687"><ele>243.0</ele><time>2026-04-06T14:11:37.216Z</time></trkpt><trkpt lat="44.6094634" lon="7.986892"><ele>243.0</ele><time>2026-04-06T14:11:38.216Z</time></trkpt><trkpt lat="44.6093495" lon="7.9869373"><ele>243.5</ele><time>2026-04-06T14:11:39.216Z</time></trkpt><trkpt lat="44.6092521" lon="7.9870351"><ele>244.0</ele><time>2026-04-06T14:11:40.216Z</time></trkpt><trkpt lat="44.6091649" lon="7.9871465"><ele>244.5</ele><time>2026-04-06T14:11:41.216Z</time></trkpt><trkpt lat="44.6090871" lon="7.9872672"><ele>245.0</ele><time>2026-04-06T14:11:42.216Z</time></trkpt><trkpt lat="44.6090136" lon="7.9873811"><ele>245.0</ele><time>2026-04-06T14:11:43.216Z</time></trkpt><trkpt lat="44.6089429" lon="7.987478"><ele>245.0</ele><time>2026-04-06T14:11:44.216Z</time></trkpt><trkpt lat="44.6088675" lon="7.9875557"><ele>245.0</ele><time>2026-04-06T14:11:45.216Z</time></trkpt><trkpt lat="44.608792" lon="7.9876126"><ele>245.0</ele><time>2026-04-06T14:11:46.216Z</time></trkpt><trkpt lat="44.6087103" lon="7.9876636"><ele>245.0</ele><time>2026-04-06T14:11:47.217Z</time></trkpt><trkpt lat="44.6086221" lon="7.9877153"><ele>246.2</ele><time>2026-04-06T14:11:48.216Z</time></trkpt><trkpt lat="44.6085203" lon="7.9877624"><ele>247.4</ele><time>2026-04-06T14:11:49.216Z</time></trkpt><trkpt lat="44.6084047" lon="7.9877925"><ele>248.60000000000002</ele><time>2026-04-06T14:11:50.216Z</time></trkpt><trkpt lat="44.6083026" lon="7.9878348"><ele>249.8</ele><time>2026-04-06T14:11:51.217Z</time></trkpt><trkpt lat="44.6082149" lon="7.9878823"><ele>251.0</ele><time>2026-04-06T14:11:52.216Z</time></trkpt><trkpt lat="44.6081226" lon="7.9879658"><ele>251.0</ele><time>2026-04-06T14:11:53.216Z</time></trkpt><trkpt lat="44.6080184" lon="7.9880609"><ele>251.0</ele><time>2026-04-06T14:11:54.216Z</time></trkpt><trkpt lat="44.6079148" lon="7.988148"><ele>251.0</ele><time>2026-04-06T14:11:55.216Z</time></trkpt><trkpt lat="44.6077965" lon="7.9882151"><ele>251.0</ele><time>2026-04-06T14:11:56.216Z</time></trkpt><trkpt lat="44.6076549" lon="7.988265"><ele>250.33333333333334</ele><time>2026-04-06T14:11:57.216Z</time></trkpt><trkpt lat="44.6074941" lon="7.9883016"><ele>249.66666666666669</ele><time>2026-04-06T14:11:58.216Z</time></trkpt><trkpt lat="44.60732" lon="7.9883451"><ele>249.0</ele><time>2026-04-06T14:11:59.216Z</time></trkpt><trkpt lat="44.6071435" lon="7.9883723"><ele>250.66666666666669</ele><time>2026-04-06T14:12:00.216Z</time></trkpt><trkpt lat="44.6069627" lon="7.9883976"><ele>252.33333333333334</ele><time>2026-04-06T14:12:01.216Z</time></trkpt><trkpt lat="44.6067718" lon="7.9884003"><ele>254.0</ele><time>2026-04-06T14:12:02.216Z</time></trkpt><trkpt lat="44.6065972" lon="7.9884011"><ele>254.0</ele><time>2026-04-06T14:12:03.217Z</time></trkpt><trkpt lat="44.606434" lon="7.9883934"><ele>254.0</ele><time>2026-04-06T14:12:04.217Z</time></trkpt><trkpt lat="44.606282" lon="7.988372"><ele>254.0</ele><time>2026-04-06T14:12:05.216Z</time></trkpt><trkpt lat="44.6061389" lon="7.9883369"><ele>253.33333333333334</ele><time>2026-04-06T14:12:06.216Z</time></trkpt><trkpt lat="44.6059858" lon="7.9882877"><ele>252.66666666666669</ele><time>2026-04-06T14:12:07.216Z</time></trkpt><trkpt lat="44.6058247" lon="7.9882287"><ele>252.0</ele><time>2026-04-06T14:12:08.217Z</time></trkpt><trkpt lat="44.6056642" lon="7.9881623"><ele>252.0</ele><time>2026-04-06T14:12:09.216Z</time></trkpt><trkpt lat="44.6055012" lon="7.9880929"><ele>252.0</ele><time>2026-04-06T14:12:10.216Z</time></trkpt><trkpt lat="44.6053373" lon="7.9880369"><ele>252.0</ele><time>2026-04-06T14:12:11.216Z</time></trkpt><trkpt lat="44.6051873" lon="7.9879899"><ele>253.25</ele><time>2026-04-06T14:12:12.216Z</time></trkpt><trkpt lat="44.6050516" lon="7.9879546"><ele>254.5</ele><time>2026-04-06T14:12:13.216Z</time></trkpt><trkpt lat="44.604934" lon="7.9879342"><ele>255.75</ele><time>2026-04-06T14:12:14.216Z</time></trkpt><trkpt lat="44.6048361" lon="7.9879412"><ele>257.0</ele><time>2026-04-06T14:12:15.216Z</time></trkpt><trkpt lat="44.6047429" lon="7.9879747"><ele>257.0</ele><time>2026-04-06T14:12:16.216Z</time></trkpt><trkpt lat="44.6046521" lon="7.9880503"><ele>257.0</ele><time>2026-04-06T14:12:17.216Z</time></trkpt><trkpt lat="44.6045555" lon="7.9881542"><ele>257.0</ele><time>2026-04-06T14:12:18.216Z</time></trkpt><trkpt lat="44.6044427" lon="7.9882452"><ele>257.0</ele><time>2026-04-06T14:12:19.216Z</time></trkpt><trkpt lat="44.6043218" lon="7.988311"><ele>257.0</ele><time>2026-04-06T14:12:20.216Z</time></trkpt><trkpt lat="44.6041972" lon="7.9883738"><ele>257.0</ele><time>2026-04-06T14:12:21.216Z</time></trkpt><trkpt lat="44.6040785" lon="7.9884333"><ele>257.0</ele><time>2026-04-06T14:12:22.216Z</time></trkpt><trkpt lat="44.6039586" lon="7.9885011"><ele>257.0</ele><time>2026-04-06T14:12:23.216Z</time></trkpt><trkpt lat="44.6038372" lon="7.9885449"><ele>257.0</ele><time>2026-04-06T14:12:24.216Z</time></trkpt><trkpt lat="44.603722" lon="7.9885946"><ele>257.0</ele><time>2026-04-06T14:12:25.216Z</time></trkpt><trkpt lat="44.6036091" lon="7.9886653"><ele>257.0</ele><time>2026-04-06T14:12:26.216Z</time></trkpt><trkpt lat="44.6035044" lon="7.9887472"><ele>257.0</ele><time>2026-04-06T14:12:27.216Z</time></trkpt><trkpt lat="44.6034032" lon="7.98883"><ele>257.25</ele><time>2026-04-06T14:12:28.216Z</time></trkpt><trkpt lat="44.6032941" lon="7.988914"><ele>257.5</ele><time>2026-04-06T14:12:29.216Z</time></trkpt><trkpt lat="44.6031681" lon="7.9889845"><ele>257.75</ele><time>2026-04-06T14:12:30.216Z</time></trkpt><trkpt lat="44.6030574" lon="7.9890472"><ele>258.0</ele><time>2026-04-06T14:12:31.216Z</time></trkpt><trkpt lat="44.6029567" lon="7.9891136"><ele>258.0</ele><time>2026-04-06T14:12:32.216Z</time></trkpt><trkpt lat="44.6028513" lon="7.9891707"><ele>258.0</ele><time>2026-04-06T14:12:33.216Z</time></trkpt><trkpt lat="44.6027454" lon="7.9892118"><ele>258.0</ele><time>2026-04-06T14:12:34.216Z</time></trkpt><trkpt lat="44.602627" lon="7.9892316"><ele>258.0</ele><time>2026-04-06T14:12:35.216Z</time></trkpt><trkpt lat="44.6025035" lon="7.9892552"><ele>259.25</ele><time>2026-04-06T14:12:36.216Z</time></trkpt><trkpt lat="44.6023679" lon="7.9893039"><ele>260.5</ele><time>2026-04-06T14:12:37.216Z</time></trkpt><trkpt lat="44.602223" lon="7.9893555"><ele>261.75</ele><time>2026-04-06T14:12:38.216Z</time></trkpt><trkpt lat="44.6020709" lon="7.9894142"><ele>263.0</ele><time>2026-04-06T14:12:39.217Z</time></trkpt><trkpt lat="44.601917" lon="7.9894669"><ele>263.75</ele><time>2026-04-06T14:12:40.216Z</time></trkpt><trkpt lat="44.6017746" lon="7.9895247"><ele>264.5</ele><time>2026-04-06T14:12:41.216Z</time></trkpt><trkpt lat="44.6016391" lon="7.98958"><ele>265.25</ele><time>2026-04-06T14:12:42.217Z</time></trkpt><trkpt lat="44.6015174" lon="7.989633"><ele>266.0</ele><time>2026-04-06T14:12:43.216Z</time></trkpt><trkpt lat="44.6013964" lon="7.9896862"><ele>266.0</ele><time>2026-04-06T14:12:44.216Z</time></trkpt><trkpt lat="44.6012907" lon="7.9897326"><ele>266.0</ele><time>2026-04-06T14:12:45.216Z</time></trkpt><trkpt lat="44.6011885" lon="7.9897916"><ele>266.0</ele><time>2026-04-06T14:12:46.216Z</time></trkpt><trkpt lat="44.6010815" lon="7.9898514"><ele>266.0</ele><time>2026-04-06T14:12:47.216Z</time></trkpt><trkpt lat="44.6009819" lon="7.9898727"><ele>266.0</ele><time>2026-04-06T14:12:48.216Z</time></trkpt><trkpt lat="44.6008887" lon="7.9898894"><ele>266.40000000000003</ele><time>2026-04-06T14:12:49.216Z</time></trkpt><trkpt lat="44.6007987" lon="7.989908"><ele>266.8</ele><time>2026-04-06T14:12:50.216Z</time></trkpt><trkpt lat="44.6006993" lon="7.9899437"><ele>267.20000000000005</ele><time>2026-04-06T14:12:51.216Z</time></trkpt><trkpt lat="44.6006011" lon="7.9900013"><ele>267.6</ele><time>2026-04-06T14:12:52.216Z</time></trkpt><trkpt lat="44.6005078" lon="7.9900806"><ele>268.0</ele><time>2026-04-06T14:12:53.217Z</time></trkpt><trkpt lat="44.600396" lon="7.9901662"><ele>268.0</ele><time>2026-04-06T14:12:54.216Z</time></trkpt><trkpt lat="44.600282" lon="7.9902595"><ele>268.0</ele><time>2026-04-06T14:12:55.216Z</time></trkpt><trkpt lat="44.6001553" lon="7.9903672"><ele>268.0</ele><time>2026-04-06T14:12:56.216Z</time></trkpt><trkpt lat="44.6000263" lon="7.9904727"><ele>268.0</ele><time>2026-04-06T14:12:57.216Z</time></trkpt><trkpt lat="44.5999017" lon="7.9905723"><ele>268.0</ele><time>2026-04-06T14:12:58.216Z</time></trkpt><trkpt lat="44.5997836" lon="7.9906599"><ele>268.0</ele><time>2026-04-06T14:12:59.216Z</time></trkpt><trkpt lat="44.5996676" lon="7.9907329"><ele>268.0</ele><time>2026-04-06T14:13:00.216Z</time></trkpt><trkpt lat="44.5995423" lon="7.9907916"><ele>268.0</ele><time>2026-04-06T14:13:01.216Z</time></trkpt><trkpt lat="44.5994193" lon="7.9908458"><ele>269.4</ele><time>2026-04-06T14:13:02.216Z</time></trkpt><trkpt lat="44.5992998" lon="7.9908999"><ele>270.8</ele><time>2026-04-06T14:13:03.216Z</time></trkpt><trkpt lat="44.5991817" lon="7.9909545"><ele>272.2</ele><time>2026-04-06T14:13:04.216Z</time></trkpt><trkpt lat="44.5990875" lon="7.9910004"><ele>273.6</ele><time>2026-04-06T14:13:05.216Z</time></trkpt><trkpt lat="44.5990196" lon="7.9910562"><ele>275.0</ele><time>2026-04-06T14:13:06.216Z</time></trkpt><trkpt lat="44.5989534" lon="7.9911199"><ele>275.0</ele><time>2026-04-06T14:13:07.216Z</time></trkpt><trkpt lat="44.5988992" lon="7.9912164"><ele>275.0</ele><time>2026-04-06T14:13:08.216Z</time></trkpt><trkpt lat="44.5988802" lon="7.9913238"><ele>275.0</ele><time>2026-04-06T14:13:09.216Z</time></trkpt><trkpt lat="44.5988865" lon="7.9914433"><ele>275.0</ele><time>2026-04-06T14:13:10.216Z</time></trkpt><trkpt lat="44.5989" lon="7.9915665"><ele>275.0</ele><time>2026-04-06T14:13:11.216Z</time></trkpt><trkpt lat="44.5989242" lon="7.9916922"><ele>275.0</ele><time>2026-04-06T14:13:12.216Z</time></trkpt><trkpt lat="44.5989415" lon="7.9918137"><ele>276.1666666666667</ele><time>2026-04-06T14:13:13.216Z</time></trkpt><trkpt lat="44.5989542" lon="7.9919296"><ele>277.33333333333337</ele><time>2026-04-06T14:13:14.216Z</time></trkpt><trkpt lat="44.5989387" lon="7.9920416"><ele>278.5</ele><time>2026-04-06T14:13:15.216Z</time></trkpt><trkpt lat="44.5989027" lon="7.9921301"><ele>279.6666666666667</ele><time>2026-04-06T14:13:16.216Z</time></trkpt><trkpt lat="44.5988475" lon="7.9922242"><ele>280.8333333333333</ele><time>2026-04-06T14:13:17.216Z</time></trkpt><trkpt lat="44.5987774" lon="7.9923217"><ele>282.0</ele><time>2026-04-06T14:13:18.216Z</time></trkpt><trkpt lat="44.5986979" lon="7.9924017"><ele>281.6666666666667</ele><time>2026-04-06T14:13:19.216Z</time></trkpt><trkpt lat="44.5986277" lon="7.9924701"><ele>281.3333333333333</ele><time>2026-04-06T14:13:20.216Z</time></trkpt><trkpt lat="44.5985581" lon="7.9925014"><ele>281.0</ele><time>2026-04-06T14:13:21.216Z</time></trkpt><trkpt lat="44.5984635" lon="7.9925117"><ele>280.66666666666663</ele><time>2026-04-06T14:13:22.216Z</time></trkpt><trkpt lat="44.598367" lon="7.9925022"><ele>280.3333333333333</ele><time>2026-04-06T14:13:23.215Z</time></trkpt><trkpt lat="44.5982738" lon="7.9925033"><ele>280.0</ele><time>2026-04-06T14:13:24.215Z</time></trkpt><trkpt lat="44.5981998" lon="7.9924962"><ele>279.6</ele><time>2026-04-06T14:13:25.215Z</time></trkpt><trkpt lat="44.5981304" lon="7.9924831"><ele>279.2</ele><time>2026-04-06T14:13:26.215Z</time></trkpt><trkpt lat="44.5980483" lon="7.9924593"><ele>278.8</ele><time>2026-04-06T14:13:27.215Z</time></trkpt><trkpt lat="44.5979569" lon="7.9924204"><ele>278.4</ele><time>2026-04-06T14:13:28.215Z</time></trkpt><trkpt lat="44.5978502" lon="7.9923586"><ele>278.0</ele><time>2026-04-06T14:13:29.216Z</time></trkpt><trkpt lat="44.5977533" lon="7.9922975"><ele>278.0</ele><time>2026-04-06T14:13:30.216Z</time></trkpt><trkpt lat="44.5976685" lon="7.9922402"><ele>278.0</ele><time>2026-04-06T14:13:31.215Z</time></trkpt><trkpt lat="44.5976004" lon="7.9921775"><ele>278.0</ele><time>2026-04-06T14:13:32.215Z</time></trkpt><trkpt lat="44.5975334" lon="7.9921228"><ele>278.0</ele><time>2026-04-06T14:13:33.215Z</time></trkpt><trkpt lat="44.5974601" lon="7.9920793"><ele>278.0</ele><time>2026-04-06T14:13:34.215Z</time></trkpt><trkpt lat="44.5973899" lon="7.9920573"><ele>278.0</ele><time>2026-04-06T14:13:35.215Z</time></trkpt><trkpt lat="44.5973068" lon="7.9920605"><ele>278.0</ele><time>2026-04-06T14:13:36.216Z</time></trkpt><trkpt lat="44.5972215" lon="7.9920988"><ele>278.0</ele><time>2026-04-06T14:13:37.215Z</time></trkpt><trkpt lat="44.5971283" lon="7.9921458"><ele>278.0</ele><time>2026-04-06T14:13:38.215Z</time></trkpt><trkpt lat="44.5970328" lon="7.9921992"><ele>278.0</ele><time>2026-04-06T14:13:39.215Z</time></trkpt><trkpt lat="44.5969319" lon="7.9922422"><ele>278.0</ele><time>2026-04-06T14:13:40.215Z</time></trkpt><trkpt lat="44.5968269" lon="7.9922867"><ele>278.25</ele><time>2026-04-06T14:13:41.215Z</time></trkpt><trkpt lat="44.5967099" lon="7.9923185"><ele>278.5</ele><time>2026-04-06T14:13:42.215Z</time></trkpt><trkpt lat="44.5965812" lon="7.9923539"><ele>278.75</ele><time>2026-04-06T14:13:43.215Z</time></trkpt><trkpt lat="44.5964516" lon="7.9923976"><ele>279.0</ele><time>2026-04-06T14:13:44.215Z</time></trkpt><trkpt lat="44.5963163" lon="7.9924436"><ele>279.0</ele><time>2026-04-06T14:13:45.215Z</time></trkpt><trkpt lat="44.5961826" lon="7.9924847"><ele>279.0</ele><time>2026-04-06T14:13:46.215Z</time></trkpt><trkpt lat="44.5960593" lon="7.9925193"><ele>279.0</ele><time>2026-04-06T14:13:47.215Z</time></trkpt><trkpt lat="44.5959461" lon="7.9925639"><ele>279.0</ele><time>2026-04-06T14:13:48.215Z</time></trkpt><trkpt lat="44.5958399" lon="7.992605"><ele>281.59999999999997</ele><time>2026-04-06T14:13:49.215Z</time></trkpt><trkpt lat="44.5957453" lon="7.9926318"><ele>284.2</ele><time>2026-04-06T14:13:50.215Z</time></trkpt><trkpt lat="44.5956463" lon="7.992634"><ele>286.79999999999995</ele><time>2026-04-06T14:13:51.215Z</time></trkpt><trkpt lat="44.5955496" lon="7.9926221"><ele>289.4</ele><time>2026-04-06T14:13:52.215Z</time></trkpt><trkpt lat="44.5954605" lon="7.9926092"><ele>292.0</ele><time>2026-04-06T14:13:53.215Z</time></trkpt><trkpt lat="44.5953676" lon="7.9926154"><ele>290.4</ele><time>2026-04-06T14:13:54.216Z</time></trkpt><trkpt lat="44.5952743" lon="7.9926409"><ele>288.79999999999995</ele><time>2026-04-06T14:13:55.215Z</time></trkpt><trkpt lat="44.5951865" lon="7.9926801"><ele>287.2</ele><time>2026-04-06T14:13:56.215Z</time></trkpt><trkpt lat="44.595107" lon="7.9927293"><ele>285.59999999999997</ele><time>2026-04-06T14:13:57.215Z</time></trkpt><trkpt lat="44.5950182" lon="7.9928052"><ele>284.0</ele><time>2026-04-06T14:13:58.215Z</time></trkpt><trkpt lat="44.5949348" lon="7.992885"><ele>284.0</ele><time>2026-04-06T14:13:59.215Z</time></trkpt><trkpt lat="44.5948539" lon="7.9929496"><ele>284.0</ele><time>2026-04-06T14:14:00.215Z</time></trkpt><trkpt lat="44.5947598" lon="7.9930018"><ele>284.0</ele><time>2026-04-06T14:14:01.215Z</time></trkpt><trkpt lat="44.5946624" lon="7.9930525"><ele>284.0</ele><time>2026-04-06T14:14:02.215Z</time></trkpt><trkpt lat="44.5945671" lon="7.9930904"><ele>284.0</ele><time>2026-04-06T14:14:03.215Z</time></trkpt><trkpt lat="44.5944724" lon="7.993139"><ele>284.0</ele><time>2026-04-06T14:14:04.215Z</time></trkpt><trkpt lat="44.5943708" lon="7.9931876"><ele>284.0</ele><time>2026-04-06T14:14:05.215Z</time></trkpt><trkpt lat="44.5942894" lon="7.9932285"><ele>284.0</ele><time>2026-04-06T14:14:06.215Z</time></trkpt><trkpt lat="44.594223" lon="7.993314"><ele>284.0</ele><time>2026-04-06T14:14:07.215Z</time></trkpt><trkpt lat="44.5941691" lon="7.9934224"><ele>284.0</ele><time>2026-04-06T14:14:08.215Z</time></trkpt><trkpt lat="44.5941247" lon="7.9935482"><ele>286.59999999999997</ele><time>2026-04-06T14:14:09.215Z</time></trkpt><trkpt lat="44.5940856" lon="7.9936652"><ele>289.2</ele><time>2026-04-06T14:14:10.215Z</time></trkpt><trkpt lat="44.5940507" lon="7.9937563"><ele>291.79999999999995</ele><time>2026-04-06T14:14:11.215Z</time></trkpt><trkpt lat="44.593953" lon="7.9938377"><ele>294.4</ele><time>2026-04-06T14:14:13.215Z</time></trkpt><trkpt lat="44.5938214" lon="7.9938773"><ele>297.0</ele><time>2026-04-06T14:14:15.215Z</time></trkpt><trkpt lat="44.5937603" lon="7.993911"><ele>297.0</ele><time>2026-04-06T14:14:16.215Z</time></trkpt><trkpt lat="44.5936934" lon="7.9939397"><ele>297.0</ele><time>2026-04-06T14:14:17.215Z</time></trkpt><trkpt lat="44.5936103" lon="7.9939801"><ele>297.0</ele><time>2026-04-06T14:14:18.215Z</time></trkpt><trkpt lat="44.5935079" lon="7.9940419"><ele>297.0</ele><time>2026-04-06T14:14:19.215Z</time></trkpt><trkpt lat="44.5933907" lon="7.9941143"><ele>297.0</ele><time>2026-04-06T14:14:20.215Z</time></trkpt><trkpt lat="44.5932697" lon="7.9941824"><ele>300.0</ele><time>2026-04-06T14:14:21.215Z</time></trkpt><trkpt lat="44.593135" lon="7.994253"><ele>303.0</ele><time>2026-04-06T14:14:22.215Z</time></trkpt><trkpt lat="44.5929946" lon="7.9943243"><ele>306.0</ele><time>2026-04-06T14:14:23.215Z</time></trkpt><trkpt lat="44.59286" lon="7.994381"><ele>309.0</ele><time>2026-04-06T14:14:24.215Z</time></trkpt><trkpt lat="44.5927371" lon="7.9944411"><ele>309.0</ele><time>2026-04-06T14:14:25.215Z</time></trkpt><trkpt lat="44.592632" lon="7.9944968"><ele>309.0</ele><time>2026-04-06T14:14:26.215Z</time></trkpt><trkpt lat="44.5925258" lon="7.994567"><ele>309.0</ele><time>2026-04-06T14:14:27.215Z</time></trkpt><trkpt lat="44.5924102" lon="7.9946421"><ele>309.0</ele><time>2026-04-06T14:14:28.215Z</time></trkpt><trkpt lat="44.5922987" lon="7.9947231"><ele>309.0</ele><time>2026-04-06T14:14:29.215Z</time></trkpt><trkpt lat="44.5921739" lon="7.9948229"><ele>309.0</ele><time>2026-04-06T14:14:30.215Z</time></trkpt><trkpt lat="44.5920507" lon="7.9949461"><ele>309.0</ele><time>2026-04-06T14:14:31.215Z</time></trkpt><trkpt lat="44.5919302" lon="7.9950881"><ele>309.3333333333333</ele><time>2026-04-06T14:14:32.215Z</time></trkpt><trkpt lat="44.5918023" lon="7.9952425"><ele>309.66666666666663</ele><time>2026-04-06T14:14:33.215Z</time></trkpt><trkpt lat="44.5916747" lon="7.9954098"><ele>310.0</ele><time>2026-04-06T14:14:34.215Z</time></trkpt><trkpt lat="44.5915409" lon="7.9955862"><ele>310.0</ele><time>2026-04-06T14:14:35.215Z</time></trkpt><trkpt lat="44.5914119" lon="7.9957633"><ele>310.0</ele><time>2026-04-06T14:14:36.215Z</time></trkpt><trkpt lat="44.5912848" lon="7.9959413"><ele>310.0</ele><time>2026-04-06T14:14:37.215Z</time></trkpt><trkpt lat="44.5911709" lon="7.9961281"><ele>309.66666666666663</ele><time>2026-04-06T14:14:38.215Z</time></trkpt><trkpt lat="44.5910549" lon="7.9963363"><ele>309.3333333333333</ele><time>2026-04-06T14:14:39.215Z</time></trkpt><trkpt lat="44.5909344" lon="7.9965491"><ele>309.0</ele><time>2026-04-06T14:14:40.215Z</time></trkpt><trkpt lat="44.590817" lon="7.9967506"><ele>314.0</ele><time>2026-04-06T14:14:41.215Z</time></trkpt><trkpt lat="44.5907157" lon="7.9969268"><ele>319.0</ele><time>2026-04-06T14:14:42.215Z</time></trkpt><trkpt lat="44.5906173" lon="7.9970945"><ele>324.0</ele><time>2026-04-06T14:14:43.215Z</time></trkpt><trkpt lat="44.5905245" lon="7.9972404"><ele>324.0</ele><time>2026-04-06T14:14:44.215Z</time></trkpt><trkpt lat="44.5904256" lon="7.9973692"><ele>324.0</ele><time>2026-04-06T14:14:45.215Z</time></trkpt><trkpt lat="44.590313" lon="7.997494"><ele>324.0</ele><time>2026-04-06T14:14:46.215Z</time></trkpt><trkpt lat="44.5901787" lon="7.9975972"><ele>324.0</ele><time>2026-04-06T14:14:47.215Z</time></trkpt><trkpt lat="44.5900309" lon="7.9976756"><ele>325.3333333333333</ele><time>2026-04-06T14:14:48.215Z</time></trkpt><trkpt lat="44.5898706" lon="7.9977522"><ele>326.66666666666663</ele><time>2026-04-06T14:14:49.215Z</time></trkpt><trkpt lat="44.5897011" lon="7.997851"><ele>328.0</ele><time>2026-04-06T14:14:50.215Z</time></trkpt><trkpt lat="44.5895224" lon="7.9979479"><ele>324.66666666666663</ele><time>2026-04-06T14:14:51.215Z</time></trkpt><trkpt lat="44.5893364" lon="7.9980501"><ele>321.3333333333333</ele><time>2026-04-06T14:14:52.215Z</time></trkpt><trkpt lat="44.589148" lon="7.9981557"><ele>318.0</ele><time>2026-04-06T14:14:53.215Z</time></trkpt><trkpt lat="44.5889504" lon="7.9982486"><ele>321.0</ele><time>2026-04-06T14:14:54.215Z</time></trkpt><trkpt lat="44.588747" lon="7.9983464"><ele>324.0</ele><time>2026-04-06T14:14:55.215Z</time></trkpt><trkpt lat="44.5885474" lon="7.9984426"><ele>327.0</ele><time>2026-04-06T14:14:56.215Z</time></trkpt><trkpt lat="44.5883553" lon="7.9985308"><ele>327.0</ele><time>2026-04-06T14:14:57.215Z</time></trkpt><trkpt lat="44.5881697" lon="7.9986035"><ele>327.0</ele><time>2026-04-06T14:14:58.215Z</time></trkpt><trkpt lat="44.5879867" lon="7.9986665"><ele>327.0</ele><time>2026-04-06T14:14:59.215Z</time></trkpt><trkpt lat="44.5878219" lon="7.9987242"><ele>325.5</ele><time>2026-04-06T14:15:00.215Z</time></trkpt><trkpt lat="44.5876741" lon="7.9987639"><ele>324.0</ele><time>2026-04-06T14:15:01.215Z</time></trkpt><trkpt lat="44.5875377" lon="7.9987914"><ele>322.5</ele><time>2026-04-06T14:15:02.215Z</time></trkpt><trkpt lat="44.5874127" lon="7.9988255"><ele>321.0</ele><time>2026-04-06T14:15:03.215Z</time></trkpt><trkpt lat="44.5873025" lon="7.9988608"><ele>321.0</ele><time>2026-04-06T14:15:04.215Z</time></trkpt><trkpt lat="44.587202" lon="7.9988838"><ele>321.0</ele><time>2026-04-06T14:15:05.215Z</time></trkpt><trkpt lat="44.5870928" lon="7.9988916"><ele>321.0</ele><time>2026-04-06T14:15:06.215Z</time></trkpt><trkpt lat="44.5869697" lon="7.9988577"><ele>321.0</ele><time>2026-04-06T14:15:07.215Z</time></trkpt><trkpt lat="44.5868451" lon="7.9987877"><ele>319.6666666666667</ele><time>2026-04-06T14:15:08.215Z</time></trkpt><trkpt lat="44.5867194" lon="7.9986833"><ele>318.33333333333337</ele><time>2026-04-06T14:15:09.215Z</time></trkpt><trkpt lat="44.5865848" lon="7.9985899"><ele>317.0</ele><time>2026-04-06T14:15:10.215Z</time></trkpt><trkpt lat="44.5864343" lon="7.9985102"><ele>317.0</ele><time>2026-04-06T14:15:11.215Z</time></trkpt><trkpt lat="44.5862845" lon="7.9984517"><ele>317.0</ele><time>2026-04-06T14:15:12.215Z</time></trkpt><trkpt lat="44.5861516" lon="7.9983993"><ele>317.0</ele><time>2026-04-06T14:15:13.215Z</time></trkpt><trkpt lat="44.5860238" lon="7.9983563"><ele>317.0</ele><time>2026-04-06T14:15:14.215Z</time></trkpt><trkpt lat="44.5859222" lon="7.9982986"><ele>320.0</ele><time>2026-04-06T14:15:15.215Z</time></trkpt><trkpt lat="44.5858242" lon="7.9982238"><ele>323.0</ele><time>2026-04-06T14:15:16.215Z</time></trkpt><trkpt lat="44.5857115" lon="7.9981133"><ele>326.0</ele><time>2026-04-06T14:15:17.215Z</time></trkpt><trkpt lat="44.5856133" lon="7.9980091"><ele>329.0</ele><time>2026-04-06T14:15:18.215Z</time></trkpt><trkpt lat="44.5855104" lon="7.9979366"><ele>329.0</ele><time>2026-04-06T14:15:19.215Z</time></trkpt><trkpt lat="44.5854114" lon="7.997868"><ele>329.0</ele><time>2026-04-06T14:15:20.215Z</time></trkpt><trkpt lat="44.585306" lon="7.9978228"><ele>329.0</ele><time>2026-04-06T14:15:21.215Z</time></trkpt><trkpt lat="44.5851869" lon="7.9978218"><ele>329.0</ele><time>2026-04-06T14:15:22.215Z</time></trkpt><trkpt lat="44.5850687" lon="7.9978092"><ele>329.79999999999995</ele><time>2026-04-06T14:15:23.215Z</time></trkpt><trkpt lat="44.5849756" lon="7.9977819"><ele>330.59999999999997</ele><time>2026-04-06T14:15:24.215Z</time></trkpt><trkpt lat="44.5848873" lon="7.9977129"><ele>331.4</ele><time>2026-04-06T14:15:25.215Z</time></trkpt><trkpt lat="44.5847988" lon="7.9976169"><ele>332.2</ele><time>2026-04-06T14:15:26.215Z</time></trkpt><trkpt lat="44.5847179" lon="7.9975222"><ele>333.0</ele><time>2026-04-06T14:15:27.215Z</time></trkpt><trkpt lat="44.5846489" lon="7.9974479"><ele>333.0</ele><time>2026-04-06T14:15:28.215Z</time></trkpt><trkpt lat="44.5845933" lon="7.9973768"><ele>333.0</ele><time>2026-04-06T14:15:29.215Z</time></trkpt><trkpt lat="44.5844933" lon="7.9972684"><ele>333.0</ele><time>2026-04-06T14:15:31.215Z</time></trkpt><trkpt lat="44.5844329" lon="7.997212"><ele>333.0</ele><time>2026-04-06T14:15:32.215Z</time></trkpt><trkpt lat="44.5843592" lon="7.9971643"><ele>333.0</ele><time>2026-04-06T14:15:33.215Z</time></trkpt><trkpt lat="44.584276" lon="7.9971053"><ele>333.0</ele><time>2026-04-06T14:15:34.215Z</time></trkpt><trkpt lat="44.5841886" lon="7.9970122"><ele>333.75</ele><time>2026-04-06T14:15:35.215Z</time></trkpt><trkpt lat="44.5841016" lon="7.9969035"><ele>334.5</ele><time>2026-04-06T14:15:36.215Z</time></trkpt><trkpt lat="44.5840222" lon="7.9967849"><ele>335.25</ele><time>2026-04-06T14:15:37.215Z</time></trkpt><trkpt lat="44.5839429" lon="7.9966561"><ele>336.0</ele><time>2026-04-06T14:15:38.215Z</time></trkpt><trkpt lat="44.5838575" lon="7.9965025"><ele>336.0</ele><time>2026-04-06T14:15:39.215Z</time></trkpt><trkpt lat="44.5837844" lon="7.9963344"><ele>336.0</ele><time>2026-04-06T14:15:40.215Z</time></trkpt><trkpt lat="44.5837028" lon="7.9961689"><ele>336.0</ele><time>2026-04-06T14:15:41.215Z</time></trkpt><trkpt lat="44.5836192" lon="7.9960151"><ele>336.0</ele><time>2026-04-06T14:15:42.215Z</time></trkpt><trkpt lat="44.5835346" lon="7.9958776"><ele>336.1666666666667</ele><time>2026-04-06T14:15:43.215Z</time></trkpt><trkpt lat="44.5834747" lon="7.995759"><ele>336.3333333333333</ele><time>2026-04-06T14:15:44.215Z</time></trkpt><trkpt lat="44.5834283" lon="7.9956787"><ele>336.5</ele><time>2026-04-06T14:15:45.215Z</time></trkpt><trkpt lat="44.5833714" lon="7.9955704"><ele>336.66666666666663</ele><time>2026-04-06T14:15:47.215Z</time></trkpt><trkpt lat="44.5832913" lon="7.9955428"><ele>336.8333333333333</ele><time>2026-04-06T14:15:50.215Z</time></trkpt><trkpt lat="44.5832694" lon="7.9956288"><ele>337.0</ele><time>2026-04-06T14:15:51.216Z</time></trkpt><trkpt lat="44.5832704" lon="7.9958141"><ele>337.40000000000003</ele><time>2026-04-06T14:15:53.215Z</time></trkpt><trkpt lat="44.5832783" lon="7.995934"><ele>337.8</ele><time>2026-04-06T14:15:54.215Z</time></trkpt><trkpt lat="44.5832764" lon="7.9960616"><ele>338.2</ele><time>2026-04-06T14:15:55.215Z</time></trkpt><trkpt lat="44.5832725" lon="7.9962105"><ele>338.6</ele><time>2026-04-06T14:15:56.215Z</time></trkpt><trkpt lat="44.5832744" lon="7.9963541"><ele>339.0</ele><time>2026-04-06T14:15:57.215Z</time></trkpt><trkpt lat="44.5832627" lon="7.9964874"><ele>339.0</ele><time>2026-04-06T14:15:58.215Z</time></trkpt><trkpt lat="44.5832326" lon="7.9966137"><ele>339.0</ele><time>2026-04-06T14:15:59.215Z</time></trkpt><trkpt lat="44.5831997" lon="7.9967136"><ele>339.0</ele><time>2026-04-06T14:16:00.215Z</time></trkpt><trkpt lat="44.5831783" lon="7.9968169"><ele>339.0</ele><time>2026-04-06T14:16:01.215Z</time></trkpt><trkpt lat="44.5831626" lon="7.9969222"><ele>339.0</ele><time>2026-04-06T14:16:02.215Z</time></trkpt><trkpt lat="44.5831599" lon="7.997048"><ele>339.0</ele><time>2026-04-06T14:16:03.215Z</time></trkpt><trkpt lat="44.5831575" lon="7.9971727"><ele>339.8333333333333</ele><time>2026-04-06T14:16:04.215Z</time></trkpt><trkpt lat="44.5831546" lon="7.9972897"><ele>340.6666666666667</ele><time>2026-04-06T14:16:05.215Z</time></trkpt><trkpt lat="44.5831456" lon="7.9974045"><ele>341.5</ele><time>2026-04-06T14:16:06.215Z</time></trkpt><trkpt lat="44.5831343" lon="7.9975214"><ele>342.33333333333337</ele><time>2026-04-06T14:16:07.215Z</time></trkpt><trkpt lat="44.5831151" lon="7.9976127"><ele>343.1666666666667</ele><time>2026-04-06T14:16:08.215Z</time></trkpt><trkpt lat="44.5830849" lon="7.9977003"><ele>344.0</ele><time>2026-04-06T14:16:09.215Z</time></trkpt><trkpt lat="44.5830533" lon="7.9977896"><ele>345.33333333333337</ele><time>2026-04-06T14:16:10.215Z</time></trkpt><trkpt lat="44.5830176" lon="7.9978657"><ele>346.6666666666667</ele><time>2026-04-06T14:16:11.215Z</time></trkpt><trkpt lat="44.5829095" lon="7.9979111"><ele>348.0</ele><time>2026-04-06T14:16:13.215Z</time></trkpt><trkpt lat="44.5828402" lon="7.997923"><ele>349.3333333333333</ele><time>2026-04-06T14:16:14.215Z</time></trkpt><trkpt lat="44.5827706" lon="7.9979343"><ele>350.66666666666663</ele><time>2026-04-06T14:16:15.215Z</time></trkpt><trkpt lat="44.582693" lon="7.9979507"><ele>352.0</ele><time>2026-04-06T14:16:16.215Z</time></trkpt><trkpt lat="44.5825974" lon="7.9979792"><ele>354.16666666666663</ele><time>2026-04-06T14:16:17.215Z</time></trkpt><trkpt lat="44.5824926" lon="7.9980035"><ele>356.3333333333333</ele><time>2026-04-06T14:16:18.215Z</time></trkpt><trkpt lat="44.5824043" lon="7.9980346"><ele>358.5</ele><time>2026-04-06T14:16:19.215Z</time></trkpt><trkpt lat="44.582323" lon="7.9980633"><ele>360.6666666666667</ele><time>2026-04-06T14:16:20.215Z</time></trkpt><trkpt lat="44.5822472" lon="7.998093"><ele>362.83333333333337</ele><time>2026-04-06T14:16:21.215Z</time></trkpt><trkpt lat="44.582175" lon="7.9981237"><ele>365.0</ele><time>2026-04-06T14:16:22.215Z</time></trkpt><trkpt lat="44.582101" lon="7.9981316"><ele>365.0</ele><time>2026-04-06T14:16:23.215Z</time></trkpt><trkpt lat="44.5820261" lon="7.99813"><ele>365.0</ele><time>2026-04-06T14:16:24.215Z</time></trkpt><trkpt lat="44.5819421" lon="7.9981127"><ele>365.0</ele><time>2026-04-06T14:16:25.215Z</time></trkpt><trkpt lat="44.5818525" lon="7.9981094"><ele>365.0</ele><time>2026-04-06T14:16:26.215Z</time></trkpt><trkpt lat="44.5817674" lon="7.9981208"><ele>365.0</ele><time>2026-04-06T14:16:27.215Z</time></trkpt><trkpt lat="44.5816818" lon="7.9981571"><ele>365.0</ele><time>2026-04-06T14:16:28.215Z</time></trkpt><trkpt lat="44.5815938" lon="7.9982024"><ele>368.33333333333337</ele><time>2026-04-06T14:16:29.215Z</time></trkpt><trkpt lat="44.5815308" lon="7.9982375"><ele>371.6666666666667</ele><time>2026-04-06T14:16:30.215Z</time></trkpt><trkpt lat="44.58147" lon="7.9982689"><ele>375.0</ele><time>2026-04-06T14:16:31.215Z</time></trkpt><trkpt lat="44.581393" lon="7.9983086"><ele>378.33333333333337</ele><time>2026-04-06T14:16:32.215Z</time></trkpt><trkpt lat="44.5812892" lon="7.9983507"><ele>381.6666666666667</ele><time>2026-04-06T14:16:33.215Z</time></trkpt><trkpt lat="44.5811835" lon="7.9983993"><ele>385.0</ele><time>2026-04-06T14:16:34.215Z</time></trkpt><trkpt lat="44.581073" lon="7.9984448"><ele>388.4</ele><time>2026-04-06T14:16:35.215Z</time></trkpt><trkpt lat="44.5809575" lon="7.9985003"><ele>391.8</ele><time>2026-04-06T14:16:36.215Z</time></trkpt><trkpt lat="44.5808502" lon="7.9985457"><ele>395.20000000000005</ele><time>2026-04-06T14:16:37.215Z</time></trkpt><trkpt lat="44.5807598" lon="7.9985871"><ele>398.6</ele><time>2026-04-06T14:16:38.215Z</time></trkpt><trkpt lat="44.5806775" lon="7.9986241"><ele>402.0</ele><time>2026-04-06T14:16:39.215Z</time></trkpt><trkpt lat="44.5805999" lon="7.9986638"><ele>402.0</ele><time>2026-04-06T14:16:40.215Z</time></trkpt><trkpt lat="44.5805344" lon="7.9987245"><ele>402.0</ele><time>2026-04-06T14:16:41.215Z</time></trkpt><trkpt lat="44.580479" lon="7.9988059"><ele>402.0</ele><time>2026-04-06T14:16:42.215Z</time></trkpt><trkpt lat="44.5804363" lon="7.9988934"><ele>402.0</ele><time>2026-04-06T14:16:43.215Z</time></trkpt><trkpt lat="44.5803923" lon="7.9989893"><ele>402.0</ele><time>2026-04-06T14:16:44.215Z</time></trkpt><trkpt lat="44.5803172" lon="7.9990588"><ele>402.0</ele><time>2026-04-06T14:16:45.215Z</time></trkpt><trkpt lat="44.58022" lon="7.999137"><ele>408.0</ele><time>2026-04-06T14:16:46.215Z</time></trkpt><trkpt lat="44.5801096" lon="7.9992197"><ele>414.0</ele><time>2026-04-06T14:16:47.215Z</time></trkpt><trkpt lat="44.5800029" lon="7.9993015"><ele>420.0</ele><time>2026-04-06T14:16:48.215Z</time></trkpt><trkpt lat="44.5798998" lon="7.9993873"><ele>426.0</ele><time>2026-04-06T14:16:49.215Z</time></trkpt><trkpt lat="44.5798014" lon="7.9994642"><ele>426.0</ele><time>2026-04-06T14:16:50.215Z</time></trkpt><trkpt lat="44.5796936" lon="7.9995345"><ele>426.0</ele><time>2026-04-06T14:16:51.215Z</time></trkpt><trkpt lat="44.5795953" lon="7.999589"><ele>426.0</ele><time>2026-04-06T14:16:52.215Z</time></trkpt><trkpt lat="44.5795183" lon="7.9996461"><ele>426.0</ele><time>2026-04-06T14:16:53.215Z</time></trkpt><trkpt lat="44.5794344" lon="7.9996989"><ele>426.0</ele><time>2026-04-06T14:16:54.215Z</time></trkpt><trkpt lat="44.5793472" lon="7.999743"><ele>426.6666666666667</ele><time>2026-04-06T14:16:55.215Z</time></trkpt><trkpt lat="44.5792676" lon="7.9997827"><ele>427.33333333333337</ele><time>2026-04-06T14:16:56.215Z</time></trkpt><trkpt lat="44.5792017" lon="7.9998098"><ele>428.0</ele><time>2026-04-06T14:16:57.215Z</time></trkpt><trkpt lat="44.5791032" lon="7.9998519"><ele>428.6666666666667</ele><time>2026-04-06T14:16:59.215Z</time></trkpt><trkpt lat="44.5789817" lon="7.999843"><ele>429.33333333333337</ele><time>2026-04-06T14:17:01.215Z</time></trkpt><trkpt lat="44.5789106" lon="7.9998365"><ele>430.0</ele><time>2026-04-06T14:17:02.215Z</time></trkpt><trkpt lat="44.5788359" lon="7.9998079"><ele>430.0</ele><time>2026-04-06T14:17:03.215Z</time></trkpt><trkpt lat="44.5787281" lon="7.999792"><ele>430.0</ele><time>2026-04-06T14:17:05.215Z</time></trkpt><trkpt lat="44.578661" lon="7.9997891"><ele>430.0</ele><time>2026-04-06T14:17:08.215Z</time></trkpt><trkpt lat="44.5787474" lon="7.9996466"><ele>430.0</ele><time>2026-04-06T14:26:37.214Z</time></trkpt><trkpt lat="44.5787756" lon="7.9995217"><ele>430.0</ele><time>2026-04-06T14:26:48.214Z</time></trkpt><trkpt lat="44.5788167" lon="7.9994275"><ele>430.00000000000006</ele><time>2026-04-06T14:26:49.214Z</time></trkpt><trkpt lat="44.5788694" lon="7.9993376"><ele>430.0</ele><time>2026-04-06T14:26:50.214Z</time></trkpt><trkpt lat="44.57892" lon="7.9992721"><ele>430.0</ele><time>2026-04-06T14:26:51.214Z</time></trkpt><trkpt lat="44.579001" lon="7.9991964"><ele>430.0</ele><time>2026-04-06T14:26:53.214Z</time></trkpt><trkpt lat="44.5790725" lon="7.9991065"><ele>430.00000000000006</ele><time>2026-04-06T14:26:56.214Z</time></trkpt><trkpt lat="44.579109" lon="7.9990183"><ele>430.0</ele><time>2026-04-06T14:26:58.214Z</time></trkpt><trkpt lat="44.5790819" lon="7.9989236"><ele>428.83333333333337</ele><time>2026-04-06T14:27:00.214Z</time></trkpt><trkpt lat="44.5790161" lon="7.9988421"><ele>427.6666666666667</ele><time>2026-04-06T14:27:02.214Z</time></trkpt><trkpt lat="44.5788951" lon="7.9987549"><ele>426.5</ele><time>2026-04-06T14:27:04.214Z</time></trkpt><trkpt lat="44.5788179" lon="7.9987128"><ele>425.33333333333337</ele><time>2026-04-06T14:27:05.214Z</time></trkpt><trkpt lat="44.5787491" lon="7.998681"><ele>424.1666666666667</ele><time>2026-04-06T14:27:06.214Z</time></trkpt><trkpt lat="44.5786851" lon="7.9986509"><ele>423.0</ele><time>2026-04-06T14:27:07.214Z</time></trkpt><trkpt lat="44.57862" lon="7.9986256"><ele>425.1666666666667</ele><time>2026-04-06T14:27:08.214Z</time></trkpt><trkpt lat="44.5785594" lon="7.9985961"><ele>427.33333333333337</ele><time>2026-04-06T14:27:09.215Z</time></trkpt><trkpt lat="44.578494" lon="7.9985774"><ele>429.5</ele><time>2026-04-06T14:27:10.214Z</time></trkpt><trkpt lat="44.5783859" lon="7.9985552"><ele>431.6666666666667</ele><time>2026-04-06T14:27:12.214Z</time></trkpt><trkpt lat="44.5782948" lon="7.9985426"><ele>433.83333333333337</ele><time>2026-04-06T14:27:14.214Z</time></trkpt><trkpt lat="44.5782627" lon="7.9984072"><ele>436.0</ele><time>2026-04-06T14:27:16.214Z</time></trkpt><trkpt lat="44.5782984" lon="7.9983282"><ele>436.00000000000006</ele><time>2026-04-06T14:27:17.214Z</time></trkpt><trkpt lat="44.5783442" lon="7.9982552"><ele>436.0</ele><time>2026-04-06T14:27:18.214Z</time></trkpt><trkpt lat="44.5783928" lon="7.9981617"><ele>436.0</ele><time>2026-04-06T14:27:19.214Z</time></trkpt><trkpt lat="44.5784399" lon="7.9980595"><ele>436.0</ele><time>2026-04-06T14:27:20.214Z</time></trkpt><trkpt lat="44.5784849" lon="7.9979446"><ele>436.00000000000006</ele><time>2026-04-06T14:27:21.214Z</time></trkpt><trkpt lat="44.5785317" lon="7.9978344"><ele>436.0</ele><time>2026-04-06T14:27:22.214Z</time></trkpt><trkpt lat="44.5785833" lon="7.9977452"><ele>436.00000000000006</ele><time>2026-04-06T14:27:23.214Z</time></trkpt><trkpt lat="44.5786362" lon="7.9976548"><ele>436.0</ele><time>2026-04-06T14:27:24.214Z</time></trkpt><trkpt lat="44.5786742" lon="7.997576"><ele>436.0</ele><time>2026-04-06T14:27:25.214Z</time></trkpt><trkpt lat="44.5786939" lon="7.9974638"><ele>436.0</ele><time>2026-04-06T14:27:27.214Z</time></trkpt><trkpt lat="44.5786843" lon="7.9973007"><ele>436.00000000000006</ele><time>2026-04-06T14:27:29.214Z</time></trkpt><trkpt lat="44.5786543" lon="7.9971975"><ele>436.0</ele><time>2026-04-06T14:27:31.214Z</time></trkpt><trkpt lat="44.5785819" lon="7.9972459"><ele>436.00000000000006</ele><time>2026-04-06T14:27:33.214Z</time></trkpt><trkpt lat="44.5785045" lon="7.9973128"><ele>436.0</ele><time>2026-04-06T14:27:35.214Z</time></trkpt><trkpt lat="44.5784009" lon="7.9973773"><ele>436.0</ele><time>2026-04-06T14:27:37.215Z</time></trkpt><trkpt lat="44.5783406" lon="7.9974136"><ele>436.0</ele><time>2026-04-06T14:27:38.214Z</time></trkpt><trkpt lat="44.5782845" lon="7.9974596"><ele>436.00000000000006</ele><time>2026-04-06T14:27:39.214Z</time></trkpt><trkpt lat="44.578217" lon="7.9975113"><ele>436.0</ele><time>2026-04-06T14:27:40.214Z</time></trkpt><trkpt lat="44.5781474" lon="7.9975597"><ele>436.00000000000006</ele><time>2026-04-06T14:27:41.214Z</time></trkpt><trkpt lat="44.5780798" lon="7.9976127"><ele>436.0</ele><time>2026-04-06T14:27:42.214Z</time></trkpt><trkpt lat="44.5780121" lon="7.9976688"><ele>436.0</ele><time>2026-04-06T14:27:43.214Z</time></trkpt><trkpt lat="44.5779404" lon="7.9977241"><ele>436.0</ele><time>2026-04-06T14:27:44.214Z</time></trkpt><trkpt lat="44.5778674" lon="7.9977751"><ele>436.00000000000006</ele><time>2026-04-06T14:27:45.214Z</time></trkpt><trkpt lat="44.5777956" lon="7.9978187"><ele>436.0</ele><time>2026-04-06T14:27:46.214Z</time></trkpt><trkpt lat="44.5777161" lon="7.9978584"><ele>439.33333333333337</ele><time>2026-04-06T14:27:47.214Z</time></trkpt><trkpt lat="44.5776323" lon="7.9978766"><ele>442.6666666666667</ele><time>2026-04-06T14:27:48.214Z</time></trkpt><trkpt lat="44.5775542" lon="7.9978956"><ele>446.0</ele><time>2026-04-06T14:27:49.214Z</time></trkpt><trkpt lat="44.5774744" lon="7.9979355"><ele>449.33333333333337</ele><time>2026-04-06T14:27:50.215Z</time></trkpt><trkpt lat="44.5773922" lon="7.9979892"><ele>452.6666666666667</ele><time>2026-04-06T14:27:51.214Z</time></trkpt><trkpt lat="44.5773242" lon="7.9980654"><ele>456.0</ele><time>2026-04-06T14:27:52.214Z</time></trkpt><trkpt lat="44.577264" lon="7.9981522"><ele>456.0</ele><time>2026-04-06T14:27:53.214Z</time></trkpt><trkpt lat="44.5772055" lon="7.9982275"><ele>456.0</ele><time>2026-04-06T14:27:54.214Z</time></trkpt><trkpt lat="44.5771365" lon="7.9983047"><ele>456.0</ele><time>2026-04-06T14:27:55.214Z</time></trkpt><trkpt lat="44.5770566" lon="7.9983788"><ele>456.0</ele><time>2026-04-06T14:27:56.214Z</time></trkpt><trkpt lat="44.576983" lon="7.9984572"><ele>456.0</ele><time>2026-04-06T14:27:57.214Z</time></trkpt><trkpt lat="44.5769146" lon="7.9985323"><ele>456.0</ele><time>2026-04-06T14:27:58.214Z</time></trkpt><trkpt lat="44.5768513" lon="7.998579"><ele>459.0</ele><time>2026-04-06T14:27:59.214Z</time></trkpt><trkpt lat="44.5767863" lon="7.9986122"><ele>462.0</ele><time>2026-04-06T14:28:00.214Z</time></trkpt><trkpt lat="44.5766799" lon="7.9986275"><ele>465.0</ele><time>2026-04-06T14:28:02.214Z</time></trkpt><trkpt lat="44.5766022" lon="7.9986496"><ele>468.0</ele><time>2026-04-06T14:28:04.214Z</time></trkpt><trkpt lat="44.5764991" lon="7.9987282"><ele>471.0</ele><time>2026-04-06T14:28:06.214Z</time></trkpt><trkpt lat="44.5764296" lon="7.9987592"><ele>474.0</ele><time>2026-04-06T14:28:07.214Z</time></trkpt><trkpt lat="44.5763676" lon="7.9987863"><ele>474.0</ele><time>2026-04-06T14:28:08.214Z</time></trkpt><trkpt lat="44.5763062" lon="7.9988192"><ele>474.0</ele><time>2026-04-06T14:28:09.214Z</time></trkpt><trkpt lat="44.576238" lon="7.9988567"><ele>474.0</ele><time>2026-04-06T14:28:10.214Z</time></trkpt><trkpt lat="44.57618" lon="7.9989302"><ele>474.0</ele><time>2026-04-06T14:28:11.214Z</time></trkpt><trkpt lat="44.5761302" lon="7.9990283"><ele>474.0</ele><time>2026-04-06T14:28:12.214Z</time></trkpt><trkpt lat="44.5760728" lon="7.9991201"><ele>474.0</ele><time>2026-04-06T14:28:13.214Z</time></trkpt><trkpt lat="44.5760068" lon="7.9992341"><ele>478.0</ele><time>2026-04-06T14:28:14.214Z</time></trkpt><trkpt lat="44.5759386" lon="7.9993406"><ele>482.0</ele><time>2026-04-06T14:28:15.214Z</time></trkpt><trkpt lat="44.5758675" lon="7.999443"><ele>486.0</ele><time>2026-04-06T14:28:16.214Z</time></trkpt><trkpt lat="44.5757951" lon="7.9995412"><ele>490.0</ele><time>2026-04-06T14:28:17.214Z</time></trkpt><trkpt lat="44.5757248" lon="7.9996252"><ele>494.0</ele><time>2026-04-06T14:28:18.214Z</time></trkpt><trkpt lat="44.5756436" lon="7.999657"><ele>494.0</ele><time>2026-04-06T14:28:19.214Z</time></trkpt><trkpt lat="44.5755529" lon="7.9996673"><ele>494.0</ele><time>2026-04-06T14:28:20.214Z</time></trkpt><trkpt lat="44.5754771" lon="7.9996396"><ele>494.0</ele><time>2026-04-06T14:28:21.214Z</time></trkpt><trkpt lat="44.5754125" lon="7.9996006"><ele>494.0</ele><time>2026-04-06T14:28:22.214Z</time></trkpt><trkpt lat="44.5753175" lon="7.9995277"><ele>494.0</ele><time>2026-04-06T14:28:24.214Z</time></trkpt><trkpt lat="44.5752023" lon="7.9994391"><ele>496.75</ele><time>2026-04-06T14:28:26.214Z</time></trkpt><trkpt lat="44.5751217" lon="7.9993594"><ele>499.5</ele><time>2026-04-06T14:28:27.214Z</time></trkpt><trkpt lat="44.5750202" lon="7.9992612"><ele>502.25</ele><time>2026-04-06T14:28:28.214Z</time></trkpt><trkpt lat="44.5749138" lon="7.999149"><ele>505.0</ele><time>2026-04-06T14:28:29.214Z</time></trkpt><trkpt lat="44.5748" lon="7.9990209"><ele>505.0</ele><time>2026-04-06T14:28:30.214Z</time></trkpt><trkpt lat="44.5746816" lon="7.9988863"><ele>505.0</ele><time>2026-04-06T14:28:31.214Z</time></trkpt><trkpt lat="44.574568" lon="7.9987713"><ele>505.0</ele><time>2026-04-06T14:28:32.214Z</time></trkpt><trkpt lat="44.5744749" lon="7.9986741"><ele>505.0</ele><time>2026-04-06T14:28:33.214Z</time></trkpt><trkpt lat="44.574407" lon="7.9986023"><ele>506.75</ele><time>2026-04-06T14:28:34.214Z</time></trkpt><trkpt lat="44.574316" lon="7.9985079"><ele>508.5</ele><time>2026-04-06T14:28:36.214Z</time></trkpt><trkpt lat="44.5742439" lon="7.9985717"><ele>510.25</ele><time>2026-04-06T14:28:38.214Z</time></trkpt><trkpt lat="44.5742819" lon="7.9987188"><ele>512.0</ele><time>2026-04-06T14:28:40.215Z</time></trkpt><trkpt lat="44.5744194" lon="7.9990343"><ele>511.99999999999994</ele><time>2026-04-06T14:28:43.214Z</time></trkpt><trkpt lat="44.5744516" lon="7.9991379"><ele>512.0</ele><time>2026-04-06T14:28:44.214Z</time></trkpt><trkpt lat="44.5744494" lon="7.9992337"><ele>512.0</ele><time>2026-04-06T14:28:45.214Z</time></trkpt><trkpt lat="44.5744155" lon="7.9993084"><ele>512.0</ele><time>2026-04-06T14:28:46.214Z</time></trkpt><trkpt lat="44.5743574" lon="7.9993574"><ele>511.99999999999994</ele><time>2026-04-06T14:28:47.214Z</time></trkpt><trkpt lat="44.5742772" lon="7.9994042"><ele>512.0</ele><time>2026-04-06T14:28:48.214Z</time></trkpt><trkpt lat="44.5742012" lon="7.9994783"><ele>511.3333333333333</ele><time>2026-04-06T14:28:49.214Z</time></trkpt><trkpt lat="44.5741316" lon="7.9995291"><ele>510.66666666666663</ele><time>2026-04-06T14:28:50.214Z</time></trkpt><trkpt lat="44.5740642" lon="7.9995752"><ele>510.0</ele><time>2026-04-06T14:28:51.214Z</time></trkpt><trkpt lat="44.5739666" lon="7.9996283"><ele>509.33333333333337</ele><time>2026-04-06T14:28:53.214Z</time></trkpt><trkpt lat="44.5739222" lon="7.999691"><ele>508.6666666666667</ele><time>2026-04-06T14:28:56.214Z</time></trkpt><trkpt lat="44.5739889" lon="7.9996176"><ele>508.0</ele><time>2026-04-06T14:29:05.214Z</time></trkpt><trkpt lat="44.5740785" lon="7.9995561"><ele>508.0</ele><time>2026-04-06T14:29:07.214Z</time></trkpt><trkpt lat="44.5742205" lon="7.99947"><ele>507.99999999999994</ele><time>2026-04-06T14:29:10.214Z</time></trkpt><trkpt lat="44.5743161" lon="7.9994131"><ele>507.99999999999994</ele><time>2026-04-06T14:29:12.214Z</time></trkpt><trkpt lat="44.574396" lon="7.999344"><ele>508.0</ele><time>2026-04-06T14:29:14.214Z</time></trkpt><trkpt lat="44.5744621" lon="7.9992714"><ele>508.0</ele><time>2026-04-06T14:29:16.214Z</time></trkpt><trkpt lat="44.5745192" lon="7.9992317"><ele>508.4</ele><time>2026-04-06T14:29:18.214Z</time></trkpt><trkpt lat="44.5745848" lon="7.9992678"><ele>508.79999999999995</ele><time>2026-04-06T14:29:20.214Z</time></trkpt><trkpt lat="44.5746828" lon="7.9994632"><ele>509.2</ele><time>2026-04-06T14:29:23.214Z</time></trkpt><trkpt lat="44.5746962" lon="7.999601"><ele>509.6</ele><time>2026-04-06T14:29:25.214Z</time></trkpt><trkpt lat="44.5746932" lon="7.9997487"><ele>510.0</ele><time>2026-04-06T14:29:27.214Z</time></trkpt><trkpt lat="44.5746905" lon="7.9999285"><ele>510.0</ele><time>2026-04-06T14:29:29.214Z</time></trkpt><trkpt lat="44.5746861" lon="8.0000297"><ele>510.0</ele><time>2026-04-06T14:29:30.214Z</time></trkpt><trkpt lat="44.5746796" lon="8.0001545"><ele>510.0</ele><time>2026-04-06T14:29:31.214Z</time></trkpt><trkpt lat="44.5746725" lon="8.0002776"><ele>510.0</ele><time>2026-04-06T14:29:32.214Z</time></trkpt><trkpt lat="44.5746711" lon="8.0003999"><ele>510.0</ele><time>2026-04-06T14:29:33.214Z</time></trkpt><trkpt lat="44.5746747" lon="8.0005303"><ele>510.0</ele><time>2026-04-06T14:29:34.214Z</time></trkpt><trkpt lat="44.574673" lon="8.0006539"><ele>510.0</ele><time>2026-04-06T14:29:35.214Z</time></trkpt><trkpt lat="44.5746755" lon="8.0007816"><ele>510.0</ele><time>2026-04-06T14:29:36.214Z</time></trkpt><trkpt lat="44.5746748" lon="8.0009119"><ele>510.0</ele><time>2026-04-06T14:29:37.214Z</time></trkpt><trkpt lat="44.5746699" lon="8.0010381"><ele>510.0</ele><time>2026-04-06T14:29:38.214Z</time></trkpt><trkpt lat="44.574666" lon="8.0011667"><ele>510.0</ele><time>2026-04-06T14:29:39.214Z</time></trkpt><trkpt lat="44.5746629" lon="8.0012944"><ele>509.5</ele><time>2026-04-06T14:29:40.214Z</time></trkpt><trkpt lat="44.5746566" lon="8.0014155"><ele>509.0</ele><time>2026-04-06T14:29:41.214Z</time></trkpt><trkpt lat="44.5746501" lon="8.0015322"><ele>508.5</ele><time>2026-04-06T14:29:42.214Z</time></trkpt><trkpt lat="44.5746463" lon="8.0016513"><ele>508.0</ele><time>2026-04-06T14:29:43.214Z</time></trkpt><trkpt lat="44.5746481" lon="8.0017657"><ele>507.5</ele><time>2026-04-06T14:29:44.214Z</time></trkpt><trkpt lat="44.5746586" lon="8.0018771"><ele>507.0</ele><time>2026-04-06T14:29:45.214Z</time></trkpt><trkpt lat="44.5746727" lon="8.0019906"><ele>506.3333333333333</ele><time>2026-04-06T14:29:46.214Z</time></trkpt><trkpt lat="44.5746928" lon="8.0020936"><ele>505.66666666666663</ele><time>2026-04-06T14:29:47.214Z</time></trkpt><trkpt lat="44.5747319" lon="8.0021841"><ele>505.0</ele><time>2026-04-06T14:29:48.215Z</time></trkpt><trkpt lat="44.5747845" lon="8.0022681"><ele>504.3333333333333</ele><time>2026-04-06T14:29:49.214Z</time></trkpt><trkpt lat="44.5748492" lon="8.0023537"><ele>503.66666666666663</ele><time>2026-04-06T14:29:50.214Z</time></trkpt><trkpt lat="44.5749204" lon="8.0024475"><ele>503.0</ele><time>2026-04-06T14:29:51.214Z</time></trkpt><trkpt lat="44.5750018" lon="8.0025438"><ele>503.79999999999995</ele><time>2026-04-06T14:29:52.214Z</time></trkpt><trkpt lat="44.575087" lon="8.0026389"><ele>504.59999999999997</ele><time>2026-04-06T14:29:53.214Z</time></trkpt><trkpt lat="44.5751777" lon="8.0027407"><ele>505.40000000000003</ele><time>2026-04-06T14:29:54.214Z</time></trkpt><trkpt lat="44.575273" lon="8.0028329"><ele>506.20000000000005</ele><time>2026-04-06T14:29:55.214Z</time></trkpt><trkpt lat="44.5753654" lon="8.0029128"><ele>507.0</ele><time>2026-04-06T14:29:56.214Z</time></trkpt><trkpt lat="44.5754442" lon="8.0029905"><ele>507.0</ele><time>2026-04-06T14:29:57.215Z</time></trkpt><trkpt lat="44.5755159" lon="8.0030744"><ele>507.0</ele><time>2026-04-06T14:29:58.214Z</time></trkpt><trkpt lat="44.5755805" lon="8.0031637"><ele>507.0</ele><time>2026-04-06T14:29:59.214Z</time></trkpt><trkpt lat="44.5756341" lon="8.0032504"><ele>507.0</ele><time>2026-04-06T14:30:00.214Z</time></trkpt><trkpt lat="44.5756707" lon="8.0033503"><ele>507.0</ele><time>2026-04-06T14:30:01.214Z</time></trkpt><trkpt lat="44.5756913" lon="8.0034648"><ele>507.0</ele><time>2026-04-06T14:30:02.214Z</time></trkpt><trkpt lat="44.5756848" lon="8.0035971"><ele>505.40000000000003</ele><time>2026-04-06T14:30:03.214Z</time></trkpt><trkpt lat="44.5756451" lon="8.0037081"><ele>503.80000000000007</ele><time>2026-04-06T14:30:04.214Z</time></trkpt><trkpt lat="44.5755948" lon="8.0038036"><ele>502.2</ele><time>2026-04-06T14:30:05.214Z</time></trkpt><trkpt lat="44.575539" lon="8.0039532"><ele>500.6</ele><time>2026-04-06T14:30:06.214Z</time></trkpt><trkpt lat="44.5755131" lon="8.0041326"><ele>499.0</ele><time>2026-04-06T14:30:07.214Z</time></trkpt><trkpt lat="44.5754907" lon="8.0042999"><ele>498.4</ele><time>2026-04-06T14:30:08.214Z</time></trkpt><trkpt lat="44.5754722" lon="8.0044451"><ele>497.79999999999995</ele><time>2026-04-06T14:30:09.214Z</time></trkpt><trkpt lat="44.5754597" lon="8.0045877"><ele>497.20000000000005</ele><time>2026-04-06T14:30:10.215Z</time></trkpt><trkpt lat="44.5754663" lon="8.0047353"><ele>496.6</ele><time>2026-04-06T14:30:11.214Z</time></trkpt><trkpt lat="44.5754809" lon="8.004885"><ele>496.0</ele><time>2026-04-06T14:30:12.214Z</time></trkpt><trkpt lat="44.5755141" lon="8.0050294"><ele>496.0</ele><time>2026-04-06T14:30:13.214Z</time></trkpt><trkpt lat="44.5755489" lon="8.0051758"><ele>496.0</ele><time>2026-04-06T14:30:14.215Z</time></trkpt><trkpt lat="44.5755855" lon="8.0053212"><ele>496.0</ele><time>2026-04-06T14:30:15.214Z</time></trkpt><trkpt lat="44.5756239" lon="8.0054761"><ele>496.0</ele><time>2026-04-06T14:30:16.214Z</time></trkpt><trkpt lat="44.5756583" lon="8.0056203"><ele>496.0</ele><time>2026-04-06T14:30:17.214Z</time></trkpt><trkpt lat="44.5756908" lon="8.005763"><ele>497.6</ele><time>2026-04-06T14:30:18.214Z</time></trkpt><trkpt lat="44.5757207" lon="8.0059079"><ele>499.20000000000005</ele><time>2026-04-06T14:30:19.214Z</time></trkpt><trkpt lat="44.575749" lon="8.006047"><ele>500.79999999999995</ele><time>2026-04-06T14:30:20.214Z</time></trkpt><trkpt lat="44.5757796" lon="8.0061731"><ele>502.4</ele><time>2026-04-06T14:30:21.214Z</time></trkpt><trkpt lat="44.5758128" lon="8.0063"><ele>504.0</ele><time>2026-04-06T14:30:22.214Z</time></trkpt><trkpt lat="44.5758453" lon="8.0064196"><ele>504.0</ele><time>2026-04-06T14:30:23.214Z</time></trkpt><trkpt lat="44.5758781" lon="8.0065224"><ele>504.0</ele><time>2026-04-06T14:30:24.214Z</time></trkpt><trkpt lat="44.5759008" lon="8.0066076"><ele>504.0</ele><time>2026-04-06T14:30:25.214Z</time></trkpt><trkpt lat="44.5759083" lon="8.0067045"><ele>504.0</ele><time>2026-04-06T14:30:26.214Z</time></trkpt><trkpt lat="44.5758977" lon="8.006807"><ele>504.0</ele><time>2026-04-06T14:30:27.214Z</time></trkpt><trkpt lat="44.5758769" lon="8.0069153"><ele>504.0</ele><time>2026-04-06T14:30:28.214Z</time></trkpt><trkpt lat="44.5758588" lon="8.0070452"><ele>505.6</ele><time>2026-04-06T14:30:29.214Z</time></trkpt><trkpt lat="44.5758469" lon="8.0071884"><ele>507.2</ele><time>2026-04-06T14:30:30.214Z</time></trkpt><trkpt lat="44.5758381" lon="8.0073374"><ele>508.80000000000007</ele><time>2026-04-06T14:30:31.214Z</time></trkpt><trkpt lat="44.5758339" lon="8.0074959"><ele>510.40000000000003</ele><time>2026-04-06T14:30:32.214Z</time></trkpt><trkpt lat="44.5758285" lon="8.007663"><ele>512.0</ele><time>2026-04-06T14:30:33.214Z</time></trkpt><trkpt lat="44.5758267" lon="8.0078336"><ele>514.5</ele><time>2026-04-06T14:30:34.214Z</time></trkpt><trkpt lat="44.575834" lon="8.0080037"><ele>517.0</ele><time>2026-04-06T14:30:35.214Z</time></trkpt><trkpt lat="44.5758429" lon="8.0081708"><ele>519.5</ele><time>2026-04-06T14:30:36.214Z</time></trkpt><trkpt lat="44.5758463" lon="8.0083272"><ele>522.0</ele><time>2026-04-06T14:30:37.214Z</time></trkpt><trkpt lat="44.5758447" lon="8.008465"><ele>524.0</ele><time>2026-04-06T14:30:38.214Z</time></trkpt><trkpt lat="44.57585" lon="8.0085887"><ele>526.0</ele><time>2026-04-06T14:30:39.214Z</time></trkpt><trkpt lat="44.5758659" lon="8.0087262"><ele>528.0</ele><time>2026-04-06T14:30:40.214Z</time></trkpt><trkpt lat="44.5758809" lon="8.0088684"><ele>530.0</ele><time>2026-04-06T14:30:41.214Z</time></trkpt><trkpt lat="44.5758936" lon="8.0090164"><ele>532.0</ele><time>2026-04-06T14:30:42.214Z</time></trkpt><trkpt lat="44.5759036" lon="8.0091577"><ele>533.3333333333334</ele><time>2026-04-06T14:30:43.214Z</time></trkpt><trkpt lat="44.5759114" lon="8.0092808"><ele>534.6666666666667</ele><time>2026-04-06T14:30:44.214Z</time></trkpt><trkpt lat="44.5759215" lon="8.0093975"><ele>536.0</ele><time>2026-04-06T14:30:45.214Z</time></trkpt><trkpt lat="44.5759271" lon="8.0095043"><ele>537.3333333333334</ele><time>2026-04-06T14:30:46.214Z</time></trkpt><trkpt lat="44.5759275" lon="8.0095957"><ele>538.6666666666666</ele><time>2026-04-06T14:30:47.214Z</time></trkpt><trkpt lat="44.5759217" lon="8.0096851"><ele>540.0</ele><time>2026-04-06T14:30:48.214Z</time></trkpt><trkpt lat="44.5758611" lon="8.0098239"><ele>540.0</ele><time>2026-04-06T14:30:50.214Z</time></trkpt><trkpt lat="44.5757357" lon="8.0098819"><ele>540.0</ele><time>2026-04-06T14:30:52.214Z</time></trkpt><trkpt lat="44.5756512" lon="8.0099068"><ele>540.0</ele><time>2026-04-06T14:30:53.214Z</time></trkpt><trkpt lat="44.5755486" lon="8.0099356"><ele>540.0</ele><time>2026-04-06T14:30:54.214Z</time></trkpt><trkpt lat="44.5754279" lon="8.0099708"><ele>540.0</ele><time>2026-04-06T14:30:55.214Z</time></trkpt><trkpt lat="44.575309" lon="8.0100161"><ele>540.8</ele><time>2026-04-06T14:30:56.214Z</time></trkpt><trkpt lat="44.5752032" lon="8.0100454"><ele>541.6</ele><time>2026-04-06T14:30:57.214Z</time></trkpt><trkpt lat="44.5751098" lon="8.0100738"><ele>542.4</ele><time>2026-04-06T14:30:58.214Z</time></trkpt><trkpt lat="44.5750181" lon="8.010103"><ele>543.2</ele><time>2026-04-06T14:30:59.214Z</time></trkpt><trkpt lat="44.5749296" lon="8.0101383"><ele>544.0</ele><time>2026-04-06T14:31:00.214Z</time></trkpt><trkpt lat="44.5748529" lon="8.0101692"><ele>544.0</ele><time>2026-04-06T14:31:01.214Z</time></trkpt><trkpt lat="44.5747759" lon="8.0101988"><ele>544.0</ele><time>2026-04-06T14:31:02.214Z</time></trkpt><trkpt lat="44.5747071" lon="8.0102121"><ele>544.0</ele><time>2026-04-06T14:31:03.214Z</time></trkpt><trkpt lat="44.5746145" lon="8.0102241"><ele>544.0</ele><time>2026-04-06T14:31:05.214Z</time></trkpt><trkpt lat="44.5745444" lon="8.0102088"><ele>544.0</ele><time>2026-04-06T14:31:18.214Z</time></trkpt><trkpt lat="44.5744205" lon="8.0100907"><ele>544.3333333333334</ele><time>2026-04-06T14:31:21.215Z</time></trkpt><trkpt lat="44.5743615" lon="8.0100366"><ele>544.6666666666667</ele><time>2026-04-06T14:31:22.214Z</time></trkpt><trkpt lat="44.5742921" lon="8.0099992"><ele>545.0</ele><time>2026-04-06T14:31:23.214Z</time></trkpt><trkpt lat="44.5742175" lon="8.0099638"><ele>545.3333333333334</ele><time>2026-04-06T14:31:24.214Z</time></trkpt><trkpt lat="44.5741392" lon="8.0099224"><ele>545.6666666666666</ele><time>2026-04-06T14:31:25.214Z</time></trkpt><trkpt lat="44.5740666" lon="8.009895"><ele>546.0</ele><time>2026-04-06T14:31:26.214Z</time></trkpt><trkpt lat="44.5739592" lon="8.0099043"><ele>546.0</ele><time>2026-04-06T14:31:28.214Z</time></trkpt><trkpt lat="44.5738802" lon="8.0100265"><ele>546.0</ele><time>2026-04-06T14:31:30.214Z</time></trkpt><trkpt lat="44.5738464" lon="8.0101044"><ele>546.0</ele><time>2026-04-06T14:31:31.214Z</time></trkpt><trkpt lat="44.5738047" lon="8.0101868"><ele>546.0</ele><time>2026-04-06T14:31:32.214Z</time></trkpt><trkpt lat="44.5737536" lon="8.0102673"><ele>546.0</ele><time>2026-04-06T14:31:33.214Z</time></trkpt><trkpt lat="44.5737016" lon="8.0103437"><ele>546.0</ele><time>2026-04-06T14:31:34.214Z</time></trkpt><trkpt lat="44.5736537" lon="8.0104322"><ele>547.3333333333334</ele><time>2026-04-06T14:31:35.214Z</time></trkpt><trkpt lat="44.5736232" lon="8.0105291"><ele>548.6666666666666</ele><time>2026-04-06T14:31:36.214Z</time></trkpt><trkpt lat="44.5735932" lon="8.0106121"><ele>550.0</ele><time>2026-04-06T14:31:37.214Z</time></trkpt><trkpt lat="44.5735482" lon="8.0107529"><ele>551.3333333333333</ele><time>2026-04-06T14:31:39.214Z</time></trkpt><trkpt lat="44.5734855" lon="8.0107959"><ele>552.6666666666666</ele><time>2026-04-06T14:31:56.214Z</time></trkpt><trkpt lat="44.5734101" lon="8.0107232"><ele>554.0</ele><time>2026-04-06T14:31:59.215Z</time></trkpt><trkpt lat="44.5733257" lon="8.0105959"><ele>554.0</ele><time>2026-04-06T14:32:01.214Z</time></trkpt><trkpt lat="44.5732744" lon="8.0105089"><ele>554.0</ele><time>2026-04-06T14:32:02.214Z</time></trkpt><trkpt lat="44.5732007" lon="8.0104223"><ele>554.0</ele><time>2026-04-06T14:32:03.214Z</time></trkpt><trkpt lat="44.5731142" lon="8.0103264"><ele>554.0</ele><time>2026-04-06T14:32:04.214Z</time></trkpt><trkpt lat="44.5730128" lon="8.0102364"><ele>554.0</ele><time>2026-04-06T14:32:05.214Z</time></trkpt><trkpt lat="44.5729007" lon="8.0101464"><ele>555.25</ele><time>2026-04-06T14:32:06.214Z</time></trkpt><trkpt lat="44.5727821" lon="8.0100581"><ele>556.5</ele><time>2026-04-06T14:32:07.214Z</time></trkpt><trkpt lat="44.5726551" lon="8.0099788"><ele>557.75</ele><time>2026-04-06T14:32:08.214Z</time></trkpt><trkpt lat="44.5725187" lon="8.0098853"><ele>559.0</ele><time>2026-04-06T14:32:09.214Z</time></trkpt><trkpt lat="44.5723848" lon="8.0097727"><ele>557.6666666666667</ele><time>2026-04-06T14:32:10.214Z</time></trkpt><trkpt lat="44.5722483" lon="8.0096393"><ele>556.3333333333334</ele><time>2026-04-06T14:32:11.214Z</time></trkpt><trkpt lat="44.5721187" lon="8.0094954"><ele>555.0</ele><time>2026-04-06T14:32:12.214Z</time></trkpt><trkpt lat="44.5719996" lon="8.0093618"><ele>555.0</ele><time>2026-04-06T14:32:13.214Z</time></trkpt><trkpt lat="44.5718881" lon="8.009238"><ele>555.0</ele><time>2026-04-06T14:32:14.214Z</time></trkpt><trkpt lat="44.5717807" lon="8.0091112"><ele>555.0</ele><time>2026-04-06T14:32:15.214Z</time></trkpt><trkpt lat="44.5716855" lon="8.0089738"><ele>555.0</ele><time>2026-04-06T14:32:16.214Z</time></trkpt><trkpt lat="44.5716119" lon="8.0088249"><ele>553.75</ele><time>2026-04-06T14:32:17.214Z</time></trkpt><trkpt lat="44.5715385" lon="8.0086761"><ele>552.5</ele><time>2026-04-06T14:32:18.214Z</time></trkpt><trkpt lat="44.5714679" lon="8.0085294"><ele>551.25</ele><time>2026-04-06T14:32:19.214Z</time></trkpt><trkpt lat="44.5714084" lon="8.008389"><ele>550.0</ele><time>2026-04-06T14:32:20.214Z</time></trkpt><trkpt lat="44.5713501" lon="8.0082552"><ele>548.25</ele><time>2026-04-06T14:32:21.214Z</time></trkpt><trkpt lat="44.5712927" lon="8.0081342"><ele>546.5</ele><time>2026-04-06T14:32:22.214Z</time></trkpt><trkpt lat="44.5712106" lon="8.0080529"><ele>544.75</ele><time>2026-04-06T14:32:23.214Z</time></trkpt><trkpt lat="44.5711007" lon="8.0079965"><ele>543.0</ele><time>2026-04-06T14:32:24.214Z</time></trkpt><trkpt lat="44.5709626" lon="8.0079591"><ele>542.3333333333334</ele><time>2026-04-06T14:32:25.214Z</time></trkpt><trkpt lat="44.5708158" lon="8.0079146"><ele>541.6666666666667</ele><time>2026-04-06T14:32:26.214Z</time></trkpt><trkpt lat="44.5706535" lon="8.0078737"><ele>541.0</ele><time>2026-04-06T14:32:27.214Z</time></trkpt><trkpt lat="44.5704839" lon="8.0078295"><ele>540.3333333333334</ele><time>2026-04-06T14:32:28.214Z</time></trkpt><trkpt lat="44.5703274" lon="8.0077892"><ele>539.6666666666666</ele><time>2026-04-06T14:32:29.214Z</time></trkpt><trkpt lat="44.5701794" lon="8.0077413"><ele>539.0</ele><time>2026-04-06T14:32:30.214Z</time></trkpt><trkpt lat="44.5700448" lon="8.0076936"><ele>539.0</ele><time>2026-04-06T14:32:31.214Z</time></trkpt><trkpt lat="44.5699131" lon="8.0076623"><ele>539.0</ele><time>2026-04-06T14:32:32.214Z</time></trkpt><trkpt lat="44.569777" lon="8.0076595"><ele>539.0</ele><time>2026-04-06T14:32:33.214Z</time></trkpt><trkpt lat="44.569641" lon="8.0076679"><ele>539.0</ele><time>2026-04-06T14:32:34.214Z</time></trkpt><trkpt lat="44.5694978" lon="8.0076936"><ele>536.3333333333333</ele><time>2026-04-06T14:32:35.214Z</time></trkpt><trkpt lat="44.5693422" lon="8.0077431"><ele>533.6666666666666</ele><time>2026-04-06T14:32:36.214Z</time></trkpt><trkpt lat="44.569176" lon="8.007788"><ele>531.0</ele><time>2026-04-06T14:32:37.214Z</time></trkpt><trkpt lat="44.5689963" lon="8.0078344"><ele>531.0</ele><time>2026-04-06T14:32:38.214Z</time></trkpt><trkpt lat="44.5688225" lon="8.0078668"><ele>531.0</ele><time>2026-04-06T14:32:39.214Z</time></trkpt><trkpt lat="44.5686567" lon="8.0078899"><ele>531.0</ele><time>2026-04-06T14:32:40.214Z</time></trkpt><trkpt lat="44.5685195" lon="8.007911"><ele>529.2</ele><time>2026-04-06T14:32:41.214Z</time></trkpt><trkpt lat="44.5684035" lon="8.0079216"><ele>527.4000000000001</ele><time>2026-04-06T14:32:42.214Z</time></trkpt><trkpt lat="44.5683056" lon="8.0079455"><ele>525.6</ele><time>2026-04-06T14:32:43.214Z</time></trkpt><trkpt lat="44.5682244" lon="8.007997"><ele>523.8000000000001</ele><time>2026-04-06T14:32:44.214Z</time></trkpt><trkpt lat="44.5681535" lon="8.0080908"><ele>522.0</ele><time>2026-04-06T14:32:45.214Z</time></trkpt><trkpt lat="44.5680855" lon="8.0081993"><ele>525.25</ele><time>2026-04-06T14:32:46.214Z</time></trkpt><trkpt lat="44.5680393" lon="8.0083404"><ele>528.5</ele><time>2026-04-06T14:32:47.214Z</time></trkpt><trkpt lat="44.5680027" lon="8.0085037"><ele>531.75</ele><time>2026-04-06T14:32:48.214Z</time></trkpt><trkpt lat="44.5679719" lon="8.0087004"><ele>535.0</ele><time>2026-04-06T14:32:49.214Z</time></trkpt><trkpt lat="44.5679449" lon="8.0089065"><ele>535.0</ele><time>2026-04-06T14:32:50.214Z</time></trkpt><trkpt lat="44.5679226" lon="8.0091239"><ele>535.0</ele><time>2026-04-06T14:32:51.214Z</time></trkpt><trkpt lat="44.5679019" lon="8.009337"><ele>535.0</ele><time>2026-04-06T14:32:52.214Z</time></trkpt><trkpt lat="44.5678893" lon="8.0095369"><ele>536.25</ele><time>2026-04-06T14:32:53.214Z</time></trkpt><trkpt lat="44.5678605" lon="8.009729"><ele>537.5</ele><time>2026-04-06T14:32:54.214Z</time></trkpt><trkpt lat="44.5678003" lon="8.0099053"><ele>538.75</ele><time>2026-04-06T14:32:55.214Z</time></trkpt><trkpt lat="44.5677168" lon="8.0100545"><ele>540.0</ele><time>2026-04-06T14:32:56.214Z</time></trkpt><trkpt lat="44.5676025" lon="8.0101428"><ele>534.3333333333334</ele><time>2026-04-06T14:32:57.215Z</time></trkpt><trkpt lat="44.5674707" lon="8.0102396"><ele>528.6666666666667</ele><time>2026-04-06T14:32:58.214Z</time></trkpt><trkpt lat="44.5673249" lon="8.0102961"><ele>523.0</ele><time>2026-04-06T14:32:59.214Z</time></trkpt><trkpt lat="44.5671628" lon="8.0103218"><ele>520.75</ele><time>2026-04-06T14:33:00.214Z</time></trkpt><trkpt lat="44.5670045" lon="8.0103152"><ele>518.5</ele><time>2026-04-06T14:33:01.214Z</time></trkpt><trkpt lat="44.5668632" lon="8.0103015"><ele>516.25</ele><time>2026-04-06T14:33:02.215Z</time></trkpt><trkpt lat="44.5667242" lon="8.010242"><ele>514.0</ele><time>2026-04-06T14:33:03.214Z</time></trkpt><trkpt lat="44.5665899" lon="8.0101542"><ele>514.0</ele><time>2026-04-06T14:33:04.214Z</time></trkpt><trkpt lat="44.5664712" lon="8.0100318"><ele>514.0</ele><time>2026-04-06T14:33:05.214Z</time></trkpt><trkpt lat="44.5663693" lon="8.0098792"><ele>514.0</ele><time>2026-04-06T14:33:06.215Z</time></trkpt><trkpt lat="44.5662662" lon="8.0097085"><ele>512.3333333333334</ele><time>2026-04-06T14:33:07.214Z</time></trkpt><trkpt lat="44.5661515" lon="8.0095376"><ele>510.66666666666663</ele><time>2026-04-06T14:33:08.214Z</time></trkpt><trkpt lat="44.5660461" lon="8.0093556"><ele>509.0</ele><time>2026-04-06T14:33:09.214Z</time></trkpt><trkpt lat="44.5659515" lon="8.0091657"><ele>506.0</ele><time>2026-04-06T14:33:10.214Z</time></trkpt><trkpt lat="44.5658656" lon="8.008989"><ele>503.0</ele><time>2026-04-06T14:33:11.214Z</time></trkpt><trkpt lat="44.5657837" lon="8.0088377"><ele>500.0</ele><time>2026-04-06T14:33:12.214Z</time></trkpt><trkpt lat="44.5656869" lon="8.0087299"><ele>497.0</ele><time>2026-04-06T14:33:13.214Z</time></trkpt><trkpt lat="44.5655651" lon="8.0086514"><ele>497.0</ele><time>2026-04-06T14:33:14.214Z</time></trkpt><trkpt lat="44.565422" lon="8.0086008"><ele>497.0</ele><time>2026-04-06T14:33:15.214Z</time></trkpt><trkpt lat="44.5652746" lon="8.0085639"><ele>497.0</ele><time>2026-04-06T14:33:16.214Z</time></trkpt><trkpt lat="44.5651175" lon="8.0085318"><ele>496.3333333333333</ele><time>2026-04-06T14:33:17.214Z</time></trkpt><trkpt lat="44.564954" lon="8.0085244"><ele>495.66666666666663</ele><time>2026-04-06T14:33:18.214Z</time></trkpt><trkpt lat="44.5647806" lon="8.0085335"><ele>495.0</ele><time>2026-04-06T14:33:19.214Z</time></trkpt><trkpt lat="44.5645909" lon="8.0085482"><ele>491.33333333333337</ele><time>2026-04-06T14:33:20.214Z</time></trkpt><trkpt lat="44.5644019" lon="8.00855"><ele>487.6666666666667</ele><time>2026-04-06T14:33:21.214Z</time></trkpt><trkpt lat="44.5642292" lon="8.0085458"><ele>484.0</ele><time>2026-04-06T14:33:22.214Z</time></trkpt><trkpt lat="44.5640696" lon="8.0085302"><ele>484.0</ele><time>2026-04-06T14:33:23.214Z</time></trkpt><trkpt lat="44.5639328" lon="8.0085146"><ele>484.0</ele><time>2026-04-06T14:33:24.214Z</time></trkpt><trkpt lat="44.5638204" lon="8.008497"><ele>484.0</ele><time>2026-04-06T14:33:25.214Z</time></trkpt><trkpt lat="44.5637338" lon="8.0084767"><ele>484.0</ele><time>2026-04-06T14:33:26.214Z</time></trkpt><trkpt lat="44.5636674" lon="8.0084594"><ele>484.0</ele><time>2026-04-06T14:33:27.214Z</time></trkpt><trkpt lat="44.5635755" lon="8.0084211"><ele>480.4</ele><time>2026-04-06T14:33:29.214Z</time></trkpt><trkpt lat="44.5635804" lon="8.0082851"><ele>476.79999999999995</ele><time>2026-04-06T14:33:31.214Z</time></trkpt><trkpt lat="44.5636439" lon="8.0082129"><ele>473.20000000000005</ele><time>2026-04-06T14:33:32.214Z</time></trkpt><trkpt lat="44.563732" lon="8.008153"><ele>469.6</ele><time>2026-04-06T14:33:33.214Z</time></trkpt><trkpt lat="44.5638364" lon="8.0080857"><ele>466.0</ele><time>2026-04-06T14:33:34.214Z</time></trkpt><trkpt lat="44.5639545" lon="8.0079999"><ele>466.0</ele><time>2026-04-06T14:33:35.214Z</time></trkpt><trkpt lat="44.5640821" lon="8.0079063"><ele>466.0</ele><time>2026-04-06T14:33:36.215Z</time></trkpt><trkpt lat="44.5642183" lon="8.0078056"><ele>466.0</ele><time>2026-04-06T14:33:37.214Z</time></trkpt><trkpt lat="44.5643643" lon="8.0076899"><ele>466.0</ele><time>2026-04-06T14:33:38.214Z</time></trkpt><trkpt lat="44.564507" lon="8.0075623"><ele>466.0</ele><time>2026-04-06T14:33:39.214Z</time></trkpt><trkpt lat="44.5646392" lon="8.0074343"><ele>466.0</ele><time>2026-04-06T14:33:40.214Z</time></trkpt><trkpt lat="44.5647619" lon="8.0073138"><ele>463.75</ele><time>2026-04-06T14:33:41.214Z</time></trkpt><trkpt lat="44.5648843" lon="8.0071941"><ele>461.5</ele><time>2026-04-06T14:33:42.214Z</time></trkpt><trkpt lat="44.5649913" lon="8.0070869"><ele>459.25</ele><time>2026-04-06T14:33:43.214Z</time></trkpt><trkpt lat="44.5650712" lon="8.0070018"><ele>457.0</ele><time>2026-04-06T14:33:44.214Z</time></trkpt><trkpt lat="44.5651268" lon="8.0069428"><ele>457.00000000000006</ele><time>2026-04-06T14:33:45.215Z</time></trkpt><trkpt lat="44.5651469" lon="8.0068063"><ele>457.0</ele><time>2026-04-06T14:33:47.214Z</time></trkpt><trkpt lat="44.5651054" lon="8.0067337"><ele>457.0</ele><time>2026-04-06T14:33:48.214Z</time></trkpt><trkpt lat="44.5650325" lon="8.0066944"><ele>457.0</ele><time>2026-04-06T14:33:49.214Z</time></trkpt><trkpt lat="44.5649378" lon="8.0066784"><ele>457.00000000000006</ele><time>2026-04-06T14:33:50.214Z</time></trkpt><trkpt lat="44.5648315" lon="8.0066966"><ele>457.0</ele><time>2026-04-06T14:33:51.214Z</time></trkpt><trkpt lat="44.5647285" lon="8.0067657"><ele>457.0</ele><time>2026-04-06T14:33:52.214Z</time></trkpt><trkpt lat="44.5646276" lon="8.0068515"><ele>457.0</ele><time>2026-04-06T14:33:53.214Z</time></trkpt><trkpt lat="44.5645244" lon="8.0068987"><ele>457.0</ele><time>2026-04-06T14:33:54.214Z</time></trkpt><trkpt lat="44.5644076" lon="8.0068826"><ele>457.0</ele><time>2026-04-06T14:33:55.214Z</time></trkpt><trkpt lat="44.5642929" lon="8.0068472"><ele>454.0</ele><time>2026-04-06T14:33:56.214Z</time></trkpt><trkpt lat="44.5641721" lon="8.0068417"><ele>451.0</ele><time>2026-04-06T14:33:57.214Z</time></trkpt><trkpt lat="44.5640455" lon="8.0068529"><ele>448.0</ele><time>2026-04-06T14:33:58.214Z</time></trkpt><trkpt lat="44.5639184" lon="8.0068738"><ele>445.0</ele><time>2026-04-06T14:33:59.214Z</time></trkpt><trkpt lat="44.5637896" lon="8.0069127"><ele>442.0</ele><time>2026-04-06T14:34:00.214Z</time></trkpt><trkpt lat="44.5636635" lon="8.0069676"><ele>439.0</ele><time>2026-04-06T14:34:01.214Z</time></trkpt><trkpt lat="44.5635381" lon="8.007017"><ele>436.0</ele><time>2026-04-06T14:34:02.214Z</time></trkpt><trkpt lat="44.5634198" lon="8.0070658"><ele>433.0</ele><time>2026-04-06T14:34:03.214Z</time></trkpt><trkpt lat="44.5633005" lon="8.0071029"><ele>433.0</ele><time>2026-04-06T14:34:04.214Z</time></trkpt><trkpt lat="44.5631883" lon="8.0071433"><ele>433.0</ele><time>2026-04-06T14:34:05.214Z</time></trkpt><trkpt lat="44.5630743" lon="8.007192"><ele>433.0</ele><time>2026-04-06T14:34:06.214Z</time></trkpt><trkpt lat="44.5629615" lon="8.0072366"><ele>433.0</ele><time>2026-04-06T14:34:07.214Z</time></trkpt><trkpt lat="44.5628516" lon="8.0072706"><ele>431.4</ele><time>2026-04-06T14:34:08.214Z</time></trkpt><trkpt lat="44.5627446" lon="8.007299"><ele>429.79999999999995</ele><time>2026-04-06T14:34:09.214Z</time></trkpt><trkpt lat="44.5626469" lon="8.0073249"><ele>428.2</ele><time>2026-04-06T14:34:10.214Z</time></trkpt><trkpt lat="44.5625556" lon="8.0073458"><ele>426.6</ele><time>2026-04-06T14:34:11.214Z</time></trkpt><trkpt lat="44.5624526" lon="8.0073303"><ele>425.0</ele><time>2026-04-06T14:34:12.214Z</time></trkpt><trkpt lat="44.5623566" lon="8.0072765"><ele>424.99999999999994</ele><time>2026-04-06T14:34:13.214Z</time></trkpt><trkpt lat="44.5622958" lon="8.0072479"><ele>425.0</ele><time>2026-04-06T14:34:14.214Z</time></trkpt><trkpt lat="44.5622242" lon="8.0071765"><ele>425.0</ele><time>2026-04-06T14:34:16.214Z</time></trkpt><trkpt lat="44.5621587" lon="8.0072379"><ele>425.0</ele><time>2026-04-06T14:34:37.214Z</time></trkpt><trkpt lat="44.562148" lon="8.0073462"><ele>424.99999999999994</ele><time>2026-04-06T14:34:38.214Z</time></trkpt><trkpt lat="44.5621482" lon="8.0074823"><ele>425.0</ele><time>2026-04-06T14:34:39.214Z</time></trkpt><trkpt lat="44.5621488" lon="8.0076235"><ele>425.25</ele><time>2026-04-06T14:34:40.214Z</time></trkpt><trkpt lat="44.5621332" lon="8.0077779"><ele>425.5</ele><time>2026-04-06T14:34:41.214Z</time></trkpt><trkpt lat="44.5621228" lon="8.0079638"><ele>425.75</ele><time>2026-04-06T14:34:42.214Z</time></trkpt><trkpt lat="44.5621" lon="8.0081495"><ele>426.0</ele><time>2026-04-06T14:34:43.214Z</time></trkpt><trkpt lat="44.5620876" lon="8.008307"><ele>427.1666666666667</ele><time>2026-04-06T14:34:44.214Z</time></trkpt><trkpt lat="44.5620605" lon="8.0084145"><ele>428.33333333333337</ele><time>2026-04-06T14:34:45.214Z</time></trkpt><trkpt lat="44.5620323" lon="8.008509"><ele>429.5</ele><time>2026-04-06T14:34:46.214Z</time></trkpt><trkpt lat="44.5619871" lon="8.008594"><ele>430.6666666666667</ele><time>2026-04-06T14:34:47.214Z</time></trkpt><trkpt lat="44.5619117" lon="8.0086489"><ele>431.83333333333337</ele><time>2026-04-06T14:34:48.214Z</time></trkpt><trkpt lat="44.5618218" lon="8.0086857"><ele>433.0</ele><time>2026-04-06T14:34:49.214Z</time></trkpt><trkpt lat="44.5617046" lon="8.0087312"><ele>428.0</ele><time>2026-04-06T14:34:50.214Z</time></trkpt><trkpt lat="44.5615934" lon="8.0087916"><ele>423.0</ele><time>2026-04-06T14:34:51.214Z</time></trkpt><trkpt lat="44.5614754" lon="8.0088725"><ele>418.0</ele><time>2026-04-06T14:34:52.214Z</time></trkpt><trkpt lat="44.5613577" lon="8.0089791"><ele>413.0</ele><time>2026-04-06T14:34:53.214Z</time></trkpt><trkpt lat="44.5612637" lon="8.009123"><ele>416.0</ele><time>2026-04-06T14:34:54.214Z</time></trkpt><trkpt lat="44.5611621" lon="8.0092604"><ele>419.0</ele><time>2026-04-06T14:34:55.214Z</time></trkpt><trkpt lat="44.5610679" lon="8.0093877"><ele>422.0</ele><time>2026-04-06T14:34:56.214Z</time></trkpt><trkpt lat="44.5609935" lon="8.0095052"><ele>425.0</ele><time>2026-04-06T14:34:57.214Z</time></trkpt><trkpt lat="44.5609588" lon="8.0096283"><ele>425.0</ele><time>2026-04-06T14:34:58.214Z</time></trkpt><trkpt lat="44.5609576" lon="8.0097691"><ele>425.0</ele><time>2026-04-06T14:34:59.214Z</time></trkpt><trkpt lat="44.5609935" lon="8.0098987"><ele>425.0</ele><time>2026-04-06T14:35:00.214Z</time></trkpt><trkpt lat="44.5610671" lon="8.0100083"><ele>425.0</ele><time>2026-04-06T14:35:01.214Z</time></trkpt><trkpt lat="44.5611606" lon="8.0101058"><ele>425.0</ele><time>2026-04-06T14:35:02.214Z</time></trkpt><trkpt lat="44.5612596" lon="8.0101936"><ele>424.6</ele><time>2026-04-06T14:35:03.214Z</time></trkpt><trkpt lat="44.5613375" lon="8.0102904"><ele>424.2</ele><time>2026-04-06T14:35:04.214Z</time></trkpt><trkpt lat="44.5613961" lon="8.010391"><ele>423.79999999999995</ele><time>2026-04-06T14:35:05.214Z</time></trkpt><trkpt lat="44.5614334" lon="8.0105231"><ele>423.4</ele><time>2026-04-06T14:35:06.214Z</time></trkpt><trkpt lat="44.5614629" lon="8.0106811"><ele>423.0</ele><time>2026-04-06T14:35:07.214Z</time></trkpt><trkpt lat="44.5614734" lon="8.0108586"><ele>423.0</ele><time>2026-04-06T14:35:08.214Z</time></trkpt><trkpt lat="44.5614778" lon="8.0110629"><ele>423.0</ele><time>2026-04-06T14:35:09.214Z</time></trkpt><trkpt lat="44.5614799" lon="8.0112634"><ele>423.0</ele><time>2026-04-06T14:35:10.214Z</time></trkpt><trkpt lat="44.5614828" lon="8.0114725"><ele>423.0</ele><time>2026-04-06T14:35:11.214Z</time></trkpt><trkpt lat="44.5614851" lon="8.0116687"><ele>424.5</ele><time>2026-04-06T14:35:12.214Z</time></trkpt><trkpt lat="44.5614714" lon="8.0118748"><ele>426.0</ele><time>2026-04-06T14:35:13.214Z</time></trkpt><trkpt lat="44.5614369" lon="8.0120799"><ele>427.5</ele><time>2026-04-06T14:35:14.214Z</time></trkpt><trkpt lat="44.5613948" lon="8.0122726"><ele>429.0</ele><time>2026-04-06T14:35:15.214Z</time></trkpt><trkpt lat="44.5613669" lon="8.0124476"><ele>430.79999999999995</ele><time>2026-04-06T14:35:16.214Z</time></trkpt><trkpt lat="44.5613431" lon="8.0125873"><ele>432.59999999999997</ele><time>2026-04-06T14:35:17.214Z</time></trkpt><trkpt lat="44.5613258" lon="8.0126891"><ele>434.4</ele><time>2026-04-06T14:35:18.214Z</time></trkpt><trkpt lat="44.5612992" lon="8.0127955"><ele>436.2</ele><time>2026-04-06T14:35:19.214Z</time></trkpt><trkpt lat="44.5612492" lon="8.0129068"><ele>438.0</ele><time>2026-04-06T14:35:20.214Z</time></trkpt><trkpt lat="44.5611851" lon="8.0130254"><ele>441.2</ele><time>2026-04-06T14:35:21.214Z</time></trkpt><trkpt lat="44.5611293" lon="8.0131439"><ele>444.4</ele><time>2026-04-06T14:35:22.214Z</time></trkpt><trkpt lat="44.5611086" lon="8.0132827"><ele>447.59999999999997</ele><time>2026-04-06T14:35:23.214Z</time></trkpt><trkpt lat="44.5611072" lon="8.0134433"><ele>450.79999999999995</ele><time>2026-04-06T14:35:24.214Z</time></trkpt><trkpt lat="44.5611133" lon="8.0136194"><ele>454.0</ele><time>2026-04-06T14:35:25.214Z</time></trkpt><trkpt lat="44.5611287" lon="8.0137998"><ele>456.00000000000006</ele><time>2026-04-06T14:35:26.214Z</time></trkpt><trkpt lat="44.5611405" lon="8.0139596"><ele>458.0</ele><time>2026-04-06T14:35:27.215Z</time></trkpt><trkpt lat="44.5611491" lon="8.0140755"><ele>460.0</ele><time>2026-04-06T14:35:28.214Z</time></trkpt><trkpt lat="44.5611545" lon="8.0141643"><ele>462.0</ele><time>2026-04-06T14:35:29.214Z</time></trkpt><trkpt lat="44.5611661" lon="8.0143093"><ele>464.00000000000006</ele><time>2026-04-06T14:35:31.214Z</time></trkpt><trkpt lat="44.5611339" lon="8.0143948"><ele>466.0</ele><time>2026-04-06T14:35:33.214Z</time></trkpt><trkpt lat="44.5610021" lon="8.0143566"><ele>467.20000000000005</ele><time>2026-04-06T14:35:35.214Z</time></trkpt><trkpt lat="44.5609432" lon="8.0142877"><ele>468.40000000000003</ele><time>2026-04-06T14:35:36.214Z</time></trkpt><trkpt lat="44.5608239" lon="8.0142097"><ele>469.6</ele><time>2026-04-06T14:35:38.214Z</time></trkpt><trkpt lat="44.5607428" lon="8.0142149"><ele>470.8</ele><time>2026-04-06T14:35:39.214Z</time></trkpt><trkpt lat="44.56065" lon="8.0142258"><ele>472.0</ele><time>2026-04-06T14:35:40.214Z</time></trkpt><trkpt lat="44.560547" lon="8.0142338"><ele>472.0</ele><time>2026-04-06T14:35:41.214Z</time></trkpt><trkpt lat="44.5604237" lon="8.0142441"><ele>472.0</ele><time>2026-04-06T14:35:42.214Z</time></trkpt><trkpt lat="44.5602986" lon="8.0142379"><ele>472.0</ele><time>2026-04-06T14:35:43.214Z</time></trkpt><trkpt lat="44.5601662" lon="8.014237"><ele>472.0</ele><time>2026-04-06T14:35:44.214Z</time></trkpt><trkpt lat="44.5600357" lon="8.0142667"><ele>474.25</ele><time>2026-04-06T14:35:45.214Z</time></trkpt><trkpt lat="44.5599086" lon="8.0142976"><ele>476.5</ele><time>2026-04-06T14:35:46.214Z</time></trkpt><trkpt lat="44.559798" lon="8.0143553"><ele>478.75</ele><time>2026-04-06T14:35:47.214Z</time></trkpt><trkpt lat="44.5596887" lon="8.0144614"><ele>481.0</ele><time>2026-04-06T14:35:48.214Z</time></trkpt><trkpt lat="44.559583" lon="8.0145848"><ele>479.6666666666667</ele><time>2026-04-06T14:35:49.214Z</time></trkpt><trkpt lat="44.5594648" lon="8.014719"><ele>478.33333333333337</ele><time>2026-04-06T14:35:50.214Z</time></trkpt><trkpt lat="44.5593299" lon="8.0148554"><ele>477.0</ele><time>2026-04-06T14:35:51.214Z</time></trkpt><trkpt lat="44.5591948" lon="8.0149768"><ele>480.0</ele><time>2026-04-06T14:35:52.214Z</time></trkpt><trkpt lat="44.5590704" lon="8.0150604"><ele>483.0</ele><time>2026-04-06T14:35:53.214Z</time></trkpt><trkpt lat="44.558948" lon="8.0151201"><ele>486.0</ele><time>2026-04-06T14:35:54.214Z</time></trkpt><trkpt lat="44.5588219" lon="8.0151779"><ele>489.0</ele><time>2026-04-06T14:35:55.214Z</time></trkpt><trkpt lat="44.5586934" lon="8.0152555"><ele>489.0</ele><time>2026-04-06T14:35:56.214Z</time></trkpt><trkpt lat="44.5585406" lon="8.0153386"><ele>489.0</ele><time>2026-04-06T14:35:57.214Z</time></trkpt><trkpt lat="44.558392" lon="8.0154396"><ele>489.0</ele><time>2026-04-06T14:35:58.214Z</time></trkpt><trkpt lat="44.5582388" lon="8.0155459"><ele>489.0</ele><time>2026-04-06T14:35:59.214Z</time></trkpt><trkpt lat="44.558074" lon="8.0156303"><ele>489.0</ele><time>2026-04-06T14:36:00.214Z</time></trkpt><trkpt lat="44.5579058" lon="8.0156865"><ele>489.0</ele><time>2026-04-06T14:36:01.214Z</time></trkpt><trkpt lat="44.5577385" lon="8.0157267"><ele>491.5</ele><time>2026-04-06T14:36:02.214Z</time></trkpt><trkpt lat="44.5575788" lon="8.0157512"><ele>494.0</ele><time>2026-04-06T14:36:03.214Z</time></trkpt><trkpt lat="44.5574445" lon="8.0157863"><ele>496.5</ele><time>2026-04-06T14:36:04.215Z</time></trkpt><trkpt lat="44.5573241" lon="8.0158094"><ele>499.0</ele><time>2026-04-06T14:36:05.214Z</time></trkpt><trkpt lat="44.5572093" lon="8.0158474"><ele>500.4</ele><time>2026-04-06T14:36:06.214Z</time></trkpt><trkpt lat="44.5571017" lon="8.0158831"><ele>501.79999999999995</ele><time>2026-04-06T14:36:07.214Z</time></trkpt><trkpt lat="44.5569945" lon="8.0159013"><ele>503.20000000000005</ele><time>2026-04-06T14:36:08.214Z</time></trkpt><trkpt lat="44.5569167" lon="8.0158864"><ele>504.6</ele><time>2026-04-06T14:36:09.214Z</time></trkpt><trkpt lat="44.5568435" lon="8.0158329"><ele>506.0</ele><time>2026-04-06T14:36:10.214Z</time></trkpt><trkpt lat="44.5568015" lon="8.0157303"><ele>508.8</ele><time>2026-04-06T14:36:11.214Z</time></trkpt><trkpt lat="44.5567471" lon="8.0156107"><ele>511.6</ele><time>2026-04-06T14:36:12.214Z</time></trkpt><trkpt lat="44.556691" lon="8.0154863"><ele>514.4</ele><time>2026-04-06T14:36:13.214Z</time></trkpt><trkpt lat="44.556624" lon="8.0153553"><ele>517.2</ele><time>2026-04-06T14:36:14.214Z</time></trkpt><trkpt lat="44.5565535" lon="8.0152257"><ele>520.0</ele><time>2026-04-06T14:36:15.214Z</time></trkpt><trkpt lat="44.556478" lon="8.0150751"><ele>518.3333333333334</ele><time>2026-04-06T14:36:16.214Z</time></trkpt><trkpt lat="44.5563999" lon="8.0149063"><ele>516.6666666666666</ele><time>2026-04-06T14:36:17.214Z</time></trkpt><trkpt lat="44.5563243" lon="8.014714"><ele>515.0</ele><time>2026-04-06T14:36:18.214Z</time></trkpt><trkpt lat="44.5562501" lon="8.014513"><ele>519.0</ele><time>2026-04-06T14:36:19.214Z</time></trkpt><trkpt lat="44.5561952" lon="8.0143154"><ele>523.0</ele><time>2026-04-06T14:36:20.214Z</time></trkpt><trkpt lat="44.5561556" lon="8.0141483"><ele>527.0</ele><time>2026-04-06T14:36:21.214Z</time></trkpt><trkpt lat="44.5561331" lon="8.0140009"><ele>531.0</ele><time>2026-04-06T14:36:22.214Z</time></trkpt><trkpt lat="44.5561037" lon="8.0138671"><ele>531.0</ele><time>2026-04-06T14:36:23.214Z</time></trkpt><trkpt lat="44.556064" lon="8.013749"><ele>531.0</ele><time>2026-04-06T14:36:24.214Z</time></trkpt><trkpt lat="44.5560283" lon="8.0136353"><ele>531.0</ele><time>2026-04-06T14:36:25.214Z</time></trkpt><trkpt lat="44.5559959" lon="8.0135317"><ele>531.0</ele><time>2026-04-06T14:36:26.214Z</time></trkpt><trkpt lat="44.5559688" lon="8.0134357"><ele>531.0</ele><time>2026-04-06T14:36:27.214Z</time></trkpt><trkpt lat="44.5559746" lon="8.0133413"><ele>531.0</ele><time>2026-04-06T14:36:28.214Z</time></trkpt><trkpt lat="44.5560174" lon="8.0132174"><ele>529.5</ele><time>2026-04-06T14:36:29.214Z</time></trkpt><trkpt lat="44.5560728" lon="8.0130921"><ele>528.0</ele><time>2026-04-06T14:36:30.214Z</time></trkpt><trkpt lat="44.5561649" lon="8.0129748"><ele>526.5</ele><time>2026-04-06T14:36:31.214Z</time></trkpt><trkpt lat="44.556293" lon="8.0128599"><ele>525.0</ele><time>2026-04-06T14:36:32.214Z</time></trkpt><trkpt lat="44.5564297" lon="8.0127528"><ele>525.0</ele><time>2026-04-06T14:36:33.214Z</time></trkpt><trkpt lat="44.556559" lon="8.01265"><ele>525.0</ele><time>2026-04-06T14:36:34.214Z</time></trkpt><trkpt lat="44.5566713" lon="8.012568"><ele>525.0</ele><time>2026-04-06T14:36:35.214Z</time></trkpt><trkpt lat="44.5567686" lon="8.0125037"><ele>525.0</ele><time>2026-04-06T14:36:36.214Z</time></trkpt><trkpt lat="44.5568484" lon="8.0124546"><ele>525.5</ele><time>2026-04-06T14:36:37.214Z</time></trkpt><trkpt lat="44.5569437" lon="8.0123936"><ele>526.0</ele><time>2026-04-06T14:36:39.214Z</time></trkpt><trkpt lat="44.5569862" lon="8.0123013"><ele>526.5</ele><time>2026-04-06T14:36:42.214Z</time></trkpt><trkpt lat="44.5569687" lon="8.0121773"><ele>527.0</ele><time>2026-04-06T14:36:44.214Z</time></trkpt><trkpt lat="44.5569374" lon="8.0120918"><ele>527.5</ele><time>2026-04-06T14:36:45.214Z</time></trkpt><trkpt lat="44.556891" lon="8.012021"><ele>528.0</ele><time>2026-04-06T14:36:46.214Z</time></trkpt><trkpt lat="44.5568374" lon="8.0119587"><ele>528.0</ele><time>2026-04-06T14:36:47.214Z</time></trkpt><trkpt lat="44.5567634" lon="8.0119447"><ele>528.0</ele><time>2026-04-06T14:36:48.214Z</time></trkpt><trkpt lat="44.5566841" lon="8.0119744"><ele>528.0</ele><time>2026-04-06T14:36:49.214Z</time></trkpt><trkpt lat="44.5565794" lon="8.0120224"><ele>528.0</ele><time>2026-04-06T14:36:50.214Z</time></trkpt><trkpt lat="44.5564644" lon="8.0120683"><ele>528.0</ele><time>2026-04-06T14:36:51.214Z</time></trkpt><trkpt lat="44.5563309" lon="8.0121011"><ele>529.5</ele><time>2026-04-06T14:36:52.214Z</time></trkpt><trkpt lat="44.5561925" lon="8.0121364"><ele>531.0</ele><time>2026-04-06T14:36:53.214Z</time></trkpt><trkpt lat="44.5560546" lon="8.0121856"><ele>532.5</ele><time>2026-04-06T14:36:54.214Z</time></trkpt><trkpt lat="44.5559193" lon="8.0122307"><ele>534.0</ele><time>2026-04-06T14:36:55.213Z</time></trkpt><trkpt lat="44.5557935" lon="8.0122532"><ele>534.0</ele><time>2026-04-06T14:36:56.213Z</time></trkpt><trkpt lat="44.5556804" lon="8.0122693"><ele>534.0</ele><time>2026-04-06T14:36:57.213Z</time></trkpt><trkpt lat="44.5555784" lon="8.012302"><ele>534.0</ele><time>2026-04-06T14:36:58.213Z</time></trkpt><trkpt lat="44.555482" lon="8.012359"><ele>534.0</ele><time>2026-04-06T14:36:59.213Z</time></trkpt><trkpt lat="44.5553884" lon="8.0124603"><ele>534.0</ele><time>2026-04-06T14:37:00.213Z</time></trkpt><trkpt lat="44.5553041" lon="8.0125985"><ele>539.0</ele><time>2026-04-06T14:37:01.213Z</time></trkpt><trkpt lat="44.5552211" lon="8.0127311"><ele>544.0</ele><time>2026-04-06T14:37:02.213Z</time></trkpt><trkpt lat="44.5551263" lon="8.0128669"><ele>549.0</ele><time>2026-04-06T14:37:03.213Z</time></trkpt><trkpt lat="44.5550261" lon="8.0129833"><ele>554.0</ele><time>2026-04-06T14:37:04.213Z</time></trkpt><trkpt lat="44.554917" lon="8.0130993"><ele>554.0</ele><time>2026-04-06T14:37:05.213Z</time></trkpt><trkpt lat="44.5547951" lon="8.0132335"><ele>554.0</ele><time>2026-04-06T14:37:06.213Z</time></trkpt><trkpt lat="44.5546638" lon="8.0133725"><ele>554.0</ele><time>2026-04-06T14:37:07.213Z</time></trkpt><trkpt lat="44.5545403" lon="8.013515"><ele>558.25</ele><time>2026-04-06T14:37:08.213Z</time></trkpt><trkpt lat="44.5544309" lon="8.0136477"><ele>562.5</ele><time>2026-04-06T14:37:09.213Z</time></trkpt><trkpt lat="44.5543337" lon="8.0137553"><ele>566.75</ele><time>2026-04-06T14:37:10.213Z</time></trkpt><trkpt lat="44.5542533" lon="8.0138577"><ele>571.0</ele><time>2026-04-06T14:37:11.213Z</time></trkpt><trkpt lat="44.5541832" lon="8.0139551"><ele>571.0</ele><time>2026-04-06T14:37:12.213Z</time></trkpt><trkpt lat="44.5541362" lon="8.014093"><ele>571.0</ele><time>2026-04-06T14:37:13.213Z</time></trkpt><trkpt lat="44.5541014" lon="8.0142591"><ele>571.0</ele><time>2026-04-06T14:37:14.213Z</time></trkpt><trkpt lat="44.5540696" lon="8.0144371"><ele>571.0</ele><time>2026-04-06T14:37:15.213Z</time></trkpt><trkpt lat="44.5540344" lon="8.0146189"><ele>570.75</ele><time>2026-04-06T14:37:16.213Z</time></trkpt><trkpt lat="44.5539945" lon="8.0147881"><ele>570.5</ele><time>2026-04-06T14:37:17.213Z</time></trkpt><trkpt lat="44.5539421" lon="8.0149456"><ele>570.25</ele><time>2026-04-06T14:37:18.213Z</time></trkpt><trkpt lat="44.5538935" lon="8.0150999"><ele>570.0</ele><time>2026-04-06T14:37:19.213Z</time></trkpt><trkpt lat="44.5538558" lon="8.0152657"><ele>570.0</ele><time>2026-04-06T14:37:20.213Z</time></trkpt><trkpt lat="44.553826" lon="8.0154264"><ele>570.0</ele><time>2026-04-06T14:37:21.213Z</time></trkpt><trkpt lat="44.553783" lon="8.0155848"><ele>570.0</ele><time>2026-04-06T14:37:22.213Z</time></trkpt><trkpt lat="44.5537205" lon="8.0157407"><ele>570.0</ele><time>2026-04-06T14:37:23.213Z</time></trkpt><trkpt lat="44.553634" lon="8.0158909"><ele>576.5</ele><time>2026-04-06T14:37:24.213Z</time></trkpt><trkpt lat="44.5535432" lon="8.0160406"><ele>583.0</ele><time>2026-04-06T14:37:25.213Z</time></trkpt><trkpt lat="44.5534723" lon="8.0162006"><ele>589.5</ele><time>2026-04-06T14:37:26.213Z</time></trkpt><trkpt lat="44.5534326" lon="8.0163798"><ele>596.0</ele><time>2026-04-06T14:37:27.213Z</time></trkpt><trkpt lat="44.553411" lon="8.0165783"><ele>595.75</ele><time>2026-04-06T14:37:28.213Z</time></trkpt><trkpt lat="44.5534013" lon="8.0167854"><ele>595.5</ele><time>2026-04-06T14:37:29.213Z</time></trkpt><trkpt lat="44.5533856" lon="8.0170046"><ele>595.25</ele><time>2026-04-06T14:37:30.213Z</time></trkpt><trkpt lat="44.5533568" lon="8.0172007"><ele>595.0</ele><time>2026-04-06T14:37:31.213Z</time></trkpt><trkpt lat="44.5533346" lon="8.0173597"><ele>594.6666666666667</ele><time>2026-04-06T14:37:32.213Z</time></trkpt><trkpt lat="44.5533122" lon="8.0175031"><ele>594.3333333333334</ele><time>2026-04-06T14:37:33.213Z</time></trkpt><trkpt lat="44.5532912" lon="8.0176217"><ele>594.0</ele><time>2026-04-06T14:37:34.213Z</time></trkpt><trkpt lat="44.5532688" lon="8.0177101"><ele>593.6666666666666</ele><time>2026-04-06T14:37:35.213Z</time></trkpt><trkpt lat="44.5532311" lon="8.0178573"><ele>593.3333333333333</ele><time>2026-04-06T14:37:37.213Z</time></trkpt><trkpt lat="44.5531892" lon="8.0179349"><ele>593.0</ele><time>2026-04-06T14:37:39.213Z</time></trkpt><trkpt lat="44.5531611" lon="8.0181942"><ele>594.0</ele><time>2026-04-06T14:37:42.213Z</time></trkpt><trkpt lat="44.5531698" lon="8.0183368"><ele>595.0</ele><time>2026-04-06T14:37:43.213Z</time></trkpt><trkpt lat="44.5531807" lon="8.0184945"><ele>596.0</ele><time>2026-04-06T14:37:44.213Z</time></trkpt><trkpt lat="44.5531997" lon="8.0186728"><ele>597.0</ele><time>2026-04-06T14:37:45.213Z</time></trkpt><trkpt lat="44.5532324" lon="8.0188702"><ele>597.0</ele><time>2026-04-06T14:37:46.213Z</time></trkpt><trkpt lat="44.5532646" lon="8.0190668"><ele>597.0</ele><time>2026-04-06T14:37:47.213Z</time></trkpt><trkpt lat="44.5532866" lon="8.0192511"><ele>597.0</ele><time>2026-04-06T14:37:48.213Z</time></trkpt><trkpt lat="44.5532942" lon="8.0194049"><ele>597.0</ele><time>2026-04-06T14:37:49.213Z</time></trkpt><trkpt lat="44.5532974" lon="8.0195669"><ele>598.0</ele><time>2026-04-06T14:37:50.213Z</time></trkpt><trkpt lat="44.5532623" lon="8.0197152"><ele>599.0</ele><time>2026-04-06T14:37:51.213Z</time></trkpt><trkpt lat="44.55322" lon="8.019853"><ele>600.0</ele><time>2026-04-06T14:37:52.213Z</time></trkpt><trkpt lat="44.5531835" lon="8.0199884"><ele>601.0</ele><time>2026-04-06T14:37:53.213Z</time></trkpt><trkpt lat="44.5531677" lon="8.0201301"><ele>602.0</ele><time>2026-04-06T14:37:54.213Z</time></trkpt><trkpt lat="44.553168" lon="8.0202933"><ele>603.25</ele><time>2026-04-06T14:37:55.213Z</time></trkpt><trkpt lat="44.5531881" lon="8.0204852"><ele>604.5</ele><time>2026-04-06T14:37:56.213Z</time></trkpt><trkpt lat="44.5532045" lon="8.0206943"><ele>605.75</ele><time>2026-04-06T14:37:57.213Z</time></trkpt><trkpt lat="44.5531836" lon="8.0209109"><ele>607.0</ele><time>2026-04-06T14:37:58.213Z</time></trkpt><trkpt lat="44.5531511" lon="8.0211311"><ele>607.75</ele><time>2026-04-06T14:37:59.213Z</time></trkpt><trkpt lat="44.5531147" lon="8.0213128"><ele>608.5</ele><time>2026-04-06T14:38:00.213Z</time></trkpt><trkpt lat="44.5531032" lon="8.0214616"><ele>609.25</ele><time>2026-04-06T14:38:01.213Z</time></trkpt><trkpt lat="44.5531141" lon="8.0216074"><ele>610.0</ele><time>2026-04-06T14:38:02.213Z</time></trkpt><trkpt lat="44.5531462" lon="8.0217685"><ele>611.0</ele><time>2026-04-06T14:38:03.213Z</time></trkpt><trkpt lat="44.5531964" lon="8.0219331"><ele>612.0</ele><time>2026-04-06T14:38:04.213Z</time></trkpt><trkpt lat="44.5532365" lon="8.0220999"><ele>613.0</ele><time>2026-04-06T14:38:05.213Z</time></trkpt><trkpt lat="44.5532532" lon="8.0222725"><ele>614.0</ele><time>2026-04-06T14:38:06.213Z</time></trkpt><trkpt lat="44.5532538" lon="8.022458"><ele>615.0</ele><time>2026-04-06T14:38:07.213Z</time></trkpt><trkpt lat="44.5532309" lon="8.0226354"><ele>616.0</ele><time>2026-04-06T14:38:08.213Z</time></trkpt><trkpt lat="44.553223" lon="8.0227995"><ele>617.0</ele><time>2026-04-06T14:38:09.213Z</time></trkpt><trkpt lat="44.5532367" lon="8.0229592"><ele>618.0</ele><time>2026-04-06T14:38:10.214Z</time></trkpt><trkpt lat="44.5532648" lon="8.0231337"><ele>618.0</ele><time>2026-04-06T14:38:11.213Z</time></trkpt><trkpt lat="44.5532819" lon="8.0232996"><ele>618.0</ele><time>2026-04-06T14:38:12.213Z</time></trkpt><trkpt lat="44.553292" lon="8.0234634"><ele>618.0</ele><time>2026-04-06T14:38:13.213Z</time></trkpt><trkpt lat="44.5532897" lon="8.0236379"><ele>618.0</ele><time>2026-04-06T14:38:14.213Z</time></trkpt><trkpt lat="44.5532589" lon="8.023803"><ele>618.6</ele><time>2026-04-06T14:38:15.213Z</time></trkpt><trkpt lat="44.5532182" lon="8.0239568"><ele>619.1999999999999</ele><time>2026-04-06T14:38:16.213Z</time></trkpt><trkpt lat="44.5531718" lon="8.024092"><ele>619.8</ele><time>2026-04-06T14:38:17.213Z</time></trkpt><trkpt lat="44.5531218" lon="8.024206"><ele>620.4</ele><time>2026-04-06T14:38:18.213Z</time></trkpt><trkpt lat="44.5530794" lon="8.0243188"><ele>621.0</ele><time>2026-04-06T14:38:19.213Z</time></trkpt><trkpt lat="44.5530461" lon="8.0244095"><ele>621.4</ele><time>2026-04-06T14:38:20.213Z</time></trkpt><trkpt lat="44.5530243" lon="8.0245688"><ele>621.8</ele><time>2026-04-06T14:38:22.213Z</time></trkpt><trkpt lat="44.5530347" lon="8.0247144"><ele>622.1999999999999</ele><time>2026-04-06T14:38:24.213Z</time></trkpt><trkpt lat="44.5530562" lon="8.0248422"><ele>622.6</ele><time>2026-04-06T14:38:26.213Z</time></trkpt><trkpt lat="44.5530713" lon="8.0249695"><ele>623.0</ele><time>2026-04-06T14:38:28.213Z</time></trkpt><trkpt lat="44.5530842" lon="8.0251472"><ele>623.0</ele><time>2026-04-06T14:38:30.213Z</time></trkpt><trkpt lat="44.5530949" lon="8.0252689"><ele>623.0</ele><time>2026-04-06T14:38:31.213Z</time></trkpt><trkpt lat="44.5531099" lon="8.0254033"><ele>623.0</ele><time>2026-04-06T14:38:32.213Z</time></trkpt><trkpt lat="44.5531214" lon="8.0255382"><ele>623.0</ele><time>2026-04-06T14:38:33.213Z</time></trkpt><trkpt lat="44.5531309" lon="8.025667"><ele>623.0</ele><time>2026-04-06T14:38:34.213Z</time></trkpt><trkpt lat="44.5531449" lon="8.0257941"><ele>622.5</ele><time>2026-04-06T14:38:35.214Z</time></trkpt><trkpt lat="44.553153" lon="8.0259061"><ele>622.0</ele><time>2026-04-06T14:38:36.213Z</time></trkpt><trkpt lat="44.5531526" lon="8.0260128"><ele>621.5</ele><time>2026-04-06T14:38:37.213Z</time></trkpt><trkpt lat="44.5531412" lon="8.0261024"><ele>621.0</ele><time>2026-04-06T14:38:38.213Z</time></trkpt><trkpt lat="44.5530949" lon="8.0262502"><ele>620.5</ele><time>2026-04-06T14:38:40.213Z</time></trkpt><trkpt lat="44.5530263" lon="8.0263585"><ele>620.0</ele><time>2026-04-06T14:38:42.213Z</time></trkpt><trkpt lat="44.552952" lon="8.0264536"><ele>620.0</ele><time>2026-04-06T14:38:44.213Z</time></trkpt><trkpt lat="44.5528785" lon="8.0265603"><ele>620.0</ele><time>2026-04-06T14:38:46.213Z</time></trkpt><trkpt lat="44.5528096" lon="8.026623"><ele>620.0</ele><time>2026-04-06T14:38:49.213Z</time></trkpt><trkpt lat="44.5528895" lon="8.0265515"><ele>620.0</ele><time>2026-04-06T14:38:54.213Z</time></trkpt><trkpt lat="44.5529381" lon="8.0264899"><ele>620.0</ele><time>2026-04-06T14:38:55.213Z</time></trkpt><trkpt lat="44.5529997" lon="8.026415"><ele>620.0</ele><time>2026-04-06T14:38:56.213Z</time></trkpt><trkpt lat="44.5530618" lon="8.0263283"><ele>620.0</ele><time>2026-04-06T14:38:57.213Z</time></trkpt><trkpt lat="44.5531131" lon="8.0262231"><ele>620.0</ele><time>2026-04-06T14:38:58.214Z</time></trkpt><trkpt lat="44.553147" lon="8.0260786"><ele>620.0</ele><time>2026-04-06T14:38:59.213Z</time></trkpt><trkpt lat="44.5531514" lon="8.0259006"><ele>620.0</ele><time>2026-04-06T14:39:00.213Z</time></trkpt><trkpt lat="44.5531408" lon="8.0257233"><ele>620.75</ele><time>2026-04-06T14:39:01.213Z</time></trkpt><trkpt lat="44.5531221" lon="8.0255398"><ele>621.5</ele><time>2026-04-06T14:39:02.213Z</time></trkpt><trkpt lat="44.5531041" lon="8.0253485"><ele>622.25</ele><time>2026-04-06T14:39:03.214Z</time></trkpt><trkpt lat="44.553088" lon="8.0251534"><ele>623.0</ele><time>2026-04-06T14:39:04.213Z</time></trkpt><trkpt lat="44.5530721" lon="8.0249801"><ele>623.4</ele><time>2026-04-06T14:39:05.213Z</time></trkpt><trkpt lat="44.553056" lon="8.0248229"><ele>623.8</ele><time>2026-04-06T14:39:06.213Z</time></trkpt><trkpt lat="44.5530416" lon="8.0246908"><ele>624.2</ele><time>2026-04-06T14:39:07.213Z</time></trkpt><trkpt lat="44.5530441" lon="8.0245657"><ele>624.6</ele><time>2026-04-06T14:39:08.213Z</time></trkpt><trkpt lat="44.5530532" lon="8.0244447"><ele>625.0</ele><time>2026-04-06T14:39:09.213Z</time></trkpt><trkpt lat="44.553077" lon="8.0243179"><ele>625.0</ele><time>2026-04-06T14:39:10.213Z</time></trkpt><trkpt lat="44.5531241" lon="8.0241663"><ele>625.0</ele><time>2026-04-06T14:39:11.213Z</time></trkpt><trkpt lat="44.5531832" lon="8.0240172"><ele>625.0</ele><time>2026-04-06T14:39:12.213Z</time></trkpt><trkpt lat="44.5532352" lon="8.0238608"><ele>625.0</ele><time>2026-04-06T14:39:13.213Z</time></trkpt><trkpt lat="44.553271" lon="8.0237003"><ele>624.2</ele><time>2026-04-06T14:39:14.213Z</time></trkpt><trkpt lat="44.5532843" lon="8.0235355"><ele>623.4</ele><time>2026-04-06T14:39:15.213Z</time></trkpt><trkpt lat="44.5532848" lon="8.0233869"><ele>622.6</ele><time>2026-04-06T14:39:16.213Z</time></trkpt><trkpt lat="44.5532817" lon="8.0232484"><ele>621.8</ele><time>2026-04-06T14:39:17.213Z</time></trkpt><trkpt lat="44.5532688" lon="8.0231218"><ele>621.0</ele><time>2026-04-06T14:39:18.213Z</time></trkpt><trkpt lat="44.5532482" lon="8.0230012"><ele>620.4</ele><time>2026-04-06T14:39:19.213Z</time></trkpt><trkpt lat="44.5532315" lon="8.0228737"><ele>619.8</ele><time>2026-04-06T14:39:20.213Z</time></trkpt><trkpt lat="44.5532243" lon="8.0227564"><ele>619.1999999999999</ele><time>2026-04-06T14:39:21.213Z</time></trkpt><trkpt lat="44.5532367" lon="8.0226245"><ele>618.6</ele><time>2026-04-06T14:39:22.213Z</time></trkpt><trkpt lat="44.5532636" lon="8.0224797"><ele>618.0</ele><time>2026-04-06T14:39:23.213Z</time></trkpt><trkpt lat="44.5532747" lon="8.022323"><ele>617.0</ele><time>2026-04-06T14:39:24.213Z</time></trkpt><trkpt lat="44.5532574" lon="8.0221472"><ele>616.0</ele><time>2026-04-06T14:39:25.213Z</time></trkpt><trkpt lat="44.5532211" lon="8.0219827"><ele>615.0</ele><time>2026-04-06T14:39:26.213Z</time></trkpt><trkpt lat="44.553177" lon="8.0218454"><ele>614.0</ele><time>2026-04-06T14:39:27.213Z</time></trkpt><trkpt lat="44.5531341" lon="8.021725"><ele>613.2</ele><time>2026-04-06T14:39:28.213Z</time></trkpt><trkpt lat="44.553111" lon="8.0216055"><ele>612.4</ele><time>2026-04-06T14:39:29.213Z</time></trkpt><trkpt lat="44.5531083" lon="8.0214737"><ele>611.6</ele><time>2026-04-06T14:39:30.213Z</time></trkpt><trkpt lat="44.5531196" lon="8.0213331"><ele>610.8</ele><time>2026-04-06T14:39:31.213Z</time></trkpt><trkpt lat="44.5531456" lon="8.0211776"><ele>610.0</ele><time>2026-04-06T14:39:32.213Z</time></trkpt><trkpt lat="44.5531781" lon="8.0210092"><ele>610.0</ele><time>2026-04-06T14:39:33.213Z</time></trkpt><trkpt lat="44.5531969" lon="8.0208275"><ele>610.0</ele><time>2026-04-06T14:39:34.213Z</time></trkpt><trkpt lat="44.5532028" lon="8.0206518"><ele>610.0</ele><time>2026-04-06T14:39:35.213Z</time></trkpt><trkpt lat="44.5531925" lon="8.0204952"><ele>610.0</ele><time>2026-04-06T14:39:36.213Z</time></trkpt><trkpt lat="44.5531792" lon="8.0203596"><ele>609.5</ele><time>2026-04-06T14:39:37.213Z</time></trkpt><trkpt lat="44.5531627" lon="8.0202263"><ele>609.0</ele><time>2026-04-06T14:39:38.213Z</time></trkpt><trkpt lat="44.5531618" lon="8.0201076"><ele>608.5</ele><time>2026-04-06T14:39:39.213Z</time></trkpt><trkpt lat="44.5531802" lon="8.0199874"><ele>608.0</ele><time>2026-04-06T14:39:40.213Z</time></trkpt><trkpt lat="44.5532033" lon="8.0198889"><ele>607.5</ele><time>2026-04-06T14:39:41.213Z</time></trkpt><trkpt lat="44.5532296" lon="8.0197896"><ele>607.0</ele><time>2026-04-06T14:39:42.213Z</time></trkpt><trkpt lat="44.5532525" lon="8.0196993"><ele>606.1666666666667</ele><time>2026-04-06T14:39:43.213Z</time></trkpt><trkpt lat="44.5532781" lon="8.0196184"><ele>605.3333333333334</ele><time>2026-04-06T14:39:44.213Z</time></trkpt><trkpt lat="44.5533122" lon="8.019489"><ele>604.5</ele><time>2026-04-06T14:39:46.213Z</time></trkpt><trkpt lat="44.5533035" lon="8.0193796"><ele>603.6666666666666</ele><time>2026-04-06T14:39:49.213Z</time></trkpt><trkpt lat="44.5532811" lon="8.0195004"><ele>602.8333333333333</ele><time>2026-04-06T14:39:54.213Z</time></trkpt><trkpt lat="44.5532716" lon="8.0196112"><ele>602.0</ele><time>2026-04-06T14:39:56.213Z</time></trkpt><trkpt lat="44.553218" lon="8.0196775"><ele>602.0</ele><time>2026-04-06T14:39:58.213Z</time></trkpt><trkpt lat="44.5531617" lon="8.0197593"><ele>602.0</ele><time>2026-04-06T14:40:00.213Z</time></trkpt><trkpt lat="44.5531031" lon="8.0198318"><ele>602.0</ele><time>2026-04-06T14:40:02.213Z</time></trkpt><trkpt lat="44.5530403" lon="8.0198952"><ele>602.0</ele><time>2026-04-06T14:40:04.213Z</time></trkpt><trkpt lat="44.5529819" lon="8.0199919"><ele>602.0</ele><time>2026-04-06T14:40:07.213Z</time></trkpt><trkpt lat="44.5529481" lon="8.020078"><ele>602.0</ele><time>2026-04-06T14:40:09.213Z</time></trkpt><trkpt lat="44.5529247" lon="8.0201792"><ele>603.0</ele><time>2026-04-06T14:40:11.213Z</time></trkpt><trkpt lat="44.5529119" lon="8.0202895"><ele>604.0</ele><time>2026-04-06T14:40:13.213Z</time></trkpt><trkpt lat="44.5528931" lon="8.020425"><ele>605.0</ele><time>2026-04-06T14:40:15.213Z</time></trkpt><trkpt lat="44.5529001" lon="8.02056"><ele>606.0</ele><time>2026-04-06T14:40:17.214Z</time></trkpt><trkpt lat="44.5528901" lon="8.0207234"><ele>607.0</ele><time>2026-04-06T14:40:19.213Z</time></trkpt><trkpt lat="44.5528462" lon="8.0208804"><ele>603.9999999999999</ele><time>2026-04-06T14:40:21.213Z</time></trkpt><trkpt lat="44.5528201" lon="8.0209657"><ele>601.0</ele><time>2026-04-06T14:40:22.213Z</time></trkpt><trkpt lat="44.5527885" lon="8.0210539"><ele>598.0</ele><time>2026-04-06T14:40:23.213Z</time></trkpt><trkpt lat="44.5527579" lon="8.0211354"><ele>595.0</ele><time>2026-04-06T14:40:24.213Z</time></trkpt><trkpt lat="44.5527227" lon="8.0212127"><ele>592.0</ele><time>2026-04-06T14:40:25.213Z</time></trkpt><trkpt lat="44.5526917" lon="8.0212955"><ele>588.9999999999999</ele><time>2026-04-06T14:40:26.213Z</time></trkpt><trkpt lat="44.5526519" lon="8.0214305"><ele>586.0</ele><time>2026-04-06T14:40:28.213Z</time></trkpt><trkpt lat="44.5526119" lon="8.0215714"><ele>586.6666666666667</ele><time>2026-04-06T14:40:30.213Z</time></trkpt><trkpt lat="44.5525834" lon="8.0216971"><ele>587.3333333333334</ele><time>2026-04-06T14:40:32.213Z</time></trkpt><trkpt lat="44.5525578" lon="8.0218179"><ele>588.0</ele><time>2026-04-06T14:40:34.213Z</time></trkpt><trkpt lat="44.5525464" lon="8.0219248"><ele>588.6666666666666</ele><time>2026-04-06T14:40:36.213Z</time></trkpt><trkpt lat="44.5525528" lon="8.0220402"><ele>589.3333333333333</ele><time>2026-04-06T14:40:38.213Z</time></trkpt><trkpt lat="44.5525482" lon="8.0221558"><ele>590.0</ele><time>2026-04-06T14:40:40.213Z</time></trkpt><trkpt lat="44.5525357" lon="8.0222738"><ele>590.0</ele><time>2026-04-06T14:40:42.213Z</time></trkpt><trkpt lat="44.5525067" lon="8.0223871"><ele>590.0</ele><time>2026-04-06T14:40:44.213Z</time></trkpt><trkpt lat="44.5524917" lon="8.0225033"><ele>590.0</ele><time>2026-04-06T14:40:46.213Z</time></trkpt><trkpt lat="44.5524728" lon="8.0226064"><ele>590.0</ele><time>2026-04-06T14:40:48.213Z</time></trkpt><trkpt lat="44.5524594" lon="8.0227368"><ele>590.0</ele><time>2026-04-06T14:40:50.213Z</time></trkpt><trkpt lat="44.5524453" lon="8.0228679"><ele>590.0</ele><time>2026-04-06T14:40:52.213Z</time></trkpt><trkpt lat="44.5523945" lon="8.0230128"><ele>590.2</ele><time>2026-04-06T14:40:54.213Z</time></trkpt><trkpt lat="44.5523673" lon="8.0230932"><ele>590.4</ele><time>2026-04-06T14:40:55.213Z</time></trkpt><trkpt lat="44.5523405" lon="8.0231732"><ele>590.6</ele><time>2026-04-06T14:40:56.213Z</time></trkpt><trkpt lat="44.5522529" lon="8.0232961"><ele>590.8</ele><time>2026-04-06T14:40:58.213Z</time></trkpt><trkpt lat="44.5521762" lon="8.023409"><ele>591.0</ele><time>2026-04-06T14:41:00.213Z</time></trkpt><trkpt lat="44.5521458" lon="8.0235384"><ele>591.0</ele><time>2026-04-06T14:41:02.213Z</time></trkpt><trkpt lat="44.5521453" lon="8.0237246"><ele>591.0</ele><time>2026-04-06T14:41:04.213Z</time></trkpt><trkpt lat="44.5521216" lon="8.0238876"><ele>591.0</ele><time>2026-04-06T14:41:06.214Z</time></trkpt><trkpt lat="44.552116" lon="8.0240488"><ele>591.0</ele><time>2026-04-06T14:41:08.213Z</time></trkpt><trkpt lat="44.5521245" lon="8.0242043"><ele>592.2</ele><time>2026-04-06T14:41:10.213Z</time></trkpt><trkpt lat="44.5521088" lon="8.024345"><ele>593.4000000000001</ele><time>2026-04-06T14:41:12.213Z</time></trkpt><trkpt lat="44.5520806" lon="8.0244993"><ele>594.6</ele><time>2026-04-06T14:41:14.213Z</time></trkpt><trkpt lat="44.5520581" lon="8.0246622"><ele>595.8000000000001</ele><time>2026-04-06T14:41:16.213Z</time></trkpt><trkpt lat="44.5520157" lon="8.0248016"><ele>597.0</ele><time>2026-04-06T14:41:18.213Z</time></trkpt><trkpt lat="44.5519709" lon="8.0249127"><ele>591.1666666666666</ele><time>2026-04-06T14:41:20.213Z</time></trkpt><trkpt lat="44.5519224" lon="8.0250014"><ele>585.3333333333334</ele><time>2026-04-06T14:41:22.213Z</time></trkpt><trkpt lat="44.5518818" lon="8.0251123"><ele>579.5</ele><time>2026-04-06T14:41:25.213Z</time></trkpt><trkpt lat="44.551896" lon="8.0252181"><ele>573.6666666666667</ele><time>2026-04-06T14:41:27.213Z</time></trkpt><trkpt lat="44.5519302" lon="8.0253289"><ele>567.8333333333334</ele><time>2026-04-06T14:41:29.213Z</time></trkpt><trkpt lat="44.5519088" lon="8.0254399"><ele>562.0</ele><time>2026-04-06T14:41:32.214Z</time></trkpt><trkpt lat="44.5518527" lon="8.0255524"><ele>562.0</ele><time>2026-04-06T14:41:35.213Z</time></trkpt><trkpt lat="44.5518192" lon="8.0256507"><ele>562.0</ele><time>2026-04-06T14:41:37.213Z</time></trkpt><trkpt lat="44.5517638" lon="8.0257222"><ele>562.0</ele><time>2026-04-06T14:41:39.213Z</time></trkpt><trkpt lat="44.5517125" lon="8.0258041"><ele>562.0</ele><time>2026-04-06T14:41:41.213Z</time></trkpt><trkpt lat="44.5516719" lon="8.0259011"><ele>562.0</ele><time>2026-04-06T14:41:44.213Z</time></trkpt><trkpt lat="44.5516284" lon="8.0259718"><ele>562.0</ele><time>2026-04-06T14:41:47.213Z</time></trkpt><trkpt lat="44.5515863" lon="8.0260584"><ele>562.4285714285714</ele><time>2026-04-06T14:41:50.213Z</time></trkpt><trkpt lat="44.5515558" lon="8.0261472"><ele>562.8571428571429</ele><time>2026-04-06T14:41:53.213Z</time></trkpt><trkpt lat="44.5515246" lon="8.0262403"><ele>563.2857142857142</ele><time>2026-04-06T14:41:55.213Z</time></trkpt><trkpt lat="44.55152" lon="8.0263322"><ele>563.7142857142858</ele><time>2026-04-06T14:41:57.213Z</time></trkpt><trkpt lat="44.5515047" lon="8.0264286"><ele>564.1428571428571</ele><time>2026-04-06T14:41:59.213Z</time></trkpt><trkpt lat="44.5515039" lon="8.0265173"><ele>564.5714285714286</ele><time>2026-04-06T14:42:01.213Z</time></trkpt><trkpt lat="44.5515164" lon="8.0266412"><ele>565.0</ele><time>2026-04-06T14:42:04.213Z</time></trkpt><trkpt lat="44.5515182" lon="8.0267447"><ele>565.3333333333334</ele><time>2026-04-06T14:42:06.213Z</time></trkpt><trkpt lat="44.5515389" lon="8.026853"><ele>565.6666666666667</ele><time>2026-04-06T14:42:08.213Z</time></trkpt><trkpt lat="44.5515542" lon="8.0269624"><ele>566.0</ele><time>2026-04-06T14:42:10.213Z</time></trkpt><trkpt lat="44.5515798" lon="8.0270535"><ele>566.3333333333334</ele><time>2026-04-06T14:42:12.213Z</time></trkpt><trkpt lat="44.5515993" lon="8.0271495"><ele>566.6666666666666</ele><time>2026-04-06T14:42:14.213Z</time></trkpt><trkpt lat="44.5516114" lon="8.0272547"><ele>567.0</ele><time>2026-04-06T14:42:16.213Z</time></trkpt><trkpt lat="44.5516354" lon="8.0273545"><ele>567.0</ele><time>2026-04-06T14:42:18.213Z</time></trkpt><trkpt lat="44.5516725" lon="8.0274428"><ele>567.0</ele><time>2026-04-06T14:42:20.213Z</time></trkpt><trkpt lat="44.5517066" lon="8.0275264"><ele>567.0</ele><time>2026-04-06T14:42:22.213Z</time></trkpt><trkpt lat="44.5517192" lon="8.0276151"><ele>567.0</ele><time>2026-04-06T14:42:24.213Z</time></trkpt><trkpt lat="44.5517522" lon="8.0277051"><ele>567.0</ele><time>2026-04-06T14:42:26.213Z</time></trkpt><trkpt lat="44.5518171" lon="8.0277885"><ele>567.0</ele><time>2026-04-06T14:42:28.213Z</time></trkpt><trkpt lat="44.5518367" lon="8.0279001"><ele>567.0</ele><time>2026-04-06T14:42:31.213Z</time></trkpt><trkpt lat="44.551773" lon="8.0278937"><ele>564.8333333333334</ele><time>2026-04-06T14:42:34.213Z</time></trkpt><trkpt lat="44.5517289" lon="8.0278079"><ele>562.6666666666666</ele><time>2026-04-06T14:42:36.213Z</time></trkpt><trkpt lat="44.5516761" lon="8.0277554"><ele>560.5</ele><time>2026-04-06T14:42:38.213Z</time></trkpt><trkpt lat="44.5515913" lon="8.0277352"><ele>558.3333333333333</ele><time>2026-04-06T14:42:40.213Z</time></trkpt><trkpt lat="44.5514883" lon="8.0277233"><ele>556.1666666666666</ele><time>2026-04-06T14:42:42.213Z</time></trkpt><trkpt lat="44.5513904" lon="8.0277144"><ele>554.0</ele><time>2026-04-06T14:42:44.213Z</time></trkpt><trkpt lat="44.5512961" lon="8.0276941"><ele>554.0</ele><time>2026-04-06T14:42:46.213Z</time></trkpt><trkpt lat="44.5512169" lon="8.0276865"><ele>554.0</ele><time>2026-04-06T14:42:48.213Z</time></trkpt><trkpt lat="44.5511363" lon="8.0276847"><ele>554.0</ele><time>2026-04-06T14:42:50.213Z</time></trkpt><trkpt lat="44.5510646" lon="8.0276823"><ele>554.0</ele><time>2026-04-06T14:42:52.213Z</time></trkpt><trkpt lat="44.5509686" lon="8.0276896"><ele>554.0</ele><time>2026-04-06T14:42:54.213Z</time></trkpt><trkpt lat="44.5508816" lon="8.0277195"><ele>554.0</ele><time>2026-04-06T14:42:56.213Z</time></trkpt><trkpt lat="44.5508053" lon="8.0277499"><ele>549.0</ele><time>2026-04-06T14:42:58.213Z</time></trkpt><trkpt lat="44.5507287" lon="8.027801"><ele>544.0</ele><time>2026-04-06T14:43:00.213Z</time></trkpt><trkpt lat="44.5506577" lon="8.0278471"><ele>539.0</ele><time>2026-04-06T14:43:02.213Z</time></trkpt><trkpt lat="44.5506108" lon="8.0279143"><ele>534.0</ele><time>2026-04-06T14:43:04.213Z</time></trkpt><trkpt lat="44.5506007" lon="8.028041"><ele>529.0</ele><time>2026-04-06T14:43:07.213Z</time></trkpt><trkpt lat="44.5505442" lon="8.0280815"><ele>524.0</ele><time>2026-04-06T14:43:10.213Z</time></trkpt><trkpt lat="44.5504659" lon="8.0280921"><ele>524.0</ele><time>2026-04-06T14:43:12.213Z</time></trkpt><trkpt lat="44.5503931" lon="8.0280821"><ele>524.0</ele><time>2026-04-06T14:43:14.213Z</time></trkpt><trkpt lat="44.5503173" lon="8.0280318"><ele>524.0</ele><time>2026-04-06T14:43:16.213Z</time></trkpt><trkpt lat="44.5502588" lon="8.0279233"><ele>524.0</ele><time>2026-04-06T14:43:18.213Z</time></trkpt><trkpt lat="44.5501827" lon="8.0277782"><ele>524.0</ele><time>2026-04-06T14:43:20.213Z</time></trkpt><trkpt lat="44.5501513" lon="8.0276881"><ele>524.3333333333333</ele><time>2026-04-06T14:43:21.213Z</time></trkpt><trkpt lat="44.5501283" lon="8.027521"><ele>524.6666666666666</ele><time>2026-04-06T14:43:23.213Z</time></trkpt><trkpt lat="44.5501007" lon="8.0274352"><ele>525.0</ele><time>2026-04-06T14:43:24.213Z</time></trkpt><trkpt lat="44.5500741" lon="8.0273449"><ele>525.3333333333334</ele><time>2026-04-06T14:43:25.213Z</time></trkpt><trkpt lat="44.5500616" lon="8.0272563"><ele>525.6666666666667</ele><time>2026-04-06T14:43:26.213Z</time></trkpt><trkpt lat="44.5500733" lon="8.0270965"><ele>526.0</ele><time>2026-04-06T14:43:28.213Z</time></trkpt><trkpt lat="44.5500627" lon="8.0269506"><ele>526.6666666666667</ele><time>2026-04-06T14:43:30.213Z</time></trkpt><trkpt lat="44.5500192" lon="8.0268719"><ele>527.3333333333334</ele><time>2026-04-06T14:43:31.213Z</time></trkpt><trkpt lat="44.5499899" lon="8.0267857"><ele>528.0</ele><time>2026-04-06T14:43:32.213Z</time></trkpt><trkpt lat="44.5499668" lon="8.0267018"><ele>528.6666666666666</ele><time>2026-04-06T14:43:33.213Z</time></trkpt><trkpt lat="44.5499082" lon="8.0265326"><ele>529.3333333333333</ele><time>2026-04-06T14:43:35.213Z</time></trkpt><trkpt lat="44.5498655" lon="8.0264508"><ele>530.0</ele><time>2026-04-06T14:43:36.213Z</time></trkpt><trkpt lat="44.5498363" lon="8.0263688"><ele>530.0</ele><time>2026-04-06T14:43:37.213Z</time></trkpt><trkpt lat="44.5498074" lon="8.0262874"><ele>530.0</ele><time>2026-04-06T14:43:38.213Z</time></trkpt><trkpt lat="44.5497807" lon="8.0262036"><ele>530.0</ele><time>2026-04-06T14:43:39.213Z</time></trkpt><trkpt lat="44.5496799" lon="8.0261196"><ele>530.0</ele><time>2026-04-06T14:43:41.213Z</time></trkpt><trkpt lat="44.5495877" lon="8.0261897"><ele>530.0</ele><time>2026-04-06T14:43:43.213Z</time></trkpt><trkpt lat="44.5495757" lon="8.0262771"><ele>530.0</ele><time>2026-04-06T14:43:44.213Z</time></trkpt><trkpt lat="44.54957" lon="8.0263723"><ele>530.0</ele><time>2026-04-06T14:43:45.213Z</time></trkpt><trkpt lat="44.5495561" lon="8.026489"><ele>530.0</ele><time>2026-04-06T14:43:46.213Z</time></trkpt><trkpt lat="44.5495394" lon="8.0266183"><ele>530.0</ele><time>2026-04-06T14:43:47.213Z</time></trkpt><trkpt lat="44.5495299" lon="8.0267365"><ele>530.0</ele><time>2026-04-06T14:43:48.213Z</time></trkpt><trkpt lat="44.5495118" lon="8.0268218"><ele>530.0</ele><time>2026-04-06T14:43:49.213Z</time></trkpt><trkpt lat="44.5494916" lon="8.0269065"><ele>530.0</ele><time>2026-04-06T14:43:50.213Z</time></trkpt><trkpt lat="44.5494435" lon="8.0270612"><ele>533.8</ele><time>2026-04-06T14:43:52.213Z</time></trkpt><trkpt lat="44.5494015" lon="8.0271276"><ele>537.6</ele><time>2026-04-06T14:43:53.213Z</time></trkpt><trkpt lat="44.549309" lon="8.027197"><ele>541.4</ele><time>2026-04-06T14:43:55.213Z</time></trkpt><trkpt lat="44.5491817" lon="8.0272445"><ele>545.2</ele><time>2026-04-06T14:43:57.213Z</time></trkpt><trkpt lat="44.5491187" lon="8.027256"><ele>549.0</ele><time>2026-04-06T14:43:58.213Z</time></trkpt><trkpt lat="44.5489896" lon="8.0272663"><ele>549.0</ele><time>2026-04-06T14:44:00.213Z</time></trkpt><trkpt lat="44.5489161" lon="8.027272"><ele>549.0</ele><time>2026-04-06T14:44:01.213Z</time></trkpt><trkpt lat="44.5488377" lon="8.027288"><ele>549.0</ele><time>2026-04-06T14:44:02.213Z</time></trkpt><trkpt lat="44.5487662" lon="8.0273246"><ele>549.0</ele><time>2026-04-06T14:44:03.213Z</time></trkpt><trkpt lat="44.5487041" lon="8.0273822"><ele>549.0</ele><time>2026-04-06T14:44:04.213Z</time></trkpt><trkpt lat="44.5486449" lon="8.0274427"><ele>549.0</ele><time>2026-04-06T14:44:05.213Z</time></trkpt><trkpt lat="44.548599" lon="8.0275183"><ele>549.0</ele><time>2026-04-06T14:44:06.214Z</time></trkpt><trkpt lat="44.5485536" lon="8.0276051"><ele>552.5</ele><time>2026-04-06T14:44:07.213Z</time></trkpt><trkpt lat="44.5485189" lon="8.0277113"><ele>556.0</ele><time>2026-04-06T14:44:08.213Z</time></trkpt><trkpt lat="44.5484957" lon="8.0278243"><ele>559.5</ele><time>2026-04-06T14:44:09.213Z</time></trkpt><trkpt lat="44.5484754" lon="8.02793"><ele>563.0</ele><time>2026-04-06T14:44:10.213Z</time></trkpt><trkpt lat="44.548462" lon="8.0280231"><ele>566.5</ele><time>2026-04-06T14:44:11.213Z</time></trkpt><trkpt lat="44.5484354" lon="8.0281166"><ele>570.0</ele><time>2026-04-06T14:44:12.213Z</time></trkpt><trkpt lat="44.5484103" lon="8.0282128"><ele>570.0</ele><time>2026-04-06T14:44:13.213Z</time></trkpt><trkpt lat="44.5483853" lon="8.0283045"><ele>570.0</ele><time>2026-04-06T14:44:14.213Z</time></trkpt><trkpt lat="44.5483651" lon="8.0283933"><ele>570.0</ele><time>2026-04-06T14:44:15.213Z</time></trkpt><trkpt lat="44.5483132" lon="8.0285283"><ele>570.0</ele><time>2026-04-06T14:44:17.213Z</time></trkpt><trkpt lat="44.5482239" lon="8.0285988"><ele>570.0</ele><time>2026-04-06T14:44:19.213Z</time></trkpt><trkpt lat="44.5481717" lon="8.0286565"><ele>570.0</ele><time>2026-04-06T14:44:20.213Z</time></trkpt><trkpt lat="44.5481281" lon="8.0287307"><ele>567.8</ele><time>2026-04-06T14:44:21.213Z</time></trkpt><trkpt lat="44.5480843" lon="8.0288057"><ele>565.6</ele><time>2026-04-06T14:44:22.213Z</time></trkpt><trkpt lat="44.5480074" lon="8.0289129"><ele>563.4</ele><time>2026-04-06T14:44:24.213Z</time></trkpt><trkpt lat="44.5479094" lon="8.0289888"><ele>561.2</ele><time>2026-04-06T14:44:26.213Z</time></trkpt><trkpt lat="44.5477881" lon="8.0290414"><ele>559.0</ele><time>2026-04-06T14:44:28.213Z</time></trkpt><trkpt lat="44.5477348" lon="8.0290888"><ele>561.8333333333334</ele><time>2026-04-06T14:44:29.213Z</time></trkpt><trkpt lat="44.5476837" lon="8.0291427"><ele>564.6666666666667</ele><time>2026-04-06T14:44:30.213Z</time></trkpt><trkpt lat="44.5475679" lon="8.0292196"><ele>567.5</ele><time>2026-04-06T14:44:32.214Z</time></trkpt><trkpt lat="44.5475026" lon="8.0292812"><ele>570.3333333333334</ele><time>2026-04-06T14:44:34.213Z</time></trkpt><trkpt lat="44.5474424" lon="8.0293286"><ele>573.1666666666666</ele><time>2026-04-06T14:44:46.213Z</time></trkpt><trkpt lat="44.5473789" lon="8.0293965"><ele>576.0</ele><time>2026-04-06T14:44:49.213Z</time></trkpt><trkpt lat="44.5473268" lon="8.0294623"><ele>576.0</ele><time>2026-04-06T14:44:52.213Z</time></trkpt><trkpt lat="44.5472841" lon="8.0295347"><ele>576.0</ele><time>2026-04-06T14:44:56.213Z</time></trkpt><trkpt lat="44.5472351" lon="8.0296439"><ele>576.0</ele><time>2026-04-06T14:44:59.213Z</time></trkpt><trkpt lat="44.5472165" lon="8.0297452"><ele>576.0</ele><time>2026-04-06T14:45:01.213Z</time></trkpt><trkpt lat="44.5471762" lon="8.0298388"><ele>576.0</ele><time>2026-04-06T14:45:03.213Z</time></trkpt><trkpt lat="44.5471235" lon="8.029941"><ele>576.0</ele><time>2026-04-06T14:45:05.213Z</time></trkpt><trkpt lat="44.5470974" lon="8.0300245"><ele>575.5</ele><time>2026-04-06T14:45:06.213Z</time></trkpt><trkpt lat="44.5470821" lon="8.0301121"><ele>575.0</ele><time>2026-04-06T14:45:07.213Z</time></trkpt><trkpt lat="44.5470232" lon="8.0302347"><ele>574.5</ele><time>2026-04-06T14:45:09.213Z</time></trkpt><trkpt lat="44.5469564" lon="8.0303465"><ele>574.0</ele><time>2026-04-06T14:45:11.214Z</time></trkpt><trkpt lat="44.5468998" lon="8.0304145"><ele>573.5</ele><time>2026-04-06T14:45:13.213Z</time></trkpt><trkpt lat="44.5468489" lon="8.0304675"><ele>573.0</ele><time>2026-04-06T14:45:15.213Z</time></trkpt><trkpt lat="44.546812" lon="8.0305533"><ele>575.1999999999999</ele><time>2026-04-06T14:45:18.213Z</time></trkpt><trkpt lat="44.5467411" lon="8.0306304"><ele>577.4</ele><time>2026-04-06T14:45:29.213Z</time></trkpt><trkpt lat="44.5466791" lon="8.0307162"><ele>579.5999999999999</ele><time>2026-04-06T14:45:31.213Z</time></trkpt><trkpt lat="44.5465871" lon="8.0308517"><ele>581.8</ele><time>2026-04-06T14:45:33.213Z</time></trkpt><trkpt lat="44.5465314" lon="8.0309417"><ele>584.0</ele><time>2026-04-06T14:45:34.214Z</time></trkpt><trkpt lat="44.5464789" lon="8.031031"><ele>584.0</ele><time>2026-04-06T14:45:35.213Z</time></trkpt><trkpt lat="44.546428" lon="8.0311173"><ele>584.0</ele><time>2026-04-06T14:45:36.213Z</time></trkpt><trkpt lat="44.546368" lon="8.0312059"><ele>584.0</ele><time>2026-04-06T14:45:37.213Z</time></trkpt><trkpt lat="44.5463169" lon="8.0313126"><ele>584.0</ele><time>2026-04-06T14:45:38.213Z</time></trkpt><trkpt lat="44.5462577" lon="8.0314124"><ele>584.0</ele><time>2026-04-06T14:45:39.213Z</time></trkpt><trkpt lat="44.5461982" lon="8.0315097"><ele>584.0</ele><time>2026-04-06T14:45:40.213Z</time></trkpt><trkpt lat="44.5461381" lon="8.0315959"><ele>585.1428571428571</ele><time>2026-04-06T14:45:41.213Z</time></trkpt><trkpt lat="44.546082" lon="8.0316835"><ele>586.2857142857143</ele><time>2026-04-06T14:45:42.213Z</time></trkpt><trkpt lat="44.5460272" lon="8.0317574"><ele>587.4285714285714</ele><time>2026-04-06T14:45:43.213Z</time></trkpt><trkpt lat="44.5459785" lon="8.0318341"><ele>588.5714285714286</ele><time>2026-04-06T14:45:44.213Z</time></trkpt><trkpt lat="44.5459336" lon="8.0319081"><ele>589.7142857142857</ele><time>2026-04-06T14:45:45.213Z</time></trkpt><trkpt lat="44.5458875" lon="8.031986"><ele>590.8571428571429</ele><time>2026-04-06T14:45:46.213Z</time></trkpt><trkpt lat="44.5458381" lon="8.0320628"><ele>592.0</ele><time>2026-04-06T14:45:47.213Z</time></trkpt><trkpt lat="44.5457679" lon="8.0321395"><ele>592.0</ele><time>2026-04-06T14:45:48.213Z</time></trkpt><trkpt lat="44.5456975" lon="8.0322026"><ele>592.0</ele><time>2026-04-06T14:45:49.213Z</time></trkpt><trkpt lat="44.5456203" lon="8.0322635"><ele>592.0</ele><time>2026-04-06T14:45:50.213Z</time></trkpt><trkpt lat="44.5455446" lon="8.032319"><ele>592.0</ele><time>2026-04-06T14:45:51.213Z</time></trkpt><trkpt lat="44.5454824" lon="8.0323978"><ele>592.0</ele><time>2026-04-06T14:45:52.213Z</time></trkpt><trkpt lat="44.5454281" lon="8.032496"><ele>592.0</ele><time>2026-04-06T14:45:53.213Z</time></trkpt><trkpt lat="44.5453786" lon="8.0325983"><ele>593.5</ele><time>2026-04-06T14:45:54.213Z</time></trkpt><trkpt lat="44.5453309" lon="8.0326968"><ele>595.0</ele><time>2026-04-06T14:45:55.213Z</time></trkpt><trkpt lat="44.5452802" lon="8.0328011"><ele>596.5</ele><time>2026-04-06T14:45:56.213Z</time></trkpt><trkpt lat="44.5452265" lon="8.0328937"><ele>598.0</ele><time>2026-04-06T14:45:57.213Z</time></trkpt><trkpt lat="44.545172" lon="8.0329825"><ele>599.5</ele><time>2026-04-06T14:45:58.213Z</time></trkpt><trkpt lat="44.5451209" lon="8.0330737"><ele>601.0</ele><time>2026-04-06T14:45:59.213Z</time></trkpt><trkpt lat="44.545062" lon="8.0331653"><ele>601.0</ele><time>2026-04-06T14:46:00.213Z</time></trkpt><trkpt lat="44.5449995" lon="8.033252"><ele>601.0</ele><time>2026-04-06T14:46:01.213Z</time></trkpt><trkpt lat="44.5449378" lon="8.0333147"><ele>601.0</ele><time>2026-04-06T14:46:02.213Z</time></trkpt><trkpt lat="44.5448764" lon="8.0333643"><ele>601.0</ele><time>2026-04-06T14:46:03.213Z</time></trkpt><trkpt lat="44.5448004" lon="8.0334079"><ele>601.0</ele><time>2026-04-06T14:46:04.214Z</time></trkpt><trkpt lat="44.544716" lon="8.0334482"><ele>601.0</ele><time>2026-04-06T14:46:05.213Z</time></trkpt><trkpt lat="44.5446384" lon="8.0334976"><ele>599.6666666666667</ele><time>2026-04-06T14:46:06.213Z</time></trkpt><trkpt lat="44.5445682" lon="8.0335574"><ele>598.3333333333334</ele><time>2026-04-06T14:46:07.213Z</time></trkpt><trkpt lat="44.5445097" lon="8.0336267"><ele>597.0</ele><time>2026-04-06T14:46:08.213Z</time></trkpt><trkpt lat="44.5444621" lon="8.0337016"><ele>595.6666666666666</ele><time>2026-04-06T14:46:09.213Z</time></trkpt><trkpt lat="44.5444123" lon="8.0337783"><ele>594.3333333333333</ele><time>2026-04-06T14:46:10.213Z</time></trkpt><trkpt lat="44.5443643" lon="8.0338695"><ele>593.0</ele><time>2026-04-06T14:46:11.213Z</time></trkpt><trkpt lat="44.5443032" lon="8.0339523"><ele>595.8333333333333</ele><time>2026-04-06T14:46:12.213Z</time></trkpt><trkpt lat="44.5442365" lon="8.0340102"><ele>598.6666666666666</ele><time>2026-04-06T14:46:13.214Z</time></trkpt><trkpt lat="44.5441833" lon="8.0340813"><ele>601.5</ele><time>2026-04-06T14:46:14.213Z</time></trkpt><trkpt lat="44.5441443" lon="8.034163"><ele>604.3333333333334</ele><time>2026-04-06T14:46:15.213Z</time></trkpt><trkpt lat="44.5441281" lon="8.0342548"><ele>607.1666666666667</ele><time>2026-04-06T14:46:16.213Z</time></trkpt><trkpt lat="44.5440621" lon="8.0343902"><ele>610.0</ele><time>2026-04-06T14:46:18.213Z</time></trkpt><trkpt lat="44.5440057" lon="8.0344642"><ele>610.0</ele><time>2026-04-06T14:46:19.213Z</time></trkpt><trkpt lat="44.5439272" lon="8.0345403"><ele>610.0</ele><time>2026-04-06T14:46:20.213Z</time></trkpt><trkpt lat="44.5438402" lon="8.0346107"><ele>610.0</ele><time>2026-04-06T14:46:21.213Z</time></trkpt><trkpt lat="44.5437508" lon="8.0346925"><ele>610.0</ele><time>2026-04-06T14:46:22.213Z</time></trkpt><trkpt lat="44.5436622" lon="8.0347657"><ele>610.0</ele><time>2026-04-06T14:46:23.214Z</time></trkpt><trkpt lat="44.54357" lon="8.0348523"><ele>613.25</ele><time>2026-04-06T14:46:24.213Z</time></trkpt><trkpt lat="44.5434722" lon="8.0349436"><ele>616.5</ele><time>2026-04-06T14:46:25.213Z</time></trkpt><trkpt lat="44.5433767" lon="8.0350443"><ele>619.75</ele><time>2026-04-06T14:46:26.213Z</time></trkpt><trkpt lat="44.5432796" lon="8.0351326"><ele>623.0</ele><time>2026-04-06T14:46:27.213Z</time></trkpt><trkpt lat="44.5431877" lon="8.0352251"><ele>623.0</ele><time>2026-04-06T14:46:28.213Z</time></trkpt><trkpt lat="44.5431023" lon="8.0353142"><ele>623.0</ele><time>2026-04-06T14:46:29.213Z</time></trkpt><trkpt lat="44.5430274" lon="8.0353893"><ele>623.0</ele><time>2026-04-06T14:46:30.213Z</time></trkpt><trkpt lat="44.5429585" lon="8.0354455"><ele>623.0</ele><time>2026-04-06T14:46:31.213Z</time></trkpt><trkpt lat="44.5428765" lon="8.0354874"><ele>623.0</ele><time>2026-04-06T14:46:32.213Z</time></trkpt><trkpt lat="44.542793" lon="8.0355348"><ele>625.8</ele><time>2026-04-06T14:46:33.213Z</time></trkpt><trkpt lat="44.5427244" lon="8.0355905"><ele>628.5999999999999</ele><time>2026-04-06T14:46:34.213Z</time></trkpt><trkpt lat="44.5426664" lon="8.0356649"><ele>631.4000000000001</ele><time>2026-04-06T14:46:35.213Z</time></trkpt><trkpt lat="44.5426127" lon="8.0357705"><ele>634.2</ele><time>2026-04-06T14:46:36.213Z</time></trkpt><trkpt lat="44.542552" lon="8.0358778"><ele>637.0</ele><time>2026-04-06T14:46:37.213Z</time></trkpt><trkpt lat="44.5424735" lon="8.0359882"><ele>637.0</ele><time>2026-04-06T14:46:38.213Z</time></trkpt><trkpt lat="44.5423858" lon="8.0360947"><ele>637.0</ele><time>2026-04-06T14:46:39.213Z</time></trkpt><trkpt lat="44.5423007" lon="8.0362035"><ele>637.0</ele><time>2026-04-06T14:46:40.213Z</time></trkpt><trkpt lat="44.5422151" lon="8.0363246"><ele>637.0</ele><time>2026-04-06T14:46:41.213Z</time></trkpt><trkpt lat="44.5421275" lon="8.0364254"><ele>640.0</ele><time>2026-04-06T14:46:42.213Z</time></trkpt><trkpt lat="44.5420377" lon="8.03653"><ele>643.0</ele><time>2026-04-06T14:46:43.213Z</time></trkpt><trkpt lat="44.5419496" lon="8.0366407"><ele>646.0</ele><time>2026-04-06T14:46:44.213Z</time></trkpt><trkpt lat="44.5418611" lon="8.036747"><ele>649.0</ele><time>2026-04-06T14:46:45.213Z</time></trkpt><trkpt lat="44.541787" lon="8.0368341"><ele>652.0</ele><time>2026-04-06T14:46:46.213Z</time></trkpt><trkpt lat="44.5417404" lon="8.0369451"><ele>652.0</ele><time>2026-04-06T14:46:47.213Z</time></trkpt><trkpt lat="44.5417197" lon="8.0370659"><ele>652.0</ele><time>2026-04-06T14:46:48.213Z</time></trkpt><trkpt lat="44.5417101" lon="8.037174"><ele>652.0</ele><time>2026-04-06T14:46:49.213Z</time></trkpt><trkpt lat="44.5417013" lon="8.0372738"><ele>652.0</ele><time>2026-04-06T14:46:50.213Z</time></trkpt><trkpt lat="44.5416879" lon="8.0373671"><ele>652.0</ele><time>2026-04-06T14:46:51.213Z</time></trkpt><trkpt lat="44.5416597" lon="8.037522"><ele>652.0</ele><time>2026-04-06T14:46:53.213Z</time></trkpt><trkpt lat="44.5416497" lon="8.0376646"><ele>649.4</ele><time>2026-04-06T14:46:55.213Z</time></trkpt><trkpt lat="44.5416032" lon="8.0378029"><ele>646.8000000000001</ele><time>2026-04-06T14:46:57.213Z</time></trkpt><trkpt lat="44.5415532" lon="8.037952"><ele>644.2</ele><time>2026-04-06T14:46:59.213Z</time></trkpt><trkpt lat="44.5415172" lon="8.0380452"><ele>641.6</ele><time>2026-04-06T14:47:00.213Z</time></trkpt><trkpt lat="44.5414747" lon="8.0381353"><ele>639.0</ele><time>2026-04-06T14:47:01.213Z</time></trkpt><trkpt lat="44.5414269" lon="8.0382186"><ele>639.0</ele><time>2026-04-06T14:47:02.213Z</time></trkpt><trkpt lat="44.5413822" lon="8.0382863"><ele>639.0</ele><time>2026-04-06T14:47:03.213Z</time></trkpt><trkpt lat="44.5413274" lon="8.0383566"><ele>639.0</ele><time>2026-04-06T14:47:04.213Z</time></trkpt><trkpt lat="44.5412623" lon="8.038416"><ele>639.0</ele><time>2026-04-06T14:47:05.214Z</time></trkpt><trkpt lat="44.5411891" lon="8.0384673"><ele>639.0</ele><time>2026-04-06T14:47:06.213Z</time></trkpt><trkpt lat="44.5411163" lon="8.0385155"><ele>639.0</ele><time>2026-04-06T14:47:07.213Z</time></trkpt><trkpt lat="44.5410442" lon="8.0385544"><ele>640.3333333333334</ele><time>2026-04-06T14:47:08.213Z</time></trkpt><trkpt lat="44.5409754" lon="8.0385901"><ele>641.6666666666666</ele><time>2026-04-06T14:47:09.213Z</time></trkpt><trkpt lat="44.540901" lon="8.0386057"><ele>643.0</ele><time>2026-04-06T14:47:10.213Z</time></trkpt><trkpt lat="44.5408195" lon="8.0385936"><ele>644.3333333333333</ele><time>2026-04-06T14:47:11.213Z</time></trkpt><trkpt lat="44.5407354" lon="8.0386002"><ele>645.6666666666666</ele><time>2026-04-06T14:47:12.213Z</time></trkpt><trkpt lat="44.5406549" lon="8.0386182"><ele>647.0</ele><time>2026-04-06T14:47:13.213Z</time></trkpt><trkpt lat="44.5405906" lon="8.0386602"><ele>647.0</ele><time>2026-04-06T14:47:14.213Z</time></trkpt><trkpt lat="44.5405254" lon="8.0387105"><ele>647.0</ele><time>2026-04-06T14:47:15.214Z</time></trkpt><trkpt lat="44.5404593" lon="8.0387786"><ele>647.0</ele><time>2026-04-06T14:47:16.213Z</time></trkpt><trkpt lat="44.5403761" lon="8.0388379"><ele>647.0</ele><time>2026-04-06T14:47:17.213Z</time></trkpt><trkpt lat="44.5402928" lon="8.0388892"><ele>647.0</ele><time>2026-04-06T14:47:18.213Z</time></trkpt><trkpt lat="44.5402022" lon="8.0389304"><ele>647.0</ele><time>2026-04-06T14:47:19.213Z</time></trkpt><trkpt lat="44.5401197" lon="8.0389756"><ele>648.1666666666666</ele><time>2026-04-06T14:47:20.213Z</time></trkpt><trkpt lat="44.5400393" lon="8.0390203"><ele>649.3333333333333</ele><time>2026-04-06T14:47:21.213Z</time></trkpt><trkpt lat="44.5399731" lon="8.0390693"><ele>650.5</ele><time>2026-04-06T14:47:22.213Z</time></trkpt><trkpt lat="44.5399226" lon="8.0391484"><ele>651.6666666666666</ele><time>2026-04-06T14:47:23.213Z</time></trkpt><trkpt lat="44.5398795" lon="8.0392398"><ele>652.8333333333334</ele><time>2026-04-06T14:47:24.213Z</time></trkpt><trkpt lat="44.5398311" lon="8.0393461"><ele>654.0</ele><time>2026-04-06T14:47:25.213Z</time></trkpt><trkpt lat="44.5397957" lon="8.039466"><ele>654.0</ele><time>2026-04-06T14:47:26.213Z</time></trkpt><trkpt lat="44.5397732" lon="8.039594"><ele>654.0</ele><time>2026-04-06T14:47:27.213Z</time></trkpt><trkpt lat="44.5397621" lon="8.0397263"><ele>654.0</ele><time>2026-04-06T14:47:28.213Z</time></trkpt><trkpt lat="44.5397581" lon="8.039826"><ele>654.0</ele><time>2026-04-06T14:47:29.213Z</time></trkpt><trkpt lat="44.5397334" lon="8.0399146"><ele>654.0</ele><time>2026-04-06T14:47:30.213Z</time></trkpt><trkpt lat="44.5396957" lon="8.0399992"><ele>654.0</ele><time>2026-04-06T14:47:31.213Z</time></trkpt><trkpt lat="44.5396244" lon="8.0400835"><ele>655.8000000000001</ele><time>2026-04-06T14:47:32.213Z</time></trkpt><trkpt lat="44.5395361" lon="8.0401693"><ele>657.6</ele><time>2026-04-06T14:47:33.213Z</time></trkpt><trkpt lat="44.5394511" lon="8.0402608"><ele>659.4</ele><time>2026-04-06T14:47:34.213Z</time></trkpt><trkpt lat="44.5393772" lon="8.0403518"><ele>661.2</ele><time>2026-04-06T14:47:35.213Z</time></trkpt><trkpt lat="44.5393057" lon="8.0404351"><ele>663.0</ele><time>2026-04-06T14:47:36.213Z</time></trkpt><trkpt lat="44.5392381" lon="8.0405039"><ele>663.0</ele><time>2026-04-06T14:47:37.213Z</time></trkpt><trkpt lat="44.5391555" lon="8.0405762"><ele>663.0</ele><time>2026-04-06T14:47:38.213Z</time></trkpt><trkpt lat="44.5390901" lon="8.0406533"><ele>663.0</ele><time>2026-04-06T14:47:39.213Z</time></trkpt><trkpt lat="44.5390286" lon="8.0407146"><ele>663.0</ele><time>2026-04-06T14:47:40.214Z</time></trkpt><trkpt lat="44.5389745" lon="8.040802"><ele>663.0</ele><time>2026-04-06T14:47:41.213Z</time></trkpt><trkpt lat="44.5389265" lon="8.0409115"><ele>663.0</ele><time>2026-04-06T14:47:42.213Z</time></trkpt><trkpt lat="44.5388808" lon="8.0410271"><ele>662.0</ele><time>2026-04-06T14:47:43.213Z</time></trkpt><trkpt lat="44.5388466" lon="8.0411335"><ele>661.0</ele><time>2026-04-06T14:47:44.213Z</time></trkpt><trkpt lat="44.5388095" lon="8.0412275"><ele>660.0</ele><time>2026-04-06T14:47:45.213Z</time></trkpt><trkpt lat="44.5387849" lon="8.0413281"><ele>659.0</ele><time>2026-04-06T14:47:46.213Z</time></trkpt><trkpt lat="44.5387761" lon="8.0415082"><ele>658.0</ele><time>2026-04-06T14:47:48.213Z</time></trkpt><trkpt lat="44.5387884" lon="8.0416076"><ele>657.0</ele><time>2026-04-06T14:47:49.213Z</time></trkpt><trkpt lat="44.5388031" lon="8.0417246"><ele>656.8333333333334</ele><time>2026-04-06T14:47:50.213Z</time></trkpt><trkpt lat="44.5388306" lon="8.0418379"><ele>656.6666666666666</ele><time>2026-04-06T14:47:51.213Z</time></trkpt><trkpt lat="44.5388529" lon="8.0419267"><ele>656.5</ele><time>2026-04-06T14:47:52.213Z</time></trkpt><trkpt lat="44.5388657" lon="8.0420151"><ele>656.3333333333333</ele><time>2026-04-06T14:47:53.213Z</time></trkpt><trkpt lat="44.538829" lon="8.0421843"><ele>656.1666666666666</ele><time>2026-04-06T14:47:55.213Z</time></trkpt><trkpt lat="44.5387752" lon="8.042264"><ele>656.0</ele><time>2026-04-06T14:47:56.213Z</time></trkpt><trkpt lat="44.5387068" lon="8.0423261"><ele>658.1999999999999</ele><time>2026-04-06T14:47:57.213Z</time></trkpt><trkpt lat="44.538619" lon="8.0423849"><ele>660.4</ele><time>2026-04-06T14:47:58.213Z</time></trkpt><trkpt lat="44.5385363" lon="8.0424563"><ele>662.6</ele><time>2026-04-06T14:47:59.213Z</time></trkpt><trkpt lat="44.5384474" lon="8.0425402"><ele>664.8</ele><time>2026-04-06T14:48:00.213Z</time></trkpt><trkpt lat="44.5383583" lon="8.0426212"><ele>667.0</ele><time>2026-04-06T14:48:01.213Z</time></trkpt><trkpt lat="44.53827" lon="8.0427006"><ele>668.2</ele><time>2026-04-06T14:48:02.213Z</time></trkpt><trkpt lat="44.5381743" lon="8.0427776"><ele>669.4000000000001</ele><time>2026-04-06T14:48:03.213Z</time></trkpt><trkpt lat="44.538081" lon="8.0428592"><ele>670.5999999999999</ele><time>2026-04-06T14:48:04.213Z</time></trkpt><trkpt lat="44.5379949" lon="8.04296"><ele>671.8</ele><time>2026-04-06T14:48:05.213Z</time></trkpt><trkpt lat="44.5379307" lon="8.0430881"><ele>673.0</ele><time>2026-04-06T14:48:06.213Z</time></trkpt><trkpt lat="44.5378794" lon="8.0432355"><ele>677.5</ele><time>2026-04-06T14:48:07.213Z</time></trkpt><trkpt lat="44.5378293" lon="8.0433811"><ele>682.0</ele><time>2026-04-06T14:48:08.213Z</time></trkpt><trkpt lat="44.5377744" lon="8.0435367"><ele>686.5</ele><time>2026-04-06T14:48:09.213Z</time></trkpt><trkpt lat="44.5377142" lon="8.0436962"><ele>691.0</ele><time>2026-04-06T14:48:10.213Z</time></trkpt><trkpt lat="44.5376559" lon="8.0438473"><ele>691.0</ele><time>2026-04-06T14:48:11.213Z</time></trkpt><trkpt lat="44.5376007" lon="8.0440041"><ele>691.0</ele><time>2026-04-06T14:48:12.213Z</time></trkpt><trkpt lat="44.537541" lon="8.0441408"><ele>691.0</ele><time>2026-04-06T14:48:13.213Z</time></trkpt><trkpt lat="44.5375077" lon="8.0442473"><ele>691.0</ele><time>2026-04-06T14:48:14.213Z</time></trkpt><trkpt lat="44.5374787" lon="8.0443274"><ele>691.0</ele><time>2026-04-06T14:48:15.213Z</time></trkpt><trkpt lat="44.5374319" lon="8.0445036"><ele>692.3333333333334</ele><time>2026-04-06T14:48:17.213Z</time></trkpt><trkpt lat="44.5374275" lon="8.0446144"><ele>693.6666666666667</ele><time>2026-04-06T14:48:18.213Z</time></trkpt><trkpt lat="44.5374331" lon="8.0447426"><ele>695.0</ele><time>2026-04-06T14:48:19.213Z</time></trkpt><trkpt lat="44.5374284" lon="8.044869"><ele>696.3333333333334</ele><time>2026-04-06T14:48:20.214Z</time></trkpt><trkpt lat="44.5374204" lon="8.0449937"><ele>697.6666666666666</ele><time>2026-04-06T14:48:21.213Z</time></trkpt><trkpt lat="44.5373953" lon="8.0451094"><ele>699.0</ele><time>2026-04-06T14:48:22.213Z</time></trkpt><trkpt lat="44.5373764" lon="8.0451946"><ele>701.0</ele><time>2026-04-06T14:48:23.213Z</time></trkpt><trkpt lat="44.5373382" lon="8.045284"><ele>703.0</ele><time>2026-04-06T14:48:26.213Z</time></trkpt><trkpt lat="44.537228" lon="8.0452657"><ele>705.0</ele><time>2026-04-06T14:48:30.213Z</time></trkpt><trkpt lat="44.5371614" lon="8.0452351"><ele>707.0</ele><time>2026-04-06T14:48:31.213Z</time></trkpt><trkpt lat="44.5370743" lon="8.0452081"><ele>709.0</ele><time>2026-04-06T14:48:32.213Z</time></trkpt><trkpt lat="44.5369636" lon="8.0451821"><ele>710.75</ele><time>2026-04-06T14:48:33.213Z</time></trkpt><trkpt lat="44.5368447" lon="8.0451662"><ele>712.5</ele><time>2026-04-06T14:48:34.213Z</time></trkpt><trkpt lat="44.5367116" lon="8.0451644"><ele>714.25</ele><time>2026-04-06T14:48:35.213Z</time></trkpt><trkpt lat="44.536561" lon="8.0451709"><ele>716.0</ele><time>2026-04-06T14:48:36.213Z</time></trkpt><trkpt lat="44.5364062" lon="8.0451809"><ele>716.0</ele><time>2026-04-06T14:48:37.213Z</time></trkpt><trkpt lat="44.5362479" lon="8.0451844"><ele>716.0</ele><time>2026-04-06T14:48:38.213Z</time></trkpt><trkpt lat="44.5360791" lon="8.0451864"><ele>716.0</ele><time>2026-04-06T14:48:39.213Z</time></trkpt><trkpt lat="44.5359116" lon="8.0451899"><ele>719.3333333333333</ele><time>2026-04-06T14:48:40.213Z</time></trkpt><trkpt lat="44.5357472" lon="8.0452025"><ele>722.6666666666666</ele><time>2026-04-06T14:48:41.213Z</time></trkpt><trkpt lat="44.5355827" lon="8.0452385"><ele>726.0</ele><time>2026-04-06T14:48:42.213Z</time></trkpt><trkpt lat="44.535417" lon="8.0453008"><ele>729.6666666666666</ele><time>2026-04-06T14:48:43.213Z</time></trkpt><trkpt lat="44.5352512" lon="8.0453762"><ele>733.3333333333333</ele><time>2026-04-06T14:48:44.213Z</time></trkpt><trkpt lat="44.5350845" lon="8.0454597"><ele>737.0</ele><time>2026-04-06T14:48:45.213Z</time></trkpt><trkpt lat="44.5349141" lon="8.0455366"><ele>737.0</ele><time>2026-04-06T14:48:46.213Z</time></trkpt><trkpt lat="44.5347431" lon="8.0456207"><ele>737.0</ele><time>2026-04-06T14:48:47.213Z</time></trkpt><trkpt lat="44.5345721" lon="8.0457057"><ele>737.0</ele><time>2026-04-06T14:48:48.213Z</time></trkpt><trkpt lat="44.5343966" lon="8.0457842"><ele>734.3333333333333</ele><time>2026-04-06T14:48:49.213Z</time></trkpt><trkpt lat="44.5342162" lon="8.0458753"><ele>731.6666666666666</ele><time>2026-04-06T14:48:50.213Z</time></trkpt><trkpt lat="44.5340323" lon="8.045973"><ele>729.0</ele><time>2026-04-06T14:48:51.213Z</time></trkpt><trkpt lat="44.5338495" lon="8.0460598"><ele>731.6666666666666</ele><time>2026-04-06T14:48:52.213Z</time></trkpt><trkpt lat="44.5336711" lon="8.0461496"><ele>734.3333333333333</ele><time>2026-04-06T14:48:53.214Z</time></trkpt><trkpt lat="44.5334922" lon="8.0462345"><ele>737.0</ele><time>2026-04-06T14:48:54.214Z</time></trkpt><trkpt lat="44.5333233" lon="8.0463178"><ele>737.0</ele><time>2026-04-06T14:48:55.213Z</time></trkpt><trkpt lat="44.5331641" lon="8.0463861"><ele>737.0</ele><time>2026-04-06T14:48:56.213Z</time></trkpt><trkpt lat="44.5330241" lon="8.0464486"><ele>737.0</ele><time>2026-04-06T14:48:57.213Z</time></trkpt><trkpt lat="44.5328972" lon="8.0465128"><ele>737.0</ele><time>2026-04-06T14:48:58.213Z</time></trkpt><trkpt lat="44.532792" lon="8.0465549"><ele>735.3333333333333</ele><time>2026-04-06T14:48:59.213Z</time></trkpt><trkpt lat="44.5326924" lon="8.0465609"><ele>733.6666666666666</ele><time>2026-04-06T14:49:00.213Z</time></trkpt><trkpt lat="44.5326023" lon="8.0465379"><ele>732.0</ele><time>2026-04-06T14:49:01.213Z</time></trkpt><trkpt lat="44.5325218" lon="8.0465187"><ele>730.3333333333334</ele><time>2026-04-06T14:49:02.213Z</time></trkpt><trkpt lat="44.5324486" lon="8.0465255"><ele>728.6666666666667</ele><time>2026-04-06T14:49:03.213Z</time></trkpt><trkpt lat="44.5323682" lon="8.0465595"><ele>727.0</ele><time>2026-04-06T14:49:04.214Z</time></trkpt><trkpt lat="44.5322709" lon="8.0466216"><ele>726.75</ele><time>2026-04-06T14:49:05.213Z</time></trkpt><trkpt lat="44.5321634" lon="8.0466854"><ele>726.5</ele><time>2026-04-06T14:49:06.213Z</time></trkpt><trkpt lat="44.5320361" lon="8.0467513"><ele>726.25</ele><time>2026-04-06T14:49:07.213Z</time></trkpt><trkpt lat="44.531895" lon="8.0468092"><ele>726.0</ele><time>2026-04-06T14:49:08.213Z</time></trkpt><trkpt lat="44.5317494" lon="8.0468673"><ele>726.0</ele><time>2026-04-06T14:49:09.213Z</time></trkpt><trkpt lat="44.5316004" lon="8.0469283"><ele>726.0</ele><time>2026-04-06T14:49:10.213Z</time></trkpt><trkpt lat="44.5314406" lon="8.0470036"><ele>726.0</ele><time>2026-04-06T14:49:11.214Z</time></trkpt><trkpt lat="44.5312836" lon="8.0470922"><ele>727.6666666666666</ele><time>2026-04-06T14:49:12.213Z</time></trkpt><trkpt lat="44.5311267" lon="8.0472103"><ele>729.3333333333333</ele><time>2026-04-06T14:49:13.213Z</time></trkpt><trkpt lat="44.5309768" lon="8.0473395"><ele>731.0</ele><time>2026-04-06T14:49:14.213Z</time></trkpt><trkpt lat="44.5308293" lon="8.0474951"><ele>731.0</ele><time>2026-04-06T14:49:15.213Z</time></trkpt><trkpt lat="44.5306861" lon="8.0476608"><ele>731.0</ele><time>2026-04-06T14:49:16.213Z</time></trkpt><trkpt lat="44.5305471" lon="8.0478233"><ele>731.0</ele><time>2026-04-06T14:49:17.213Z</time></trkpt><trkpt lat="44.5304088" lon="8.0480013"><ele>732.0</ele><time>2026-04-06T14:49:18.213Z</time></trkpt><trkpt lat="44.5302728" lon="8.0481793"><ele>733.0</ele><time>2026-04-06T14:49:19.213Z</time></trkpt><trkpt lat="44.530131" lon="8.0483504"><ele>734.0</ele><time>2026-04-06T14:49:20.213Z</time></trkpt><trkpt lat="44.5299957" lon="8.0485332"><ele>734.0</ele><time>2026-04-06T14:49:21.213Z</time></trkpt><trkpt lat="44.5298649" lon="8.0487132"><ele>734.0</ele><time>2026-04-06T14:49:22.213Z</time></trkpt><trkpt lat="44.5297298" lon="8.0488902"><ele>734.0</ele><time>2026-04-06T14:49:23.213Z</time></trkpt><trkpt lat="44.5295916" lon="8.0490649"><ele>736.3333333333333</ele><time>2026-04-06T14:49:24.213Z</time></trkpt><trkpt lat="44.5294555" lon="8.0492393"><ele>738.6666666666666</ele><time>2026-04-06T14:49:25.213Z</time></trkpt><trkpt lat="44.5293166" lon="8.0494061"><ele>741.0</ele><time>2026-04-06T14:49:26.213Z</time></trkpt><trkpt lat="44.5291679" lon="8.0495603"><ele>741.0</ele><time>2026-04-06T14:49:27.213Z</time></trkpt><trkpt lat="44.5290152" lon="8.0496982"><ele>741.0</ele><time>2026-04-06T14:49:28.213Z</time></trkpt><trkpt lat="44.5288524" lon="8.0498289"><ele>741.0</ele><time>2026-04-06T14:49:29.213Z</time></trkpt><trkpt lat="44.528675" lon="8.0499374"><ele>743.6666666666666</ele><time>2026-04-06T14:49:30.213Z</time></trkpt><trkpt lat="44.5284983" lon="8.0500543"><ele>746.3333333333333</ele><time>2026-04-06T14:49:31.213Z</time></trkpt><trkpt lat="44.5283145" lon="8.0501589"><ele>749.0</ele><time>2026-04-06T14:49:32.213Z</time></trkpt><trkpt lat="44.528132" lon="8.0502495"><ele>749.0</ele><time>2026-04-06T14:49:33.213Z</time></trkpt><trkpt lat="44.5279419" lon="8.0503231"><ele>749.0</ele><time>2026-04-06T14:49:34.213Z</time></trkpt><trkpt lat="44.5277581" lon="8.0503799"><ele>749.0</ele><time>2026-04-06T14:49:35.213Z</time></trkpt><trkpt lat="44.5275718" lon="8.0504226"><ele>749.0</ele><time>2026-04-06T14:49:36.213Z</time></trkpt><trkpt lat="44.5273899" lon="8.0504514"><ele>749.0</ele><time>2026-04-06T14:49:37.213Z</time></trkpt><trkpt lat="44.5272151" lon="8.050454"><ele>749.0</ele><time>2026-04-06T14:49:38.213Z</time></trkpt><trkpt lat="44.5270473" lon="8.0504379"><ele>752.6666666666666</ele><time>2026-04-06T14:49:39.213Z</time></trkpt><trkpt lat="44.5268746" lon="8.0504152"><ele>756.3333333333334</ele><time>2026-04-06T14:49:40.213Z</time></trkpt><trkpt lat="44.526707" lon="8.0503682"><ele>760.0</ele><time>2026-04-06T14:49:41.213Z</time></trkpt><trkpt lat="44.526547" lon="8.0503164"><ele>760.0</ele><time>2026-04-06T14:49:42.213Z</time></trkpt><trkpt lat="44.5263944" lon="8.0502446"><ele>760.0</ele><time>2026-04-06T14:49:43.213Z</time></trkpt><trkpt lat="44.526248" lon="8.0501597"><ele>760.0</ele><time>2026-04-06T14:49:44.213Z</time></trkpt><trkpt lat="44.5261044" lon="8.0500601"><ele>760.3333333333334</ele><time>2026-04-06T14:49:45.213Z</time></trkpt><trkpt lat="44.5259531" lon="8.0499407"><ele>760.6666666666666</ele><time>2026-04-06T14:49:46.213Z</time></trkpt><trkpt lat="44.5258142" lon="8.0498242"><ele>761.0</ele><time>2026-04-06T14:49:47.213Z</time></trkpt><trkpt lat="44.5256932" lon="8.0497051"><ele>761.0</ele><time>2026-04-06T14:49:48.213Z</time></trkpt><trkpt lat="44.525582" lon="8.0495865"><ele>761.0</ele><time>2026-04-06T14:49:49.213Z</time></trkpt><trkpt lat="44.5254741" lon="8.0494777"><ele>761.0</ele><time>2026-04-06T14:49:50.213Z</time></trkpt><trkpt lat="44.5253687" lon="8.0493734"><ele>761.0</ele><time>2026-04-06T14:49:51.213Z</time></trkpt><trkpt lat="44.5252744" lon="8.0492778"><ele>761.0</ele><time>2026-04-06T14:49:52.213Z</time></trkpt><trkpt lat="44.5251814" lon="8.0491962"><ele>761.0</ele><time>2026-04-06T14:49:53.213Z</time></trkpt><trkpt lat="44.5250818" lon="8.0491065"><ele>761.0</ele><time>2026-04-06T14:49:54.213Z</time></trkpt><trkpt lat="44.5249743" lon="8.0490052"><ele>761.0</ele><time>2026-04-06T14:49:55.213Z</time></trkpt><trkpt lat="44.5248684" lon="8.0488951"><ele>761.0</ele><time>2026-04-06T14:49:56.213Z</time></trkpt><trkpt lat="44.5247568" lon="8.0487829"><ele>761.0</ele><time>2026-04-06T14:49:57.213Z</time></trkpt><trkpt lat="44.5246461" lon="8.0486858"><ele>761.0</ele><time>2026-04-06T14:49:58.213Z</time></trkpt><trkpt lat="44.5245376" lon="8.0486099"><ele>761.0</ele><time>2026-04-06T14:49:59.213Z</time></trkpt><trkpt lat="44.524434" lon="8.0485578"><ele>763.25</ele><time>2026-04-06T14:50:00.213Z</time></trkpt><trkpt lat="44.5243291" lon="8.0485551"><ele>765.5</ele><time>2026-04-06T14:50:01.212Z</time></trkpt><trkpt lat="44.524219" lon="8.0485991"><ele>767.75</ele><time>2026-04-06T14:50:02.212Z</time></trkpt><trkpt lat="44.5241083" lon="8.0486365"><ele>770.0</ele><time>2026-04-06T14:50:03.213Z</time></trkpt><trkpt lat="44.5239895" lon="8.0486441"><ele>770.0</ele><time>2026-04-06T14:50:04.212Z</time></trkpt><trkpt lat="44.5238683" lon="8.0486541"><ele>770.0</ele><time>2026-04-06T14:50:05.212Z</time></trkpt><trkpt lat="44.5237458" lon="8.0486715"><ele>770.0</ele><time>2026-04-06T14:50:06.212Z</time></trkpt><trkpt lat="44.5236187" lon="8.0487169"><ele>770.0</ele><time>2026-04-06T14:50:07.212Z</time></trkpt><trkpt lat="44.5235019" lon="8.0487698"><ele>771.75</ele><time>2026-04-06T14:50:08.212Z</time></trkpt><trkpt lat="44.5233813" lon="8.0488116"><ele>773.5</ele><time>2026-04-06T14:50:09.212Z</time></trkpt><trkpt lat="44.5232608" lon="8.0488457"><ele>775.25</ele><time>2026-04-06T14:50:10.212Z</time></trkpt><trkpt lat="44.5231419" lon="8.0488841"><ele>777.0</ele><time>2026-04-06T14:50:11.212Z</time></trkpt><trkpt lat="44.52302" lon="8.0489201"><ele>777.0</ele><time>2026-04-06T14:50:12.212Z</time></trkpt><trkpt lat="44.5229011" lon="8.0489696"><ele>777.0</ele><time>2026-04-06T14:50:13.212Z</time></trkpt><trkpt lat="44.5227847" lon="8.0490215"><ele>777.0</ele><time>2026-04-06T14:50:14.212Z</time></trkpt><trkpt lat="44.5226848" lon="8.0490712"><ele>777.0</ele><time>2026-04-06T14:50:15.212Z</time></trkpt><trkpt lat="44.5225884" lon="8.0491219"><ele>778.8</ele><time>2026-04-06T14:50:16.212Z</time></trkpt><trkpt lat="44.5225011" lon="8.0491736"><ele>780.6</ele><time>2026-04-06T14:50:17.212Z</time></trkpt><trkpt lat="44.522414" lon="8.0492218"><ele>782.4</ele><time>2026-04-06T14:50:18.212Z</time></trkpt><trkpt lat="44.5223213" lon="8.0492565"><ele>784.1999999999999</ele><time>2026-04-06T14:50:19.212Z</time></trkpt><trkpt lat="44.5222223" lon="8.0492614"><ele>786.0</ele><time>2026-04-06T14:50:20.212Z</time></trkpt><trkpt lat="44.5221292" lon="8.0492113"><ele>786.1999999999999</ele><time>2026-04-06T14:50:21.212Z</time></trkpt><trkpt lat="44.5220437" lon="8.0491527"><ele>786.4</ele><time>2026-04-06T14:50:22.212Z</time></trkpt><trkpt lat="44.5219379" lon="8.0491036"><ele>786.6</ele><time>2026-04-06T14:50:23.212Z</time></trkpt><trkpt lat="44.5218225" lon="8.049059"><ele>786.8</ele><time>2026-04-06T14:50:24.212Z</time></trkpt><trkpt lat="44.5217084" lon="8.0490189"><ele>787.0</ele><time>2026-04-06T14:50:25.212Z</time></trkpt><trkpt lat="44.521588" lon="8.0489745"><ele>787.0</ele><time>2026-04-06T14:50:26.212Z</time></trkpt><trkpt lat="44.5214684" lon="8.0489391"><ele>787.0</ele><time>2026-04-06T14:50:27.212Z</time></trkpt><trkpt lat="44.5213538" lon="8.0488919"><ele>787.0</ele><time>2026-04-06T14:50:28.212Z</time></trkpt><trkpt lat="44.5212391" lon="8.0488464"><ele>787.0</ele><time>2026-04-06T14:50:29.212Z</time></trkpt><trkpt lat="44.5211277" lon="8.0487905"><ele>788.75</ele><time>2026-04-06T14:50:30.212Z</time></trkpt><trkpt lat="44.5210264" lon="8.0487256"><ele>790.5</ele><time>2026-04-06T14:50:31.212Z</time></trkpt><trkpt lat="44.5209257" lon="8.0486455"><ele>792.25</ele><time>2026-04-06T14:50:32.212Z</time></trkpt><trkpt lat="44.5208323" lon="8.0485553"><ele>794.0</ele><time>2026-04-06T14:50:33.213Z</time></trkpt><trkpt lat="44.5207406" lon="8.0484707"><ele>794.0</ele><time>2026-04-06T14:50:34.212Z</time></trkpt><trkpt lat="44.5206474" lon="8.0483964"><ele>794.0</ele><time>2026-04-06T14:50:35.212Z</time></trkpt><trkpt lat="44.5205495" lon="8.0483381"><ele>794.0</ele><time>2026-04-06T14:50:36.212Z</time></trkpt><trkpt lat="44.5204602" lon="8.0482897"><ele>794.0</ele><time>2026-04-06T14:50:37.212Z</time></trkpt><trkpt lat="44.5203754" lon="8.0482489"><ele>794.0</ele><time>2026-04-06T14:50:38.212Z</time></trkpt><trkpt lat="44.5202957" lon="8.0482198"><ele>793.6</ele><time>2026-04-06T14:50:39.212Z</time></trkpt><trkpt lat="44.5202156" lon="8.0482026"><ele>793.2</ele><time>2026-04-06T14:50:40.212Z</time></trkpt><trkpt lat="44.5201264" lon="8.0481743"><ele>792.8000000000001</ele><time>2026-04-06T14:50:41.212Z</time></trkpt><trkpt lat="44.5200144" lon="8.0481437"><ele>792.4000000000001</ele><time>2026-04-06T14:50:42.212Z</time></trkpt><trkpt lat="44.5198915" lon="8.048107"><ele>792.0</ele><time>2026-04-06T14:50:43.212Z</time></trkpt><trkpt lat="44.5197723" lon="8.0480655"><ele>792.0</ele><time>2026-04-06T14:50:44.212Z</time></trkpt><trkpt lat="44.5196588" lon="8.0480346"><ele>792.0</ele><time>2026-04-06T14:50:45.212Z</time></trkpt><trkpt lat="44.5195574" lon="8.0479982"><ele>792.0</ele><time>2026-04-06T14:50:46.212Z</time></trkpt><trkpt lat="44.5194623" lon="8.0479678"><ele>792.0</ele><time>2026-04-06T14:50:47.212Z</time></trkpt><trkpt lat="44.5193593" lon="8.0479336"><ele>792.0</ele><time>2026-04-06T14:50:48.212Z</time></trkpt><trkpt lat="44.5192575" lon="8.0478921"><ele>791.6</ele><time>2026-04-06T14:50:49.212Z</time></trkpt><trkpt lat="44.5191564" lon="8.0478546"><ele>791.2</ele><time>2026-04-06T14:50:50.212Z</time></trkpt><trkpt lat="44.5190522" lon="8.0478133"><ele>790.8</ele><time>2026-04-06T14:50:51.212Z</time></trkpt><trkpt lat="44.5189509" lon="8.0477765"><ele>790.4</ele><time>2026-04-06T14:50:52.212Z</time></trkpt><trkpt lat="44.5188507" lon="8.0477376"><ele>790.0</ele><time>2026-04-06T14:50:53.212Z</time></trkpt><trkpt lat="44.5187557" lon="8.0477098"><ele>789.9999999999999</ele><time>2026-04-06T14:50:54.212Z</time></trkpt><trkpt lat="44.5186649" lon="8.047682"><ele>790.0</ele><time>2026-04-06T14:50:55.212Z</time></trkpt><trkpt lat="44.518579" lon="8.0476612"><ele>790.0</ele><time>2026-04-06T14:50:56.212Z</time></trkpt><trkpt lat="44.5185095" lon="8.0476478"><ele>790.0</ele><time>2026-04-06T14:50:57.212Z</time></trkpt><trkpt lat="44.5184156" lon="8.0476338"><ele>789.9999999999999</ele><time>2026-04-06T14:50:59.212Z</time></trkpt><trkpt lat="44.5183588" lon="8.0476769"><ele>790.0</ele><time>2026-04-06T14:51:01.212Z</time></trkpt><trkpt lat="44.5182999" lon="8.0477559"><ele>790.0</ele><time>2026-04-06T14:51:05.212Z</time></trkpt></trkseg><trkseg><trkpt lat="44.518295" lon="8.0475833"><ele>789.9999999999999</ele><time>2026-04-06T15:11:06.212Z</time></trkpt><trkpt lat="44.5182375" lon="8.0476273"><ele>790.0</ele><time>2026-04-06T15:11:08.213Z</time></trkpt><trkpt lat="44.5181892" lon="8.047756"><ele>790.0</ele><time>2026-04-06T15:11:10.212Z</time></trkpt><trkpt lat="44.5181088" lon="8.0479004"><ele>790.0</ele><time>2026-04-06T15:11:12.212Z</time></trkpt><trkpt lat="44.5180674" lon="8.0479911"><ele>789.9999999999999</ele><time>2026-04-06T15:11:13.212Z</time></trkpt><trkpt lat="44.5180271" lon="8.0480695"><ele>790.0</ele><time>2026-04-06T15:11:14.212Z</time></trkpt><trkpt lat="44.5179722" lon="8.0481446"><ele>790.0</ele><time>2026-04-06T15:11:15.212Z</time></trkpt><trkpt lat="44.5179211" lon="8.0482172"><ele>790.0</ele><time>2026-04-06T15:11:16.212Z</time></trkpt><trkpt lat="44.51787" lon="8.0482794"><ele>790.0</ele><time>2026-04-06T15:11:17.212Z</time></trkpt><trkpt lat="44.5178198" lon="8.0483449"><ele>790.0</ele><time>2026-04-06T15:11:18.212Z</time></trkpt><trkpt lat="44.5177754" lon="8.0484152"><ele>790.0</ele><time>2026-04-06T15:11:19.212Z</time></trkpt><trkpt lat="44.5177308" lon="8.0484908"><ele>790.0</ele><time>2026-04-06T15:11:20.212Z</time></trkpt><trkpt lat="44.5176848" lon="8.0485676"><ele>790.0</ele><time>2026-04-06T15:11:21.212Z</time></trkpt><trkpt lat="44.5176409" lon="8.0486422"><ele>788.4</ele><time>2026-04-06T15:11:22.212Z</time></trkpt><trkpt lat="44.5175628" lon="8.0487657"><ele>786.8</ele><time>2026-04-06T15:11:24.212Z</time></trkpt><trkpt lat="44.5174991" lon="8.0488576"><ele>785.2</ele><time>2026-04-06T15:11:26.212Z</time></trkpt><trkpt lat="44.5174318" lon="8.0488308"><ele>783.6</ele><time>2026-04-06T15:11:28.213Z</time></trkpt><trkpt lat="44.5173631" lon="8.0487336"><ele>782.0</ele><time>2026-04-06T15:11:30.212Z</time></trkpt><trkpt lat="44.5173258" lon="8.0486395"><ele>782.0</ele><time>2026-04-06T15:11:31.212Z</time></trkpt><trkpt lat="44.5172941" lon="8.0485538"><ele>782.0</ele><time>2026-04-06T15:11:32.212Z</time></trkpt><trkpt lat="44.5172421" lon="8.048472"><ele>782.0</ele><time>2026-04-06T15:11:33.212Z</time></trkpt><trkpt lat="44.517179" lon="8.0483927"><ele>782.0</ele><time>2026-04-06T15:11:34.212Z</time></trkpt><trkpt lat="44.517087" lon="8.0483242"><ele>782.0</ele><time>2026-04-06T15:11:35.212Z</time></trkpt><trkpt lat="44.5169912" lon="8.0482377"><ele>783.0</ele><time>2026-04-06T15:11:36.212Z</time></trkpt><trkpt lat="44.5169013" lon="8.0481457"><ele>784.0</ele><time>2026-04-06T15:11:37.212Z</time></trkpt><trkpt lat="44.5168081" lon="8.0480648"><ele>785.0</ele><time>2026-04-06T15:11:38.212Z</time></trkpt><trkpt lat="44.5167322" lon="8.0480171"><ele>786.0</ele><time>2026-04-06T15:11:39.212Z</time></trkpt><trkpt lat="44.5166469" lon="8.0479941"><ele>787.0</ele><time>2026-04-06T15:11:40.212Z</time></trkpt><trkpt lat="44.5165582" lon="8.0479583"><ele>786.9999999999999</ele><time>2026-04-06T15:11:41.212Z</time></trkpt><trkpt lat="44.5164713" lon="8.0479415"><ele>787.0</ele><time>2026-04-06T15:11:42.212Z</time></trkpt><trkpt lat="44.5163819" lon="8.0479407"><ele>787.0</ele><time>2026-04-06T15:11:43.212Z</time></trkpt><trkpt lat="44.5162928" lon="8.0479591"><ele>787.0</ele><time>2026-04-06T15:11:44.212Z</time></trkpt><trkpt lat="44.5162044" lon="8.0479861"><ele>786.9999999999999</ele><time>2026-04-06T15:11:45.212Z</time></trkpt><trkpt lat="44.5161212" lon="8.0480119"><ele>787.0</ele><time>2026-04-06T15:11:46.212Z</time></trkpt><trkpt lat="44.5160447" lon="8.0480201"><ele>785.4999999999999</ele><time>2026-04-06T15:11:47.212Z</time></trkpt><trkpt lat="44.5159686" lon="8.048009"><ele>784.0</ele><time>2026-04-06T15:11:48.212Z</time></trkpt><trkpt lat="44.5158899" lon="8.0479702"><ele>782.5</ele><time>2026-04-06T15:11:49.212Z</time></trkpt><trkpt lat="44.5158089" lon="8.0479363"><ele>781.0</ele><time>2026-04-06T15:11:50.212Z</time></trkpt><trkpt lat="44.5157307" lon="8.0478915"><ele>779.4999999999999</ele><time>2026-04-06T15:11:51.212Z</time></trkpt><trkpt lat="44.5156532" lon="8.0478317"><ele>778.0</ele><time>2026-04-06T15:11:52.212Z</time></trkpt><trkpt lat="44.5155687" lon="8.0477929"><ele>777.9999999999999</ele><time>2026-04-06T15:11:53.212Z</time></trkpt><trkpt lat="44.515495" lon="8.0477765"><ele>778.0</ele><time>2026-04-06T15:11:54.212Z</time></trkpt><trkpt lat="44.5154176" lon="8.0478076"><ele>778.0</ele><time>2026-04-06T15:11:55.212Z</time></trkpt><trkpt lat="44.5153449" lon="8.0478444"><ele>778.0</ele><time>2026-04-06T15:11:56.212Z</time></trkpt><trkpt lat="44.5152745" lon="8.0478858"><ele>777.9999999999999</ele><time>2026-04-06T15:11:57.212Z</time></trkpt><trkpt lat="44.5152052" lon="8.0479378"><ele>778.0</ele><time>2026-04-06T15:11:58.212Z</time></trkpt><trkpt lat="44.515145" lon="8.0479922"><ele>776.8333333333333</ele><time>2026-04-06T15:11:59.212Z</time></trkpt><trkpt lat="44.5150919" lon="8.0480573"><ele>775.6666666666666</ele><time>2026-04-06T15:12:00.212Z</time></trkpt><trkpt lat="44.515046" lon="8.0481224"><ele>774.5</ele><time>2026-04-06T15:12:01.212Z</time></trkpt><trkpt lat="44.5149595" lon="8.0482108"><ele>773.3333333333333</ele><time>2026-04-06T15:12:03.212Z</time></trkpt><trkpt lat="44.5148852" lon="8.048295"><ele>772.1666666666666</ele><time>2026-04-06T15:12:05.212Z</time></trkpt><trkpt lat="44.5148977" lon="8.0483937"><ele>771.0</ele><time>2026-04-06T15:12:07.213Z</time></trkpt><trkpt lat="44.5149567" lon="8.0484402"><ele>767.5</ele><time>2026-04-06T15:12:08.212Z</time></trkpt><trkpt lat="44.5150681" lon="8.0484669"><ele>764.0</ele><time>2026-04-06T15:12:10.212Z</time></trkpt><trkpt lat="44.5151341" lon="8.0484566"><ele>760.5</ele><time>2026-04-06T15:12:11.212Z</time></trkpt><trkpt lat="44.515204" lon="8.048452"><ele>757.0</ele><time>2026-04-06T15:12:12.212Z</time></trkpt><trkpt lat="44.5153155" lon="8.0484489"><ele>753.5</ele><time>2026-04-06T15:12:14.213Z</time></trkpt><trkpt lat="44.5153393" lon="8.0485317"><ele>750.0</ele><time>2026-04-06T15:12:19.212Z</time></trkpt><trkpt lat="44.5151735" lon="8.0486209"><ele>750.0</ele><time>2026-04-06T15:12:24.212Z</time></trkpt><trkpt lat="44.5150717" lon="8.0486694"><ele>750.0</ele><time>2026-04-06T15:12:26.212Z</time></trkpt><trkpt lat="44.5149824" lon="8.0487167"><ele>750.0</ele><time>2026-04-06T15:12:28.212Z</time></trkpt><trkpt lat="44.5149145" lon="8.0487653"><ele>750.0</ele><time>2026-04-06T15:12:30.212Z</time></trkpt><trkpt lat="44.5148391" lon="8.0488287"><ele>750.0</ele><time>2026-04-06T15:12:32.212Z</time></trkpt><trkpt lat="44.5147833" lon="8.0489044"><ele>750.0</ele><time>2026-04-06T15:12:34.212Z</time></trkpt><trkpt lat="44.5147416" lon="8.0490143"><ele>748.1666666666666</ele><time>2026-04-06T15:12:36.212Z</time></trkpt><trkpt lat="44.5147016" lon="8.0491295"><ele>746.3333333333334</ele><time>2026-04-06T15:12:38.212Z</time></trkpt><trkpt lat="44.5146719" lon="8.0492317"><ele>744.5</ele><time>2026-04-06T15:12:40.212Z</time></trkpt><trkpt lat="44.5146021" lon="8.0492146"><ele>742.6666666666667</ele><time>2026-04-06T15:12:43.212Z</time></trkpt><trkpt lat="44.5145403" lon="8.0491057"><ele>740.8333333333334</ele><time>2026-04-06T15:12:46.212Z</time></trkpt><trkpt lat="44.514486" lon="8.0490034"><ele>739.0</ele><time>2026-04-06T15:12:48.212Z</time></trkpt><trkpt lat="44.5144378" lon="8.0488936"><ele>739.0</ele><time>2026-04-06T15:12:50.212Z</time></trkpt><trkpt lat="44.5143535" lon="8.0487914"><ele>739.0</ele><time>2026-04-06T15:12:52.212Z</time></trkpt><trkpt lat="44.5142519" lon="8.0487009"><ele>739.0</ele><time>2026-04-06T15:12:54.212Z</time></trkpt><trkpt lat="44.5141487" lon="8.0486297"><ele>739.0</ele><time>2026-04-06T15:12:56.212Z</time></trkpt><trkpt lat="44.514053" lon="8.0485554"><ele>739.0</ele><time>2026-04-06T15:12:58.212Z</time></trkpt><trkpt lat="44.5139546" lon="8.0485104"><ele>739.0</ele><time>2026-04-06T15:13:00.212Z</time></trkpt><trkpt lat="44.5138584" lon="8.0485328"><ele>739.0</ele><time>2026-04-06T15:13:02.212Z</time></trkpt><trkpt lat="44.5137979" lon="8.0485872"><ele>739.0</ele><time>2026-04-06T15:13:04.212Z</time></trkpt><trkpt lat="44.5137451" lon="8.0486573"><ele>739.0</ele><time>2026-04-06T15:13:06.212Z</time></trkpt><trkpt lat="44.5136809" lon="8.0487091"><ele>739.0</ele><time>2026-04-06T15:13:08.212Z</time></trkpt><trkpt lat="44.5136063" lon="8.0487812"><ele>740.2</ele><time>2026-04-06T15:13:10.212Z</time></trkpt><trkpt lat="44.5135435" lon="8.0488721"><ele>741.4000000000001</ele><time>2026-04-06T15:13:12.212Z</time></trkpt><trkpt lat="44.5134959" lon="8.0489941"><ele>742.6</ele><time>2026-04-06T15:13:14.212Z</time></trkpt><trkpt lat="44.5134367" lon="8.0491194"><ele>743.8</ele><time>2026-04-06T15:13:16.212Z</time></trkpt><trkpt lat="44.5133819" lon="8.0492549"><ele>745.0</ele><time>2026-04-06T15:13:18.212Z</time></trkpt><trkpt lat="44.5133321" lon="8.0494123"><ele>742.0</ele><time>2026-04-06T15:13:20.212Z</time></trkpt><trkpt lat="44.5133044" lon="8.0494967"><ele>739.0</ele><time>2026-04-06T15:13:21.212Z</time></trkpt><trkpt lat="44.5132767" lon="8.0495817"><ele>736.0</ele><time>2026-04-06T15:13:22.212Z</time></trkpt><trkpt lat="44.5132497" lon="8.0497449"><ele>733.0</ele><time>2026-04-06T15:13:24.212Z</time></trkpt><trkpt lat="44.5132188" lon="8.0499029"><ele>730.0</ele><time>2026-04-06T15:13:26.212Z</time></trkpt><trkpt lat="44.5131928" lon="8.0499876"><ele>727.0</ele><time>2026-04-06T15:13:27.212Z</time></trkpt><trkpt lat="44.5131321" lon="8.0501458"><ele>725.8</ele><time>2026-04-06T15:13:29.212Z</time></trkpt><trkpt lat="44.5130969" lon="8.0502222"><ele>724.6</ele><time>2026-04-06T15:13:30.212Z</time></trkpt><trkpt lat="44.5130469" lon="8.050337"><ele>723.4</ele><time>2026-04-06T15:13:32.212Z</time></trkpt><trkpt lat="44.5129728" lon="8.0504313"><ele>722.1999999999999</ele><time>2026-04-06T15:13:34.212Z</time></trkpt><trkpt lat="44.5128968" lon="8.0505502"><ele>721.0</ele><time>2026-04-06T15:13:36.212Z</time></trkpt><trkpt lat="44.5128195" lon="8.0506667"><ele>721.0</ele><time>2026-04-06T15:13:38.212Z</time></trkpt><trkpt lat="44.5127468" lon="8.0507525"><ele>721.0</ele><time>2026-04-06T15:13:40.212Z</time></trkpt><trkpt lat="44.5126596" lon="8.0507732"><ele>721.0</ele><time>2026-04-06T15:13:42.212Z</time></trkpt><trkpt lat="44.5125645" lon="8.0507613"><ele>721.0</ele><time>2026-04-06T15:13:44.212Z</time></trkpt><trkpt lat="44.5124477" lon="8.0507366"><ele>721.0</ele><time>2026-04-06T15:13:46.212Z</time></trkpt><trkpt lat="44.5123616" lon="8.0507155"><ele>721.0</ele><time>2026-04-06T15:13:48.212Z</time></trkpt><trkpt lat="44.512299" lon="8.0506279"><ele>721.0</ele><time>2026-04-06T15:13:53.212Z</time></trkpt><trkpt lat="44.512271" lon="8.0505128"><ele>721.0</ele><time>2026-04-06T15:13:55.212Z</time></trkpt><trkpt lat="44.5122536" lon="8.0503847"><ele>721.0</ele><time>2026-04-06T15:13:57.212Z</time></trkpt><trkpt lat="44.5122321" lon="8.0502725"><ele>721.0</ele><time>2026-04-06T15:13:59.212Z</time></trkpt><trkpt lat="44.5122054" lon="8.0501783"><ele>721.0</ele><time>2026-04-06T15:14:01.212Z</time></trkpt><trkpt lat="44.512176" lon="8.0500917"><ele>721.0</ele><time>2026-04-06T15:14:03.212Z</time></trkpt><trkpt lat="44.5121347" lon="8.0500233"><ele>721.0</ele><time>2026-04-06T15:14:06.212Z</time></trkpt><trkpt lat="44.5120846" lon="8.0499411"><ele>721.0</ele><time>2026-04-06T15:14:11.212Z</time></trkpt><trkpt lat="44.5120506" lon="8.0498205"><ele>721.0</ele><time>2026-04-06T15:14:14.212Z</time></trkpt><trkpt lat="44.5120057" lon="8.0497242"><ele>721.0</ele><time>2026-04-06T15:14:16.212Z</time></trkpt><trkpt lat="44.5119398" lon="8.0496451"><ele>721.0</ele><time>2026-04-06T15:14:18.212Z</time></trkpt><trkpt lat="44.5118704" lon="8.0495482"><ele>720.5</ele><time>2026-04-06T15:14:20.212Z</time></trkpt><trkpt lat="44.5118387" lon="8.0494552"><ele>720.0</ele><time>2026-04-06T15:14:22.212Z</time></trkpt><trkpt lat="44.511803" lon="8.0493655"><ele>719.5</ele><time>2026-04-06T15:14:24.212Z</time></trkpt><trkpt lat="44.5117661" lon="8.0492804"><ele>719.0</ele><time>2026-04-06T15:14:26.212Z</time></trkpt><trkpt lat="44.5117038" lon="8.0492234"><ele>718.5</ele><time>2026-04-06T15:14:28.212Z</time></trkpt><trkpt lat="44.5116124" lon="8.0491782"><ele>718.0</ele><time>2026-04-06T15:14:30.212Z</time></trkpt><trkpt lat="44.5115434" lon="8.0491371"><ele>716.1666666666667</ele><time>2026-04-06T15:14:31.212Z</time></trkpt><trkpt lat="44.511484" lon="8.0490916"><ele>714.3333333333334</ele><time>2026-04-06T15:14:32.212Z</time></trkpt><trkpt lat="44.5113998" lon="8.0490867"><ele>712.5</ele><time>2026-04-06T15:14:34.212Z</time></trkpt><trkpt lat="44.511321" lon="8.0490943"><ele>710.6666666666666</ele><time>2026-04-06T15:14:36.212Z</time></trkpt><trkpt lat="44.5112412" lon="8.0491193"><ele>708.8333333333333</ele><time>2026-04-06T15:14:38.212Z</time></trkpt><trkpt lat="44.5111694" lon="8.0491193"><ele>707.0</ele><time>2026-04-06T15:14:40.212Z</time></trkpt><trkpt lat="44.5110878" lon="8.049137"><ele>705.6666666666666</ele><time>2026-04-06T15:14:43.212Z</time></trkpt><trkpt lat="44.5110286" lon="8.049173"><ele>704.3333333333333</ele><time>2026-04-06T15:14:45.212Z</time></trkpt><trkpt lat="44.5109549" lon="8.0492412"><ele>703.0</ele><time>2026-04-06T15:14:47.212Z</time></trkpt><trkpt lat="44.5108925" lon="8.0492919"><ele>701.6666666666666</ele><time>2026-04-06T15:14:49.212Z</time></trkpt><trkpt lat="44.5108076" lon="8.0493388"><ele>700.3333333333334</ele><time>2026-04-06T15:14:52.212Z</time></trkpt><trkpt lat="44.5107492" lon="8.0493762"><ele>699.0</ele><time>2026-04-06T15:14:55.212Z</time></trkpt><trkpt lat="44.5106881" lon="8.0494343"><ele>699.0</ele><time>2026-04-06T15:14:58.212Z</time></trkpt><trkpt lat="44.510629" lon="8.0495065"><ele>699.0</ele><time>2026-04-06T15:15:00.212Z</time></trkpt><trkpt lat="44.5105658" lon="8.0495877"><ele>699.0</ele><time>2026-04-06T15:15:03.212Z</time></trkpt><trkpt lat="44.5105835" lon="8.0497055"><ele>699.0</ele><time>2026-04-06T15:15:06.212Z</time></trkpt><trkpt lat="44.5105158" lon="8.0497605"><ele>699.0</ele><time>2026-04-06T15:15:10.212Z</time></trkpt><trkpt lat="44.510456" lon="8.0497126"><ele>699.0</ele><time>2026-04-06T15:15:12.212Z</time></trkpt><trkpt lat="44.510415" lon="8.0496439"><ele>694.0</ele><time>2026-04-06T15:15:14.212Z</time></trkpt><trkpt lat="44.5103591" lon="8.0494973"><ele>689.0</ele><time>2026-04-06T15:15:16.212Z</time></trkpt><trkpt lat="44.510331" lon="8.0494168"><ele>684.0</ele><time>2026-04-06T15:15:17.212Z</time></trkpt><trkpt lat="44.5103022" lon="8.0493312"><ele>679.0</ele><time>2026-04-06T15:15:18.212Z</time></trkpt><trkpt lat="44.5102542" lon="8.0492087"><ele>674.0</ele><time>2026-04-06T15:15:20.212Z</time></trkpt><trkpt lat="44.5101644" lon="8.0491085"><ele>673.6666666666666</ele><time>2026-04-06T15:15:22.212Z</time></trkpt><trkpt lat="44.5101124" lon="8.0490585"><ele>673.3333333333333</ele><time>2026-04-06T15:15:23.212Z</time></trkpt><trkpt lat="44.5100534" lon="8.0490089"><ele>673.0</ele><time>2026-04-06T15:15:24.212Z</time></trkpt><trkpt lat="44.5100001" lon="8.0489549"><ele>672.6666666666666</ele><time>2026-04-06T15:15:25.212Z</time></trkpt><trkpt lat="44.509946" lon="8.0488416"><ele>672.3333333333334</ele><time>2026-04-06T15:15:27.212Z</time></trkpt><trkpt lat="44.509894" lon="8.0487752"><ele>672.0</ele><time>2026-04-06T15:15:44.212Z</time></trkpt><trkpt lat="44.5098093" lon="8.0488359"><ele>672.0</ele><time>2026-04-06T15:15:47.212Z</time></trkpt><trkpt lat="44.5097163" lon="8.0488856"><ele>672.0</ele><time>2026-04-06T15:15:49.212Z</time></trkpt><trkpt lat="44.5096085" lon="8.0489311"><ele>672.0</ele><time>2026-04-06T15:15:51.212Z</time></trkpt><trkpt lat="44.509525" lon="8.0489824"><ele>672.0</ele><time>2026-04-06T15:15:53.212Z</time></trkpt><trkpt lat="44.5094472" lon="8.0490218"><ele>672.0</ele><time>2026-04-06T15:15:55.212Z</time></trkpt><trkpt lat="44.5093753" lon="8.049071"><ele>669.8333333333334</ele><time>2026-04-06T15:15:57.212Z</time></trkpt><trkpt lat="44.5093042" lon="8.0491109"><ele>667.6666666666666</ele><time>2026-04-06T15:15:59.212Z</time></trkpt><trkpt lat="44.5092503" lon="8.0492005"><ele>665.5</ele><time>2026-04-06T15:16:02.212Z</time></trkpt><trkpt lat="44.5091847" lon="8.049294"><ele>663.3333333333333</ele><time>2026-04-06T15:16:05.212Z</time></trkpt><trkpt lat="44.509133" lon="8.0493718"><ele>661.1666666666666</ele><time>2026-04-06T15:16:08.212Z</time></trkpt><trkpt lat="44.5090904" lon="8.0494625"><ele>659.0</ele><time>2026-04-06T15:16:11.212Z</time></trkpt><trkpt lat="44.5090255" lon="8.0495383"><ele>659.0</ele><time>2026-04-06T15:16:14.212Z</time></trkpt><trkpt lat="44.5089482" lon="8.0495613"><ele>659.0</ele><time>2026-04-06T15:16:17.212Z</time></trkpt><trkpt lat="44.5088768" lon="8.0495229"><ele>659.0</ele><time>2026-04-06T15:16:19.212Z</time></trkpt><trkpt lat="44.5088091" lon="8.0494709"><ele>659.0</ele><time>2026-04-06T15:16:21.212Z</time></trkpt><trkpt lat="44.5087444" lon="8.0493838"><ele>659.0</ele><time>2026-04-06T15:16:23.212Z</time></trkpt><trkpt lat="44.508704" lon="8.0492943"><ele>659.0</ele><time>2026-04-06T15:16:25.212Z</time></trkpt><trkpt lat="44.5086616" lon="8.049179"><ele>657.5</ele><time>2026-04-06T15:16:28.212Z</time></trkpt><trkpt lat="44.5086427" lon="8.0490936"><ele>656.0</ele><time>2026-04-06T15:16:30.212Z</time></trkpt><trkpt lat="44.5086454" lon="8.0489815"><ele>654.5</ele><time>2026-04-06T15:16:32.212Z</time></trkpt><trkpt lat="44.5086576" lon="8.0488439"><ele>653.0</ele><time>2026-04-06T15:16:34.212Z</time></trkpt><trkpt lat="44.5086761" lon="8.0487091"><ele>651.5</ele><time>2026-04-06T15:16:36.212Z</time></trkpt><trkpt lat="44.5087075" lon="8.0486056"><ele>650.0</ele><time>2026-04-06T15:16:38.212Z</time></trkpt><trkpt lat="44.5087594" lon="8.0484903"><ele>650.0</ele><time>2026-04-06T15:16:40.212Z</time></trkpt><trkpt lat="44.5088096" lon="8.0483646"><ele>650.0</ele><time>2026-04-06T15:16:42.212Z</time></trkpt><trkpt lat="44.5088672" lon="8.0482748"><ele>650.0</ele><time>2026-04-06T15:16:44.212Z</time></trkpt><trkpt lat="44.508946" lon="8.0481654"><ele>650.0</ele><time>2026-04-06T15:16:46.212Z</time></trkpt><trkpt lat="44.5089945" lon="8.0480992"><ele>650.0</ele><time>2026-04-06T15:16:47.212Z</time></trkpt><trkpt lat="44.509059" lon="8.0480225"><ele>648.2</ele><time>2026-04-06T15:16:48.212Z</time></trkpt><trkpt lat="44.5091203" lon="8.0479448"><ele>646.4</ele><time>2026-04-06T15:16:49.212Z</time></trkpt><trkpt lat="44.5091712" lon="8.047874"><ele>644.5999999999999</ele><time>2026-04-06T15:16:50.212Z</time></trkpt><trkpt lat="44.5092495" lon="8.0477486"><ele>642.8</ele><time>2026-04-06T15:16:52.212Z</time></trkpt><trkpt lat="44.5092916" lon="8.0476007"><ele>641.0</ele><time>2026-04-06T15:16:54.212Z</time></trkpt><trkpt lat="44.5093109" lon="8.0474817"><ele>641.8333333333333</ele><time>2026-04-06T15:16:56.212Z</time></trkpt><trkpt lat="44.50931" lon="8.0473911"><ele>642.6666666666666</ele><time>2026-04-06T15:16:58.212Z</time></trkpt><trkpt lat="44.5092779" lon="8.0472755"><ele>643.5</ele><time>2026-04-06T15:17:01.212Z</time></trkpt><trkpt lat="44.5092019" lon="8.0472055"><ele>644.3333333333334</ele><time>2026-04-06T15:17:04.212Z</time></trkpt><trkpt lat="44.5091298" lon="8.0472062"><ele>645.1666666666667</ele><time>2026-04-06T15:17:06.212Z</time></trkpt><trkpt lat="44.5090616" lon="8.0472212"><ele>646.0</ele><time>2026-04-06T15:17:08.212Z</time></trkpt><trkpt lat="44.5089987" lon="8.0472574"><ele>646.0</ele><time>2026-04-06T15:17:10.212Z</time></trkpt><trkpt lat="44.5089423" lon="8.047311"><ele>646.0</ele><time>2026-04-06T15:17:12.212Z</time></trkpt><trkpt lat="44.5088873" lon="8.0473597"><ele>646.0</ele><time>2026-04-06T15:17:14.212Z</time></trkpt><trkpt lat="44.5088209" lon="8.0474177"><ele>646.0</ele><time>2026-04-06T15:17:16.212Z</time></trkpt><trkpt lat="44.5087453" lon="8.0474606"><ele>646.0</ele><time>2026-04-06T15:17:18.212Z</time></trkpt><trkpt lat="44.5086481" lon="8.0474772"><ele>646.0</ele><time>2026-04-06T15:17:20.212Z</time></trkpt><trkpt lat="44.5085665" lon="8.0474832"><ele>641.3333333333334</ele><time>2026-04-06T15:17:22.212Z</time></trkpt><trkpt lat="44.5084675" lon="8.0474979"><ele>636.6666666666667</ele><time>2026-04-06T15:17:24.212Z</time></trkpt><trkpt lat="44.5083693" lon="8.0475227"><ele>632.0</ele><time>2026-04-06T15:17:26.212Z</time></trkpt><trkpt lat="44.5082722" lon="8.0475327"><ele>627.3333333333334</ele><time>2026-04-06T15:17:28.212Z</time></trkpt><trkpt lat="44.5081966" lon="8.047542"><ele>622.6666666666666</ele><time>2026-04-06T15:17:30.212Z</time></trkpt><trkpt lat="44.5081272" lon="8.0475541"><ele>618.0</ele><time>2026-04-06T15:17:32.212Z</time></trkpt><trkpt lat="44.5080325" lon="8.047562"><ele>618.0</ele><time>2026-04-06T15:17:35.212Z</time></trkpt><trkpt lat="44.5079414" lon="8.0475761"><ele>618.0</ele><time>2026-04-06T15:17:38.212Z</time></trkpt><trkpt lat="44.507869" lon="8.0476371"><ele>618.0</ele><time>2026-04-06T15:17:40.212Z</time></trkpt><trkpt lat="44.5078147" lon="8.0477165"><ele>618.0</ele><time>2026-04-06T15:17:42.212Z</time></trkpt><trkpt lat="44.5077664" lon="8.0478151"><ele>618.0</ele><time>2026-04-06T15:17:44.212Z</time></trkpt><trkpt lat="44.5077108" lon="8.0479609"><ele>615.0</ele><time>2026-04-06T15:17:46.212Z</time></trkpt><trkpt lat="44.507663" lon="8.0481097"><ele>612.0</ele><time>2026-04-06T15:17:48.212Z</time></trkpt><trkpt lat="44.5076066" lon="8.0482619"><ele>609.0</ele><time>2026-04-06T15:17:50.212Z</time></trkpt><trkpt lat="44.5075623" lon="8.0484016"><ele>606.0</ele><time>2026-04-06T15:17:52.212Z</time></trkpt><trkpt lat="44.5075345" lon="8.048532"><ele>603.0</ele><time>2026-04-06T15:17:54.212Z</time></trkpt><trkpt lat="44.5075244" lon="8.048689"><ele>602.1666666666666</ele><time>2026-04-06T15:17:56.212Z</time></trkpt><trkpt lat="44.507507" lon="8.0488573"><ele>601.3333333333334</ele><time>2026-04-06T15:17:58.212Z</time></trkpt><trkpt lat="44.5075075" lon="8.0489552"><ele>600.5</ele><time>2026-04-06T15:17:59.212Z</time></trkpt><trkpt lat="44.5075091" lon="8.0490586"><ele>599.6666666666667</ele><time>2026-04-06T15:18:00.212Z</time></trkpt><trkpt lat="44.5075118" lon="8.0491585"><ele>598.8333333333334</ele><time>2026-04-06T15:18:01.212Z</time></trkpt><trkpt lat="44.5075174" lon="8.0492727"><ele>598.0</ele><time>2026-04-06T15:18:02.213Z</time></trkpt><trkpt lat="44.5075164" lon="8.0493762"><ele>597.6</ele><time>2026-04-06T15:18:03.212Z</time></trkpt><trkpt lat="44.5075042" lon="8.0495284"><ele>597.1999999999999</ele><time>2026-04-06T15:18:05.212Z</time></trkpt><trkpt lat="44.5074758" lon="8.0496522"><ele>596.8</ele><time>2026-04-06T15:18:07.212Z</time></trkpt><trkpt lat="44.507429" lon="8.0497972"><ele>596.4</ele><time>2026-04-06T15:18:09.212Z</time></trkpt><trkpt lat="44.5074144" lon="8.0498915"><ele>596.0</ele><time>2026-04-06T15:18:10.212Z</time></trkpt><trkpt lat="44.5073957" lon="8.0499816"><ele>595.2</ele><time>2026-04-06T15:18:11.212Z</time></trkpt><trkpt lat="44.5073792" lon="8.0500685"><ele>594.4000000000001</ele><time>2026-04-06T15:18:12.212Z</time></trkpt><trkpt lat="44.5073582" lon="8.0502164"><ele>593.6</ele><time>2026-04-06T15:18:14.212Z</time></trkpt><trkpt lat="44.5073441" lon="8.0503758"><ele>592.8000000000001</ele><time>2026-04-06T15:18:16.212Z</time></trkpt><trkpt lat="44.5073429" lon="8.0505121"><ele>592.0</ele><time>2026-04-06T15:18:18.212Z</time></trkpt><trkpt lat="44.5073339" lon="8.0506465"><ele>592.0</ele><time>2026-04-06T15:18:20.212Z</time></trkpt><trkpt lat="44.5073193" lon="8.0507395"><ele>592.0</ele><time>2026-04-06T15:18:22.212Z</time></trkpt><trkpt lat="44.5072939" lon="8.050831"><ele>592.0</ele><time>2026-04-06T15:18:25.212Z</time></trkpt><trkpt lat="44.5072676" lon="8.0509115"><ele>592.0</ele><time>2026-04-06T15:18:30.212Z</time></trkpt><trkpt lat="44.5072358" lon="8.0509968"><ele>592.0</ele><time>2026-04-06T15:19:05.212Z</time></trkpt><trkpt lat="44.5071937" lon="8.0510965"><ele>592.0</ele><time>2026-04-06T15:19:11.212Z</time></trkpt><trkpt lat="44.5071749" lon="8.0511848"><ele>592.0</ele><time>2026-04-06T15:19:15.212Z</time></trkpt><trkpt lat="44.5071465" lon="8.0512793"><ele>590.3333333333334</ele><time>2026-04-06T15:19:24.212Z</time></trkpt><trkpt lat="44.5070909" lon="8.0513694"><ele>588.6666666666667</ele><time>2026-04-06T15:19:27.212Z</time></trkpt><trkpt lat="44.5070452" lon="8.0514466"><ele>587.0</ele><time>2026-04-06T15:19:44.212Z</time></trkpt><trkpt lat="44.5069734" lon="8.0514248"><ele>585.3333333333334</ele><time>2026-04-06T15:20:30.212Z</time></trkpt><trkpt lat="44.5068931" lon="8.0513982"><ele>583.6666666666666</ele><time>2026-04-06T15:20:33.212Z</time></trkpt><trkpt lat="44.5068229" lon="8.0514139"><ele>582.0</ele><time>2026-04-06T15:20:36.212Z</time></trkpt><trkpt lat="44.5067649" lon="8.0514606"><ele>580.1666666666666</ele><time>2026-04-06T15:20:38.212Z</time></trkpt><trkpt lat="44.5066695" lon="8.0515142"><ele>578.3333333333334</ele><time>2026-04-06T15:20:40.212Z</time></trkpt><trkpt lat="44.5065601" lon="8.0515476"><ele>576.5</ele><time>2026-04-06T15:20:42.212Z</time></trkpt><trkpt lat="44.5064809" lon="8.0515728"><ele>574.6666666666667</ele><time>2026-04-06T15:20:44.212Z</time></trkpt><trkpt lat="44.5064002" lon="8.0515864"><ele>572.8333333333334</ele><time>2026-04-06T15:20:46.212Z</time></trkpt><trkpt lat="44.5063316" lon="8.0515989"><ele>571.0</ele><time>2026-04-06T15:20:48.212Z</time></trkpt><trkpt lat="44.5062621" lon="8.0516694"><ele>569.0</ele><time>2026-04-06T15:20:50.212Z</time></trkpt><trkpt lat="44.5062118" lon="8.0517314"><ele>567.0</ele><time>2026-04-06T15:20:52.212Z</time></trkpt><trkpt lat="44.5061357" lon="8.0517372"><ele>565.0</ele><time>2026-04-06T15:20:54.212Z</time></trkpt><trkpt lat="44.5060431" lon="8.0517455"><ele>563.0</ele><time>2026-04-06T15:20:56.212Z</time></trkpt><trkpt lat="44.5059403" lon="8.0517818"><ele>561.0</ele><time>2026-04-06T15:20:58.212Z</time></trkpt><trkpt lat="44.5058354" lon="8.0518244"><ele>561.0</ele><time>2026-04-06T15:21:00.212Z</time></trkpt><trkpt lat="44.5057213" lon="8.0518361"><ele>561.0</ele><time>2026-04-06T15:21:02.212Z</time></trkpt><trkpt lat="44.5056576" lon="8.0518357"><ele>561.0</ele><time>2026-04-06T15:21:03.213Z</time></trkpt><trkpt lat="44.5055908" lon="8.0518363"><ele>561.0</ele><time>2026-04-06T15:21:04.212Z</time></trkpt><trkpt lat="44.5054749" lon="8.051841"><ele>561.0</ele><time>2026-04-06T15:21:06.212Z</time></trkpt><trkpt lat="44.5054116" lon="8.0518453"><ele>561.0</ele><time>2026-04-06T15:21:07.212Z</time></trkpt><trkpt lat="44.5052845" lon="8.0518821"><ele>560.6</ele><time>2026-04-06T15:21:09.212Z</time></trkpt><trkpt lat="44.5052154" lon="8.0518874"><ele>560.2</ele><time>2026-04-06T15:21:10.212Z</time></trkpt><trkpt lat="44.5051462" lon="8.0519044"><ele>559.8</ele><time>2026-04-06T15:21:11.212Z</time></trkpt><trkpt lat="44.5050397" lon="8.0519338"><ele>559.4</ele><time>2026-04-06T15:21:13.212Z</time></trkpt><trkpt lat="44.5049351" lon="8.051957"><ele>559.0</ele><time>2026-04-06T15:21:15.212Z</time></trkpt><trkpt lat="44.5048216" lon="8.0519543"><ele>559.0</ele><time>2026-04-06T15:21:17.212Z</time></trkpt><trkpt lat="44.5047519" lon="8.051919"><ele>559.0</ele><time>2026-04-06T15:21:19.212Z</time></trkpt><trkpt lat="44.5046275" lon="8.0519656"><ele>559.0</ele><time>2026-04-06T15:21:21.212Z</time></trkpt><trkpt lat="44.5045607" lon="8.0520147"><ele>559.0</ele><time>2026-04-06T15:21:22.212Z</time></trkpt><trkpt lat="44.5044899" lon="8.0520472"><ele>559.0</ele><time>2026-04-06T15:21:23.212Z</time></trkpt><trkpt lat="44.504418" lon="8.0520693"><ele>559.0</ele><time>2026-04-06T15:21:24.212Z</time></trkpt><trkpt lat="44.5043429" lon="8.0520997"><ele>559.1666666666667</ele><time>2026-04-06T15:21:25.212Z</time></trkpt><trkpt lat="44.5042717" lon="8.052149"><ele>559.3333333333334</ele><time>2026-04-06T15:21:26.212Z</time></trkpt><trkpt lat="44.5042081" lon="8.0521995"><ele>559.5</ele><time>2026-04-06T15:21:27.212Z</time></trkpt><trkpt lat="44.5041448" lon="8.0522336"><ele>559.6666666666666</ele><time>2026-04-06T15:21:28.212Z</time></trkpt><trkpt lat="44.5040218" lon="8.0522543"><ele>559.8333333333333</ele><time>2026-04-06T15:21:30.212Z</time></trkpt><trkpt lat="44.5039507" lon="8.052247"><ele>560.0</ele><time>2026-04-06T15:21:31.212Z</time></trkpt><trkpt lat="44.5038704" lon="8.0522324"><ele>560.0</ele><time>2026-04-06T15:21:32.212Z</time></trkpt><trkpt lat="44.5037928" lon="8.052219"><ele>560.0</ele><time>2026-04-06T15:21:33.212Z</time></trkpt><trkpt lat="44.5037203" lon="8.0522061"><ele>560.0</ele><time>2026-04-06T15:21:34.212Z</time></trkpt><trkpt lat="44.5036572" lon="8.0521955"><ele>560.0</ele><time>2026-04-06T15:21:35.212Z</time></trkpt><trkpt lat="44.5035271" lon="8.0521706"><ele>560.0</ele><time>2026-04-06T15:21:37.212Z</time></trkpt><trkpt lat="44.5034025" lon="8.0521595"><ele>559.8333333333333</ele><time>2026-04-06T15:21:39.212Z</time></trkpt><trkpt lat="44.5033249" lon="8.0521564"><ele>559.6666666666666</ele><time>2026-04-06T15:21:40.212Z</time></trkpt><trkpt lat="44.5032463" lon="8.0521659"><ele>559.5</ele><time>2026-04-06T15:21:41.212Z</time></trkpt><trkpt lat="44.5031663" lon="8.0521844"><ele>559.3333333333334</ele><time>2026-04-06T15:21:42.212Z</time></trkpt><trkpt lat="44.5030862" lon="8.0522123"><ele>559.1666666666667</ele><time>2026-04-06T15:21:43.212Z</time></trkpt><trkpt lat="44.503014" lon="8.052239"><ele>559.0</ele><time>2026-04-06T15:21:44.212Z</time></trkpt><trkpt lat="44.5028876" lon="8.052256"><ele>558.2</ele><time>2026-04-06T15:21:46.212Z</time></trkpt><trkpt lat="44.5027664" lon="8.0522309"><ele>557.4</ele><time>2026-04-06T15:21:48.212Z</time></trkpt><trkpt lat="44.5026726" lon="8.0522415"><ele>556.6</ele><time>2026-04-06T15:21:50.212Z</time></trkpt><trkpt lat="44.5025498" lon="8.05231"><ele>555.8</ele><time>2026-04-06T15:21:52.212Z</time></trkpt><trkpt lat="44.5024758" lon="8.0523794"><ele>555.0</ele><time>2026-04-06T15:21:53.212Z</time></trkpt><trkpt lat="44.502404" lon="8.0524791"><ele>553.5</ele><time>2026-04-06T15:21:54.212Z</time></trkpt><trkpt lat="44.5023356" lon="8.0525768"><ele>552.0</ele><time>2026-04-06T15:21:55.212Z</time></trkpt><trkpt lat="44.5022729" lon="8.0526688"><ele>550.5</ele><time>2026-04-06T15:21:56.212Z</time></trkpt><trkpt lat="44.5022093" lon="8.0527457"><ele>549.0</ele><time>2026-04-06T15:21:57.212Z</time></trkpt><trkpt lat="44.5021374" lon="8.0527903"><ele>547.5</ele><time>2026-04-06T15:21:58.212Z</time></trkpt><trkpt lat="44.5020621" lon="8.0528015"><ele>546.0</ele><time>2026-04-06T15:21:59.212Z</time></trkpt><trkpt lat="44.5019885" lon="8.0528095"><ele>546.0</ele><time>2026-04-06T15:22:00.212Z</time></trkpt><trkpt lat="44.5019216" lon="8.0528323"><ele>546.0</ele><time>2026-04-06T15:22:01.212Z</time></trkpt><trkpt lat="44.501858" lon="8.052854"><ele>546.0</ele><time>2026-04-06T15:22:02.212Z</time></trkpt><trkpt lat="44.5017955" lon="8.0528708"><ele>546.0</ele><time>2026-04-06T15:22:03.212Z</time></trkpt><trkpt lat="44.5017327" lon="8.0528644"><ele>546.0</ele><time>2026-04-06T15:22:04.212Z</time></trkpt><trkpt lat="44.5016107" lon="8.0528341"><ele>546.0</ele><time>2026-04-06T15:22:06.212Z</time></trkpt><trkpt lat="44.5015081" lon="8.0527754"><ele>546.0</ele><time>2026-04-06T15:22:08.213Z</time></trkpt><trkpt lat="44.5014136" lon="8.0527103"><ele>546.0</ele><time>2026-04-06T15:22:10.212Z</time></trkpt><trkpt lat="44.5013199" lon="8.0526067"><ele>546.0</ele><time>2026-04-06T15:22:12.212Z</time></trkpt><trkpt lat="44.501242" lon="8.0524976"><ele>546.0</ele><time>2026-04-06T15:22:14.212Z</time></trkpt><trkpt lat="44.501144" lon="8.0524072"><ele>545.8333333333334</ele><time>2026-04-06T15:22:16.212Z</time></trkpt><trkpt lat="44.5010632" lon="8.0523472"><ele>545.6666666666666</ele><time>2026-04-06T15:22:18.212Z</time></trkpt><trkpt lat="44.5010121" lon="8.0522792"><ele>545.5</ele><time>2026-04-06T15:22:20.212Z</time></trkpt><trkpt lat="44.5009777" lon="8.0521811"><ele>545.3333333333333</ele><time>2026-04-06T15:22:22.212Z</time></trkpt><trkpt lat="44.5009179" lon="8.0521339"><ele>545.1666666666666</ele><time>2026-04-06T15:22:24.212Z</time></trkpt><trkpt lat="44.5008515" lon="8.0520996"><ele>545.0</ele><time>2026-04-06T15:22:26.212Z</time></trkpt><trkpt lat="44.5007885" lon="8.0520185"><ele>545.0</ele><time>2026-04-06T15:22:28.212Z</time></trkpt><trkpt lat="44.5007218" lon="8.0519008"><ele>545.0</ele><time>2026-04-06T15:22:30.213Z</time></trkpt><trkpt lat="44.5006359" lon="8.0518152"><ele>545.0</ele><time>2026-04-06T15:22:32.212Z</time></trkpt><trkpt lat="44.500568" lon="8.0517677"><ele>545.0</ele><time>2026-04-06T15:22:34.212Z</time></trkpt><trkpt lat="44.5005332" lon="8.0516657"><ele>545.0</ele><time>2026-04-06T15:22:36.212Z</time></trkpt><trkpt lat="44.5005083" lon="8.0515729"><ele>545.0</ele><time>2026-04-06T15:22:37.212Z</time></trkpt><trkpt lat="44.5004785" lon="8.0514914"><ele>545.4</ele><time>2026-04-06T15:22:38.212Z</time></trkpt><trkpt lat="44.5004406" lon="8.0513222"><ele>545.8</ele><time>2026-04-06T15:22:40.212Z</time></trkpt><trkpt lat="44.5004164" lon="8.0511705"><ele>546.2</ele><time>2026-04-06T15:22:42.212Z</time></trkpt><trkpt lat="44.5003998" lon="8.051012"><ele>546.6</ele><time>2026-04-06T15:22:44.212Z</time></trkpt><trkpt lat="44.500409" lon="8.0509135"><ele>547.0</ele><time>2026-04-06T15:22:45.212Z</time></trkpt><trkpt lat="44.5004177" lon="8.0508257"><ele>547.5</ele><time>2026-04-06T15:22:46.212Z</time></trkpt><trkpt lat="44.5004244" lon="8.0506738"><ele>548.0</ele><time>2026-04-06T15:22:48.212Z</time></trkpt><trkpt lat="44.5003891" lon="8.0505862"><ele>548.5</ele><time>2026-04-06T15:22:50.212Z</time></trkpt><trkpt lat="44.5002894" lon="8.0505624"><ele>549.0</ele><time>2026-04-06T15:22:52.212Z</time></trkpt><trkpt lat="44.5002289" lon="8.0505352"><ele>549.5</ele><time>2026-04-06T15:22:53.212Z</time></trkpt><trkpt lat="44.500168" lon="8.0504992"><ele>550.0</ele><time>2026-04-06T15:22:54.212Z</time></trkpt><trkpt lat="44.5000923" lon="8.0504706"><ele>550.0</ele><time>2026-04-06T15:22:55.212Z</time></trkpt><trkpt lat="44.5000067" lon="8.0504579"><ele>550.0</ele><time>2026-04-06T15:22:56.212Z</time></trkpt><trkpt lat="44.4999175" lon="8.050445"><ele>550.0</ele><time>2026-04-06T15:22:57.212Z</time></trkpt><trkpt lat="44.4998355" lon="8.0504489"><ele>550.0</ele><time>2026-04-06T15:22:58.212Z</time></trkpt><trkpt lat="44.499771" lon="8.05044"><ele>550.0</ele><time>2026-04-06T15:22:59.212Z</time></trkpt><trkpt lat="44.4996661" lon="8.0503518"><ele>550.0</ele><time>2026-04-06T15:23:01.212Z</time></trkpt><trkpt lat="44.4996149" lon="8.0502728"><ele>549.8571428571429</ele><time>2026-04-06T15:23:02.212Z</time></trkpt><trkpt lat="44.4995777" lon="8.0501935"><ele>549.7142857142857</ele><time>2026-04-06T15:23:03.212Z</time></trkpt><trkpt lat="44.4995102" lon="8.0501353"><ele>549.5714285714286</ele><time>2026-04-06T15:23:05.213Z</time></trkpt><trkpt lat="44.4994939" lon="8.0500482"><ele>549.4285714285714</ele><time>2026-04-06T15:23:14.212Z</time></trkpt><trkpt lat="44.499457" lon="8.0499492"><ele>549.2857142857143</ele><time>2026-04-06T15:23:16.212Z</time></trkpt><trkpt lat="44.4994174" lon="8.0498715"><ele>549.1428571428571</ele><time>2026-04-06T15:23:17.212Z</time></trkpt><trkpt lat="44.4993733" lon="8.0497867"><ele>549.0</ele><time>2026-04-06T15:23:18.212Z</time></trkpt><trkpt lat="44.4993277" lon="8.0497069"><ele>551.6</ele><time>2026-04-06T15:23:19.212Z</time></trkpt><trkpt lat="44.4992863" lon="8.0496277"><ele>554.2</ele><time>2026-04-06T15:23:20.212Z</time></trkpt><trkpt lat="44.499218" lon="8.0495008"><ele>556.8000000000001</ele><time>2026-04-06T15:23:22.212Z</time></trkpt><trkpt lat="44.4991807" lon="8.0493834"><ele>559.4</ele><time>2026-04-06T15:23:24.212Z</time></trkpt><trkpt lat="44.4992069" lon="8.0492777"><ele>562.0</ele><time>2026-04-06T15:23:26.213Z</time></trkpt><trkpt lat="44.499301" lon="8.0491743"><ele>562.0</ele><time>2026-04-06T15:23:28.212Z</time></trkpt><trkpt lat="44.4993556" lon="8.0490937"><ele>562.0</ele><time>2026-04-06T15:23:30.212Z</time></trkpt><trkpt lat="44.4992721" lon="8.0491275"><ele>562.0</ele><time>2026-04-06T15:24:19.212Z</time></trkpt><trkpt lat="44.499191" lon="8.049172"><ele>562.0</ele><time>2026-04-06T15:24:21.212Z</time></trkpt><trkpt lat="44.4991118" lon="8.0492041"><ele>562.0</ele><time>2026-04-06T15:24:23.212Z</time></trkpt><trkpt lat="44.4990318" lon="8.0492471"><ele>562.0</ele><time>2026-04-06T15:24:25.212Z</time></trkpt><trkpt lat="44.4989696" lon="8.0492957"><ele>562.0</ele><time>2026-04-06T15:24:27.212Z</time></trkpt><trkpt lat="44.4988792" lon="8.049333"><ele>562.0</ele><time>2026-04-06T15:24:29.212Z</time></trkpt><trkpt lat="44.4988213" lon="8.0493712"><ele>562.0</ele><time>2026-04-06T15:24:30.212Z</time></trkpt><trkpt lat="44.4987634" lon="8.0494074"><ele>562.0</ele><time>2026-04-06T15:24:31.212Z</time></trkpt><trkpt lat="44.498704" lon="8.0494438"><ele>562.0</ele><time>2026-04-06T15:24:32.212Z</time></trkpt><trkpt lat="44.4986003" lon="8.0495092"><ele>562.0</ele><time>2026-04-06T15:24:34.212Z</time></trkpt><trkpt lat="44.4984815" lon="8.0495745"><ele>563.8000000000001</ele><time>2026-04-06T15:24:36.212Z</time></trkpt><trkpt lat="44.498359" lon="8.0496045"><ele>565.6</ele><time>2026-04-06T15:24:38.212Z</time></trkpt><trkpt lat="44.4982523" lon="8.0496203"><ele>567.4000000000001</ele><time>2026-04-06T15:24:40.212Z</time></trkpt><trkpt lat="44.4981531" lon="8.0496286"><ele>569.2</ele><time>2026-04-06T15:24:42.212Z</time></trkpt><trkpt lat="44.4980515" lon="8.0496812"><ele>571.0</ele><time>2026-04-06T15:24:44.212Z</time></trkpt><trkpt lat="44.4979511" lon="8.0497698"><ele>571.4</ele><time>2026-04-06T15:24:46.212Z</time></trkpt><trkpt lat="44.497872" lon="8.0498574"><ele>571.8</ele><time>2026-04-06T15:24:48.212Z</time></trkpt><trkpt lat="44.4978142" lon="8.0499415"><ele>572.1999999999999</ele><time>2026-04-06T15:24:50.212Z</time></trkpt><trkpt lat="44.49774" lon="8.0500634"><ele>572.6</ele><time>2026-04-06T15:24:52.212Z</time></trkpt><trkpt lat="44.497693" lon="8.0501467"><ele>573.0</ele><time>2026-04-06T15:24:53.212Z</time></trkpt><trkpt lat="44.4976442" lon="8.0502458"><ele>569.8333333333334</ele><time>2026-04-06T15:24:54.212Z</time></trkpt><trkpt lat="44.4976007" lon="8.0503407"><ele>566.6666666666666</ele><time>2026-04-06T15:24:55.212Z</time></trkpt><trkpt lat="44.4975652" lon="8.0504266"><ele>563.5</ele><time>2026-04-06T15:24:56.212Z</time></trkpt><trkpt lat="44.4975037" lon="8.0505569"><ele>560.3333333333333</ele><time>2026-04-06T15:24:58.212Z</time></trkpt><trkpt lat="44.4974858" lon="8.0506627"><ele>557.1666666666666</ele><time>2026-04-06T15:25:00.212Z</time></trkpt><trkpt lat="44.4975176" lon="8.0507878"><ele>554.0</ele><time>2026-04-06T15:25:02.212Z</time></trkpt><trkpt lat="44.4976001" lon="8.0508048"><ele>553.6666666666666</ele><time>2026-04-06T15:25:04.212Z</time></trkpt><trkpt lat="44.4976383" lon="8.0507019"><ele>553.3333333333333</ele><time>2026-04-06T15:25:06.212Z</time></trkpt><trkpt lat="44.4976127" lon="8.0505671"><ele>553.0</ele><time>2026-04-06T15:25:08.212Z</time></trkpt><trkpt lat="44.4975783" lon="8.050464"><ele>552.6666666666666</ele><time>2026-04-06T15:25:10.212Z</time></trkpt><trkpt lat="44.4976157" lon="8.0503246"><ele>552.3333333333334</ele><time>2026-04-06T15:25:12.212Z</time></trkpt><trkpt lat="44.4976601" lon="8.050247"><ele>552.0</ele><time>2026-04-06T15:25:13.212Z</time></trkpt><trkpt lat="44.49771" lon="8.0501842"><ele>552.0</ele><time>2026-04-06T15:25:14.212Z</time></trkpt><trkpt lat="44.4977737" lon="8.0500674"><ele>552.0</ele><time>2026-04-06T15:25:16.212Z</time></trkpt><trkpt lat="44.4978419" lon="8.0499731"><ele>552.0</ele><time>2026-04-06T15:25:18.212Z</time></trkpt><trkpt lat="44.4978183" lon="8.04989"><ele>552.0</ele><time>2026-04-06T15:25:20.212Z</time></trkpt><trkpt lat="44.4977454" lon="8.0498118"><ele>552.0</ele><time>2026-04-06T15:25:22.212Z</time></trkpt><trkpt lat="44.4976529" lon="8.0497563"><ele>557.25</ele><time>2026-04-06T15:25:24.212Z</time></trkpt><trkpt lat="44.4975729" lon="8.0496602"><ele>562.5</ele><time>2026-04-06T15:25:26.212Z</time></trkpt><trkpt lat="44.4974792" lon="8.0495336"><ele>567.75</ele><time>2026-04-06T15:25:28.212Z</time></trkpt><trkpt lat="44.4973914" lon="8.049437"><ele>573.0</ele><time>2026-04-06T15:25:30.212Z</time></trkpt><trkpt lat="44.4972783" lon="8.049361"><ele>573.0</ele><time>2026-04-06T15:25:32.212Z</time></trkpt><trkpt lat="44.4971817" lon="8.0493135"><ele>573.0</ele><time>2026-04-06T15:25:34.212Z</time></trkpt><trkpt lat="44.4971189" lon="8.0492756"><ele>573.0</ele><time>2026-04-06T15:25:36.212Z</time></trkpt><trkpt lat="44.4970549" lon="8.0492481"><ele>573.0</ele><time>2026-04-06T15:25:43.213Z</time></trkpt><trkpt lat="44.4969829" lon="8.0492278"><ele>573.0</ele><time>2026-04-06T15:25:46.212Z</time></trkpt><trkpt lat="44.496917" lon="8.049215"><ele>573.0</ele><time>2026-04-06T15:25:48.212Z</time></trkpt><trkpt lat="44.4968453" lon="8.0492181"><ele>573.0</ele><time>2026-04-06T15:25:51.212Z</time></trkpt><trkpt lat="44.4967782" lon="8.049229"><ele>572.6666666666666</ele><time>2026-04-06T15:25:54.213Z</time></trkpt><trkpt lat="44.4966974" lon="8.0492242"><ele>572.3333333333334</ele><time>2026-04-06T15:25:57.212Z</time></trkpt><trkpt lat="44.4966235" lon="8.0492197"><ele>572.0</ele><time>2026-04-06T15:25:59.212Z</time></trkpt><trkpt lat="44.4965478" lon="8.0492275"><ele>571.6666666666667</ele><time>2026-04-06T15:26:01.212Z</time></trkpt><trkpt lat="44.4964751" lon="8.0492421"><ele>571.3333333333334</ele><time>2026-04-06T15:26:03.212Z</time></trkpt><trkpt lat="44.4964067" lon="8.0492748"><ele>571.0</ele><time>2026-04-06T15:26:05.212Z</time></trkpt><trkpt lat="44.4963089" lon="8.0493193"><ele>569.6666666666667</ele><time>2026-04-06T15:26:07.212Z</time></trkpt><trkpt lat="44.4962162" lon="8.0493673"><ele>568.3333333333334</ele><time>2026-04-06T15:26:09.212Z</time></trkpt><trkpt lat="44.4961435" lon="8.0494096"><ele>567.0</ele><time>2026-04-06T15:26:11.212Z</time></trkpt><trkpt lat="44.4960501" lon="8.049491"><ele>565.6666666666666</ele><time>2026-04-06T15:26:13.212Z</time></trkpt><trkpt lat="44.495991" lon="8.0495558"><ele>564.3333333333333</ele><time>2026-04-06T15:26:14.212Z</time></trkpt><trkpt lat="44.4959447" lon="8.0496364"><ele>563.0</ele><time>2026-04-06T15:26:15.212Z</time></trkpt><trkpt lat="44.4958918" lon="8.0497112"><ele>563.0</ele><time>2026-04-06T15:26:16.212Z</time></trkpt><trkpt lat="44.495846" lon="8.0497827"><ele>563.0</ele><time>2026-04-06T15:26:17.212Z</time></trkpt><trkpt lat="44.4957592" lon="8.04989"><ele>563.0</ele><time>2026-04-06T15:26:19.212Z</time></trkpt><trkpt lat="44.4956668" lon="8.0499313"><ele>563.0</ele><time>2026-04-06T15:26:21.212Z</time></trkpt><trkpt lat="44.4955613" lon="8.0498807"><ele>563.0</ele><time>2026-04-06T15:26:23.212Z</time></trkpt><trkpt lat="44.4955128" lon="8.049822"><ele>563.0</ele><time>2026-04-06T15:26:24.212Z</time></trkpt><trkpt lat="44.4954661" lon="8.0497505"><ele>563.0</ele><time>2026-04-06T15:26:25.212Z</time></trkpt><trkpt lat="44.4953784" lon="8.0496377"><ele>563.0</ele><time>2026-04-06T15:26:27.212Z</time></trkpt><trkpt lat="44.4952876" lon="8.0495691"><ele>563.0</ele><time>2026-04-06T15:26:29.212Z</time></trkpt><trkpt lat="44.4952117" lon="8.0495465"><ele>563.0</ele><time>2026-04-06T15:26:31.212Z</time></trkpt><trkpt lat="44.4951249" lon="8.0495279"><ele>563.0</ele><time>2026-04-06T15:26:33.212Z</time></trkpt><trkpt lat="44.4950515" lon="8.049502"><ele>563.0</ele><time>2026-04-06T15:26:35.212Z</time></trkpt><trkpt lat="44.494966" lon="8.0494759"><ele>563.0</ele><time>2026-04-06T15:26:38.212Z</time></trkpt><trkpt lat="44.4948993" lon="8.0494774"><ele>563.0</ele><time>2026-04-06T15:26:40.212Z</time></trkpt><trkpt lat="44.4948167" lon="8.0494918"><ele>563.0</ele><time>2026-04-06T15:26:42.212Z</time></trkpt><trkpt lat="44.4947283" lon="8.0494936"><ele>563.0</ele><time>2026-04-06T15:26:44.212Z</time></trkpt><trkpt lat="44.4946595" lon="8.0494805"><ele>563.4</ele><time>2026-04-06T15:26:46.212Z</time></trkpt><trkpt lat="44.4945755" lon="8.0495039"><ele>563.8</ele><time>2026-04-06T15:26:48.212Z</time></trkpt><trkpt lat="44.4944962" lon="8.0495326"><ele>564.2</ele><time>2026-04-06T15:26:50.212Z</time></trkpt><trkpt lat="44.4943842" lon="8.0495648"><ele>564.6</ele><time>2026-04-06T15:26:52.212Z</time></trkpt><trkpt lat="44.4943096" lon="8.0495841"><ele>565.0</ele><time>2026-04-06T15:26:53.212Z</time></trkpt><trkpt lat="44.4942149" lon="8.0496146"><ele>565.0</ele><time>2026-04-06T15:26:54.212Z</time></trkpt><trkpt lat="44.4941189" lon="8.0496479"><ele>565.0</ele><time>2026-04-06T15:26:55.212Z</time></trkpt><trkpt lat="44.4940263" lon="8.0496881"><ele>565.0</ele><time>2026-04-06T15:26:56.212Z</time></trkpt><trkpt lat="44.4939282" lon="8.0497253"><ele>565.0</ele><time>2026-04-06T15:26:57.212Z</time></trkpt><trkpt lat="44.493852" lon="8.0497502"><ele>565.0</ele><time>2026-04-06T15:26:58.213Z</time></trkpt><trkpt lat="44.4937844" lon="8.0497689"><ele>565.0</ele><time>2026-04-06T15:26:59.212Z</time></trkpt><trkpt lat="44.4937198" lon="8.0497911"><ele>564.2</ele><time>2026-04-06T15:27:00.212Z</time></trkpt><trkpt lat="44.4936358" lon="8.0498735"><ele>563.4</ele><time>2026-04-06T15:27:02.212Z</time></trkpt><trkpt lat="44.4935676" lon="8.0499775"><ele>562.6</ele><time>2026-04-06T15:27:04.212Z</time></trkpt><trkpt lat="44.4935232" lon="8.0501366"><ele>561.8</ele><time>2026-04-06T15:27:06.212Z</time></trkpt><trkpt lat="44.4935339" lon="8.0502251"><ele>561.0</ele><time>2026-04-06T15:27:07.212Z</time></trkpt><trkpt lat="44.4935506" lon="8.0503974"><ele>561.0</ele><time>2026-04-06T15:27:09.212Z</time></trkpt><trkpt lat="44.4935484" lon="8.0504992"><ele>561.0</ele><time>2026-04-06T15:27:10.212Z</time></trkpt><trkpt lat="44.4935316" lon="8.0505968"><ele>561.0</ele><time>2026-04-06T15:27:11.212Z</time></trkpt><trkpt lat="44.4935041" lon="8.050704"><ele>561.0</ele><time>2026-04-06T15:27:12.212Z</time></trkpt><trkpt lat="44.493474" lon="8.0508132"><ele>561.0</ele><time>2026-04-06T15:27:13.212Z</time></trkpt><trkpt lat="44.4934502" lon="8.0509051"><ele>561.0</ele><time>2026-04-06T15:27:14.212Z</time></trkpt><trkpt lat="44.4934089" lon="8.051045"><ele>560.0</ele><time>2026-04-06T15:27:16.212Z</time></trkpt><trkpt lat="44.4933404" lon="8.0511712"><ele>559.0</ele><time>2026-04-06T15:27:18.212Z</time></trkpt><trkpt lat="44.4932842" lon="8.0512487"><ele>558.0</ele><time>2026-04-06T15:27:19.212Z</time></trkpt><trkpt lat="44.4932284" lon="8.0513124"><ele>557.0</ele><time>2026-04-06T15:27:20.212Z</time></trkpt><trkpt lat="44.4931642" lon="8.0513611"><ele>556.0</ele><time>2026-04-06T15:27:21.212Z</time></trkpt><trkpt lat="44.4930993" lon="8.051383"><ele>555.0</ele><time>2026-04-06T15:27:22.212Z</time></trkpt><trkpt lat="44.4930353" lon="8.0513858"><ele>555.0</ele><time>2026-04-06T15:27:23.212Z</time></trkpt><trkpt lat="44.4929306" lon="8.0512891"><ele>555.0</ele><time>2026-04-06T15:27:25.212Z</time></trkpt><trkpt lat="44.4928933" lon="8.0511874"><ele>555.0</ele><time>2026-04-06T15:27:26.212Z</time></trkpt><trkpt lat="44.4928893" lon="8.0510937"><ele>555.0</ele><time>2026-04-06T15:27:27.212Z</time></trkpt><trkpt lat="44.4929147" lon="8.0509923"><ele>555.0</ele><time>2026-04-06T15:27:28.212Z</time></trkpt><trkpt lat="44.492961" lon="8.0509161"><ele>555.0</ele><time>2026-04-06T15:27:29.212Z</time></trkpt><trkpt lat="44.4930248" lon="8.0508727"><ele>555.0</ele><time>2026-04-06T15:27:30.212Z</time></trkpt><trkpt lat="44.4931052" lon="8.0508722"><ele>555.0</ele><time>2026-04-06T15:27:31.212Z</time></trkpt><trkpt lat="44.4931759" lon="8.0509058"><ele>555.0</ele><time>2026-04-06T15:27:32.212Z</time></trkpt><trkpt lat="44.4932503" lon="8.0509441"><ele>555.0</ele><time>2026-04-06T15:27:33.212Z</time></trkpt><trkpt lat="44.4933156" lon="8.0510011"><ele>555.0</ele><time>2026-04-06T15:27:34.212Z</time></trkpt><trkpt lat="44.4933707" lon="8.0510459"><ele>555.0</ele><time>2026-04-06T15:27:35.212Z</time></trkpt><trkpt lat="44.4934714" lon="8.0511295"><ele>555.0</ele><time>2026-04-06T15:27:37.213Z</time></trkpt><trkpt lat="44.4935476" lon="8.0511871"><ele>555.0</ele><time>2026-04-06T15:27:39.212Z</time></trkpt><trkpt lat="44.4936042" lon="8.0512465"><ele>555.0</ele><time>2026-04-06T15:27:41.213Z</time></trkpt><trkpt lat="44.4936182" lon="8.0514016"><ele>555.0</ele><time>2026-04-06T15:27:43.212Z</time></trkpt><trkpt lat="44.4936265" lon="8.0514928"><ele>555.0</ele><time>2026-04-06T15:27:44.212Z</time></trkpt><trkpt lat="44.4936389" lon="8.0515849"><ele>555.0</ele><time>2026-04-06T15:27:45.212Z</time></trkpt><trkpt lat="44.4936217" lon="8.0517284"><ele>555.1666666666666</ele><time>2026-04-06T15:27:47.212Z</time></trkpt><trkpt lat="44.4935489" lon="8.0518548"><ele>555.3333333333334</ele><time>2026-04-06T15:27:49.212Z</time></trkpt><trkpt lat="44.4934818" lon="8.0519011"><ele>555.5</ele><time>2026-04-06T15:27:50.212Z</time></trkpt><trkpt lat="44.4934314" lon="8.0519826"><ele>555.6666666666667</ele><time>2026-04-06T15:27:51.212Z</time></trkpt><trkpt lat="44.4934059" lon="8.0520956"><ele>555.8333333333334</ele><time>2026-04-06T15:27:52.212Z</time></trkpt><trkpt lat="44.4933889" lon="8.0522112"><ele>556.0</ele><time>2026-04-06T15:27:53.212Z</time></trkpt><trkpt lat="44.4933917" lon="8.0523116"><ele>556.0</ele><time>2026-04-06T15:27:54.212Z</time></trkpt><trkpt lat="44.493365" lon="8.0523982"><ele>556.0</ele><time>2026-04-06T15:27:55.212Z</time></trkpt><trkpt lat="44.4932982" lon="8.0524685"><ele>556.0</ele><time>2026-04-06T15:27:56.212Z</time></trkpt><trkpt lat="44.4932058" lon="8.0525328"><ele>556.0</ele><time>2026-04-06T15:27:57.212Z</time></trkpt><trkpt lat="44.4930998" lon="8.0526064"><ele>556.0</ele><time>2026-04-06T15:27:58.212Z</time></trkpt><trkpt lat="44.4929897" lon="8.0526994"><ele>556.5</ele><time>2026-04-06T15:27:59.212Z</time></trkpt><trkpt lat="44.4928626" lon="8.0527897"><ele>557.0</ele><time>2026-04-06T15:28:00.212Z</time></trkpt><trkpt lat="44.4927364" lon="8.0528743"><ele>557.5</ele><time>2026-04-06T15:28:01.212Z</time></trkpt><trkpt lat="44.4926177" lon="8.0529453"><ele>558.0</ele><time>2026-04-06T15:28:02.212Z</time></trkpt><trkpt lat="44.492517" lon="8.053007"><ele>558.0</ele><time>2026-04-06T15:28:03.212Z</time></trkpt><trkpt lat="44.4924258" lon="8.053055"><ele>558.0</ele><time>2026-04-06T15:28:04.212Z</time></trkpt><trkpt lat="44.4923424" lon="8.0531016"><ele>558.0</ele><time>2026-04-06T15:28:05.212Z</time></trkpt><trkpt lat="44.4922562" lon="8.053155"><ele>558.0</ele><time>2026-04-06T15:28:06.212Z</time></trkpt><trkpt lat="44.4921783" lon="8.0532515"><ele>558.0</ele><time>2026-04-06T15:28:07.212Z</time></trkpt><trkpt lat="44.4920988" lon="8.0533585"><ele>558.75</ele><time>2026-04-06T15:28:08.212Z</time></trkpt><trkpt lat="44.4920329" lon="8.0535025"><ele>559.5</ele><time>2026-04-06T15:28:09.212Z</time></trkpt><trkpt lat="44.4919645" lon="8.0536659"><ele>560.25</ele><time>2026-04-06T15:28:10.212Z</time></trkpt><trkpt lat="44.4919182" lon="8.0538471"><ele>561.0</ele><time>2026-04-06T15:28:11.212Z</time></trkpt><trkpt lat="44.4918632" lon="8.0540038"><ele>563.2</ele><time>2026-04-06T15:28:12.212Z</time></trkpt><trkpt lat="44.4917989" lon="8.0541268"><ele>565.4000000000001</ele><time>2026-04-06T15:28:13.212Z</time></trkpt><trkpt lat="44.4917356" lon="8.0542492"><ele>567.6</ele><time>2026-04-06T15:28:14.212Z</time></trkpt><trkpt lat="44.4916808" lon="8.0543823"><ele>569.8000000000001</ele><time>2026-04-06T15:28:15.212Z</time></trkpt><trkpt lat="44.4916503" lon="8.054521"><ele>572.0</ele><time>2026-04-06T15:28:16.212Z</time></trkpt><trkpt lat="44.4916215" lon="8.054643"><ele>572.0</ele><time>2026-04-06T15:28:17.212Z</time></trkpt><trkpt lat="44.4915857" lon="8.0547547"><ele>572.0</ele><time>2026-04-06T15:28:18.212Z</time></trkpt><trkpt lat="44.4915382" lon="8.0548369"><ele>572.0</ele><time>2026-04-06T15:28:19.212Z</time></trkpt><trkpt lat="44.4914727" lon="8.0548967"><ele>572.0</ele><time>2026-04-06T15:28:20.212Z</time></trkpt><trkpt lat="44.4914002" lon="8.054924"><ele>572.0</ele><time>2026-04-06T15:28:21.212Z</time></trkpt><trkpt lat="44.4913222" lon="8.0549355"><ele>572.0</ele><time>2026-04-06T15:28:22.212Z</time></trkpt><trkpt lat="44.4912193" lon="8.0549624"><ele>574.2</ele><time>2026-04-06T15:28:24.212Z</time></trkpt><trkpt lat="44.4911514" lon="8.0549998"><ele>576.4000000000001</ele><time>2026-04-06T15:28:27.212Z</time></trkpt><trkpt lat="44.4910202" lon="8.0550658"><ele>578.5999999999999</ele><time>2026-04-06T15:28:29.212Z</time></trkpt><trkpt lat="44.4909481" lon="8.0551101"><ele>580.8</ele><time>2026-04-06T15:28:30.212Z</time></trkpt><trkpt lat="44.4908673" lon="8.0551637"><ele>583.0</ele><time>2026-04-06T15:28:31.212Z</time></trkpt><trkpt lat="44.4907893" lon="8.0552066"><ele>583.0000000000001</ele><time>2026-04-06T15:28:32.212Z</time></trkpt><trkpt lat="44.4907162" lon="8.0552464"><ele>583.0</ele><time>2026-04-06T15:28:33.212Z</time></trkpt><trkpt lat="44.4906479" lon="8.0552765"><ele>583.0</ele><time>2026-04-06T15:28:34.212Z</time></trkpt><trkpt lat="44.4905751" lon="8.055312"><ele>583.0</ele><time>2026-04-06T15:28:35.212Z</time></trkpt><trkpt lat="44.4905076" lon="8.0553443"><ele>583.0</ele><time>2026-04-06T15:28:36.212Z</time></trkpt><trkpt lat="44.4904375" lon="8.0553737"><ele>583.0000000000001</ele><time>2026-04-06T15:28:37.212Z</time></trkpt><trkpt lat="44.4903741" lon="8.0553997"><ele>583.0</ele><time>2026-04-06T15:28:38.213Z</time></trkpt><trkpt lat="44.4902671" lon="8.0554331"><ele>582.0</ele><time>2026-04-06T15:28:40.212Z</time></trkpt><trkpt lat="44.4902031" lon="8.0554473"><ele>581.0</ele><time>2026-04-06T15:28:42.212Z</time></trkpt><trkpt lat="44.4901076" lon="8.0555015"><ele>580.0</ele><time>2026-04-06T15:28:45.212Z</time></trkpt><trkpt lat="44.4900228" lon="8.0555055"><ele>579.0</ele><time>2026-04-06T15:28:46.212Z</time></trkpt><trkpt lat="44.4899328" lon="8.0555038"><ele>578.0</ele><time>2026-04-06T15:28:47.212Z</time></trkpt><trkpt lat="44.4898197" lon="8.0555041"><ele>578.0</ele><time>2026-04-06T15:28:48.212Z</time></trkpt><trkpt lat="44.4897032" lon="8.0554989"><ele>578.0</ele><time>2026-04-06T15:28:49.212Z</time></trkpt><trkpt lat="44.4895785" lon="8.0554999"><ele>578.0</ele><time>2026-04-06T15:28:50.212Z</time></trkpt><trkpt lat="44.4894455" lon="8.0554979"><ele>578.0</ele><time>2026-04-06T15:28:51.212Z</time></trkpt><trkpt lat="44.4893138" lon="8.0555011"><ele>577.25</ele><time>2026-04-06T15:28:52.213Z</time></trkpt><trkpt lat="44.4891853" lon="8.0554977"><ele>576.5</ele><time>2026-04-06T15:28:53.212Z</time></trkpt><trkpt lat="44.4890622" lon="8.0554944"><ele>575.75</ele><time>2026-04-06T15:28:54.212Z</time></trkpt><trkpt lat="44.4889423" lon="8.0554909"><ele>575.0</ele><time>2026-04-06T15:28:55.212Z</time></trkpt><trkpt lat="44.4888251" lon="8.0554942"><ele>573.8333333333333</ele><time>2026-04-06T15:28:56.212Z</time></trkpt><trkpt lat="44.4887169" lon="8.0554847"><ele>572.6666666666666</ele><time>2026-04-06T15:28:57.212Z</time></trkpt><trkpt lat="44.488623" lon="8.0554817"><ele>571.5</ele><time>2026-04-06T15:28:58.212Z</time></trkpt><trkpt lat="44.4885373" lon="8.0554734"><ele>570.3333333333334</ele><time>2026-04-06T15:28:59.212Z</time></trkpt><trkpt lat="44.4884644" lon="8.0554802"><ele>569.1666666666667</ele><time>2026-04-06T15:29:00.212Z</time></trkpt><trkpt lat="44.4883974" lon="8.0555013"><ele>568.0</ele><time>2026-04-06T15:29:01.212Z</time></trkpt><trkpt lat="44.488293" lon="8.0555981"><ele>568.0</ele><time>2026-04-06T15:29:03.212Z</time></trkpt><trkpt lat="44.4882683" lon="8.055701"><ele>568.0</ele><time>2026-04-06T15:29:04.212Z</time></trkpt><trkpt lat="44.4882604" lon="8.0558274"><ele>568.0</ele><time>2026-04-06T15:29:05.212Z</time></trkpt><trkpt lat="44.4882784" lon="8.0559493"><ele>568.0</ele><time>2026-04-06T15:29:06.212Z</time></trkpt><trkpt lat="44.4883002" lon="8.0560634"><ele>568.0</ele><time>2026-04-06T15:29:07.212Z</time></trkpt><trkpt lat="44.4882897" lon="8.0561712"><ele>568.0</ele><time>2026-04-06T15:29:08.212Z</time></trkpt><trkpt lat="44.48825" lon="8.0562544"><ele>568.1999999999999</ele><time>2026-04-06T15:29:09.212Z</time></trkpt><trkpt lat="44.4881161" lon="8.0562739"><ele>568.4</ele><time>2026-04-06T15:29:11.212Z</time></trkpt><trkpt lat="44.4880463" lon="8.0562145"><ele>568.5999999999999</ele><time>2026-04-06T15:29:12.212Z</time></trkpt><trkpt lat="44.4879695" lon="8.0561198"><ele>568.8</ele><time>2026-04-06T15:29:13.212Z</time></trkpt><trkpt lat="44.4878829" lon="8.0560004"><ele>569.0</ele><time>2026-04-06T15:29:14.212Z</time></trkpt><trkpt lat="44.4878037" lon="8.0558749"><ele>568.2</ele><time>2026-04-06T15:29:15.212Z</time></trkpt><trkpt lat="44.4877229" lon="8.05576"><ele>567.4</ele><time>2026-04-06T15:29:16.212Z</time></trkpt><trkpt lat="44.4876399" lon="8.0556464"><ele>566.6</ele><time>2026-04-06T15:29:17.212Z</time></trkpt><trkpt lat="44.4875659" lon="8.0555366"><ele>565.8</ele><time>2026-04-06T15:29:18.212Z</time></trkpt><trkpt lat="44.4875093" lon="8.0554384"><ele>565.0</ele><time>2026-04-06T15:29:19.212Z</time></trkpt><trkpt lat="44.4874642" lon="8.0553431"><ele>565.0</ele><time>2026-04-06T15:29:20.212Z</time></trkpt><trkpt lat="44.4874031" lon="8.0552267"><ele>565.0</ele><time>2026-04-06T15:29:21.213Z</time></trkpt><trkpt lat="44.4873269" lon="8.0550789"><ele>565.0</ele><time>2026-04-06T15:29:22.212Z</time></trkpt><trkpt lat="44.4872494" lon="8.0549111"><ele>565.0</ele><time>2026-04-06T15:29:23.212Z</time></trkpt><trkpt lat="44.4871726" lon="8.0547359"><ele>564.75</ele><time>2026-04-06T15:29:24.212Z</time></trkpt><trkpt lat="44.4870937" lon="8.0545645"><ele>564.5</ele><time>2026-04-06T15:29:25.212Z</time></trkpt><trkpt lat="44.4870176" lon="8.0543897"><ele>564.25</ele><time>2026-04-06T15:29:26.212Z</time></trkpt><trkpt lat="44.486937" lon="8.054218"><ele>564.0</ele><time>2026-04-06T15:29:27.212Z</time></trkpt><trkpt lat="44.4868533" lon="8.0540475"><ele>564.5</ele><time>2026-04-06T15:29:28.212Z</time></trkpt><trkpt lat="44.4867808" lon="8.0538876"><ele>565.0</ele><time>2026-04-06T15:29:29.212Z</time></trkpt><trkpt lat="44.4867157" lon="8.0537427"><ele>565.5</ele><time>2026-04-06T15:29:30.212Z</time></trkpt><trkpt lat="44.4866584" lon="8.0536145"><ele>566.0</ele><time>2026-04-06T15:29:31.212Z</time></trkpt><trkpt lat="44.4866068" lon="8.0535026"><ele>566.0</ele><time>2026-04-06T15:29:32.212Z</time></trkpt><trkpt lat="44.4865576" lon="8.0533981"><ele>566.0</ele><time>2026-04-06T15:29:33.212Z</time></trkpt><trkpt lat="44.4864944" lon="8.0533258"><ele>566.0</ele><time>2026-04-06T15:29:34.212Z</time></trkpt><trkpt lat="44.4864288" lon="8.0533017"><ele>566.0</ele><time>2026-04-06T15:29:35.212Z</time></trkpt><trkpt lat="44.4863113" lon="8.0533789"><ele>566.0</ele><time>2026-04-06T15:29:37.212Z</time></trkpt><trkpt lat="44.4862552" lon="8.0534293"><ele>566.0</ele><time>2026-04-06T15:29:38.212Z</time></trkpt><trkpt lat="44.4861943" lon="8.0534803"><ele>568.3333333333333</ele><time>2026-04-06T15:29:39.212Z</time></trkpt><trkpt lat="44.4861376" lon="8.053546"><ele>570.6666666666666</ele><time>2026-04-06T15:29:40.212Z</time></trkpt><trkpt lat="44.4860876" lon="8.0536006"><ele>573.0</ele><time>2026-04-06T15:29:41.212Z</time></trkpt><trkpt lat="44.4860347" lon="8.0536581"><ele>575.3333333333334</ele><time>2026-04-06T15:29:42.212Z</time></trkpt><trkpt lat="44.4859458" lon="8.0537449"><ele>577.6666666666667</ele><time>2026-04-06T15:29:44.213Z</time></trkpt><trkpt lat="44.4858865" lon="8.0537998"><ele>580.0</ele><time>2026-04-06T15:29:46.212Z</time></trkpt><trkpt lat="44.4859578" lon="8.0537537"><ele>580.0</ele><time>2026-04-06T15:30:06.212Z</time></trkpt><trkpt lat="44.4861362" lon="8.0535626"><ele>580.0</ele><time>2026-04-06T15:30:09.212Z</time></trkpt><trkpt lat="44.4861963" lon="8.0535075"><ele>580.0</ele><time>2026-04-06T15:30:10.212Z</time></trkpt><trkpt lat="44.4862898" lon="8.053408"><ele>580.0</ele><time>2026-04-06T15:30:12.212Z</time></trkpt><trkpt lat="44.4863904" lon="8.0533489"><ele>577.2</ele><time>2026-04-06T15:30:14.212Z</time></trkpt><trkpt lat="44.4864841" lon="8.0533349"><ele>574.4</ele><time>2026-04-06T15:30:16.212Z</time></trkpt><trkpt lat="44.4865845" lon="8.0534634"><ele>571.6</ele><time>2026-04-06T15:30:18.212Z</time></trkpt><trkpt lat="44.4866327" lon="8.053581"><ele>568.8</ele><time>2026-04-06T15:30:19.212Z</time></trkpt><trkpt lat="44.4866939" lon="8.053725"><ele>566.0</ele><time>2026-04-06T15:30:20.212Z</time></trkpt><trkpt lat="44.4867625" lon="8.0538773"><ele>566.0</ele><time>2026-04-06T15:30:21.212Z</time></trkpt><trkpt lat="44.4868342" lon="8.0540418"><ele>566.0</ele><time>2026-04-06T15:30:22.212Z</time></trkpt><trkpt lat="44.4869067" lon="8.0542004"><ele>566.0</ele><time>2026-04-06T15:30:23.212Z</time></trkpt><trkpt lat="44.4869745" lon="8.0543592"><ele>566.0</ele><time>2026-04-06T15:30:24.212Z</time></trkpt><trkpt lat="44.4870368" lon="8.0545018"><ele>565.8</ele><time>2026-04-06T15:30:25.212Z</time></trkpt><trkpt lat="44.4870924" lon="8.0546452"><ele>565.6</ele><time>2026-04-06T15:30:26.212Z</time></trkpt><trkpt lat="44.4871528" lon="8.0547648"><ele>565.4</ele><time>2026-04-06T15:30:27.212Z</time></trkpt><trkpt lat="44.4872055" lon="8.0548758"><ele>565.2</ele><time>2026-04-06T15:30:28.212Z</time></trkpt><trkpt lat="44.4872533" lon="8.0549709"><ele>565.0</ele><time>2026-04-06T15:30:29.212Z</time></trkpt><trkpt lat="44.487303" lon="8.0550967"><ele>565.0</ele><time>2026-04-06T15:30:31.212Z</time></trkpt><trkpt lat="44.4872284" lon="8.0552208"><ele>565.0</ele><time>2026-04-06T15:30:34.212Z</time></trkpt><trkpt lat="44.4870185" lon="8.0555067"><ele>565.0</ele><time>2026-04-06T15:30:37.212Z</time></trkpt><trkpt lat="44.4869356" lon="8.05562"><ele>564.5</ele><time>2026-04-06T15:30:38.212Z</time></trkpt><trkpt lat="44.4868467" lon="8.0557465"><ele>564.0</ele><time>2026-04-06T15:30:39.212Z</time></trkpt><trkpt lat="44.4867544" lon="8.0558735"><ele>563.5</ele><time>2026-04-06T15:30:40.212Z</time></trkpt><trkpt lat="44.4866675" lon="8.0559995"><ele>563.0</ele><time>2026-04-06T15:30:41.213Z</time></trkpt><trkpt lat="44.4865866" lon="8.0561116"><ele>563.75</ele><time>2026-04-06T15:30:42.212Z</time></trkpt><trkpt lat="44.4865029" lon="8.0562"><ele>564.5</ele><time>2026-04-06T15:30:43.212Z</time></trkpt><trkpt lat="44.4864167" lon="8.0562807"><ele>565.25</ele><time>2026-04-06T15:30:44.212Z</time></trkpt><trkpt lat="44.486304" lon="8.0563315"><ele>566.0</ele><time>2026-04-06T15:30:45.212Z</time></trkpt><trkpt lat="44.4861497" lon="8.056377"><ele>566.0</ele><time>2026-04-06T15:30:46.212Z</time></trkpt><trkpt lat="44.4859761" lon="8.0564303"><ele>566.0</ele><time>2026-04-06T15:30:47.212Z</time></trkpt><trkpt lat="44.4858082" lon="8.056488"><ele>566.0</ele><time>2026-04-06T15:30:48.212Z</time></trkpt><trkpt lat="44.4856548" lon="8.0565485"><ele>566.0</ele><time>2026-04-06T15:30:49.212Z</time></trkpt><trkpt lat="44.4855143" lon="8.0566185"><ele>566.0</ele><time>2026-04-06T15:30:50.212Z</time></trkpt><trkpt lat="44.4853782" lon="8.0567111"><ele>566.0</ele><time>2026-04-06T15:30:51.212Z</time></trkpt><trkpt lat="44.4852499" lon="8.0568095"><ele>566.0</ele><time>2026-04-06T15:30:52.212Z</time></trkpt><trkpt lat="44.4851316" lon="8.0569111"><ele>566.0</ele><time>2026-04-06T15:30:53.212Z</time></trkpt><trkpt lat="44.4850235" lon="8.0570099"><ele>566.0</ele><time>2026-04-06T15:30:54.212Z</time></trkpt><trkpt lat="44.4849202" lon="8.0570991"><ele>566.0</ele><time>2026-04-06T15:30:55.212Z</time></trkpt><trkpt lat="44.4848132" lon="8.057175"><ele>566.0</ele><time>2026-04-06T15:30:56.212Z</time></trkpt><trkpt lat="44.4846954" lon="8.0572292"><ele>566.0</ele><time>2026-04-06T15:30:57.212Z</time></trkpt><trkpt lat="44.4845676" lon="8.0572499"><ele>566.0</ele><time>2026-04-06T15:30:58.212Z</time></trkpt><trkpt lat="44.4844337" lon="8.0572376"><ele>566.0</ele><time>2026-04-06T15:30:59.212Z</time></trkpt><trkpt lat="44.4842837" lon="8.0571898"><ele>566.0</ele><time>2026-04-06T15:31:00.212Z</time></trkpt><trkpt lat="44.4841315" lon="8.0571113"><ele>566.0</ele><time>2026-04-06T15:31:01.212Z</time></trkpt><trkpt lat="44.4840015" lon="8.0570435"><ele>566.0</ele><time>2026-04-06T15:31:02.212Z</time></trkpt><trkpt lat="44.4838852" lon="8.0569996"><ele>566.0</ele><time>2026-04-06T15:31:03.212Z</time></trkpt><trkpt lat="44.4837729" lon="8.0569551"><ele>566.0</ele><time>2026-04-06T15:31:04.212Z</time></trkpt><trkpt lat="44.4836597" lon="8.0569002"><ele>566.25</ele><time>2026-04-06T15:31:05.212Z</time></trkpt><trkpt lat="44.4835313" lon="8.0568431"><ele>566.5</ele><time>2026-04-06T15:31:06.212Z</time></trkpt><trkpt lat="44.4833947" lon="8.0567795"><ele>566.75</ele><time>2026-04-06T15:31:07.212Z</time></trkpt><trkpt lat="44.483252" lon="8.056707"><ele>567.0</ele><time>2026-04-06T15:31:08.212Z</time></trkpt><trkpt lat="44.4830968" lon="8.0566456"><ele>569.0</ele><time>2026-04-06T15:31:09.212Z</time></trkpt><trkpt lat="44.4829312" lon="8.0566051"><ele>571.0</ele><time>2026-04-06T15:31:10.212Z</time></trkpt><trkpt lat="44.4827787" lon="8.0565909"><ele>573.0</ele><time>2026-04-06T15:31:11.212Z</time></trkpt><trkpt lat="44.4826275" lon="8.0565994"><ele>572.5</ele><time>2026-04-06T15:31:12.212Z</time></trkpt><trkpt lat="44.4824823" lon="8.0566543"><ele>572.0</ele><time>2026-04-06T15:31:13.212Z</time></trkpt><trkpt lat="44.4823596" lon="8.0567479"><ele>571.5</ele><time>2026-04-06T15:31:14.212Z</time></trkpt><trkpt lat="44.4822394" lon="8.0568712"><ele>571.0</ele><time>2026-04-06T15:31:15.213Z</time></trkpt><trkpt lat="44.4821077" lon="8.0570108"><ele>573.6666666666667</ele><time>2026-04-06T15:31:16.212Z</time></trkpt><trkpt lat="44.4819781" lon="8.0571514"><ele>576.3333333333334</ele><time>2026-04-06T15:31:17.212Z</time></trkpt><trkpt lat="44.4818591" lon="8.0572897"><ele>579.0</ele><time>2026-04-06T15:31:18.212Z</time></trkpt><trkpt lat="44.4817501" lon="8.0574176"><ele>577.25</ele><time>2026-04-06T15:31:19.212Z</time></trkpt><trkpt lat="44.481626" lon="8.0575202"><ele>575.5</ele><time>2026-04-06T15:31:20.212Z</time></trkpt><trkpt lat="44.4814871" lon="8.0575979"><ele>573.75</ele><time>2026-04-06T15:31:21.212Z</time></trkpt><trkpt lat="44.4813403" lon="8.0576668"><ele>572.0</ele><time>2026-04-06T15:31:22.212Z</time></trkpt><trkpt lat="44.4811809" lon="8.0577203"><ele>572.0</ele><time>2026-04-06T15:31:23.212Z</time></trkpt><trkpt lat="44.4810208" lon="8.0577624"><ele>572.0</ele><time>2026-04-06T15:31:24.213Z</time></trkpt><trkpt lat="44.4808612" lon="8.0578012"><ele>572.0</ele><time>2026-04-06T15:31:25.212Z</time></trkpt><trkpt lat="44.4807111" lon="8.0578528"><ele>572.0</ele><time>2026-04-06T15:31:26.212Z</time></trkpt><trkpt lat="44.4805651" lon="8.0579119"><ele>572.0</ele><time>2026-04-06T15:31:27.212Z</time></trkpt><trkpt lat="44.4804267" lon="8.057982"><ele>572.0</ele><time>2026-04-06T15:31:28.212Z</time></trkpt><trkpt lat="44.4803006" lon="8.0580551"><ele>572.0</ele><time>2026-04-06T15:31:29.212Z</time></trkpt><trkpt lat="44.4801777" lon="8.0580921"><ele>571.75</ele><time>2026-04-06T15:31:30.212Z</time></trkpt><trkpt lat="44.4800539" lon="8.058091"><ele>571.5</ele><time>2026-04-06T15:31:31.212Z</time></trkpt><trkpt lat="44.479929" lon="8.0580657"><ele>571.25</ele><time>2026-04-06T15:31:32.212Z</time></trkpt><trkpt lat="44.4798046" lon="8.0580121"><ele>571.0</ele><time>2026-04-06T15:31:33.212Z</time></trkpt><trkpt lat="44.479688" lon="8.0579243"><ele>570.75</ele><time>2026-04-06T15:31:34.212Z</time></trkpt><trkpt lat="44.479581" lon="8.0578058"><ele>570.5</ele><time>2026-04-06T15:31:35.212Z</time></trkpt><trkpt lat="44.4794827" lon="8.0576782"><ele>570.25</ele><time>2026-04-06T15:31:36.212Z</time></trkpt><trkpt lat="44.4793886" lon="8.0575555"><ele>570.0</ele><time>2026-04-06T15:31:37.212Z</time></trkpt><trkpt lat="44.4792939" lon="8.0574467"><ele>570.0</ele><time>2026-04-06T15:31:38.213Z</time></trkpt><trkpt lat="44.4791882" lon="8.0573712"><ele>570.0</ele><time>2026-04-06T15:31:39.212Z</time></trkpt><trkpt lat="44.479068" lon="8.0573249"><ele>570.0</ele><time>2026-04-06T15:31:40.212Z</time></trkpt><trkpt lat="44.4789331" lon="8.0572943"><ele>570.0</ele><time>2026-04-06T15:31:41.212Z</time></trkpt><trkpt lat="44.4787863" lon="8.0572823"><ele>570.3333333333334</ele><time>2026-04-06T15:31:42.212Z</time></trkpt><trkpt lat="44.4786314" lon="8.0572672"><ele>570.6666666666667</ele><time>2026-04-06T15:31:43.212Z</time></trkpt><trkpt lat="44.478472" lon="8.0572504"><ele>571.0</ele><time>2026-04-06T15:31:44.212Z</time></trkpt><trkpt lat="44.4783124" lon="8.057246"><ele>571.0</ele><time>2026-04-06T15:31:45.212Z</time></trkpt><trkpt lat="44.478164" lon="8.0572651"><ele>571.0</ele><time>2026-04-06T15:31:46.213Z</time></trkpt><trkpt lat="44.4780219" lon="8.0573045"><ele>571.0</ele><time>2026-04-06T15:31:47.212Z</time></trkpt><trkpt lat="44.4779048" lon="8.0573431"><ele>571.0</ele><time>2026-04-06T15:31:48.212Z</time></trkpt><trkpt lat="44.4777957" lon="8.0573634"><ele>572.25</ele><time>2026-04-06T15:31:49.212Z</time></trkpt><trkpt lat="44.4776897" lon="8.0573418"><ele>573.5</ele><time>2026-04-06T15:31:50.212Z</time></trkpt><trkpt lat="44.4775895" lon="8.0572607"><ele>574.75</ele><time>2026-04-06T15:31:51.212Z</time></trkpt><trkpt lat="44.477487" lon="8.0571584"><ele>576.0</ele><time>2026-04-06T15:31:52.212Z</time></trkpt><trkpt lat="44.4773624" lon="8.0570548"><ele>576.0</ele><time>2026-04-06T15:31:53.212Z</time></trkpt><trkpt lat="44.4772367" lon="8.0569473"><ele>576.0</ele><time>2026-04-06T15:31:54.212Z</time></trkpt><trkpt lat="44.4771003" lon="8.0568453"><ele>576.0</ele><time>2026-04-06T15:31:55.213Z</time></trkpt><trkpt lat="44.4769601" lon="8.0567506"><ele>576.5</ele><time>2026-04-06T15:31:56.212Z</time></trkpt><trkpt lat="44.4768229" lon="8.0566795"><ele>577.0</ele><time>2026-04-06T15:31:57.212Z</time></trkpt><trkpt lat="44.4766928" lon="8.0566186"><ele>577.5</ele><time>2026-04-06T15:31:58.212Z</time></trkpt><trkpt lat="44.4765641" lon="8.0565627"><ele>578.0</ele><time>2026-04-06T15:31:59.212Z</time></trkpt><trkpt lat="44.4764349" lon="8.0565009"><ele>578.0</ele><time>2026-04-06T15:32:00.212Z</time></trkpt><trkpt lat="44.4763132" lon="8.0564042"><ele>578.0</ele><time>2026-04-06T15:32:01.212Z</time></trkpt><trkpt lat="44.4761996" lon="8.0562862"><ele>578.0</ele><time>2026-04-06T15:32:02.212Z</time></trkpt><trkpt lat="44.476093" lon="8.056152"><ele>578.0</ele><time>2026-04-06T15:32:03.212Z</time></trkpt><trkpt lat="44.4759641" lon="8.0560104"><ele>577.6666666666666</ele><time>2026-04-06T15:32:04.212Z</time></trkpt><trkpt lat="44.4758257" lon="8.0558711"><ele>577.3333333333334</ele><time>2026-04-06T15:32:05.212Z</time></trkpt><trkpt lat="44.4756846" lon="8.0557295"><ele>577.0</ele><time>2026-04-06T15:32:06.212Z</time></trkpt><trkpt lat="44.475547" lon="8.0555871"><ele>581.3333333333334</ele><time>2026-04-06T15:32:07.212Z</time></trkpt><trkpt lat="44.4754118" lon="8.0554496"><ele>585.6666666666666</ele><time>2026-04-06T15:32:08.212Z</time></trkpt><trkpt lat="44.4752901" lon="8.0552995"><ele>590.0</ele><time>2026-04-06T15:32:09.212Z</time></trkpt><trkpt lat="44.4751935" lon="8.055144"><ele>590.0</ele><time>2026-04-06T15:32:10.212Z</time></trkpt><trkpt lat="44.4751018" lon="8.0550025"><ele>590.0</ele><time>2026-04-06T15:32:11.213Z</time></trkpt><trkpt lat="44.4750035" lon="8.0548556"><ele>590.0</ele><time>2026-04-06T15:32:12.212Z</time></trkpt><trkpt lat="44.4748947" lon="8.0547083"><ele>590.0</ele><time>2026-04-06T15:32:13.212Z</time></trkpt><trkpt lat="44.4747774" lon="8.0545584"><ele>592.3333333333333</ele><time>2026-04-06T15:32:14.212Z</time></trkpt><trkpt lat="44.4746506" lon="8.0544112"><ele>594.6666666666666</ele><time>2026-04-06T15:32:15.212Z</time></trkpt><trkpt lat="44.4745077" lon="8.0542637"><ele>597.0</ele><time>2026-04-06T15:32:16.212Z</time></trkpt><trkpt lat="44.4743678" lon="8.054108"><ele>591.3333333333334</ele><time>2026-04-06T15:32:17.212Z</time></trkpt><trkpt lat="44.4742203" lon="8.053965"><ele>585.6666666666667</ele><time>2026-04-06T15:32:18.212Z</time></trkpt><trkpt lat="44.4740829" lon="8.0538113"><ele>580.0</ele><time>2026-04-06T15:32:19.212Z</time></trkpt><trkpt lat="44.4739503" lon="8.0536595"><ele>580.0</ele><time>2026-04-06T15:32:20.212Z</time></trkpt><trkpt lat="44.4738193" lon="8.0535172"><ele>580.0</ele><time>2026-04-06T15:32:21.212Z</time></trkpt><trkpt lat="44.4736884" lon="8.0533825"><ele>580.0</ele><time>2026-04-06T15:32:22.212Z</time></trkpt><trkpt lat="44.4735691" lon="8.0532596"><ele>579.75</ele><time>2026-04-06T15:32:23.212Z</time></trkpt><trkpt lat="44.4734614" lon="8.0531317"><ele>579.5</ele><time>2026-04-06T15:32:24.212Z</time></trkpt><trkpt lat="44.4733564" lon="8.0530105"><ele>579.25</ele><time>2026-04-06T15:32:25.212Z</time></trkpt><trkpt lat="44.4732568" lon="8.0528886"><ele>579.0</ele><time>2026-04-06T15:32:26.212Z</time></trkpt><trkpt lat="44.4731632" lon="8.0527697"><ele>579.0</ele><time>2026-04-06T15:32:27.212Z</time></trkpt><trkpt lat="44.4730761" lon="8.0526565"><ele>579.0</ele><time>2026-04-06T15:32:28.212Z</time></trkpt><trkpt lat="44.4730083" lon="8.0525584"><ele>579.0</ele><time>2026-04-06T15:32:29.212Z</time></trkpt><trkpt lat="44.4729431" lon="8.0524736"><ele>579.0</ele><time>2026-04-06T15:32:30.212Z</time></trkpt><trkpt lat="44.4728726" lon="8.0524008"><ele>579.0</ele><time>2026-04-06T15:32:31.212Z</time></trkpt><trkpt lat="44.4728" lon="8.0523406"><ele>578.6</ele><time>2026-04-06T15:32:32.212Z</time></trkpt><trkpt lat="44.4727274" lon="8.052307"><ele>578.2</ele><time>2026-04-06T15:32:33.212Z</time></trkpt><trkpt lat="44.4726484" lon="8.0522961"><ele>577.8000000000001</ele><time>2026-04-06T15:32:34.212Z</time></trkpt><trkpt lat="44.4725664" lon="8.0523624"><ele>577.4</ele><time>2026-04-06T15:32:35.212Z</time></trkpt><trkpt lat="44.472483" lon="8.0524869"><ele>577.0</ele><time>2026-04-06T15:32:36.212Z</time></trkpt><trkpt lat="44.4723955" lon="8.0526368"><ele>577.25</ele><time>2026-04-06T15:32:37.212Z</time></trkpt><trkpt lat="44.472306" lon="8.0527825"><ele>577.5</ele><time>2026-04-06T15:32:38.212Z</time></trkpt><trkpt lat="44.4722125" lon="8.0529136"><ele>577.75</ele><time>2026-04-06T15:32:39.212Z</time></trkpt><trkpt lat="44.4721109" lon="8.0530208"><ele>578.0</ele><time>2026-04-06T15:32:40.212Z</time></trkpt><trkpt lat="44.4720066" lon="8.0531042"><ele>578.0</ele><time>2026-04-06T15:32:41.212Z</time></trkpt><trkpt lat="44.4718937" lon="8.0531773"><ele>578.0</ele><time>2026-04-06T15:32:42.212Z</time></trkpt><trkpt lat="44.4717569" lon="8.0532049"><ele>578.0</ele><time>2026-04-06T15:32:43.212Z</time></trkpt><trkpt lat="44.4716029" lon="8.0532128"><ele>578.0</ele><time>2026-04-06T15:32:44.212Z</time></trkpt><trkpt lat="44.4714337" lon="8.0532295"><ele>578.0</ele><time>2026-04-06T15:32:45.212Z</time></trkpt><trkpt lat="44.4712429" lon="8.0532518"><ele>578.0</ele><time>2026-04-06T15:32:46.212Z</time></trkpt><trkpt lat="44.471039" lon="8.0532943"><ele>578.0</ele><time>2026-04-06T15:32:47.212Z</time></trkpt><trkpt lat="44.4708391" lon="8.0533387"><ele>580.0</ele><time>2026-04-06T15:32:48.212Z</time></trkpt><trkpt lat="44.470634" lon="8.0533841"><ele>582.0</ele><time>2026-04-06T15:32:49.212Z</time></trkpt><trkpt lat="44.4704497" lon="8.0534241"><ele>584.0</ele><time>2026-04-06T15:32:50.213Z</time></trkpt><trkpt lat="44.4702948" lon="8.0534568"><ele>584.0</ele><time>2026-04-06T15:32:51.212Z</time></trkpt><trkpt lat="44.4701605" lon="8.0534745"><ele>584.0</ele><time>2026-04-06T15:32:52.213Z</time></trkpt><trkpt lat="44.4700297" lon="8.0534773"><ele>584.0</ele><time>2026-04-06T15:32:53.212Z</time></trkpt><trkpt lat="44.4699177" lon="8.0534889"><ele>584.0</ele><time>2026-04-06T15:32:54.212Z</time></trkpt><trkpt lat="44.4698099" lon="8.0535237"><ele>584.0</ele><time>2026-04-06T15:32:55.212Z</time></trkpt><trkpt lat="44.4696958" lon="8.0535854"><ele>584.0</ele><time>2026-04-06T15:32:56.212Z</time></trkpt><trkpt lat="44.4695761" lon="8.0536706"><ele>584.0</ele><time>2026-04-06T15:32:57.212Z</time></trkpt><trkpt lat="44.4694577" lon="8.0537715"><ele>584.0</ele><time>2026-04-06T15:32:58.212Z</time></trkpt><trkpt lat="44.4693563" lon="8.0539014"><ele>583.3333333333333</ele><time>2026-04-06T15:32:59.212Z</time></trkpt><trkpt lat="44.469259" lon="8.0540578"><ele>582.6666666666666</ele><time>2026-04-06T15:33:00.212Z</time></trkpt><trkpt lat="44.4691693" lon="8.0542481"><ele>582.0</ele><time>2026-04-06T15:33:01.212Z</time></trkpt><trkpt lat="44.4690786" lon="8.0544474"><ele>583.3333333333334</ele><time>2026-04-06T15:33:02.212Z</time></trkpt><trkpt lat="44.46899" lon="8.0546406"><ele>584.6666666666667</ele><time>2026-04-06T15:33:03.212Z</time></trkpt><trkpt lat="44.4689008" lon="8.054822"><ele>586.0</ele><time>2026-04-06T15:33:04.212Z</time></trkpt><trkpt lat="44.4688025" lon="8.0549861"><ele>587.0</ele><time>2026-04-06T15:33:05.212Z</time></trkpt><trkpt lat="44.4687015" lon="8.0551281"><ele>588.0</ele><time>2026-04-06T15:33:06.212Z</time></trkpt><trkpt lat="44.468572" lon="8.0552379"><ele>589.0</ele><time>2026-04-06T15:33:07.212Z</time></trkpt><trkpt lat="44.4684321" lon="8.0553379"><ele>589.0</ele><time>2026-04-06T15:33:08.212Z</time></trkpt><trkpt lat="44.468275" lon="8.0554233"><ele>589.0</ele><time>2026-04-06T15:33:09.212Z</time></trkpt><trkpt lat="44.4681117" lon="8.0554914"><ele>589.0</ele><time>2026-04-06T15:33:10.212Z</time></trkpt><trkpt lat="44.4679393" lon="8.0555651"><ele>588.3333333333334</ele><time>2026-04-06T15:33:11.212Z</time></trkpt><trkpt lat="44.4677681" lon="8.0556274"><ele>587.6666666666666</ele><time>2026-04-06T15:33:12.212Z</time></trkpt><trkpt lat="44.4676098" lon="8.0556851"><ele>587.0</ele><time>2026-04-06T15:33:13.212Z</time></trkpt><trkpt lat="44.4674594" lon="8.055736"><ele>587.0</ele><time>2026-04-06T15:33:14.212Z</time></trkpt><trkpt lat="44.4673061" lon="8.0557548"><ele>587.0</ele><time>2026-04-06T15:33:15.212Z</time></trkpt><trkpt lat="44.4671423" lon="8.0557268"><ele>587.0</ele><time>2026-04-06T15:33:16.212Z</time></trkpt><trkpt lat="44.4669742" lon="8.0556634"><ele>587.0</ele><time>2026-04-06T15:33:17.212Z</time></trkpt><trkpt lat="44.4667971" lon="8.0555848"><ele>587.0</ele><time>2026-04-06T15:33:18.212Z</time></trkpt><trkpt lat="44.4666222" lon="8.0555163"><ele>587.0</ele><time>2026-04-06T15:33:19.212Z</time></trkpt><trkpt lat="44.4664371" lon="8.0554613"><ele>588.0</ele><time>2026-04-06T15:33:20.212Z</time></trkpt><trkpt lat="44.4662474" lon="8.0554023"><ele>589.0</ele><time>2026-04-06T15:33:21.212Z</time></trkpt><trkpt lat="44.4660643" lon="8.0553402"><ele>590.0</ele><time>2026-04-06T15:33:22.212Z</time></trkpt><trkpt lat="44.4658887" lon="8.0552886"><ele>590.0</ele><time>2026-04-06T15:33:23.212Z</time></trkpt><trkpt lat="44.4657369" lon="8.055242"><ele>590.0</ele><time>2026-04-06T15:33:24.212Z</time></trkpt><trkpt lat="44.4656093" lon="8.055209"><ele>590.0</ele><time>2026-04-06T15:33:25.212Z</time></trkpt><trkpt lat="44.4654735" lon="8.055195"><ele>590.0</ele><time>2026-04-06T15:33:26.212Z</time></trkpt><trkpt lat="44.4653314" lon="8.0551956"><ele>590.3333333333333</ele><time>2026-04-06T15:33:27.212Z</time></trkpt><trkpt lat="44.4651785" lon="8.0552231"><ele>590.6666666666666</ele><time>2026-04-06T15:33:28.212Z</time></trkpt><trkpt lat="44.4650182" lon="8.0552608"><ele>591.0</ele><time>2026-04-06T15:33:29.212Z</time></trkpt><trkpt lat="44.4648631" lon="8.0552968"><ele>591.0</ele><time>2026-04-06T15:33:30.212Z</time></trkpt><trkpt lat="44.4647139" lon="8.0553199"><ele>591.0</ele><time>2026-04-06T15:33:31.212Z</time></trkpt><trkpt lat="44.4645621" lon="8.0553353"><ele>591.0</ele><time>2026-04-06T15:33:32.212Z</time></trkpt><trkpt lat="44.4644058" lon="8.0553045"><ele>590.6666666666666</ele><time>2026-04-06T15:33:33.212Z</time></trkpt><trkpt lat="44.4642363" lon="8.0552425"><ele>590.3333333333333</ele><time>2026-04-06T15:33:34.212Z</time></trkpt><trkpt lat="44.4640777" lon="8.0551656"><ele>590.0</ele><time>2026-04-06T15:33:35.212Z</time></trkpt><trkpt lat="44.463926" lon="8.0550882"><ele>590.0</ele><time>2026-04-06T15:33:36.212Z</time></trkpt><trkpt lat="44.4637936" lon="8.0550176"><ele>590.0</ele><time>2026-04-06T15:33:37.212Z</time></trkpt><trkpt lat="44.4636654" lon="8.0549542"><ele>590.0</ele><time>2026-04-06T15:33:38.212Z</time></trkpt><trkpt lat="44.4635305" lon="8.0548996"><ele>590.0</ele><time>2026-04-06T15:33:39.212Z</time></trkpt><trkpt lat="44.4633924" lon="8.0548689"><ele>590.0</ele><time>2026-04-06T15:33:40.212Z</time></trkpt><trkpt lat="44.4632478" lon="8.0548815"><ele>590.0</ele><time>2026-04-06T15:33:41.212Z</time></trkpt><trkpt lat="44.4630981" lon="8.0549079"><ele>590.0</ele><time>2026-04-06T15:33:42.212Z</time></trkpt><trkpt lat="44.4629517" lon="8.0549454"><ele>590.0</ele><time>2026-04-06T15:33:43.212Z</time></trkpt><trkpt lat="44.4628068" lon="8.0550175"><ele>590.0</ele><time>2026-04-06T15:33:44.212Z</time></trkpt><trkpt lat="44.4626543" lon="8.0551256"><ele>590.0</ele><time>2026-04-06T15:33:45.212Z</time></trkpt><trkpt lat="44.4624937" lon="8.0552457"><ele>590.0</ele><time>2026-04-06T15:33:46.212Z</time></trkpt><trkpt lat="44.4623242" lon="8.0553863"><ele>590.0</ele><time>2026-04-06T15:33:47.212Z</time></trkpt><trkpt lat="44.4621483" lon="8.0555175"><ele>590.0</ele><time>2026-04-06T15:33:48.212Z</time></trkpt><trkpt lat="44.4619918" lon="8.055633"><ele>590.0</ele><time>2026-04-06T15:33:49.212Z</time></trkpt><trkpt lat="44.4618456" lon="8.055735"><ele>591.25</ele><time>2026-04-06T15:33:50.212Z</time></trkpt><trkpt lat="44.4617106" lon="8.0558103"><ele>592.5</ele><time>2026-04-06T15:33:51.212Z</time></trkpt><trkpt lat="44.4615866" lon="8.055884"><ele>593.75</ele><time>2026-04-06T15:33:52.212Z</time></trkpt><trkpt lat="44.4614626" lon="8.055929"><ele>595.0</ele><time>2026-04-06T15:33:53.212Z</time></trkpt><trkpt lat="44.4613139" lon="8.0559543"><ele>594.0</ele><time>2026-04-06T15:33:54.212Z</time></trkpt><trkpt lat="44.4611668" lon="8.0559692"><ele>593.0</ele><time>2026-04-06T15:33:55.212Z</time></trkpt><trkpt lat="44.4610273" lon="8.0559521"><ele>592.0</ele><time>2026-04-06T15:33:56.212Z</time></trkpt><trkpt lat="44.460907" lon="8.0559136"><ele>591.0</ele><time>2026-04-06T15:33:57.212Z</time></trkpt><trkpt lat="44.4608062" lon="8.0558804"><ele>591.0</ele><time>2026-04-06T15:33:58.212Z</time></trkpt><trkpt lat="44.4607254" lon="8.0558737"><ele>591.0</ele><time>2026-04-06T15:33:59.212Z</time></trkpt><trkpt lat="44.4606578" lon="8.0558834"><ele>591.0</ele><time>2026-04-06T15:34:00.212Z</time></trkpt><trkpt lat="44.4605753" lon="8.0559362"><ele>591.0</ele><time>2026-04-06T15:34:01.212Z</time></trkpt><trkpt lat="44.4604882" lon="8.056035"><ele>591.0</ele><time>2026-04-06T15:34:02.212Z</time></trkpt><trkpt lat="44.4603985" lon="8.0561553"><ele>590.6666666666666</ele><time>2026-04-06T15:34:03.212Z</time></trkpt><trkpt lat="44.4602887" lon="8.0562908"><ele>590.3333333333333</ele><time>2026-04-06T15:34:04.212Z</time></trkpt><trkpt lat="44.4601641" lon="8.0564411"><ele>590.0</ele><time>2026-04-06T15:34:05.212Z</time></trkpt><trkpt lat="44.4600259" lon="8.056584"><ele>589.3333333333333</ele><time>2026-04-06T15:34:06.212Z</time></trkpt><trkpt lat="44.4598738" lon="8.0567123"><ele>588.6666666666666</ele><time>2026-04-06T15:34:07.212Z</time></trkpt><trkpt lat="44.4597227" lon="8.0568277"><ele>588.0</ele><time>2026-04-06T15:34:08.212Z</time></trkpt><trkpt lat="44.4595689" lon="8.0569365"><ele>588.0</ele><time>2026-04-06T15:34:09.212Z</time></trkpt><trkpt lat="44.4594118" lon="8.0570213"><ele>588.0</ele><time>2026-04-06T15:34:10.213Z</time></trkpt><trkpt lat="44.4592513" lon="8.0570823"><ele>588.0</ele><time>2026-04-06T15:34:11.212Z</time></trkpt><trkpt lat="44.459081" lon="8.0571317"><ele>588.0</ele><time>2026-04-06T15:34:12.212Z</time></trkpt><trkpt lat="44.4589041" lon="8.0571847"><ele>588.0</ele><time>2026-04-06T15:34:13.212Z</time></trkpt><trkpt lat="44.4587273" lon="8.05721"><ele>588.0</ele><time>2026-04-06T15:34:14.212Z</time></trkpt><trkpt lat="44.4585602" lon="8.0572172"><ele>588.6666666666666</ele><time>2026-04-06T15:34:15.212Z</time></trkpt><trkpt lat="44.4584018" lon="8.0572236"><ele>589.3333333333333</ele><time>2026-04-06T15:34:16.212Z</time></trkpt><trkpt lat="44.4582501" lon="8.0572429"><ele>590.0</ele><time>2026-04-06T15:34:17.212Z</time></trkpt><trkpt lat="44.458103" lon="8.0572893"><ele>590.3333333333333</ele><time>2026-04-06T15:34:18.212Z</time></trkpt><trkpt lat="44.4579471" lon="8.057343"><ele>590.6666666666666</ele><time>2026-04-06T15:34:19.212Z</time></trkpt><trkpt lat="44.4578012" lon="8.0574091"><ele>591.0</ele><time>2026-04-06T15:34:20.212Z</time></trkpt><trkpt lat="44.4576543" lon="8.0574917"><ele>590.3333333333334</ele><time>2026-04-06T15:34:21.212Z</time></trkpt><trkpt lat="44.457511" lon="8.0575839"><ele>589.6666666666667</ele><time>2026-04-06T15:34:22.212Z</time></trkpt><trkpt lat="44.4573704" lon="8.0576865"><ele>589.0</ele><time>2026-04-06T15:34:23.212Z</time></trkpt><trkpt lat="44.4572462" lon="8.0577846"><ele>589.0</ele><time>2026-04-06T15:34:24.212Z</time></trkpt><trkpt lat="44.4571448" lon="8.0578733"><ele>589.0</ele><time>2026-04-06T15:34:25.212Z</time></trkpt><trkpt lat="44.4570552" lon="8.0579756"><ele>589.0</ele><time>2026-04-06T15:34:26.212Z</time></trkpt><trkpt lat="44.4569745" lon="8.0581118"><ele>589.0</ele><time>2026-04-06T15:34:27.212Z</time></trkpt><trkpt lat="44.4569075" lon="8.0582802"><ele>589.3333333333334</ele><time>2026-04-06T15:34:28.212Z</time></trkpt><trkpt lat="44.4568433" lon="8.0584802"><ele>589.6666666666666</ele><time>2026-04-06T15:34:29.212Z</time></trkpt><trkpt lat="44.4567838" lon="8.0586805"><ele>590.0</ele><time>2026-04-06T15:34:30.212Z</time></trkpt><trkpt lat="44.4567133" lon="8.0588874"><ele>590.0</ele><time>2026-04-06T15:34:31.212Z</time></trkpt><trkpt lat="44.4566506" lon="8.0590975"><ele>590.0</ele><time>2026-04-06T15:34:32.212Z</time></trkpt><trkpt lat="44.4565851" lon="8.0593147"><ele>590.0</ele><time>2026-04-06T15:34:33.212Z</time></trkpt><trkpt lat="44.4565361" lon="8.0595263"><ele>591.75</ele><time>2026-04-06T15:34:34.212Z</time></trkpt><trkpt lat="44.4565019" lon="8.0597243"><ele>593.5</ele><time>2026-04-06T15:34:35.212Z</time></trkpt><trkpt lat="44.4564834" lon="8.0599084"><ele>595.25</ele><time>2026-04-06T15:34:36.212Z</time></trkpt><trkpt lat="44.4564785" lon="8.0600913"><ele>597.0</ele><time>2026-04-06T15:34:37.212Z</time></trkpt><trkpt lat="44.456483" lon="8.0603061"><ele>600.0</ele><time>2026-04-06T15:34:38.212Z</time></trkpt><trkpt lat="44.4564863" lon="8.0605276"><ele>603.0</ele><time>2026-04-06T15:34:39.212Z</time></trkpt><trkpt lat="44.4564956" lon="8.0607678"><ele>606.0</ele><time>2026-04-06T15:34:40.212Z</time></trkpt><trkpt lat="44.456494" lon="8.0610264"><ele>605.6666666666666</ele><time>2026-04-06T15:34:41.212Z</time></trkpt><trkpt lat="44.4564863" lon="8.061286"><ele>605.3333333333333</ele><time>2026-04-06T15:34:42.212Z</time></trkpt><trkpt lat="44.4564743" lon="8.0615615"><ele>605.0</ele><time>2026-04-06T15:34:43.212Z</time></trkpt><trkpt lat="44.4564493" lon="8.0618425"><ele>605.0</ele><time>2026-04-06T15:34:44.212Z</time></trkpt><trkpt lat="44.4564236" lon="8.0621268"><ele>605.0</ele><time>2026-04-06T15:34:45.212Z</time></trkpt><trkpt lat="44.4563924" lon="8.0624191"><ele>605.0</ele><time>2026-04-06T15:34:46.212Z</time></trkpt><trkpt lat="44.4563483" lon="8.0627077"><ele>605.3333333333333</ele><time>2026-04-06T15:34:47.212Z</time></trkpt><trkpt lat="44.4562919" lon="8.0629946"><ele>605.6666666666666</ele><time>2026-04-06T15:34:48.212Z</time></trkpt><trkpt lat="44.4562154" lon="8.0632766"><ele>606.0</ele><time>2026-04-06T15:34:49.212Z</time></trkpt><trkpt lat="44.4561355" lon="8.0635577"><ele>599.5</ele><time>2026-04-06T15:34:50.212Z</time></trkpt><trkpt lat="44.4560518" lon="8.0638501"><ele>593.0</ele><time>2026-04-06T15:34:51.212Z</time></trkpt><trkpt lat="44.4559756" lon="8.0641544"><ele>593.0</ele><time>2026-04-06T15:34:52.212Z</time></trkpt><trkpt lat="44.4559039" lon="8.0644565"><ele>593.0</ele><time>2026-04-06T15:34:53.212Z</time></trkpt><trkpt lat="44.4558424" lon="8.06473"><ele>593.0</ele><time>2026-04-06T15:34:54.212Z</time></trkpt><trkpt lat="44.4557909" lon="8.0649745"><ele>594.3333333333333</ele><time>2026-04-06T15:34:55.212Z</time></trkpt><trkpt lat="44.4557443" lon="8.0652127"><ele>595.6666666666666</ele><time>2026-04-06T15:34:56.212Z</time></trkpt><trkpt lat="44.4557101" lon="8.0654512"><ele>597.0</ele><time>2026-04-06T15:34:57.212Z</time></trkpt><trkpt lat="44.4556808" lon="8.0657113"><ele>598.0</ele><time>2026-04-06T15:34:58.212Z</time></trkpt><trkpt lat="44.4556553" lon="8.0659722"><ele>599.0</ele><time>2026-04-06T15:34:59.212Z</time></trkpt><trkpt lat="44.4556337" lon="8.0662471"><ele>600.0</ele><time>2026-04-06T15:35:00.212Z</time></trkpt><trkpt lat="44.4556158" lon="8.0665298"><ele>601.3333333333334</ele><time>2026-04-06T15:35:01.212Z</time></trkpt><trkpt lat="44.4555992" lon="8.066819"><ele>602.6666666666667</ele><time>2026-04-06T15:35:02.212Z</time></trkpt><trkpt lat="44.4555821" lon="8.0670855"><ele>604.0</ele><time>2026-04-06T15:35:03.212Z</time></trkpt><trkpt lat="44.4555645" lon="8.0673259"><ele>605.3333333333334</ele><time>2026-04-06T15:35:04.212Z</time></trkpt><trkpt lat="44.4555448" lon="8.06755"><ele>606.6666666666666</ele><time>2026-04-06T15:35:05.212Z</time></trkpt><trkpt lat="44.4555332" lon="8.06776"><ele>608.0</ele><time>2026-04-06T15:35:06.212Z</time></trkpt><trkpt lat="44.4555291" lon="8.0679644"><ele>608.0</ele><time>2026-04-06T15:35:07.212Z</time></trkpt><trkpt lat="44.4555459" lon="8.0681689"><ele>608.0</ele><time>2026-04-06T15:35:08.212Z</time></trkpt><trkpt lat="44.4555782" lon="8.0683687"><ele>608.0</ele><time>2026-04-06T15:35:09.212Z</time></trkpt><trkpt lat="44.4556396" lon="8.0685729"><ele>608.0</ele><time>2026-04-06T15:35:10.212Z</time></trkpt><trkpt lat="44.4557084" lon="8.06878"><ele>608.0</ele><time>2026-04-06T15:35:11.213Z</time></trkpt><trkpt lat="44.4557865" lon="8.0689882"><ele>608.0</ele><time>2026-04-06T15:35:12.212Z</time></trkpt><trkpt lat="44.4558575" lon="8.0691977"><ele>607.0</ele><time>2026-04-06T15:35:13.212Z</time></trkpt><trkpt lat="44.4559235" lon="8.069422"><ele>606.0</ele><time>2026-04-06T15:35:14.212Z</time></trkpt><trkpt lat="44.4559767" lon="8.069669"><ele>605.0</ele><time>2026-04-06T15:35:15.212Z</time></trkpt><trkpt lat="44.4560251" lon="8.0699216"><ele>603.6666666666666</ele><time>2026-04-06T15:35:16.212Z</time></trkpt><trkpt lat="44.4560767" lon="8.0701958"><ele>602.3333333333334</ele><time>2026-04-06T15:35:17.212Z</time></trkpt><trkpt lat="44.456133" lon="8.0704709"><ele>601.0</ele><time>2026-04-06T15:35:18.212Z</time></trkpt><trkpt lat="44.4561896" lon="8.0707407"><ele>599.6666666666667</ele><time>2026-04-06T15:35:19.212Z</time></trkpt><trkpt lat="44.4562467" lon="8.0710046"><ele>598.3333333333334</ele><time>2026-04-06T15:35:20.212Z</time></trkpt><trkpt lat="44.4562939" lon="8.0712511"><ele>597.0</ele><time>2026-04-06T15:35:21.212Z</time></trkpt><trkpt lat="44.4563247" lon="8.0714775"><ele>601.75</ele><time>2026-04-06T15:35:22.212Z</time></trkpt><trkpt lat="44.4563341" lon="8.0716799"><ele>606.5</ele><time>2026-04-06T15:35:23.212Z</time></trkpt><trkpt lat="44.4563251" lon="8.0718815"><ele>611.25</ele><time>2026-04-06T15:35:24.212Z</time></trkpt><trkpt lat="44.4563159" lon="8.0720684"><ele>616.0</ele><time>2026-04-06T15:35:25.212Z</time></trkpt><trkpt lat="44.4563007" lon="8.0722537"><ele>614.0</ele><time>2026-04-06T15:35:26.212Z</time></trkpt><trkpt lat="44.4563011" lon="8.072442"><ele>612.0</ele><time>2026-04-06T15:35:27.212Z</time></trkpt><trkpt lat="44.4563284" lon="8.0726553"><ele>610.0</ele><time>2026-04-06T15:35:28.212Z</time></trkpt><trkpt lat="44.4563814" lon="8.0728723"><ele>610.0</ele><time>2026-04-06T15:35:29.212Z</time></trkpt><trkpt lat="44.4564539" lon="8.0730865"><ele>610.0</ele><time>2026-04-06T15:35:30.212Z</time></trkpt><trkpt lat="44.4565086" lon="8.0733115"><ele>610.0</ele><time>2026-04-06T15:35:31.212Z</time></trkpt><trkpt lat="44.4565516" lon="8.073563"><ele>608.3333333333334</ele><time>2026-04-06T15:35:32.212Z</time></trkpt><trkpt lat="44.4565705" lon="8.0738236"><ele>606.6666666666666</ele><time>2026-04-06T15:35:33.212Z</time></trkpt><trkpt lat="44.4565855" lon="8.0740986"><ele>605.0</ele><time>2026-04-06T15:35:34.212Z</time></trkpt><trkpt lat="44.4565927" lon="8.0743752"><ele>605.0</ele><time>2026-04-06T15:35:35.212Z</time></trkpt><trkpt lat="44.4565973" lon="8.0746601"><ele>605.0</ele><time>2026-04-06T15:35:36.212Z</time></trkpt><trkpt lat="44.4565939" lon="8.0749384"><ele>605.0</ele><time>2026-04-06T15:35:37.212Z</time></trkpt><trkpt lat="44.4565923" lon="8.0752012"><ele>605.0</ele><time>2026-04-06T15:35:38.212Z</time></trkpt><trkpt lat="44.456606" lon="8.0754473"><ele>605.0</ele><time>2026-04-06T15:35:39.212Z</time></trkpt><trkpt lat="44.4566221" lon="8.0756952"><ele>605.0</ele><time>2026-04-06T15:35:40.212Z</time></trkpt><trkpt lat="44.4566299" lon="8.0759428"><ele>605.3333333333333</ele><time>2026-04-06T15:35:41.212Z</time></trkpt><trkpt lat="44.4566205" lon="8.0762141"><ele>605.6666666666666</ele><time>2026-04-06T15:35:42.213Z</time></trkpt><trkpt lat="44.4566088" lon="8.0764905"><ele>606.0</ele><time>2026-04-06T15:35:43.212Z</time></trkpt><trkpt lat="44.4565996" lon="8.0767764"><ele>606.0</ele><time>2026-04-06T15:35:44.212Z</time></trkpt><trkpt lat="44.4565961" lon="8.0770796"><ele>606.0</ele><time>2026-04-06T15:35:45.212Z</time></trkpt><trkpt lat="44.4565922" lon="8.0773875"><ele>606.0</ele><time>2026-04-06T15:35:46.212Z</time></trkpt><trkpt lat="44.4565878" lon="8.0777047"><ele>606.6666666666666</ele><time>2026-04-06T15:35:47.212Z</time></trkpt><trkpt lat="44.4565796" lon="8.0779941"><ele>607.3333333333333</ele><time>2026-04-06T15:35:48.212Z</time></trkpt><trkpt lat="44.4565627" lon="8.0782374"><ele>608.0</ele><time>2026-04-06T15:35:49.212Z</time></trkpt><trkpt lat="44.4565494" lon="8.0784805"><ele>608.3333333333333</ele><time>2026-04-06T15:35:50.212Z</time></trkpt><trkpt lat="44.4565376" lon="8.0787224"><ele>608.6666666666666</ele><time>2026-04-06T15:35:51.212Z</time></trkpt><trkpt lat="44.4565277" lon="8.0789601"><ele>609.0</ele><time>2026-04-06T15:35:52.212Z</time></trkpt><trkpt lat="44.4565244" lon="8.0791913"><ele>609.25</ele><time>2026-04-06T15:35:53.212Z</time></trkpt><trkpt lat="44.456524" lon="8.0793928"><ele>609.5</ele><time>2026-04-06T15:35:54.212Z</time></trkpt><trkpt lat="44.4565249" lon="8.0795911"><ele>609.75</ele><time>2026-04-06T15:35:55.212Z</time></trkpt><trkpt lat="44.4565442" lon="8.0797904"><ele>610.0</ele><time>2026-04-06T15:35:56.212Z</time></trkpt><trkpt lat="44.4565878" lon="8.0799921"><ele>610.0</ele><time>2026-04-06T15:35:57.213Z</time></trkpt><trkpt lat="44.4566498" lon="8.0801904"><ele>610.0</ele><time>2026-04-06T15:35:58.212Z</time></trkpt><trkpt lat="44.4567168" lon="8.0804025"><ele>610.0</ele><time>2026-04-06T15:35:59.212Z</time></trkpt><trkpt lat="44.4567925" lon="8.0806149"><ele>608.3333333333334</ele><time>2026-04-06T15:36:00.212Z</time></trkpt><trkpt lat="44.4568683" lon="8.0808288"><ele>606.6666666666666</ele><time>2026-04-06T15:36:01.213Z</time></trkpt><trkpt lat="44.4569371" lon="8.0810253"><ele>605.0</ele><time>2026-04-06T15:36:02.212Z</time></trkpt><trkpt lat="44.4569994" lon="8.0812024"><ele>605.0</ele><time>2026-04-06T15:36:03.212Z</time></trkpt><trkpt lat="44.4570487" lon="8.0813818"><ele>605.0</ele><time>2026-04-06T15:36:04.212Z</time></trkpt><trkpt lat="44.4571167" lon="8.0815494"><ele>605.0</ele><time>2026-04-06T15:36:05.212Z</time></trkpt><trkpt lat="44.4571965" lon="8.0816989"><ele>605.0</ele><time>2026-04-06T15:36:06.212Z</time></trkpt><trkpt lat="44.4572719" lon="8.0818377"><ele>606.4</ele><time>2026-04-06T15:36:07.212Z</time></trkpt><trkpt lat="44.4573468" lon="8.0819756"><ele>607.8</ele><time>2026-04-06T15:36:08.212Z</time></trkpt><trkpt lat="44.457404" lon="8.0821047"><ele>609.2</ele><time>2026-04-06T15:36:09.212Z</time></trkpt><trkpt lat="44.4574423" lon="8.082238"><ele>610.6</ele><time>2026-04-06T15:36:10.212Z</time></trkpt><trkpt lat="44.457441" lon="8.0823689"><ele>612.0</ele><time>2026-04-06T15:36:11.212Z</time></trkpt><trkpt lat="44.4574027" lon="8.0824731"><ele>612.0</ele><time>2026-04-06T15:36:12.212Z</time></trkpt><trkpt lat="44.4573311" lon="8.082589"><ele>612.0</ele><time>2026-04-06T15:36:13.212Z</time></trkpt><trkpt lat="44.4572343" lon="8.0827041"><ele>612.0</ele><time>2026-04-06T15:36:14.212Z</time></trkpt><trkpt lat="44.4571297" lon="8.0828392"><ele>612.0</ele><time>2026-04-06T15:36:15.212Z</time></trkpt><trkpt lat="44.4570382" lon="8.082967"><ele>610.0</ele><time>2026-04-06T15:36:16.212Z</time></trkpt><trkpt lat="44.4569463" lon="8.08309"><ele>608.0</ele><time>2026-04-06T15:36:17.212Z</time></trkpt><trkpt lat="44.4568715" lon="8.0832241"><ele>606.0</ele><time>2026-04-06T15:36:18.212Z</time></trkpt><trkpt lat="44.4568371" lon="8.0833949"><ele>604.0</ele><time>2026-04-06T15:36:19.212Z</time></trkpt><trkpt lat="44.4568085" lon="8.0836068"><ele>604.0</ele><time>2026-04-06T15:36:20.212Z</time></trkpt><trkpt lat="44.4567793" lon="8.0838351"><ele>604.0</ele><time>2026-04-06T15:36:21.212Z</time></trkpt><trkpt lat="44.4567605" lon="8.0840749"><ele>604.0</ele><time>2026-04-06T15:36:22.212Z</time></trkpt><trkpt lat="44.4567492" lon="8.0843163"><ele>605.0</ele><time>2026-04-06T15:36:23.212Z</time></trkpt><trkpt lat="44.4567465" lon="8.0845661"><ele>606.0</ele><time>2026-04-06T15:36:24.212Z</time></trkpt><trkpt lat="44.4567469" lon="8.0848324"><ele>607.0</ele><time>2026-04-06T15:36:25.212Z</time></trkpt><trkpt lat="44.456744" lon="8.0850841"><ele>607.0</ele><time>2026-04-06T15:36:26.212Z</time></trkpt><trkpt lat="44.4567382" lon="8.0853146"><ele>607.0</ele><time>2026-04-06T15:36:27.212Z</time></trkpt><trkpt lat="44.4567356" lon="8.0855345"><ele>607.0</ele><time>2026-04-06T15:36:28.212Z</time></trkpt><trkpt lat="44.4567475" lon="8.0857519"><ele>607.5</ele><time>2026-04-06T15:36:29.212Z</time></trkpt><trkpt lat="44.456793" lon="8.0859317"><ele>608.0</ele><time>2026-04-06T15:36:30.212Z</time></trkpt><trkpt lat="44.456824" lon="8.0860816"><ele>608.5</ele><time>2026-04-06T15:36:31.212Z</time></trkpt><trkpt lat="44.4568199" lon="8.0862242"><ele>609.0</ele><time>2026-04-06T15:36:32.212Z</time></trkpt><trkpt lat="44.4567952" lon="8.0863847"><ele>609.0</ele><time>2026-04-06T15:36:33.212Z</time></trkpt><trkpt lat="44.4567671" lon="8.0865594"><ele>609.0</ele><time>2026-04-06T15:36:34.212Z</time></trkpt><trkpt lat="44.4567497" lon="8.08675"><ele>609.0</ele><time>2026-04-06T15:36:35.212Z</time></trkpt><trkpt lat="44.4567465" lon="8.0869543"><ele>609.0</ele><time>2026-04-06T15:36:36.212Z</time></trkpt><trkpt lat="44.4567423" lon="8.0871553"><ele>608.6666666666666</ele><time>2026-04-06T15:36:37.212Z</time></trkpt><trkpt lat="44.4567508" lon="8.0873593"><ele>608.3333333333333</ele><time>2026-04-06T15:36:38.212Z</time></trkpt><trkpt lat="44.4567795" lon="8.0875775"><ele>608.0</ele><time>2026-04-06T15:36:39.212Z</time></trkpt><trkpt lat="44.4568203" lon="8.0877993"><ele>607.6666666666666</ele><time>2026-04-06T15:36:40.212Z</time></trkpt><trkpt lat="44.4568737" lon="8.0880341"><ele>607.3333333333334</ele><time>2026-04-06T15:36:41.212Z</time></trkpt><trkpt lat="44.4569341" lon="8.0882641"><ele>607.0</ele><time>2026-04-06T15:36:42.212Z</time></trkpt><trkpt lat="44.4569911" lon="8.0884804"><ele>607.5</ele><time>2026-04-06T15:36:43.212Z</time></trkpt><trkpt lat="44.4570392" lon="8.0886743"><ele>608.0</ele><time>2026-04-06T15:36:44.212Z</time></trkpt><trkpt lat="44.4570763" lon="8.0888585"><ele>608.5</ele><time>2026-04-06T15:36:45.212Z</time></trkpt><trkpt lat="44.4571067" lon="8.0890223"><ele>609.0</ele><time>2026-04-06T15:36:46.212Z</time></trkpt><trkpt lat="44.4571378" lon="8.0891742"><ele>611.8</ele><time>2026-04-06T15:36:47.212Z</time></trkpt><trkpt lat="44.457173" lon="8.08931"><ele>614.5999999999999</ele><time>2026-04-06T15:36:48.212Z</time></trkpt><trkpt lat="44.4572049" lon="8.0894518"><ele>617.4</ele><time>2026-04-06T15:36:49.213Z</time></trkpt><trkpt lat="44.4572169" lon="8.089591"><ele>620.1999999999999</ele><time>2026-04-06T15:36:50.212Z</time></trkpt><trkpt lat="44.4572083" lon="8.0897425"><ele>623.0</ele><time>2026-04-06T15:36:51.212Z</time></trkpt><trkpt lat="44.4571615" lon="8.0898858"><ele>620.1999999999999</ele><time>2026-04-06T15:36:52.212Z</time></trkpt><trkpt lat="44.4570972" lon="8.0900001"><ele>617.4</ele><time>2026-04-06T15:36:53.212Z</time></trkpt><trkpt lat="44.4570131" lon="8.0901037"><ele>614.5999999999999</ele><time>2026-04-06T15:36:54.212Z</time></trkpt><trkpt lat="44.4569221" lon="8.090194"><ele>611.8</ele><time>2026-04-06T15:36:55.212Z</time></trkpt><trkpt lat="44.456846" lon="8.0902911"><ele>609.0</ele><time>2026-04-06T15:36:56.212Z</time></trkpt><trkpt lat="44.4567746" lon="8.0903989"><ele>609.0</ele><time>2026-04-06T15:36:57.213Z</time></trkpt><trkpt lat="44.4567204" lon="8.0905334"><ele>609.0</ele><time>2026-04-06T15:36:58.212Z</time></trkpt><trkpt lat="44.4566821" lon="8.0907085"><ele>609.0</ele><time>2026-04-06T15:36:59.212Z</time></trkpt><trkpt lat="44.4566527" lon="8.0908802"><ele>609.0</ele><time>2026-04-06T15:37:00.212Z</time></trkpt><trkpt lat="44.4566165" lon="8.0910491"><ele>609.75</ele><time>2026-04-06T15:37:01.212Z</time></trkpt><trkpt lat="44.4565736" lon="8.0912143"><ele>610.5</ele><time>2026-04-06T15:37:02.213Z</time></trkpt><trkpt lat="44.4565177" lon="8.0913674"><ele>611.25</ele><time>2026-04-06T15:37:03.212Z</time></trkpt><trkpt lat="44.456449" lon="8.0915218"><ele>612.0</ele><time>2026-04-06T15:37:04.212Z</time></trkpt><trkpt lat="44.4563735" lon="8.0916858"><ele>612.75</ele><time>2026-04-06T15:37:05.212Z</time></trkpt><trkpt lat="44.4562941" lon="8.0918462"><ele>613.5</ele><time>2026-04-06T15:37:06.212Z</time></trkpt><trkpt lat="44.4562145" lon="8.0920057"><ele>614.25</ele><time>2026-04-06T15:37:07.212Z</time></trkpt><trkpt lat="44.456131" lon="8.0921673"><ele>615.0</ele><time>2026-04-06T15:37:08.212Z</time></trkpt><trkpt lat="44.4560558" lon="8.0923284"><ele>613.4</ele><time>2026-04-06T15:37:09.212Z</time></trkpt><trkpt lat="44.4559848" lon="8.0924771"><ele>611.8</ele><time>2026-04-06T15:37:10.212Z</time></trkpt><trkpt lat="44.4559236" lon="8.0925995"><ele>610.2</ele><time>2026-04-06T15:37:11.212Z</time></trkpt><trkpt lat="44.4558705" lon="8.0927005"><ele>608.6</ele><time>2026-04-06T15:37:12.212Z</time></trkpt><trkpt lat="44.4558176" lon="8.0927809"><ele>607.0</ele><time>2026-04-06T15:37:13.212Z</time></trkpt><trkpt lat="44.4557703" lon="8.0928446"><ele>607.0</ele><time>2026-04-06T15:37:14.212Z</time></trkpt><trkpt lat="44.4557094" lon="8.0928984"><ele>607.0</ele><time>2026-04-06T15:37:16.212Z</time></trkpt><trkpt lat="44.4556261" lon="8.0930138"><ele>607.0</ele><time>2026-04-06T15:44:27.212Z</time></trkpt><trkpt lat="44.4555619" lon="8.0931264"><ele>607.0</ele><time>2026-04-06T15:44:29.212Z</time></trkpt><trkpt lat="44.4555137" lon="8.0932861"><ele>607.0</ele><time>2026-04-06T15:44:31.212Z</time></trkpt><trkpt lat="44.455493" lon="8.0933841"><ele>607.4</ele><time>2026-04-06T15:44:32.212Z</time></trkpt><trkpt lat="44.45547" lon="8.0934821"><ele>607.8000000000001</ele><time>2026-04-06T15:44:33.213Z</time></trkpt><trkpt lat="44.45545" lon="8.0935939"><ele>608.2</ele><time>2026-04-06T15:44:34.212Z</time></trkpt><trkpt lat="44.4554248" lon="8.093706"><ele>608.6</ele><time>2026-04-06T15:44:35.212Z</time></trkpt><trkpt lat="44.455395" lon="8.0938384"><ele>609.0</ele><time>2026-04-06T15:44:36.212Z</time></trkpt><trkpt lat="44.4553606" lon="8.0940092"><ele>607.5</ele><time>2026-04-06T15:44:37.212Z</time></trkpt><trkpt lat="44.4553261" lon="8.0941883"><ele>606.0</ele><time>2026-04-06T15:44:38.212Z</time></trkpt><trkpt lat="44.4552892" lon="8.0943792"><ele>604.5</ele><time>2026-04-06T15:44:39.212Z</time></trkpt><trkpt lat="44.4552532" lon="8.0945795"><ele>603.0</ele><time>2026-04-06T15:44:40.212Z</time></trkpt><trkpt lat="44.4552193" lon="8.0947973"><ele>603.75</ele><time>2026-04-06T15:44:41.212Z</time></trkpt><trkpt lat="44.4551865" lon="8.0950045"><ele>604.5</ele><time>2026-04-06T15:44:42.212Z</time></trkpt><trkpt lat="44.455152" lon="8.0952096"><ele>605.25</ele><time>2026-04-06T15:44:43.212Z</time></trkpt><trkpt lat="44.4551102" lon="8.0954079"><ele>606.0</ele><time>2026-04-06T15:44:44.212Z</time></trkpt><trkpt lat="44.4550629" lon="8.0956042"><ele>607.6666666666666</ele><time>2026-04-06T15:44:45.212Z</time></trkpt><trkpt lat="44.4550102" lon="8.0958071"><ele>609.3333333333333</ele><time>2026-04-06T15:44:46.212Z</time></trkpt><trkpt lat="44.4549535" lon="8.0960099"><ele>611.0</ele><time>2026-04-06T15:44:47.212Z</time></trkpt><trkpt lat="44.4548939" lon="8.0962068"><ele>611.0</ele><time>2026-04-06T15:44:48.212Z</time></trkpt><trkpt lat="44.4548237" lon="8.0964024"><ele>611.0</ele><time>2026-04-06T15:44:49.212Z</time></trkpt><trkpt lat="44.4547515" lon="8.0965926"><ele>611.0</ele><time>2026-04-06T15:44:50.212Z</time></trkpt><trkpt lat="44.4546748" lon="8.0967834"><ele>609.0</ele><time>2026-04-06T15:44:51.212Z</time></trkpt><trkpt lat="44.4545961" lon="8.0969712"><ele>607.0</ele><time>2026-04-06T15:44:52.212Z</time></trkpt><trkpt lat="44.4545129" lon="8.0971466"><ele>605.0</ele><time>2026-04-06T15:44:53.212Z</time></trkpt><trkpt lat="44.454414" lon="8.0973075"><ele>608.0</ele><time>2026-04-06T15:44:54.212Z</time></trkpt><trkpt lat="44.4543093" lon="8.0974597"><ele>611.0</ele><time>2026-04-06T15:44:55.212Z</time></trkpt><trkpt lat="44.454196" lon="8.0976018"><ele>614.0</ele><time>2026-04-06T15:44:56.212Z</time></trkpt><trkpt lat="44.4540805" lon="8.0977336"><ele>614.0</ele><time>2026-04-06T15:44:57.212Z</time></trkpt><trkpt lat="44.4539536" lon="8.0978543"><ele>614.0</ele><time>2026-04-06T15:44:58.212Z</time></trkpt><trkpt lat="44.4538155" lon="8.0979509"><ele>614.0</ele><time>2026-04-06T15:44:59.212Z</time></trkpt><trkpt lat="44.4536683" lon="8.098024"><ele>611.6666666666666</ele><time>2026-04-06T15:45:00.212Z</time></trkpt><trkpt lat="44.4535102" lon="8.0980815"><ele>609.3333333333334</ele><time>2026-04-06T15:45:01.212Z</time></trkpt><trkpt lat="44.4533542" lon="8.0981387"><ele>607.0</ele><time>2026-04-06T15:45:02.212Z</time></trkpt><trkpt lat="44.4532108" lon="8.0981949"><ele>607.0</ele><time>2026-04-06T15:45:03.212Z</time></trkpt><trkpt lat="44.4530816" lon="8.0982494"><ele>607.0</ele><time>2026-04-06T15:45:04.212Z</time></trkpt><trkpt lat="44.4529719" lon="8.0983054"><ele>607.0</ele><time>2026-04-06T15:45:05.212Z</time></trkpt><trkpt lat="44.4528798" lon="8.0983767"><ele>607.0</ele><time>2026-04-06T15:45:06.212Z</time></trkpt><trkpt lat="44.4527951" lon="8.0984699"><ele>608.0</ele><time>2026-04-06T15:45:07.212Z</time></trkpt><trkpt lat="44.4527122" lon="8.0985778"><ele>609.0</ele><time>2026-04-06T15:45:08.212Z</time></trkpt><trkpt lat="44.4526252" lon="8.0986774"><ele>610.0</ele><time>2026-04-06T15:45:09.212Z</time></trkpt><trkpt lat="44.4525348" lon="8.0987442"><ele>611.0</ele><time>2026-04-06T15:45:10.212Z</time></trkpt><trkpt lat="44.45245" lon="8.098765"><ele>612.0</ele><time>2026-04-06T15:45:11.212Z</time></trkpt><trkpt lat="44.4523657" lon="8.0987228"><ele>612.0</ele><time>2026-04-06T15:45:12.212Z</time></trkpt><trkpt lat="44.4522897" lon="8.0986317"><ele>612.0</ele><time>2026-04-06T15:45:13.212Z</time></trkpt><trkpt lat="44.4522181" lon="8.0985138"><ele>612.0</ele><time>2026-04-06T15:45:14.212Z</time></trkpt><trkpt lat="44.4521437" lon="8.0984188"><ele>612.0</ele><time>2026-04-06T15:45:15.212Z</time></trkpt><trkpt lat="44.4520615" lon="8.0983463"><ele>612.0</ele><time>2026-04-06T15:45:16.212Z</time></trkpt><trkpt lat="44.4519696" lon="8.0982895"><ele>611.6</ele><time>2026-04-06T15:45:17.212Z</time></trkpt><trkpt lat="44.4518569" lon="8.0982526"><ele>611.2</ele><time>2026-04-06T15:45:18.212Z</time></trkpt><trkpt lat="44.4517391" lon="8.0982238"><ele>610.8</ele><time>2026-04-06T15:45:19.212Z</time></trkpt><trkpt lat="44.4516269" lon="8.0982267"><ele>610.4</ele><time>2026-04-06T15:45:20.212Z</time></trkpt><trkpt lat="44.4515306" lon="8.0982492"><ele>610.0</ele><time>2026-04-06T15:45:21.212Z</time></trkpt><trkpt lat="44.4514537" lon="8.0983116"><ele>610.0</ele><time>2026-04-06T15:45:22.212Z</time></trkpt><trkpt lat="44.4513869" lon="8.0984069"><ele>610.0</ele><time>2026-04-06T15:45:23.212Z</time></trkpt><trkpt lat="44.4513455" lon="8.0985208"><ele>610.0</ele><time>2026-04-06T15:45:24.212Z</time></trkpt><trkpt lat="44.4513258" lon="8.0986516"><ele>610.0</ele><time>2026-04-06T15:45:25.212Z</time></trkpt><trkpt lat="44.4513043" lon="8.098788"><ele>610.0</ele><time>2026-04-06T15:45:26.212Z</time></trkpt><trkpt lat="44.4512883" lon="8.098934"><ele>609.0</ele><time>2026-04-06T15:45:27.212Z</time></trkpt><trkpt lat="44.4512863" lon="8.0990801"><ele>608.0</ele><time>2026-04-06T15:45:28.212Z</time></trkpt><trkpt lat="44.4512933" lon="8.09922"><ele>607.0</ele><time>2026-04-06T15:45:29.212Z</time></trkpt><trkpt lat="44.4513151" lon="8.0993555"><ele>606.0</ele><time>2026-04-06T15:45:30.212Z</time></trkpt><trkpt lat="44.4513399" lon="8.0994992"><ele>605.0</ele><time>2026-04-06T15:45:31.212Z</time></trkpt><trkpt lat="44.4513636" lon="8.0996431"><ele>608.5</ele><time>2026-04-06T15:45:32.212Z</time></trkpt><trkpt lat="44.4513845" lon="8.0997946"><ele>612.0</ele><time>2026-04-06T15:45:33.212Z</time></trkpt><trkpt lat="44.4514018" lon="8.0999594"><ele>615.5</ele><time>2026-04-06T15:45:34.212Z</time></trkpt><trkpt lat="44.4514135" lon="8.1001317"><ele>619.0</ele><time>2026-04-06T15:45:35.212Z</time></trkpt><trkpt lat="44.4514177" lon="8.1003133"><ele>622.0</ele><time>2026-04-06T15:45:36.212Z</time></trkpt><trkpt lat="44.4514162" lon="8.1005079"><ele>625.0</ele><time>2026-04-06T15:45:37.212Z</time></trkpt><trkpt lat="44.4514063" lon="8.1006971"><ele>628.0</ele><time>2026-04-06T15:45:38.212Z</time></trkpt><trkpt lat="44.4513845" lon="8.100875"><ele>631.0</ele><time>2026-04-06T15:45:39.212Z</time></trkpt><trkpt lat="44.4513521" lon="8.1010463"><ele>629.75</ele><time>2026-04-06T15:45:40.212Z</time></trkpt><trkpt lat="44.4513232" lon="8.1012008"><ele>628.5</ele><time>2026-04-06T15:45:41.212Z</time></trkpt><trkpt lat="44.4512975" lon="8.1013626"><ele>627.25</ele><time>2026-04-06T15:45:42.212Z</time></trkpt><trkpt lat="44.4512826" lon="8.1015312"><ele>626.0</ele><time>2026-04-06T15:45:43.212Z</time></trkpt><trkpt lat="44.4512665" lon="8.1016973"><ele>629.2</ele><time>2026-04-06T15:45:44.212Z</time></trkpt><trkpt lat="44.4512539" lon="8.1018427"><ele>632.4000000000001</ele><time>2026-04-06T15:45:45.212Z</time></trkpt><trkpt lat="44.4512368" lon="8.10198"><ele>635.6</ele><time>2026-04-06T15:45:46.212Z</time></trkpt><trkpt lat="44.4512043" lon="8.1021149"><ele>638.8000000000001</ele><time>2026-04-06T15:45:47.212Z</time></trkpt><trkpt lat="44.4511733" lon="8.1022541"><ele>642.0</ele><time>2026-04-06T15:45:48.212Z</time></trkpt><trkpt lat="44.451148" lon="8.1023924"><ele>644.6666666666666</ele><time>2026-04-06T15:45:49.212Z</time></trkpt><trkpt lat="44.4511216" lon="8.1025293"><ele>647.3333333333334</ele><time>2026-04-06T15:45:50.212Z</time></trkpt><trkpt lat="44.4510938" lon="8.1026566"><ele>650.0</ele><time>2026-04-06T15:45:51.212Z</time></trkpt><trkpt lat="44.4510708" lon="8.1027668"><ele>652.6666666666667</ele><time>2026-04-06T15:45:52.212Z</time></trkpt><trkpt lat="44.4510507" lon="8.1028603"><ele>655.3333333333334</ele><time>2026-04-06T15:45:53.212Z</time></trkpt><trkpt lat="44.4510281" lon="8.1029549"><ele>658.0</ele><time>2026-04-06T15:45:55.212Z</time></trkpt><trkpt lat="44.4510576" lon="8.1028609"><ele>658.0</ele><time>2026-04-06T15:46:11.212Z</time></trkpt><trkpt lat="44.4510798" lon="8.1027534"><ele>658.0</ele><time>2026-04-06T15:46:13.212Z</time></trkpt><trkpt lat="44.4511109" lon="8.102617"><ele>658.0</ele><time>2026-04-06T15:46:15.212Z</time></trkpt><trkpt lat="44.4511248" lon="8.1025307"><ele>658.0</ele><time>2026-04-06T15:46:16.212Z</time></trkpt><trkpt lat="44.4511377" lon="8.1024419"><ele>658.0</ele><time>2026-04-06T15:46:17.212Z</time></trkpt><trkpt lat="44.4511628" lon="8.1022691"><ele>658.0</ele><time>2026-04-06T15:46:19.212Z</time></trkpt><trkpt lat="44.4511774" lon="8.1021795"><ele>655.3333333333334</ele><time>2026-04-06T15:46:20.212Z</time></trkpt><trkpt lat="44.4511967" lon="8.1020943"><ele>652.6666666666667</ele><time>2026-04-06T15:46:21.212Z</time></trkpt><trkpt lat="44.4512153" lon="8.1019972"><ele>650.0</ele><time>2026-04-06T15:46:22.212Z</time></trkpt><trkpt lat="44.4512326" lon="8.101893"><ele>647.3333333333334</ele><time>2026-04-06T15:46:23.212Z</time></trkpt><trkpt lat="44.451247" lon="8.1017807"><ele>644.6666666666666</ele><time>2026-04-06T15:46:24.212Z</time></trkpt><trkpt lat="44.4512638" lon="8.1016651"><ele>642.0</ele><time>2026-04-06T15:46:25.212Z</time></trkpt><trkpt lat="44.451283" lon="8.1015372"><ele>641.6</ele><time>2026-04-06T15:46:26.212Z</time></trkpt><trkpt lat="44.4513008" lon="8.1014028"><ele>641.2</ele><time>2026-04-06T15:46:27.212Z</time></trkpt><trkpt lat="44.4513185" lon="8.1012731"><ele>640.8</ele><time>2026-04-06T15:46:28.212Z</time></trkpt><trkpt lat="44.4513359" lon="8.1011421"><ele>640.4</ele><time>2026-04-06T15:46:29.213Z</time></trkpt><trkpt lat="44.4513642" lon="8.1010135"><ele>640.0</ele><time>2026-04-06T15:46:30.212Z</time></trkpt><trkpt lat="44.4513886" lon="8.100884"><ele>640.0</ele><time>2026-04-06T15:46:31.212Z</time></trkpt><trkpt lat="44.4514057" lon="8.1007511"><ele>640.0</ele><time>2026-04-06T15:46:32.212Z</time></trkpt><trkpt lat="44.4514165" lon="8.1006218"><ele>640.0</ele><time>2026-04-06T15:46:33.212Z</time></trkpt><trkpt lat="44.4514261" lon="8.1005005"><ele>640.0</ele><time>2026-04-06T15:46:34.212Z</time></trkpt><trkpt lat="44.4514318" lon="8.1003822"><ele>640.0</ele><time>2026-04-06T15:46:35.212Z</time></trkpt><trkpt lat="44.4514308" lon="8.1002563"><ele>638.2</ele><time>2026-04-06T15:46:36.212Z</time></trkpt><trkpt lat="44.4514312" lon="8.1001336"><ele>636.4</ele><time>2026-04-06T15:46:37.212Z</time></trkpt><trkpt lat="44.4514254" lon="8.1000138"><ele>634.6</ele><time>2026-04-06T15:46:38.212Z</time></trkpt><trkpt lat="44.4514151" lon="8.0998856"><ele>632.8</ele><time>2026-04-06T15:46:39.212Z</time></trkpt><trkpt lat="44.4513992" lon="8.099755"><ele>631.0</ele><time>2026-04-06T15:46:40.212Z</time></trkpt><trkpt lat="44.4513793" lon="8.0996264"><ele>629.0</ele><time>2026-04-06T15:46:41.213Z</time></trkpt><trkpt lat="44.4513602" lon="8.0995051"><ele>627.0</ele><time>2026-04-06T15:46:42.212Z</time></trkpt><trkpt lat="44.451336" lon="8.0993869"><ele>625.0</ele><time>2026-04-06T15:46:43.212Z</time></trkpt><trkpt lat="44.4513175" lon="8.0992713"><ele>623.0</ele><time>2026-04-06T15:46:44.212Z</time></trkpt><trkpt lat="44.451305" lon="8.0991558"><ele>621.0</ele><time>2026-04-06T15:46:45.212Z</time></trkpt><trkpt lat="44.4512976" lon="8.099032"><ele>619.0</ele><time>2026-04-06T15:46:46.212Z</time></trkpt><trkpt lat="44.4512969" lon="8.0989119"><ele>617.5</ele><time>2026-04-06T15:46:47.212Z</time></trkpt><trkpt lat="44.4513038" lon="8.0987942"><ele>616.0</ele><time>2026-04-06T15:46:48.212Z</time></trkpt><trkpt lat="44.4513192" lon="8.0987002"><ele>614.5</ele><time>2026-04-06T15:46:49.212Z</time></trkpt><trkpt lat="44.4513555" lon="8.098563"><ele>613.0</ele><time>2026-04-06T15:46:51.212Z</time></trkpt><trkpt lat="44.4512872" lon="8.0985856"><ele>611.5</ele><time>2026-04-06T15:47:29.213Z</time></trkpt><trkpt lat="44.4512535" lon="8.0986747"><ele>610.0</ele><time>2026-04-06T15:47:30.212Z</time></trkpt><trkpt lat="44.4512183" lon="8.0987791"><ele>609.75</ele><time>2026-04-06T15:47:31.212Z</time></trkpt><trkpt lat="44.451187" lon="8.0989017"><ele>609.5</ele><time>2026-04-06T15:47:32.212Z</time></trkpt><trkpt lat="44.4511643" lon="8.0990572"><ele>609.25</ele><time>2026-04-06T15:47:33.212Z</time></trkpt><trkpt lat="44.4511388" lon="8.0992355"><ele>609.0</ele><time>2026-04-06T15:47:34.212Z</time></trkpt><trkpt lat="44.451101" lon="8.0994306"><ele>609.0</ele><time>2026-04-06T15:47:35.212Z</time></trkpt><trkpt lat="44.4510524" lon="8.099639"><ele>609.0</ele><time>2026-04-06T15:47:36.212Z</time></trkpt><trkpt lat="44.4509783" lon="8.0998583"><ele>609.0</ele><time>2026-04-06T15:47:37.212Z</time></trkpt><trkpt lat="44.4508921" lon="8.10007"><ele>611.0</ele><time>2026-04-06T15:47:38.212Z</time></trkpt><trkpt lat="44.4507975" lon="8.1002825"><ele>613.0</ele><time>2026-04-06T15:47:39.212Z</time></trkpt><trkpt lat="44.4506947" lon="8.1004952"><ele>615.0</ele><time>2026-04-06T15:47:40.212Z</time></trkpt><trkpt lat="44.4506037" lon="8.1007029"><ele>612.6666666666666</ele><time>2026-04-06T15:47:41.212Z</time></trkpt><trkpt lat="44.4505107" lon="8.1009004"><ele>610.3333333333333</ele><time>2026-04-06T15:47:42.212Z</time></trkpt><trkpt lat="44.4504156" lon="8.101071"><ele>608.0</ele><time>2026-04-06T15:47:43.212Z</time></trkpt><trkpt lat="44.4503165" lon="8.1012294"><ele>608.0</ele><time>2026-04-06T15:47:44.212Z</time></trkpt><trkpt lat="44.450205" lon="8.1013808"><ele>608.0</ele><time>2026-04-06T15:47:45.212Z</time></trkpt><trkpt lat="44.4500996" lon="8.1015348"><ele>608.0</ele><time>2026-04-06T15:47:46.212Z</time></trkpt><trkpt lat="44.4500003" lon="8.1016819"><ele>607.75</ele><time>2026-04-06T15:47:47.212Z</time></trkpt><trkpt lat="44.4499088" lon="8.1018254"><ele>607.5</ele><time>2026-04-06T15:47:48.212Z</time></trkpt><trkpt lat="44.4498178" lon="8.101966"><ele>607.25</ele><time>2026-04-06T15:47:49.212Z</time></trkpt><trkpt lat="44.4497157" lon="8.102103"><ele>607.0</ele><time>2026-04-06T15:47:50.212Z</time></trkpt><trkpt lat="44.4495974" lon="8.1022261"><ele>607.0</ele><time>2026-04-06T15:47:51.212Z</time></trkpt><trkpt lat="44.4494771" lon="8.1023475"><ele>607.0</ele><time>2026-04-06T15:47:52.212Z</time></trkpt><trkpt lat="44.4493551" lon="8.1024631"><ele>607.0</ele><time>2026-04-06T15:47:53.212Z</time></trkpt><trkpt lat="44.4492295" lon="8.1025734"><ele>607.0</ele><time>2026-04-06T15:47:54.212Z</time></trkpt><trkpt lat="44.4491024" lon="8.1026748"><ele>607.0</ele><time>2026-04-06T15:47:55.212Z</time></trkpt><trkpt lat="44.4489648" lon="8.1027686"><ele>607.0</ele><time>2026-04-06T15:47:56.212Z</time></trkpt><trkpt lat="44.4488247" lon="8.1028521"><ele>607.0</ele><time>2026-04-06T15:47:57.213Z</time></trkpt><trkpt lat="44.4486627" lon="8.102928"><ele>607.0</ele><time>2026-04-06T15:47:58.212Z</time></trkpt><trkpt lat="44.4484911" lon="8.1029858"><ele>607.0</ele><time>2026-04-06T15:47:59.212Z</time></trkpt><trkpt lat="44.448313" lon="8.1030375"><ele>607.0</ele><time>2026-04-06T15:48:00.212Z</time></trkpt><trkpt lat="44.4481324" lon="8.1030911"><ele>607.0</ele><time>2026-04-06T15:48:01.212Z</time></trkpt><trkpt lat="44.44795" lon="8.1031402"><ele>607.0</ele><time>2026-04-06T15:48:02.212Z</time></trkpt><trkpt lat="44.4477544" lon="8.1031663"><ele>607.0</ele><time>2026-04-06T15:48:03.212Z</time></trkpt><trkpt lat="44.4475549" lon="8.1031824"><ele>607.0</ele><time>2026-04-06T15:48:04.212Z</time></trkpt><trkpt lat="44.4473555" lon="8.103187"><ele>607.0</ele><time>2026-04-06T15:48:05.212Z</time></trkpt><trkpt lat="44.4471518" lon="8.1031974"><ele>607.0</ele><time>2026-04-06T15:48:06.212Z</time></trkpt><trkpt lat="44.4469503" lon="8.1032181"><ele>607.3333333333334</ele><time>2026-04-06T15:48:07.212Z</time></trkpt><trkpt lat="44.4467515" lon="8.1032311"><ele>607.6666666666666</ele><time>2026-04-06T15:48:08.212Z</time></trkpt><trkpt lat="44.4465645" lon="8.1032447"><ele>608.0</ele><time>2026-04-06T15:48:09.213Z</time></trkpt><trkpt lat="44.446388" lon="8.1032378"><ele>608.0</ele><time>2026-04-06T15:48:10.212Z</time></trkpt><trkpt lat="44.4462243" lon="8.1032087"><ele>608.0</ele><time>2026-04-06T15:48:11.212Z</time></trkpt><trkpt lat="44.4460794" lon="8.1031873"><ele>608.0</ele><time>2026-04-06T15:48:12.212Z</time></trkpt><trkpt lat="44.4459499" lon="8.1031809"><ele>608.0</ele><time>2026-04-06T15:48:13.212Z</time></trkpt><trkpt lat="44.4458298" lon="8.1031873"><ele>608.0</ele><time>2026-04-06T15:48:14.212Z</time></trkpt><trkpt lat="44.4457167" lon="8.1032259"><ele>608.0</ele><time>2026-04-06T15:48:15.212Z</time></trkpt><trkpt lat="44.4456115" lon="8.1032891"><ele>608.0</ele><time>2026-04-06T15:48:16.212Z</time></trkpt><trkpt lat="44.4455265" lon="8.1033968"><ele>608.0</ele><time>2026-04-06T15:48:17.212Z</time></trkpt><trkpt lat="44.4454539" lon="8.1035413"><ele>607.6666666666666</ele><time>2026-04-06T15:48:18.212Z</time></trkpt><trkpt lat="44.4453933" lon="8.1037141"><ele>607.3333333333334</ele><time>2026-04-06T15:48:19.212Z</time></trkpt><trkpt lat="44.445345" lon="8.1039188"><ele>607.0</ele><time>2026-04-06T15:48:20.213Z</time></trkpt><trkpt lat="44.4452922" lon="8.1041306"><ele>608.0</ele><time>2026-04-06T15:48:21.212Z</time></trkpt><trkpt lat="44.4452307" lon="8.1043534"><ele>609.0</ele><time>2026-04-06T15:48:22.212Z</time></trkpt><trkpt lat="44.4451649" lon="8.1045809"><ele>610.0</ele><time>2026-04-06T15:48:23.212Z</time></trkpt><trkpt lat="44.4450993" lon="8.1048276"><ele>611.0</ele><time>2026-04-06T15:48:24.212Z</time></trkpt><trkpt lat="44.4450365" lon="8.1050844"><ele>612.0</ele><time>2026-04-06T15:48:25.212Z</time></trkpt><trkpt lat="44.4449694" lon="8.1053478"><ele>613.0</ele><time>2026-04-06T15:48:26.212Z</time></trkpt><trkpt lat="44.444899" lon="8.105604"><ele>615.0</ele><time>2026-04-06T15:48:27.212Z</time></trkpt><trkpt lat="44.4448219" lon="8.1058395"><ele>617.0</ele><time>2026-04-06T15:48:28.212Z</time></trkpt><trkpt lat="44.4447484" lon="8.1060798"><ele>619.0</ele><time>2026-04-06T15:48:29.212Z</time></trkpt><trkpt lat="44.4446861" lon="8.106326"><ele>619.0</ele><time>2026-04-06T15:48:30.212Z</time></trkpt><trkpt lat="44.4446303" lon="8.1065734"><ele>619.0</ele><time>2026-04-06T15:48:31.212Z</time></trkpt><trkpt lat="44.4445745" lon="8.1068204"><ele>619.0</ele><time>2026-04-06T15:48:32.212Z</time></trkpt><trkpt lat="44.4445211" lon="8.1070655"><ele>616.6666666666667</ele><time>2026-04-06T15:48:33.212Z</time></trkpt><trkpt lat="44.4444659" lon="8.1073039"><ele>614.3333333333334</ele><time>2026-04-06T15:48:34.212Z</time></trkpt><trkpt lat="44.4444091" lon="8.1075339"><ele>612.0</ele><time>2026-04-06T15:48:35.213Z</time></trkpt><trkpt lat="44.4443498" lon="8.1077441"><ele>612.0</ele><time>2026-04-06T15:48:36.212Z</time></trkpt><trkpt lat="44.4442878" lon="8.1079282"><ele>612.0</ele><time>2026-04-06T15:48:37.212Z</time></trkpt><trkpt lat="44.4442184" lon="8.1080882"><ele>612.0</ele><time>2026-04-06T15:48:38.212Z</time></trkpt><trkpt lat="44.4441415" lon="8.1082228"><ele>612.0</ele><time>2026-04-06T15:48:39.212Z</time></trkpt><trkpt lat="44.4440578" lon="8.1083316"><ele>612.25</ele><time>2026-04-06T15:48:40.212Z</time></trkpt><trkpt lat="44.4439718" lon="8.1084209"><ele>612.5</ele><time>2026-04-06T15:48:41.212Z</time></trkpt><trkpt lat="44.4438729" lon="8.1085107"><ele>612.75</ele><time>2026-04-06T15:48:42.212Z</time></trkpt><trkpt lat="44.443753" lon="8.1085819"><ele>613.0</ele><time>2026-04-06T15:48:43.212Z</time></trkpt><trkpt lat="44.4436179" lon="8.1086312"><ele>613.0</ele><time>2026-04-06T15:48:44.212Z</time></trkpt><trkpt lat="44.4434735" lon="8.1086666"><ele>613.0</ele><time>2026-04-06T15:48:45.212Z</time></trkpt><trkpt lat="44.4433347" lon="8.1086848"><ele>613.0</ele><time>2026-04-06T15:48:46.212Z</time></trkpt><trkpt lat="44.4432139" lon="8.1087011"><ele>613.0</ele><time>2026-04-06T15:48:47.212Z</time></trkpt><trkpt lat="44.4430995" lon="8.1087137"><ele>613.0</ele><time>2026-04-06T15:48:48.212Z</time></trkpt><trkpt lat="44.4429957" lon="8.1087231"><ele>613.0</ele><time>2026-04-06T15:48:49.212Z</time></trkpt><trkpt lat="44.4428951" lon="8.1087336"><ele>613.0</ele><time>2026-04-06T15:48:50.212Z</time></trkpt><trkpt lat="44.4427999" lon="8.1087495"><ele>613.0</ele><time>2026-04-06T15:48:51.212Z</time></trkpt><trkpt lat="44.4427005" lon="8.1087665"><ele>613.0</ele><time>2026-04-06T15:48:52.212Z</time></trkpt><trkpt lat="44.4425984" lon="8.1087948"><ele>612.5</ele><time>2026-04-06T15:48:53.212Z</time></trkpt><trkpt lat="44.4424849" lon="8.1088278"><ele>612.0</ele><time>2026-04-06T15:48:54.212Z</time></trkpt><trkpt lat="44.4423567" lon="8.1088689"><ele>611.5</ele><time>2026-04-06T15:48:55.212Z</time></trkpt><trkpt lat="44.4422215" lon="8.1089071"><ele>611.0</ele><time>2026-04-06T15:48:56.212Z</time></trkpt><trkpt lat="44.4420884" lon="8.1089369"><ele>611.0</ele><time>2026-04-06T15:48:57.212Z</time></trkpt><trkpt lat="44.4419694" lon="8.1089515"><ele>611.0</ele><time>2026-04-06T15:48:58.212Z</time></trkpt><trkpt lat="44.4418583" lon="8.1089547"><ele>611.0</ele><time>2026-04-06T15:48:59.212Z</time></trkpt><trkpt lat="44.4417534" lon="8.1089525"><ele>611.0</ele><time>2026-04-06T15:49:00.212Z</time></trkpt><trkpt lat="44.4416611" lon="8.1089494"><ele>611.0</ele><time>2026-04-06T15:49:01.212Z</time></trkpt><trkpt lat="44.4415778" lon="8.108942"><ele>611.0</ele><time>2026-04-06T15:49:02.212Z</time></trkpt><trkpt lat="44.4414962" lon="8.1089302"><ele>611.0</ele><time>2026-04-06T15:49:03.212Z</time></trkpt><trkpt lat="44.4414229" lon="8.1089158"><ele>611.0</ele><time>2026-04-06T15:49:04.212Z</time></trkpt><trkpt lat="44.441352" lon="8.108888"><ele>611.0</ele><time>2026-04-06T15:49:05.212Z</time></trkpt><trkpt lat="44.4412508" lon="8.1088379"><ele>611.0</ele><time>2026-04-06T15:49:07.212Z</time></trkpt><trkpt lat="44.4411721" lon="8.1087999"><ele>611.0</ele><time>2026-04-06T15:49:10.212Z</time></trkpt><trkpt lat="44.4407933" lon="8.1084892"><ele>611.5</ele><time>2026-04-06T15:53:55.212Z</time></trkpt><trkpt lat="44.4406696" lon="8.1083758"><ele>612.0</ele><time>2026-04-06T15:53:57.212Z</time></trkpt><trkpt lat="44.4405691" lon="8.1082836"><ele>612.5</ele><time>2026-04-06T15:53:58.212Z</time></trkpt><trkpt lat="44.4404416" lon="8.1081716"><ele>613.0</ele><time>2026-04-06T15:53:59.212Z</time></trkpt><trkpt lat="44.4402988" lon="8.1080394"><ele>613.0</ele><time>2026-04-06T15:54:00.212Z</time></trkpt><trkpt lat="44.4401467" lon="8.1079024"><ele>613.0</ele><time>2026-04-06T15:54:01.212Z</time></trkpt><trkpt lat="44.4399925" lon="8.1077842"><ele>613.0</ele><time>2026-04-06T15:54:02.212Z</time></trkpt><trkpt lat="44.4398218" lon="8.1076852"><ele>613.0</ele><time>2026-04-06T15:54:03.212Z</time></trkpt><trkpt lat="44.4396409" lon="8.1075963"><ele>613.0</ele><time>2026-04-06T15:54:04.212Z</time></trkpt><trkpt lat="44.4394662" lon="8.1075204"><ele>613.0</ele><time>2026-04-06T15:54:05.212Z</time></trkpt><trkpt lat="44.4393024" lon="8.1074557"><ele>613.3333333333334</ele><time>2026-04-06T15:54:06.212Z</time></trkpt><trkpt lat="44.4391552" lon="8.1073784"><ele>613.6666666666666</ele><time>2026-04-06T15:54:07.212Z</time></trkpt><trkpt lat="44.4390198" lon="8.1073032"><ele>614.0</ele><time>2026-04-06T15:54:08.212Z</time></trkpt><trkpt lat="44.4388819" lon="8.1072192"><ele>613.3333333333333</ele><time>2026-04-06T15:54:09.212Z</time></trkpt><trkpt lat="44.4387388" lon="8.1071184"><ele>612.6666666666666</ele><time>2026-04-06T15:54:10.212Z</time></trkpt><trkpt lat="44.4385992" lon="8.1070088"><ele>612.0</ele><time>2026-04-06T15:54:11.212Z</time></trkpt><trkpt lat="44.4384568" lon="8.1068971"><ele>612.0</ele><time>2026-04-06T15:54:12.212Z</time></trkpt><trkpt lat="44.438317" lon="8.1067959"><ele>612.0</ele><time>2026-04-06T15:54:13.212Z</time></trkpt><trkpt lat="44.4381786" lon="8.1066989"><ele>612.0</ele><time>2026-04-06T15:54:14.212Z</time></trkpt><trkpt lat="44.4380449" lon="8.1065979"><ele>612.0</ele><time>2026-04-06T15:54:15.212Z</time></trkpt><trkpt lat="44.4379154" lon="8.1065219"><ele>612.0</ele><time>2026-04-06T15:54:16.212Z</time></trkpt><trkpt lat="44.4377858" lon="8.1064473"><ele>612.0</ele><time>2026-04-06T15:54:17.212Z</time></trkpt><trkpt lat="44.4376679" lon="8.1063815"><ele>612.0</ele><time>2026-04-06T15:54:18.212Z</time></trkpt><trkpt lat="44.4375491" lon="8.1063227"><ele>612.0</ele><time>2026-04-06T15:54:19.212Z</time></trkpt><trkpt lat="44.4374341" lon="8.1062562"><ele>612.0</ele><time>2026-04-06T15:54:20.212Z</time></trkpt><trkpt lat="44.4373179" lon="8.1061888"><ele>612.0</ele><time>2026-04-06T15:54:21.212Z</time></trkpt><trkpt lat="44.4371991" lon="8.1061334"><ele>612.0</ele><time>2026-04-06T15:54:22.212Z</time></trkpt><trkpt lat="44.4370751" lon="8.1061014"><ele>612.0</ele><time>2026-04-06T15:54:23.212Z</time></trkpt><trkpt lat="44.4369383" lon="8.1060966"><ele>612.0</ele><time>2026-04-06T15:54:24.212Z</time></trkpt><trkpt lat="44.4367938" lon="8.1061102"><ele>612.0</ele><time>2026-04-06T15:54:25.212Z</time></trkpt><trkpt lat="44.4366349" lon="8.1061314"><ele>612.0</ele><time>2026-04-06T15:54:26.212Z</time></trkpt><trkpt lat="44.4364729" lon="8.1061549"><ele>612.3333333333334</ele><time>2026-04-06T15:54:27.212Z</time></trkpt><trkpt lat="44.4362962" lon="8.1061823"><ele>612.6666666666667</ele><time>2026-04-06T15:54:28.212Z</time></trkpt><trkpt lat="44.4361257" lon="8.1062175"><ele>613.0</ele><time>2026-04-06T15:54:29.212Z</time></trkpt><trkpt lat="44.4359603" lon="8.1062461"><ele>613.0</ele><time>2026-04-06T15:54:30.212Z</time></trkpt><trkpt lat="44.435812" lon="8.1062607"><ele>613.0</ele><time>2026-04-06T15:54:31.212Z</time></trkpt><trkpt lat="44.4356797" lon="8.106268"><ele>613.0</ele><time>2026-04-06T15:54:32.212Z</time></trkpt><trkpt lat="44.4355703" lon="8.1062764"><ele>613.0</ele><time>2026-04-06T15:54:33.212Z</time></trkpt><trkpt lat="44.4354701" lon="8.1062954"><ele>613.0</ele><time>2026-04-06T15:54:34.212Z</time></trkpt><trkpt lat="44.4353866" lon="8.1063406"><ele>613.0</ele><time>2026-04-06T15:54:35.212Z</time></trkpt><trkpt lat="44.4353049" lon="8.1064241"><ele>613.0</ele><time>2026-04-06T15:54:36.212Z</time></trkpt><trkpt lat="44.4352179" lon="8.1065261"><ele>613.0</ele><time>2026-04-06T15:54:37.212Z</time></trkpt><trkpt lat="44.4351256" lon="8.1066513"><ele>613.0</ele><time>2026-04-06T15:54:38.213Z</time></trkpt><trkpt lat="44.4350163" lon="8.1067796"><ele>613.0</ele><time>2026-04-06T15:54:39.212Z</time></trkpt><trkpt lat="44.4348973" lon="8.1069147"><ele>613.0</ele><time>2026-04-06T15:54:40.212Z</time></trkpt><trkpt lat="44.4347737" lon="8.1070766"><ele>613.0</ele><time>2026-04-06T15:54:41.212Z</time></trkpt><trkpt lat="44.4346599" lon="8.1072659"><ele>613.6666666666667</ele><time>2026-04-06T15:54:42.212Z</time></trkpt><trkpt lat="44.4345444" lon="8.1074672"><ele>614.3333333333334</ele><time>2026-04-06T15:54:43.212Z</time></trkpt><trkpt lat="44.4344333" lon="8.1076707"><ele>615.0</ele><time>2026-04-06T15:54:44.212Z</time></trkpt><trkpt lat="44.4343275" lon="8.1078527"><ele>615.0</ele><time>2026-04-06T15:54:45.213Z</time></trkpt><trkpt lat="44.4342126" lon="8.1080309"><ele>615.0</ele><time>2026-04-06T15:54:46.212Z</time></trkpt><trkpt lat="44.4340945" lon="8.1082012"><ele>615.0</ele><time>2026-04-06T15:54:47.212Z</time></trkpt><trkpt lat="44.4339686" lon="8.1083711"><ele>614.6666666666666</ele><time>2026-04-06T15:54:48.212Z</time></trkpt><trkpt lat="44.4338257" lon="8.1085218"><ele>614.3333333333333</ele><time>2026-04-06T15:54:49.212Z</time></trkpt><trkpt lat="44.4336712" lon="8.1086558"><ele>614.0</ele><time>2026-04-06T15:54:50.212Z</time></trkpt><trkpt lat="44.4335043" lon="8.1087765"><ele>613.6666666666666</ele><time>2026-04-06T15:54:51.212Z</time></trkpt><trkpt lat="44.4333353" lon="8.1089115"><ele>613.3333333333334</ele><time>2026-04-06T15:54:52.212Z</time></trkpt><trkpt lat="44.433165" lon="8.1090563"><ele>613.0</ele><time>2026-04-06T15:54:53.212Z</time></trkpt><trkpt lat="44.4329962" lon="8.109197"><ele>614.0</ele><time>2026-04-06T15:54:54.212Z</time></trkpt><trkpt lat="44.43283" lon="8.1093338"><ele>615.0</ele><time>2026-04-06T15:54:55.212Z</time></trkpt><trkpt lat="44.4326588" lon="8.1094515"><ele>616.0</ele><time>2026-04-06T15:54:56.212Z</time></trkpt><trkpt lat="44.4324888" lon="8.1095595"><ele>616.0</ele><time>2026-04-06T15:54:57.212Z</time></trkpt><trkpt lat="44.4323139" lon="8.1096474"><ele>616.0</ele><time>2026-04-06T15:54:58.212Z</time></trkpt><trkpt lat="44.43214" lon="8.1097241"><ele>616.0</ele><time>2026-04-06T15:54:59.212Z</time></trkpt><trkpt lat="44.4319716" lon="8.109808"><ele>615.6666666666667</ele><time>2026-04-06T15:55:00.212Z</time></trkpt><trkpt lat="44.4318074" lon="8.1098862"><ele>615.3333333333334</ele><time>2026-04-06T15:55:01.212Z</time></trkpt><trkpt lat="44.4316405" lon="8.1099636"><ele>615.0</ele><time>2026-04-06T15:55:02.212Z</time></trkpt><trkpt lat="44.4314747" lon="8.1100475"><ele>615.0</ele><time>2026-04-06T15:55:03.212Z</time></trkpt><trkpt lat="44.4313129" lon="8.110119"><ele>615.0</ele><time>2026-04-06T15:55:04.212Z</time></trkpt><trkpt lat="44.4311654" lon="8.1101717"><ele>615.0</ele><time>2026-04-06T15:55:05.212Z</time></trkpt><trkpt lat="44.431028" lon="8.1101962"><ele>615.4</ele><time>2026-04-06T15:55:06.212Z</time></trkpt><trkpt lat="44.4309009" lon="8.1102181"><ele>615.8</ele><time>2026-04-06T15:55:07.212Z</time></trkpt><trkpt lat="44.4307765" lon="8.1102338"><ele>616.2</ele><time>2026-04-06T15:55:08.212Z</time></trkpt><trkpt lat="44.4306771" lon="8.1102747"><ele>616.6</ele><time>2026-04-06T15:55:09.212Z</time></trkpt><trkpt lat="44.4306062" lon="8.1103379"><ele>617.0</ele><time>2026-04-06T15:55:10.212Z</time></trkpt><trkpt lat="44.4305557" lon="8.1104363"><ele>617.0</ele><time>2026-04-06T15:55:11.212Z</time></trkpt><trkpt lat="44.4305348" lon="8.1105686"><ele>617.0</ele><time>2026-04-06T15:55:12.212Z</time></trkpt><trkpt lat="44.4305117" lon="8.1107291"><ele>617.0</ele><time>2026-04-06T15:55:13.212Z</time></trkpt><trkpt lat="44.430485" lon="8.110907"><ele>617.0</ele><time>2026-04-06T15:55:14.212Z</time></trkpt><trkpt lat="44.4304464" lon="8.1110992"><ele>617.0</ele><time>2026-04-06T15:55:15.212Z</time></trkpt><trkpt lat="44.4303978" lon="8.111315"><ele>617.0</ele><time>2026-04-06T15:55:16.212Z</time></trkpt><trkpt lat="44.4303384" lon="8.1115469"><ele>617.0</ele><time>2026-04-06T15:55:17.212Z</time></trkpt><trkpt lat="44.430266" lon="8.111767"><ele>616.6666666666666</ele><time>2026-04-06T15:55:18.212Z</time></trkpt><trkpt lat="44.4301889" lon="8.1119662"><ele>616.3333333333334</ele><time>2026-04-06T15:55:19.212Z</time></trkpt><trkpt lat="44.4300983" lon="8.1121584"><ele>616.0</ele><time>2026-04-06T15:55:20.212Z</time></trkpt><trkpt lat="44.4299901" lon="8.1123394"><ele>617.0</ele><time>2026-04-06T15:55:21.212Z</time></trkpt><trkpt lat="44.4298637" lon="8.1125221"><ele>618.0</ele><time>2026-04-06T15:55:22.212Z</time></trkpt><trkpt lat="44.4297281" lon="8.1126995"><ele>619.0</ele><time>2026-04-06T15:55:23.212Z</time></trkpt><trkpt lat="44.4295921" lon="8.11288"><ele>619.3333333333334</ele><time>2026-04-06T15:55:24.212Z</time></trkpt><trkpt lat="44.4294591" lon="8.1130618"><ele>619.6666666666666</ele><time>2026-04-06T15:55:25.212Z</time></trkpt><trkpt lat="44.4293382" lon="8.1132503"><ele>620.0</ele><time>2026-04-06T15:55:26.212Z</time></trkpt><trkpt lat="44.4292301" lon="8.1134572"><ele>620.0</ele><time>2026-04-06T15:55:27.212Z</time></trkpt><trkpt lat="44.4291331" lon="8.1136681"><ele>620.0</ele><time>2026-04-06T15:55:28.212Z</time></trkpt><trkpt lat="44.4290611" lon="8.1138838"><ele>620.0</ele><time>2026-04-06T15:55:29.212Z</time></trkpt><trkpt lat="44.4290006" lon="8.1140778"><ele>620.75</ele><time>2026-04-06T15:55:30.212Z</time></trkpt><trkpt lat="44.4289508" lon="8.1142586"><ele>621.5</ele><time>2026-04-06T15:55:31.212Z</time></trkpt><trkpt lat="44.4289074" lon="8.1144275"><ele>622.25</ele><time>2026-04-06T15:55:32.212Z</time></trkpt><trkpt lat="44.4288638" lon="8.114589"><ele>623.0</ele><time>2026-04-06T15:55:33.213Z</time></trkpt><trkpt lat="44.428823" lon="8.1147319"><ele>622.5</ele><time>2026-04-06T15:55:34.212Z</time></trkpt><trkpt lat="44.4287724" lon="8.1148797"><ele>622.0</ele><time>2026-04-06T15:55:35.212Z</time></trkpt><trkpt lat="44.4287122" lon="8.1150313"><ele>621.5</ele><time>2026-04-06T15:55:36.212Z</time></trkpt><trkpt lat="44.4286478" lon="8.1151942"><ele>621.0</ele><time>2026-04-06T15:55:37.212Z</time></trkpt><trkpt lat="44.4285771" lon="8.1153695"><ele>620.3333333333334</ele><time>2026-04-06T15:55:38.212Z</time></trkpt><trkpt lat="44.4284945" lon="8.1155555"><ele>619.6666666666667</ele><time>2026-04-06T15:55:39.212Z</time></trkpt><trkpt lat="44.428401" lon="8.1157444"><ele>619.0</ele><time>2026-04-06T15:55:40.212Z</time></trkpt><trkpt lat="44.4283094" lon="8.1159088"><ele>619.0</ele><time>2026-04-06T15:55:41.212Z</time></trkpt><trkpt lat="44.4282215" lon="8.1160666"><ele>619.0</ele><time>2026-04-06T15:55:42.212Z</time></trkpt><trkpt lat="44.4281311" lon="8.1162066"><ele>619.0</ele><time>2026-04-06T15:55:43.212Z</time></trkpt><trkpt lat="44.4280551" lon="8.116347"><ele>619.0</ele><time>2026-04-06T15:55:44.212Z</time></trkpt><trkpt lat="44.4279864" lon="8.1164697"><ele>619.0</ele><time>2026-04-06T15:55:45.212Z</time></trkpt><trkpt lat="44.4279228" lon="8.1165886"><ele>619.0</ele><time>2026-04-06T15:55:46.212Z</time></trkpt><trkpt lat="44.4278595" lon="8.1166901"><ele>619.0</ele><time>2026-04-06T15:55:47.212Z</time></trkpt><trkpt lat="44.4278025" lon="8.1167877"><ele>619.0</ele><time>2026-04-06T15:55:48.212Z</time></trkpt><trkpt lat="44.4277495" lon="8.1168718"><ele>619.0</ele><time>2026-04-06T15:55:49.212Z</time></trkpt><trkpt lat="44.427702" lon="8.1169598"><ele>619.0</ele><time>2026-04-06T15:55:50.212Z</time></trkpt><trkpt lat="44.4276525" lon="8.1170374"><ele>619.0</ele><time>2026-04-06T15:55:51.212Z</time></trkpt><trkpt lat="44.4276061" lon="8.1171279"><ele>619.0</ele><time>2026-04-06T15:55:52.212Z</time></trkpt><trkpt lat="44.4275489" lon="8.1172261"><ele>619.0</ele><time>2026-04-06T15:55:53.212Z</time></trkpt><trkpt lat="44.4274817" lon="8.1173449"><ele>619.0</ele><time>2026-04-06T15:55:54.212Z</time></trkpt><trkpt lat="44.4274041" lon="8.1174818"><ele>619.0</ele><time>2026-04-06T15:55:55.212Z</time></trkpt><trkpt lat="44.4273234" lon="8.117634"><ele>619.0</ele><time>2026-04-06T15:55:56.212Z</time></trkpt><trkpt lat="44.4272398" lon="8.1178037"><ele>619.0</ele><time>2026-04-06T15:55:57.212Z</time></trkpt><trkpt lat="44.4271479" lon="8.11798"><ele>619.0</ele><time>2026-04-06T15:55:58.212Z</time></trkpt><trkpt lat="44.4270513" lon="8.1181732"><ele>619.3333333333334</ele><time>2026-04-06T15:55:59.212Z</time></trkpt><trkpt lat="44.4269484" lon="8.1183813"><ele>619.6666666666666</ele><time>2026-04-06T15:56:00.212Z</time></trkpt><trkpt lat="44.4268411" lon="8.118602"><ele>620.0</ele><time>2026-04-06T15:56:01.212Z</time></trkpt><trkpt lat="44.4267295" lon="8.1188324"><ele>620.0</ele><time>2026-04-06T15:56:02.212Z</time></trkpt><trkpt lat="44.4266178" lon="8.1190621"><ele>620.0</ele><time>2026-04-06T15:56:03.212Z</time></trkpt><trkpt lat="44.4265226" lon="8.1192856"><ele>620.0</ele><time>2026-04-06T15:56:04.212Z</time></trkpt><trkpt lat="44.4264301" lon="8.1194924"><ele>619.75</ele><time>2026-04-06T15:56:05.212Z</time></trkpt><trkpt lat="44.4263351" lon="8.119675"><ele>619.5</ele><time>2026-04-06T15:56:06.212Z</time></trkpt><trkpt lat="44.4262439" lon="8.1198267"><ele>619.25</ele><time>2026-04-06T15:56:07.212Z</time></trkpt><trkpt lat="44.4261426" lon="8.119968"><ele>619.0</ele><time>2026-04-06T15:56:08.212Z</time></trkpt><trkpt lat="44.4260418" lon="8.1201066"><ele>619.5</ele><time>2026-04-06T15:56:09.212Z</time></trkpt><trkpt lat="44.425935" lon="8.1202181"><ele>620.0</ele><time>2026-04-06T15:56:10.212Z</time></trkpt><trkpt lat="44.4258173" lon="8.1202964"><ele>620.5</ele><time>2026-04-06T15:56:11.212Z</time></trkpt><trkpt lat="44.4256756" lon="8.1203474"><ele>621.0</ele><time>2026-04-06T15:56:12.212Z</time></trkpt><trkpt lat="44.4255258" lon="8.1204069"><ele>621.6666666666666</ele><time>2026-04-06T15:56:13.212Z</time></trkpt><trkpt lat="44.42537" lon="8.1204689"><ele>622.3333333333333</ele><time>2026-04-06T15:56:14.212Z</time></trkpt><trkpt lat="44.4252044" lon="8.1205192"><ele>623.0</ele><time>2026-04-06T15:56:15.212Z</time></trkpt><trkpt lat="44.4250316" lon="8.1205573"><ele>623.0</ele><time>2026-04-06T15:56:16.212Z</time></trkpt><trkpt lat="44.4248546" lon="8.1205876"><ele>623.0</ele><time>2026-04-06T15:56:17.212Z</time></trkpt><trkpt lat="44.4246697" lon="8.1206195"><ele>623.0</ele><time>2026-04-06T15:56:18.212Z</time></trkpt><trkpt lat="44.4244836" lon="8.120667"><ele>623.3333333333333</ele><time>2026-04-06T15:56:19.212Z</time></trkpt><trkpt lat="44.4242923" lon="8.1207313"><ele>623.6666666666666</ele><time>2026-04-06T15:56:20.212Z</time></trkpt><trkpt lat="44.4240933" lon="8.1208067"><ele>624.0</ele><time>2026-04-06T15:56:21.212Z</time></trkpt><trkpt lat="44.4238882" lon="8.1208962"><ele>623.0</ele><time>2026-04-06T15:56:22.212Z</time></trkpt><trkpt lat="44.4236795" lon="8.1209946"><ele>622.0</ele><time>2026-04-06T15:56:23.212Z</time></trkpt><trkpt lat="44.423465" lon="8.1210976"><ele>621.0</ele><time>2026-04-06T15:56:24.212Z</time></trkpt><trkpt lat="44.4232501" lon="8.1212049"><ele>621.0</ele><time>2026-04-06T15:56:25.212Z</time></trkpt><trkpt lat="44.4230269" lon="8.1213067"><ele>621.0</ele><time>2026-04-06T15:56:26.212Z</time></trkpt><trkpt lat="44.4227976" lon="8.1214073"><ele>621.0</ele><time>2026-04-06T15:56:27.213Z</time></trkpt><trkpt lat="44.4225838" lon="8.1214995"><ele>621.0</ele><time>2026-04-06T15:56:28.212Z</time></trkpt><trkpt lat="44.4223927" lon="8.1215779"><ele>621.0</ele><time>2026-04-06T15:56:29.212Z</time></trkpt><trkpt lat="44.4222207" lon="8.1216432"><ele>621.3333333333334</ele><time>2026-04-06T15:56:30.212Z</time></trkpt><trkpt lat="44.4220625" lon="8.1217031"><ele>621.6666666666667</ele><time>2026-04-06T15:56:31.212Z</time></trkpt><trkpt lat="44.4219075" lon="8.1217654"><ele>622.0</ele><time>2026-04-06T15:56:32.212Z</time></trkpt><trkpt lat="44.4217587" lon="8.1218215"><ele>622.0</ele><time>2026-04-06T15:56:33.212Z</time></trkpt><trkpt lat="44.4216162" lon="8.1218794"><ele>622.0</ele><time>2026-04-06T15:56:34.212Z</time></trkpt><trkpt lat="44.4214922" lon="8.1219193"><ele>622.0</ele><time>2026-04-06T15:56:35.212Z</time></trkpt><trkpt lat="44.4213726" lon="8.12195"><ele>622.0</ele><time>2026-04-06T15:56:36.212Z</time></trkpt><trkpt lat="44.4212454" lon="8.1219562"><ele>622.25</ele><time>2026-04-06T15:56:37.212Z</time></trkpt><trkpt lat="44.4211188" lon="8.1219328"><ele>622.5</ele><time>2026-04-06T15:56:38.212Z</time></trkpt><trkpt lat="44.4209809" lon="8.1218854"><ele>622.75</ele><time>2026-04-06T15:56:39.212Z</time></trkpt><trkpt lat="44.4208327" lon="8.1218361"><ele>623.0</ele><time>2026-04-06T15:56:40.212Z</time></trkpt><trkpt lat="44.420677" lon="8.1218037"><ele>623.0</ele><time>2026-04-06T15:56:41.212Z</time></trkpt><trkpt lat="44.4205073" lon="8.1217847"><ele>623.0</ele><time>2026-04-06T15:56:42.212Z</time></trkpt><trkpt lat="44.4203466" lon="8.1217643"><ele>623.0</ele><time>2026-04-06T15:56:43.212Z</time></trkpt><trkpt lat="44.4201999" lon="8.1217471"><ele>622.75</ele><time>2026-04-06T15:56:44.212Z</time></trkpt><trkpt lat="44.4200635" lon="8.1217252"><ele>622.5</ele><time>2026-04-06T15:56:45.212Z</time></trkpt><trkpt lat="44.4199254" lon="8.1217063"><ele>622.25</ele><time>2026-04-06T15:56:46.212Z</time></trkpt><trkpt lat="44.4197885" lon="8.1216764"><ele>622.0</ele><time>2026-04-06T15:56:47.212Z</time></trkpt><trkpt lat="44.4196706" lon="8.1216233"><ele>621.8000000000001</ele><time>2026-04-06T15:56:48.212Z</time></trkpt><trkpt lat="44.4195682" lon="8.1215375"><ele>621.6</ele><time>2026-04-06T15:56:49.212Z</time></trkpt><trkpt lat="44.4194735" lon="8.1214579"><ele>621.4000000000001</ele><time>2026-04-06T15:56:50.212Z</time></trkpt><trkpt lat="44.4193875" lon="8.1213763"><ele>621.2</ele><time>2026-04-06T15:56:51.212Z</time></trkpt><trkpt lat="44.4193213" lon="8.1212835"><ele>621.0</ele><time>2026-04-06T15:56:52.212Z</time></trkpt><trkpt lat="44.4192712" lon="8.1211872"><ele>621.0</ele><time>2026-04-06T15:56:53.212Z</time></trkpt><trkpt lat="44.419222" lon="8.1211006"><ele>621.0</ele><time>2026-04-06T15:56:54.212Z</time></trkpt><trkpt lat="44.4191619" lon="8.1210204"><ele>621.0</ele><time>2026-04-06T15:56:55.212Z</time></trkpt><trkpt lat="44.4190983" lon="8.1209299"><ele>621.0</ele><time>2026-04-06T15:56:56.212Z</time></trkpt><trkpt lat="44.4190174" lon="8.1208232"><ele>621.0</ele><time>2026-04-06T15:56:57.212Z</time></trkpt><trkpt lat="44.4189335" lon="8.1207182"><ele>621.4</ele><time>2026-04-06T15:56:58.212Z</time></trkpt><trkpt lat="44.4188417" lon="8.1206486"><ele>621.8</ele><time>2026-04-06T15:56:59.212Z</time></trkpt><trkpt lat="44.4187538" lon="8.1206047"><ele>622.1999999999999</ele><time>2026-04-06T15:57:00.212Z</time></trkpt><trkpt lat="44.418662" lon="8.1205815"><ele>622.6</ele><time>2026-04-06T15:57:01.212Z</time></trkpt><trkpt lat="44.4185758" lon="8.1205781"><ele>623.0</ele><time>2026-04-06T15:57:02.212Z</time></trkpt><trkpt lat="44.4184825" lon="8.1206024"><ele>623.1999999999999</ele><time>2026-04-06T15:57:03.212Z</time></trkpt><trkpt lat="44.4183896" lon="8.1206259"><ele>623.4</ele><time>2026-04-06T15:57:04.212Z</time></trkpt><trkpt lat="44.4183001" lon="8.1206584"><ele>623.5999999999999</ele><time>2026-04-06T15:57:05.212Z</time></trkpt><trkpt lat="44.4182212" lon="8.1206892"><ele>623.8</ele><time>2026-04-06T15:57:06.212Z</time></trkpt><trkpt lat="44.4181479" lon="8.1206963"><ele>624.0</ele><time>2026-04-06T15:57:07.212Z</time></trkpt><trkpt lat="44.418035" lon="8.1206745"><ele>624.1666666666666</ele><time>2026-04-06T15:57:09.212Z</time></trkpt><trkpt lat="44.4179515" lon="8.1206854"><ele>624.3333333333334</ele><time>2026-04-06T15:57:12.212Z</time></trkpt><trkpt lat="44.4178953" lon="8.1207257"><ele>624.5</ele><time>2026-04-06T15:58:41.212Z</time></trkpt><trkpt lat="44.4178256" lon="8.1208304"><ele>624.6666666666667</ele><time>2026-04-06T15:58:44.211Z</time></trkpt><trkpt lat="44.4177767" lon="8.1208881"><ele>624.8333333333334</ele><time>2026-04-06T15:58:45.211Z</time></trkpt><trkpt lat="44.4176661" lon="8.1209782"><ele>625.0</ele><time>2026-04-06T15:58:47.211Z</time></trkpt><trkpt lat="44.4175832" lon="8.1210157"><ele>625.0</ele><time>2026-04-06T15:58:48.211Z</time></trkpt><trkpt lat="44.4174817" lon="8.1210505"><ele>625.0</ele><time>2026-04-06T15:58:49.211Z</time></trkpt><trkpt lat="44.4173568" lon="8.1210684"><ele>625.0</ele><time>2026-04-06T15:58:50.211Z</time></trkpt><trkpt lat="44.4172253" lon="8.1210738"><ele>625.0</ele><time>2026-04-06T15:58:51.211Z</time></trkpt><trkpt lat="44.4170971" lon="8.1210849"><ele>625.0</ele><time>2026-04-06T15:58:52.211Z</time></trkpt><trkpt lat="44.4169783" lon="8.1210778"><ele>625.0</ele><time>2026-04-06T15:58:53.211Z</time></trkpt><trkpt lat="44.4168654" lon="8.1210569"><ele>625.0</ele><time>2026-04-06T15:58:54.211Z</time></trkpt><trkpt lat="44.4167589" lon="8.1210185"><ele>625.0</ele><time>2026-04-06T15:58:55.211Z</time></trkpt><trkpt lat="44.416659" lon="8.1209878"><ele>625.0</ele><time>2026-04-06T15:58:56.211Z</time></trkpt><trkpt lat="44.4165508" lon="8.1209655"><ele>625.0</ele><time>2026-04-06T15:58:57.211Z</time></trkpt><trkpt lat="44.4164151" lon="8.1209817"><ele>625.0</ele><time>2026-04-06T15:58:58.211Z</time></trkpt><trkpt lat="44.416265" lon="8.1210071"><ele>625.0</ele><time>2026-04-06T15:58:59.211Z</time></trkpt><trkpt lat="44.4160984" lon="8.1210305"><ele>625.0</ele><time>2026-04-06T15:59:00.211Z</time></trkpt><trkpt lat="44.4159131" lon="8.1210388"><ele>625.0</ele><time>2026-04-06T15:59:01.211Z</time></trkpt><trkpt lat="44.4157222" lon="8.1210219"><ele>625.0</ele><time>2026-04-06T15:59:02.212Z</time></trkpt><trkpt lat="44.4155234" lon="8.120997"><ele>625.0</ele><time>2026-04-06T15:59:03.211Z</time></trkpt><trkpt lat="44.4153195" lon="8.1209615"><ele>625.0</ele><time>2026-04-06T15:59:04.211Z</time></trkpt><trkpt lat="44.4151167" lon="8.1209264"><ele>625.0</ele><time>2026-04-06T15:59:05.211Z</time></trkpt><trkpt lat="44.414915" lon="8.1208837"><ele>625.0</ele><time>2026-04-06T15:59:06.211Z</time></trkpt><trkpt lat="44.4147158" lon="8.1208495"><ele>625.0</ele><time>2026-04-06T15:59:07.211Z</time></trkpt><trkpt lat="44.4145279" lon="8.1208194"><ele>625.0</ele><time>2026-04-06T15:59:08.211Z</time></trkpt><trkpt lat="44.414349" lon="8.1208021"><ele>624.6666666666667</ele><time>2026-04-06T15:59:09.211Z</time></trkpt><trkpt lat="44.4141712" lon="8.1208039"><ele>624.3333333333334</ele><time>2026-04-06T15:59:10.211Z</time></trkpt><trkpt lat="44.4139931" lon="8.1208152"><ele>624.0</ele><time>2026-04-06T15:59:11.211Z</time></trkpt><trkpt lat="44.4138182" lon="8.120848"><ele>624.0</ele><time>2026-04-06T15:59:12.211Z</time></trkpt><trkpt lat="44.4136514" lon="8.1208808"><ele>624.0</ele><time>2026-04-06T15:59:13.211Z</time></trkpt><trkpt lat="44.4134915" lon="8.1209383"><ele>624.0</ele><time>2026-04-06T15:59:14.211Z</time></trkpt><trkpt lat="44.413335" lon="8.1210114"><ele>624.0</ele><time>2026-04-06T15:59:15.211Z</time></trkpt><trkpt lat="44.4131839" lon="8.1211096"><ele>624.0</ele><time>2026-04-06T15:59:16.211Z</time></trkpt><trkpt lat="44.4130415" lon="8.1212196"><ele>624.0</ele><time>2026-04-06T15:59:17.211Z</time></trkpt><trkpt lat="44.4129045" lon="8.1213414"><ele>624.3333333333334</ele><time>2026-04-06T15:59:18.211Z</time></trkpt><trkpt lat="44.4127786" lon="8.1214737"><ele>624.6666666666667</ele><time>2026-04-06T15:59:19.211Z</time></trkpt><trkpt lat="44.4126682" lon="8.1216228"><ele>625.0</ele><time>2026-04-06T15:59:20.211Z</time></trkpt><trkpt lat="44.412579" lon="8.1217773"><ele>625.0</ele><time>2026-04-06T15:59:21.211Z</time></trkpt><trkpt lat="44.4124936" lon="8.1219188"><ele>625.0</ele><time>2026-04-06T15:59:22.211Z</time></trkpt><trkpt lat="44.4123953" lon="8.1220291"><ele>625.0</ele><time>2026-04-06T15:59:23.211Z</time></trkpt><trkpt lat="44.4122836" lon="8.1220876"><ele>625.0</ele><time>2026-04-06T15:59:24.211Z</time></trkpt><trkpt lat="44.4121568" lon="8.1221267"><ele>625.25</ele><time>2026-04-06T15:59:25.211Z</time></trkpt><trkpt lat="44.4120165" lon="8.1221674"><ele>625.5</ele><time>2026-04-06T15:59:26.211Z</time></trkpt><trkpt lat="44.4118753" lon="8.1222151"><ele>625.75</ele><time>2026-04-06T15:59:27.211Z</time></trkpt><trkpt lat="44.4117209" lon="8.1222522"><ele>626.0</ele><time>2026-04-06T15:59:28.211Z</time></trkpt><trkpt lat="44.4115638" lon="8.1222736"><ele>626.0</ele><time>2026-04-06T15:59:29.211Z</time></trkpt><trkpt lat="44.4113981" lon="8.1222894"><ele>626.0</ele><time>2026-04-06T15:59:30.211Z</time></trkpt><trkpt lat="44.4112321" lon="8.1223109"><ele>626.0</ele><time>2026-04-06T15:59:31.211Z</time></trkpt><trkpt lat="44.4110774" lon="8.1223434"><ele>626.0</ele><time>2026-04-06T15:59:32.211Z</time></trkpt><trkpt lat="44.4109454" lon="8.1223806"><ele>626.0</ele><time>2026-04-06T15:59:33.211Z</time></trkpt><trkpt lat="44.4108268" lon="8.1224175"><ele>626.0</ele><time>2026-04-06T15:59:34.211Z</time></trkpt><trkpt lat="44.4107287" lon="8.1224499"><ele>626.0</ele><time>2026-04-06T15:59:35.211Z</time></trkpt><trkpt lat="44.4106501" lon="8.1224933"><ele>626.0</ele><time>2026-04-06T15:59:36.211Z</time></trkpt><trkpt lat="44.4105857" lon="8.1225469"><ele>626.4</ele><time>2026-04-06T15:59:37.211Z</time></trkpt><trkpt lat="44.4105171" lon="8.1226244"><ele>626.8</ele><time>2026-04-06T15:59:38.211Z</time></trkpt><trkpt lat="44.410446" lon="8.1227186"><ele>627.1999999999999</ele><time>2026-04-06T15:59:39.211Z</time></trkpt><trkpt lat="44.4103802" lon="8.1228283"><ele>627.6</ele><time>2026-04-06T15:59:40.211Z</time></trkpt><trkpt lat="44.410325" lon="8.1229523"><ele>628.0</ele><time>2026-04-06T15:59:41.211Z</time></trkpt><trkpt lat="44.4102762" lon="8.1231247"><ele>629.6666666666667</ele><time>2026-04-06T15:59:42.211Z</time></trkpt><trkpt lat="44.4102294" lon="8.1233349"><ele>631.3333333333334</ele><time>2026-04-06T15:59:43.211Z</time></trkpt><trkpt lat="44.4101861" lon="8.1235453"><ele>633.0</ele><time>2026-04-06T15:59:44.211Z</time></trkpt><trkpt lat="44.4101422" lon="8.1237698"><ele>633.0</ele><time>2026-04-06T15:59:45.211Z</time></trkpt><trkpt lat="44.4100875" lon="8.1239772"><ele>633.0</ele><time>2026-04-06T15:59:46.211Z</time></trkpt><trkpt lat="44.4100184" lon="8.1241617"><ele>633.0</ele><time>2026-04-06T15:59:47.211Z</time></trkpt><trkpt lat="44.4099489" lon="8.1243259"><ele>633.0</ele><time>2026-04-06T15:59:48.211Z</time></trkpt><trkpt lat="44.4098636" lon="8.124466"><ele>633.0</ele><time>2026-04-06T15:59:49.211Z</time></trkpt><trkpt lat="44.4097492" lon="8.124568"><ele>633.0</ele><time>2026-04-06T15:59:50.211Z</time></trkpt><trkpt lat="44.4096323" lon="8.1246785"><ele>633.0</ele><time>2026-04-06T15:59:51.211Z</time></trkpt><trkpt lat="44.4095139" lon="8.1247901"><ele>633.0</ele><time>2026-04-06T15:59:52.211Z</time></trkpt><trkpt lat="44.4094038" lon="8.1249363"><ele>632.3333333333334</ele><time>2026-04-06T15:59:53.211Z</time></trkpt><trkpt lat="44.4093029" lon="8.1251038"><ele>631.6666666666667</ele><time>2026-04-06T15:59:54.211Z</time></trkpt><trkpt lat="44.4092029" lon="8.1252928"><ele>631.0</ele><time>2026-04-06T15:59:55.211Z</time></trkpt><trkpt lat="44.4091012" lon="8.1254891"><ele>631.0</ele><time>2026-04-06T15:59:56.211Z</time></trkpt><trkpt lat="44.4089934" lon="8.1256961"><ele>631.0</ele><time>2026-04-06T15:59:57.211Z</time></trkpt><trkpt lat="44.4088857" lon="8.1258944"><ele>631.0</ele><time>2026-04-06T15:59:58.211Z</time></trkpt><trkpt lat="44.4087867" lon="8.126069"><ele>630.5</ele><time>2026-04-06T15:59:59.212Z</time></trkpt><trkpt lat="44.4086922" lon="8.1262374"><ele>630.0</ele><time>2026-04-06T16:00:00.211Z</time></trkpt><trkpt lat="44.4085973" lon="8.1263886"><ele>629.5</ele><time>2026-04-06T16:00:01.211Z</time></trkpt><trkpt lat="44.4085114" lon="8.1265205"><ele>629.0</ele><time>2026-04-06T16:00:02.211Z</time></trkpt><trkpt lat="44.408431" lon="8.126642"><ele>629.0</ele><time>2026-04-06T16:00:03.211Z</time></trkpt><trkpt lat="44.4083613" lon="8.1267611"><ele>629.0</ele><time>2026-04-06T16:00:04.211Z</time></trkpt><trkpt lat="44.4083046" lon="8.1268757"><ele>629.0</ele><time>2026-04-06T16:00:05.211Z</time></trkpt><trkpt lat="44.4082523" lon="8.1269818"><ele>629.0</ele><time>2026-04-06T16:00:06.211Z</time></trkpt><trkpt lat="44.4082127" lon="8.1270821"><ele>629.0</ele><time>2026-04-06T16:00:07.211Z</time></trkpt><trkpt lat="44.408175" lon="8.1271666"><ele>629.0</ele><time>2026-04-06T16:00:08.211Z</time></trkpt><trkpt lat="44.4081459" lon="8.1272508"><ele>629.0</ele><time>2026-04-06T16:00:09.211Z</time></trkpt><trkpt lat="44.408122" lon="8.1273365"><ele>629.0</ele><time>2026-04-06T16:00:10.211Z</time></trkpt><trkpt lat="44.4080981" lon="8.1274238"><ele>629.0</ele><time>2026-04-06T16:00:11.211Z</time></trkpt><trkpt lat="44.4080708" lon="8.1275197"><ele>629.0</ele><time>2026-04-06T16:00:12.211Z</time></trkpt><trkpt lat="44.4080423" lon="8.1276303"><ele>629.0</ele><time>2026-04-06T16:00:13.211Z</time></trkpt><trkpt lat="44.4080184" lon="8.1277571"><ele>629.5</ele><time>2026-04-06T16:00:14.211Z</time></trkpt><trkpt lat="44.408029" lon="8.1278949"><ele>630.0</ele><time>2026-04-06T16:00:15.211Z</time></trkpt><trkpt lat="44.4080625" lon="8.1280416"><ele>630.5</ele><time>2026-04-06T16:00:16.211Z</time></trkpt><trkpt lat="44.4081042" lon="8.128196"><ele>631.0</ele><time>2026-04-06T16:00:17.211Z</time></trkpt><trkpt lat="44.40815" lon="8.1283624"><ele>631.0</ele><time>2026-04-06T16:00:18.211Z</time></trkpt><trkpt lat="44.4081848" lon="8.1285184"><ele>631.0</ele><time>2026-04-06T16:00:19.211Z</time></trkpt><trkpt lat="44.4082202" lon="8.1286644"><ele>631.0</ele><time>2026-04-06T16:00:20.211Z</time></trkpt><trkpt lat="44.408257" lon="8.1287969"><ele>631.0</ele><time>2026-04-06T16:00:21.211Z</time></trkpt><trkpt lat="44.4082981" lon="8.1289062"><ele>631.0</ele><time>2026-04-06T16:00:22.211Z</time></trkpt><trkpt lat="44.4083254" lon="8.129004"><ele>631.8333333333334</ele><time>2026-04-06T16:00:23.211Z</time></trkpt><trkpt lat="44.4083487" lon="8.1290917"><ele>632.6666666666667</ele><time>2026-04-06T16:00:24.211Z</time></trkpt><trkpt lat="44.4083733" lon="8.1292218"><ele>633.5</ele><time>2026-04-06T16:00:26.211Z</time></trkpt><trkpt lat="44.4083096" lon="8.1293127"><ele>634.3333333333334</ele><time>2026-04-06T16:00:28.211Z</time></trkpt><trkpt lat="44.4082437" lon="8.1293052"><ele>635.1666666666666</ele><time>2026-04-06T16:00:29.211Z</time></trkpt><trkpt lat="44.408139" lon="8.1292865"><ele>636.0</ele><time>2026-04-06T16:00:30.211Z</time></trkpt><trkpt lat="44.4080205" lon="8.1292738"><ele>634.75</ele><time>2026-04-06T16:00:31.211Z</time></trkpt><trkpt lat="44.407878" lon="8.1292502"><ele>633.5</ele><time>2026-04-06T16:00:32.211Z</time></trkpt><trkpt lat="44.4077308" lon="8.1292224"><ele>632.25</ele><time>2026-04-06T16:00:33.211Z</time></trkpt><trkpt lat="44.4075747" lon="8.129207"><ele>631.0</ele><time>2026-04-06T16:00:34.211Z</time></trkpt><trkpt lat="44.4074132" lon="8.129181"><ele>631.0</ele><time>2026-04-06T16:00:35.211Z</time></trkpt><trkpt lat="44.4072554" lon="8.1291595"><ele>631.0</ele><time>2026-04-06T16:00:36.211Z</time></trkpt><trkpt lat="44.4070938" lon="8.1291341"><ele>631.0</ele><time>2026-04-06T16:00:37.211Z</time></trkpt><trkpt lat="44.4069325" lon="8.1291067"><ele>631.0</ele><time>2026-04-06T16:00:38.211Z</time></trkpt><trkpt lat="44.4067741" lon="8.1290755"><ele>631.0</ele><time>2026-04-06T16:00:39.211Z</time></trkpt><trkpt lat="44.4066286" lon="8.1290449"><ele>631.0</ele><time>2026-04-06T16:00:40.211Z</time></trkpt><trkpt lat="44.4064953" lon="8.1290212"><ele>631.0</ele><time>2026-04-06T16:00:41.211Z</time></trkpt><trkpt lat="44.4063607" lon="8.1289906"><ele>630.5</ele><time>2026-04-06T16:00:42.211Z</time></trkpt><trkpt lat="44.406243" lon="8.1289649"><ele>630.0</ele><time>2026-04-06T16:00:43.211Z</time></trkpt><trkpt lat="44.406129" lon="8.1289435"><ele>629.5</ele><time>2026-04-06T16:00:44.211Z</time></trkpt><trkpt lat="44.4060203" lon="8.1289309"><ele>629.0</ele><time>2026-04-06T16:00:45.211Z</time></trkpt><trkpt lat="44.4059055" lon="8.1289319"><ele>629.0</ele><time>2026-04-06T16:00:46.212Z</time></trkpt><trkpt lat="44.4057875" lon="8.1289655"><ele>629.0</ele><time>2026-04-06T16:00:47.211Z</time></trkpt><trkpt lat="44.4056664" lon="8.1290224"><ele>629.0</ele><time>2026-04-06T16:00:48.211Z</time></trkpt><trkpt lat="44.4055457" lon="8.1290963"><ele>629.0</ele><time>2026-04-06T16:00:49.211Z</time></trkpt><trkpt lat="44.4054272" lon="8.1291773"><ele>629.5</ele><time>2026-04-06T16:00:50.211Z</time></trkpt><trkpt lat="44.4053136" lon="8.1292323"><ele>630.0</ele><time>2026-04-06T16:00:51.212Z</time></trkpt><trkpt lat="44.4052023" lon="8.1292842"><ele>630.5</ele><time>2026-04-06T16:00:52.211Z</time></trkpt><trkpt lat="44.4050764" lon="8.1293273"><ele>631.0</ele><time>2026-04-06T16:00:53.211Z</time></trkpt><trkpt lat="44.4049559" lon="8.1293574"><ele>631.0</ele><time>2026-04-06T16:00:54.211Z</time></trkpt><trkpt lat="44.4048427" lon="8.1293732"><ele>631.0</ele><time>2026-04-06T16:00:55.211Z</time></trkpt><trkpt lat="44.4047389" lon="8.1293864"><ele>631.0</ele><time>2026-04-06T16:00:56.211Z</time></trkpt><trkpt lat="44.4046368" lon="8.1293864"><ele>631.0</ele><time>2026-04-06T16:00:57.211Z</time></trkpt><trkpt lat="44.4045413" lon="8.1294042"><ele>631.0</ele><time>2026-04-06T16:00:58.211Z</time></trkpt><trkpt lat="44.4044645" lon="8.1294359"><ele>631.5</ele><time>2026-04-06T16:00:59.211Z</time></trkpt><trkpt lat="44.4043987" lon="8.1294895"><ele>632.0</ele><time>2026-04-06T16:01:00.211Z</time></trkpt><trkpt lat="44.4043556" lon="8.1295743"><ele>632.5</ele><time>2026-04-06T16:01:01.211Z</time></trkpt><trkpt lat="44.4043281" lon="8.1296609"><ele>633.0</ele><time>2026-04-06T16:01:02.211Z</time></trkpt><trkpt lat="44.4043158" lon="8.1297696"><ele>633.5</ele><time>2026-04-06T16:01:03.211Z</time></trkpt><trkpt lat="44.4043128" lon="8.1298914"><ele>634.0</ele><time>2026-04-06T16:01:04.211Z</time></trkpt><trkpt lat="44.4043212" lon="8.1300358"><ele>635.75</ele><time>2026-04-06T16:01:05.211Z</time></trkpt><trkpt lat="44.4043311" lon="8.1301917"><ele>637.5</ele><time>2026-04-06T16:01:06.211Z</time></trkpt><trkpt lat="44.4043572" lon="8.1303659"><ele>639.25</ele><time>2026-04-06T16:01:07.211Z</time></trkpt><trkpt lat="44.4043939" lon="8.1305342"><ele>641.0</ele><time>2026-04-06T16:01:08.211Z</time></trkpt><trkpt lat="44.4044224" lon="8.1306941"><ele>641.1666666666666</ele><time>2026-04-06T16:01:09.211Z</time></trkpt><trkpt lat="44.4044463" lon="8.1308242"><ele>641.3333333333333</ele><time>2026-04-06T16:01:10.211Z</time></trkpt><trkpt lat="44.4044575" lon="8.1309497"><ele>641.5</ele><time>2026-04-06T16:01:11.211Z</time></trkpt><trkpt lat="44.4044573" lon="8.1310557"><ele>641.6666666666666</ele><time>2026-04-06T16:01:12.211Z</time></trkpt><trkpt lat="44.4044649" lon="8.1311483"><ele>641.8333333333334</ele><time>2026-04-06T16:01:13.211Z</time></trkpt><trkpt lat="44.404476" lon="8.1312867"><ele>642.0</ele><time>2026-04-06T16:01:15.211Z</time></trkpt><trkpt lat="44.4044535" lon="8.1313757"><ele>642.0</ele><time>2026-04-06T16:01:17.211Z</time></trkpt><trkpt lat="44.404357" lon="8.1313551"><ele>642.0</ele><time>2026-04-06T16:01:20.211Z</time></trkpt><trkpt lat="44.4043173" lon="8.1312421"><ele>642.0</ele><time>2026-04-06T16:01:22.211Z</time></trkpt><trkpt lat="44.4043249" lon="8.1310613"><ele>642.0</ele><time>2026-04-06T16:01:24.211Z</time></trkpt><trkpt lat="44.4043388" lon="8.1309713"><ele>642.0</ele><time>2026-04-06T16:01:25.211Z</time></trkpt><trkpt lat="44.4043766" lon="8.1308472"><ele>642.0</ele><time>2026-04-06T16:01:27.211Z</time></trkpt><trkpt lat="44.404418" lon="8.1307554"><ele>642.0</ele><time>2026-04-06T16:01:29.211Z</time></trkpt><trkpt lat="44.4044118" lon="8.1306038"><ele>642.0</ele><time>2026-04-06T16:01:31.211Z</time></trkpt><trkpt lat="44.4043967" lon="8.1304731"><ele>642.0</ele><time>2026-04-06T16:01:32.211Z</time></trkpt><trkpt lat="44.4043769" lon="8.1303349"><ele>642.0</ele><time>2026-04-06T16:01:33.211Z</time></trkpt><trkpt lat="44.4043688" lon="8.1302098"><ele>641.8333333333334</ele><time>2026-04-06T16:01:34.211Z</time></trkpt><trkpt lat="44.4043658" lon="8.1300943"><ele>641.6666666666666</ele><time>2026-04-06T16:01:35.211Z</time></trkpt><trkpt lat="44.4043678" lon="8.1299903"><ele>641.5</ele><time>2026-04-06T16:01:36.211Z</time></trkpt><trkpt lat="44.4043731" lon="8.1298874"><ele>641.3333333333333</ele><time>2026-04-06T16:01:37.211Z</time></trkpt><trkpt lat="44.4043839" lon="8.1297923"><ele>641.1666666666666</ele><time>2026-04-06T16:01:38.211Z</time></trkpt><trkpt lat="44.4043927" lon="8.1296986"><ele>641.0</ele><time>2026-04-06T16:01:39.211Z</time></trkpt><trkpt lat="44.4043582" lon="8.1294884"><ele>639.5999999999999</ele><time>2026-04-06T16:01:40.211Z</time></trkpt><trkpt lat="44.404361" lon="8.1293578"><ele>638.1999999999999</ele><time>2026-04-06T16:01:41.211Z</time></trkpt><trkpt lat="44.4043665" lon="8.1292484"><ele>636.8</ele><time>2026-04-06T16:01:42.211Z</time></trkpt><trkpt lat="44.4043487" lon="8.1291348"><ele>635.4</ele><time>2026-04-06T16:01:44.211Z</time></trkpt><trkpt lat="44.4042517" lon="8.1291106"><ele>634.0</ele><time>2026-04-06T16:01:46.211Z</time></trkpt><trkpt lat="44.4041575" lon="8.1291423"><ele>634.0</ele><time>2026-04-06T16:01:48.211Z</time></trkpt><trkpt lat="44.4040651" lon="8.1292234"><ele>634.0</ele><time>2026-04-06T16:01:50.211Z</time></trkpt><trkpt lat="44.4039602" lon="8.1292561"><ele>634.0</ele><time>2026-04-06T16:01:52.211Z</time></trkpt><trkpt lat="44.4038403" lon="8.1292708"><ele>634.0</ele><time>2026-04-06T16:01:54.211Z</time></trkpt><trkpt lat="44.4037188" lon="8.1292898"><ele>635.4</ele><time>2026-04-06T16:01:56.211Z</time></trkpt><trkpt lat="44.4036073" lon="8.1293054"><ele>636.8</ele><time>2026-04-06T16:01:58.212Z</time></trkpt><trkpt lat="44.4034975" lon="8.1293267"><ele>638.1999999999999</ele><time>2026-04-06T16:02:00.211Z</time></trkpt><trkpt lat="44.4033978" lon="8.1293638"><ele>639.5999999999999</ele><time>2026-04-06T16:02:02.211Z</time></trkpt><trkpt lat="44.403298" lon="8.1293817"><ele>641.0</ele><time>2026-04-06T16:02:04.211Z</time></trkpt><trkpt lat="44.4031708" lon="8.1293595"><ele>641.0</ele><time>2026-04-06T16:02:06.211Z</time></trkpt><trkpt lat="44.4031026" lon="8.1293426"><ele>641.0</ele><time>2026-04-06T16:02:07.211Z</time></trkpt><trkpt lat="44.4030398" lon="8.1293257"><ele>641.0</ele><time>2026-04-06T16:02:08.211Z</time></trkpt><trkpt lat="44.4029255" lon="8.1293209"><ele>641.0</ele><time>2026-04-06T16:02:10.211Z</time></trkpt><trkpt lat="44.4028586" lon="8.1293203"><ele>641.0</ele><time>2026-04-06T16:02:11.211Z</time></trkpt><trkpt lat="44.4027861" lon="8.1293257"><ele>641.0</ele><time>2026-04-06T16:02:12.211Z</time></trkpt><trkpt lat="44.4027025" lon="8.1293385"><ele>642.5</ele><time>2026-04-06T16:02:13.211Z</time></trkpt><trkpt lat="44.402613" lon="8.1293547"><ele>644.0</ele><time>2026-04-06T16:02:14.211Z</time></trkpt><trkpt lat="44.4025193" lon="8.129371"><ele>645.5</ele><time>2026-04-06T16:02:15.211Z</time></trkpt><trkpt lat="44.4024281" lon="8.1293849"><ele>647.0</ele><time>2026-04-06T16:02:16.211Z</time></trkpt><trkpt lat="44.4023439" lon="8.1293946"><ele>648.5</ele><time>2026-04-06T16:02:17.211Z</time></trkpt><trkpt lat="44.402262" lon="8.1294046"><ele>650.0</ele><time>2026-04-06T16:02:18.211Z</time></trkpt><trkpt lat="44.4021832" lon="8.1294197"><ele>651.2</ele><time>2026-04-06T16:02:19.211Z</time></trkpt><trkpt lat="44.4021011" lon="8.1294196"><ele>652.4</ele><time>2026-04-06T16:02:20.211Z</time></trkpt><trkpt lat="44.4019854" lon="8.1294346"><ele>653.5999999999999</ele><time>2026-04-06T16:02:22.211Z</time></trkpt><trkpt lat="44.4018748" lon="8.1294863"><ele>654.8</ele><time>2026-04-06T16:02:24.211Z</time></trkpt><trkpt lat="44.4017994" lon="8.1296186"><ele>656.0</ele><time>2026-04-06T16:02:26.211Z</time></trkpt><trkpt lat="44.4017643" lon="8.1297523"><ele>656.0</ele><time>2026-04-06T16:02:28.211Z</time></trkpt><trkpt lat="44.4016953" lon="8.1298545"><ele>656.0</ele><time>2026-04-06T16:02:31.211Z</time></trkpt><trkpt lat="44.401609" lon="8.1299358"><ele>656.0</ele><time>2026-04-06T16:02:33.211Z</time></trkpt><trkpt lat="44.4015531" lon="8.1299918"><ele>656.0</ele><time>2026-04-06T16:02:34.211Z</time></trkpt><trkpt lat="44.4015027" lon="8.1300601"><ele>656.0</ele><time>2026-04-06T16:02:35.212Z</time></trkpt><trkpt lat="44.4014102" lon="8.1301792"><ele>656.25</ele><time>2026-04-06T16:02:37.211Z</time></trkpt><trkpt lat="44.4013104" lon="8.1302763"><ele>656.5</ele><time>2026-04-06T16:02:39.211Z</time></trkpt><trkpt lat="44.4012087" lon="8.1303302"><ele>656.75</ele><time>2026-04-06T16:02:41.211Z</time></trkpt><trkpt lat="44.4010952" lon="8.1303628"><ele>657.0</ele><time>2026-04-06T16:02:43.211Z</time></trkpt><trkpt lat="44.4009663" lon="8.1303953"><ele>657.0</ele><time>2026-04-06T16:02:45.211Z</time></trkpt><trkpt lat="44.4008911" lon="8.1304079"><ele>657.0</ele><time>2026-04-06T16:02:46.211Z</time></trkpt><trkpt lat="44.400822" lon="8.1304193"><ele>657.0</ele><time>2026-04-06T16:02:47.212Z</time></trkpt><trkpt lat="44.4007562" lon="8.1304395"><ele>657.0</ele><time>2026-04-06T16:02:48.211Z</time></trkpt><trkpt lat="44.4006947" lon="8.1304592"><ele>657.0</ele><time>2026-04-06T16:02:49.211Z</time></trkpt><trkpt lat="44.4005821" lon="8.1305056"><ele>657.0</ele><time>2026-04-06T16:02:51.211Z</time></trkpt><trkpt lat="44.4005205" lon="8.1305346"><ele>656.8333333333334</ele><time>2026-04-06T16:02:52.211Z</time></trkpt><trkpt lat="44.4004549" lon="8.1305713"><ele>656.6666666666666</ele><time>2026-04-06T16:02:53.211Z</time></trkpt><trkpt lat="44.4003852" lon="8.1306249"><ele>656.5</ele><time>2026-04-06T16:02:54.211Z</time></trkpt><trkpt lat="44.4003192" lon="8.1306658"><ele>656.3333333333333</ele><time>2026-04-06T16:02:55.211Z</time></trkpt><trkpt lat="44.4002607" lon="8.1307036"><ele>656.1666666666666</ele><time>2026-04-06T16:02:56.211Z</time></trkpt><trkpt lat="44.4001571" lon="8.1307777"><ele>656.0</ele><time>2026-04-06T16:02:58.211Z</time></trkpt><trkpt lat="44.4000978" lon="8.1308148"><ele>655.9999999999999</ele><time>2026-04-06T16:02:59.211Z</time></trkpt><trkpt lat="44.4000415" lon="8.130861"><ele>656.0</ele><time>2026-04-06T16:03:00.211Z</time></trkpt><trkpt lat="44.3999777" lon="8.1309096"><ele>656.0</ele><time>2026-04-06T16:03:01.211Z</time></trkpt><trkpt lat="44.3999129" lon="8.1309572"><ele>656.0</ele><time>2026-04-06T16:03:02.211Z</time></trkpt><trkpt lat="44.3998412" lon="8.1310077"><ele>656.0</ele><time>2026-04-06T16:03:03.211Z</time></trkpt><trkpt lat="44.3997795" lon="8.1310594"><ele>655.9999999999999</ele><time>2026-04-06T16:03:04.211Z</time></trkpt><trkpt lat="44.3997176" lon="8.131111"><ele>656.0</ele><time>2026-04-06T16:03:05.211Z</time></trkpt><trkpt lat="44.3996532" lon="8.1311512"><ele>656.0</ele><time>2026-04-06T16:03:06.211Z</time></trkpt><trkpt lat="44.3995407" lon="8.1312067"><ele>656.0</ele><time>2026-04-06T16:03:08.211Z</time></trkpt><trkpt lat="44.3994449" lon="8.1312618"><ele>656.0</ele><time>2026-04-06T16:03:10.211Z</time></trkpt><trkpt lat="44.3993685" lon="8.1313157"><ele>656.0</ele><time>2026-04-06T16:03:12.211Z</time></trkpt><trkpt lat="44.3993361" lon="8.1313932"><ele>656.0</ele><time>2026-04-06T16:03:19.211Z</time></trkpt><trkpt lat="44.3993021" lon="8.1315148"><ele>655.5</ele><time>2026-04-06T16:03:30.211Z</time></trkpt><trkpt lat="44.3992796" lon="8.1316423"><ele>655.0</ele><time>2026-04-06T16:03:54.211Z</time></trkpt><trkpt lat="44.399278" lon="8.131761"><ele>654.5</ele><time>2026-04-06T16:04:01.211Z</time></trkpt><trkpt lat="44.3992205" lon="8.1318614"><ele>654.0</ele><time>2026-04-06T16:04:03.211Z</time></trkpt><trkpt lat="44.3991814" lon="8.1319333"><ele>653.5</ele><time>2026-04-06T16:04:05.211Z</time></trkpt><trkpt lat="44.3991402" lon="8.1320169"><ele>653.0</ele><time>2026-04-06T16:04:07.211Z</time></trkpt><trkpt lat="44.3990887" lon="8.1320974"><ele>653.0</ele><time>2026-04-06T16:04:10.211Z</time></trkpt><trkpt lat="44.3990025" lon="8.1321587"><ele>653.0</ele><time>2026-04-06T16:04:19.211Z</time></trkpt><trkpt lat="44.3989252" lon="8.1321605"><ele>653.0</ele><time>2026-04-06T16:05:16.211Z</time></trkpt><trkpt lat="44.3988538" lon="8.132179"><ele>653.0</ele><time>2026-04-06T16:05:20.211Z</time></trkpt><trkpt lat="44.3987906" lon="8.1322419"><ele>653.0</ele><time>2026-04-06T16:05:26.211Z</time></trkpt><trkpt lat="44.3987271" lon="8.1322807"><ele>653.0</ele><time>2026-04-06T16:05:29.211Z</time></trkpt><trkpt lat="44.3986642" lon="8.1323341"><ele>652.1666666666666</ele><time>2026-04-06T16:05:31.211Z</time></trkpt><trkpt lat="44.3985713" lon="8.1324038"><ele>651.3333333333333</ele><time>2026-04-06T16:05:33.211Z</time></trkpt><trkpt lat="44.3985035" lon="8.1324574"><ele>650.5</ele><time>2026-04-06T16:05:35.211Z</time></trkpt><trkpt lat="44.3984404" lon="8.1324854"><ele>649.6666666666666</ele><time>2026-04-06T16:05:37.212Z</time></trkpt><trkpt lat="44.398369" lon="8.1325089"><ele>648.8333333333334</ele><time>2026-04-06T16:05:39.211Z</time></trkpt><trkpt lat="44.3982914" lon="8.1325214"><ele>648.0</ele><time>2026-04-06T16:05:41.211Z</time></trkpt><trkpt lat="44.3982314" lon="8.1324856"><ele>648.0</ele><time>2026-04-06T16:06:04.211Z</time></trkpt><trkpt lat="44.3981988" lon="8.132584"><ele>648.0</ele><time>2026-04-06T16:06:13.211Z</time></trkpt><trkpt lat="44.3981469" lon="8.1326771"><ele>648.0</ele><time>2026-04-06T16:06:15.211Z</time></trkpt><trkpt lat="44.3980885" lon="8.1327816"><ele>648.0</ele><time>2026-04-06T16:06:17.211Z</time></trkpt><trkpt lat="44.3980478" lon="8.1328946"><ele>648.0</ele><time>2026-04-06T16:06:19.211Z</time></trkpt><trkpt lat="44.3980257" lon="8.1330227"><ele>648.0</ele><time>2026-04-06T16:06:21.211Z</time></trkpt><trkpt lat="44.3979905" lon="8.1331447"><ele>647.6666666666666</ele><time>2026-04-06T16:06:23.211Z</time></trkpt><trkpt lat="44.3979574" lon="8.1332654"><ele>647.3333333333334</ele><time>2026-04-06T16:06:25.211Z</time></trkpt><trkpt lat="44.3979307" lon="8.133366"><ele>647.0</ele><time>2026-04-06T16:06:27.211Z</time></trkpt><trkpt lat="44.3978984" lon="8.1334417"><ele>646.6666666666667</ele><time>2026-04-06T16:06:28.211Z</time></trkpt><trkpt lat="44.3978511" lon="8.1335317"><ele>646.3333333333334</ele><time>2026-04-06T16:06:29.211Z</time></trkpt><trkpt lat="44.3978078" lon="8.1336322"><ele>646.0</ele><time>2026-04-06T16:06:31.211Z</time></trkpt><trkpt lat="44.3977685" lon="8.1337328"><ele>646.0000000000001</ele><time>2026-04-06T16:06:34.211Z</time></trkpt><trkpt lat="44.3977237" lon="8.1338027"><ele>646.0</ele><time>2026-04-06T16:06:38.211Z</time></trkpt><trkpt lat="44.3977082" lon="8.133949"><ele>646.0</ele><time>2026-04-06T16:08:03.211Z</time></trkpt><trkpt lat="44.3977005" lon="8.1340412"><ele>646.0</ele><time>2026-04-06T16:08:07.211Z</time></trkpt><trkpt lat="44.3976914" lon="8.1341345"><ele>646.0</ele><time>2026-04-06T16:08:10.211Z</time></trkpt><trkpt lat="44.3976348" lon="8.134194"><ele>646.0000000000001</ele><time>2026-04-06T16:08:13.212Z</time></trkpt><trkpt lat="44.3976198" lon="8.1342799"><ele>646.0</ele><time>2026-04-06T16:08:46.211Z</time></trkpt><trkpt lat="44.3975635" lon="8.134348"><ele>646.6666666666667</ele><time>2026-04-06T16:09:25.211Z</time></trkpt><trkpt lat="44.3974902" lon="8.1343852"><ele>647.3333333333334</ele><time>2026-04-06T16:09:30.211Z</time></trkpt><trkpt lat="44.3974294" lon="8.1344506"><ele>648.0</ele><time>2026-04-06T16:09:35.211Z</time></trkpt><trkpt lat="44.3973904" lon="8.134552"><ele>648.6666666666666</ele><time>2026-04-06T16:09:38.211Z</time></trkpt><trkpt lat="44.3973008" lon="8.1346273"><ele>649.3333333333333</ele><time>2026-04-06T16:09:41.211Z</time></trkpt><trkpt lat="44.3972264" lon="8.1346969"><ele>650.0</ele><time>2026-04-06T16:09:43.211Z</time></trkpt><trkpt lat="44.397171" lon="8.1347637"><ele>650.8333333333333</ele><time>2026-04-06T16:09:45.211Z</time></trkpt><trkpt lat="44.3971216" lon="8.1348457"><ele>651.6666666666666</ele><time>2026-04-06T16:09:47.211Z</time></trkpt><trkpt lat="44.3970786" lon="8.1349436"><ele>652.5</ele><time>2026-04-06T16:09:49.211Z</time></trkpt><trkpt lat="44.3970398" lon="8.1350359"><ele>653.3333333333334</ele><time>2026-04-06T16:09:52.211Z</time></trkpt><trkpt lat="44.3970347" lon="8.1351454"><ele>654.1666666666667</ele><time>2026-04-06T16:10:24.211Z</time></trkpt><trkpt lat="44.3969795" lon="8.1351887"><ele>655.0</ele><time>2026-04-06T16:13:24.211Z</time></trkpt><trkpt lat="44.3969348" lon="8.1352776"><ele>656.3333333333334</ele><time>2026-04-06T16:14:21.211Z</time></trkpt><trkpt lat="44.3968637" lon="8.1353784"><ele>657.6666666666667</ele><time>2026-04-06T16:14:23.211Z</time></trkpt><trkpt lat="44.3968115" lon="8.1354503"><ele>659.0</ele><time>2026-04-06T16:14:25.211Z</time></trkpt><trkpt lat="44.3967732" lon="8.1355315"><ele>660.3333333333334</ele><time>2026-04-06T16:14:27.211Z</time></trkpt><trkpt lat="44.3967372" lon="8.1356468"><ele>661.6666666666666</ele><time>2026-04-06T16:14:29.211Z</time></trkpt><trkpt lat="44.3967149" lon="8.1357528"><ele>663.0</ele><time>2026-04-06T16:14:32.211Z</time></trkpt><trkpt lat="44.396645" lon="8.1358153"><ele>664.1666666666666</ele><time>2026-04-06T16:14:46.211Z</time></trkpt><trkpt lat="44.3965963" lon="8.1358746"><ele>665.3333333333334</ele><time>2026-04-06T16:14:49.211Z</time></trkpt><trkpt lat="44.3965494" lon="8.1359584"><ele>666.5</ele><time>2026-04-06T16:15:16.211Z</time></trkpt><trkpt lat="44.3964819" lon="8.1360611"><ele>667.6666666666667</ele><time>2026-04-06T16:15:19.211Z</time></trkpt><trkpt lat="44.3964291" lon="8.1361372"><ele>668.8333333333334</ele><time>2026-04-06T16:15:21.212Z</time></trkpt><trkpt lat="44.3963468" lon="8.1361913"><ele>670.0</ele><time>2026-04-06T16:15:23.211Z</time></trkpt><trkpt lat="44.3962817" lon="8.1362722"><ele>670.0</ele><time>2026-04-06T16:15:25.211Z</time></trkpt><trkpt lat="44.3962374" lon="8.1363383"><ele>670.0</ele><time>2026-04-06T16:15:29.211Z</time></trkpt><trkpt lat="44.3961828" lon="8.1364156"><ele>670.0</ele><time>2026-04-06T16:16:01.211Z</time></trkpt><trkpt lat="44.3961589" lon="8.1364981"><ele>670.0</ele><time>2026-04-06T16:16:03.211Z</time></trkpt><trkpt lat="44.3961718" lon="8.1365919"><ele>670.0</ele><time>2026-04-06T16:16:05.211Z</time></trkpt><trkpt lat="44.3962139" lon="8.1367188"><ele>670.0</ele><time>2026-04-06T16:16:07.211Z</time></trkpt><trkpt lat="44.396257" lon="8.1368605"><ele>670.3333333333334</ele><time>2026-04-06T16:16:09.211Z</time></trkpt><trkpt lat="44.3962922" lon="8.136977"><ele>670.6666666666667</ele><time>2026-04-06T16:16:11.211Z</time></trkpt><trkpt lat="44.3963293" lon="8.1370491"><ele>671.0</ele><time>2026-04-06T16:16:47.211Z</time></trkpt><trkpt lat="44.396385" lon="8.1371068"><ele>671.3333333333334</ele><time>2026-04-06T16:16:50.211Z</time></trkpt><trkpt lat="44.3963847" lon="8.1372076"><ele>671.6666666666666</ele><time>2026-04-06T16:16:54.211Z</time></trkpt><trkpt lat="44.3963247" lon="8.1372747"><ele>672.0</ele><time>2026-04-06T16:16:57.211Z</time></trkpt><trkpt lat="44.3963215" lon="8.1373934"><ele>671.0</ele><time>2026-04-06T16:17:01.211Z</time></trkpt><trkpt lat="44.3963033" lon="8.1374982"><ele>670.0</ele><time>2026-04-06T16:17:03.211Z</time></trkpt><trkpt lat="44.3962652" lon="8.137574"><ele>669.0</ele><time>2026-04-06T16:17:04.211Z</time></trkpt><trkpt lat="44.396217" lon="8.137682"><ele>668.0</ele><time>2026-04-06T16:17:06.211Z</time></trkpt><trkpt lat="44.3961692" lon="8.137773"><ele>667.0</ele><time>2026-04-06T16:17:08.211Z</time></trkpt><trkpt lat="44.3961157" lon="8.1378352"><ele>666.0</ele><time>2026-04-06T16:17:10.211Z</time></trkpt><trkpt lat="44.396064" lon="8.1378859"><ele>665.0</ele><time>2026-04-06T16:17:12.211Z</time></trkpt><trkpt lat="44.3960067" lon="8.1379409"><ele>665.0</ele><time>2026-04-06T16:17:14.211Z</time></trkpt><trkpt lat="44.3959486" lon="8.1380004"><ele>665.0</ele><time>2026-04-06T16:17:16.211Z</time></trkpt><trkpt lat="44.3958748" lon="8.1380138"><ele>665.0</ele><time>2026-04-06T16:17:19.211Z</time></trkpt><trkpt lat="44.3958172" lon="8.138079"><ele>665.0</ele><time>2026-04-06T16:17:22.211Z</time></trkpt><trkpt lat="44.3957866" lon="8.1381863"><ele>665.0</ele><time>2026-04-06T16:17:39.211Z</time></trkpt><trkpt lat="44.3957872" lon="8.1382946"><ele>665.0</ele><time>2026-04-06T16:17:42.211Z</time></trkpt><trkpt lat="44.3957823" lon="8.1384208"><ele>664.8333333333333</ele><time>2026-04-06T16:17:45.211Z</time></trkpt><trkpt lat="44.3957722" lon="8.1385319"><ele>664.6666666666666</ele><time>2026-04-06T16:17:48.211Z</time></trkpt><trkpt lat="44.3957652" lon="8.1386463"><ele>664.5</ele><time>2026-04-06T16:17:52.211Z</time></trkpt><trkpt lat="44.3957439" lon="8.1387561"><ele>664.3333333333334</ele><time>2026-04-06T16:17:56.211Z</time></trkpt><trkpt lat="44.3957008" lon="8.1388391"><ele>664.1666666666667</ele><time>2026-04-06T16:18:01.211Z</time></trkpt><trkpt lat="44.3956541" lon="8.1388994"><ele>664.0</ele><time>2026-04-06T16:18:06.211Z</time></trkpt><trkpt lat="44.3956129" lon="8.1389804"><ele>664.1666666666667</ele><time>2026-04-06T16:18:10.211Z</time></trkpt><trkpt lat="44.3955907" lon="8.1390773"><ele>664.3333333333334</ele><time>2026-04-06T16:18:13.211Z</time></trkpt><trkpt lat="44.3955345" lon="8.1391764"><ele>664.5</ele><time>2026-04-06T16:18:17.211Z</time></trkpt><trkpt lat="44.3954829" lon="8.1392449"><ele>664.6666666666666</ele><time>2026-04-06T16:18:30.211Z</time></trkpt><trkpt lat="44.3954563" lon="8.1393292"><ele>664.8333333333333</ele><time>2026-04-06T16:18:33.211Z</time></trkpt><trkpt lat="44.3954326" lon="8.1394477"><ele>665.0</ele><time>2026-04-06T16:18:36.211Z</time></trkpt><trkpt lat="44.3953887" lon="8.139528"><ele>663.1666666666666</ele><time>2026-04-06T16:18:39.211Z</time></trkpt><trkpt lat="44.3953164" lon="8.139609"><ele>661.3333333333333</ele><time>2026-04-06T16:18:42.211Z</time></trkpt><trkpt lat="44.395271" lon="8.1396922"><ele>659.5</ele><time>2026-04-06T16:18:44.211Z</time></trkpt><trkpt lat="44.3952219" lon="8.1398134"><ele>657.6666666666666</ele><time>2026-04-06T16:18:46.211Z</time></trkpt><trkpt lat="44.3951521" lon="8.1398942"><ele>655.8333333333334</ele><time>2026-04-06T16:18:48.211Z</time></trkpt><trkpt lat="44.3951053" lon="8.1399798"><ele>654.0</ele><time>2026-04-06T16:18:50.211Z</time></trkpt><trkpt lat="44.3950881" lon="8.1400876"><ele>654.0</ele><time>2026-04-06T16:18:53.211Z</time></trkpt><trkpt lat="44.3950552" lon="8.1401714"><ele>654.0</ele><time>2026-04-06T16:18:56.211Z</time></trkpt><trkpt lat="44.3950177" lon="8.14026"><ele>654.0</ele><time>2026-04-06T16:18:59.856Z</time></trkpt><trkpt lat="44.3949889" lon="8.1403693"><ele>654.0</ele><time>2026-04-06T16:19:02.097Z</time></trkpt><trkpt lat="44.3949144" lon="8.1405146"><ele>654.0</ele><time>2026-04-06T16:19:04.82Z</time></trkpt><trkpt lat="44.3948644" lon="8.1405906"><ele>654.0</ele><time>2026-04-06T16:19:06.165Z</time></trkpt><trkpt lat="44.3947975" lon="8.1406589"><ele>653.7142857142857</ele><time>2026-04-06T16:19:08.125Z</time></trkpt><trkpt lat="44.3947479" lon="8.1407367"><ele>653.4285714285714</ele><time>2026-04-06T16:19:10.142Z</time></trkpt><trkpt lat="44.3946918" lon="8.1407928"><ele>653.1428571428571</ele><time>2026-04-06T16:19:14.071Z</time></trkpt><trkpt lat="44.394757" lon="8.1408712"><ele>652.8571428571429</ele><time>2026-04-06T16:19:20.211Z</time></trkpt><trkpt lat="44.3947814" lon="8.1409571"><ele>652.5714285714286</ele><time>2026-04-06T16:19:38.211Z</time></trkpt><trkpt lat="44.3947178" lon="8.1409967"><ele>652.2857142857143</ele><time>2026-04-06T16:19:46.211Z</time></trkpt><trkpt lat="44.3946472" lon="8.1409939"><ele>652.0</ele><time>2026-04-06T16:19:51.211Z</time></trkpt><trkpt lat="44.3945885" lon="8.141034"><ele>652.0</ele><time>2026-04-06T16:20:02.211Z</time></trkpt><trkpt lat="44.3945116" lon="8.1410921"><ele>652.0</ele><time>2026-04-06T16:20:05.211Z</time></trkpt><trkpt lat="44.3944574" lon="8.141182"><ele>652.0</ele><time>2026-04-06T16:20:08.211Z</time></trkpt><trkpt lat="44.3944147" lon="8.1412791"><ele>652.0</ele><time>2026-04-06T16:20:17.211Z</time></trkpt><trkpt lat="44.3943449" lon="8.1413446"><ele>652.0</ele><time>2026-04-06T16:20:20.211Z</time></trkpt><trkpt lat="44.3943003" lon="8.1414225"><ele>652.0</ele><time>2026-04-06T16:20:22.211Z</time></trkpt><trkpt lat="44.3942402" lon="8.141517"><ele>652.0</ele><time>2026-04-06T16:20:25.211Z</time></trkpt><trkpt lat="44.3941767" lon="8.1415387"><ele>652.0</ele><time>2026-04-06T16:20:28.211Z</time></trkpt><trkpt lat="44.3941153" lon="8.141498"><ele>652.0</ele><time>2026-04-06T16:20:48.211Z</time></trkpt><trkpt lat="44.3940609" lon="8.1415609"><ele>652.0</ele><time>2026-04-06T16:20:56.211Z</time></trkpt><trkpt lat="44.3940214" lon="8.1416502"><ele>652.0</ele><time>2026-04-06T16:21:00.211Z</time></trkpt><trkpt lat="44.3939182" lon="8.1417479"><ele>652.0</ele><time>2026-04-06T16:21:02.211Z</time></trkpt><trkpt lat="44.3938565" lon="8.1417813"><ele>651.8</ele><time>2026-04-06T16:21:03.211Z</time></trkpt><trkpt lat="44.3937944" lon="8.1418093"><ele>651.6</ele><time>2026-04-06T16:21:04.211Z</time></trkpt><trkpt lat="44.3936984" lon="8.1418365"><ele>651.4</ele><time>2026-04-06T16:21:06.211Z</time></trkpt><trkpt lat="44.3936226" lon="8.1418465"><ele>651.1999999999999</ele><time>2026-04-06T16:21:09.211Z</time></trkpt><trkpt lat="44.3934514" lon="8.1418983"><ele>651.0</ele><time>2026-04-06T16:21:14.21Z</time></trkpt><trkpt lat="44.3933592" lon="8.1419527"><ele>651.0</ele><time>2026-04-06T16:21:16.21Z</time></trkpt><trkpt lat="44.3932688" lon="8.1419984"><ele>651.0</ele><time>2026-04-06T16:21:18.21Z</time></trkpt><trkpt lat="44.3931855" lon="8.1420041"><ele>651.0</ele><time>2026-04-06T16:21:20.21Z</time></trkpt><trkpt lat="44.3930941" lon="8.142021"><ele>651.0</ele><time>2026-04-06T16:21:22.21Z</time></trkpt><trkpt lat="44.3929958" lon="8.1420963"><ele>651.0</ele><time>2026-04-06T16:21:24.21Z</time></trkpt><trkpt lat="44.3929165" lon="8.1421589"><ele>652.0</ele><time>2026-04-06T16:21:26.21Z</time></trkpt><trkpt lat="44.3928248" lon="8.1421609"><ele>653.0</ele><time>2026-04-06T16:21:28.21Z</time></trkpt><trkpt lat="44.3927266" lon="8.1422138"><ele>654.0</ele><time>2026-04-06T16:21:30.21Z</time></trkpt><trkpt lat="44.3926264" lon="8.1422196"><ele>655.0</ele><time>2026-04-06T16:21:32.21Z</time></trkpt><trkpt lat="44.3925634" lon="8.1421979"><ele>656.0</ele><time>2026-04-06T16:21:33.21Z</time></trkpt><trkpt lat="44.3925031" lon="8.142168"><ele>657.0</ele><time>2026-04-06T16:21:34.21Z</time></trkpt><trkpt lat="44.392442" lon="8.1421309"><ele>657.0</ele><time>2026-04-06T16:21:35.211Z</time></trkpt><trkpt lat="44.3923825" lon="8.1420891"><ele>657.0</ele><time>2026-04-06T16:21:36.21Z</time></trkpt><trkpt lat="44.3923214" lon="8.1420289"><ele>657.0</ele><time>2026-04-06T16:21:37.21Z</time></trkpt><trkpt lat="44.3922599" lon="8.141954"><ele>657.0</ele><time>2026-04-06T16:21:38.21Z</time></trkpt><trkpt lat="44.3921946" lon="8.1418845"><ele>657.0</ele><time>2026-04-06T16:21:39.21Z</time></trkpt><trkpt lat="44.3921224" lon="8.1418188"><ele>657.0</ele><time>2026-04-06T16:21:40.211Z</time></trkpt><trkpt lat="44.3920513" lon="8.1417678"><ele>656.8333333333334</ele><time>2026-04-06T16:21:41.21Z</time></trkpt><trkpt lat="44.3919743" lon="8.1417215"><ele>656.6666666666666</ele><time>2026-04-06T16:21:42.21Z</time></trkpt><trkpt lat="44.3918823" lon="8.1416959"><ele>656.5</ele><time>2026-04-06T16:21:43.21Z</time></trkpt><trkpt lat="44.391788" lon="8.1416904"><ele>656.3333333333333</ele><time>2026-04-06T16:21:44.21Z</time></trkpt><trkpt lat="44.3917085" lon="8.1416783"><ele>656.1666666666666</ele><time>2026-04-06T16:21:45.21Z</time></trkpt><trkpt lat="44.3916237" lon="8.1416617"><ele>656.0</ele><time>2026-04-06T16:21:46.21Z</time></trkpt><trkpt lat="44.3915441" lon="8.1416142"><ele>656.0</ele><time>2026-04-06T16:21:47.21Z</time></trkpt><trkpt lat="44.391472" lon="8.1415488"><ele>656.0</ele><time>2026-04-06T16:21:48.21Z</time></trkpt><trkpt lat="44.391415" lon="8.141451"><ele>656.0</ele><time>2026-04-06T16:21:49.21Z</time></trkpt><trkpt lat="44.3913684" lon="8.141338"><ele>656.0</ele><time>2026-04-06T16:21:50.21Z</time></trkpt><trkpt lat="44.391313" lon="8.1412242"><ele>656.0</ele><time>2026-04-06T16:21:51.21Z</time></trkpt><trkpt lat="44.3912496" lon="8.1411083"><ele>657.1999999999999</ele><time>2026-04-06T16:21:52.21Z</time></trkpt><trkpt lat="44.3911788" lon="8.1409959"><ele>658.4</ele><time>2026-04-06T16:21:53.21Z</time></trkpt><trkpt lat="44.3911027" lon="8.1408844"><ele>659.6</ele><time>2026-04-06T16:21:54.21Z</time></trkpt><trkpt lat="44.3910391" lon="8.1407946"><ele>660.8</ele><time>2026-04-06T16:21:55.21Z</time></trkpt><trkpt lat="44.3909826" lon="8.1407401"><ele>662.0</ele><time>2026-04-06T16:21:56.21Z</time></trkpt><trkpt lat="44.3909011" lon="8.1406657"><ele>662.0</ele><time>2026-04-06T16:21:58.21Z</time></trkpt><trkpt lat="44.3908402" lon="8.1405827"><ele>662.0</ele><time>2026-04-06T16:22:00.21Z</time></trkpt><trkpt lat="44.3907692" lon="8.140544"><ele>662.0</ele><time>2026-04-06T16:22:03.21Z</time></trkpt><trkpt lat="44.3907363" lon="8.1406334"><ele>662.0</ele><time>2026-04-06T16:22:05.21Z</time></trkpt><trkpt lat="44.3907084" lon="8.1407402"><ele>662.0</ele><time>2026-04-06T16:22:06.21Z</time></trkpt><trkpt lat="44.3906756" lon="8.1408711"><ele>662.0</ele><time>2026-04-06T16:22:07.21Z</time></trkpt><trkpt lat="44.3906273" lon="8.1410111"><ele>662.0</ele><time>2026-04-06T16:22:08.21Z</time></trkpt><trkpt lat="44.390589" lon="8.1411654"><ele>662.0</ele><time>2026-04-06T16:22:09.21Z</time></trkpt><trkpt lat="44.3905486" lon="8.1413302"><ele>662.0</ele><time>2026-04-06T16:22:10.21Z</time></trkpt><trkpt lat="44.3905106" lon="8.1414722"><ele>662.0</ele><time>2026-04-06T16:22:11.21Z</time></trkpt><trkpt lat="44.3904628" lon="8.1416052"><ele>661.2</ele><time>2026-04-06T16:22:12.21Z</time></trkpt><trkpt lat="44.3904049" lon="8.141727"><ele>660.4000000000001</ele><time>2026-04-06T16:22:13.21Z</time></trkpt><trkpt lat="44.3903429" lon="8.1418456"><ele>659.5999999999999</ele><time>2026-04-06T16:22:14.21Z</time></trkpt><trkpt lat="44.3902749" lon="8.141964"><ele>658.8</ele><time>2026-04-06T16:22:15.21Z</time></trkpt><trkpt lat="44.3902071" lon="8.1420815"><ele>658.0</ele><time>2026-04-06T16:22:16.21Z</time></trkpt><trkpt lat="44.3901325" lon="8.1422095"><ele>658.0</ele><time>2026-04-06T16:22:17.21Z</time></trkpt><trkpt lat="44.3900611" lon="8.1423477"><ele>658.0</ele><time>2026-04-06T16:22:18.21Z</time></trkpt><trkpt lat="44.3899891" lon="8.1424889"><ele>658.0</ele><time>2026-04-06T16:22:19.21Z</time></trkpt><trkpt lat="44.3899" lon="8.1426407"><ele>658.0</ele><time>2026-04-06T16:22:20.21Z</time></trkpt><trkpt lat="44.3898024" lon="8.142799"><ele>658.3333333333334</ele><time>2026-04-06T16:22:21.21Z</time></trkpt><trkpt lat="44.3897001" lon="8.1429688"><ele>658.6666666666666</ele><time>2026-04-06T16:22:22.21Z</time></trkpt><trkpt lat="44.3896003" lon="8.1431576"><ele>659.0</ele><time>2026-04-06T16:22:23.21Z</time></trkpt><trkpt lat="44.3895099" lon="8.1433624"><ele>659.0</ele><time>2026-04-06T16:22:24.21Z</time></trkpt><trkpt lat="44.3894338" lon="8.1435431"><ele>659.0</ele><time>2026-04-06T16:22:25.21Z</time></trkpt><trkpt lat="44.3893723" lon="8.1437161"><ele>659.0</ele><time>2026-04-06T16:22:26.21Z</time></trkpt><trkpt lat="44.3893223" lon="8.1438929"><ele>659.0</ele><time>2026-04-06T16:22:27.21Z</time></trkpt><trkpt lat="44.3892774" lon="8.144071"><ele>658.0</ele><time>2026-04-06T16:22:28.21Z</time></trkpt><trkpt lat="44.389237" lon="8.1442152"><ele>657.0</ele><time>2026-04-06T16:22:29.21Z</time></trkpt><trkpt lat="44.3891985" lon="8.1443443"><ele>656.0</ele><time>2026-04-06T16:22:30.21Z</time></trkpt><trkpt lat="44.3891648" lon="8.1444636"><ele>655.0</ele><time>2026-04-06T16:22:31.21Z</time></trkpt><trkpt lat="44.3891347" lon="8.1445714"><ele>654.0</ele><time>2026-04-06T16:22:32.21Z</time></trkpt><trkpt lat="44.3891031" lon="8.1446762"><ele>654.0</ele><time>2026-04-06T16:22:33.21Z</time></trkpt><trkpt lat="44.3890858" lon="8.1447735"><ele>654.0</ele><time>2026-04-06T16:22:34.21Z</time></trkpt><trkpt lat="44.3890781" lon="8.1448624"><ele>654.0</ele><time>2026-04-06T16:22:35.21Z</time></trkpt><trkpt lat="44.3890348" lon="8.1449576"><ele>654.0</ele><time>2026-04-06T16:22:37.21Z</time></trkpt><trkpt lat="44.3889529" lon="8.1449032"><ele>654.0</ele><time>2026-04-06T16:22:40.21Z</time></trkpt><trkpt lat="44.3888824" lon="8.1447533"><ele>654.0</ele><time>2026-04-06T16:22:42.21Z</time></trkpt><trkpt lat="44.3888377" lon="8.1446646"><ele>655.1666666666666</ele><time>2026-04-06T16:22:43.21Z</time></trkpt><trkpt lat="44.3887864" lon="8.1445645"><ele>656.3333333333334</ele><time>2026-04-06T16:22:44.211Z</time></trkpt><trkpt lat="44.3887309" lon="8.1444797"><ele>657.5</ele><time>2026-04-06T16:22:45.21Z</time></trkpt><trkpt lat="44.3886772" lon="8.1443907"><ele>658.6666666666667</ele><time>2026-04-06T16:22:46.21Z</time></trkpt><trkpt lat="44.3886266" lon="8.1443199"><ele>659.8333333333334</ele><time>2026-04-06T16:22:47.21Z</time></trkpt><trkpt lat="44.3885701" lon="8.1442674"><ele>661.0</ele><time>2026-04-06T16:22:48.21Z</time></trkpt><trkpt lat="44.3885085" lon="8.1442242"><ele>661.0</ele><time>2026-04-06T16:22:49.21Z</time></trkpt><trkpt lat="44.3884461" lon="8.1441967"><ele>661.0</ele><time>2026-04-06T16:22:50.21Z</time></trkpt><trkpt lat="44.3883829" lon="8.1441843"><ele>661.0</ele><time>2026-04-06T16:22:51.21Z</time></trkpt><trkpt lat="44.3883074" lon="8.1441777"><ele>661.0</ele><time>2026-04-06T16:22:52.21Z</time></trkpt><trkpt lat="44.3882204" lon="8.1441901"><ele>661.0</ele><time>2026-04-06T16:22:53.21Z</time></trkpt><trkpt lat="44.3881357" lon="8.144215"><ele>661.0</ele><time>2026-04-06T16:22:54.21Z</time></trkpt><trkpt lat="44.3880474" lon="8.1442541"><ele>663.0</ele><time>2026-04-06T16:22:55.21Z</time></trkpt><trkpt lat="44.3879478" lon="8.144295"><ele>665.0</ele><time>2026-04-06T16:22:56.21Z</time></trkpt><trkpt lat="44.3878496" lon="8.144331"><ele>667.0</ele><time>2026-04-06T16:22:57.21Z</time></trkpt><trkpt lat="44.3877704" lon="8.1443567"><ele>669.0</ele><time>2026-04-06T16:22:58.21Z</time></trkpt><trkpt lat="44.3877" lon="8.1443551"><ele>671.0</ele><time>2026-04-06T16:22:59.211Z</time></trkpt><trkpt lat="44.3876141" lon="8.1443377"><ele>673.0</ele><time>2026-04-06T16:23:00.21Z</time></trkpt><trkpt lat="44.3875195" lon="8.1443101"><ele>673.0</ele><time>2026-04-06T16:23:01.211Z</time></trkpt><trkpt lat="44.3874043" lon="8.1442732"><ele>673.0</ele><time>2026-04-06T16:23:02.21Z</time></trkpt><trkpt lat="44.3872864" lon="8.1442351"><ele>673.0</ele><time>2026-04-06T16:23:03.21Z</time></trkpt><trkpt lat="44.3871644" lon="8.1441938"><ele>673.0</ele><time>2026-04-06T16:23:04.21Z</time></trkpt><trkpt lat="44.3870533" lon="8.1441563"><ele>674.5</ele><time>2026-04-06T16:23:05.21Z</time></trkpt><trkpt lat="44.3869366" lon="8.1441023"><ele>676.0</ele><time>2026-04-06T16:23:06.21Z</time></trkpt><trkpt lat="44.3868223" lon="8.1440416"><ele>677.5</ele><time>2026-04-06T16:23:07.21Z</time></trkpt><trkpt lat="44.3867024" lon="8.1439847"><ele>679.0</ele><time>2026-04-06T16:23:08.21Z</time></trkpt><trkpt lat="44.3865826" lon="8.1439183"><ele>679.75</ele><time>2026-04-06T16:23:09.21Z</time></trkpt><trkpt lat="44.3864596" lon="8.1438502"><ele>680.5</ele><time>2026-04-06T16:23:10.21Z</time></trkpt><trkpt lat="44.3863394" lon="8.1437922"><ele>681.25</ele><time>2026-04-06T16:23:11.21Z</time></trkpt><trkpt lat="44.3862253" lon="8.143733"><ele>682.0</ele><time>2026-04-06T16:23:12.21Z</time></trkpt><trkpt lat="44.3861211" lon="8.1436679"><ele>684.4000000000001</ele><time>2026-04-06T16:23:13.21Z</time></trkpt><trkpt lat="44.3860207" lon="8.1436063"><ele>686.8000000000001</ele><time>2026-04-06T16:23:14.21Z</time></trkpt><trkpt lat="44.3859186" lon="8.1435497"><ele>689.2</ele><time>2026-04-06T16:23:15.21Z</time></trkpt><trkpt lat="44.3858124" lon="8.1434949"><ele>691.6</ele><time>2026-04-06T16:23:16.21Z</time></trkpt><trkpt lat="44.3857053" lon="8.1434373"><ele>694.0</ele><time>2026-04-06T16:23:17.21Z</time></trkpt><trkpt lat="44.3855956" lon="8.1433784"><ele>694.8000000000001</ele><time>2026-04-06T16:23:18.21Z</time></trkpt><trkpt lat="44.3854962" lon="8.1433286"><ele>695.6</ele><time>2026-04-06T16:23:19.21Z</time></trkpt><trkpt lat="44.38539" lon="8.1432738"><ele>696.4</ele><time>2026-04-06T16:23:20.21Z</time></trkpt><trkpt lat="44.3852879" lon="8.1432158"><ele>697.2</ele><time>2026-04-06T16:23:21.21Z</time></trkpt><trkpt lat="44.3851974" lon="8.1431665"><ele>698.0</ele><time>2026-04-06T16:23:22.21Z</time></trkpt><trkpt lat="44.3851056" lon="8.14312"><ele>699.2</ele><time>2026-04-06T16:23:23.21Z</time></trkpt><trkpt lat="44.3850182" lon="8.1430573"><ele>700.4</ele><time>2026-04-06T16:23:24.21Z</time></trkpt><trkpt lat="44.3849363" lon="8.1429879"><ele>701.6</ele><time>2026-04-06T16:23:25.21Z</time></trkpt><trkpt lat="44.3848526" lon="8.1429174"><ele>702.8000000000001</ele><time>2026-04-06T16:23:26.21Z</time></trkpt><trkpt lat="44.3847698" lon="8.1428443"><ele>704.0</ele><time>2026-04-06T16:23:27.21Z</time></trkpt><trkpt lat="44.3846806" lon="8.1427773"><ele>705.75</ele><time>2026-04-06T16:23:28.21Z</time></trkpt><trkpt lat="44.3845718" lon="8.1427319"><ele>707.5</ele><time>2026-04-06T16:23:29.21Z</time></trkpt><trkpt lat="44.3844556" lon="8.1426892"><ele>709.25</ele><time>2026-04-06T16:23:30.21Z</time></trkpt><trkpt lat="44.3843417" lon="8.1426486"><ele>711.0</ele><time>2026-04-06T16:23:31.21Z</time></trkpt><trkpt lat="44.3842412" lon="8.1426206"><ele>711.0</ele><time>2026-04-06T16:23:32.21Z</time></trkpt><trkpt lat="44.3841525" lon="8.1425799"><ele>711.0</ele><time>2026-04-06T16:23:33.21Z</time></trkpt><trkpt lat="44.3840728" lon="8.1425265"><ele>711.0</ele><time>2026-04-06T16:23:34.21Z</time></trkpt><trkpt lat="44.3839924" lon="8.1424597"><ele>711.0</ele><time>2026-04-06T16:23:35.21Z</time></trkpt><trkpt lat="44.383904" lon="8.1423743"><ele>711.0</ele><time>2026-04-06T16:23:36.21Z</time></trkpt><trkpt lat="44.3838137" lon="8.1422731"><ele>711.25</ele><time>2026-04-06T16:23:37.21Z</time></trkpt><trkpt lat="44.3837214" lon="8.1421602"><ele>711.5</ele><time>2026-04-06T16:23:38.21Z</time></trkpt><trkpt lat="44.3836223" lon="8.1420649"><ele>711.75</ele><time>2026-04-06T16:23:39.21Z</time></trkpt><trkpt lat="44.383523" lon="8.1419652"><ele>712.0</ele><time>2026-04-06T16:23:40.21Z</time></trkpt><trkpt lat="44.3834118" lon="8.1418647"><ele>712.0</ele><time>2026-04-06T16:23:41.21Z</time></trkpt><trkpt lat="44.3833007" lon="8.1417694"><ele>712.0</ele><time>2026-04-06T16:23:42.21Z</time></trkpt><trkpt lat="44.3831972" lon="8.1416772"><ele>712.0</ele><time>2026-04-06T16:23:43.21Z</time></trkpt><trkpt lat="44.3830937" lon="8.1415984"><ele>712.0</ele><time>2026-04-06T16:23:44.21Z</time></trkpt><trkpt lat="44.3829891" lon="8.141537"><ele>715.0</ele><time>2026-04-06T16:23:45.21Z</time></trkpt><trkpt lat="44.3828787" lon="8.1414778"><ele>718.0</ele><time>2026-04-06T16:23:46.21Z</time></trkpt><trkpt lat="44.3827613" lon="8.1414235"><ele>721.0</ele><time>2026-04-06T16:23:47.21Z</time></trkpt><trkpt lat="44.3826548" lon="8.1413749"><ele>724.0</ele><time>2026-04-06T16:23:48.21Z</time></trkpt><trkpt lat="44.3825642" lon="8.1413322"><ele>727.0</ele><time>2026-04-06T16:23:49.21Z</time></trkpt><trkpt lat="44.3824838" lon="8.1413042"><ele>727.0</ele><time>2026-04-06T16:23:50.21Z</time></trkpt><trkpt lat="44.3824108" lon="8.1412926"><ele>727.0</ele><time>2026-04-06T16:23:51.21Z</time></trkpt><trkpt lat="44.3823297" lon="8.1413043"><ele>727.0</ele><time>2026-04-06T16:23:52.21Z</time></trkpt><trkpt lat="44.3822397" lon="8.1413432"><ele>727.0</ele><time>2026-04-06T16:23:53.21Z</time></trkpt><trkpt lat="44.3821413" lon="8.1413962"><ele>727.0</ele><time>2026-04-06T16:23:54.21Z</time></trkpt><trkpt lat="44.3820408" lon="8.1414845"><ele>728.0</ele><time>2026-04-06T16:23:55.21Z</time></trkpt><trkpt lat="44.381945" lon="8.1415689"><ele>729.0</ele><time>2026-04-06T16:23:56.21Z</time></trkpt><trkpt lat="44.3818543" lon="8.1416249"><ele>730.0</ele><time>2026-04-06T16:23:57.21Z</time></trkpt><trkpt lat="44.3817659" lon="8.1416682"><ele>731.0</ele><time>2026-04-06T16:23:58.21Z</time></trkpt><trkpt lat="44.381682" lon="8.1417276"><ele>732.0</ele><time>2026-04-06T16:23:59.21Z</time></trkpt><trkpt lat="44.3816096" lon="8.1418377"><ele>732.0</ele><time>2026-04-06T16:24:00.21Z</time></trkpt><trkpt lat="44.3815523" lon="8.1419651"><ele>732.0</ele><time>2026-04-06T16:24:01.21Z</time></trkpt><trkpt lat="44.3815095" lon="8.1420717"><ele>732.0</ele><time>2026-04-06T16:24:02.21Z</time></trkpt><trkpt lat="44.3814581" lon="8.1421791"><ele>732.0</ele><time>2026-04-06T16:24:03.21Z</time></trkpt><trkpt lat="44.3814175" lon="8.1422669"><ele>732.0</ele><time>2026-04-06T16:24:04.21Z</time></trkpt><trkpt lat="44.3813654" lon="8.1423349"><ele>732.0</ele><time>2026-04-06T16:24:05.21Z</time></trkpt><trkpt lat="44.3813072" lon="8.1423916"><ele>731.3333333333334</ele><time>2026-04-06T16:24:06.21Z</time></trkpt><trkpt lat="44.3812465" lon="8.1424255"><ele>730.6666666666666</ele><time>2026-04-06T16:24:07.21Z</time></trkpt><trkpt lat="44.3811731" lon="8.1424245"><ele>730.0</ele><time>2026-04-06T16:24:08.21Z</time></trkpt><trkpt lat="44.3810826" lon="8.1424025"><ele>729.3333333333333</ele><time>2026-04-06T16:24:09.21Z</time></trkpt><trkpt lat="44.3810043" lon="8.1423751"><ele>728.6666666666666</ele><time>2026-04-06T16:24:10.21Z</time></trkpt><trkpt lat="44.3809422" lon="8.142334"><ele>728.0</ele><time>2026-04-06T16:24:11.21Z</time></trkpt><trkpt lat="44.3808821" lon="8.1422568"><ele>731.8</ele><time>2026-04-06T16:24:12.21Z</time></trkpt><trkpt lat="44.3808106" lon="8.1421564"><ele>735.5999999999999</ele><time>2026-04-06T16:24:13.21Z</time></trkpt><trkpt lat="44.3807326" lon="8.1420845"><ele>739.4000000000001</ele><time>2026-04-06T16:24:14.21Z</time></trkpt><trkpt lat="44.380635" lon="8.142018"><ele>743.2</ele><time>2026-04-06T16:24:15.21Z</time></trkpt><trkpt lat="44.3805318" lon="8.1419564"><ele>747.0</ele><time>2026-04-06T16:24:16.21Z</time></trkpt><trkpt lat="44.3804386" lon="8.1419129"><ele>748.1428571428571</ele><time>2026-04-06T16:24:17.21Z</time></trkpt><trkpt lat="44.3803597" lon="8.1418707"><ele>749.2857142857142</ele><time>2026-04-06T16:24:18.21Z</time></trkpt><trkpt lat="44.3802987" lon="8.1418272"><ele>750.4285714285713</ele><time>2026-04-06T16:24:19.21Z</time></trkpt><trkpt lat="44.380237" lon="8.141794"><ele>751.5714285714286</ele><time>2026-04-06T16:24:20.21Z</time></trkpt><trkpt lat="44.3801677" lon="8.1417766"><ele>752.7142857142858</ele><time>2026-04-06T16:24:21.21Z</time></trkpt><trkpt lat="44.3800885" lon="8.1417694"><ele>753.8571428571428</ele><time>2026-04-06T16:24:22.21Z</time></trkpt><trkpt lat="44.3800085" lon="8.141781"><ele>755.0</ele><time>2026-04-06T16:24:23.21Z</time></trkpt><trkpt lat="44.3799264" lon="8.1418318"><ele>755.0</ele><time>2026-04-06T16:24:24.21Z</time></trkpt><trkpt lat="44.3798445" lon="8.1418782"><ele>755.0</ele><time>2026-04-06T16:24:25.21Z</time></trkpt><trkpt lat="44.3797825" lon="8.1419055"><ele>755.0</ele><time>2026-04-06T16:24:26.21Z</time></trkpt><trkpt lat="44.3796771" lon="8.1419024"><ele>755.0</ele><time>2026-04-06T16:24:28.21Z</time></trkpt><trkpt lat="44.3796086" lon="8.1418586"><ele>755.0</ele><time>2026-04-06T16:24:29.21Z</time></trkpt><trkpt lat="44.3795323" lon="8.141775"><ele>755.0</ele><time>2026-04-06T16:24:30.21Z</time></trkpt><trkpt lat="44.3794499" lon="8.1416664"><ele>755.75</ele><time>2026-04-06T16:24:31.21Z</time></trkpt><trkpt lat="44.3793699" lon="8.1415351"><ele>756.5</ele><time>2026-04-06T16:24:32.21Z</time></trkpt><trkpt lat="44.3792757" lon="8.141392"><ele>757.25</ele><time>2026-04-06T16:24:33.21Z</time></trkpt><trkpt lat="44.379176" lon="8.1412677"><ele>758.0</ele><time>2026-04-06T16:24:34.21Z</time></trkpt><trkpt lat="44.3790709" lon="8.1411731"><ele>758.0</ele><time>2026-04-06T16:24:35.21Z</time></trkpt><trkpt lat="44.3789826" lon="8.1411034"><ele>758.0</ele><time>2026-04-06T16:24:36.21Z</time></trkpt><trkpt lat="44.3789072" lon="8.1410533"><ele>758.0</ele><time>2026-04-06T16:24:37.21Z</time></trkpt><trkpt lat="44.378848" lon="8.1410033"><ele>758.0</ele><time>2026-04-06T16:24:38.21Z</time></trkpt><trkpt lat="44.3787679" lon="8.1409324"><ele>758.0</ele><time>2026-04-06T16:24:40.21Z</time></trkpt><trkpt lat="44.3787558" lon="8.1408408"><ele>758.0</ele><time>2026-04-06T16:24:42.21Z</time></trkpt><trkpt lat="44.3787745" lon="8.1407164"><ele>752.4</ele><time>2026-04-06T16:24:44.21Z</time></trkpt><trkpt lat="44.3788027" lon="8.1405494"><ele>746.8</ele><time>2026-04-06T16:24:46.21Z</time></trkpt><trkpt lat="44.3788259" lon="8.1404079"><ele>741.2</ele><time>2026-04-06T16:24:48.21Z</time></trkpt><trkpt lat="44.3788349" lon="8.1402813"><ele>735.6</ele><time>2026-04-06T16:24:50.21Z</time></trkpt><trkpt lat="44.3788267" lon="8.1401851"><ele>730.0</ele><time>2026-04-06T16:24:52.21Z</time></trkpt><trkpt lat="44.3787876" lon="8.1400651"><ele>730.0</ele><time>2026-04-06T16:24:57.21Z</time></trkpt><trkpt lat="44.3787137" lon="8.1400413"><ele>730.0</ele><time>2026-04-06T16:25:02.21Z</time></trkpt><trkpt lat="44.3786502" lon="8.1401512"><ele>730.0</ele><time>2026-04-06T16:25:04.21Z</time></trkpt><trkpt lat="44.3786426" lon="8.1402426"><ele>730.0</ele><time>2026-04-06T16:25:05.21Z</time></trkpt><trkpt lat="44.3786336" lon="8.1403699"><ele>730.0</ele><time>2026-04-06T16:25:06.21Z</time></trkpt><trkpt lat="44.3786092" lon="8.1405004"><ele>730.0</ele><time>2026-04-06T16:25:07.21Z</time></trkpt><trkpt lat="44.3785723" lon="8.140635"><ele>731.8</ele><time>2026-04-06T16:25:08.21Z</time></trkpt><trkpt lat="44.3785289" lon="8.1407676"><ele>733.6</ele><time>2026-04-06T16:25:09.21Z</time></trkpt><trkpt lat="44.3784778" lon="8.1408837"><ele>735.4000000000001</ele><time>2026-04-06T16:25:10.21Z</time></trkpt><trkpt lat="44.3784252" lon="8.1409914"><ele>737.2</ele><time>2026-04-06T16:25:11.21Z</time></trkpt><trkpt lat="44.3783665" lon="8.1410942"><ele>739.0</ele><time>2026-04-06T16:25:12.21Z</time></trkpt><trkpt lat="44.3783152" lon="8.1411998"><ele>739.0</ele><time>2026-04-06T16:25:13.21Z</time></trkpt><trkpt lat="44.3782756" lon="8.1412897"><ele>739.0</ele><time>2026-04-06T16:25:14.21Z</time></trkpt><trkpt lat="44.3781863" lon="8.1414066"><ele>739.0</ele><time>2026-04-06T16:25:16.21Z</time></trkpt><trkpt lat="44.3781143" lon="8.1414366"><ele>739.0</ele><time>2026-04-06T16:25:17.21Z</time></trkpt><trkpt lat="44.3780256" lon="8.1414501"><ele>739.0</ele><time>2026-04-06T16:25:18.21Z</time></trkpt><trkpt lat="44.3779239" lon="8.1414534"><ele>737.8000000000001</ele><time>2026-04-06T16:25:19.21Z</time></trkpt><trkpt lat="44.3778221" lon="8.1414704"><ele>736.6</ele><time>2026-04-06T16:25:20.21Z</time></trkpt><trkpt lat="44.3777198" lon="8.1414845"><ele>735.4</ele><time>2026-04-06T16:25:21.21Z</time></trkpt><trkpt lat="44.3776141" lon="8.1414958"><ele>734.2</ele><time>2026-04-06T16:25:22.21Z</time></trkpt><trkpt lat="44.3775112" lon="8.1414986"><ele>733.0</ele><time>2026-04-06T16:25:23.21Z</time></trkpt><trkpt lat="44.3774148" lon="8.1415016"><ele>733.0</ele><time>2026-04-06T16:25:24.21Z</time></trkpt><trkpt lat="44.3773207" lon="8.1414884"><ele>733.0</ele><time>2026-04-06T16:25:25.21Z</time></trkpt><trkpt lat="44.3772166" lon="8.1414612"><ele>733.0</ele><time>2026-04-06T16:25:26.21Z</time></trkpt><trkpt lat="44.377108" lon="8.141412"><ele>733.0</ele><time>2026-04-06T16:25:27.21Z</time></trkpt><trkpt lat="44.3769886" lon="8.1413398"><ele>733.0</ele><time>2026-04-06T16:25:28.21Z</time></trkpt><trkpt lat="44.3768595" lon="8.1412667"><ele>733.25</ele><time>2026-04-06T16:25:29.21Z</time></trkpt><trkpt lat="44.3767265" lon="8.1411892"><ele>733.5</ele><time>2026-04-06T16:25:30.21Z</time></trkpt><trkpt lat="44.3765937" lon="8.1411153"><ele>733.75</ele><time>2026-04-06T16:25:31.21Z</time></trkpt><trkpt lat="44.3764727" lon="8.1410411"><ele>734.0</ele><time>2026-04-06T16:25:32.21Z</time></trkpt><trkpt lat="44.3763597" lon="8.1409676"><ele>734.0</ele><time>2026-04-06T16:25:33.21Z</time></trkpt><trkpt lat="44.3762524" lon="8.1408865"><ele>734.0</ele><time>2026-04-06T16:25:34.21Z</time></trkpt><trkpt lat="44.3761671" lon="8.140812"><ele>734.0</ele><time>2026-04-06T16:25:35.21Z</time></trkpt><trkpt lat="44.3760902" lon="8.1407393"><ele>734.0</ele><time>2026-04-06T16:25:36.21Z</time></trkpt><trkpt lat="44.3760132" lon="8.1406623"><ele>734.0</ele><time>2026-04-06T16:25:37.21Z</time></trkpt><trkpt lat="44.3759396" lon="8.1405858"><ele>733.8000000000001</ele><time>2026-04-06T16:25:38.21Z</time></trkpt><trkpt lat="44.3758635" lon="8.1405154"><ele>733.6</ele><time>2026-04-06T16:25:39.21Z</time></trkpt><trkpt lat="44.3757869" lon="8.1404362"><ele>733.4</ele><time>2026-04-06T16:25:40.21Z</time></trkpt><trkpt lat="44.3757037" lon="8.1403579"><ele>733.2</ele><time>2026-04-06T16:25:41.21Z</time></trkpt><trkpt lat="44.3756275" lon="8.140278"><ele>733.0</ele><time>2026-04-06T16:25:42.21Z</time></trkpt><trkpt lat="44.3755504" lon="8.1402013"><ele>732.6666666666667</ele><time>2026-04-06T16:25:43.21Z</time></trkpt><trkpt lat="44.3754851" lon="8.1401375"><ele>732.3333333333334</ele><time>2026-04-06T16:25:44.21Z</time></trkpt><trkpt lat="44.3754228" lon="8.1400745"><ele>732.0</ele><time>2026-04-06T16:25:45.21Z</time></trkpt><trkpt lat="44.3753669" lon="8.1400144"><ele>731.6666666666666</ele><time>2026-04-06T16:25:46.21Z</time></trkpt><trkpt lat="44.3752789" lon="8.1399258"><ele>731.3333333333333</ele><time>2026-04-06T16:25:48.21Z</time></trkpt><trkpt lat="44.3752173" lon="8.1398399"><ele>731.0</ele><time>2026-04-06T16:25:50.21Z</time></trkpt><trkpt lat="44.375133" lon="8.1395693"><ele>727.0</ele><time>2026-04-06T16:25:54.21Z</time></trkpt><trkpt lat="44.3750375" lon="8.1394934"><ele>727.0</ele><time>2026-04-06T16:25:56.21Z</time></trkpt><trkpt lat="44.3749467" lon="8.1395391"><ele>727.0</ele><time>2026-04-06T16:25:58.21Z</time></trkpt><trkpt lat="44.3748736" lon="8.1395811"><ele>727.0</ele><time>2026-04-06T16:26:01.21Z</time></trkpt></trkseg></trk></gpx>